<?xml version="1.0" encoding="UTF-8" standalone="no" ?>
<gpx xmlns="http://www.topografix.com/GPX/1/1" xmlns:xsi="http://www.w3.org/2001/XMLSchema-instance" xsi:schemaLocation="http://www.topografix.com/GPX/1/1 http://www.topografix.com/GPX/1/1/gpx.xsd" version="1.1" creator="VisuGPX - https://www.visugpx.com">
  <metadata>
    <name>Lourdes Tourmalet Lourdes</name>
    <desc><![CDATA[Col du Tourmalet avec Yvon, Pauline et Nina. Boucle Lourdes Tourmalet Lourdes.]]></desc>
  </metadata>
  <trk>
    <name><![CDATA[Lourdes Tourmalet Lourdes_1]]></name>
    <trkseg>
      <trkpt lat="43.08986" lon="-0.05441">
        <ele>428</ele>
        <time>2022-08-02T07:38:37Z</time>
      </trkpt>
      <trkpt lat="43.08985" lon="-0.05441">
        <ele>426.1</ele>
        <time>2022-08-02T07:38:42Z</time>
      </trkpt>
      <trkpt lat="43.08985" lon="-0.05441">
        <ele>425.8</ele>
        <time>2022-08-02T07:38:48Z</time>
      </trkpt>
      <trkpt lat="43.08985" lon="-0.05439">
        <ele>426.5</ele>
        <time>2022-08-02T07:38:53Z</time>
      </trkpt>
      <trkpt lat="43.08981" lon="-0.0544">
        <ele>427.3</ele>
        <time>2022-08-02T07:38:59Z</time>
      </trkpt>
      <trkpt lat="43.08986" lon="-0.05443">
        <ele>425.7</ele>
        <time>2022-08-02T07:39:05Z</time>
      </trkpt>
      <trkpt lat="43.08988" lon="-0.05437">
        <ele>423.3</ele>
        <time>2022-08-02T07:39:11Z</time>
      </trkpt>
      <trkpt lat="43.08985" lon="-0.05438">
        <ele>422.6</ele>
        <time>2022-08-02T07:39:16Z</time>
      </trkpt>
      <trkpt lat="43.08984" lon="-0.05438">
        <ele>422.3</ele>
        <time>2022-08-02T07:39:22Z</time>
      </trkpt>
      <trkpt lat="43.0898" lon="-0.05437">
        <ele>423.2</ele>
        <time>2022-08-02T07:39:27Z</time>
      </trkpt>
      <trkpt lat="43.08968" lon="-0.05434">
        <ele>423.7</ele>
        <time>2022-08-02T07:39:33Z</time>
      </trkpt>
      <trkpt lat="43.08966" lon="-0.05433">
        <ele>424</ele>
        <time>2022-08-02T07:39:38Z</time>
      </trkpt>
      <trkpt lat="43.08969" lon="-0.05434">
        <ele>427.7</ele>
        <time>2022-08-02T07:39:44Z</time>
      </trkpt>
      <trkpt lat="43.08969" lon="-0.05435">
        <ele>427.7</ele>
        <time>2022-08-02T07:39:50Z</time>
      </trkpt>
      <trkpt lat="43.08969" lon="-0.05434">
        <ele>427.7</ele>
        <time>2022-08-02T07:39:56Z</time>
      </trkpt>
      <trkpt lat="43.08969" lon="-0.05434">
        <ele>427.7</ele>
        <time>2022-08-02T07:40:01Z</time>
      </trkpt>
      <trkpt lat="43.08969" lon="-0.05434">
        <ele>427.7</ele>
        <time>2022-08-02T07:40:06Z</time>
      </trkpt>
      <trkpt lat="43.08969" lon="-0.05434">
        <ele>427.7</ele>
        <time>2022-08-02T07:40:12Z</time>
      </trkpt>
      <trkpt lat="43.08969" lon="-0.05434">
        <ele>427.7</ele>
        <time>2022-08-02T07:40:18Z</time>
      </trkpt>
      <trkpt lat="43.08968" lon="-0.05432">
        <ele>428.9</ele>
        <time>2022-08-02T07:40:23Z</time>
      </trkpt>
      <trkpt lat="43.08966" lon="-0.05428">
        <ele>430</ele>
        <time>2022-08-02T07:40:29Z</time>
      </trkpt>
      <trkpt lat="43.08966" lon="-0.05428">
        <ele>429.3</ele>
        <time>2022-08-02T07:40:34Z</time>
      </trkpt>
      <trkpt lat="43.08966" lon="-0.05429">
        <ele>427.7</ele>
        <time>2022-08-02T07:40:40Z</time>
      </trkpt>
      <trkpt lat="43.08966" lon="-0.05429">
        <ele>427.6</ele>
        <time>2022-08-02T07:40:46Z</time>
      </trkpt>
      <trkpt lat="43.08966" lon="-0.05429">
        <ele>427.6</ele>
        <time>2022-08-02T07:40:52Z</time>
      </trkpt>
      <trkpt lat="43.08966" lon="-0.05429">
        <ele>427.6</ele>
        <time>2022-08-02T07:40:57Z</time>
      </trkpt>
      <trkpt lat="43.08966" lon="-0.05429">
        <ele>427.6</ele>
        <time>2022-08-02T07:41:02Z</time>
      </trkpt>
      <trkpt lat="43.08966" lon="-0.05429">
        <ele>427.6</ele>
        <time>2022-08-02T07:41:08Z</time>
      </trkpt>
      <trkpt lat="43.08966" lon="-0.05429">
        <ele>427.6</ele>
        <time>2022-08-02T07:41:14Z</time>
      </trkpt>
      <trkpt lat="43.08966" lon="-0.05429">
        <ele>427.6</ele>
        <time>2022-08-02T07:41:19Z</time>
      </trkpt>
      <trkpt lat="43.08966" lon="-0.05429">
        <ele>427.5</ele>
        <time>2022-08-02T07:41:24Z</time>
      </trkpt>
      <trkpt lat="43.08966" lon="-0.05429">
        <ele>427.5</ele>
        <time>2022-08-02T07:41:30Z</time>
      </trkpt>
      <trkpt lat="43.08966" lon="-0.05429">
        <ele>427.5</ele>
        <time>2022-08-02T07:41:36Z</time>
      </trkpt>
      <trkpt lat="43.08966" lon="-0.05429">
        <ele>427.5</ele>
        <time>2022-08-02T07:41:41Z</time>
      </trkpt>
      <trkpt lat="43.08966" lon="-0.05429">
        <ele>427.5</ele>
        <time>2022-08-02T07:41:46Z</time>
      </trkpt>
      <trkpt lat="43.08966" lon="-0.05429">
        <ele>427.5</ele>
        <time>2022-08-02T07:41:51Z</time>
      </trkpt>
      <trkpt lat="43.08968" lon="-0.0542">
        <ele>428.3</ele>
        <time>2022-08-02T07:41:57Z</time>
      </trkpt>
      <trkpt lat="43.08968" lon="-0.05404">
        <ele>426.2</ele>
        <time>2022-08-02T07:42:03Z</time>
      </trkpt>
      <trkpt lat="43.0897" lon="-0.05385">
        <ele>424.1</ele>
        <time>2022-08-02T07:42:09Z</time>
      </trkpt>
      <trkpt lat="43.0897" lon="-0.05369">
        <ele>421.6</ele>
        <time>2022-08-02T07:42:15Z</time>
      </trkpt>
      <trkpt lat="43.08974" lon="-0.05347">
        <ele>418.6</ele>
        <time>2022-08-02T07:42:20Z</time>
      </trkpt>
      <trkpt lat="43.08968" lon="-0.05322">
        <ele>418.1</ele>
        <time>2022-08-02T07:42:25Z</time>
      </trkpt>
      <trkpt lat="43.0896" lon="-0.05299">
        <ele>417.7</ele>
        <time>2022-08-02T07:42:30Z</time>
      </trkpt>
      <trkpt lat="43.08953" lon="-0.05268">
        <ele>416.8</ele>
        <time>2022-08-02T07:42:36Z</time>
      </trkpt>
      <trkpt lat="43.08945" lon="-0.05241">
        <ele>415.3</ele>
        <time>2022-08-02T07:42:41Z</time>
      </trkpt>
      <trkpt lat="43.08937" lon="-0.0521">
        <ele>416.8</ele>
        <time>2022-08-02T07:42:47Z</time>
      </trkpt>
      <trkpt lat="43.08929" lon="-0.05184">
        <ele>418.3</ele>
        <time>2022-08-02T07:42:52Z</time>
      </trkpt>
      <trkpt lat="43.08922" lon="-0.05155">
        <ele>420</ele>
        <time>2022-08-02T07:42:58Z</time>
      </trkpt>
      <trkpt lat="43.08916" lon="-0.0513">
        <ele>423.7</ele>
        <time>2022-08-02T07:43:03Z</time>
      </trkpt>
      <trkpt lat="43.08908" lon="-0.051">
        <ele>425.5</ele>
        <time>2022-08-02T07:43:09Z</time>
      </trkpt>
      <trkpt lat="43.08902" lon="-0.05077">
        <ele>426.7</ele>
        <time>2022-08-02T07:43:14Z</time>
      </trkpt>
      <trkpt lat="43.08895" lon="-0.05053">
        <ele>428.6</ele>
        <time>2022-08-02T07:43:20Z</time>
      </trkpt>
      <trkpt lat="43.08889" lon="-0.0503">
        <ele>430.8</ele>
        <time>2022-08-02T07:43:26Z</time>
      </trkpt>
      <trkpt lat="43.08885" lon="-0.05011">
        <ele>431.2</ele>
        <time>2022-08-02T07:43:31Z</time>
      </trkpt>
      <trkpt lat="43.08883" lon="-0.04994">
        <ele>432.7</ele>
        <time>2022-08-02T07:43:36Z</time>
      </trkpt>
      <trkpt lat="43.08883" lon="-0.04978">
        <ele>434.5</ele>
        <time>2022-08-02T07:43:41Z</time>
      </trkpt>
      <trkpt lat="43.08885" lon="-0.04958">
        <ele>434.8</ele>
        <time>2022-08-02T07:43:47Z</time>
      </trkpt>
      <trkpt lat="43.08884" lon="-0.04949">
        <ele>432.7</ele>
        <time>2022-08-02T07:43:53Z</time>
      </trkpt>
      <trkpt lat="43.08883" lon="-0.04935">
        <ele>430.3</ele>
        <time>2022-08-02T07:43:58Z</time>
      </trkpt>
      <trkpt lat="43.08888" lon="-0.04911">
        <ele>429.2</ele>
        <time>2022-08-02T07:44:04Z</time>
      </trkpt>
      <trkpt lat="43.08895" lon="-0.04891">
        <ele>428.5</ele>
        <time>2022-08-02T07:44:10Z</time>
      </trkpt>
      <trkpt lat="43.08904" lon="-0.04872">
        <ele>434.5</ele>
        <time>2022-08-02T07:44:15Z</time>
      </trkpt>
      <trkpt lat="43.08915" lon="-0.04856">
        <ele>432.7</ele>
        <time>2022-08-02T07:44:20Z</time>
      </trkpt>
      <trkpt lat="43.08925" lon="-0.04839">
        <ele>433.9</ele>
        <time>2022-08-02T07:44:26Z</time>
      </trkpt>
      <trkpt lat="43.08936" lon="-0.0482">
        <ele>433.3</ele>
        <time>2022-08-02T07:44:31Z</time>
      </trkpt>
      <trkpt lat="43.08945" lon="-0.04794">
        <ele>431.9</ele>
        <time>2022-08-02T07:44:36Z</time>
      </trkpt>
      <trkpt lat="43.08952" lon="-0.04769">
        <ele>429.6</ele>
        <time>2022-08-02T07:44:41Z</time>
      </trkpt>
      <trkpt lat="43.08945" lon="-0.04741">
        <ele>428.9</ele>
        <time>2022-08-02T07:44:47Z</time>
      </trkpt>
      <trkpt lat="43.0893" lon="-0.0472">
        <ele>427.5</ele>
        <time>2022-08-02T07:44:52Z</time>
      </trkpt>
      <trkpt lat="43.08924" lon="-0.04696">
        <ele>426</ele>
        <time>2022-08-02T07:44:57Z</time>
      </trkpt>
      <trkpt lat="43.08922" lon="-0.04684">
        <ele>429.2</ele>
        <time>2022-08-02T07:45:03Z</time>
      </trkpt>
      <trkpt lat="43.08919" lon="-0.04693">
        <ele>429.8</ele>
        <time>2022-08-02T07:45:08Z</time>
      </trkpt>
      <trkpt lat="43.0892" lon="-0.04689">
        <ele>430.7</ele>
        <time>2022-08-02T07:45:14Z</time>
      </trkpt>
      <trkpt lat="43.08922" lon="-0.04687">
        <ele>431.1</ele>
        <time>2022-08-02T07:45:20Z</time>
      </trkpt>
      <trkpt lat="43.08923" lon="-0.04686">
        <ele>431.8</ele>
        <time>2022-08-02T07:45:25Z</time>
      </trkpt>
      <trkpt lat="43.08923" lon="-0.04685">
        <ele>431.9</ele>
        <time>2022-08-02T07:45:31Z</time>
      </trkpt>
      <trkpt lat="43.08925" lon="-0.04684">
        <ele>432.9</ele>
        <time>2022-08-02T07:45:36Z</time>
      </trkpt>
      <trkpt lat="43.08934" lon="-0.04674">
        <ele>432.7</ele>
        <time>2022-08-02T07:45:41Z</time>
      </trkpt>
      <trkpt lat="43.08945" lon="-0.04653">
        <ele>433.9</ele>
        <time>2022-08-02T07:45:46Z</time>
      </trkpt>
      <trkpt lat="43.08945" lon="-0.04627">
        <ele>435.4</ele>
        <time>2022-08-02T07:45:52Z</time>
      </trkpt>
      <trkpt lat="43.08924" lon="-0.04617">
        <ele>438.9</ele>
        <time>2022-08-02T07:45:57Z</time>
      </trkpt>
      <trkpt lat="43.08903" lon="-0.04617">
        <ele>443.7</ele>
        <time>2022-08-02T07:46:03Z</time>
      </trkpt>
      <trkpt lat="43.08884" lon="-0.04616">
        <ele>448</ele>
        <time>2022-08-02T07:46:08Z</time>
      </trkpt>
      <trkpt lat="43.08861" lon="-0.04613">
        <ele>450.3</ele>
        <time>2022-08-02T07:46:14Z</time>
      </trkpt>
      <trkpt lat="43.08838" lon="-0.04612">
        <ele>451.9</ele>
        <time>2022-08-02T07:46:19Z</time>
      </trkpt>
      <trkpt lat="43.0881" lon="-0.04613">
        <ele>450.5</ele>
        <time>2022-08-02T07:46:25Z</time>
      </trkpt>
      <trkpt lat="43.08781" lon="-0.04615">
        <ele>451.7</ele>
        <time>2022-08-02T07:46:31Z</time>
      </trkpt>
      <trkpt lat="43.08754" lon="-0.04613">
        <ele>454.7</ele>
        <time>2022-08-02T07:46:36Z</time>
      </trkpt>
      <trkpt lat="43.08727" lon="-0.04612">
        <ele>455.8</ele>
        <time>2022-08-02T07:46:41Z</time>
      </trkpt>
      <trkpt lat="43.087" lon="-0.04612">
        <ele>458.3</ele>
        <time>2022-08-02T07:46:46Z</time>
      </trkpt>
      <trkpt lat="43.08667" lon="-0.04612">
        <ele>453.9</ele>
        <time>2022-08-02T07:46:52Z</time>
      </trkpt>
      <trkpt lat="43.08632" lon="-0.04603">
        <ele>453.3</ele>
        <time>2022-08-02T07:46:58Z</time>
      </trkpt>
      <trkpt lat="43.086" lon="-0.04597">
        <ele>454.6</ele>
        <time>2022-08-02T07:47:03Z</time>
      </trkpt>
      <trkpt lat="43.08564" lon="-0.04591">
        <ele>457.5</ele>
        <time>2022-08-02T07:47:09Z</time>
      </trkpt>
      <trkpt lat="43.08537" lon="-0.04587">
        <ele>458</ele>
        <time>2022-08-02T07:47:14Z</time>
      </trkpt>
      <trkpt lat="43.08502" lon="-0.0458">
        <ele>459</ele>
        <time>2022-08-02T07:47:20Z</time>
      </trkpt>
      <trkpt lat="43.08468" lon="-0.04573">
        <ele>459.7</ele>
        <time>2022-08-02T07:47:26Z</time>
      </trkpt>
      <trkpt lat="43.0844" lon="-0.04567">
        <ele>459.7</ele>
        <time>2022-08-02T07:47:31Z</time>
      </trkpt>
      <trkpt lat="43.0841" lon="-0.04569">
        <ele>460.4</ele>
        <time>2022-08-02T07:47:37Z</time>
      </trkpt>
      <trkpt lat="43.08389" lon="-0.04575">
        <ele>461.7</ele>
        <time>2022-08-02T07:47:42Z</time>
      </trkpt>
      <trkpt lat="43.08368" lon="-0.04581">
        <ele>465.1</ele>
        <time>2022-08-02T07:47:47Z</time>
      </trkpt>
      <trkpt lat="43.08343" lon="-0.04581">
        <ele>466.3</ele>
        <time>2022-08-02T07:47:52Z</time>
      </trkpt>
      <trkpt lat="43.08327" lon="-0.04559">
        <ele>465.7</ele>
        <time>2022-08-02T07:47:58Z</time>
      </trkpt>
      <trkpt lat="43.08317" lon="-0.04535">
        <ele>464.5</ele>
        <time>2022-08-02T07:48:03Z</time>
      </trkpt>
      <trkpt lat="43.08308" lon="-0.0451">
        <ele>463.8</ele>
        <time>2022-08-02T07:48:08Z</time>
      </trkpt>
      <trkpt lat="43.08303" lon="-0.04496">
        <ele>461.4</ele>
        <time>2022-08-02T07:48:14Z</time>
      </trkpt>
      <trkpt lat="43.08291" lon="-0.04491">
        <ele>462.7</ele>
        <time>2022-08-02T07:48:19Z</time>
      </trkpt>
      <trkpt lat="43.08273" lon="-0.04471">
        <ele>460.7</ele>
        <time>2022-08-02T07:48:25Z</time>
      </trkpt>
      <trkpt lat="43.08272" lon="-0.04444">
        <ele>455.8</ele>
        <time>2022-08-02T07:48:30Z</time>
      </trkpt>
      <trkpt lat="43.08264" lon="-0.04422">
        <ele>455.6</ele>
        <time>2022-08-02T07:48:35Z</time>
      </trkpt>
      <trkpt lat="43.08247" lon="-0.04404">
        <ele>456.5</ele>
        <time>2022-08-02T07:48:41Z</time>
      </trkpt>
      <trkpt lat="43.08236" lon="-0.04388">
        <ele>458.2</ele>
        <time>2022-08-02T07:48:46Z</time>
      </trkpt>
      <trkpt lat="43.08227" lon="-0.04369">
        <ele>459</ele>
        <time>2022-08-02T07:48:51Z</time>
      </trkpt>
      <trkpt lat="43.08216" lon="-0.04345">
        <ele>457.3</ele>
        <time>2022-08-02T07:48:57Z</time>
      </trkpt>
      <trkpt lat="43.08204" lon="-0.04321">
        <ele>454.5</ele>
        <time>2022-08-02T07:49:02Z</time>
      </trkpt>
      <trkpt lat="43.08187" lon="-0.04288">
        <ele>452.4</ele>
        <time>2022-08-02T07:49:08Z</time>
      </trkpt>
      <trkpt lat="43.08177" lon="-0.04271">
        <ele>451.3</ele>
        <time>2022-08-02T07:49:14Z</time>
      </trkpt>
      <trkpt lat="43.0816" lon="-0.0425">
        <ele>447.6</ele>
        <time>2022-08-02T07:49:19Z</time>
      </trkpt>
      <trkpt lat="43.08126" lon="-0.04203">
        <ele>445</ele>
        <time>2022-08-02T07:49:25Z</time>
      </trkpt>
      <trkpt lat="43.08089" lon="-0.04169">
        <ele>447</ele>
        <time>2022-08-02T07:49:30Z</time>
      </trkpt>
      <trkpt lat="43.08039" lon="-0.04144">
        <ele>442.5</ele>
        <time>2022-08-02T07:49:36Z</time>
      </trkpt>
      <trkpt lat="43.07993" lon="-0.04133">
        <ele>444.8</ele>
        <time>2022-08-02T07:49:41Z</time>
      </trkpt>
      <trkpt lat="43.07931" lon="-0.04121">
        <ele>445.6</ele>
        <time>2022-08-02T07:49:47Z</time>
      </trkpt>
      <trkpt lat="43.07876" lon="-0.04116">
        <ele>442.6</ele>
        <time>2022-08-02T07:49:52Z</time>
      </trkpt>
      <trkpt lat="43.07814" lon="-0.04108">
        <ele>440.9</ele>
        <time>2022-08-02T07:49:58Z</time>
      </trkpt>
      <trkpt lat="43.0776" lon="-0.04104">
        <ele>439</ele>
        <time>2022-08-02T07:50:04Z</time>
      </trkpt>
      <trkpt lat="43.07722" lon="-0.04101">
        <ele>440.3</ele>
        <time>2022-08-02T07:50:09Z</time>
      </trkpt>
      <trkpt lat="43.07682" lon="-0.04098">
        <ele>441</ele>
        <time>2022-08-02T07:50:15Z</time>
      </trkpt>
      <trkpt lat="43.07652" lon="-0.04096">
        <ele>440.2</ele>
        <time>2022-08-02T07:50:20Z</time>
      </trkpt>
      <trkpt lat="43.07617" lon="-0.04094">
        <ele>442.2</ele>
        <time>2022-08-02T07:50:26Z</time>
      </trkpt>
      <trkpt lat="43.07582" lon="-0.04093">
        <ele>438.8</ele>
        <time>2022-08-02T07:50:32Z</time>
      </trkpt>
      <trkpt lat="43.07545" lon="-0.04084">
        <ele>442.1</ele>
        <time>2022-08-02T07:50:38Z</time>
      </trkpt>
      <trkpt lat="43.07503" lon="-0.04063">
        <ele>436</ele>
        <time>2022-08-02T07:50:44Z</time>
      </trkpt>
      <trkpt lat="43.0746" lon="-0.04039">
        <ele>432.1</ele>
        <time>2022-08-02T07:50:49Z</time>
      </trkpt>
      <trkpt lat="43.07404" lon="-0.04019">
        <ele>431.2</ele>
        <time>2022-08-02T07:50:55Z</time>
      </trkpt>
      <trkpt lat="43.07354" lon="-0.04011">
        <ele>433.4</ele>
        <time>2022-08-02T07:51:00Z</time>
      </trkpt>
      <trkpt lat="43.07294" lon="-0.04014">
        <ele>431.2</ele>
        <time>2022-08-02T07:51:06Z</time>
      </trkpt>
      <trkpt lat="43.0724" lon="-0.04014">
        <ele>431.7</ele>
        <time>2022-08-02T07:51:12Z</time>
      </trkpt>
      <trkpt lat="43.07191" lon="-0.04027">
        <ele>431.9</ele>
        <time>2022-08-02T07:51:17Z</time>
      </trkpt>
      <trkpt lat="43.07152" lon="-0.04031">
        <ele>433.8</ele>
        <time>2022-08-02T07:51:23Z</time>
      </trkpt>
      <trkpt lat="43.0713" lon="-0.04036">
        <ele>436.9</ele>
        <time>2022-08-02T07:51:29Z</time>
      </trkpt>
      <trkpt lat="43.0712" lon="-0.04036">
        <ele>441.4</ele>
        <time>2022-08-02T07:51:34Z</time>
      </trkpt>
      <trkpt lat="43.0712" lon="-0.04033">
        <ele>441.7</ele>
        <time>2022-08-02T07:51:40Z</time>
      </trkpt>
      <trkpt lat="43.07117" lon="-0.04037">
        <ele>438.9</ele>
        <time>2022-08-02T07:51:45Z</time>
      </trkpt>
      <trkpt lat="43.07117" lon="-0.0404">
        <ele>433.6</ele>
        <time>2022-08-02T07:51:51Z</time>
      </trkpt>
      <trkpt lat="43.07119" lon="-0.04048">
        <ele>430.7</ele>
        <time>2022-08-02T07:51:56Z</time>
      </trkpt>
      <trkpt lat="43.07119" lon="-0.04058">
        <ele>433.5</ele>
        <time>2022-08-02T07:52:02Z</time>
      </trkpt>
      <trkpt lat="43.07117" lon="-0.04059">
        <ele>431.7</ele>
        <time>2022-08-02T07:52:07Z</time>
      </trkpt>
      <trkpt lat="43.07111" lon="-0.04064">
        <ele>434</ele>
        <time>2022-08-02T07:52:13Z</time>
      </trkpt>
      <trkpt lat="43.0709" lon="-0.04069">
        <ele>434.8</ele>
        <time>2022-08-02T07:52:19Z</time>
      </trkpt>
      <trkpt lat="43.07067" lon="-0.04074">
        <ele>435.4</ele>
        <time>2022-08-02T07:52:24Z</time>
      </trkpt>
      <trkpt lat="43.0704" lon="-0.04081">
        <ele>435.2</ele>
        <time>2022-08-02T07:52:30Z</time>
      </trkpt>
      <trkpt lat="43.07014" lon="-0.04088">
        <ele>434.8</ele>
        <time>2022-08-02T07:52:35Z</time>
      </trkpt>
      <trkpt lat="43.06982" lon="-0.04092">
        <ele>433.1</ele>
        <time>2022-08-02T07:52:41Z</time>
      </trkpt>
      <trkpt lat="43.0695" lon="-0.04092">
        <ele>431.3</ele>
        <time>2022-08-02T07:52:47Z</time>
      </trkpt>
      <trkpt lat="43.06921" lon="-0.04089">
        <ele>433.1</ele>
        <time>2022-08-02T07:52:52Z</time>
      </trkpt>
      <trkpt lat="43.06892" lon="-0.04081">
        <ele>433.5</ele>
        <time>2022-08-02T07:52:57Z</time>
      </trkpt>
      <trkpt lat="43.06867" lon="-0.04072">
        <ele>432.2</ele>
        <time>2022-08-02T07:53:03Z</time>
      </trkpt>
      <trkpt lat="43.06828" lon="-0.04059">
        <ele>433.6</ele>
        <time>2022-08-02T07:53:08Z</time>
      </trkpt>
      <trkpt lat="43.06796" lon="-0.04047">
        <ele>432.3</ele>
        <time>2022-08-02T07:53:13Z</time>
      </trkpt>
      <trkpt lat="43.06766" lon="-0.04036">
        <ele>432.4</ele>
        <time>2022-08-02T07:53:18Z</time>
      </trkpt>
      <trkpt lat="43.06737" lon="-0.04026">
        <ele>434.6</ele>
        <time>2022-08-02T07:53:23Z</time>
      </trkpt>
      <trkpt lat="43.06701" lon="-0.04018">
        <ele>436.7</ele>
        <time>2022-08-02T07:53:29Z</time>
      </trkpt>
      <trkpt lat="43.06664" lon="-0.0401">
        <ele>439.9</ele>
        <time>2022-08-02T07:53:35Z</time>
      </trkpt>
      <trkpt lat="43.06627" lon="-0.04007">
        <ele>442.9</ele>
        <time>2022-08-02T07:53:41Z</time>
      </trkpt>
      <trkpt lat="43.06597" lon="-0.04008">
        <ele>444.2</ele>
        <time>2022-08-02T07:53:46Z</time>
      </trkpt>
      <trkpt lat="43.06565" lon="-0.04008">
        <ele>441.9</ele>
        <time>2022-08-02T07:53:51Z</time>
      </trkpt>
      <trkpt lat="43.06533" lon="-0.04008">
        <ele>443.3</ele>
        <time>2022-08-02T07:53:56Z</time>
      </trkpt>
      <trkpt lat="43.06492" lon="-0.04009">
        <ele>444.6</ele>
        <time>2022-08-02T07:54:02Z</time>
      </trkpt>
      <trkpt lat="43.06458" lon="-0.04009">
        <ele>444.2</ele>
        <time>2022-08-02T07:54:07Z</time>
      </trkpt>
      <trkpt lat="43.06417" lon="-0.04009">
        <ele>444.2</ele>
        <time>2022-08-02T07:54:13Z</time>
      </trkpt>
      <trkpt lat="43.06384" lon="-0.0401">
        <ele>444.2</ele>
        <time>2022-08-02T07:54:18Z</time>
      </trkpt>
      <trkpt lat="43.06342" lon="-0.04011">
        <ele>444.9</ele>
        <time>2022-08-02T07:54:24Z</time>
      </trkpt>
      <trkpt lat="43.06301" lon="-0.04013">
        <ele>444.8</ele>
        <time>2022-08-02T07:54:30Z</time>
      </trkpt>
      <trkpt lat="43.06265" lon="-0.04016">
        <ele>444.9</ele>
        <time>2022-08-02T07:54:35Z</time>
      </trkpt>
      <trkpt lat="43.06222" lon="-0.04021">
        <ele>444.8</ele>
        <time>2022-08-02T07:54:41Z</time>
      </trkpt>
      <trkpt lat="43.06182" lon="-0.0403">
        <ele>443</ele>
        <time>2022-08-02T07:54:47Z</time>
      </trkpt>
      <trkpt lat="43.06148" lon="-0.04041">
        <ele>442.3</ele>
        <time>2022-08-02T07:54:52Z</time>
      </trkpt>
      <trkpt lat="43.06112" lon="-0.04055">
        <ele>444.3</ele>
        <time>2022-08-02T07:54:57Z</time>
      </trkpt>
      <trkpt lat="43.06079" lon="-0.04072">
        <ele>444.3</ele>
        <time>2022-08-02T07:55:02Z</time>
      </trkpt>
      <trkpt lat="43.0604" lon="-0.04095">
        <ele>442.8</ele>
        <time>2022-08-02T07:55:08Z</time>
      </trkpt>
      <trkpt lat="43.06001" lon="-0.04111">
        <ele>444.3</ele>
        <time>2022-08-02T07:55:14Z</time>
      </trkpt>
      <trkpt lat="43.05961" lon="-0.04132">
        <ele>443.1</ele>
        <time>2022-08-02T07:55:20Z</time>
      </trkpt>
      <trkpt lat="43.05925" lon="-0.04155">
        <ele>441.5</ele>
        <time>2022-08-02T07:55:26Z</time>
      </trkpt>
      <trkpt lat="43.05884" lon="-0.0418">
        <ele>443.9</ele>
        <time>2022-08-02T07:55:32Z</time>
      </trkpt>
      <trkpt lat="43.05843" lon="-0.04206">
        <ele>444.9</ele>
        <time>2022-08-02T07:55:38Z</time>
      </trkpt>
      <trkpt lat="43.05802" lon="-0.04229">
        <ele>444.4</ele>
        <time>2022-08-02T07:55:44Z</time>
      </trkpt>
      <trkpt lat="43.05767" lon="-0.04252">
        <ele>443</ele>
        <time>2022-08-02T07:55:49Z</time>
      </trkpt>
      <trkpt lat="43.05735" lon="-0.04272">
        <ele>444.1</ele>
        <time>2022-08-02T07:55:54Z</time>
      </trkpt>
      <trkpt lat="43.05699" lon="-0.04295">
        <ele>444.4</ele>
        <time>2022-08-02T07:56:00Z</time>
      </trkpt>
      <trkpt lat="43.05668" lon="-0.04314">
        <ele>444.6</ele>
        <time>2022-08-02T07:56:05Z</time>
      </trkpt>
      <trkpt lat="43.05631" lon="-0.04336">
        <ele>445.5</ele>
        <time>2022-08-02T07:56:11Z</time>
      </trkpt>
      <trkpt lat="43.05592" lon="-0.04361">
        <ele>445.9</ele>
        <time>2022-08-02T07:56:17Z</time>
      </trkpt>
      <trkpt lat="43.0556" lon="-0.04382">
        <ele>445.3</ele>
        <time>2022-08-02T07:56:22Z</time>
      </trkpt>
      <trkpt lat="43.05519" lon="-0.04409">
        <ele>445.9</ele>
        <time>2022-08-02T07:56:28Z</time>
      </trkpt>
      <trkpt lat="43.05481" lon="-0.04432">
        <ele>445.4</ele>
        <time>2022-08-02T07:56:34Z</time>
      </trkpt>
      <trkpt lat="43.05443" lon="-0.04458">
        <ele>443.1</ele>
        <time>2022-08-02T07:56:40Z</time>
      </trkpt>
      <trkpt lat="43.05412" lon="-0.04476">
        <ele>443.3</ele>
        <time>2022-08-02T07:56:45Z</time>
      </trkpt>
      <trkpt lat="43.05375" lon="-0.04501">
        <ele>442.2</ele>
        <time>2022-08-02T07:56:51Z</time>
      </trkpt>
      <trkpt lat="43.05343" lon="-0.0452">
        <ele>443.3</ele>
        <time>2022-08-02T07:56:56Z</time>
      </trkpt>
      <trkpt lat="43.05305" lon="-0.04543">
        <ele>444.8</ele>
        <time>2022-08-02T07:57:02Z</time>
      </trkpt>
      <trkpt lat="43.05275" lon="-0.04562">
        <ele>445.5</ele>
        <time>2022-08-02T07:57:07Z</time>
      </trkpt>
      <trkpt lat="43.05239" lon="-0.04585">
        <ele>447.2</ele>
        <time>2022-08-02T07:57:13Z</time>
      </trkpt>
      <trkpt lat="43.05206" lon="-0.04608">
        <ele>446.9</ele>
        <time>2022-08-02T07:57:19Z</time>
      </trkpt>
      <trkpt lat="43.0518" lon="-0.04634">
        <ele>449.1</ele>
        <time>2022-08-02T07:57:24Z</time>
      </trkpt>
      <trkpt lat="43.05149" lon="-0.04668">
        <ele>450.3</ele>
        <time>2022-08-02T07:57:30Z</time>
      </trkpt>
      <trkpt lat="43.05116" lon="-0.04708">
        <ele>451.5</ele>
        <time>2022-08-02T07:57:36Z</time>
      </trkpt>
      <trkpt lat="43.0509" lon="-0.04741">
        <ele>451.6</ele>
        <time>2022-08-02T07:57:41Z</time>
      </trkpt>
      <trkpt lat="43.05056" lon="-0.04783">
        <ele>451.8</ele>
        <time>2022-08-02T07:57:47Z</time>
      </trkpt>
      <trkpt lat="43.05028" lon="-0.04817">
        <ele>451.4</ele>
        <time>2022-08-02T07:57:52Z</time>
      </trkpt>
      <trkpt lat="43.04999" lon="-0.04853">
        <ele>452.9</ele>
        <time>2022-08-02T07:57:57Z</time>
      </trkpt>
      <trkpt lat="43.04973" lon="-0.04886">
        <ele>454.4</ele>
        <time>2022-08-02T07:58:02Z</time>
      </trkpt>
      <trkpt lat="43.0494" lon="-0.04929">
        <ele>454.3</ele>
        <time>2022-08-02T07:58:08Z</time>
      </trkpt>
      <trkpt lat="43.04911" lon="-0.04965">
        <ele>454.3</ele>
        <time>2022-08-02T07:58:13Z</time>
      </trkpt>
      <trkpt lat="43.04877" lon="-0.05009">
        <ele>454.5</ele>
        <time>2022-08-02T07:58:19Z</time>
      </trkpt>
      <trkpt lat="43.04846" lon="-0.05048">
        <ele>454.6</ele>
        <time>2022-08-02T07:58:25Z</time>
      </trkpt>
      <trkpt lat="43.04815" lon="-0.05086">
        <ele>454.2</ele>
        <time>2022-08-02T07:58:31Z</time>
      </trkpt>
      <trkpt lat="43.04784" lon="-0.05125">
        <ele>454.3</ele>
        <time>2022-08-02T07:58:37Z</time>
      </trkpt>
      <trkpt lat="43.04753" lon="-0.05165">
        <ele>454.5</ele>
        <time>2022-08-02T07:58:43Z</time>
      </trkpt>
      <trkpt lat="43.04721" lon="-0.05205">
        <ele>453.7</ele>
        <time>2022-08-02T07:58:49Z</time>
      </trkpt>
      <trkpt lat="43.04694" lon="-0.05237">
        <ele>453</ele>
        <time>2022-08-02T07:58:54Z</time>
      </trkpt>
      <trkpt lat="43.04667" lon="-0.05271">
        <ele>454.3</ele>
        <time>2022-08-02T07:58:59Z</time>
      </trkpt>
      <trkpt lat="43.0464" lon="-0.05304">
        <ele>453.5</ele>
        <time>2022-08-02T07:59:04Z</time>
      </trkpt>
      <trkpt lat="43.04613" lon="-0.0534">
        <ele>454.3</ele>
        <time>2022-08-02T07:59:09Z</time>
      </trkpt>
      <trkpt lat="43.04581" lon="-0.05381">
        <ele>454.4</ele>
        <time>2022-08-02T07:59:15Z</time>
      </trkpt>
      <trkpt lat="43.04555" lon="-0.05415">
        <ele>454.9</ele>
        <time>2022-08-02T07:59:20Z</time>
      </trkpt>
      <trkpt lat="43.04524" lon="-0.05452">
        <ele>454.9</ele>
        <time>2022-08-02T07:59:26Z</time>
      </trkpt>
      <trkpt lat="43.04499" lon="-0.05485">
        <ele>454.7</ele>
        <time>2022-08-02T07:59:31Z</time>
      </trkpt>
      <trkpt lat="43.04466" lon="-0.05525">
        <ele>454.7</ele>
        <time>2022-08-02T07:59:37Z</time>
      </trkpt>
      <trkpt lat="43.04439" lon="-0.05558">
        <ele>455.4</ele>
        <time>2022-08-02T07:59:42Z</time>
      </trkpt>
      <trkpt lat="43.04413" lon="-0.0559">
        <ele>456</ele>
        <time>2022-08-02T07:59:47Z</time>
      </trkpt>
      <trkpt lat="43.04382" lon="-0.05629">
        <ele>456.6</ele>
        <time>2022-08-02T07:59:53Z</time>
      </trkpt>
      <trkpt lat="43.0435" lon="-0.05668">
        <ele>457.4</ele>
        <time>2022-08-02T07:59:59Z</time>
      </trkpt>
      <trkpt lat="43.04319" lon="-0.05707">
        <ele>458.1</ele>
        <time>2022-08-02T08:00:05Z</time>
      </trkpt>
      <trkpt lat="43.04292" lon="-0.0574">
        <ele>456.4</ele>
        <time>2022-08-02T08:00:10Z</time>
      </trkpt>
      <trkpt lat="43.04267" lon="-0.05775">
        <ele>456.6</ele>
        <time>2022-08-02T08:00:15Z</time>
      </trkpt>
      <trkpt lat="43.04238" lon="-0.05811">
        <ele>456.2</ele>
        <time>2022-08-02T08:00:21Z</time>
      </trkpt>
      <trkpt lat="43.04215" lon="-0.05834">
        <ele>457.5</ele>
        <time>2022-08-02T08:00:27Z</time>
      </trkpt>
      <trkpt lat="43.04191" lon="-0.05862">
        <ele>457.3</ele>
        <time>2022-08-02T08:00:32Z</time>
      </trkpt>
      <trkpt lat="43.04157" lon="-0.05896">
        <ele>458.7</ele>
        <time>2022-08-02T08:00:38Z</time>
      </trkpt>
      <trkpt lat="43.04123" lon="-0.05926">
        <ele>459.6</ele>
        <time>2022-08-02T08:00:44Z</time>
      </trkpt>
      <trkpt lat="43.04096" lon="-0.05948">
        <ele>460.3</ele>
        <time>2022-08-02T08:00:49Z</time>
      </trkpt>
      <trkpt lat="43.04062" lon="-0.05972">
        <ele>458.8</ele>
        <time>2022-08-02T08:00:55Z</time>
      </trkpt>
      <trkpt lat="43.04033" lon="-0.05989">
        <ele>459</ele>
        <time>2022-08-02T08:01:00Z</time>
      </trkpt>
      <trkpt lat="43.03996" lon="-0.06006">
        <ele>459.6</ele>
        <time>2022-08-02T08:01:06Z</time>
      </trkpt>
      <trkpt lat="43.03963" lon="-0.06019">
        <ele>459.1</ele>
        <time>2022-08-02T08:01:11Z</time>
      </trkpt>
      <trkpt lat="43.03929" lon="-0.0603">
        <ele>457.7</ele>
        <time>2022-08-02T08:01:16Z</time>
      </trkpt>
      <trkpt lat="43.03885" lon="-0.06042">
        <ele>457.3</ele>
        <time>2022-08-02T08:01:22Z</time>
      </trkpt>
      <trkpt lat="43.03847" lon="-0.06051">
        <ele>456.9</ele>
        <time>2022-08-02T08:01:27Z</time>
      </trkpt>
      <trkpt lat="43.03809" lon="-0.06059">
        <ele>457.8</ele>
        <time>2022-08-02T08:01:32Z</time>
      </trkpt>
      <trkpt lat="43.03771" lon="-0.06069">
        <ele>454.9</ele>
        <time>2022-08-02T08:01:37Z</time>
      </trkpt>
      <trkpt lat="43.03728" lon="-0.06077">
        <ele>457.3</ele>
        <time>2022-08-02T08:01:43Z</time>
      </trkpt>
      <trkpt lat="43.03692" lon="-0.06085">
        <ele>457.9</ele>
        <time>2022-08-02T08:01:48Z</time>
      </trkpt>
      <trkpt lat="43.03657" lon="-0.06092">
        <ele>458.6</ele>
        <time>2022-08-02T08:01:53Z</time>
      </trkpt>
      <trkpt lat="43.03621" lon="-0.06099">
        <ele>458</ele>
        <time>2022-08-02T08:01:58Z</time>
      </trkpt>
      <trkpt lat="43.03582" lon="-0.06109">
        <ele>457.6</ele>
        <time>2022-08-02T08:02:04Z</time>
      </trkpt>
      <trkpt lat="43.03548" lon="-0.06115">
        <ele>456.9</ele>
        <time>2022-08-02T08:02:09Z</time>
      </trkpt>
      <trkpt lat="43.03513" lon="-0.06123">
        <ele>455.7</ele>
        <time>2022-08-02T08:02:15Z</time>
      </trkpt>
      <trkpt lat="43.03481" lon="-0.06132">
        <ele>454.7</ele>
        <time>2022-08-02T08:02:20Z</time>
      </trkpt>
      <trkpt lat="43.03452" lon="-0.0614">
        <ele>454.6</ele>
        <time>2022-08-02T08:02:25Z</time>
      </trkpt>
      <trkpt lat="43.0342" lon="-0.06147">
        <ele>455.9</ele>
        <time>2022-08-02T08:02:30Z</time>
      </trkpt>
      <trkpt lat="43.03385" lon="-0.06156">
        <ele>456.7</ele>
        <time>2022-08-02T08:02:35Z</time>
      </trkpt>
      <trkpt lat="43.03344" lon="-0.0617">
        <ele>455.3</ele>
        <time>2022-08-02T08:02:41Z</time>
      </trkpt>
      <trkpt lat="43.03304" lon="-0.06184">
        <ele>453</ele>
        <time>2022-08-02T08:02:47Z</time>
      </trkpt>
      <trkpt lat="43.03263" lon="-0.06198">
        <ele>453.9</ele>
        <time>2022-08-02T08:02:53Z</time>
      </trkpt>
      <trkpt lat="43.03228" lon="-0.06211">
        <ele>453.7</ele>
        <time>2022-08-02T08:02:58Z</time>
      </trkpt>
      <trkpt lat="43.03191" lon="-0.06226">
        <ele>452.8</ele>
        <time>2022-08-02T08:03:04Z</time>
      </trkpt>
      <trkpt lat="43.03158" lon="-0.06238">
        <ele>452.9</ele>
        <time>2022-08-02T08:03:09Z</time>
      </trkpt>
      <trkpt lat="43.03117" lon="-0.06251">
        <ele>453.3</ele>
        <time>2022-08-02T08:03:15Z</time>
      </trkpt>
      <trkpt lat="43.03082" lon="-0.06263">
        <ele>452.5</ele>
        <time>2022-08-02T08:03:20Z</time>
      </trkpt>
      <trkpt lat="43.03048" lon="-0.06275">
        <ele>450.2</ele>
        <time>2022-08-02T08:03:25Z</time>
      </trkpt>
      <trkpt lat="43.03006" lon="-0.06289">
        <ele>448.6</ele>
        <time>2022-08-02T08:03:31Z</time>
      </trkpt>
      <trkpt lat="43.02964" lon="-0.06305">
        <ele>448.7</ele>
        <time>2022-08-02T08:03:37Z</time>
      </trkpt>
      <trkpt lat="43.02919" lon="-0.06322">
        <ele>449.6</ele>
        <time>2022-08-02T08:03:43Z</time>
      </trkpt>
      <trkpt lat="43.0288" lon="-0.06335">
        <ele>449.5</ele>
        <time>2022-08-02T08:03:48Z</time>
      </trkpt>
      <trkpt lat="43.02834" lon="-0.06351">
        <ele>449.3</ele>
        <time>2022-08-02T08:03:54Z</time>
      </trkpt>
      <trkpt lat="43.02799" lon="-0.0637">
        <ele>449.1</ele>
        <time>2022-08-02T08:03:59Z</time>
      </trkpt>
      <trkpt lat="43.02759" lon="-0.06398">
        <ele>449.1</ele>
        <time>2022-08-02T08:04:05Z</time>
      </trkpt>
      <trkpt lat="43.02727" lon="-0.06425">
        <ele>450.5</ele>
        <time>2022-08-02T08:04:10Z</time>
      </trkpt>
      <trkpt lat="43.02698" lon="-0.06456">
        <ele>451.4</ele>
        <time>2022-08-02T08:04:15Z</time>
      </trkpt>
      <trkpt lat="43.02671" lon="-0.06489">
        <ele>455.1</ele>
        <time>2022-08-02T08:04:20Z</time>
      </trkpt>
      <trkpt lat="43.02639" lon="-0.06533">
        <ele>456</ele>
        <time>2022-08-02T08:04:26Z</time>
      </trkpt>
      <trkpt lat="43.02616" lon="-0.06572">
        <ele>454.8</ele>
        <time>2022-08-02T08:04:31Z</time>
      </trkpt>
      <trkpt lat="43.02596" lon="-0.06613">
        <ele>456.3</ele>
        <time>2022-08-02T08:04:36Z</time>
      </trkpt>
      <trkpt lat="43.02577" lon="-0.06664">
        <ele>457.1</ele>
        <time>2022-08-02T08:04:42Z</time>
      </trkpt>
      <trkpt lat="43.02563" lon="-0.06711">
        <ele>456.7</ele>
        <time>2022-08-02T08:04:47Z</time>
      </trkpt>
      <trkpt lat="43.02548" lon="-0.06769">
        <ele>457.7</ele>
        <time>2022-08-02T08:04:53Z</time>
      </trkpt>
      <trkpt lat="43.02532" lon="-0.06828">
        <ele>458.3</ele>
        <time>2022-08-02T08:04:59Z</time>
      </trkpt>
      <trkpt lat="43.02517" lon="-0.06889">
        <ele>458.2</ele>
        <time>2022-08-02T08:05:05Z</time>
      </trkpt>
      <trkpt lat="43.02504" lon="-0.06937">
        <ele>458.3</ele>
        <time>2022-08-02T08:05:10Z</time>
      </trkpt>
      <trkpt lat="43.02492" lon="-0.06985">
        <ele>459.3</ele>
        <time>2022-08-02T08:05:15Z</time>
      </trkpt>
      <trkpt lat="43.02478" lon="-0.07043">
        <ele>457.9</ele>
        <time>2022-08-02T08:05:21Z</time>
      </trkpt>
      <trkpt lat="43.02467" lon="-0.07091">
        <ele>460</ele>
        <time>2022-08-02T08:05:27Z</time>
      </trkpt>
      <trkpt lat="43.02458" lon="-0.07133">
        <ele>458.6</ele>
        <time>2022-08-02T08:05:33Z</time>
      </trkpt>
      <trkpt lat="43.02446" lon="-0.0718">
        <ele>458.9</ele>
        <time>2022-08-02T08:05:39Z</time>
      </trkpt>
      <trkpt lat="43.02435" lon="-0.07222">
        <ele>459.4</ele>
        <time>2022-08-02T08:05:44Z</time>
      </trkpt>
      <trkpt lat="43.02424" lon="-0.07266">
        <ele>459.1</ele>
        <time>2022-08-02T08:05:49Z</time>
      </trkpt>
      <trkpt lat="43.02409" lon="-0.07321">
        <ele>459.7</ele>
        <time>2022-08-02T08:05:55Z</time>
      </trkpt>
      <trkpt lat="43.02396" lon="-0.07377">
        <ele>459</ele>
        <time>2022-08-02T08:06:01Z</time>
      </trkpt>
      <trkpt lat="43.02383" lon="-0.07432">
        <ele>458.1</ele>
        <time>2022-08-02T08:06:07Z</time>
      </trkpt>
      <trkpt lat="43.0237" lon="-0.07485">
        <ele>458.7</ele>
        <time>2022-08-02T08:06:13Z</time>
      </trkpt>
      <trkpt lat="43.02356" lon="-0.07538">
        <ele>458.3</ele>
        <time>2022-08-02T08:06:19Z</time>
      </trkpt>
      <trkpt lat="43.02343" lon="-0.07595">
        <ele>458.9</ele>
        <time>2022-08-02T08:06:25Z</time>
      </trkpt>
      <trkpt lat="43.02329" lon="-0.07649">
        <ele>460.1</ele>
        <time>2022-08-02T08:06:31Z</time>
      </trkpt>
      <trkpt lat="43.02316" lon="-0.07695">
        <ele>460</ele>
        <time>2022-08-02T08:06:36Z</time>
      </trkpt>
      <trkpt lat="43.02302" lon="-0.07749">
        <ele>461</ele>
        <time>2022-08-02T08:06:42Z</time>
      </trkpt>
      <trkpt lat="43.02289" lon="-0.07802">
        <ele>462.4</ele>
        <time>2022-08-02T08:06:48Z</time>
      </trkpt>
      <trkpt lat="43.02277" lon="-0.07849">
        <ele>463</ele>
        <time>2022-08-02T08:06:53Z</time>
      </trkpt>
      <trkpt lat="43.02266" lon="-0.07895">
        <ele>464.2</ele>
        <time>2022-08-02T08:06:58Z</time>
      </trkpt>
      <trkpt lat="43.02255" lon="-0.0795">
        <ele>463.5</ele>
        <time>2022-08-02T08:07:04Z</time>
      </trkpt>
      <trkpt lat="43.02244" lon="-0.07997">
        <ele>465.1</ele>
        <time>2022-08-02T08:07:09Z</time>
      </trkpt>
      <trkpt lat="43.02235" lon="-0.08053">
        <ele>466.6</ele>
        <time>2022-08-02T08:07:15Z</time>
      </trkpt>
      <trkpt lat="43.02227" lon="-0.08101">
        <ele>466.8</ele>
        <time>2022-08-02T08:07:20Z</time>
      </trkpt>
      <trkpt lat="43.02223" lon="-0.0816">
        <ele>467.4</ele>
        <time>2022-08-02T08:07:26Z</time>
      </trkpt>
      <trkpt lat="43.02223" lon="-0.08219">
        <ele>467.1</ele>
        <time>2022-08-02T08:07:32Z</time>
      </trkpt>
      <trkpt lat="43.02225" lon="-0.08264">
        <ele>465.7</ele>
        <time>2022-08-02T08:07:37Z</time>
      </trkpt>
      <trkpt lat="43.02229" lon="-0.0829">
        <ele>464</ele>
        <time>2022-08-02T08:07:42Z</time>
      </trkpt>
      <trkpt lat="43.02221" lon="-0.08327">
        <ele>460.6</ele>
        <time>2022-08-02T08:07:48Z</time>
      </trkpt>
      <trkpt lat="43.02199" lon="-0.08386">
        <ele>461.1</ele>
        <time>2022-08-02T08:07:54Z</time>
      </trkpt>
      <trkpt lat="43.02205" lon="-0.08431">
        <ele>461.1</ele>
        <time>2022-08-02T08:07:59Z</time>
      </trkpt>
      <trkpt lat="43.02236" lon="-0.0846">
        <ele>461.3</ele>
        <time>2022-08-02T08:08:05Z</time>
      </trkpt>
      <trkpt lat="43.02243" lon="-0.08498">
        <ele>461</ele>
        <time>2022-08-02T08:08:10Z</time>
      </trkpt>
      <trkpt lat="43.02237" lon="-0.08518">
        <ele>461.8</ele>
        <time>2022-08-02T08:08:15Z</time>
      </trkpt>
      <trkpt lat="43.02228" lon="-0.08558">
        <ele>457.7</ele>
        <time>2022-08-02T08:08:20Z</time>
      </trkpt>
      <trkpt lat="43.02212" lon="-0.08618">
        <ele>462.5</ele>
        <time>2022-08-02T08:08:26Z</time>
      </trkpt>
      <trkpt lat="43.022" lon="-0.08652">
        <ele>462.6</ele>
        <time>2022-08-02T08:08:31Z</time>
      </trkpt>
      <trkpt lat="43.02188" lon="-0.08694">
        <ele>464.4</ele>
        <time>2022-08-02T08:08:37Z</time>
      </trkpt>
      <trkpt lat="43.02181" lon="-0.08727">
        <ele>467.9</ele>
        <time>2022-08-02T08:08:42Z</time>
      </trkpt>
      <trkpt lat="43.02173" lon="-0.08764">
        <ele>469.2</ele>
        <time>2022-08-02T08:08:47Z</time>
      </trkpt>
      <trkpt lat="43.02164" lon="-0.08811">
        <ele>468.8</ele>
        <time>2022-08-02T08:08:53Z</time>
      </trkpt>
      <trkpt lat="43.02152" lon="-0.08856">
        <ele>471.1</ele>
        <time>2022-08-02T08:08:59Z</time>
      </trkpt>
      <trkpt lat="43.02142" lon="-0.08899">
        <ele>471.8</ele>
        <time>2022-08-02T08:09:05Z</time>
      </trkpt>
      <trkpt lat="43.02135" lon="-0.08936">
        <ele>472.7</ele>
        <time>2022-08-02T08:09:10Z</time>
      </trkpt>
      <trkpt lat="43.02125" lon="-0.08974">
        <ele>472.3</ele>
        <time>2022-08-02T08:09:15Z</time>
      </trkpt>
      <trkpt lat="43.02115" lon="-0.09014">
        <ele>472.3</ele>
        <time>2022-08-02T08:09:20Z</time>
      </trkpt>
      <trkpt lat="43.02101" lon="-0.09067">
        <ele>470.7</ele>
        <time>2022-08-02T08:09:26Z</time>
      </trkpt>
      <trkpt lat="43.02088" lon="-0.09121">
        <ele>471</ele>
        <time>2022-08-02T08:09:32Z</time>
      </trkpt>
      <trkpt lat="43.02076" lon="-0.09166">
        <ele>470</ele>
        <time>2022-08-02T08:09:37Z</time>
      </trkpt>
      <trkpt lat="43.02066" lon="-0.09212">
        <ele>469.8</ele>
        <time>2022-08-02T08:09:42Z</time>
      </trkpt>
      <trkpt lat="43.02054" lon="-0.09264">
        <ele>471.3</ele>
        <time>2022-08-02T08:09:48Z</time>
      </trkpt>
      <trkpt lat="43.02044" lon="-0.09305">
        <ele>469.9</ele>
        <time>2022-08-02T08:09:53Z</time>
      </trkpt>
      <trkpt lat="43.02032" lon="-0.09355">
        <ele>468.4</ele>
        <time>2022-08-02T08:09:59Z</time>
      </trkpt>
      <trkpt lat="43.02021" lon="-0.09395">
        <ele>468</ele>
        <time>2022-08-02T08:10:04Z</time>
      </trkpt>
      <trkpt lat="43.02003" lon="-0.09445">
        <ele>467.8</ele>
        <time>2022-08-02T08:10:10Z</time>
      </trkpt>
      <trkpt lat="43.01986" lon="-0.09482">
        <ele>467.4</ele>
        <time>2022-08-02T08:10:15Z</time>
      </trkpt>
      <trkpt lat="43.01961" lon="-0.09526">
        <ele>468.9</ele>
        <time>2022-08-02T08:10:21Z</time>
      </trkpt>
      <trkpt lat="43.01942" lon="-0.09554">
        <ele>468.5</ele>
        <time>2022-08-02T08:10:26Z</time>
      </trkpt>
      <trkpt lat="43.01926" lon="-0.09574">
        <ele>468.8</ele>
        <time>2022-08-02T08:10:31Z</time>
      </trkpt>
      <trkpt lat="43.019" lon="-0.09601">
        <ele>467.5</ele>
        <time>2022-08-02T08:10:37Z</time>
      </trkpt>
      <trkpt lat="43.01869" lon="-0.09627">
        <ele>468.2</ele>
        <time>2022-08-02T08:10:43Z</time>
      </trkpt>
      <trkpt lat="43.01838" lon="-0.09648">
        <ele>467.9</ele>
        <time>2022-08-02T08:10:49Z</time>
      </trkpt>
      <trkpt lat="43.01812" lon="-0.09663">
        <ele>467.9</ele>
        <time>2022-08-02T08:10:54Z</time>
      </trkpt>
      <trkpt lat="43.01778" lon="-0.09677">
        <ele>469</ele>
        <time>2022-08-02T08:11:00Z</time>
      </trkpt>
      <trkpt lat="43.01748" lon="-0.09686">
        <ele>469.6</ele>
        <time>2022-08-02T08:11:05Z</time>
      </trkpt>
      <trkpt lat="43.01712" lon="-0.09697">
        <ele>469.1</ele>
        <time>2022-08-02T08:11:11Z</time>
      </trkpt>
      <trkpt lat="43.01674" lon="-0.09708">
        <ele>468.4</ele>
        <time>2022-08-02T08:11:17Z</time>
      </trkpt>
      <trkpt lat="43.01637" lon="-0.09718">
        <ele>467.9</ele>
        <time>2022-08-02T08:11:23Z</time>
      </trkpt>
      <trkpt lat="43.01606" lon="-0.09726">
        <ele>467.9</ele>
        <time>2022-08-02T08:11:28Z</time>
      </trkpt>
      <trkpt lat="43.0157" lon="-0.09736">
        <ele>470.5</ele>
        <time>2022-08-02T08:11:34Z</time>
      </trkpt>
      <trkpt lat="43.01533" lon="-0.09746">
        <ele>470</ele>
        <time>2022-08-02T08:11:40Z</time>
      </trkpt>
      <trkpt lat="43.01503" lon="-0.09753">
        <ele>470.2</ele>
        <time>2022-08-02T08:11:45Z</time>
      </trkpt>
      <trkpt lat="43.01472" lon="-0.09761">
        <ele>470.2</ele>
        <time>2022-08-02T08:11:50Z</time>
      </trkpt>
      <trkpt lat="43.01432" lon="-0.09769">
        <ele>470.4</ele>
        <time>2022-08-02T08:11:56Z</time>
      </trkpt>
      <trkpt lat="43.01393" lon="-0.09776">
        <ele>470.1</ele>
        <time>2022-08-02T08:12:02Z</time>
      </trkpt>
      <trkpt lat="43.01361" lon="-0.09781">
        <ele>471.3</ele>
        <time>2022-08-02T08:12:07Z</time>
      </trkpt>
      <trkpt lat="43.01324" lon="-0.09784">
        <ele>471.3</ele>
        <time>2022-08-02T08:12:13Z</time>
      </trkpt>
      <trkpt lat="43.01292" lon="-0.09788">
        <ele>473.1</ele>
        <time>2022-08-02T08:12:18Z</time>
      </trkpt>
      <trkpt lat="43.01252" lon="-0.0979">
        <ele>470.6</ele>
        <time>2022-08-02T08:12:24Z</time>
      </trkpt>
      <trkpt lat="43.01216" lon="-0.09793">
        <ele>469.6</ele>
        <time>2022-08-02T08:12:29Z</time>
      </trkpt>
      <trkpt lat="43.01173" lon="-0.09794">
        <ele>472</ele>
        <time>2022-08-02T08:12:35Z</time>
      </trkpt>
      <trkpt lat="43.01135" lon="-0.09794">
        <ele>471.6</ele>
        <time>2022-08-02T08:12:41Z</time>
      </trkpt>
      <trkpt lat="43.01104" lon="-0.09791">
        <ele>472.4</ele>
        <time>2022-08-02T08:12:46Z</time>
      </trkpt>
      <trkpt lat="43.01068" lon="-0.09782">
        <ele>474.2</ele>
        <time>2022-08-02T08:12:52Z</time>
      </trkpt>
      <trkpt lat="43.01041" lon="-0.09775">
        <ele>471.9</ele>
        <time>2022-08-02T08:12:57Z</time>
      </trkpt>
      <trkpt lat="43.01016" lon="-0.09764">
        <ele>473.7</ele>
        <time>2022-08-02T08:13:02Z</time>
      </trkpt>
      <trkpt lat="43.00989" lon="-0.09747">
        <ele>473.1</ele>
        <time>2022-08-02T08:13:07Z</time>
      </trkpt>
      <trkpt lat="43.0096" lon="-0.09726">
        <ele>472.2</ele>
        <time>2022-08-02T08:13:13Z</time>
      </trkpt>
      <trkpt lat="43.00933" lon="-0.097">
        <ele>473.5</ele>
        <time>2022-08-02T08:13:19Z</time>
      </trkpt>
      <trkpt lat="43.00907" lon="-0.0967">
        <ele>474.3</ele>
        <time>2022-08-02T08:13:25Z</time>
      </trkpt>
      <trkpt lat="43.00879" lon="-0.09639">
        <ele>475.8</ele>
        <time>2022-08-02T08:13:31Z</time>
      </trkpt>
      <trkpt lat="43.0085" lon="-0.09602">
        <ele>475.2</ele>
        <time>2022-08-02T08:13:37Z</time>
      </trkpt>
      <trkpt lat="43.00824" lon="-0.09571">
        <ele>474.9</ele>
        <time>2022-08-02T08:13:42Z</time>
      </trkpt>
      <trkpt lat="43.00795" lon="-0.09532">
        <ele>474.2</ele>
        <time>2022-08-02T08:13:48Z</time>
      </trkpt>
      <trkpt lat="43.00771" lon="-0.09502">
        <ele>476.5</ele>
        <time>2022-08-02T08:13:53Z</time>
      </trkpt>
      <trkpt lat="43.00747" lon="-0.09473">
        <ele>476.1</ele>
        <time>2022-08-02T08:13:58Z</time>
      </trkpt>
      <trkpt lat="43.00716" lon="-0.09437">
        <ele>474.8</ele>
        <time>2022-08-02T08:14:04Z</time>
      </trkpt>
      <trkpt lat="43.00685" lon="-0.094">
        <ele>474.8</ele>
        <time>2022-08-02T08:14:10Z</time>
      </trkpt>
      <trkpt lat="43.00662" lon="-0.09371">
        <ele>475.6</ele>
        <time>2022-08-02T08:14:15Z</time>
      </trkpt>
      <trkpt lat="43.00646" lon="-0.09353">
        <ele>476.4</ele>
        <time>2022-08-02T08:14:20Z</time>
      </trkpt>
      <trkpt lat="43.00641" lon="-0.09347">
        <ele>476.7</ele>
        <time>2022-08-02T08:14:26Z</time>
      </trkpt>
      <trkpt lat="43.00642" lon="-0.09347">
        <ele>477.7</ele>
        <time>2022-08-02T08:14:31Z</time>
      </trkpt>
      <trkpt lat="43.00639" lon="-0.09345">
        <ele>477.5</ele>
        <time>2022-08-02T08:14:36Z</time>
      </trkpt>
      <trkpt lat="43.00629" lon="-0.09331">
        <ele>478.2</ele>
        <time>2022-08-02T08:14:41Z</time>
      </trkpt>
      <trkpt lat="43.00605" lon="-0.09302">
        <ele>476.2</ele>
        <time>2022-08-02T08:14:47Z</time>
      </trkpt>
      <trkpt lat="43.00578" lon="-0.0927">
        <ele>477.1</ele>
        <time>2022-08-02T08:14:53Z</time>
      </trkpt>
      <trkpt lat="43.00554" lon="-0.09243">
        <ele>477.6</ele>
        <time>2022-08-02T08:14:58Z</time>
      </trkpt>
      <trkpt lat="43.00527" lon="-0.0921">
        <ele>476.3</ele>
        <time>2022-08-02T08:15:04Z</time>
      </trkpt>
      <trkpt lat="43.00499" lon="-0.09174">
        <ele>477.1</ele>
        <time>2022-08-02T08:15:10Z</time>
      </trkpt>
      <trkpt lat="43.00468" lon="-0.09142">
        <ele>478.4</ele>
        <time>2022-08-02T08:15:16Z</time>
      </trkpt>
      <trkpt lat="43.00437" lon="-0.09113">
        <ele>478.7</ele>
        <time>2022-08-02T08:15:22Z</time>
      </trkpt>
      <trkpt lat="43.00406" lon="-0.09087">
        <ele>480</ele>
        <time>2022-08-02T08:15:28Z</time>
      </trkpt>
      <trkpt lat="43.00377" lon="-0.09068">
        <ele>480.5</ele>
        <time>2022-08-02T08:15:33Z</time>
      </trkpt>
      <trkpt lat="43.00342" lon="-0.09042">
        <ele>480.7</ele>
        <time>2022-08-02T08:15:39Z</time>
      </trkpt>
      <trkpt lat="43.00306" lon="-0.09016">
        <ele>480.9</ele>
        <time>2022-08-02T08:15:45Z</time>
      </trkpt>
      <trkpt lat="43.00274" lon="-0.08992">
        <ele>479.8</ele>
        <time>2022-08-02T08:15:50Z</time>
      </trkpt>
      <trkpt lat="43.00244" lon="-0.08973">
        <ele>481</ele>
        <time>2022-08-02T08:15:55Z</time>
      </trkpt>
      <trkpt lat="43.00213" lon="-0.08951">
        <ele>482.9</ele>
        <time>2022-08-02T08:16:00Z</time>
      </trkpt>
      <trkpt lat="43.00174" lon="-0.08924">
        <ele>483.2</ele>
        <time>2022-08-02T08:16:06Z</time>
      </trkpt>
      <trkpt lat="43.00135" lon="-0.08896">
        <ele>483</ele>
        <time>2022-08-02T08:16:12Z</time>
      </trkpt>
      <trkpt lat="43.00101" lon="-0.08873">
        <ele>484.1</ele>
        <time>2022-08-02T08:16:17Z</time>
      </trkpt>
      <trkpt lat="43.00067" lon="-0.08849">
        <ele>482.4</ele>
        <time>2022-08-02T08:16:22Z</time>
      </trkpt>
      <trkpt lat="43.00025" lon="-0.08821">
        <ele>482</ele>
        <time>2022-08-02T08:16:28Z</time>
      </trkpt>
      <trkpt lat="42.99991" lon="-0.08799">
        <ele>483.4</ele>
        <time>2022-08-02T08:16:33Z</time>
      </trkpt>
      <trkpt lat="42.99952" lon="-0.0877">
        <ele>483.4</ele>
        <time>2022-08-02T08:16:39Z</time>
      </trkpt>
      <trkpt lat="42.99914" lon="-0.08744">
        <ele>483.9</ele>
        <time>2022-08-02T08:16:45Z</time>
      </trkpt>
      <trkpt lat="42.9988" lon="-0.08719">
        <ele>482.8</ele>
        <time>2022-08-02T08:16:50Z</time>
      </trkpt>
      <trkpt lat="42.99842" lon="-0.08693">
        <ele>480.9</ele>
        <time>2022-08-02T08:16:55Z</time>
      </trkpt>
      <trkpt lat="42.99806" lon="-0.08669">
        <ele>480</ele>
        <time>2022-08-02T08:17:00Z</time>
      </trkpt>
      <trkpt lat="42.99769" lon="-0.08644">
        <ele>477.9</ele>
        <time>2022-08-02T08:17:05Z</time>
      </trkpt>
      <trkpt lat="42.99723" lon="-0.0861">
        <ele>478.7</ele>
        <time>2022-08-02T08:17:11Z</time>
      </trkpt>
      <trkpt lat="42.99674" lon="-0.08577">
        <ele>477</ele>
        <time>2022-08-02T08:17:17Z</time>
      </trkpt>
      <trkpt lat="42.99636" lon="-0.0855">
        <ele>476.8</ele>
        <time>2022-08-02T08:17:22Z</time>
      </trkpt>
      <trkpt lat="42.99596" lon="-0.08523">
        <ele>477.3</ele>
        <time>2022-08-02T08:17:27Z</time>
      </trkpt>
      <trkpt lat="42.99548" lon="-0.0849">
        <ele>476.6</ele>
        <time>2022-08-02T08:17:33Z</time>
      </trkpt>
      <trkpt lat="42.99502" lon="-0.08459">
        <ele>475.8</ele>
        <time>2022-08-02T08:17:39Z</time>
      </trkpt>
      <trkpt lat="42.99458" lon="-0.08433">
        <ele>477.2</ele>
        <time>2022-08-02T08:17:45Z</time>
      </trkpt>
      <trkpt lat="42.99421" lon="-0.08413">
        <ele>478.5</ele>
        <time>2022-08-02T08:17:50Z</time>
      </trkpt>
      <trkpt lat="42.99376" lon="-0.08392">
        <ele>476.6</ele>
        <time>2022-08-02T08:17:56Z</time>
      </trkpt>
      <trkpt lat="42.9933" lon="-0.08371">
        <ele>475.4</ele>
        <time>2022-08-02T08:18:02Z</time>
      </trkpt>
      <trkpt lat="42.99293" lon="-0.08354">
        <ele>474.2</ele>
        <time>2022-08-02T08:18:07Z</time>
      </trkpt>
      <trkpt lat="42.99255" lon="-0.08336">
        <ele>474.5</ele>
        <time>2022-08-02T08:18:13Z</time>
      </trkpt>
      <trkpt lat="42.99221" lon="-0.0832">
        <ele>475.7</ele>
        <time>2022-08-02T08:18:18Z</time>
      </trkpt>
      <trkpt lat="42.9918" lon="-0.08301">
        <ele>476.9</ele>
        <time>2022-08-02T08:18:24Z</time>
      </trkpt>
      <trkpt lat="42.99137" lon="-0.08283">
        <ele>477</ele>
        <time>2022-08-02T08:18:30Z</time>
      </trkpt>
      <trkpt lat="42.99101" lon="-0.08267">
        <ele>476</ele>
        <time>2022-08-02T08:18:35Z</time>
      </trkpt>
      <trkpt lat="42.99059" lon="-0.08249">
        <ele>476.1</ele>
        <time>2022-08-02T08:18:41Z</time>
      </trkpt>
      <trkpt lat="42.99024" lon="-0.08233">
        <ele>474.4</ele>
        <time>2022-08-02T08:18:46Z</time>
      </trkpt>
      <trkpt lat="42.9898" lon="-0.08212">
        <ele>475</ele>
        <time>2022-08-02T08:18:52Z</time>
      </trkpt>
      <trkpt lat="42.98937" lon="-0.08191">
        <ele>476.2</ele>
        <time>2022-08-02T08:18:58Z</time>
      </trkpt>
      <trkpt lat="42.98902" lon="-0.08175">
        <ele>476.1</ele>
        <time>2022-08-02T08:19:03Z</time>
      </trkpt>
      <trkpt lat="42.98858" lon="-0.08156">
        <ele>476.7</ele>
        <time>2022-08-02T08:19:09Z</time>
      </trkpt>
      <trkpt lat="42.98823" lon="-0.08139">
        <ele>478.2</ele>
        <time>2022-08-02T08:19:14Z</time>
      </trkpt>
      <trkpt lat="42.98788" lon="-0.08123">
        <ele>480.8</ele>
        <time>2022-08-02T08:19:19Z</time>
      </trkpt>
      <trkpt lat="42.98756" lon="-0.08109">
        <ele>480.7</ele>
        <time>2022-08-02T08:19:24Z</time>
      </trkpt>
      <trkpt lat="42.98721" lon="-0.08093">
        <ele>480.2</ele>
        <time>2022-08-02T08:19:29Z</time>
      </trkpt>
      <trkpt lat="42.98679" lon="-0.08075">
        <ele>481</ele>
        <time>2022-08-02T08:19:35Z</time>
      </trkpt>
      <trkpt lat="42.98639" lon="-0.08056">
        <ele>481.3</ele>
        <time>2022-08-02T08:19:41Z</time>
      </trkpt>
      <trkpt lat="42.98605" lon="-0.08041">
        <ele>481.1</ele>
        <time>2022-08-02T08:19:46Z</time>
      </trkpt>
      <trkpt lat="42.98565" lon="-0.08024">
        <ele>481.3</ele>
        <time>2022-08-02T08:19:52Z</time>
      </trkpt>
      <trkpt lat="42.98524" lon="-0.08006">
        <ele>480.2</ele>
        <time>2022-08-02T08:19:58Z</time>
      </trkpt>
      <trkpt lat="42.9849" lon="-0.07991">
        <ele>480</ele>
        <time>2022-08-02T08:20:03Z</time>
      </trkpt>
      <trkpt lat="42.98456" lon="-0.07976">
        <ele>478.8</ele>
        <time>2022-08-02T08:20:08Z</time>
      </trkpt>
      <trkpt lat="42.98418" lon="-0.07957">
        <ele>479.5</ele>
        <time>2022-08-02T08:20:14Z</time>
      </trkpt>
      <trkpt lat="42.98381" lon="-0.07941">
        <ele>480.1</ele>
        <time>2022-08-02T08:20:20Z</time>
      </trkpt>
      <trkpt lat="42.98348" lon="-0.07926">
        <ele>479.9</ele>
        <time>2022-08-02T08:20:26Z</time>
      </trkpt>
      <trkpt lat="42.98317" lon="-0.07911">
        <ele>478.8</ele>
        <time>2022-08-02T08:20:31Z</time>
      </trkpt>
      <trkpt lat="42.98278" lon="-0.07894">
        <ele>480.1</ele>
        <time>2022-08-02T08:20:37Z</time>
      </trkpt>
      <trkpt lat="42.98241" lon="-0.07877">
        <ele>482.9</ele>
        <time>2022-08-02T08:20:43Z</time>
      </trkpt>
      <trkpt lat="42.98205" lon="-0.07859">
        <ele>483.8</ele>
        <time>2022-08-02T08:20:49Z</time>
      </trkpt>
      <trkpt lat="42.98174" lon="-0.07846">
        <ele>485.2</ele>
        <time>2022-08-02T08:20:54Z</time>
      </trkpt>
      <trkpt lat="42.98135" lon="-0.0783">
        <ele>485.5</ele>
        <time>2022-08-02T08:21:00Z</time>
      </trkpt>
      <trkpt lat="42.98103" lon="-0.07814">
        <ele>486.6</ele>
        <time>2022-08-02T08:21:05Z</time>
      </trkpt>
      <trkpt lat="42.98066" lon="-0.07798">
        <ele>486.8</ele>
        <time>2022-08-02T08:21:11Z</time>
      </trkpt>
      <trkpt lat="42.98035" lon="-0.07784">
        <ele>487.4</ele>
        <time>2022-08-02T08:21:16Z</time>
      </trkpt>
      <trkpt lat="42.98002" lon="-0.07769">
        <ele>488.2</ele>
        <time>2022-08-02T08:21:21Z</time>
      </trkpt>
      <trkpt lat="42.9797" lon="-0.07755">
        <ele>489.2</ele>
        <time>2022-08-02T08:21:26Z</time>
      </trkpt>
      <trkpt lat="42.97932" lon="-0.07737">
        <ele>490.2</ele>
        <time>2022-08-02T08:21:32Z</time>
      </trkpt>
      <trkpt lat="42.97898" lon="-0.07722">
        <ele>490.5</ele>
        <time>2022-08-02T08:21:37Z</time>
      </trkpt>
      <trkpt lat="42.97859" lon="-0.07706">
        <ele>490.4</ele>
        <time>2022-08-02T08:21:43Z</time>
      </trkpt>
      <trkpt lat="42.97828" lon="-0.07691">
        <ele>489.4</ele>
        <time>2022-08-02T08:21:48Z</time>
      </trkpt>
      <trkpt lat="42.97787" lon="-0.07675">
        <ele>489.8</ele>
        <time>2022-08-02T08:21:54Z</time>
      </trkpt>
      <trkpt lat="42.97755" lon="-0.07663">
        <ele>489.7</ele>
        <time>2022-08-02T08:21:59Z</time>
      </trkpt>
      <trkpt lat="42.97714" lon="-0.07648">
        <ele>490.8</ele>
        <time>2022-08-02T08:22:05Z</time>
      </trkpt>
      <trkpt lat="42.97681" lon="-0.07637">
        <ele>491.7</ele>
        <time>2022-08-02T08:22:10Z</time>
      </trkpt>
      <trkpt lat="42.97641" lon="-0.07623">
        <ele>491.2</ele>
        <time>2022-08-02T08:22:16Z</time>
      </trkpt>
      <trkpt lat="42.97603" lon="-0.07609">
        <ele>491.9</ele>
        <time>2022-08-02T08:22:22Z</time>
      </trkpt>
      <trkpt lat="42.97579" lon="-0.07601">
        <ele>492.7</ele>
        <time>2022-08-02T08:22:28Z</time>
      </trkpt>
      <trkpt lat="42.97557" lon="-0.07597">
        <ele>494.2</ele>
        <time>2022-08-02T08:22:33Z</time>
      </trkpt>
      <trkpt lat="42.97533" lon="-0.07587">
        <ele>493.5</ele>
        <time>2022-08-02T08:22:38Z</time>
      </trkpt>
      <trkpt lat="42.97501" lon="-0.07579">
        <ele>492.9</ele>
        <time>2022-08-02T08:22:44Z</time>
      </trkpt>
      <trkpt lat="42.97475" lon="-0.07569">
        <ele>493.9</ele>
        <time>2022-08-02T08:22:49Z</time>
      </trkpt>
      <trkpt lat="42.97448" lon="-0.0756">
        <ele>494.4</ele>
        <time>2022-08-02T08:22:54Z</time>
      </trkpt>
      <trkpt lat="42.97413" lon="-0.07552">
        <ele>493.9</ele>
        <time>2022-08-02T08:23:00Z</time>
      </trkpt>
      <trkpt lat="42.97378" lon="-0.07541">
        <ele>494.9</ele>
        <time>2022-08-02T08:23:06Z</time>
      </trkpt>
      <trkpt lat="42.9735" lon="-0.07533">
        <ele>495.6</ele>
        <time>2022-08-02T08:23:11Z</time>
      </trkpt>
      <trkpt lat="42.97314" lon="-0.07522">
        <ele>496.2</ele>
        <time>2022-08-02T08:23:17Z</time>
      </trkpt>
      <trkpt lat="42.97277" lon="-0.07514">
        <ele>497.5</ele>
        <time>2022-08-02T08:23:23Z</time>
      </trkpt>
      <trkpt lat="42.97247" lon="-0.07507">
        <ele>497.6</ele>
        <time>2022-08-02T08:23:28Z</time>
      </trkpt>
      <trkpt lat="42.97217" lon="-0.07498">
        <ele>497.7</ele>
        <time>2022-08-02T08:23:33Z</time>
      </trkpt>
      <trkpt lat="42.97182" lon="-0.07489">
        <ele>498.6</ele>
        <time>2022-08-02T08:23:39Z</time>
      </trkpt>
      <trkpt lat="42.97149" lon="-0.0748">
        <ele>499.6</ele>
        <time>2022-08-02T08:23:45Z</time>
      </trkpt>
      <trkpt lat="42.97121" lon="-0.07472">
        <ele>500.7</ele>
        <time>2022-08-02T08:23:50Z</time>
      </trkpt>
      <trkpt lat="42.9709" lon="-0.07462">
        <ele>502</ele>
        <time>2022-08-02T08:23:56Z</time>
      </trkpt>
      <trkpt lat="42.97066" lon="-0.07455">
        <ele>501.5</ele>
        <time>2022-08-02T08:24:02Z</time>
      </trkpt>
      <trkpt lat="42.97047" lon="-0.07452">
        <ele>501.7</ele>
        <time>2022-08-02T08:24:07Z</time>
      </trkpt>
      <trkpt lat="42.97026" lon="-0.07446">
        <ele>501.1</ele>
        <time>2022-08-02T08:24:13Z</time>
      </trkpt>
      <trkpt lat="42.97005" lon="-0.07439">
        <ele>502.6</ele>
        <time>2022-08-02T08:24:18Z</time>
      </trkpt>
      <trkpt lat="42.96979" lon="-0.07432">
        <ele>504.1</ele>
        <time>2022-08-02T08:24:24Z</time>
      </trkpt>
      <trkpt lat="42.96958" lon="-0.07427">
        <ele>502.2</ele>
        <time>2022-08-02T08:24:29Z</time>
      </trkpt>
      <trkpt lat="42.96932" lon="-0.0742">
        <ele>502</ele>
        <time>2022-08-02T08:24:35Z</time>
      </trkpt>
      <trkpt lat="42.96906" lon="-0.07412">
        <ele>501.8</ele>
        <time>2022-08-02T08:24:41Z</time>
      </trkpt>
      <trkpt lat="42.96884" lon="-0.07407">
        <ele>502.2</ele>
        <time>2022-08-02T08:24:46Z</time>
      </trkpt>
      <trkpt lat="42.96856" lon="-0.07399">
        <ele>504.6</ele>
        <time>2022-08-02T08:24:52Z</time>
      </trkpt>
      <trkpt lat="42.96832" lon="-0.07394">
        <ele>503.2</ele>
        <time>2022-08-02T08:24:57Z</time>
      </trkpt>
      <trkpt lat="42.96806" lon="-0.07389">
        <ele>503.2</ele>
        <time>2022-08-02T08:25:03Z</time>
      </trkpt>
      <trkpt lat="42.96785" lon="-0.07382">
        <ele>504.7</ele>
        <time>2022-08-02T08:25:08Z</time>
      </trkpt>
      <trkpt lat="42.96762" lon="-0.07373">
        <ele>501.9</ele>
        <time>2022-08-02T08:25:14Z</time>
      </trkpt>
      <trkpt lat="42.96737" lon="-0.07368">
        <ele>503.3</ele>
        <time>2022-08-02T08:25:20Z</time>
      </trkpt>
      <trkpt lat="42.96716" lon="-0.07364">
        <ele>505.3</ele>
        <time>2022-08-02T08:25:25Z</time>
      </trkpt>
      <trkpt lat="42.96689" lon="-0.07354">
        <ele>506.4</ele>
        <time>2022-08-02T08:25:31Z</time>
      </trkpt>
      <trkpt lat="42.96664" lon="-0.07343">
        <ele>509</ele>
        <time>2022-08-02T08:25:37Z</time>
      </trkpt>
      <trkpt lat="42.96644" lon="-0.07333">
        <ele>509</ele>
        <time>2022-08-02T08:25:42Z</time>
      </trkpt>
      <trkpt lat="42.96625" lon="-0.07322">
        <ele>508.4</ele>
        <time>2022-08-02T08:25:47Z</time>
      </trkpt>
      <trkpt lat="42.96607" lon="-0.07309">
        <ele>509.2</ele>
        <time>2022-08-02T08:25:53Z</time>
      </trkpt>
      <trkpt lat="42.96594" lon="-0.07299">
        <ele>510.3</ele>
        <time>2022-08-02T08:25:58Z</time>
      </trkpt>
      <trkpt lat="42.96582" lon="-0.07289">
        <ele>511.1</ele>
        <time>2022-08-02T08:26:03Z</time>
      </trkpt>
      <trkpt lat="42.96576" lon="-0.07285">
        <ele>512</ele>
        <time>2022-08-02T08:26:08Z</time>
      </trkpt>
      <trkpt lat="42.96563" lon="-0.07273">
        <ele>511.3</ele>
        <time>2022-08-02T08:26:14Z</time>
      </trkpt>
      <trkpt lat="42.9655" lon="-0.07257">
        <ele>510.8</ele>
        <time>2022-08-02T08:26:19Z</time>
      </trkpt>
      <trkpt lat="42.96542" lon="-0.0724">
        <ele>511.7</ele>
        <time>2022-08-02T08:26:24Z</time>
      </trkpt>
      <trkpt lat="42.96534" lon="-0.07222">
        <ele>511</ele>
        <time>2022-08-02T08:26:29Z</time>
      </trkpt>
      <trkpt lat="42.96522" lon="-0.07205">
        <ele>511.5</ele>
        <time>2022-08-02T08:26:34Z</time>
      </trkpt>
      <trkpt lat="42.96513" lon="-0.07191">
        <ele>510.9</ele>
        <time>2022-08-02T08:26:40Z</time>
      </trkpt>
      <trkpt lat="42.96502" lon="-0.07173">
        <ele>511.3</ele>
        <time>2022-08-02T08:26:45Z</time>
      </trkpt>
      <trkpt lat="42.96487" lon="-0.07148">
        <ele>511.6</ele>
        <time>2022-08-02T08:26:50Z</time>
      </trkpt>
      <trkpt lat="42.96473" lon="-0.07137">
        <ele>512.3</ele>
        <time>2022-08-02T08:26:56Z</time>
      </trkpt>
      <trkpt lat="42.96458" lon="-0.07146">
        <ele>510.7</ele>
        <time>2022-08-02T08:27:01Z</time>
      </trkpt>
      <trkpt lat="42.96441" lon="-0.07155">
        <ele>512.1</ele>
        <time>2022-08-02T08:27:06Z</time>
      </trkpt>
      <trkpt lat="42.96419" lon="-0.07167">
        <ele>514.6</ele>
        <time>2022-08-02T08:27:11Z</time>
      </trkpt>
      <trkpt lat="42.96401" lon="-0.07177">
        <ele>514.3</ele>
        <time>2022-08-02T08:27:17Z</time>
      </trkpt>
      <trkpt lat="42.96384" lon="-0.0719">
        <ele>515.7</ele>
        <time>2022-08-02T08:27:22Z</time>
      </trkpt>
      <trkpt lat="42.96366" lon="-0.07208">
        <ele>517.5</ele>
        <time>2022-08-02T08:27:27Z</time>
      </trkpt>
      <trkpt lat="42.96345" lon="-0.07229">
        <ele>517.6</ele>
        <time>2022-08-02T08:27:33Z</time>
      </trkpt>
      <trkpt lat="42.9632" lon="-0.0724">
        <ele>517.9</ele>
        <time>2022-08-02T08:27:39Z</time>
      </trkpt>
      <trkpt lat="42.963" lon="-0.0725">
        <ele>519.5</ele>
        <time>2022-08-02T08:27:44Z</time>
      </trkpt>
      <trkpt lat="42.96279" lon="-0.07264">
        <ele>520.8</ele>
        <time>2022-08-02T08:27:50Z</time>
      </trkpt>
      <trkpt lat="42.96261" lon="-0.07281">
        <ele>521.1</ele>
        <time>2022-08-02T08:27:56Z</time>
      </trkpt>
      <trkpt lat="42.96241" lon="-0.07299">
        <ele>521.1</ele>
        <time>2022-08-02T08:28:02Z</time>
      </trkpt>
      <trkpt lat="42.96226" lon="-0.07313">
        <ele>521.7</ele>
        <time>2022-08-02T08:28:07Z</time>
      </trkpt>
      <trkpt lat="42.96211" lon="-0.07328">
        <ele>522.5</ele>
        <time>2022-08-02T08:28:12Z</time>
      </trkpt>
      <trkpt lat="42.96195" lon="-0.07346">
        <ele>522.9</ele>
        <time>2022-08-02T08:28:17Z</time>
      </trkpt>
      <trkpt lat="42.96184" lon="-0.07362">
        <ele>522.5</ele>
        <time>2022-08-02T08:28:23Z</time>
      </trkpt>
      <trkpt lat="42.96169" lon="-0.07376">
        <ele>525</ele>
        <time>2022-08-02T08:28:28Z</time>
      </trkpt>
      <trkpt lat="42.9615" lon="-0.07381">
        <ele>525.4</ele>
        <time>2022-08-02T08:28:33Z</time>
      </trkpt>
      <trkpt lat="42.96131" lon="-0.07382">
        <ele>525.7</ele>
        <time>2022-08-02T08:28:39Z</time>
      </trkpt>
      <trkpt lat="42.96114" lon="-0.0738">
        <ele>524.5</ele>
        <time>2022-08-02T08:28:44Z</time>
      </trkpt>
      <trkpt lat="42.96096" lon="-0.07383">
        <ele>525.7</ele>
        <time>2022-08-02T08:28:49Z</time>
      </trkpt>
      <trkpt lat="42.96079" lon="-0.07384">
        <ele>527.4</ele>
        <time>2022-08-02T08:28:54Z</time>
      </trkpt>
      <trkpt lat="42.96065" lon="-0.07391">
        <ele>528.4</ele>
        <time>2022-08-02T08:28:59Z</time>
      </trkpt>
      <trkpt lat="42.96061" lon="-0.07397">
        <ele>528.7</ele>
        <time>2022-08-02T08:29:05Z</time>
      </trkpt>
      <trkpt lat="42.96061" lon="-0.07399">
        <ele>527.4</ele>
        <time>2022-08-02T08:29:10Z</time>
      </trkpt>
      <trkpt lat="42.96059" lon="-0.074">
        <ele>526.7</ele>
        <time>2022-08-02T08:29:16Z</time>
      </trkpt>
      <trkpt lat="42.96058" lon="-0.07399">
        <ele>528.5</ele>
        <time>2022-08-02T08:29:21Z</time>
      </trkpt>
      <trkpt lat="42.96058" lon="-0.07399">
        <ele>528.7</ele>
        <time>2022-08-02T08:29:27Z</time>
      </trkpt>
      <trkpt lat="42.96058" lon="-0.07398">
        <ele>528.7</ele>
        <time>2022-08-02T08:29:33Z</time>
      </trkpt>
      <trkpt lat="42.96058" lon="-0.07398">
        <ele>528.7</ele>
        <time>2022-08-02T08:29:38Z</time>
      </trkpt>
      <trkpt lat="42.96058" lon="-0.07398">
        <ele>528.7</ele>
        <time>2022-08-02T08:29:43Z</time>
      </trkpt>
      <trkpt lat="42.96058" lon="-0.07398">
        <ele>528.7</ele>
        <time>2022-08-02T08:29:49Z</time>
      </trkpt>
      <trkpt lat="42.96058" lon="-0.07397">
        <ele>528.7</ele>
        <time>2022-08-02T08:29:55Z</time>
      </trkpt>
      <trkpt lat="42.96058" lon="-0.07397">
        <ele>528.7</ele>
        <time>2022-08-02T08:30:00Z</time>
      </trkpt>
      <trkpt lat="42.96058" lon="-0.07397">
        <ele>528.7</ele>
        <time>2022-08-02T08:30:06Z</time>
      </trkpt>
      <trkpt lat="42.96058" lon="-0.07397">
        <ele>528.7</ele>
        <time>2022-08-02T08:30:12Z</time>
      </trkpt>
      <trkpt lat="42.96058" lon="-0.07397">
        <ele>528.7</ele>
        <time>2022-08-02T08:30:18Z</time>
      </trkpt>
      <trkpt lat="42.96051" lon="-0.074">
        <ele>527.8</ele>
        <time>2022-08-02T08:30:23Z</time>
      </trkpt>
      <trkpt lat="42.9605" lon="-0.07401">
        <ele>528.8</ele>
        <time>2022-08-02T08:30:29Z</time>
      </trkpt>
      <trkpt lat="42.9605" lon="-0.07401">
        <ele>530</ele>
        <time>2022-08-02T08:30:34Z</time>
      </trkpt>
      <trkpt lat="42.9605" lon="-0.07402">
        <ele>529.9</ele>
        <time>2022-08-02T08:30:39Z</time>
      </trkpt>
      <trkpt lat="42.9605" lon="-0.07402">
        <ele>529.9</ele>
        <time>2022-08-02T08:30:45Z</time>
      </trkpt>
      <trkpt lat="42.9605" lon="-0.07402">
        <ele>529.9</ele>
        <time>2022-08-02T08:30:51Z</time>
      </trkpt>
      <trkpt lat="42.9605" lon="-0.07402">
        <ele>529.9</ele>
        <time>2022-08-02T08:30:57Z</time>
      </trkpt>
      <trkpt lat="42.9605" lon="-0.07402">
        <ele>529.9</ele>
        <time>2022-08-02T08:31:02Z</time>
      </trkpt>
      <trkpt lat="42.9605" lon="-0.07402">
        <ele>529.9</ele>
        <time>2022-08-02T08:31:07Z</time>
      </trkpt>
      <trkpt lat="42.96047" lon="-0.07405">
        <ele>528.5</ele>
        <time>2022-08-02T08:31:12Z</time>
      </trkpt>
      <trkpt lat="42.96043" lon="-0.07415">
        <ele>528.6</ele>
        <time>2022-08-02T08:31:18Z</time>
      </trkpt>
      <trkpt lat="42.96036" lon="-0.07433">
        <ele>528.4</ele>
        <time>2022-08-02T08:31:23Z</time>
      </trkpt>
      <trkpt lat="42.96035" lon="-0.07445">
        <ele>527.1</ele>
        <time>2022-08-02T08:31:29Z</time>
      </trkpt>
      <trkpt lat="42.96024" lon="-0.07452">
        <ele>529.1</ele>
        <time>2022-08-02T08:31:34Z</time>
      </trkpt>
      <trkpt lat="42.96004" lon="-0.07455">
        <ele>528.8</ele>
        <time>2022-08-02T08:31:40Z</time>
      </trkpt>
      <trkpt lat="42.95986" lon="-0.07453">
        <ele>528.7</ele>
        <time>2022-08-02T08:31:46Z</time>
      </trkpt>
      <trkpt lat="42.95968" lon="-0.07454">
        <ele>530.1</ele>
        <time>2022-08-02T08:31:51Z</time>
      </trkpt>
      <trkpt lat="42.95948" lon="-0.07454">
        <ele>531.8</ele>
        <time>2022-08-02T08:31:56Z</time>
      </trkpt>
      <trkpt lat="42.95929" lon="-0.07454">
        <ele>535.1</ele>
        <time>2022-08-02T08:32:02Z</time>
      </trkpt>
      <trkpt lat="42.95913" lon="-0.07458">
        <ele>537.8</ele>
        <time>2022-08-02T08:32:07Z</time>
      </trkpt>
      <trkpt lat="42.95891" lon="-0.0746">
        <ele>538.1</ele>
        <time>2022-08-02T08:32:13Z</time>
      </trkpt>
      <trkpt lat="42.95872" lon="-0.07461">
        <ele>538.1</ele>
        <time>2022-08-02T08:32:18Z</time>
      </trkpt>
      <trkpt lat="42.9585" lon="-0.0747">
        <ele>540.1</ele>
        <time>2022-08-02T08:32:24Z</time>
      </trkpt>
      <trkpt lat="42.9583" lon="-0.07481">
        <ele>541.6</ele>
        <time>2022-08-02T08:32:30Z</time>
      </trkpt>
      <trkpt lat="42.95816" lon="-0.07489">
        <ele>542.2</ele>
        <time>2022-08-02T08:32:36Z</time>
      </trkpt>
      <trkpt lat="42.95803" lon="-0.07497">
        <ele>543.3</ele>
        <time>2022-08-02T08:32:41Z</time>
      </trkpt>
      <trkpt lat="42.95788" lon="-0.07505">
        <ele>542.6</ele>
        <time>2022-08-02T08:32:46Z</time>
      </trkpt>
      <trkpt lat="42.95766" lon="-0.07507">
        <ele>542.1</ele>
        <time>2022-08-02T08:32:52Z</time>
      </trkpt>
      <trkpt lat="42.95747" lon="-0.07516">
        <ele>543.8</ele>
        <time>2022-08-02T08:32:58Z</time>
      </trkpt>
      <trkpt lat="42.95731" lon="-0.0752">
        <ele>543.7</ele>
        <time>2022-08-02T08:33:03Z</time>
      </trkpt>
      <trkpt lat="42.95713" lon="-0.07519">
        <ele>544.2</ele>
        <time>2022-08-02T08:33:08Z</time>
      </trkpt>
      <trkpt lat="42.95693" lon="-0.07511">
        <ele>543</ele>
        <time>2022-08-02T08:33:13Z</time>
      </trkpt>
      <trkpt lat="42.95679" lon="-0.07485">
        <ele>542.4</ele>
        <time>2022-08-02T08:33:18Z</time>
      </trkpt>
      <trkpt lat="42.9567" lon="-0.07434">
        <ele>543.6</ele>
        <time>2022-08-02T08:33:24Z</time>
      </trkpt>
      <trkpt lat="42.95649" lon="-0.07389">
        <ele>542.6</ele>
        <time>2022-08-02T08:33:29Z</time>
      </trkpt>
      <trkpt lat="42.95622" lon="-0.07347">
        <ele>539.7</ele>
        <time>2022-08-02T08:33:34Z</time>
      </trkpt>
      <trkpt lat="42.95589" lon="-0.07297">
        <ele>535</ele>
        <time>2022-08-02T08:33:40Z</time>
      </trkpt>
      <trkpt lat="42.95555" lon="-0.0725">
        <ele>530</ele>
        <time>2022-08-02T08:33:46Z</time>
      </trkpt>
      <trkpt lat="42.95528" lon="-0.07212">
        <ele>527.9</ele>
        <time>2022-08-02T08:33:51Z</time>
      </trkpt>
      <trkpt lat="42.955" lon="-0.07176">
        <ele>527.1</ele>
        <time>2022-08-02T08:33:56Z</time>
      </trkpt>
      <trkpt lat="42.95471" lon="-0.07144">
        <ele>526.5</ele>
        <time>2022-08-02T08:34:01Z</time>
      </trkpt>
      <trkpt lat="42.95436" lon="-0.07111">
        <ele>526.1</ele>
        <time>2022-08-02T08:34:07Z</time>
      </trkpt>
      <trkpt lat="42.95405" lon="-0.07086">
        <ele>525.1</ele>
        <time>2022-08-02T08:34:12Z</time>
      </trkpt>
      <trkpt lat="42.95363" lon="-0.07058">
        <ele>522.8</ele>
        <time>2022-08-02T08:34:18Z</time>
      </trkpt>
      <trkpt lat="42.95327" lon="-0.07036">
        <ele>523</ele>
        <time>2022-08-02T08:34:23Z</time>
      </trkpt>
      <trkpt lat="42.95286" lon="-0.07014">
        <ele>522.3</ele>
        <time>2022-08-02T08:34:29Z</time>
      </trkpt>
      <trkpt lat="42.95255" lon="-0.07001">
        <ele>523.9</ele>
        <time>2022-08-02T08:34:34Z</time>
      </trkpt>
      <trkpt lat="42.9522" lon="-0.06996">
        <ele>525.3</ele>
        <time>2022-08-02T08:34:40Z</time>
      </trkpt>
      <trkpt lat="42.95191" lon="-0.06984">
        <ele>524.9</ele>
        <time>2022-08-02T08:34:46Z</time>
      </trkpt>
      <trkpt lat="42.95162" lon="-0.06963">
        <ele>526.3</ele>
        <time>2022-08-02T08:34:52Z</time>
      </trkpt>
      <trkpt lat="42.95149" lon="-0.06932">
        <ele>524.7</ele>
        <time>2022-08-02T08:34:57Z</time>
      </trkpt>
      <trkpt lat="42.95136" lon="-0.06893">
        <ele>522.8</ele>
        <time>2022-08-02T08:35:03Z</time>
      </trkpt>
      <trkpt lat="42.95122" lon="-0.06857">
        <ele>520.2</ele>
        <time>2022-08-02T08:35:08Z</time>
      </trkpt>
      <trkpt lat="42.95103" lon="-0.06826">
        <ele>518.1</ele>
        <time>2022-08-02T08:35:13Z</time>
      </trkpt>
      <trkpt lat="42.95087" lon="-0.06786">
        <ele>518.3</ele>
        <time>2022-08-02T08:35:19Z</time>
      </trkpt>
      <trkpt lat="42.95069" lon="-0.06761">
        <ele>520.2</ele>
        <time>2022-08-02T08:35:24Z</time>
      </trkpt>
      <trkpt lat="42.95053" lon="-0.06733">
        <ele>519.5</ele>
        <time>2022-08-02T08:35:29Z</time>
      </trkpt>
      <trkpt lat="42.95045" lon="-0.06698">
        <ele>520.6</ele>
        <time>2022-08-02T08:35:34Z</time>
      </trkpt>
      <trkpt lat="42.95034" lon="-0.06663">
        <ele>518.9</ele>
        <time>2022-08-02T08:35:39Z</time>
      </trkpt>
      <trkpt lat="42.95023" lon="-0.06617">
        <ele>516.7</ele>
        <time>2022-08-02T08:35:45Z</time>
      </trkpt>
      <trkpt lat="42.95013" lon="-0.06572">
        <ele>514.2</ele>
        <time>2022-08-02T08:35:51Z</time>
      </trkpt>
      <trkpt lat="42.95002" lon="-0.06528">
        <ele>512.3</ele>
        <time>2022-08-02T08:35:57Z</time>
      </trkpt>
      <trkpt lat="42.94996" lon="-0.0649">
        <ele>513.1</ele>
        <time>2022-08-02T08:36:02Z</time>
      </trkpt>
      <trkpt lat="42.94986" lon="-0.06453">
        <ele>511.1</ele>
        <time>2022-08-02T08:36:07Z</time>
      </trkpt>
      <trkpt lat="42.94971" lon="-0.06408">
        <ele>509.8</ele>
        <time>2022-08-02T08:36:13Z</time>
      </trkpt>
      <trkpt lat="42.94957" lon="-0.06373">
        <ele>510.6</ele>
        <time>2022-08-02T08:36:18Z</time>
      </trkpt>
      <trkpt lat="42.94942" lon="-0.06329">
        <ele>511.7</ele>
        <time>2022-08-02T08:36:24Z</time>
      </trkpt>
      <trkpt lat="42.94921" lon="-0.06291">
        <ele>513.8</ele>
        <time>2022-08-02T08:36:30Z</time>
      </trkpt>
      <trkpt lat="42.94903" lon="-0.0626">
        <ele>514.5</ele>
        <time>2022-08-02T08:36:35Z</time>
      </trkpt>
      <trkpt lat="42.94885" lon="-0.06221">
        <ele>514.2</ele>
        <time>2022-08-02T08:36:41Z</time>
      </trkpt>
      <trkpt lat="42.94869" lon="-0.06177">
        <ele>513.9</ele>
        <time>2022-08-02T08:36:47Z</time>
      </trkpt>
      <trkpt lat="42.94854" lon="-0.06142">
        <ele>512.1</ele>
        <time>2022-08-02T08:36:52Z</time>
      </trkpt>
      <trkpt lat="42.94835" lon="-0.06104">
        <ele>511.6</ele>
        <time>2022-08-02T08:36:58Z</time>
      </trkpt>
      <trkpt lat="42.94819" lon="-0.06065">
        <ele>513.2</ele>
        <time>2022-08-02T08:37:04Z</time>
      </trkpt>
      <trkpt lat="42.94799" lon="-0.06029">
        <ele>511</ele>
        <time>2022-08-02T08:37:10Z</time>
      </trkpt>
      <trkpt lat="42.94782" lon="-0.06">
        <ele>513.4</ele>
        <time>2022-08-02T08:37:15Z</time>
      </trkpt>
      <trkpt lat="42.94763" lon="-0.05965">
        <ele>514.6</ele>
        <time>2022-08-02T08:37:21Z</time>
      </trkpt>
      <trkpt lat="42.94746" lon="-0.05927">
        <ele>515.2</ele>
        <time>2022-08-02T08:37:27Z</time>
      </trkpt>
      <trkpt lat="42.94733" lon="-0.05892">
        <ele>516.8</ele>
        <time>2022-08-02T08:37:33Z</time>
      </trkpt>
      <trkpt lat="42.94722" lon="-0.05862">
        <ele>519.9</ele>
        <time>2022-08-02T08:37:38Z</time>
      </trkpt>
      <trkpt lat="42.94715" lon="-0.05822">
        <ele>523.9</ele>
        <time>2022-08-02T08:37:44Z</time>
      </trkpt>
      <trkpt lat="42.94709" lon="-0.05789">
        <ele>526.4</ele>
        <time>2022-08-02T08:37:49Z</time>
      </trkpt>
      <trkpt lat="42.94699" lon="-0.05746">
        <ele>524.8</ele>
        <time>2022-08-02T08:37:55Z</time>
      </trkpt>
      <trkpt lat="42.94687" lon="-0.05708">
        <ele>524.4</ele>
        <time>2022-08-02T08:38:01Z</time>
      </trkpt>
      <trkpt lat="42.94669" lon="-0.05682">
        <ele>526.6</ele>
        <time>2022-08-02T08:38:06Z</time>
      </trkpt>
      <trkpt lat="42.94649" lon="-0.0566">
        <ele>529.5</ele>
        <time>2022-08-02T08:38:11Z</time>
      </trkpt>
      <trkpt lat="42.94626" lon="-0.05638">
        <ele>531.9</ele>
        <time>2022-08-02T08:38:16Z</time>
      </trkpt>
      <trkpt lat="42.94602" lon="-0.05611">
        <ele>532</ele>
        <time>2022-08-02T08:38:22Z</time>
      </trkpt>
      <trkpt lat="42.94583" lon="-0.05587">
        <ele>532.3</ele>
        <time>2022-08-02T08:38:27Z</time>
      </trkpt>
      <trkpt lat="42.94556" lon="-0.05559">
        <ele>533.1</ele>
        <time>2022-08-02T08:38:33Z</time>
      </trkpt>
      <trkpt lat="42.94537" lon="-0.05534">
        <ele>533.2</ele>
        <time>2022-08-02T08:38:38Z</time>
      </trkpt>
      <trkpt lat="42.94517" lon="-0.0551">
        <ele>535.8</ele>
        <time>2022-08-02T08:38:43Z</time>
      </trkpt>
      <trkpt lat="42.94491" lon="-0.05483">
        <ele>539.4</ele>
        <time>2022-08-02T08:38:49Z</time>
      </trkpt>
      <trkpt lat="42.94468" lon="-0.0545">
        <ele>541.7</ele>
        <time>2022-08-02T08:38:55Z</time>
      </trkpt>
      <trkpt lat="42.94442" lon="-0.0542">
        <ele>542.2</ele>
        <time>2022-08-02T08:39:01Z</time>
      </trkpt>
      <trkpt lat="42.9442" lon="-0.05397">
        <ele>543.8</ele>
        <time>2022-08-02T08:39:06Z</time>
      </trkpt>
      <trkpt lat="42.94391" lon="-0.0537">
        <ele>545.3</ele>
        <time>2022-08-02T08:39:12Z</time>
      </trkpt>
      <trkpt lat="42.94359" lon="-0.05349">
        <ele>546.3</ele>
        <time>2022-08-02T08:39:18Z</time>
      </trkpt>
      <trkpt lat="42.94332" lon="-0.05332">
        <ele>545.8</ele>
        <time>2022-08-02T08:39:23Z</time>
      </trkpt>
      <trkpt lat="42.94299" lon="-0.05313">
        <ele>545.1</ele>
        <time>2022-08-02T08:39:29Z</time>
      </trkpt>
      <trkpt lat="42.9427" lon="-0.05294">
        <ele>544.6</ele>
        <time>2022-08-02T08:39:35Z</time>
      </trkpt>
      <trkpt lat="42.94251" lon="-0.05271">
        <ele>542.4</ele>
        <time>2022-08-02T08:39:40Z</time>
      </trkpt>
      <trkpt lat="42.94225" lon="-0.05241">
        <ele>542</ele>
        <time>2022-08-02T08:39:46Z</time>
      </trkpt>
      <trkpt lat="42.94191" lon="-0.05228">
        <ele>541</ele>
        <time>2022-08-02T08:39:52Z</time>
      </trkpt>
      <trkpt lat="42.94152" lon="-0.05239">
        <ele>539.8</ele>
        <time>2022-08-02T08:39:58Z</time>
      </trkpt>
      <trkpt lat="42.94123" lon="-0.05263">
        <ele>540.6</ele>
        <time>2022-08-02T08:40:03Z</time>
      </trkpt>
      <trkpt lat="42.94098" lon="-0.05285">
        <ele>540</ele>
        <time>2022-08-02T08:40:08Z</time>
      </trkpt>
      <trkpt lat="42.94076" lon="-0.05312">
        <ele>538.3</ele>
        <time>2022-08-02T08:40:13Z</time>
      </trkpt>
      <trkpt lat="42.94055" lon="-0.05333">
        <ele>538.9</ele>
        <time>2022-08-02T08:40:18Z</time>
      </trkpt>
      <trkpt lat="42.94025" lon="-0.05341">
        <ele>540.2</ele>
        <time>2022-08-02T08:40:24Z</time>
      </trkpt>
      <trkpt lat="42.94" lon="-0.05329">
        <ele>541</ele>
        <time>2022-08-02T08:40:30Z</time>
      </trkpt>
      <trkpt lat="42.93984" lon="-0.05306">
        <ele>542.5</ele>
        <time>2022-08-02T08:40:35Z</time>
      </trkpt>
      <trkpt lat="42.9397" lon="-0.05272">
        <ele>540.5</ele>
        <time>2022-08-02T08:40:41Z</time>
      </trkpt>
      <trkpt lat="42.93962" lon="-0.05235">
        <ele>541.1</ele>
        <time>2022-08-02T08:40:47Z</time>
      </trkpt>
      <trkpt lat="42.93956" lon="-0.05202">
        <ele>543.2</ele>
        <time>2022-08-02T08:40:53Z</time>
      </trkpt>
      <trkpt lat="42.93948" lon="-0.05168">
        <ele>544</ele>
        <time>2022-08-02T08:40:59Z</time>
      </trkpt>
      <trkpt lat="42.93945" lon="-0.05136">
        <ele>544.5</ele>
        <time>2022-08-02T08:41:04Z</time>
      </trkpt>
      <trkpt lat="42.93931" lon="-0.05103">
        <ele>544</ele>
        <time>2022-08-02T08:41:10Z</time>
      </trkpt>
      <trkpt lat="42.93915" lon="-0.05083">
        <ele>542.1</ele>
        <time>2022-08-02T08:41:16Z</time>
      </trkpt>
      <trkpt lat="42.93895" lon="-0.05057">
        <ele>547.1</ele>
        <time>2022-08-02T08:41:21Z</time>
      </trkpt>
      <trkpt lat="42.93864" lon="-0.05032">
        <ele>548.5</ele>
        <time>2022-08-02T08:41:27Z</time>
      </trkpt>
      <trkpt lat="42.93839" lon="-0.05016">
        <ele>549.1</ele>
        <time>2022-08-02T08:41:33Z</time>
      </trkpt>
      <trkpt lat="42.93813" lon="-0.05003">
        <ele>547.4</ele>
        <time>2022-08-02T08:41:39Z</time>
      </trkpt>
      <trkpt lat="42.93787" lon="-0.04983">
        <ele>547.1</ele>
        <time>2022-08-02T08:41:45Z</time>
      </trkpt>
      <trkpt lat="42.93764" lon="-0.04971">
        <ele>547.2</ele>
        <time>2022-08-02T08:41:50Z</time>
      </trkpt>
      <trkpt lat="42.93741" lon="-0.04955">
        <ele>543.4</ele>
        <time>2022-08-02T08:41:56Z</time>
      </trkpt>
      <trkpt lat="42.93718" lon="-0.04936">
        <ele>545.6</ele>
        <time>2022-08-02T08:42:02Z</time>
      </trkpt>
      <trkpt lat="42.93701" lon="-0.04916">
        <ele>553</ele>
        <time>2022-08-02T08:42:07Z</time>
      </trkpt>
      <trkpt lat="42.93688" lon="-0.0488">
        <ele>552.5</ele>
        <time>2022-08-02T08:42:13Z</time>
      </trkpt>
      <trkpt lat="42.93674" lon="-0.04863">
        <ele>550.9</ele>
        <time>2022-08-02T08:42:19Z</time>
      </trkpt>
      <trkpt lat="42.93655" lon="-0.04857">
        <ele>551.1</ele>
        <time>2022-08-02T08:42:25Z</time>
      </trkpt>
      <trkpt lat="42.93624" lon="-0.04855">
        <ele>547.6</ele>
        <time>2022-08-02T08:42:30Z</time>
      </trkpt>
      <trkpt lat="42.93596" lon="-0.04857">
        <ele>544.5</ele>
        <time>2022-08-02T08:42:36Z</time>
      </trkpt>
      <trkpt lat="42.93573" lon="-0.04863">
        <ele>544.5</ele>
        <time>2022-08-02T08:42:41Z</time>
      </trkpt>
      <trkpt lat="42.93551" lon="-0.04871">
        <ele>545.2</ele>
        <time>2022-08-02T08:42:47Z</time>
      </trkpt>
      <trkpt lat="42.93532" lon="-0.0488">
        <ele>546.5</ele>
        <time>2022-08-02T08:42:52Z</time>
      </trkpt>
      <trkpt lat="42.93522" lon="-0.04881">
        <ele>548.1</ele>
        <time>2022-08-02T08:42:57Z</time>
      </trkpt>
      <trkpt lat="42.93507" lon="-0.04881">
        <ele>547.8</ele>
        <time>2022-08-02T08:43:03Z</time>
      </trkpt>
      <trkpt lat="42.93492" lon="-0.04873">
        <ele>553.9</ele>
        <time>2022-08-02T08:43:08Z</time>
      </trkpt>
      <trkpt lat="42.93473" lon="-0.04847">
        <ele>556.6</ele>
        <time>2022-08-02T08:43:13Z</time>
      </trkpt>
      <trkpt lat="42.93459" lon="-0.04826">
        <ele>557.8</ele>
        <time>2022-08-02T08:43:19Z</time>
      </trkpt>
      <trkpt lat="42.93437" lon="-0.04816">
        <ele>560.9</ele>
        <time>2022-08-02T08:43:25Z</time>
      </trkpt>
      <trkpt lat="42.93421" lon="-0.04804">
        <ele>563.9</ele>
        <time>2022-08-02T08:43:30Z</time>
      </trkpt>
      <trkpt lat="42.93401" lon="-0.04776">
        <ele>566.9</ele>
        <time>2022-08-02T08:43:36Z</time>
      </trkpt>
      <trkpt lat="42.93384" lon="-0.04756">
        <ele>563.9</ele>
        <time>2022-08-02T08:43:41Z</time>
      </trkpt>
      <trkpt lat="42.93364" lon="-0.04717">
        <ele>564</ele>
        <time>2022-08-02T08:43:47Z</time>
      </trkpt>
      <trkpt lat="42.93347" lon="-0.04691">
        <ele>567.3</ele>
        <time>2022-08-02T08:43:53Z</time>
      </trkpt>
      <trkpt lat="42.93331" lon="-0.04679">
        <ele>568.7</ele>
        <time>2022-08-02T08:43:58Z</time>
      </trkpt>
      <trkpt lat="42.93311" lon="-0.04668">
        <ele>568.8</ele>
        <time>2022-08-02T08:44:04Z</time>
      </trkpt>
      <trkpt lat="42.93287" lon="-0.04662">
        <ele>570.5</ele>
        <time>2022-08-02T08:44:09Z</time>
      </trkpt>
      <trkpt lat="42.93265" lon="-0.04653">
        <ele>571.7</ele>
        <time>2022-08-02T08:44:15Z</time>
      </trkpt>
      <trkpt lat="42.93242" lon="-0.04636">
        <ele>574.6</ele>
        <time>2022-08-02T08:44:21Z</time>
      </trkpt>
      <trkpt lat="42.93221" lon="-0.04625">
        <ele>576.9</ele>
        <time>2022-08-02T08:44:26Z</time>
      </trkpt>
      <trkpt lat="42.93196" lon="-0.04621">
        <ele>578</ele>
        <time>2022-08-02T08:44:31Z</time>
      </trkpt>
      <trkpt lat="42.93176" lon="-0.04617">
        <ele>576.7</ele>
        <time>2022-08-02T08:44:36Z</time>
      </trkpt>
      <trkpt lat="42.93153" lon="-0.04618">
        <ele>578.6</ele>
        <time>2022-08-02T08:44:42Z</time>
      </trkpt>
      <trkpt lat="42.93127" lon="-0.04623">
        <ele>578.4</ele>
        <time>2022-08-02T08:44:48Z</time>
      </trkpt>
      <trkpt lat="42.93102" lon="-0.04617">
        <ele>576.7</ele>
        <time>2022-08-02T08:44:54Z</time>
      </trkpt>
      <trkpt lat="42.93083" lon="-0.04603">
        <ele>574.3</ele>
        <time>2022-08-02T08:44:59Z</time>
      </trkpt>
      <trkpt lat="42.93069" lon="-0.04584">
        <ele>575.8</ele>
        <time>2022-08-02T08:45:04Z</time>
      </trkpt>
      <trkpt lat="42.93055" lon="-0.04565">
        <ele>578.8</ele>
        <time>2022-08-02T08:45:09Z</time>
      </trkpt>
      <trkpt lat="42.93041" lon="-0.04548">
        <ele>581.4</ele>
        <time>2022-08-02T08:45:14Z</time>
      </trkpt>
      <trkpt lat="42.9303" lon="-0.04532">
        <ele>581.5</ele>
        <time>2022-08-02T08:45:19Z</time>
      </trkpt>
      <trkpt lat="42.93023" lon="-0.04514">
        <ele>585.2</ele>
        <time>2022-08-02T08:45:24Z</time>
      </trkpt>
      <trkpt lat="42.93014" lon="-0.04493">
        <ele>583</ele>
        <time>2022-08-02T08:45:30Z</time>
      </trkpt>
      <trkpt lat="42.93003" lon="-0.04471">
        <ele>579.2</ele>
        <time>2022-08-02T08:45:36Z</time>
      </trkpt>
      <trkpt lat="42.92996" lon="-0.04451">
        <ele>580.5</ele>
        <time>2022-08-02T08:45:41Z</time>
      </trkpt>
      <trkpt lat="42.92988" lon="-0.04432">
        <ele>583.5</ele>
        <time>2022-08-02T08:45:46Z</time>
      </trkpt>
      <trkpt lat="42.9298" lon="-0.0441">
        <ele>586.7</ele>
        <time>2022-08-02T08:45:52Z</time>
      </trkpt>
      <trkpt lat="42.92974" lon="-0.04393">
        <ele>592.4</ele>
        <time>2022-08-02T08:45:57Z</time>
      </trkpt>
      <trkpt lat="42.92963" lon="-0.04376">
        <ele>593.8</ele>
        <time>2022-08-02T08:46:03Z</time>
      </trkpt>
      <trkpt lat="42.92957" lon="-0.04366">
        <ele>590.6</ele>
        <time>2022-08-02T08:46:08Z</time>
      </trkpt>
      <trkpt lat="42.92953" lon="-0.04357">
        <ele>592</ele>
        <time>2022-08-02T08:46:14Z</time>
      </trkpt>
      <trkpt lat="42.9295" lon="-0.04353">
        <ele>591.9</ele>
        <time>2022-08-02T08:46:19Z</time>
      </trkpt>
      <trkpt lat="42.92945" lon="-0.04344">
        <ele>592.2</ele>
        <time>2022-08-02T08:46:25Z</time>
      </trkpt>
      <trkpt lat="42.92945" lon="-0.04341">
        <ele>593.6</ele>
        <time>2022-08-02T08:46:30Z</time>
      </trkpt>
      <trkpt lat="42.92945" lon="-0.04342">
        <ele>593.4</ele>
        <time>2022-08-02T08:46:35Z</time>
      </trkpt>
      <trkpt lat="42.92946" lon="-0.04342">
        <ele>593.5</ele>
        <time>2022-08-02T08:46:41Z</time>
      </trkpt>
      <trkpt lat="42.92941" lon="-0.04333">
        <ele>591.5</ele>
        <time>2022-08-02T08:46:46Z</time>
      </trkpt>
      <trkpt lat="42.9293" lon="-0.04323">
        <ele>592.1</ele>
        <time>2022-08-02T08:46:52Z</time>
      </trkpt>
      <trkpt lat="42.92915" lon="-0.0432">
        <ele>593.2</ele>
        <time>2022-08-02T08:46:58Z</time>
      </trkpt>
      <trkpt lat="42.92908" lon="-0.04316">
        <ele>598.3</ele>
        <time>2022-08-02T08:47:03Z</time>
      </trkpt>
      <trkpt lat="42.92899" lon="-0.04309">
        <ele>602.3</ele>
        <time>2022-08-02T08:47:08Z</time>
      </trkpt>
      <trkpt lat="42.92886" lon="-0.04302">
        <ele>606</ele>
        <time>2022-08-02T08:47:13Z</time>
      </trkpt>
      <trkpt lat="42.92868" lon="-0.04297">
        <ele>608</ele>
        <time>2022-08-02T08:47:19Z</time>
      </trkpt>
      <trkpt lat="42.92855" lon="-0.04288">
        <ele>607.4</ele>
        <time>2022-08-02T08:47:24Z</time>
      </trkpt>
      <trkpt lat="42.92843" lon="-0.04275">
        <ele>613.2</ele>
        <time>2022-08-02T08:47:29Z</time>
      </trkpt>
      <trkpt lat="42.9283" lon="-0.04262">
        <ele>611.9</ele>
        <time>2022-08-02T08:47:35Z</time>
      </trkpt>
      <trkpt lat="42.92814" lon="-0.04245">
        <ele>616.6</ele>
        <time>2022-08-02T08:47:41Z</time>
      </trkpt>
      <trkpt lat="42.92799" lon="-0.04236">
        <ele>616.3</ele>
        <time>2022-08-02T08:47:47Z</time>
      </trkpt>
      <trkpt lat="42.92785" lon="-0.04218">
        <ele>616.8</ele>
        <time>2022-08-02T08:47:53Z</time>
      </trkpt>
      <trkpt lat="42.92769" lon="-0.04202">
        <ele>620.1</ele>
        <time>2022-08-02T08:47:58Z</time>
      </trkpt>
      <trkpt lat="42.92756" lon="-0.04198">
        <ele>620.8</ele>
        <time>2022-08-02T08:48:03Z</time>
      </trkpt>
      <trkpt lat="42.92742" lon="-0.04193">
        <ele>621</ele>
        <time>2022-08-02T08:48:09Z</time>
      </trkpt>
      <trkpt lat="42.92727" lon="-0.04187">
        <ele>621.9</ele>
        <time>2022-08-02T08:48:14Z</time>
      </trkpt>
      <trkpt lat="42.92713" lon="-0.04183">
        <ele>624.7</ele>
        <time>2022-08-02T08:48:20Z</time>
      </trkpt>
      <trkpt lat="42.92699" lon="-0.04179">
        <ele>624.2</ele>
        <time>2022-08-02T08:48:25Z</time>
      </trkpt>
      <trkpt lat="42.92685" lon="-0.04179">
        <ele>622.9</ele>
        <time>2022-08-02T08:48:30Z</time>
      </trkpt>
      <trkpt lat="42.92668" lon="-0.04178">
        <ele>622.1</ele>
        <time>2022-08-02T08:48:36Z</time>
      </trkpt>
      <trkpt lat="42.92653" lon="-0.04175">
        <ele>621.4</ele>
        <time>2022-08-02T08:48:42Z</time>
      </trkpt>
      <trkpt lat="42.92636" lon="-0.04177">
        <ele>620.3</ele>
        <time>2022-08-02T08:48:48Z</time>
      </trkpt>
      <trkpt lat="42.92622" lon="-0.04183">
        <ele>620.9</ele>
        <time>2022-08-02T08:48:53Z</time>
      </trkpt>
      <trkpt lat="42.92611" lon="-0.04189">
        <ele>623</ele>
        <time>2022-08-02T08:48:58Z</time>
      </trkpt>
      <trkpt lat="42.92599" lon="-0.04204">
        <ele>624.9</ele>
        <time>2022-08-02T08:49:04Z</time>
      </trkpt>
      <trkpt lat="42.92589" lon="-0.04217">
        <ele>625.4</ele>
        <time>2022-08-02T08:49:09Z</time>
      </trkpt>
      <trkpt lat="42.92575" lon="-0.04226">
        <ele>629.4</ele>
        <time>2022-08-02T08:49:14Z</time>
      </trkpt>
      <trkpt lat="42.9256" lon="-0.04231">
        <ele>632.7</ele>
        <time>2022-08-02T08:49:20Z</time>
      </trkpt>
      <trkpt lat="42.92545" lon="-0.04229">
        <ele>633</ele>
        <time>2022-08-02T08:49:25Z</time>
      </trkpt>
      <trkpt lat="42.9253" lon="-0.04217">
        <ele>634.5</ele>
        <time>2022-08-02T08:49:31Z</time>
      </trkpt>
      <trkpt lat="42.92515" lon="-0.04203">
        <ele>635</ele>
        <time>2022-08-02T08:49:36Z</time>
      </trkpt>
      <trkpt lat="42.92498" lon="-0.04191">
        <ele>636.4</ele>
        <time>2022-08-02T08:49:42Z</time>
      </trkpt>
      <trkpt lat="42.9248" lon="-0.04174">
        <ele>639.3</ele>
        <time>2022-08-02T08:49:48Z</time>
      </trkpt>
      <trkpt lat="42.92466" lon="-0.0416">
        <ele>640.8</ele>
        <time>2022-08-02T08:49:53Z</time>
      </trkpt>
      <trkpt lat="42.92449" lon="-0.04146">
        <ele>641.1</ele>
        <time>2022-08-02T08:49:59Z</time>
      </trkpt>
      <trkpt lat="42.92437" lon="-0.04129">
        <ele>641.7</ele>
        <time>2022-08-02T08:50:04Z</time>
      </trkpt>
      <trkpt lat="42.92425" lon="-0.04111">
        <ele>644</ele>
        <time>2022-08-02T08:50:09Z</time>
      </trkpt>
      <trkpt lat="42.9241" lon="-0.04092">
        <ele>643</ele>
        <time>2022-08-02T08:50:15Z</time>
      </trkpt>
      <trkpt lat="42.9239" lon="-0.04092">
        <ele>642.9</ele>
        <time>2022-08-02T08:50:21Z</time>
      </trkpt>
      <trkpt lat="42.92375" lon="-0.04098">
        <ele>643</ele>
        <time>2022-08-02T08:50:26Z</time>
      </trkpt>
      <trkpt lat="42.92357" lon="-0.04103">
        <ele>644</ele>
        <time>2022-08-02T08:50:31Z</time>
      </trkpt>
      <trkpt lat="42.92338" lon="-0.04099">
        <ele>643.9</ele>
        <time>2022-08-02T08:50:36Z</time>
      </trkpt>
      <trkpt lat="42.92322" lon="-0.04096">
        <ele>645.7</ele>
        <time>2022-08-02T08:50:42Z</time>
      </trkpt>
      <trkpt lat="42.92304" lon="-0.0409">
        <ele>645.7</ele>
        <time>2022-08-02T08:50:47Z</time>
      </trkpt>
      <trkpt lat="42.92287" lon="-0.04084">
        <ele>645.4</ele>
        <time>2022-08-02T08:50:52Z</time>
      </trkpt>
      <trkpt lat="42.92271" lon="-0.0409">
        <ele>646</ele>
        <time>2022-08-02T08:50:57Z</time>
      </trkpt>
      <trkpt lat="42.92251" lon="-0.04096">
        <ele>645.7</ele>
        <time>2022-08-02T08:51:03Z</time>
      </trkpt>
      <trkpt lat="42.92236" lon="-0.04097">
        <ele>645.6</ele>
        <time>2022-08-02T08:51:08Z</time>
      </trkpt>
      <trkpt lat="42.9222" lon="-0.04098">
        <ele>645.5</ele>
        <time>2022-08-02T08:51:13Z</time>
      </trkpt>
      <trkpt lat="42.92202" lon="-0.04104">
        <ele>645.5</ele>
        <time>2022-08-02T08:51:19Z</time>
      </trkpt>
      <trkpt lat="42.92183" lon="-0.04111">
        <ele>646.7</ele>
        <time>2022-08-02T08:51:24Z</time>
      </trkpt>
      <trkpt lat="42.92163" lon="-0.04116">
        <ele>646.7</ele>
        <time>2022-08-02T08:51:30Z</time>
      </trkpt>
      <trkpt lat="42.92143" lon="-0.04119">
        <ele>646.5</ele>
        <time>2022-08-02T08:51:35Z</time>
      </trkpt>
      <trkpt lat="42.92123" lon="-0.04117">
        <ele>645.9</ele>
        <time>2022-08-02T08:51:40Z</time>
      </trkpt>
      <trkpt lat="42.92101" lon="-0.04112">
        <ele>645.4</ele>
        <time>2022-08-02T08:51:46Z</time>
      </trkpt>
      <trkpt lat="42.92069" lon="-0.04106">
        <ele>643.9</ele>
        <time>2022-08-02T08:51:52Z</time>
      </trkpt>
      <trkpt lat="42.92039" lon="-0.04084">
        <ele>644.4</ele>
        <time>2022-08-02T08:51:58Z</time>
      </trkpt>
      <trkpt lat="42.92007" lon="-0.04049">
        <ele>648.6</ele>
        <time>2022-08-02T08:52:04Z</time>
      </trkpt>
      <trkpt lat="42.91983" lon="-0.04036">
        <ele>648.3</ele>
        <time>2022-08-02T08:52:10Z</time>
      </trkpt>
      <trkpt lat="42.91952" lon="-0.04032">
        <ele>651.5</ele>
        <time>2022-08-02T08:52:16Z</time>
      </trkpt>
      <trkpt lat="42.91923" lon="-0.04028">
        <ele>652.1</ele>
        <time>2022-08-02T08:52:22Z</time>
      </trkpt>
      <trkpt lat="42.919" lon="-0.04036">
        <ele>652.8</ele>
        <time>2022-08-02T08:52:27Z</time>
      </trkpt>
      <trkpt lat="42.91876" lon="-0.04047">
        <ele>655.6</ele>
        <time>2022-08-02T08:52:33Z</time>
      </trkpt>
      <trkpt lat="42.91855" lon="-0.04041">
        <ele>657.5</ele>
        <time>2022-08-02T08:52:38Z</time>
      </trkpt>
      <trkpt lat="42.91833" lon="-0.04018">
        <ele>659.5</ele>
        <time>2022-08-02T08:52:44Z</time>
      </trkpt>
      <trkpt lat="42.91814" lon="-0.04006">
        <ele>659.9</ele>
        <time>2022-08-02T08:52:50Z</time>
      </trkpt>
      <trkpt lat="42.91785" lon="-0.04">
        <ele>659.9</ele>
        <time>2022-08-02T08:52:56Z</time>
      </trkpt>
      <trkpt lat="42.91766" lon="-0.04001">
        <ele>658.9</ele>
        <time>2022-08-02T08:53:01Z</time>
      </trkpt>
      <trkpt lat="42.91745" lon="-0.03993">
        <ele>660.3</ele>
        <time>2022-08-02T08:53:07Z</time>
      </trkpt>
      <trkpt lat="42.91727" lon="-0.03966">
        <ele>662.1</ele>
        <time>2022-08-02T08:53:13Z</time>
      </trkpt>
      <trkpt lat="42.91712" lon="-0.03944">
        <ele>662.7</ele>
        <time>2022-08-02T08:53:18Z</time>
      </trkpt>
      <trkpt lat="42.91697" lon="-0.03911">
        <ele>665.9</ele>
        <time>2022-08-02T08:53:24Z</time>
      </trkpt>
      <trkpt lat="42.91676" lon="-0.03881">
        <ele>668</ele>
        <time>2022-08-02T08:53:30Z</time>
      </trkpt>
      <trkpt lat="42.91655" lon="-0.03848">
        <ele>668.3</ele>
        <time>2022-08-02T08:53:36Z</time>
      </trkpt>
      <trkpt lat="42.91627" lon="-0.03824">
        <ele>665.6</ele>
        <time>2022-08-02T08:53:42Z</time>
      </trkpt>
      <trkpt lat="42.91597" lon="-0.03808">
        <ele>662.5</ele>
        <time>2022-08-02T08:53:47Z</time>
      </trkpt>
      <trkpt lat="42.91558" lon="-0.03789">
        <ele>660.8</ele>
        <time>2022-08-02T08:53:53Z</time>
      </trkpt>
      <trkpt lat="42.91518" lon="-0.03769">
        <ele>661.6</ele>
        <time>2022-08-02T08:53:59Z</time>
      </trkpt>
      <trkpt lat="42.91489" lon="-0.03752">
        <ele>659</ele>
        <time>2022-08-02T08:54:04Z</time>
      </trkpt>
      <trkpt lat="42.91459" lon="-0.03739">
        <ele>655.1</ele>
        <time>2022-08-02T08:54:09Z</time>
      </trkpt>
      <trkpt lat="42.91421" lon="-0.0372">
        <ele>654.6</ele>
        <time>2022-08-02T08:54:15Z</time>
      </trkpt>
      <trkpt lat="42.91392" lon="-0.03712">
        <ele>656.2</ele>
        <time>2022-08-02T08:54:20Z</time>
      </trkpt>
      <trkpt lat="42.91366" lon="-0.03719">
        <ele>658.1</ele>
        <time>2022-08-02T08:54:25Z</time>
      </trkpt>
      <trkpt lat="42.91342" lon="-0.03726">
        <ele>658.6</ele>
        <time>2022-08-02T08:54:30Z</time>
      </trkpt>
      <trkpt lat="42.91319" lon="-0.03727">
        <ele>659.4</ele>
        <time>2022-08-02T08:54:35Z</time>
      </trkpt>
      <trkpt lat="42.91291" lon="-0.03732">
        <ele>662</ele>
        <time>2022-08-02T08:54:41Z</time>
      </trkpt>
      <trkpt lat="42.91268" lon="-0.03745">
        <ele>665.1</ele>
        <time>2022-08-02T08:54:47Z</time>
      </trkpt>
      <trkpt lat="42.91253" lon="-0.03751">
        <ele>666.2</ele>
        <time>2022-08-02T08:54:52Z</time>
      </trkpt>
      <trkpt lat="42.91234" lon="-0.0375">
        <ele>667.1</ele>
        <time>2022-08-02T08:54:57Z</time>
      </trkpt>
      <trkpt lat="42.91217" lon="-0.03745">
        <ele>665</ele>
        <time>2022-08-02T08:55:03Z</time>
      </trkpt>
      <trkpt lat="42.91195" lon="-0.03735">
        <ele>667.3</ele>
        <time>2022-08-02T08:55:08Z</time>
      </trkpt>
      <trkpt lat="42.91172" lon="-0.03728">
        <ele>666.2</ele>
        <time>2022-08-02T08:55:14Z</time>
      </trkpt>
      <trkpt lat="42.9115" lon="-0.0372">
        <ele>667.7</ele>
        <time>2022-08-02T08:55:19Z</time>
      </trkpt>
      <trkpt lat="42.91126" lon="-0.03705">
        <ele>664.8</ele>
        <time>2022-08-02T08:55:25Z</time>
      </trkpt>
      <trkpt lat="42.91104" lon="-0.03692">
        <ele>664.9</ele>
        <time>2022-08-02T08:55:30Z</time>
      </trkpt>
      <trkpt lat="42.91079" lon="-0.03689">
        <ele>664.6</ele>
        <time>2022-08-02T08:55:35Z</time>
      </trkpt>
      <trkpt lat="42.91048" lon="-0.03686">
        <ele>665</ele>
        <time>2022-08-02T08:55:41Z</time>
      </trkpt>
      <trkpt lat="42.91019" lon="-0.03686">
        <ele>664.7</ele>
        <time>2022-08-02T08:55:47Z</time>
      </trkpt>
      <trkpt lat="42.90988" lon="-0.03681">
        <ele>662.8</ele>
        <time>2022-08-02T08:55:53Z</time>
      </trkpt>
      <trkpt lat="42.9095" lon="-0.03675">
        <ele>662.4</ele>
        <time>2022-08-02T08:55:59Z</time>
      </trkpt>
      <trkpt lat="42.90915" lon="-0.03659">
        <ele>660</ele>
        <time>2022-08-02T08:56:04Z</time>
      </trkpt>
      <trkpt lat="42.90872" lon="-0.03633">
        <ele>656.8</ele>
        <time>2022-08-02T08:56:10Z</time>
      </trkpt>
      <trkpt lat="42.90836" lon="-0.03596">
        <ele>655.5</ele>
        <time>2022-08-02T08:56:16Z</time>
      </trkpt>
      <trkpt lat="42.90806" lon="-0.03572">
        <ele>654.4</ele>
        <time>2022-08-02T08:56:21Z</time>
      </trkpt>
      <trkpt lat="42.9077" lon="-0.03546">
        <ele>655.5</ele>
        <time>2022-08-02T08:56:27Z</time>
      </trkpt>
      <trkpt lat="42.90745" lon="-0.03523">
        <ele>654.4</ele>
        <time>2022-08-02T08:56:32Z</time>
      </trkpt>
      <trkpt lat="42.90718" lon="-0.03507">
        <ele>652.7</ele>
        <time>2022-08-02T08:56:37Z</time>
      </trkpt>
      <trkpt lat="42.90686" lon="-0.03497">
        <ele>650.9</ele>
        <time>2022-08-02T08:56:42Z</time>
      </trkpt>
      <trkpt lat="42.90648" lon="-0.03465">
        <ele>648.6</ele>
        <time>2022-08-02T08:56:48Z</time>
      </trkpt>
      <trkpt lat="42.90613" lon="-0.03473">
        <ele>646.6</ele>
        <time>2022-08-02T08:56:53Z</time>
      </trkpt>
      <trkpt lat="42.90584" lon="-0.03458">
        <ele>645.1</ele>
        <time>2022-08-02T08:56:58Z</time>
      </trkpt>
      <trkpt lat="42.90574" lon="-0.03424">
        <ele>646.6</ele>
        <time>2022-08-02T08:57:03Z</time>
      </trkpt>
      <trkpt lat="42.90564" lon="-0.03397">
        <ele>646.9</ele>
        <time>2022-08-02T08:57:08Z</time>
      </trkpt>
      <trkpt lat="42.90551" lon="-0.03372">
        <ele>648.8</ele>
        <time>2022-08-02T08:57:14Z</time>
      </trkpt>
      <trkpt lat="42.90538" lon="-0.03351">
        <ele>649.7</ele>
        <time>2022-08-02T08:57:19Z</time>
      </trkpt>
      <trkpt lat="42.9052" lon="-0.03332">
        <ele>644.2</ele>
        <time>2022-08-02T08:57:25Z</time>
      </trkpt>
      <trkpt lat="42.90501" lon="-0.03309">
        <ele>641.1</ele>
        <time>2022-08-02T08:57:31Z</time>
      </trkpt>
      <trkpt lat="42.90483" lon="-0.03285">
        <ele>639.9</ele>
        <time>2022-08-02T08:57:37Z</time>
      </trkpt>
      <trkpt lat="42.90471" lon="-0.03256">
        <ele>640.3</ele>
        <time>2022-08-02T08:57:43Z</time>
      </trkpt>
      <trkpt lat="42.9046" lon="-0.03233">
        <ele>638</ele>
        <time>2022-08-02T08:57:48Z</time>
      </trkpt>
      <trkpt lat="42.90445" lon="-0.0321">
        <ele>637.4</ele>
        <time>2022-08-02T08:57:53Z</time>
      </trkpt>
      <trkpt lat="42.9043" lon="-0.03187">
        <ele>634.4</ele>
        <time>2022-08-02T08:57:58Z</time>
      </trkpt>
      <trkpt lat="42.90412" lon="-0.03164">
        <ele>635.6</ele>
        <time>2022-08-02T08:58:04Z</time>
      </trkpt>
      <trkpt lat="42.90396" lon="-0.03149">
        <ele>639.5</ele>
        <time>2022-08-02T08:58:09Z</time>
      </trkpt>
      <trkpt lat="42.90377" lon="-0.03145">
        <ele>646.8</ele>
        <time>2022-08-02T08:58:14Z</time>
      </trkpt>
      <trkpt lat="42.90355" lon="-0.03153">
        <ele>653.8</ele>
        <time>2022-08-02T08:58:20Z</time>
      </trkpt>
      <trkpt lat="42.90329" lon="-0.03158">
        <ele>656.9</ele>
        <time>2022-08-02T08:58:26Z</time>
      </trkpt>
      <trkpt lat="42.90307" lon="-0.03143">
        <ele>657.8</ele>
        <time>2022-08-02T08:58:31Z</time>
      </trkpt>
      <trkpt lat="42.90283" lon="-0.03128">
        <ele>656.9</ele>
        <time>2022-08-02T08:58:37Z</time>
      </trkpt>
      <trkpt lat="42.90259" lon="-0.03113">
        <ele>657.7</ele>
        <time>2022-08-02T08:58:43Z</time>
      </trkpt>
      <trkpt lat="42.90234" lon="-0.03095">
        <ele>658.1</ele>
        <time>2022-08-02T08:58:49Z</time>
      </trkpt>
      <trkpt lat="42.90213" lon="-0.03079">
        <ele>657.8</ele>
        <time>2022-08-02T08:58:54Z</time>
      </trkpt>
      <trkpt lat="42.90188" lon="-0.03062">
        <ele>659.6</ele>
        <time>2022-08-02T08:59:00Z</time>
      </trkpt>
      <trkpt lat="42.90169" lon="-0.03049">
        <ele>658.1</ele>
        <time>2022-08-02T08:59:05Z</time>
      </trkpt>
      <trkpt lat="42.9015" lon="-0.03035">
        <ele>659.8</ele>
        <time>2022-08-02T08:59:10Z</time>
      </trkpt>
      <trkpt lat="42.9013" lon="-0.03018">
        <ele>661</ele>
        <time>2022-08-02T08:59:15Z</time>
      </trkpt>
      <trkpt lat="42.90109" lon="-0.03004">
        <ele>660.9</ele>
        <time>2022-08-02T08:59:21Z</time>
      </trkpt>
      <trkpt lat="42.901" lon="-0.02998">
        <ele>662.8</ele>
        <time>2022-08-02T08:59:27Z</time>
      </trkpt>
      <trkpt lat="42.90074" lon="-0.02977">
        <ele>664.3</ele>
        <time>2022-08-02T08:59:32Z</time>
      </trkpt>
      <trkpt lat="42.90056" lon="-0.02964">
        <ele>665.8</ele>
        <time>2022-08-02T08:59:38Z</time>
      </trkpt>
      <trkpt lat="42.90024" lon="-0.02942">
        <ele>666.8</ele>
        <time>2022-08-02T08:59:44Z</time>
      </trkpt>
      <trkpt lat="42.90005" lon="-0.02929">
        <ele>667.6</ele>
        <time>2022-08-02T08:59:49Z</time>
      </trkpt>
      <trkpt lat="42.89987" lon="-0.02916">
        <ele>668</ele>
        <time>2022-08-02T08:59:54Z</time>
      </trkpt>
      <trkpt lat="42.89966" lon="-0.02902">
        <ele>669.7</ele>
        <time>2022-08-02T09:00:00Z</time>
      </trkpt>
      <trkpt lat="42.89947" lon="-0.0289">
        <ele>670.2</ele>
        <time>2022-08-02T09:00:05Z</time>
      </trkpt>
      <trkpt lat="42.89927" lon="-0.02873">
        <ele>670.7</ele>
        <time>2022-08-02T09:00:10Z</time>
      </trkpt>
      <trkpt lat="42.89901" lon="-0.0285">
        <ele>669.8</ele>
        <time>2022-08-02T09:00:16Z</time>
      </trkpt>
      <trkpt lat="42.89877" lon="-0.02836">
        <ele>669.1</ele>
        <time>2022-08-02T09:00:21Z</time>
      </trkpt>
      <trkpt lat="42.89851" lon="-0.02822">
        <ele>669.2</ele>
        <time>2022-08-02T09:00:26Z</time>
      </trkpt>
      <trkpt lat="42.8982" lon="-0.02806">
        <ele>668.6</ele>
        <time>2022-08-02T09:00:32Z</time>
      </trkpt>
      <trkpt lat="42.89795" lon="-0.02792">
        <ele>668.3</ele>
        <time>2022-08-02T09:00:37Z</time>
      </trkpt>
      <trkpt lat="42.89769" lon="-0.02776">
        <ele>669.6</ele>
        <time>2022-08-02T09:00:42Z</time>
      </trkpt>
      <trkpt lat="42.89739" lon="-0.02756">
        <ele>671.1</ele>
        <time>2022-08-02T09:00:48Z</time>
      </trkpt>
      <trkpt lat="42.89717" lon="-0.0274">
        <ele>672.2</ele>
        <time>2022-08-02T09:00:53Z</time>
      </trkpt>
      <trkpt lat="42.8969" lon="-0.02723">
        <ele>672.1</ele>
        <time>2022-08-02T09:00:59Z</time>
      </trkpt>
      <trkpt lat="42.89668" lon="-0.0271">
        <ele>672.6</ele>
        <time>2022-08-02T09:01:04Z</time>
      </trkpt>
      <trkpt lat="42.89646" lon="-0.02697">
        <ele>674.1</ele>
        <time>2022-08-02T09:01:09Z</time>
      </trkpt>
      <trkpt lat="42.89624" lon="-0.02684">
        <ele>674.5</ele>
        <time>2022-08-02T09:01:14Z</time>
      </trkpt>
      <trkpt lat="42.89599" lon="-0.02668">
        <ele>675.6</ele>
        <time>2022-08-02T09:01:20Z</time>
      </trkpt>
      <trkpt lat="42.89576" lon="-0.02655">
        <ele>676.1</ele>
        <time>2022-08-02T09:01:25Z</time>
      </trkpt>
      <trkpt lat="42.8955" lon="-0.02637">
        <ele>677.4</ele>
        <time>2022-08-02T09:01:31Z</time>
      </trkpt>
      <trkpt lat="42.89525" lon="-0.02622">
        <ele>678.5</ele>
        <time>2022-08-02T09:01:37Z</time>
      </trkpt>
      <trkpt lat="42.895" lon="-0.02606">
        <ele>678.7</ele>
        <time>2022-08-02T09:01:43Z</time>
      </trkpt>
      <trkpt lat="42.8948" lon="-0.02595">
        <ele>680.3</ele>
        <time>2022-08-02T09:01:48Z</time>
      </trkpt>
      <trkpt lat="42.89454" lon="-0.02578">
        <ele>679.7</ele>
        <time>2022-08-02T09:01:54Z</time>
      </trkpt>
      <trkpt lat="42.89426" lon="-0.02561">
        <ele>679.9</ele>
        <time>2022-08-02T09:02:00Z</time>
      </trkpt>
      <trkpt lat="42.89403" lon="-0.02547">
        <ele>680.4</ele>
        <time>2022-08-02T09:02:05Z</time>
      </trkpt>
      <trkpt lat="42.8938" lon="-0.02534">
        <ele>681.8</ele>
        <time>2022-08-02T09:02:10Z</time>
      </trkpt>
      <trkpt lat="42.89355" lon="-0.02518">
        <ele>681.9</ele>
        <time>2022-08-02T09:02:16Z</time>
      </trkpt>
      <trkpt lat="42.89332" lon="-0.02505">
        <ele>681.5</ele>
        <time>2022-08-02T09:02:21Z</time>
      </trkpt>
      <trkpt lat="42.89307" lon="-0.02489">
        <ele>682.4</ele>
        <time>2022-08-02T09:02:27Z</time>
      </trkpt>
      <trkpt lat="42.89285" lon="-0.02476">
        <ele>682.8</ele>
        <time>2022-08-02T09:02:32Z</time>
      </trkpt>
      <trkpt lat="42.89265" lon="-0.02465">
        <ele>681.4</ele>
        <time>2022-08-02T09:02:37Z</time>
      </trkpt>
      <trkpt lat="42.89243" lon="-0.02451">
        <ele>682.2</ele>
        <time>2022-08-02T09:02:42Z</time>
      </trkpt>
      <trkpt lat="42.89216" lon="-0.02436">
        <ele>682.4</ele>
        <time>2022-08-02T09:02:48Z</time>
      </trkpt>
      <trkpt lat="42.8919" lon="-0.02418">
        <ele>684.5</ele>
        <time>2022-08-02T09:02:54Z</time>
      </trkpt>
      <trkpt lat="42.89164" lon="-0.02402">
        <ele>684.2</ele>
        <time>2022-08-02T09:03:00Z</time>
      </trkpt>
      <trkpt lat="42.89137" lon="-0.02388">
        <ele>685.4</ele>
        <time>2022-08-02T09:03:06Z</time>
      </trkpt>
      <trkpt lat="42.89117" lon="-0.02373">
        <ele>685.2</ele>
        <time>2022-08-02T09:03:11Z</time>
      </trkpt>
      <trkpt lat="42.89099" lon="-0.02349">
        <ele>685.1</ele>
        <time>2022-08-02T09:03:16Z</time>
      </trkpt>
      <trkpt lat="42.89081" lon="-0.02317">
        <ele>686.8</ele>
        <time>2022-08-02T09:03:22Z</time>
      </trkpt>
      <trkpt lat="42.89064" lon="-0.02285">
        <ele>686.3</ele>
        <time>2022-08-02T09:03:28Z</time>
      </trkpt>
      <trkpt lat="42.89049" lon="-0.02252">
        <ele>686.6</ele>
        <time>2022-08-02T09:03:34Z</time>
      </trkpt>
      <trkpt lat="42.89034" lon="-0.02223">
        <ele>686.1</ele>
        <time>2022-08-02T09:03:39Z</time>
      </trkpt>
      <trkpt lat="42.89019" lon="-0.02194">
        <ele>684.5</ele>
        <time>2022-08-02T09:03:44Z</time>
      </trkpt>
      <trkpt lat="42.88996" lon="-0.02159">
        <ele>680.1</ele>
        <time>2022-08-02T09:03:50Z</time>
      </trkpt>
      <trkpt lat="42.88978" lon="-0.02133">
        <ele>681.2</ele>
        <time>2022-08-02T09:03:55Z</time>
      </trkpt>
      <trkpt lat="42.88954" lon="-0.02105">
        <ele>681.7</ele>
        <time>2022-08-02T09:04:01Z</time>
      </trkpt>
      <trkpt lat="42.88928" lon="-0.02082">
        <ele>681.4</ele>
        <time>2022-08-02T09:04:07Z</time>
      </trkpt>
      <trkpt lat="42.88907" lon="-0.02061">
        <ele>679.4</ele>
        <time>2022-08-02T09:04:12Z</time>
      </trkpt>
      <trkpt lat="42.88888" lon="-0.02031">
        <ele>684.7</ele>
        <time>2022-08-02T09:04:18Z</time>
      </trkpt>
      <trkpt lat="42.88876" lon="-0.02001">
        <ele>691</ele>
        <time>2022-08-02T09:04:23Z</time>
      </trkpt>
      <trkpt lat="42.8886" lon="-0.01964">
        <ele>694.7</ele>
        <time>2022-08-02T09:04:29Z</time>
      </trkpt>
      <trkpt lat="42.88846" lon="-0.01932">
        <ele>696.8</ele>
        <time>2022-08-02T09:04:34Z</time>
      </trkpt>
      <trkpt lat="42.8882" lon="-0.01899">
        <ele>695.5</ele>
        <time>2022-08-02T09:04:40Z</time>
      </trkpt>
      <trkpt lat="42.88793" lon="-0.01873">
        <ele>696.6</ele>
        <time>2022-08-02T09:04:46Z</time>
      </trkpt>
      <trkpt lat="42.88768" lon="-0.0185">
        <ele>696.8</ele>
        <time>2022-08-02T09:04:52Z</time>
      </trkpt>
      <trkpt lat="42.88746" lon="-0.0183">
        <ele>696.9</ele>
        <time>2022-08-02T09:04:57Z</time>
      </trkpt>
      <trkpt lat="42.88719" lon="-0.01807">
        <ele>696.2</ele>
        <time>2022-08-02T09:05:03Z</time>
      </trkpt>
      <trkpt lat="42.88693" lon="-0.01784">
        <ele>695.7</ele>
        <time>2022-08-02T09:05:09Z</time>
      </trkpt>
      <trkpt lat="42.88672" lon="-0.01763">
        <ele>697.3</ele>
        <time>2022-08-02T09:05:14Z</time>
      </trkpt>
      <trkpt lat="42.88647" lon="-0.01742">
        <ele>697.5</ele>
        <time>2022-08-02T09:05:20Z</time>
      </trkpt>
      <trkpt lat="42.88624" lon="-0.01724">
        <ele>699.1</ele>
        <time>2022-08-02T09:05:26Z</time>
      </trkpt>
      <trkpt lat="42.88605" lon="-0.01707">
        <ele>699.8</ele>
        <time>2022-08-02T09:05:31Z</time>
      </trkpt>
      <trkpt lat="42.88596" lon="-0.01699">
        <ele>699</ele>
        <time>2022-08-02T09:05:36Z</time>
      </trkpt>
      <trkpt lat="42.88573" lon="-0.01679">
        <ele>699.9</ele>
        <time>2022-08-02T09:05:42Z</time>
      </trkpt>
      <trkpt lat="42.88551" lon="-0.01654">
        <ele>698.9</ele>
        <time>2022-08-02T09:05:47Z</time>
      </trkpt>
      <trkpt lat="42.88539" lon="-0.01619">
        <ele>699.2</ele>
        <time>2022-08-02T09:05:53Z</time>
      </trkpt>
      <trkpt lat="42.88534" lon="-0.01579">
        <ele>698.3</ele>
        <time>2022-08-02T09:05:59Z</time>
      </trkpt>
      <trkpt lat="42.88519" lon="-0.01548">
        <ele>698.6</ele>
        <time>2022-08-02T09:06:04Z</time>
      </trkpt>
      <trkpt lat="42.88496" lon="-0.0153">
        <ele>699.1</ele>
        <time>2022-08-02T09:06:09Z</time>
      </trkpt>
      <trkpt lat="42.88469" lon="-0.01509">
        <ele>700.5</ele>
        <time>2022-08-02T09:06:15Z</time>
      </trkpt>
      <trkpt lat="42.88442" lon="-0.01489">
        <ele>701.3</ele>
        <time>2022-08-02T09:06:21Z</time>
      </trkpt>
      <trkpt lat="42.8842" lon="-0.01472">
        <ele>702.7</ele>
        <time>2022-08-02T09:06:26Z</time>
      </trkpt>
      <trkpt lat="42.88393" lon="-0.01452">
        <ele>704.5</ele>
        <time>2022-08-02T09:06:32Z</time>
      </trkpt>
      <trkpt lat="42.88369" lon="-0.01433">
        <ele>705.7</ele>
        <time>2022-08-02T09:06:38Z</time>
      </trkpt>
      <trkpt lat="42.88349" lon="-0.01418">
        <ele>705.5</ele>
        <time>2022-08-02T09:06:44Z</time>
      </trkpt>
      <trkpt lat="42.88331" lon="-0.01408">
        <ele>706.7</ele>
        <time>2022-08-02T09:06:49Z</time>
      </trkpt>
      <trkpt lat="42.88308" lon="-0.01391">
        <ele>706.7</ele>
        <time>2022-08-02T09:06:55Z</time>
      </trkpt>
      <trkpt lat="42.88289" lon="-0.01376">
        <ele>705.2</ele>
        <time>2022-08-02T09:07:01Z</time>
      </trkpt>
      <trkpt lat="42.88272" lon="-0.01361">
        <ele>704.5</ele>
        <time>2022-08-02T09:07:06Z</time>
      </trkpt>
      <trkpt lat="42.88251" lon="-0.01343">
        <ele>707</ele>
        <time>2022-08-02T09:07:12Z</time>
      </trkpt>
      <trkpt lat="42.88235" lon="-0.01331">
        <ele>708.2</ele>
        <time>2022-08-02T09:07:17Z</time>
      </trkpt>
      <trkpt lat="42.88217" lon="-0.01318">
        <ele>707.8</ele>
        <time>2022-08-02T09:07:23Z</time>
      </trkpt>
      <trkpt lat="42.88202" lon="-0.01306">
        <ele>707</ele>
        <time>2022-08-02T09:07:28Z</time>
      </trkpt>
      <trkpt lat="42.88187" lon="-0.01296">
        <ele>707.1</ele>
        <time>2022-08-02T09:07:33Z</time>
      </trkpt>
      <trkpt lat="42.88169" lon="-0.01282">
        <ele>708.7</ele>
        <time>2022-08-02T09:07:39Z</time>
      </trkpt>
      <trkpt lat="42.88153" lon="-0.0127">
        <ele>709.1</ele>
        <time>2022-08-02T09:07:44Z</time>
      </trkpt>
      <trkpt lat="42.88135" lon="-0.01259">
        <ele>710.9</ele>
        <time>2022-08-02T09:07:50Z</time>
      </trkpt>
      <trkpt lat="42.8812" lon="-0.01247">
        <ele>711.3</ele>
        <time>2022-08-02T09:07:55Z</time>
      </trkpt>
      <trkpt lat="42.88103" lon="-0.01235">
        <ele>709.2</ele>
        <time>2022-08-02T09:08:01Z</time>
      </trkpt>
      <trkpt lat="42.88088" lon="-0.01224">
        <ele>708.7</ele>
        <time>2022-08-02T09:08:07Z</time>
      </trkpt>
      <trkpt lat="42.88073" lon="-0.01214">
        <ele>707.5</ele>
        <time>2022-08-02T09:08:12Z</time>
      </trkpt>
      <trkpt lat="42.88059" lon="-0.01201">
        <ele>710.8</ele>
        <time>2022-08-02T09:08:17Z</time>
      </trkpt>
      <trkpt lat="42.88041" lon="-0.01185">
        <ele>712</ele>
        <time>2022-08-02T09:08:23Z</time>
      </trkpt>
      <trkpt lat="42.88029" lon="-0.01174">
        <ele>713.9</ele>
        <time>2022-08-02T09:08:28Z</time>
      </trkpt>
      <trkpt lat="42.88014" lon="-0.01158">
        <ele>715.5</ele>
        <time>2022-08-02T09:08:34Z</time>
      </trkpt>
      <trkpt lat="42.88004" lon="-0.01141">
        <ele>717.1</ele>
        <time>2022-08-02T09:08:39Z</time>
      </trkpt>
      <trkpt lat="42.87992" lon="-0.01123">
        <ele>720.8</ele>
        <time>2022-08-02T09:08:44Z</time>
      </trkpt>
      <trkpt lat="42.87978" lon="-0.01102">
        <ele>722.9</ele>
        <time>2022-08-02T09:08:50Z</time>
      </trkpt>
      <trkpt lat="42.87966" lon="-0.01084">
        <ele>725.4</ele>
        <time>2022-08-02T09:08:56Z</time>
      </trkpt>
      <trkpt lat="42.87951" lon="-0.01064">
        <ele>726.7</ele>
        <time>2022-08-02T09:09:02Z</time>
      </trkpt>
      <trkpt lat="42.8794" lon="-0.01048">
        <ele>726.9</ele>
        <time>2022-08-02T09:09:07Z</time>
      </trkpt>
      <trkpt lat="42.87926" lon="-0.01028">
        <ele>728.5</ele>
        <time>2022-08-02T09:09:13Z</time>
      </trkpt>
      <trkpt lat="42.87913" lon="-0.01008">
        <ele>732.1</ele>
        <time>2022-08-02T09:09:19Z</time>
      </trkpt>
      <trkpt lat="42.879" lon="-0.00991">
        <ele>732.1</ele>
        <time>2022-08-02T09:09:25Z</time>
      </trkpt>
      <trkpt lat="42.87887" lon="-0.00972">
        <ele>731.5</ele>
        <time>2022-08-02T09:09:31Z</time>
      </trkpt>
      <trkpt lat="42.87875" lon="-0.00956">
        <ele>732.4</ele>
        <time>2022-08-02T09:09:36Z</time>
      </trkpt>
      <trkpt lat="42.87865" lon="-0.0094">
        <ele>732.8</ele>
        <time>2022-08-02T09:09:41Z</time>
      </trkpt>
      <trkpt lat="42.8785" lon="-0.0092">
        <ele>733.7</ele>
        <time>2022-08-02T09:09:47Z</time>
      </trkpt>
      <trkpt lat="42.87837" lon="-0.00904">
        <ele>735</ele>
        <time>2022-08-02T09:09:52Z</time>
      </trkpt>
      <trkpt lat="42.87822" lon="-0.00884">
        <ele>735.8</ele>
        <time>2022-08-02T09:09:58Z</time>
      </trkpt>
      <trkpt lat="42.87808" lon="-0.00864">
        <ele>735.5</ele>
        <time>2022-08-02T09:10:04Z</time>
      </trkpt>
      <trkpt lat="42.87799" lon="-0.00848">
        <ele>736.5</ele>
        <time>2022-08-02T09:10:09Z</time>
      </trkpt>
      <trkpt lat="42.87785" lon="-0.00826">
        <ele>736.1</ele>
        <time>2022-08-02T09:10:15Z</time>
      </trkpt>
      <trkpt lat="42.87772" lon="-0.00807">
        <ele>736.8</ele>
        <time>2022-08-02T09:10:20Z</time>
      </trkpt>
      <trkpt lat="42.8776" lon="-0.00793">
        <ele>736.4</ele>
        <time>2022-08-02T09:10:26Z</time>
      </trkpt>
      <trkpt lat="42.87759" lon="-0.00794">
        <ele>738</ele>
        <time>2022-08-02T09:10:32Z</time>
      </trkpt>
      <trkpt lat="42.87759" lon="-0.00795">
        <ele>739.6</ele>
        <time>2022-08-02T09:10:38Z</time>
      </trkpt>
      <trkpt lat="42.8776" lon="-0.00795">
        <ele>739.8</ele>
        <time>2022-08-02T09:10:44Z</time>
      </trkpt>
      <trkpt lat="42.8776" lon="-0.00795">
        <ele>739.8</ele>
        <time>2022-08-02T09:10:49Z</time>
      </trkpt>
      <trkpt lat="42.8776" lon="-0.00795">
        <ele>739.9</ele>
        <time>2022-08-02T09:10:54Z</time>
      </trkpt>
      <trkpt lat="42.87756" lon="-0.0079">
        <ele>740.4</ele>
        <time>2022-08-02T09:11:00Z</time>
      </trkpt>
      <trkpt lat="42.87751" lon="-0.00778">
        <ele>741.1</ele>
        <time>2022-08-02T09:11:05Z</time>
      </trkpt>
      <trkpt lat="42.87737" lon="-0.00755">
        <ele>743.8</ele>
        <time>2022-08-02T09:11:11Z</time>
      </trkpt>
      <trkpt lat="42.87724" lon="-0.00737">
        <ele>744.2</ele>
        <time>2022-08-02T09:11:16Z</time>
      </trkpt>
      <trkpt lat="42.87712" lon="-0.00721">
        <ele>743.8</ele>
        <time>2022-08-02T09:11:21Z</time>
      </trkpt>
      <trkpt lat="42.87696" lon="-0.007">
        <ele>744.4</ele>
        <time>2022-08-02T09:11:27Z</time>
      </trkpt>
      <trkpt lat="42.87683" lon="-0.00683">
        <ele>742.8</ele>
        <time>2022-08-02T09:11:32Z</time>
      </trkpt>
      <trkpt lat="42.8767" lon="-0.00664">
        <ele>745</ele>
        <time>2022-08-02T09:11:38Z</time>
      </trkpt>
      <trkpt lat="42.87656" lon="-0.00643">
        <ele>743.7</ele>
        <time>2022-08-02T09:11:44Z</time>
      </trkpt>
      <trkpt lat="42.87644" lon="-0.00625">
        <ele>744.7</ele>
        <time>2022-08-02T09:11:49Z</time>
      </trkpt>
      <trkpt lat="42.87632" lon="-0.0061">
        <ele>745.1</ele>
        <time>2022-08-02T09:11:54Z</time>
      </trkpt>
      <trkpt lat="42.87617" lon="-0.00589">
        <ele>747</ele>
        <time>2022-08-02T09:12:00Z</time>
      </trkpt>
      <trkpt lat="42.87606" lon="-0.00573">
        <ele>747.7</ele>
        <time>2022-08-02T09:12:05Z</time>
      </trkpt>
      <trkpt lat="42.87592" lon="-0.00552">
        <ele>748.3</ele>
        <time>2022-08-02T09:12:11Z</time>
      </trkpt>
      <trkpt lat="42.87582" lon="-0.00534">
        <ele>749.3</ele>
        <time>2022-08-02T09:12:16Z</time>
      </trkpt>
      <trkpt lat="42.87571" lon="-0.00516">
        <ele>750.5</ele>
        <time>2022-08-02T09:12:21Z</time>
      </trkpt>
      <trkpt lat="42.87557" lon="-0.00497">
        <ele>753.7</ele>
        <time>2022-08-02T09:12:28Z</time>
      </trkpt>
      <trkpt lat="42.87544" lon="-0.00477">
        <ele>753.7</ele>
        <time>2022-08-02T09:12:34Z</time>
      </trkpt>
      <trkpt lat="42.87533" lon="-0.00461">
        <ele>756.5</ele>
        <time>2022-08-02T09:12:39Z</time>
      </trkpt>
      <trkpt lat="42.87522" lon="-0.00445">
        <ele>756.2</ele>
        <time>2022-08-02T09:12:44Z</time>
      </trkpt>
      <trkpt lat="42.87511" lon="-0.00428">
        <ele>757.6</ele>
        <time>2022-08-02T09:12:49Z</time>
      </trkpt>
      <trkpt lat="42.87498" lon="-0.0041">
        <ele>759.6</ele>
        <time>2022-08-02T09:12:55Z</time>
      </trkpt>
      <trkpt lat="42.87487" lon="-0.00394">
        <ele>760.5</ele>
        <time>2022-08-02T09:13:01Z</time>
      </trkpt>
      <trkpt lat="42.87478" lon="-0.00379">
        <ele>760.7</ele>
        <time>2022-08-02T09:13:06Z</time>
      </trkpt>
      <trkpt lat="42.87469" lon="-0.00365">
        <ele>761.7</ele>
        <time>2022-08-02T09:13:11Z</time>
      </trkpt>
      <trkpt lat="42.8746" lon="-0.0035">
        <ele>762.6</ele>
        <time>2022-08-02T09:13:16Z</time>
      </trkpt>
      <trkpt lat="42.87452" lon="-0.00338">
        <ele>763.3</ele>
        <time>2022-08-02T09:13:21Z</time>
      </trkpt>
      <trkpt lat="42.87443" lon="-0.00324">
        <ele>764.8</ele>
        <time>2022-08-02T09:13:27Z</time>
      </trkpt>
      <trkpt lat="42.87438" lon="-0.00325">
        <ele>766.3</ele>
        <time>2022-08-02T09:13:33Z</time>
      </trkpt>
      <trkpt lat="42.87438" lon="-0.00325">
        <ele>767.5</ele>
        <time>2022-08-02T09:13:38Z</time>
      </trkpt>
      <trkpt lat="42.87433" lon="-0.00324">
        <ele>762.9</ele>
        <time>2022-08-02T09:13:43Z</time>
      </trkpt>
      <trkpt lat="42.87424" lon="-0.00322">
        <ele>761.3</ele>
        <time>2022-08-02T09:13:48Z</time>
      </trkpt>
      <trkpt lat="42.87412" lon="-0.00323">
        <ele>764.5</ele>
        <time>2022-08-02T09:13:54Z</time>
      </trkpt>
      <trkpt lat="42.87397" lon="-0.00322">
        <ele>765.9</ele>
        <time>2022-08-02T09:14:00Z</time>
      </trkpt>
      <trkpt lat="42.87386" lon="-0.00323">
        <ele>765.2</ele>
        <time>2022-08-02T09:14:05Z</time>
      </trkpt>
      <trkpt lat="42.87372" lon="-0.00325">
        <ele>769.9</ele>
        <time>2022-08-02T09:14:11Z</time>
      </trkpt>
      <trkpt lat="42.8736" lon="-0.00334">
        <ele>768.8</ele>
        <time>2022-08-02T09:14:17Z</time>
      </trkpt>
      <trkpt lat="42.8736" lon="-0.00336">
        <ele>769.5</ele>
        <time>2022-08-02T09:14:23Z</time>
      </trkpt>
      <trkpt lat="42.8736" lon="-0.00336">
        <ele>769.6</ele>
        <time>2022-08-02T09:14:28Z</time>
      </trkpt>
      <trkpt lat="42.8736" lon="-0.00336">
        <ele>769.5</ele>
        <time>2022-08-02T09:14:34Z</time>
      </trkpt>
      <trkpt lat="42.8736" lon="-0.00336">
        <ele>770.5</ele>
        <time>2022-08-02T09:14:39Z</time>
      </trkpt>
      <trkpt lat="42.8736" lon="-0.00335">
        <ele>772.1</ele>
        <time>2022-08-02T09:14:44Z</time>
      </trkpt>
      <trkpt lat="42.87358" lon="-0.00335">
        <ele>771.6</ele>
        <time>2022-08-02T09:14:50Z</time>
      </trkpt>
      <trkpt lat="42.87357" lon="-0.00334">
        <ele>771.7</ele>
        <time>2022-08-02T09:14:56Z</time>
      </trkpt>
      <trkpt lat="42.87357" lon="-0.00334">
        <ele>771.7</ele>
        <time>2022-08-02T09:15:02Z</time>
      </trkpt>
      <trkpt lat="42.87357" lon="-0.00334">
        <ele>771.7</ele>
        <time>2022-08-02T09:15:07Z</time>
      </trkpt>
      <trkpt lat="42.87357" lon="-0.00334">
        <ele>771.7</ele>
        <time>2022-08-02T09:15:13Z</time>
      </trkpt>
      <trkpt lat="42.87357" lon="-0.00334">
        <ele>771.7</ele>
        <time>2022-08-02T09:15:19Z</time>
      </trkpt>
      <trkpt lat="42.87357" lon="-0.00334">
        <ele>771.7</ele>
        <time>2022-08-02T09:15:25Z</time>
      </trkpt>
      <trkpt lat="42.87357" lon="-0.00334">
        <ele>771.7</ele>
        <time>2022-08-02T09:15:30Z</time>
      </trkpt>
      <trkpt lat="42.87357" lon="-0.00334">
        <ele>771.8</ele>
        <time>2022-08-02T09:15:36Z</time>
      </trkpt>
      <trkpt lat="42.87357" lon="-0.00334">
        <ele>771.8</ele>
        <time>2022-08-02T09:15:41Z</time>
      </trkpt>
      <trkpt lat="42.87357" lon="-0.00334">
        <ele>771.8</ele>
        <time>2022-08-02T09:15:46Z</time>
      </trkpt>
      <trkpt lat="42.87357" lon="-0.00334">
        <ele>771.8</ele>
        <time>2022-08-02T09:15:52Z</time>
      </trkpt>
      <trkpt lat="42.87357" lon="-0.00334">
        <ele>771.8</ele>
        <time>2022-08-02T09:15:58Z</time>
      </trkpt>
      <trkpt lat="42.87357" lon="-0.00334">
        <ele>771.8</ele>
        <time>2022-08-02T09:16:04Z</time>
      </trkpt>
      <trkpt lat="42.87357" lon="-0.00334">
        <ele>771.8</ele>
        <time>2022-08-02T09:16:09Z</time>
      </trkpt>
      <trkpt lat="42.87357" lon="-0.00334">
        <ele>771.8</ele>
        <time>2022-08-02T09:16:14Z</time>
      </trkpt>
      <trkpt lat="42.87357" lon="-0.00334">
        <ele>771.8</ele>
        <time>2022-08-02T09:16:20Z</time>
      </trkpt>
      <trkpt lat="42.87357" lon="-0.00334">
        <ele>771.8</ele>
        <time>2022-08-02T09:16:25Z</time>
      </trkpt>
      <trkpt lat="42.87357" lon="-0.00334">
        <ele>771.8</ele>
        <time>2022-08-02T09:16:31Z</time>
      </trkpt>
      <trkpt lat="42.87357" lon="-0.00334">
        <ele>771.8</ele>
        <time>2022-08-02T09:16:36Z</time>
      </trkpt>
      <trkpt lat="42.87357" lon="-0.00334">
        <ele>771.8</ele>
        <time>2022-08-02T09:16:42Z</time>
      </trkpt>
      <trkpt lat="42.87357" lon="-0.00334">
        <ele>771.8</ele>
        <time>2022-08-02T09:16:48Z</time>
      </trkpt>
      <trkpt lat="42.87357" lon="-0.00334">
        <ele>771.8</ele>
        <time>2022-08-02T09:16:54Z</time>
      </trkpt>
      <trkpt lat="42.87357" lon="-0.00334">
        <ele>771.9</ele>
        <time>2022-08-02T09:17:00Z</time>
      </trkpt>
      <trkpt lat="42.87357" lon="-0.00334">
        <ele>771.9</ele>
        <time>2022-08-02T09:17:05Z</time>
      </trkpt>
      <trkpt lat="42.87357" lon="-0.00334">
        <ele>771.9</ele>
        <time>2022-08-02T09:17:10Z</time>
      </trkpt>
      <trkpt lat="42.87357" lon="-0.00334">
        <ele>771.9</ele>
        <time>2022-08-02T09:17:16Z</time>
      </trkpt>
      <trkpt lat="42.87357" lon="-0.00334">
        <ele>771.9</ele>
        <time>2022-08-02T09:17:21Z</time>
      </trkpt>
      <trkpt lat="42.87357" lon="-0.00334">
        <ele>771.9</ele>
        <time>2022-08-02T09:17:27Z</time>
      </trkpt>
      <trkpt lat="42.87357" lon="-0.00334">
        <ele>771.9</ele>
        <time>2022-08-02T09:17:33Z</time>
      </trkpt>
      <trkpt lat="42.87357" lon="-0.00334">
        <ele>771.8</ele>
        <time>2022-08-02T09:17:39Z</time>
      </trkpt>
      <trkpt lat="42.87357" lon="-0.00334">
        <ele>771.8</ele>
        <time>2022-08-02T09:17:45Z</time>
      </trkpt>
      <trkpt lat="42.87357" lon="-0.00334">
        <ele>771.8</ele>
        <time>2022-08-02T09:17:50Z</time>
      </trkpt>
      <trkpt lat="42.87357" lon="-0.00334">
        <ele>771.7</ele>
        <time>2022-08-02T09:17:55Z</time>
      </trkpt>
      <trkpt lat="42.87357" lon="-0.00334">
        <ele>771.7</ele>
        <time>2022-08-02T09:18:01Z</time>
      </trkpt>
      <trkpt lat="42.87357" lon="-0.00334">
        <ele>771.7</ele>
        <time>2022-08-02T09:18:06Z</time>
      </trkpt>
      <trkpt lat="42.87357" lon="-0.00334">
        <ele>771.7</ele>
        <time>2022-08-02T09:18:12Z</time>
      </trkpt>
      <trkpt lat="42.87357" lon="-0.00334">
        <ele>771.7</ele>
        <time>2022-08-02T09:18:17Z</time>
      </trkpt>
      <trkpt lat="42.87357" lon="-0.00334">
        <ele>771.6</ele>
        <time>2022-08-02T09:18:22Z</time>
      </trkpt>
      <trkpt lat="42.87357" lon="-0.00334">
        <ele>771.6</ele>
        <time>2022-08-02T09:18:28Z</time>
      </trkpt>
      <trkpt lat="42.87357" lon="-0.00334">
        <ele>771.6</ele>
        <time>2022-08-02T09:18:34Z</time>
      </trkpt>
      <trkpt lat="42.87357" lon="-0.00334">
        <ele>771.6</ele>
        <time>2022-08-02T09:18:40Z</time>
      </trkpt>
      <trkpt lat="42.87357" lon="-0.00334">
        <ele>771.6</ele>
        <time>2022-08-02T09:18:45Z</time>
      </trkpt>
      <trkpt lat="42.87357" lon="-0.00334">
        <ele>771.6</ele>
        <time>2022-08-02T09:18:51Z</time>
      </trkpt>
      <trkpt lat="42.87357" lon="-0.00334">
        <ele>771.6</ele>
        <time>2022-08-02T09:18:56Z</time>
      </trkpt>
      <trkpt lat="42.87357" lon="-0.00334">
        <ele>771.6</ele>
        <time>2022-08-02T09:19:02Z</time>
      </trkpt>
      <trkpt lat="42.87357" lon="-0.00334">
        <ele>771.5</ele>
        <time>2022-08-02T09:19:07Z</time>
      </trkpt>
      <trkpt lat="42.87357" lon="-0.00334">
        <ele>771.5</ele>
        <time>2022-08-02T09:19:12Z</time>
      </trkpt>
      <trkpt lat="42.87357" lon="-0.00334">
        <ele>771.5</ele>
        <time>2022-08-02T09:19:17Z</time>
      </trkpt>
      <trkpt lat="42.87357" lon="-0.00334">
        <ele>771.5</ele>
        <time>2022-08-02T09:19:22Z</time>
      </trkpt>
      <trkpt lat="42.87357" lon="-0.00334">
        <ele>771.5</ele>
        <time>2022-08-02T09:19:28Z</time>
      </trkpt>
      <trkpt lat="42.87357" lon="-0.00334">
        <ele>771.5</ele>
        <time>2022-08-02T09:19:34Z</time>
      </trkpt>
      <trkpt lat="42.87357" lon="-0.00334">
        <ele>771.4</ele>
        <time>2022-08-02T09:19:39Z</time>
      </trkpt>
      <trkpt lat="42.87357" lon="-0.00334">
        <ele>771.4</ele>
        <time>2022-08-02T09:19:44Z</time>
      </trkpt>
      <trkpt lat="42.87357" lon="-0.00334">
        <ele>771.4</ele>
        <time>2022-08-02T09:19:50Z</time>
      </trkpt>
      <trkpt lat="42.87357" lon="-0.00334">
        <ele>771.4</ele>
        <time>2022-08-02T09:19:56Z</time>
      </trkpt>
      <trkpt lat="42.87357" lon="-0.00334">
        <ele>771.5</ele>
        <time>2022-08-02T09:20:02Z</time>
      </trkpt>
      <trkpt lat="42.87357" lon="-0.00334">
        <ele>771.5</ele>
        <time>2022-08-02T09:20:07Z</time>
      </trkpt>
      <trkpt lat="42.87357" lon="-0.00334">
        <ele>771.5</ele>
        <time>2022-08-02T09:20:13Z</time>
      </trkpt>
      <trkpt lat="42.87357" lon="-0.00334">
        <ele>771.5</ele>
        <time>2022-08-02T09:20:18Z</time>
      </trkpt>
      <trkpt lat="42.87357" lon="-0.00334">
        <ele>771.4</ele>
        <time>2022-08-02T09:20:24Z</time>
      </trkpt>
      <trkpt lat="42.87357" lon="-0.00334">
        <ele>771.4</ele>
        <time>2022-08-02T09:20:29Z</time>
      </trkpt>
      <trkpt lat="42.87358" lon="-0.00334">
        <ele>771.4</ele>
        <time>2022-08-02T09:20:35Z</time>
      </trkpt>
      <trkpt lat="42.87358" lon="-0.00334">
        <ele>771.4</ele>
        <time>2022-08-02T09:20:40Z</time>
      </trkpt>
      <trkpt lat="42.87358" lon="-0.00334">
        <ele>771.4</ele>
        <time>2022-08-02T09:20:45Z</time>
      </trkpt>
      <trkpt lat="42.87358" lon="-0.00334">
        <ele>771.4</ele>
        <time>2022-08-02T09:20:51Z</time>
      </trkpt>
      <trkpt lat="42.87358" lon="-0.00334">
        <ele>771.5</ele>
        <time>2022-08-02T09:20:57Z</time>
      </trkpt>
      <trkpt lat="42.87358" lon="-0.00334">
        <ele>771.5</ele>
        <time>2022-08-02T09:21:03Z</time>
      </trkpt>
      <trkpt lat="42.87358" lon="-0.00334">
        <ele>771.5</ele>
        <time>2022-08-02T09:21:08Z</time>
      </trkpt>
      <trkpt lat="42.87358" lon="-0.00334">
        <ele>771.5</ele>
        <time>2022-08-02T09:21:14Z</time>
      </trkpt>
      <trkpt lat="42.87358" lon="-0.00334">
        <ele>771.5</ele>
        <time>2022-08-02T09:21:19Z</time>
      </trkpt>
      <trkpt lat="42.87358" lon="-0.00334">
        <ele>771.5</ele>
        <time>2022-08-02T09:21:24Z</time>
      </trkpt>
      <trkpt lat="42.87358" lon="-0.00334">
        <ele>771.5</ele>
        <time>2022-08-02T09:21:30Z</time>
      </trkpt>
      <trkpt lat="42.87358" lon="-0.00334">
        <ele>771.5</ele>
        <time>2022-08-02T09:21:36Z</time>
      </trkpt>
      <trkpt lat="42.87358" lon="-0.00334">
        <ele>771.5</ele>
        <time>2022-08-02T09:21:41Z</time>
      </trkpt>
      <trkpt lat="42.87358" lon="-0.00334">
        <ele>771.5</ele>
        <time>2022-08-02T09:21:47Z</time>
      </trkpt>
      <trkpt lat="42.87358" lon="-0.00334">
        <ele>771.5</ele>
        <time>2022-08-02T09:21:53Z</time>
      </trkpt>
      <trkpt lat="42.87358" lon="-0.00334">
        <ele>771.5</ele>
        <time>2022-08-02T09:21:59Z</time>
      </trkpt>
      <trkpt lat="42.87358" lon="-0.00334">
        <ele>771.5</ele>
        <time>2022-08-02T09:22:05Z</time>
      </trkpt>
      <trkpt lat="42.87358" lon="-0.00334">
        <ele>771.5</ele>
        <time>2022-08-02T09:22:10Z</time>
      </trkpt>
      <trkpt lat="42.87358" lon="-0.00334">
        <ele>771.5</ele>
        <time>2022-08-02T09:22:16Z</time>
      </trkpt>
      <trkpt lat="42.87358" lon="-0.00334">
        <ele>771.4</ele>
        <time>2022-08-02T09:22:22Z</time>
      </trkpt>
      <trkpt lat="42.87358" lon="-0.00334">
        <ele>771.4</ele>
        <time>2022-08-02T09:22:27Z</time>
      </trkpt>
      <trkpt lat="42.87358" lon="-0.00334">
        <ele>771.4</ele>
        <time>2022-08-02T09:22:33Z</time>
      </trkpt>
      <trkpt lat="42.87358" lon="-0.00334">
        <ele>771.4</ele>
        <time>2022-08-02T09:22:39Z</time>
      </trkpt>
      <trkpt lat="42.87358" lon="-0.00334">
        <ele>771.5</ele>
        <time>2022-08-02T09:22:45Z</time>
      </trkpt>
      <trkpt lat="42.87358" lon="-0.00334">
        <ele>771.5</ele>
        <time>2022-08-02T09:22:50Z</time>
      </trkpt>
      <trkpt lat="42.87358" lon="-0.00334">
        <ele>771.5</ele>
        <time>2022-08-02T09:22:56Z</time>
      </trkpt>
      <trkpt lat="42.87358" lon="-0.00334">
        <ele>771.5</ele>
        <time>2022-08-02T09:23:02Z</time>
      </trkpt>
      <trkpt lat="42.87357" lon="-0.00334">
        <ele>771.5</ele>
        <time>2022-08-02T09:23:07Z</time>
      </trkpt>
      <trkpt lat="42.87357" lon="-0.00334">
        <ele>771.5</ele>
        <time>2022-08-02T09:23:12Z</time>
      </trkpt>
      <trkpt lat="42.87358" lon="-0.00334">
        <ele>771.5</ele>
        <time>2022-08-02T09:23:18Z</time>
      </trkpt>
      <trkpt lat="42.87358" lon="-0.00334">
        <ele>771.5</ele>
        <time>2022-08-02T09:23:24Z</time>
      </trkpt>
      <trkpt lat="42.87358" lon="-0.00334">
        <ele>771.5</ele>
        <time>2022-08-02T09:23:30Z</time>
      </trkpt>
      <trkpt lat="42.87358" lon="-0.00334">
        <ele>771.5</ele>
        <time>2022-08-02T09:23:35Z</time>
      </trkpt>
      <trkpt lat="42.87358" lon="-0.00334">
        <ele>771.5</ele>
        <time>2022-08-02T09:23:40Z</time>
      </trkpt>
      <trkpt lat="42.87358" lon="-0.00334">
        <ele>771.5</ele>
        <time>2022-08-02T09:23:46Z</time>
      </trkpt>
      <trkpt lat="42.87358" lon="-0.00334">
        <ele>771.5</ele>
        <time>2022-08-02T09:23:51Z</time>
      </trkpt>
      <trkpt lat="42.87358" lon="-0.00334">
        <ele>771.5</ele>
        <time>2022-08-02T09:23:57Z</time>
      </trkpt>
      <trkpt lat="42.87358" lon="-0.00334">
        <ele>771.5</ele>
        <time>2022-08-02T09:24:03Z</time>
      </trkpt>
      <trkpt lat="42.87358" lon="-0.00334">
        <ele>771.5</ele>
        <time>2022-08-02T09:24:09Z</time>
      </trkpt>
      <trkpt lat="42.87358" lon="-0.00334">
        <ele>771.5</ele>
        <time>2022-08-02T09:24:14Z</time>
      </trkpt>
      <trkpt lat="42.87358" lon="-0.00334">
        <ele>771.5</ele>
        <time>2022-08-02T09:24:19Z</time>
      </trkpt>
      <trkpt lat="42.87358" lon="-0.00334">
        <ele>771.5</ele>
        <time>2022-08-02T09:24:25Z</time>
      </trkpt>
      <trkpt lat="42.87358" lon="-0.00334">
        <ele>771.5</ele>
        <time>2022-08-02T09:24:30Z</time>
      </trkpt>
      <trkpt lat="42.87357" lon="-0.00334">
        <ele>771.8</ele>
        <time>2022-08-02T09:24:35Z</time>
      </trkpt>
      <trkpt lat="42.87358" lon="-0.00334">
        <ele>770.1</ele>
        <time>2022-08-02T09:24:41Z</time>
      </trkpt>
      <trkpt lat="42.8736" lon="-0.00333">
        <ele>769.1</ele>
        <time>2022-08-02T09:24:47Z</time>
      </trkpt>
      <trkpt lat="42.8736" lon="-0.00333">
        <ele>769.1</ele>
        <time>2022-08-02T09:24:53Z</time>
      </trkpt>
      <trkpt lat="42.8736" lon="-0.00333">
        <ele>769.1</ele>
        <time>2022-08-02T09:24:58Z</time>
      </trkpt>
      <trkpt lat="42.8736" lon="-0.00333">
        <ele>769</ele>
        <time>2022-08-02T09:25:04Z</time>
      </trkpt>
      <trkpt lat="42.8736" lon="-0.00333">
        <ele>769</ele>
        <time>2022-08-02T09:25:10Z</time>
      </trkpt>
      <trkpt lat="42.8736" lon="-0.00333">
        <ele>769</ele>
        <time>2022-08-02T09:25:15Z</time>
      </trkpt>
      <trkpt lat="42.8736" lon="-0.00333">
        <ele>769</ele>
        <time>2022-08-02T09:25:20Z</time>
      </trkpt>
      <trkpt lat="42.8736" lon="-0.00333">
        <ele>769</ele>
        <time>2022-08-02T09:25:25Z</time>
      </trkpt>
      <trkpt lat="42.8736" lon="-0.00333">
        <ele>769.1</ele>
        <time>2022-08-02T09:25:30Z</time>
      </trkpt>
      <trkpt lat="42.8736" lon="-0.00333">
        <ele>769.1</ele>
        <time>2022-08-02T09:25:36Z</time>
      </trkpt>
      <trkpt lat="42.8736" lon="-0.00333">
        <ele>769.1</ele>
        <time>2022-08-02T09:25:42Z</time>
      </trkpt>
      <trkpt lat="42.8736" lon="-0.00333">
        <ele>769.1</ele>
        <time>2022-08-02T09:25:48Z</time>
      </trkpt>
      <trkpt lat="42.8736" lon="-0.00333">
        <ele>769</ele>
        <time>2022-08-02T09:25:54Z</time>
      </trkpt>
      <trkpt lat="42.8736" lon="-0.00333">
        <ele>769.1</ele>
        <time>2022-08-02T09:26:00Z</time>
      </trkpt>
      <trkpt lat="42.8736" lon="-0.00333">
        <ele>769.1</ele>
        <time>2022-08-02T09:26:05Z</time>
      </trkpt>
      <trkpt lat="42.8736" lon="-0.00333">
        <ele>769.1</ele>
        <time>2022-08-02T09:26:11Z</time>
      </trkpt>
      <trkpt lat="42.8736" lon="-0.00333">
        <ele>769.1</ele>
        <time>2022-08-02T09:26:17Z</time>
      </trkpt>
      <trkpt lat="42.8736" lon="-0.00333">
        <ele>769.1</ele>
        <time>2022-08-02T09:26:22Z</time>
      </trkpt>
      <trkpt lat="42.8736" lon="-0.00333">
        <ele>769.1</ele>
        <time>2022-08-02T09:26:28Z</time>
      </trkpt>
      <trkpt lat="42.8736" lon="-0.00333">
        <ele>769.1</ele>
        <time>2022-08-02T09:26:35Z</time>
      </trkpt>
      <trkpt lat="42.87358" lon="-0.00333">
        <ele>768.4</ele>
        <time>2022-08-02T09:26:40Z</time>
      </trkpt>
      <trkpt lat="42.87345" lon="-0.00334">
        <ele>768.1</ele>
        <time>2022-08-02T09:26:46Z</time>
      </trkpt>
      <trkpt lat="42.87332" lon="-0.00331">
        <ele>767.2</ele>
        <time>2022-08-02T09:26:51Z</time>
      </trkpt>
      <trkpt lat="42.87315" lon="-0.00323">
        <ele>769.2</ele>
        <time>2022-08-02T09:26:56Z</time>
      </trkpt>
      <trkpt lat="42.87305" lon="-0.00305">
        <ele>771.3</ele>
        <time>2022-08-02T09:27:01Z</time>
      </trkpt>
      <trkpt lat="42.87295" lon="-0.00288">
        <ele>770.1</ele>
        <time>2022-08-02T09:27:07Z</time>
      </trkpt>
      <trkpt lat="42.87284" lon="-0.00268">
        <ele>770</ele>
        <time>2022-08-02T09:27:13Z</time>
      </trkpt>
      <trkpt lat="42.87278" lon="-0.00254">
        <ele>770.9</ele>
        <time>2022-08-02T09:27:18Z</time>
      </trkpt>
      <trkpt lat="42.87269" lon="-0.00241">
        <ele>771.4</ele>
        <time>2022-08-02T09:27:23Z</time>
      </trkpt>
      <trkpt lat="42.87259" lon="-0.00225">
        <ele>774.9</ele>
        <time>2022-08-02T09:27:29Z</time>
      </trkpt>
      <trkpt lat="42.87252" lon="-0.00213">
        <ele>777.5</ele>
        <time>2022-08-02T09:27:34Z</time>
      </trkpt>
      <trkpt lat="42.87243" lon="-0.002">
        <ele>778</ele>
        <time>2022-08-02T09:27:40Z</time>
      </trkpt>
      <trkpt lat="42.87235" lon="-0.00186">
        <ele>780.6</ele>
        <time>2022-08-02T09:27:46Z</time>
      </trkpt>
      <trkpt lat="42.87233" lon="-0.00178">
        <ele>784.3</ele>
        <time>2022-08-02T09:27:51Z</time>
      </trkpt>
      <trkpt lat="42.87232" lon="-0.00164">
        <ele>786.7</ele>
        <time>2022-08-02T09:27:57Z</time>
      </trkpt>
      <trkpt lat="42.87238" lon="-0.00146">
        <ele>788.3</ele>
        <time>2022-08-02T09:28:03Z</time>
      </trkpt>
      <trkpt lat="42.87242" lon="-0.00129">
        <ele>789.6</ele>
        <time>2022-08-02T09:28:08Z</time>
      </trkpt>
      <trkpt lat="42.87249" lon="-0.00111">
        <ele>789.4</ele>
        <time>2022-08-02T09:28:14Z</time>
      </trkpt>
      <trkpt lat="42.87255" lon="-0.00091">
        <ele>788.9</ele>
        <time>2022-08-02T09:28:20Z</time>
      </trkpt>
      <trkpt lat="42.87263" lon="-0.00071">
        <ele>789.4</ele>
        <time>2022-08-02T09:28:26Z</time>
      </trkpt>
      <trkpt lat="42.87268" lon="-0.00053">
        <ele>789.1</ele>
        <time>2022-08-02T09:28:31Z</time>
      </trkpt>
      <trkpt lat="42.87271" lon="-0.00031">
        <ele>789.5</ele>
        <time>2022-08-02T09:28:37Z</time>
      </trkpt>
      <trkpt lat="42.87278" lon="-0.00012">
        <ele>790.6</ele>
        <time>2022-08-02T09:28:42Z</time>
      </trkpt>
      <trkpt lat="42.87285" lon="9.0E-5">
        <ele>789.2</ele>
        <time>2022-08-02T09:28:48Z</time>
      </trkpt>
      <trkpt lat="42.8729" lon="0.00029">
        <ele>790.5</ele>
        <time>2022-08-02T09:28:53Z</time>
      </trkpt>
      <trkpt lat="42.87297" lon="0.00052">
        <ele>789.8</ele>
        <time>2022-08-02T09:28:59Z</time>
      </trkpt>
      <trkpt lat="42.87304" lon="0.00075">
        <ele>791.4</ele>
        <time>2022-08-02T09:29:05Z</time>
      </trkpt>
      <trkpt lat="42.87312" lon="0.00099">
        <ele>792.6</ele>
        <time>2022-08-02T09:29:10Z</time>
      </trkpt>
      <trkpt lat="42.87318" lon="0.00123">
        <ele>794.3</ele>
        <time>2022-08-02T09:29:15Z</time>
      </trkpt>
      <trkpt lat="42.87324" lon="0.00153">
        <ele>793.8</ele>
        <time>2022-08-02T09:29:21Z</time>
      </trkpt>
      <trkpt lat="42.87334" lon="0.00188">
        <ele>793.6</ele>
        <time>2022-08-02T09:29:27Z</time>
      </trkpt>
      <trkpt lat="42.87342" lon="0.00216">
        <ele>792.7</ele>
        <time>2022-08-02T09:29:32Z</time>
      </trkpt>
      <trkpt lat="42.87352" lon="0.00248">
        <ele>792.5</ele>
        <time>2022-08-02T09:29:38Z</time>
      </trkpt>
      <trkpt lat="42.87356" lon="0.00276">
        <ele>792.2</ele>
        <time>2022-08-02T09:29:43Z</time>
      </trkpt>
      <trkpt lat="42.87363" lon="0.00306">
        <ele>792.7</ele>
        <time>2022-08-02T09:29:49Z</time>
      </trkpt>
      <trkpt lat="42.87372" lon="0.00334">
        <ele>792.7</ele>
        <time>2022-08-02T09:29:55Z</time>
      </trkpt>
      <trkpt lat="42.87375" lon="0.00358">
        <ele>792.5</ele>
        <time>2022-08-02T09:30:00Z</time>
      </trkpt>
      <trkpt lat="42.87374" lon="0.00389">
        <ele>790.1</ele>
        <time>2022-08-02T09:30:06Z</time>
      </trkpt>
      <trkpt lat="42.87381" lon="0.00406">
        <ele>794.3</ele>
        <time>2022-08-02T09:30:11Z</time>
      </trkpt>
      <trkpt lat="42.8739" lon="0.00428">
        <ele>797.1</ele>
        <time>2022-08-02T09:30:16Z</time>
      </trkpt>
      <trkpt lat="42.87397" lon="0.0045">
        <ele>797.8</ele>
        <time>2022-08-02T09:30:22Z</time>
      </trkpt>
      <trkpt lat="42.87403" lon="0.00469">
        <ele>800.1</ele>
        <time>2022-08-02T09:30:27Z</time>
      </trkpt>
      <trkpt lat="42.87406" lon="0.00488">
        <ele>802</ele>
        <time>2022-08-02T09:30:32Z</time>
      </trkpt>
      <trkpt lat="42.87413" lon="0.00506">
        <ele>801.1</ele>
        <time>2022-08-02T09:30:37Z</time>
      </trkpt>
      <trkpt lat="42.87423" lon="0.00526">
        <ele>801.1</ele>
        <time>2022-08-02T09:30:43Z</time>
      </trkpt>
      <trkpt lat="42.87433" lon="0.00543">
        <ele>802.1</ele>
        <time>2022-08-02T09:30:48Z</time>
      </trkpt>
      <trkpt lat="42.87448" lon="0.00559">
        <ele>801.5</ele>
        <time>2022-08-02T09:30:54Z</time>
      </trkpt>
      <trkpt lat="42.8746" lon="0.00575">
        <ele>802.4</ele>
        <time>2022-08-02T09:30:59Z</time>
      </trkpt>
      <trkpt lat="42.87473" lon="0.00594">
        <ele>802.1</ele>
        <time>2022-08-02T09:31:05Z</time>
      </trkpt>
      <trkpt lat="42.87484" lon="0.0061">
        <ele>802.8</ele>
        <time>2022-08-02T09:31:11Z</time>
      </trkpt>
      <trkpt lat="42.87493" lon="0.00626">
        <ele>804.1</ele>
        <time>2022-08-02T09:31:16Z</time>
      </trkpt>
      <trkpt lat="42.87505" lon="0.00642">
        <ele>806.9</ele>
        <time>2022-08-02T09:31:22Z</time>
      </trkpt>
      <trkpt lat="42.87515" lon="0.00656">
        <ele>807.1</ele>
        <time>2022-08-02T09:31:27Z</time>
      </trkpt>
      <trkpt lat="42.87523" lon="0.00669">
        <ele>806.9</ele>
        <time>2022-08-02T09:31:32Z</time>
      </trkpt>
      <trkpt lat="42.87536" lon="0.00686">
        <ele>807.3</ele>
        <time>2022-08-02T09:31:38Z</time>
      </trkpt>
      <trkpt lat="42.87545" lon="0.00704">
        <ele>808.8</ele>
        <time>2022-08-02T09:31:44Z</time>
      </trkpt>
      <trkpt lat="42.87557" lon="0.00722">
        <ele>809.4</ele>
        <time>2022-08-02T09:31:50Z</time>
      </trkpt>
      <trkpt lat="42.87568" lon="0.00734">
        <ele>811.1</ele>
        <time>2022-08-02T09:31:55Z</time>
      </trkpt>
      <trkpt lat="42.8758" lon="0.00747">
        <ele>811.2</ele>
        <time>2022-08-02T09:32:00Z</time>
      </trkpt>
      <trkpt lat="42.87592" lon="0.00764">
        <ele>811.6</ele>
        <time>2022-08-02T09:32:06Z</time>
      </trkpt>
      <trkpt lat="42.87601" lon="0.00779">
        <ele>812.6</ele>
        <time>2022-08-02T09:32:11Z</time>
      </trkpt>
      <trkpt lat="42.87612" lon="0.00798">
        <ele>813.2</ele>
        <time>2022-08-02T09:32:17Z</time>
      </trkpt>
      <trkpt lat="42.87624" lon="0.00816">
        <ele>813.1</ele>
        <time>2022-08-02T09:32:23Z</time>
      </trkpt>
      <trkpt lat="42.87635" lon="0.0083">
        <ele>813.9</ele>
        <time>2022-08-02T09:32:28Z</time>
      </trkpt>
      <trkpt lat="42.87651" lon="0.00846">
        <ele>815.3</ele>
        <time>2022-08-02T09:32:34Z</time>
      </trkpt>
      <trkpt lat="42.87663" lon="0.00862">
        <ele>815.7</ele>
        <time>2022-08-02T09:32:40Z</time>
      </trkpt>
      <trkpt lat="42.87675" lon="0.00879">
        <ele>816.7</ele>
        <time>2022-08-02T09:32:45Z</time>
      </trkpt>
      <trkpt lat="42.87684" lon="0.00896">
        <ele>818.6</ele>
        <time>2022-08-02T09:32:50Z</time>
      </trkpt>
      <trkpt lat="42.87692" lon="0.00918">
        <ele>820.4</ele>
        <time>2022-08-02T09:32:56Z</time>
      </trkpt>
      <trkpt lat="42.87698" lon="0.00937">
        <ele>822.1</ele>
        <time>2022-08-02T09:33:01Z</time>
      </trkpt>
      <trkpt lat="42.87705" lon="0.0096">
        <ele>823.1</ele>
        <time>2022-08-02T09:33:07Z</time>
      </trkpt>
      <trkpt lat="42.87712" lon="0.00981">
        <ele>823.8</ele>
        <time>2022-08-02T09:33:13Z</time>
      </trkpt>
      <trkpt lat="42.87718" lon="0.00999">
        <ele>825.1</ele>
        <time>2022-08-02T09:33:18Z</time>
      </trkpt>
      <trkpt lat="42.87723" lon="0.01016">
        <ele>826</ele>
        <time>2022-08-02T09:33:23Z</time>
      </trkpt>
      <trkpt lat="42.87727" lon="0.01034">
        <ele>827.6</ele>
        <time>2022-08-02T09:33:28Z</time>
      </trkpt>
      <trkpt lat="42.87733" lon="0.01055">
        <ele>828.6</ele>
        <time>2022-08-02T09:33:34Z</time>
      </trkpt>
      <trkpt lat="42.87737" lon="0.0107">
        <ele>828.6</ele>
        <time>2022-08-02T09:33:39Z</time>
      </trkpt>
      <trkpt lat="42.87744" lon="0.01085">
        <ele>830.4</ele>
        <time>2022-08-02T09:33:45Z</time>
      </trkpt>
      <trkpt lat="42.87751" lon="0.01103">
        <ele>832.2</ele>
        <time>2022-08-02T09:33:51Z</time>
      </trkpt>
      <trkpt lat="42.87759" lon="0.01116">
        <ele>833.2</ele>
        <time>2022-08-02T09:33:56Z</time>
      </trkpt>
      <trkpt lat="42.87764" lon="0.01129">
        <ele>834.4</ele>
        <time>2022-08-02T09:34:01Z</time>
      </trkpt>
      <trkpt lat="42.8777" lon="0.01146">
        <ele>836.2</ele>
        <time>2022-08-02T09:34:07Z</time>
      </trkpt>
      <trkpt lat="42.87775" lon="0.01163">
        <ele>836.9</ele>
        <time>2022-08-02T09:34:13Z</time>
      </trkpt>
      <trkpt lat="42.87779" lon="0.01178">
        <ele>838.1</ele>
        <time>2022-08-02T09:34:18Z</time>
      </trkpt>
      <trkpt lat="42.87783" lon="0.01193">
        <ele>838.9</ele>
        <time>2022-08-02T09:34:23Z</time>
      </trkpt>
      <trkpt lat="42.8779" lon="0.01209">
        <ele>839.8</ele>
        <time>2022-08-02T09:34:29Z</time>
      </trkpt>
      <trkpt lat="42.87795" lon="0.01222">
        <ele>839.9</ele>
        <time>2022-08-02T09:34:34Z</time>
      </trkpt>
      <trkpt lat="42.87801" lon="0.01238">
        <ele>840.6</ele>
        <time>2022-08-02T09:34:40Z</time>
      </trkpt>
      <trkpt lat="42.87807" lon="0.01253">
        <ele>841.2</ele>
        <time>2022-08-02T09:34:45Z</time>
      </trkpt>
      <trkpt lat="42.87812" lon="0.01269">
        <ele>842</ele>
        <time>2022-08-02T09:34:51Z</time>
      </trkpt>
      <trkpt lat="42.87817" lon="0.01284">
        <ele>844.1</ele>
        <time>2022-08-02T09:34:56Z</time>
      </trkpt>
      <trkpt lat="42.8782" lon="0.01302">
        <ele>845.9</ele>
        <time>2022-08-02T09:35:02Z</time>
      </trkpt>
      <trkpt lat="42.8782" lon="0.01321">
        <ele>847.3</ele>
        <time>2022-08-02T09:35:08Z</time>
      </trkpt>
      <trkpt lat="42.87821" lon="0.0134">
        <ele>847.6</ele>
        <time>2022-08-02T09:35:14Z</time>
      </trkpt>
      <trkpt lat="42.87821" lon="0.01356">
        <ele>848.4</ele>
        <time>2022-08-02T09:35:19Z</time>
      </trkpt>
      <trkpt lat="42.87822" lon="0.01376">
        <ele>849.3</ele>
        <time>2022-08-02T09:35:25Z</time>
      </trkpt>
      <trkpt lat="42.87822" lon="0.01396">
        <ele>851.3</ele>
        <time>2022-08-02T09:35:31Z</time>
      </trkpt>
      <trkpt lat="42.87823" lon="0.01412">
        <ele>851.9</ele>
        <time>2022-08-02T09:35:36Z</time>
      </trkpt>
      <trkpt lat="42.87823" lon="0.0143">
        <ele>854.1</ele>
        <time>2022-08-02T09:35:42Z</time>
      </trkpt>
      <trkpt lat="42.87821" lon="0.01448">
        <ele>856.3</ele>
        <time>2022-08-02T09:35:47Z</time>
      </trkpt>
      <trkpt lat="42.8782" lon="0.01468">
        <ele>857.5</ele>
        <time>2022-08-02T09:35:53Z</time>
      </trkpt>
      <trkpt lat="42.8782" lon="0.01487">
        <ele>858.7</ele>
        <time>2022-08-02T09:35:59Z</time>
      </trkpt>
      <trkpt lat="42.87821" lon="0.01506">
        <ele>860</ele>
        <time>2022-08-02T09:36:05Z</time>
      </trkpt>
      <trkpt lat="42.87822" lon="0.01523">
        <ele>861.2</ele>
        <time>2022-08-02T09:36:11Z</time>
      </trkpt>
      <trkpt lat="42.87823" lon="0.01541">
        <ele>863.4</ele>
        <time>2022-08-02T09:36:16Z</time>
      </trkpt>
      <trkpt lat="42.87824" lon="0.0156">
        <ele>865.2</ele>
        <time>2022-08-02T09:36:22Z</time>
      </trkpt>
      <trkpt lat="42.87826" lon="0.01577">
        <ele>865.9</ele>
        <time>2022-08-02T09:36:27Z</time>
      </trkpt>
      <trkpt lat="42.87827" lon="0.01592">
        <ele>866.5</ele>
        <time>2022-08-02T09:36:32Z</time>
      </trkpt>
      <trkpt lat="42.87828" lon="0.01608">
        <ele>867.4</ele>
        <time>2022-08-02T09:36:37Z</time>
      </trkpt>
      <trkpt lat="42.87829" lon="0.01626">
        <ele>868.7</ele>
        <time>2022-08-02T09:36:43Z</time>
      </trkpt>
      <trkpt lat="42.87831" lon="0.01642">
        <ele>869.3</ele>
        <time>2022-08-02T09:36:48Z</time>
      </trkpt>
      <trkpt lat="42.87832" lon="0.01659">
        <ele>870</ele>
        <time>2022-08-02T09:36:53Z</time>
      </trkpt>
      <trkpt lat="42.87832" lon="0.01677">
        <ele>871.4</ele>
        <time>2022-08-02T09:36:58Z</time>
      </trkpt>
      <trkpt lat="42.87834" lon="0.01694">
        <ele>872</ele>
        <time>2022-08-02T09:37:04Z</time>
      </trkpt>
      <trkpt lat="42.87834" lon="0.01713">
        <ele>873.6</ele>
        <time>2022-08-02T09:37:10Z</time>
      </trkpt>
      <trkpt lat="42.87834" lon="0.01732">
        <ele>874.8</ele>
        <time>2022-08-02T09:37:16Z</time>
      </trkpt>
      <trkpt lat="42.87836" lon="0.01752">
        <ele>875.1</ele>
        <time>2022-08-02T09:37:22Z</time>
      </trkpt>
      <trkpt lat="42.87837" lon="0.01768">
        <ele>875.2</ele>
        <time>2022-08-02T09:37:27Z</time>
      </trkpt>
      <trkpt lat="42.87838" lon="0.01783">
        <ele>876.1</ele>
        <time>2022-08-02T09:37:32Z</time>
      </trkpt>
      <trkpt lat="42.87839" lon="0.018">
        <ele>877</ele>
        <time>2022-08-02T09:37:38Z</time>
      </trkpt>
      <trkpt lat="42.8784" lon="0.01818">
        <ele>878.6</ele>
        <time>2022-08-02T09:37:44Z</time>
      </trkpt>
      <trkpt lat="42.87841" lon="0.01837">
        <ele>881</ele>
        <time>2022-08-02T09:37:50Z</time>
      </trkpt>
      <trkpt lat="42.87841" lon="0.01853">
        <ele>882.1</ele>
        <time>2022-08-02T09:37:55Z</time>
      </trkpt>
      <trkpt lat="42.87842" lon="0.01871">
        <ele>882.9</ele>
        <time>2022-08-02T09:38:01Z</time>
      </trkpt>
      <trkpt lat="42.87844" lon="0.0189">
        <ele>883.6</ele>
        <time>2022-08-02T09:38:07Z</time>
      </trkpt>
      <trkpt lat="42.87845" lon="0.01905">
        <ele>884</ele>
        <time>2022-08-02T09:38:12Z</time>
      </trkpt>
      <trkpt lat="42.87845" lon="0.01925">
        <ele>885.4</ele>
        <time>2022-08-02T09:38:18Z</time>
      </trkpt>
      <trkpt lat="42.87845" lon="0.01944">
        <ele>887</ele>
        <time>2022-08-02T09:38:24Z</time>
      </trkpt>
      <trkpt lat="42.87846" lon="0.01961">
        <ele>887.7</ele>
        <time>2022-08-02T09:38:30Z</time>
      </trkpt>
      <trkpt lat="42.87846" lon="0.01976">
        <ele>887.5</ele>
        <time>2022-08-02T09:38:35Z</time>
      </trkpt>
      <trkpt lat="42.87848" lon="0.01994">
        <ele>889.9</ele>
        <time>2022-08-02T09:38:41Z</time>
      </trkpt>
      <trkpt lat="42.87848" lon="0.0201">
        <ele>891.7</ele>
        <time>2022-08-02T09:38:46Z</time>
      </trkpt>
      <trkpt lat="42.87849" lon="0.02029">
        <ele>892.9</ele>
        <time>2022-08-02T09:38:52Z</time>
      </trkpt>
      <trkpt lat="42.87849" lon="0.02044">
        <ele>893.2</ele>
        <time>2022-08-02T09:38:57Z</time>
      </trkpt>
      <trkpt lat="42.87851" lon="0.02064">
        <ele>895.5</ele>
        <time>2022-08-02T09:39:03Z</time>
      </trkpt>
      <trkpt lat="42.87851" lon="0.02083">
        <ele>896.4</ele>
        <time>2022-08-02T09:39:09Z</time>
      </trkpt>
      <trkpt lat="42.87853" lon="0.02101">
        <ele>897.9</ele>
        <time>2022-08-02T09:39:15Z</time>
      </trkpt>
      <trkpt lat="42.87853" lon="0.02116">
        <ele>899.5</ele>
        <time>2022-08-02T09:39:20Z</time>
      </trkpt>
      <trkpt lat="42.87854" lon="0.02135">
        <ele>899.6</ele>
        <time>2022-08-02T09:39:26Z</time>
      </trkpt>
      <trkpt lat="42.87854" lon="0.02151">
        <ele>900.3</ele>
        <time>2022-08-02T09:39:31Z</time>
      </trkpt>
      <trkpt lat="42.87855" lon="0.0217">
        <ele>901.6</ele>
        <time>2022-08-02T09:39:37Z</time>
      </trkpt>
      <trkpt lat="42.87856" lon="0.02188">
        <ele>902.3</ele>
        <time>2022-08-02T09:39:43Z</time>
      </trkpt>
      <trkpt lat="42.87856" lon="0.02204">
        <ele>903</ele>
        <time>2022-08-02T09:39:48Z</time>
      </trkpt>
      <trkpt lat="42.87858" lon="0.02218">
        <ele>904.1</ele>
        <time>2022-08-02T09:39:53Z</time>
      </trkpt>
      <trkpt lat="42.8786" lon="0.02237">
        <ele>904.2</ele>
        <time>2022-08-02T09:39:59Z</time>
      </trkpt>
      <trkpt lat="42.87862" lon="0.02253">
        <ele>905.1</ele>
        <time>2022-08-02T09:40:04Z</time>
      </trkpt>
      <trkpt lat="42.87866" lon="0.02268">
        <ele>907.2</ele>
        <time>2022-08-02T09:40:09Z</time>
      </trkpt>
      <trkpt lat="42.8787" lon="0.02284">
        <ele>908.3</ele>
        <time>2022-08-02T09:40:15Z</time>
      </trkpt>
      <trkpt lat="42.87873" lon="0.02299">
        <ele>907.7</ele>
        <time>2022-08-02T09:40:20Z</time>
      </trkpt>
      <trkpt lat="42.87876" lon="0.02313">
        <ele>906.5</ele>
        <time>2022-08-02T09:40:25Z</time>
      </trkpt>
      <trkpt lat="42.87879" lon="0.02326">
        <ele>907.4</ele>
        <time>2022-08-02T09:40:30Z</time>
      </trkpt>
      <trkpt lat="42.87883" lon="0.02341">
        <ele>907.6</ele>
        <time>2022-08-02T09:40:35Z</time>
      </trkpt>
      <trkpt lat="42.87885" lon="0.0236">
        <ele>910.5</ele>
        <time>2022-08-02T09:40:41Z</time>
      </trkpt>
      <trkpt lat="42.87886" lon="0.02375">
        <ele>912</ele>
        <time>2022-08-02T09:40:46Z</time>
      </trkpt>
      <trkpt lat="42.8789" lon="0.02393">
        <ele>913.6</ele>
        <time>2022-08-02T09:40:52Z</time>
      </trkpt>
      <trkpt lat="42.87893" lon="0.02407">
        <ele>913.7</ele>
        <time>2022-08-02T09:40:57Z</time>
      </trkpt>
      <trkpt lat="42.87897" lon="0.02425">
        <ele>915.2</ele>
        <time>2022-08-02T09:41:03Z</time>
      </trkpt>
      <trkpt lat="42.879" lon="0.0244">
        <ele>915.1</ele>
        <time>2022-08-02T09:41:08Z</time>
      </trkpt>
      <trkpt lat="42.87904" lon="0.02454">
        <ele>916.5</ele>
        <time>2022-08-02T09:41:14Z</time>
      </trkpt>
      <trkpt lat="42.87908" lon="0.02471">
        <ele>918</ele>
        <time>2022-08-02T09:41:19Z</time>
      </trkpt>
      <trkpt lat="42.87912" lon="0.02488">
        <ele>918.1</ele>
        <time>2022-08-02T09:41:25Z</time>
      </trkpt>
      <trkpt lat="42.87915" lon="0.02505">
        <ele>919.3</ele>
        <time>2022-08-02T09:41:30Z</time>
      </trkpt>
      <trkpt lat="42.87919" lon="0.02524">
        <ele>921.5</ele>
        <time>2022-08-02T09:41:36Z</time>
      </trkpt>
      <trkpt lat="42.87923" lon="0.02542">
        <ele>922.1</ele>
        <time>2022-08-02T09:41:42Z</time>
      </trkpt>
      <trkpt lat="42.87926" lon="0.02555">
        <ele>921.9</ele>
        <time>2022-08-02T09:41:47Z</time>
      </trkpt>
      <trkpt lat="42.8793" lon="0.02568">
        <ele>923.3</ele>
        <time>2022-08-02T09:41:52Z</time>
      </trkpt>
      <trkpt lat="42.87935" lon="0.02584">
        <ele>924</ele>
        <time>2022-08-02T09:41:58Z</time>
      </trkpt>
      <trkpt lat="42.87939" lon="0.02598">
        <ele>924.6</ele>
        <time>2022-08-02T09:42:03Z</time>
      </trkpt>
      <trkpt lat="42.87945" lon="0.02613">
        <ele>925.3</ele>
        <time>2022-08-02T09:42:09Z</time>
      </trkpt>
      <trkpt lat="42.87952" lon="0.02626">
        <ele>925.6</ele>
        <time>2022-08-02T09:42:15Z</time>
      </trkpt>
      <trkpt lat="42.8796" lon="0.0264">
        <ele>926.8</ele>
        <time>2022-08-02T09:42:21Z</time>
      </trkpt>
      <trkpt lat="42.87969" lon="0.0265">
        <ele>926.8</ele>
        <time>2022-08-02T09:42:26Z</time>
      </trkpt>
      <trkpt lat="42.8798" lon="0.02661">
        <ele>928.1</ele>
        <time>2022-08-02T09:42:32Z</time>
      </trkpt>
      <trkpt lat="42.8799" lon="0.02673">
        <ele>928.1</ele>
        <time>2022-08-02T09:42:38Z</time>
      </trkpt>
      <trkpt lat="42.87998" lon="0.02684">
        <ele>929.3</ele>
        <time>2022-08-02T09:42:43Z</time>
      </trkpt>
      <trkpt lat="42.88008" lon="0.02695">
        <ele>930</ele>
        <time>2022-08-02T09:42:49Z</time>
      </trkpt>
      <trkpt lat="42.8802" lon="0.02708">
        <ele>930.4</ele>
        <time>2022-08-02T09:42:55Z</time>
      </trkpt>
      <trkpt lat="42.88031" lon="0.02719">
        <ele>931.2</ele>
        <time>2022-08-02T09:43:01Z</time>
      </trkpt>
      <trkpt lat="42.8804" lon="0.02729">
        <ele>932.1</ele>
        <time>2022-08-02T09:43:07Z</time>
      </trkpt>
      <trkpt lat="42.88049" lon="0.02741">
        <ele>932.8</ele>
        <time>2022-08-02T09:43:13Z</time>
      </trkpt>
      <trkpt lat="42.88058" lon="0.0275">
        <ele>932.5</ele>
        <time>2022-08-02T09:43:18Z</time>
      </trkpt>
      <trkpt lat="42.88068" lon="0.02762">
        <ele>933.3</ele>
        <time>2022-08-02T09:43:24Z</time>
      </trkpt>
      <trkpt lat="42.88076" lon="0.02772">
        <ele>934.3</ele>
        <time>2022-08-02T09:43:29Z</time>
      </trkpt>
      <trkpt lat="42.88086" lon="0.02782">
        <ele>935.3</ele>
        <time>2022-08-02T09:43:35Z</time>
      </trkpt>
      <trkpt lat="42.88095" lon="0.0279">
        <ele>936.6</ele>
        <time>2022-08-02T09:43:40Z</time>
      </trkpt>
      <trkpt lat="42.88104" lon="0.02802">
        <ele>937.5</ele>
        <time>2022-08-02T09:43:46Z</time>
      </trkpt>
      <trkpt lat="42.88114" lon="0.02813">
        <ele>937.7</ele>
        <time>2022-08-02T09:43:52Z</time>
      </trkpt>
      <trkpt lat="42.88121" lon="0.02823">
        <ele>938.3</ele>
        <time>2022-08-02T09:43:57Z</time>
      </trkpt>
      <trkpt lat="42.88131" lon="0.02834">
        <ele>938.4</ele>
        <time>2022-08-02T09:44:03Z</time>
      </trkpt>
      <trkpt lat="42.8814" lon="0.02846">
        <ele>939.3</ele>
        <time>2022-08-02T09:44:09Z</time>
      </trkpt>
      <trkpt lat="42.88149" lon="0.02856">
        <ele>940.9</ele>
        <time>2022-08-02T09:44:15Z</time>
      </trkpt>
      <trkpt lat="42.88158" lon="0.02864">
        <ele>941.8</ele>
        <time>2022-08-02T09:44:20Z</time>
      </trkpt>
      <trkpt lat="42.88167" lon="0.02874">
        <ele>942.4</ele>
        <time>2022-08-02T09:44:26Z</time>
      </trkpt>
      <trkpt lat="42.88176" lon="0.02886">
        <ele>942.1</ele>
        <time>2022-08-02T09:44:32Z</time>
      </trkpt>
      <trkpt lat="42.88183" lon="0.02895">
        <ele>943.1</ele>
        <time>2022-08-02T09:44:37Z</time>
      </trkpt>
      <trkpt lat="42.88192" lon="0.02905">
        <ele>944.1</ele>
        <time>2022-08-02T09:44:43Z</time>
      </trkpt>
      <trkpt lat="42.882" lon="0.02914">
        <ele>945.2</ele>
        <time>2022-08-02T09:44:48Z</time>
      </trkpt>
      <trkpt lat="42.88211" lon="0.02924">
        <ele>946.4</ele>
        <time>2022-08-02T09:44:54Z</time>
      </trkpt>
      <trkpt lat="42.88219" lon="0.02933">
        <ele>947</ele>
        <time>2022-08-02T09:44:59Z</time>
      </trkpt>
      <trkpt lat="42.88229" lon="0.02944">
        <ele>948.9</ele>
        <time>2022-08-02T09:45:05Z</time>
      </trkpt>
      <trkpt lat="42.88237" lon="0.02951">
        <ele>950.6</ele>
        <time>2022-08-02T09:45:10Z</time>
      </trkpt>
      <trkpt lat="42.88245" lon="0.0296">
        <ele>950.8</ele>
        <time>2022-08-02T09:45:16Z</time>
      </trkpt>
      <trkpt lat="42.88251" lon="0.02968">
        <ele>951.5</ele>
        <time>2022-08-02T09:45:21Z</time>
      </trkpt>
      <trkpt lat="42.88259" lon="0.02976">
        <ele>952.1</ele>
        <time>2022-08-02T09:45:26Z</time>
      </trkpt>
      <trkpt lat="42.88269" lon="0.02983">
        <ele>951.1</ele>
        <time>2022-08-02T09:45:31Z</time>
      </trkpt>
      <trkpt lat="42.88278" lon="0.02992">
        <ele>952.9</ele>
        <time>2022-08-02T09:45:37Z</time>
      </trkpt>
      <trkpt lat="42.88285" lon="0.03001">
        <ele>953.3</ele>
        <time>2022-08-02T09:45:42Z</time>
      </trkpt>
      <trkpt lat="42.88293" lon="0.03008">
        <ele>954.2</ele>
        <time>2022-08-02T09:45:47Z</time>
      </trkpt>
      <trkpt lat="42.883" lon="0.03015">
        <ele>954.6</ele>
        <time>2022-08-02T09:45:53Z</time>
      </trkpt>
      <trkpt lat="42.8831" lon="0.03026">
        <ele>955.1</ele>
        <time>2022-08-02T09:45:59Z</time>
      </trkpt>
      <trkpt lat="42.88316" lon="0.03035">
        <ele>955.8</ele>
        <time>2022-08-02T09:46:04Z</time>
      </trkpt>
      <trkpt lat="42.88322" lon="0.03047">
        <ele>956.8</ele>
        <time>2022-08-02T09:46:10Z</time>
      </trkpt>
      <trkpt lat="42.88326" lon="0.03058">
        <ele>958.9</ele>
        <time>2022-08-02T09:46:15Z</time>
      </trkpt>
      <trkpt lat="42.88333" lon="0.03071">
        <ele>960</ele>
        <time>2022-08-02T09:46:21Z</time>
      </trkpt>
      <trkpt lat="42.88334" lon="0.03083">
        <ele>963.3</ele>
        <time>2022-08-02T09:46:26Z</time>
      </trkpt>
      <trkpt lat="42.88335" lon="0.03099">
        <ele>965.3</ele>
        <time>2022-08-02T09:46:32Z</time>
      </trkpt>
      <trkpt lat="42.88336" lon="0.03111">
        <ele>967.4</ele>
        <time>2022-08-02T09:46:37Z</time>
      </trkpt>
      <trkpt lat="42.88337" lon="0.03122">
        <ele>968.5</ele>
        <time>2022-08-02T09:46:42Z</time>
      </trkpt>
      <trkpt lat="42.88339" lon="0.03134">
        <ele>969.5</ele>
        <time>2022-08-02T09:46:47Z</time>
      </trkpt>
      <trkpt lat="42.8834" lon="0.03147">
        <ele>971.2</ele>
        <time>2022-08-02T09:46:52Z</time>
      </trkpt>
      <trkpt lat="42.88336" lon="0.03163">
        <ele>974.1</ele>
        <time>2022-08-02T09:46:58Z</time>
      </trkpt>
      <trkpt lat="42.88329" lon="0.03179">
        <ele>977.6</ele>
        <time>2022-08-02T09:47:04Z</time>
      </trkpt>
      <trkpt lat="42.88322" lon="0.03195">
        <ele>980.1</ele>
        <time>2022-08-02T09:47:10Z</time>
      </trkpt>
      <trkpt lat="42.88318" lon="0.03207">
        <ele>981.9</ele>
        <time>2022-08-02T09:47:15Z</time>
      </trkpt>
      <trkpt lat="42.88313" lon="0.03219">
        <ele>983.4</ele>
        <time>2022-08-02T09:47:20Z</time>
      </trkpt>
      <trkpt lat="42.88309" lon="0.0323">
        <ele>987.2</ele>
        <time>2022-08-02T09:47:25Z</time>
      </trkpt>
      <trkpt lat="42.88306" lon="0.03245">
        <ele>991.1</ele>
        <time>2022-08-02T09:47:30Z</time>
      </trkpt>
      <trkpt lat="42.88303" lon="0.03261">
        <ele>995.4</ele>
        <time>2022-08-02T09:47:36Z</time>
      </trkpt>
      <trkpt lat="42.88302" lon="0.03274">
        <ele>998</ele>
        <time>2022-08-02T09:47:42Z</time>
      </trkpt>
      <trkpt lat="42.88302" lon="0.03288">
        <ele>1000.1</ele>
        <time>2022-08-02T09:47:47Z</time>
      </trkpt>
      <trkpt lat="42.88304" lon="0.03302">
        <ele>1002.8</ele>
        <time>2022-08-02T09:47:53Z</time>
      </trkpt>
      <trkpt lat="42.88303" lon="0.03314">
        <ele>997.9</ele>
        <time>2022-08-02T09:47:58Z</time>
      </trkpt>
      <trkpt lat="42.88304" lon="0.03326">
        <ele>997.4</ele>
        <time>2022-08-02T09:48:03Z</time>
      </trkpt>
      <trkpt lat="42.88303" lon="0.03338">
        <ele>995.6</ele>
        <time>2022-08-02T09:48:08Z</time>
      </trkpt>
      <trkpt lat="42.88302" lon="0.0335">
        <ele>994.4</ele>
        <time>2022-08-02T09:48:14Z</time>
      </trkpt>
      <trkpt lat="42.88304" lon="0.03361">
        <ele>994.3</ele>
        <time>2022-08-02T09:48:19Z</time>
      </trkpt>
      <trkpt lat="42.88304" lon="0.03376">
        <ele>993.9</ele>
        <time>2022-08-02T09:48:25Z</time>
      </trkpt>
      <trkpt lat="42.88304" lon="0.03391">
        <ele>993.7</ele>
        <time>2022-08-02T09:48:31Z</time>
      </trkpt>
      <trkpt lat="42.88305" lon="0.03402">
        <ele>993</ele>
        <time>2022-08-02T09:48:36Z</time>
      </trkpt>
      <trkpt lat="42.88306" lon="0.03415">
        <ele>992.6</ele>
        <time>2022-08-02T09:48:42Z</time>
      </trkpt>
      <trkpt lat="42.88306" lon="0.03427">
        <ele>992.3</ele>
        <time>2022-08-02T09:48:47Z</time>
      </trkpt>
      <trkpt lat="42.88305" lon="0.03439">
        <ele>993.4</ele>
        <time>2022-08-02T09:48:52Z</time>
      </trkpt>
      <trkpt lat="42.88305" lon="0.03452">
        <ele>992.8</ele>
        <time>2022-08-02T09:48:58Z</time>
      </trkpt>
      <trkpt lat="42.88301" lon="0.03465">
        <ele>992.7</ele>
        <time>2022-08-02T09:49:04Z</time>
      </trkpt>
      <trkpt lat="42.88297" lon="0.03477">
        <ele>992.1</ele>
        <time>2022-08-02T09:49:09Z</time>
      </trkpt>
      <trkpt lat="42.8829" lon="0.03492">
        <ele>992.9</ele>
        <time>2022-08-02T09:49:15Z</time>
      </trkpt>
      <trkpt lat="42.88282" lon="0.03505">
        <ele>994.3</ele>
        <time>2022-08-02T09:49:21Z</time>
      </trkpt>
      <trkpt lat="42.88278" lon="0.03518">
        <ele>993.7</ele>
        <time>2022-08-02T09:49:26Z</time>
      </trkpt>
      <trkpt lat="42.88275" lon="0.0353">
        <ele>993.3</ele>
        <time>2022-08-02T09:49:31Z</time>
      </trkpt>
      <trkpt lat="42.88272" lon="0.03544">
        <ele>993.4</ele>
        <time>2022-08-02T09:49:37Z</time>
      </trkpt>
      <trkpt lat="42.88271" lon="0.03556">
        <ele>993.8</ele>
        <time>2022-08-02T09:49:43Z</time>
      </trkpt>
      <trkpt lat="42.88271" lon="0.0357">
        <ele>995.6</ele>
        <time>2022-08-02T09:49:48Z</time>
      </trkpt>
      <trkpt lat="42.8827" lon="0.03584">
        <ele>996.4</ele>
        <time>2022-08-02T09:49:53Z</time>
      </trkpt>
      <trkpt lat="42.88269" lon="0.03597">
        <ele>997.8</ele>
        <time>2022-08-02T09:49:59Z</time>
      </trkpt>
      <trkpt lat="42.8827" lon="0.03609">
        <ele>998.3</ele>
        <time>2022-08-02T09:50:04Z</time>
      </trkpt>
      <trkpt lat="42.8827" lon="0.0362">
        <ele>997</ele>
        <time>2022-08-02T09:50:09Z</time>
      </trkpt>
      <trkpt lat="42.88269" lon="0.03633">
        <ele>997.2</ele>
        <time>2022-08-02T09:50:15Z</time>
      </trkpt>
      <trkpt lat="42.88269" lon="0.03644">
        <ele>998.1</ele>
        <time>2022-08-02T09:50:20Z</time>
      </trkpt>
      <trkpt lat="42.88268" lon="0.03655">
        <ele>1000.3</ele>
        <time>2022-08-02T09:50:26Z</time>
      </trkpt>
      <trkpt lat="42.88269" lon="0.03666">
        <ele>1001.7</ele>
        <time>2022-08-02T09:50:31Z</time>
      </trkpt>
      <trkpt lat="42.88269" lon="0.03677">
        <ele>1001.9</ele>
        <time>2022-08-02T09:50:36Z</time>
      </trkpt>
      <trkpt lat="42.88271" lon="0.03693">
        <ele>1003.4</ele>
        <time>2022-08-02T09:50:42Z</time>
      </trkpt>
      <trkpt lat="42.88273" lon="0.03706">
        <ele>1003.4</ele>
        <time>2022-08-02T09:50:47Z</time>
      </trkpt>
      <trkpt lat="42.88274" lon="0.03718">
        <ele>1003.4</ele>
        <time>2022-08-02T09:50:52Z</time>
      </trkpt>
      <trkpt lat="42.88275" lon="0.03731">
        <ele>1004.4</ele>
        <time>2022-08-02T09:50:57Z</time>
      </trkpt>
      <trkpt lat="42.88279" lon="0.03744">
        <ele>1004.9</ele>
        <time>2022-08-02T09:51:03Z</time>
      </trkpt>
      <trkpt lat="42.88281" lon="0.03758">
        <ele>1004.8</ele>
        <time>2022-08-02T09:51:09Z</time>
      </trkpt>
      <trkpt lat="42.88284" lon="0.03772">
        <ele>1005.3</ele>
        <time>2022-08-02T09:51:15Z</time>
      </trkpt>
      <trkpt lat="42.88286" lon="0.03786">
        <ele>1005.4</ele>
        <time>2022-08-02T09:51:21Z</time>
      </trkpt>
      <trkpt lat="42.88287" lon="0.03797">
        <ele>1006.4</ele>
        <time>2022-08-02T09:51:26Z</time>
      </trkpt>
      <trkpt lat="42.8829" lon="0.03805">
        <ele>1006.2</ele>
        <time>2022-08-02T09:51:31Z</time>
      </trkpt>
      <trkpt lat="42.88295" lon="0.03814">
        <ele>1007.5</ele>
        <time>2022-08-02T09:51:36Z</time>
      </trkpt>
      <trkpt lat="42.88299" lon="0.03826">
        <ele>1007.7</ele>
        <time>2022-08-02T09:51:42Z</time>
      </trkpt>
      <trkpt lat="42.88302" lon="0.03836">
        <ele>1008.7</ele>
        <time>2022-08-02T09:51:47Z</time>
      </trkpt>
      <trkpt lat="42.88308" lon="0.03848">
        <ele>1009.3</ele>
        <time>2022-08-02T09:51:53Z</time>
      </trkpt>
      <trkpt lat="42.88314" lon="0.0386">
        <ele>1010</ele>
        <time>2022-08-02T09:51:59Z</time>
      </trkpt>
      <trkpt lat="42.88317" lon="0.03869">
        <ele>1011.1</ele>
        <time>2022-08-02T09:52:04Z</time>
      </trkpt>
      <trkpt lat="42.88323" lon="0.0388">
        <ele>1011.5</ele>
        <time>2022-08-02T09:52:09Z</time>
      </trkpt>
      <trkpt lat="42.88329" lon="0.03892">
        <ele>1011.6</ele>
        <time>2022-08-02T09:52:15Z</time>
      </trkpt>
      <trkpt lat="42.88334" lon="0.03902">
        <ele>1011</ele>
        <time>2022-08-02T09:52:20Z</time>
      </trkpt>
      <trkpt lat="42.88339" lon="0.03915">
        <ele>1012.6</ele>
        <time>2022-08-02T09:52:26Z</time>
      </trkpt>
      <trkpt lat="42.88343" lon="0.03925">
        <ele>1013.5</ele>
        <time>2022-08-02T09:52:32Z</time>
      </trkpt>
      <trkpt lat="42.88348" lon="0.03935">
        <ele>1013.4</ele>
        <time>2022-08-02T09:52:37Z</time>
      </trkpt>
      <trkpt lat="42.88352" lon="0.03945">
        <ele>1015.4</ele>
        <time>2022-08-02T09:52:43Z</time>
      </trkpt>
      <trkpt lat="42.88355" lon="0.03955">
        <ele>1016</ele>
        <time>2022-08-02T09:52:48Z</time>
      </trkpt>
      <trkpt lat="42.8836" lon="0.03967">
        <ele>1016.4</ele>
        <time>2022-08-02T09:52:53Z</time>
      </trkpt>
      <trkpt lat="42.88365" lon="0.03979">
        <ele>1017.2</ele>
        <time>2022-08-02T09:52:59Z</time>
      </trkpt>
      <trkpt lat="42.88371" lon="0.0399">
        <ele>1018.3</ele>
        <time>2022-08-02T09:53:04Z</time>
      </trkpt>
      <trkpt lat="42.88375" lon="0.04002">
        <ele>1017.9</ele>
        <time>2022-08-02T09:53:10Z</time>
      </trkpt>
      <trkpt lat="42.88377" lon="0.04014">
        <ele>1019.1</ele>
        <time>2022-08-02T09:53:15Z</time>
      </trkpt>
      <trkpt lat="42.88375" lon="0.04028">
        <ele>1019.8</ele>
        <time>2022-08-02T09:53:21Z</time>
      </trkpt>
      <trkpt lat="42.88365" lon="0.04034">
        <ele>1020.1</ele>
        <time>2022-08-02T09:53:27Z</time>
      </trkpt>
      <trkpt lat="42.88354" lon="0.04029">
        <ele>1019.1</ele>
        <time>2022-08-02T09:53:32Z</time>
      </trkpt>
      <trkpt lat="42.88346" lon="0.04018">
        <ele>1018.2</ele>
        <time>2022-08-02T09:53:37Z</time>
      </trkpt>
      <trkpt lat="42.88338" lon="0.04004">
        <ele>1017</ele>
        <time>2022-08-02T09:53:43Z</time>
      </trkpt>
      <trkpt lat="42.8833" lon="0.03993">
        <ele>1019.3</ele>
        <time>2022-08-02T09:53:48Z</time>
      </trkpt>
      <trkpt lat="42.88323" lon="0.03983">
        <ele>1020</ele>
        <time>2022-08-02T09:53:53Z</time>
      </trkpt>
      <trkpt lat="42.88315" lon="0.03975">
        <ele>1020.9</ele>
        <time>2022-08-02T09:53:58Z</time>
      </trkpt>
      <trkpt lat="42.88306" lon="0.03968">
        <ele>1021.2</ele>
        <time>2022-08-02T09:54:04Z</time>
      </trkpt>
      <trkpt lat="42.88298" lon="0.03963">
        <ele>1020.6</ele>
        <time>2022-08-02T09:54:09Z</time>
      </trkpt>
      <trkpt lat="42.8829" lon="0.03958">
        <ele>1022.8</ele>
        <time>2022-08-02T09:54:15Z</time>
      </trkpt>
      <trkpt lat="42.88284" lon="0.03954">
        <ele>1024.4</ele>
        <time>2022-08-02T09:54:20Z</time>
      </trkpt>
      <trkpt lat="42.88274" lon="0.03947">
        <ele>1025.7</ele>
        <time>2022-08-02T09:54:26Z</time>
      </trkpt>
      <trkpt lat="42.88265" lon="0.03945">
        <ele>1027.7</ele>
        <time>2022-08-02T09:54:31Z</time>
      </trkpt>
      <trkpt lat="42.88256" lon="0.03952">
        <ele>1030.8</ele>
        <time>2022-08-02T09:54:37Z</time>
      </trkpt>
      <trkpt lat="42.88251" lon="0.03965">
        <ele>1032.2</ele>
        <time>2022-08-02T09:54:43Z</time>
      </trkpt>
      <trkpt lat="42.88254" lon="0.03978">
        <ele>1034.1</ele>
        <time>2022-08-02T09:54:48Z</time>
      </trkpt>
      <trkpt lat="42.88262" lon="0.03988">
        <ele>1035</ele>
        <time>2022-08-02T09:54:53Z</time>
      </trkpt>
      <trkpt lat="42.88275" lon="0.03992">
        <ele>1034</ele>
        <time>2022-08-02T09:54:59Z</time>
      </trkpt>
      <trkpt lat="42.88286" lon="0.03993">
        <ele>1034.4</ele>
        <time>2022-08-02T09:55:04Z</time>
      </trkpt>
      <trkpt lat="42.88298" lon="0.03999">
        <ele>1036.8</ele>
        <time>2022-08-02T09:55:10Z</time>
      </trkpt>
      <trkpt lat="42.88309" lon="0.04007">
        <ele>1036.4</ele>
        <time>2022-08-02T09:55:16Z</time>
      </trkpt>
      <trkpt lat="42.88318" lon="0.04015">
        <ele>1038.8</ele>
        <time>2022-08-02T09:55:21Z</time>
      </trkpt>
      <trkpt lat="42.88325" lon="0.04027">
        <ele>1039.5</ele>
        <time>2022-08-02T09:55:27Z</time>
      </trkpt>
      <trkpt lat="42.88332" lon="0.04036">
        <ele>1038.9</ele>
        <time>2022-08-02T09:55:32Z</time>
      </trkpt>
      <trkpt lat="42.8834" lon="0.04049">
        <ele>1040.2</ele>
        <time>2022-08-02T09:55:38Z</time>
      </trkpt>
      <trkpt lat="42.88346" lon="0.04059">
        <ele>1041.8</ele>
        <time>2022-08-02T09:55:44Z</time>
      </trkpt>
      <trkpt lat="42.88355" lon="0.0407">
        <ele>1041.4</ele>
        <time>2022-08-02T09:55:49Z</time>
      </trkpt>
      <trkpt lat="42.88365" lon="0.04081">
        <ele>1042.6</ele>
        <time>2022-08-02T09:55:55Z</time>
      </trkpt>
      <trkpt lat="42.88372" lon="0.04091">
        <ele>1043.4</ele>
        <time>2022-08-02T09:56:00Z</time>
      </trkpt>
      <trkpt lat="42.88381" lon="0.04102">
        <ele>1044.3</ele>
        <time>2022-08-02T09:56:06Z</time>
      </trkpt>
      <trkpt lat="42.88387" lon="0.04111">
        <ele>1045.1</ele>
        <time>2022-08-02T09:56:11Z</time>
      </trkpt>
      <trkpt lat="42.88396" lon="0.04121">
        <ele>1046.8</ele>
        <time>2022-08-02T09:56:17Z</time>
      </trkpt>
      <trkpt lat="42.88404" lon="0.04133">
        <ele>1047.4</ele>
        <time>2022-08-02T09:56:23Z</time>
      </trkpt>
      <trkpt lat="42.88411" lon="0.04143">
        <ele>1048.9</ele>
        <time>2022-08-02T09:56:28Z</time>
      </trkpt>
      <trkpt lat="42.8842" lon="0.04154">
        <ele>1046.9</ele>
        <time>2022-08-02T09:56:34Z</time>
      </trkpt>
      <trkpt lat="42.88423" lon="0.04167">
        <ele>1050.2</ele>
        <time>2022-08-02T09:56:40Z</time>
      </trkpt>
      <trkpt lat="42.88431" lon="0.04178">
        <ele>1051.3</ele>
        <time>2022-08-02T09:56:46Z</time>
      </trkpt>
      <trkpt lat="42.88439" lon="0.04187">
        <ele>1053.4</ele>
        <time>2022-08-02T09:56:51Z</time>
      </trkpt>
      <trkpt lat="42.8845" lon="0.04196">
        <ele>1055.1</ele>
        <time>2022-08-02T09:56:57Z</time>
      </trkpt>
      <trkpt lat="42.88458" lon="0.04207">
        <ele>1056.1</ele>
        <time>2022-08-02T09:57:03Z</time>
      </trkpt>
      <trkpt lat="42.88465" lon="0.04217">
        <ele>1057.8</ele>
        <time>2022-08-02T09:57:08Z</time>
      </trkpt>
      <trkpt lat="42.88471" lon="0.04224">
        <ele>1060</ele>
        <time>2022-08-02T09:57:14Z</time>
      </trkpt>
      <trkpt lat="42.8848" lon="0.04233">
        <ele>1062</ele>
        <time>2022-08-02T09:57:19Z</time>
      </trkpt>
      <trkpt lat="42.8849" lon="0.04243">
        <ele>1063.7</ele>
        <time>2022-08-02T09:57:25Z</time>
      </trkpt>
      <trkpt lat="42.88497" lon="0.04252">
        <ele>1064.8</ele>
        <time>2022-08-02T09:57:31Z</time>
      </trkpt>
      <trkpt lat="42.88503" lon="0.04259">
        <ele>1066.8</ele>
        <time>2022-08-02T09:57:36Z</time>
      </trkpt>
      <trkpt lat="42.88508" lon="0.04268">
        <ele>1068.3</ele>
        <time>2022-08-02T09:57:41Z</time>
      </trkpt>
      <trkpt lat="42.88515" lon="0.04281">
        <ele>1069.4</ele>
        <time>2022-08-02T09:57:47Z</time>
      </trkpt>
      <trkpt lat="42.88523" lon="0.04291">
        <ele>1071.7</ele>
        <time>2022-08-02T09:57:52Z</time>
      </trkpt>
      <trkpt lat="42.88529" lon="0.04301">
        <ele>1072.1</ele>
        <time>2022-08-02T09:57:57Z</time>
      </trkpt>
      <trkpt lat="42.88538" lon="0.04313">
        <ele>1072.1</ele>
        <time>2022-08-02T09:58:03Z</time>
      </trkpt>
      <trkpt lat="42.88549" lon="0.04323">
        <ele>1072.3</ele>
        <time>2022-08-02T09:58:09Z</time>
      </trkpt>
      <trkpt lat="42.88556" lon="0.04334">
        <ele>1072.6</ele>
        <time>2022-08-02T09:58:15Z</time>
      </trkpt>
      <trkpt lat="42.88562" lon="0.04344">
        <ele>1075</ele>
        <time>2022-08-02T09:58:20Z</time>
      </trkpt>
      <trkpt lat="42.8857" lon="0.04354">
        <ele>1075.2</ele>
        <time>2022-08-02T09:58:26Z</time>
      </trkpt>
      <trkpt lat="42.88577" lon="0.04366">
        <ele>1074.6</ele>
        <time>2022-08-02T09:58:32Z</time>
      </trkpt>
      <trkpt lat="42.88586" lon="0.04376">
        <ele>1074.1</ele>
        <time>2022-08-02T09:58:38Z</time>
      </trkpt>
      <trkpt lat="42.88594" lon="0.04386">
        <ele>1073.2</ele>
        <time>2022-08-02T09:58:44Z</time>
      </trkpt>
      <trkpt lat="42.88603" lon="0.04394">
        <ele>1077.1</ele>
        <time>2022-08-02T09:58:49Z</time>
      </trkpt>
      <trkpt lat="42.8861" lon="0.04405">
        <ele>1079.9</ele>
        <time>2022-08-02T09:58:55Z</time>
      </trkpt>
      <trkpt lat="42.88613" lon="0.04414">
        <ele>1080.4</ele>
        <time>2022-08-02T09:59:00Z</time>
      </trkpt>
      <trkpt lat="42.88617" lon="0.04423">
        <ele>1082.3</ele>
        <time>2022-08-02T09:59:05Z</time>
      </trkpt>
      <trkpt lat="42.88625" lon="0.04432">
        <ele>1081.1</ele>
        <time>2022-08-02T09:59:11Z</time>
      </trkpt>
      <trkpt lat="42.88633" lon="0.0444">
        <ele>1081.1</ele>
        <time>2022-08-02T09:59:17Z</time>
      </trkpt>
      <trkpt lat="42.88639" lon="0.04449">
        <ele>1082.5</ele>
        <time>2022-08-02T09:59:22Z</time>
      </trkpt>
      <trkpt lat="42.88645" lon="0.04457">
        <ele>1082.5</ele>
        <time>2022-08-02T09:59:27Z</time>
      </trkpt>
      <trkpt lat="42.88653" lon="0.04466">
        <ele>1082.5</ele>
        <time>2022-08-02T09:59:33Z</time>
      </trkpt>
      <trkpt lat="42.88659" lon="0.04475">
        <ele>1083.7</ele>
        <time>2022-08-02T09:59:38Z</time>
      </trkpt>
      <trkpt lat="42.88667" lon="0.04483">
        <ele>1084.2</ele>
        <time>2022-08-02T09:59:44Z</time>
      </trkpt>
      <trkpt lat="42.88677" lon="0.04491">
        <ele>1085.8</ele>
        <time>2022-08-02T09:59:50Z</time>
      </trkpt>
      <trkpt lat="42.88686" lon="0.04498">
        <ele>1086.6</ele>
        <time>2022-08-02T09:59:56Z</time>
      </trkpt>
      <trkpt lat="42.88692" lon="0.04501">
        <ele>1087.9</ele>
        <time>2022-08-02T10:00:01Z</time>
      </trkpt>
      <trkpt lat="42.887" lon="0.04509">
        <ele>1091.8</ele>
        <time>2022-08-02T10:00:07Z</time>
      </trkpt>
      <trkpt lat="42.88705" lon="0.04516">
        <ele>1091.5</ele>
        <time>2022-08-02T10:00:12Z</time>
      </trkpt>
      <trkpt lat="42.88714" lon="0.04527">
        <ele>1090.8</ele>
        <time>2022-08-02T10:00:18Z</time>
      </trkpt>
      <trkpt lat="42.88722" lon="0.04539">
        <ele>1090.4</ele>
        <time>2022-08-02T10:00:24Z</time>
      </trkpt>
      <trkpt lat="42.88731" lon="0.0455">
        <ele>1091.3</ele>
        <time>2022-08-02T10:00:30Z</time>
      </trkpt>
      <trkpt lat="42.88739" lon="0.04558">
        <ele>1092</ele>
        <time>2022-08-02T10:00:35Z</time>
      </trkpt>
      <trkpt lat="42.88747" lon="0.04564">
        <ele>1092.7</ele>
        <time>2022-08-02T10:00:40Z</time>
      </trkpt>
      <trkpt lat="42.88755" lon="0.04573">
        <ele>1094.2</ele>
        <time>2022-08-02T10:00:45Z</time>
      </trkpt>
      <trkpt lat="42.88761" lon="0.0458">
        <ele>1095.1</ele>
        <time>2022-08-02T10:00:50Z</time>
      </trkpt>
      <trkpt lat="42.8877" lon="0.04588">
        <ele>1096.1</ele>
        <time>2022-08-02T10:00:56Z</time>
      </trkpt>
      <trkpt lat="42.88781" lon="0.04597">
        <ele>1096.4</ele>
        <time>2022-08-02T10:01:02Z</time>
      </trkpt>
      <trkpt lat="42.88791" lon="0.04607">
        <ele>1099.5</ele>
        <time>2022-08-02T10:01:07Z</time>
      </trkpt>
      <trkpt lat="42.88801" lon="0.04617">
        <ele>1099.2</ele>
        <time>2022-08-02T10:01:13Z</time>
      </trkpt>
      <trkpt lat="42.88813" lon="0.04628">
        <ele>1099.5</ele>
        <time>2022-08-02T10:01:18Z</time>
      </trkpt>
      <trkpt lat="42.88819" lon="0.04631">
        <ele>1100.8</ele>
        <time>2022-08-02T10:01:24Z</time>
      </trkpt>
      <trkpt lat="42.88818" lon="0.0463">
        <ele>1101.8</ele>
        <time>2022-08-02T10:01:29Z</time>
      </trkpt>
      <trkpt lat="42.88817" lon="0.0463">
        <ele>1101.6</ele>
        <time>2022-08-02T10:01:34Z</time>
      </trkpt>
      <trkpt lat="42.88817" lon="0.0463">
        <ele>1101.7</ele>
        <time>2022-08-02T10:01:40Z</time>
      </trkpt>
      <trkpt lat="42.88816" lon="0.04631">
        <ele>1101.9</ele>
        <time>2022-08-02T10:01:45Z</time>
      </trkpt>
      <trkpt lat="42.88815" lon="0.0463">
        <ele>1102</ele>
        <time>2022-08-02T10:01:51Z</time>
      </trkpt>
      <trkpt lat="42.88815" lon="0.0463">
        <ele>1102.1</ele>
        <time>2022-08-02T10:01:56Z</time>
      </trkpt>
      <trkpt lat="42.88815" lon="0.0463">
        <ele>1102.2</ele>
        <time>2022-08-02T10:02:02Z</time>
      </trkpt>
      <trkpt lat="42.88815" lon="0.0463">
        <ele>1102.3</ele>
        <time>2022-08-02T10:02:08Z</time>
      </trkpt>
      <trkpt lat="42.88815" lon="0.0463">
        <ele>1102.5</ele>
        <time>2022-08-02T10:02:13Z</time>
      </trkpt>
      <trkpt lat="42.88815" lon="0.0463">
        <ele>1102.6</ele>
        <time>2022-08-02T10:02:18Z</time>
      </trkpt>
      <trkpt lat="42.88815" lon="0.04629">
        <ele>1102.7</ele>
        <time>2022-08-02T10:02:24Z</time>
      </trkpt>
      <trkpt lat="42.88814" lon="0.04629">
        <ele>1103.7</ele>
        <time>2022-08-02T10:02:30Z</time>
      </trkpt>
      <trkpt lat="42.88814" lon="0.04632">
        <ele>1100</ele>
        <time>2022-08-02T10:02:36Z</time>
      </trkpt>
      <trkpt lat="42.88812" lon="0.04637">
        <ele>1098.6</ele>
        <time>2022-08-02T10:02:42Z</time>
      </trkpt>
      <trkpt lat="42.88812" lon="0.04637">
        <ele>1098.9</ele>
        <time>2022-08-02T10:02:47Z</time>
      </trkpt>
      <trkpt lat="42.88812" lon="0.04636">
        <ele>1099.2</ele>
        <time>2022-08-02T10:02:52Z</time>
      </trkpt>
      <trkpt lat="42.88812" lon="0.04636">
        <ele>1099.4</ele>
        <time>2022-08-02T10:02:57Z</time>
      </trkpt>
      <trkpt lat="42.88812" lon="0.04636">
        <ele>1099.5</ele>
        <time>2022-08-02T10:03:03Z</time>
      </trkpt>
      <trkpt lat="42.88812" lon="0.04635">
        <ele>1099.8</ele>
        <time>2022-08-02T10:03:09Z</time>
      </trkpt>
      <trkpt lat="42.88812" lon="0.04635">
        <ele>1100</ele>
        <time>2022-08-02T10:03:14Z</time>
      </trkpt>
      <trkpt lat="42.88812" lon="0.04635">
        <ele>1100.3</ele>
        <time>2022-08-02T10:03:20Z</time>
      </trkpt>
      <trkpt lat="42.88812" lon="0.04634">
        <ele>1101.4</ele>
        <time>2022-08-02T10:03:25Z</time>
      </trkpt>
      <trkpt lat="42.88812" lon="0.04633">
        <ele>1101.8</ele>
        <time>2022-08-02T10:03:30Z</time>
      </trkpt>
      <trkpt lat="42.88812" lon="0.04633">
        <ele>1101.9</ele>
        <time>2022-08-02T10:03:36Z</time>
      </trkpt>
      <trkpt lat="42.88812" lon="0.04633">
        <ele>1102</ele>
        <time>2022-08-02T10:03:41Z</time>
      </trkpt>
      <trkpt lat="42.88811" lon="0.04634">
        <ele>1102.2</ele>
        <time>2022-08-02T10:03:47Z</time>
      </trkpt>
      <trkpt lat="42.88811" lon="0.04634">
        <ele>1102.3</ele>
        <time>2022-08-02T10:03:53Z</time>
      </trkpt>
      <trkpt lat="42.88811" lon="0.04634">
        <ele>1102.6</ele>
        <time>2022-08-02T10:03:59Z</time>
      </trkpt>
      <trkpt lat="42.88811" lon="0.04633">
        <ele>1102.7</ele>
        <time>2022-08-02T10:04:05Z</time>
      </trkpt>
      <trkpt lat="42.8881" lon="0.04633">
        <ele>1102.5</ele>
        <time>2022-08-02T10:04:10Z</time>
      </trkpt>
      <trkpt lat="42.88809" lon="0.04632">
        <ele>1104.6</ele>
        <time>2022-08-02T10:04:16Z</time>
      </trkpt>
      <trkpt lat="42.88808" lon="0.04632">
        <ele>1104.8</ele>
        <time>2022-08-02T10:04:21Z</time>
      </trkpt>
      <trkpt lat="42.8881" lon="0.0463">
        <ele>1104.7</ele>
        <time>2022-08-02T10:04:27Z</time>
      </trkpt>
      <trkpt lat="42.88811" lon="0.04629">
        <ele>1106.4</ele>
        <time>2022-08-02T10:04:33Z</time>
      </trkpt>
      <trkpt lat="42.88817" lon="0.04629">
        <ele>1108.6</ele>
        <time>2022-08-02T10:04:38Z</time>
      </trkpt>
      <trkpt lat="42.88827" lon="0.04631">
        <ele>1103.9</ele>
        <time>2022-08-02T10:04:44Z</time>
      </trkpt>
      <trkpt lat="42.88839" lon="0.04632">
        <ele>1103.5</ele>
        <time>2022-08-02T10:04:50Z</time>
      </trkpt>
      <trkpt lat="42.88852" lon="0.04636">
        <ele>1100.2</ele>
        <time>2022-08-02T10:04:55Z</time>
      </trkpt>
      <trkpt lat="42.88864" lon="0.04639">
        <ele>1099.1</ele>
        <time>2022-08-02T10:05:00Z</time>
      </trkpt>
      <trkpt lat="42.88875" lon="0.04643">
        <ele>1100.8</ele>
        <time>2022-08-02T10:05:06Z</time>
      </trkpt>
      <trkpt lat="42.88882" lon="0.04648">
        <ele>1101.6</ele>
        <time>2022-08-02T10:05:11Z</time>
      </trkpt>
      <trkpt lat="42.8889" lon="0.04652">
        <ele>1102.6</ele>
        <time>2022-08-02T10:05:16Z</time>
      </trkpt>
      <trkpt lat="42.88898" lon="0.04656">
        <ele>1103.3</ele>
        <time>2022-08-02T10:05:21Z</time>
      </trkpt>
      <trkpt lat="42.88907" lon="0.04662">
        <ele>1107.1</ele>
        <time>2022-08-02T10:05:27Z</time>
      </trkpt>
      <trkpt lat="42.88917" lon="0.04664">
        <ele>1109.2</ele>
        <time>2022-08-02T10:05:33Z</time>
      </trkpt>
      <trkpt lat="42.88926" lon="0.04668">
        <ele>1108.1</ele>
        <time>2022-08-02T10:05:38Z</time>
      </trkpt>
      <trkpt lat="42.88938" lon="0.04673">
        <ele>1106.3</ele>
        <time>2022-08-02T10:05:44Z</time>
      </trkpt>
      <trkpt lat="42.88948" lon="0.04676">
        <ele>1110.6</ele>
        <time>2022-08-02T10:05:50Z</time>
      </trkpt>
      <trkpt lat="42.88958" lon="0.04677">
        <ele>1113.2</ele>
        <time>2022-08-02T10:05:55Z</time>
      </trkpt>
      <trkpt lat="42.88967" lon="0.04681">
        <ele>1113.9</ele>
        <time>2022-08-02T10:06:00Z</time>
      </trkpt>
      <trkpt lat="42.88975" lon="0.04684">
        <ele>1116.6</ele>
        <time>2022-08-02T10:06:06Z</time>
      </trkpt>
      <trkpt lat="42.88984" lon="0.04687">
        <ele>1116.8</ele>
        <time>2022-08-02T10:06:11Z</time>
      </trkpt>
      <trkpt lat="42.88992" lon="0.04691">
        <ele>1118</ele>
        <time>2022-08-02T10:06:16Z</time>
      </trkpt>
      <trkpt lat="42.88999" lon="0.04696">
        <ele>1118.8</ele>
        <time>2022-08-02T10:06:21Z</time>
      </trkpt>
      <trkpt lat="42.89009" lon="0.04701">
        <ele>1121.8</ele>
        <time>2022-08-02T10:06:27Z</time>
      </trkpt>
      <trkpt lat="42.89017" lon="0.04709">
        <ele>1121.1</ele>
        <time>2022-08-02T10:06:33Z</time>
      </trkpt>
      <trkpt lat="42.89025" lon="0.04718">
        <ele>1121.8</ele>
        <time>2022-08-02T10:06:38Z</time>
      </trkpt>
      <trkpt lat="42.89035" lon="0.04729">
        <ele>1122.2</ele>
        <time>2022-08-02T10:06:44Z</time>
      </trkpt>
      <trkpt lat="42.89043" lon="0.0474">
        <ele>1121.6</ele>
        <time>2022-08-02T10:06:50Z</time>
      </trkpt>
      <trkpt lat="42.89049" lon="0.04751">
        <ele>1122.4</ele>
        <time>2022-08-02T10:06:56Z</time>
      </trkpt>
      <trkpt lat="42.89054" lon="0.04764">
        <ele>1122.8</ele>
        <time>2022-08-02T10:07:01Z</time>
      </trkpt>
      <trkpt lat="42.8906" lon="0.04777">
        <ele>1122.7</ele>
        <time>2022-08-02T10:07:07Z</time>
      </trkpt>
      <trkpt lat="42.89066" lon="0.04786">
        <ele>1123.4</ele>
        <time>2022-08-02T10:07:12Z</time>
      </trkpt>
      <trkpt lat="42.89073" lon="0.04796">
        <ele>1124.3</ele>
        <time>2022-08-02T10:07:17Z</time>
      </trkpt>
      <trkpt lat="42.8908" lon="0.04807">
        <ele>1125.9</ele>
        <time>2022-08-02T10:07:22Z</time>
      </trkpt>
      <trkpt lat="42.89088" lon="0.04819">
        <ele>1126.9</ele>
        <time>2022-08-02T10:07:28Z</time>
      </trkpt>
      <trkpt lat="42.89096" lon="0.04829">
        <ele>1127.5</ele>
        <time>2022-08-02T10:07:34Z</time>
      </trkpt>
      <trkpt lat="42.89103" lon="0.04839">
        <ele>1127.5</ele>
        <time>2022-08-02T10:07:39Z</time>
      </trkpt>
      <trkpt lat="42.89109" lon="0.0485">
        <ele>1128.8</ele>
        <time>2022-08-02T10:07:44Z</time>
      </trkpt>
      <trkpt lat="42.8911" lon="0.04865">
        <ele>1130.2</ele>
        <time>2022-08-02T10:07:49Z</time>
      </trkpt>
      <trkpt lat="42.89099" lon="0.04878">
        <ele>1132.6</ele>
        <time>2022-08-02T10:07:55Z</time>
      </trkpt>
      <trkpt lat="42.89085" lon="0.04873">
        <ele>1133.4</ele>
        <time>2022-08-02T10:08:01Z</time>
      </trkpt>
      <trkpt lat="42.89074" lon="0.04861">
        <ele>1134</ele>
        <time>2022-08-02T10:08:07Z</time>
      </trkpt>
      <trkpt lat="42.89066" lon="0.04851">
        <ele>1134.9</ele>
        <time>2022-08-02T10:08:12Z</time>
      </trkpt>
      <trkpt lat="42.89057" lon="0.04835">
        <ele>1134.5</ele>
        <time>2022-08-02T10:08:18Z</time>
      </trkpt>
      <trkpt lat="42.89049" lon="0.04822">
        <ele>1134.2</ele>
        <time>2022-08-02T10:08:23Z</time>
      </trkpt>
      <trkpt lat="42.8904" lon="0.04811">
        <ele>1133.7</ele>
        <time>2022-08-02T10:08:28Z</time>
      </trkpt>
      <trkpt lat="42.8903" lon="0.048">
        <ele>1133.4</ele>
        <time>2022-08-02T10:08:34Z</time>
      </trkpt>
      <trkpt lat="42.89018" lon="0.04799">
        <ele>1134</ele>
        <time>2022-08-02T10:08:39Z</time>
      </trkpt>
      <trkpt lat="42.89008" lon="0.0481">
        <ele>1134.6</ele>
        <time>2022-08-02T10:08:44Z</time>
      </trkpt>
      <trkpt lat="42.89005" lon="0.04829">
        <ele>1136.1</ele>
        <time>2022-08-02T10:08:50Z</time>
      </trkpt>
      <trkpt lat="42.89015" lon="0.0485">
        <ele>1136</ele>
        <time>2022-08-02T10:08:56Z</time>
      </trkpt>
      <trkpt lat="42.89026" lon="0.0486">
        <ele>1137.4</ele>
        <time>2022-08-02T10:09:01Z</time>
      </trkpt>
      <trkpt lat="42.89038" lon="0.04874">
        <ele>1138.2</ele>
        <time>2022-08-02T10:09:07Z</time>
      </trkpt>
      <trkpt lat="42.89045" lon="0.04887">
        <ele>1138.7</ele>
        <time>2022-08-02T10:09:12Z</time>
      </trkpt>
      <trkpt lat="42.8905" lon="0.04907">
        <ele>1139.9</ele>
        <time>2022-08-02T10:09:18Z</time>
      </trkpt>
      <trkpt lat="42.89051" lon="0.04924">
        <ele>1140.3</ele>
        <time>2022-08-02T10:09:23Z</time>
      </trkpt>
      <trkpt lat="42.89052" lon="0.04941">
        <ele>1141.6</ele>
        <time>2022-08-02T10:09:28Z</time>
      </trkpt>
      <trkpt lat="42.89053" lon="0.04958">
        <ele>1141.5</ele>
        <time>2022-08-02T10:09:33Z</time>
      </trkpt>
      <trkpt lat="42.89056" lon="0.04975">
        <ele>1144</ele>
        <time>2022-08-02T10:09:39Z</time>
      </trkpt>
      <trkpt lat="42.89062" lon="0.04989">
        <ele>1144</ele>
        <time>2022-08-02T10:09:45Z</time>
      </trkpt>
      <trkpt lat="42.89068" lon="0.04998">
        <ele>1146.3</ele>
        <time>2022-08-02T10:09:50Z</time>
      </trkpt>
      <trkpt lat="42.89075" lon="0.05006">
        <ele>1149.2</ele>
        <time>2022-08-02T10:09:55Z</time>
      </trkpt>
      <trkpt lat="42.89083" lon="0.05017">
        <ele>1149.9</ele>
        <time>2022-08-02T10:10:01Z</time>
      </trkpt>
      <trkpt lat="42.89091" lon="0.05026">
        <ele>1151.2</ele>
        <time>2022-08-02T10:10:06Z</time>
      </trkpt>
      <trkpt lat="42.89099" lon="0.05038">
        <ele>1152.5</ele>
        <time>2022-08-02T10:10:12Z</time>
      </trkpt>
      <trkpt lat="42.89106" lon="0.05048">
        <ele>1153.9</ele>
        <time>2022-08-02T10:10:17Z</time>
      </trkpt>
      <trkpt lat="42.89114" lon="0.0506">
        <ele>1155</ele>
        <time>2022-08-02T10:10:23Z</time>
      </trkpt>
      <trkpt lat="42.89123" lon="0.05069">
        <ele>1157.4</ele>
        <time>2022-08-02T10:10:29Z</time>
      </trkpt>
      <trkpt lat="42.89132" lon="0.05074">
        <ele>1157.1</ele>
        <time>2022-08-02T10:10:35Z</time>
      </trkpt>
      <trkpt lat="42.89143" lon="0.05079">
        <ele>1158.3</ele>
        <time>2022-08-02T10:10:40Z</time>
      </trkpt>
      <trkpt lat="42.89153" lon="0.05084">
        <ele>1159.5</ele>
        <time>2022-08-02T10:10:45Z</time>
      </trkpt>
      <trkpt lat="42.89162" lon="0.05088">
        <ele>1161.9</ele>
        <time>2022-08-02T10:10:50Z</time>
      </trkpt>
      <trkpt lat="42.89172" lon="0.05091">
        <ele>1162.8</ele>
        <time>2022-08-02T10:10:56Z</time>
      </trkpt>
      <trkpt lat="42.89183" lon="0.05098">
        <ele>1162.8</ele>
        <time>2022-08-02T10:11:02Z</time>
      </trkpt>
      <trkpt lat="42.89189" lon="0.05103">
        <ele>1165.2</ele>
        <time>2022-08-02T10:11:07Z</time>
      </trkpt>
      <trkpt lat="42.89199" lon="0.0511">
        <ele>1161.4</ele>
        <time>2022-08-02T10:11:12Z</time>
      </trkpt>
      <trkpt lat="42.89206" lon="0.0512">
        <ele>1162.5</ele>
        <time>2022-08-02T10:11:17Z</time>
      </trkpt>
      <trkpt lat="42.89211" lon="0.05131">
        <ele>1163.3</ele>
        <time>2022-08-02T10:11:22Z</time>
      </trkpt>
      <trkpt lat="42.89219" lon="0.05143">
        <ele>1164.7</ele>
        <time>2022-08-02T10:11:28Z</time>
      </trkpt>
      <trkpt lat="42.89225" lon="0.05155">
        <ele>1165</ele>
        <time>2022-08-02T10:11:33Z</time>
      </trkpt>
      <trkpt lat="42.8923" lon="0.05167">
        <ele>1164.3</ele>
        <time>2022-08-02T10:11:38Z</time>
      </trkpt>
      <trkpt lat="42.89234" lon="0.05181">
        <ele>1166</ele>
        <time>2022-08-02T10:11:44Z</time>
      </trkpt>
      <trkpt lat="42.89241" lon="0.05192">
        <ele>1165.5</ele>
        <time>2022-08-02T10:11:49Z</time>
      </trkpt>
      <trkpt lat="42.89246" lon="0.05204">
        <ele>1165.1</ele>
        <time>2022-08-02T10:11:54Z</time>
      </trkpt>
      <trkpt lat="42.89253" lon="0.05217">
        <ele>1165.7</ele>
        <time>2022-08-02T10:12:00Z</time>
      </trkpt>
      <trkpt lat="42.89259" lon="0.05229">
        <ele>1164.6</ele>
        <time>2022-08-02T10:12:06Z</time>
      </trkpt>
      <trkpt lat="42.89263" lon="0.0524">
        <ele>1167.7</ele>
        <time>2022-08-02T10:12:11Z</time>
      </trkpt>
      <trkpt lat="42.8927" lon="0.05252">
        <ele>1168.9</ele>
        <time>2022-08-02T10:12:16Z</time>
      </trkpt>
      <trkpt lat="42.89276" lon="0.05263">
        <ele>1169.9</ele>
        <time>2022-08-02T10:12:22Z</time>
      </trkpt>
      <trkpt lat="42.89281" lon="0.05277">
        <ele>1170.8</ele>
        <time>2022-08-02T10:12:28Z</time>
      </trkpt>
      <trkpt lat="42.89285" lon="0.05291">
        <ele>1170.9</ele>
        <time>2022-08-02T10:12:34Z</time>
      </trkpt>
      <trkpt lat="42.89289" lon="0.05304">
        <ele>1171.1</ele>
        <time>2022-08-02T10:12:39Z</time>
      </trkpt>
      <trkpt lat="42.89291" lon="0.05317">
        <ele>1171.1</ele>
        <time>2022-08-02T10:12:44Z</time>
      </trkpt>
      <trkpt lat="42.89292" lon="0.05331">
        <ele>1173.6</ele>
        <time>2022-08-02T10:12:49Z</time>
      </trkpt>
      <trkpt lat="42.89292" lon="0.05347">
        <ele>1174.6</ele>
        <time>2022-08-02T10:12:55Z</time>
      </trkpt>
      <trkpt lat="42.89295" lon="0.05363">
        <ele>1174.3</ele>
        <time>2022-08-02T10:13:01Z</time>
      </trkpt>
      <trkpt lat="42.893" lon="0.05379">
        <ele>1174.7</ele>
        <time>2022-08-02T10:13:07Z</time>
      </trkpt>
      <trkpt lat="42.89303" lon="0.05392">
        <ele>1176.1</ele>
        <time>2022-08-02T10:13:12Z</time>
      </trkpt>
      <trkpt lat="42.89308" lon="0.05408">
        <ele>1178.5</ele>
        <time>2022-08-02T10:13:18Z</time>
      </trkpt>
      <trkpt lat="42.89312" lon="0.05421">
        <ele>1179.6</ele>
        <time>2022-08-02T10:13:23Z</time>
      </trkpt>
      <trkpt lat="42.89316" lon="0.05435">
        <ele>1177</ele>
        <time>2022-08-02T10:13:29Z</time>
      </trkpt>
      <trkpt lat="42.89322" lon="0.05446">
        <ele>1179.5</ele>
        <time>2022-08-02T10:13:35Z</time>
      </trkpt>
      <trkpt lat="42.89328" lon="0.05456">
        <ele>1182.7</ele>
        <time>2022-08-02T10:13:40Z</time>
      </trkpt>
      <trkpt lat="42.89332" lon="0.05464">
        <ele>1182.7</ele>
        <time>2022-08-02T10:13:45Z</time>
      </trkpt>
      <trkpt lat="42.89338" lon="0.05475">
        <ele>1185.6</ele>
        <time>2022-08-02T10:13:51Z</time>
      </trkpt>
      <trkpt lat="42.89345" lon="0.05486">
        <ele>1186.3</ele>
        <time>2022-08-02T10:13:57Z</time>
      </trkpt>
      <trkpt lat="42.8935" lon="0.05495">
        <ele>1186.6</ele>
        <time>2022-08-02T10:14:03Z</time>
      </trkpt>
      <trkpt lat="42.89353" lon="0.05503">
        <ele>1186.2</ele>
        <time>2022-08-02T10:14:08Z</time>
      </trkpt>
      <trkpt lat="42.89359" lon="0.05513">
        <ele>1188</ele>
        <time>2022-08-02T10:14:14Z</time>
      </trkpt>
      <trkpt lat="42.89365" lon="0.05524">
        <ele>1186.6</ele>
        <time>2022-08-02T10:14:20Z</time>
      </trkpt>
      <trkpt lat="42.89368" lon="0.05534">
        <ele>1187</ele>
        <time>2022-08-02T10:14:25Z</time>
      </trkpt>
      <trkpt lat="42.8937" lon="0.05543">
        <ele>1188.4</ele>
        <time>2022-08-02T10:14:30Z</time>
      </trkpt>
      <trkpt lat="42.89375" lon="0.05552">
        <ele>1190.2</ele>
        <time>2022-08-02T10:14:36Z</time>
      </trkpt>
      <trkpt lat="42.8938" lon="0.05562">
        <ele>1193.1</ele>
        <time>2022-08-02T10:14:41Z</time>
      </trkpt>
      <trkpt lat="42.89384" lon="0.05571">
        <ele>1194.1</ele>
        <time>2022-08-02T10:14:46Z</time>
      </trkpt>
      <trkpt lat="42.89389" lon="0.0558">
        <ele>1197.7</ele>
        <time>2022-08-02T10:14:51Z</time>
      </trkpt>
      <trkpt lat="42.89394" lon="0.0559">
        <ele>1199.2</ele>
        <time>2022-08-02T10:14:56Z</time>
      </trkpt>
      <trkpt lat="42.89397" lon="0.056">
        <ele>1199.2</ele>
        <time>2022-08-02T10:15:01Z</time>
      </trkpt>
      <trkpt lat="42.89402" lon="0.0561">
        <ele>1198.2</ele>
        <time>2022-08-02T10:15:07Z</time>
      </trkpt>
      <trkpt lat="42.89406" lon="0.05622">
        <ele>1198.3</ele>
        <time>2022-08-02T10:15:13Z</time>
      </trkpt>
      <trkpt lat="42.89409" lon="0.05631">
        <ele>1198.5</ele>
        <time>2022-08-02T10:15:18Z</time>
      </trkpt>
      <trkpt lat="42.89411" lon="0.0564">
        <ele>1200.2</ele>
        <time>2022-08-02T10:15:23Z</time>
      </trkpt>
      <trkpt lat="42.89415" lon="0.05651">
        <ele>1201.7</ele>
        <time>2022-08-02T10:15:29Z</time>
      </trkpt>
      <trkpt lat="42.89417" lon="0.05662">
        <ele>1202.1</ele>
        <time>2022-08-02T10:15:35Z</time>
      </trkpt>
      <trkpt lat="42.89421" lon="0.05673">
        <ele>1202.6</ele>
        <time>2022-08-02T10:15:40Z</time>
      </trkpt>
      <trkpt lat="42.89427" lon="0.05686">
        <ele>1201.7</ele>
        <time>2022-08-02T10:15:46Z</time>
      </trkpt>
      <trkpt lat="42.89431" lon="0.05699">
        <ele>1204.9</ele>
        <time>2022-08-02T10:15:52Z</time>
      </trkpt>
      <trkpt lat="42.89436" lon="0.0571">
        <ele>1208.2</ele>
        <time>2022-08-02T10:15:58Z</time>
      </trkpt>
      <trkpt lat="42.89439" lon="0.05718">
        <ele>1209.6</ele>
        <time>2022-08-02T10:16:03Z</time>
      </trkpt>
      <trkpt lat="42.89443" lon="0.05727">
        <ele>1211.2</ele>
        <time>2022-08-02T10:16:09Z</time>
      </trkpt>
      <trkpt lat="42.89444" lon="0.05736">
        <ele>1209.5</ele>
        <time>2022-08-02T10:16:14Z</time>
      </trkpt>
      <trkpt lat="42.89448" lon="0.05748">
        <ele>1210</ele>
        <time>2022-08-02T10:16:19Z</time>
      </trkpt>
      <trkpt lat="42.89452" lon="0.0576">
        <ele>1210</ele>
        <time>2022-08-02T10:16:25Z</time>
      </trkpt>
      <trkpt lat="42.89457" lon="0.0577">
        <ele>1210.8</ele>
        <time>2022-08-02T10:16:31Z</time>
      </trkpt>
      <trkpt lat="42.89462" lon="0.05778">
        <ele>1212.7</ele>
        <time>2022-08-02T10:16:36Z</time>
      </trkpt>
      <trkpt lat="42.8947" lon="0.05785">
        <ele>1214.7</ele>
        <time>2022-08-02T10:16:41Z</time>
      </trkpt>
      <trkpt lat="42.89478" lon="0.05796">
        <ele>1214.7</ele>
        <time>2022-08-02T10:16:47Z</time>
      </trkpt>
      <trkpt lat="42.89483" lon="0.05805">
        <ele>1214.8</ele>
        <time>2022-08-02T10:16:52Z</time>
      </trkpt>
      <trkpt lat="42.89488" lon="0.05812">
        <ele>1216.5</ele>
        <time>2022-08-02T10:16:57Z</time>
      </trkpt>
      <trkpt lat="42.89494" lon="0.05822">
        <ele>1216.6</ele>
        <time>2022-08-02T10:17:03Z</time>
      </trkpt>
      <trkpt lat="42.89502" lon="0.05829">
        <ele>1216.8</ele>
        <time>2022-08-02T10:17:09Z</time>
      </trkpt>
      <trkpt lat="42.89507" lon="0.05836">
        <ele>1217.4</ele>
        <time>2022-08-02T10:17:14Z</time>
      </trkpt>
      <trkpt lat="42.89516" lon="0.05843">
        <ele>1217.3</ele>
        <time>2022-08-02T10:17:20Z</time>
      </trkpt>
      <trkpt lat="42.89525" lon="0.05847">
        <ele>1217</ele>
        <time>2022-08-02T10:17:26Z</time>
      </trkpt>
      <trkpt lat="42.89534" lon="0.05852">
        <ele>1218.1</ele>
        <time>2022-08-02T10:17:31Z</time>
      </trkpt>
      <trkpt lat="42.89544" lon="0.05859">
        <ele>1220.9</ele>
        <time>2022-08-02T10:17:37Z</time>
      </trkpt>
      <trkpt lat="42.89551" lon="0.05864">
        <ele>1223</ele>
        <time>2022-08-02T10:17:43Z</time>
      </trkpt>
      <trkpt lat="42.89557" lon="0.05868">
        <ele>1222.5</ele>
        <time>2022-08-02T10:17:48Z</time>
      </trkpt>
      <trkpt lat="42.89563" lon="0.05875">
        <ele>1224.4</ele>
        <time>2022-08-02T10:17:53Z</time>
      </trkpt>
      <trkpt lat="42.89565" lon="0.05889">
        <ele>1225.9</ele>
        <time>2022-08-02T10:17:59Z</time>
      </trkpt>
      <trkpt lat="42.89561" lon="0.05902">
        <ele>1227.1</ele>
        <time>2022-08-02T10:18:05Z</time>
      </trkpt>
      <trkpt lat="42.89552" lon="0.05909">
        <ele>1228.6</ele>
        <time>2022-08-02T10:18:10Z</time>
      </trkpt>
      <trkpt lat="42.89541" lon="0.05911">
        <ele>1229.8</ele>
        <time>2022-08-02T10:18:16Z</time>
      </trkpt>
      <trkpt lat="42.89531" lon="0.05905">
        <ele>1229.4</ele>
        <time>2022-08-02T10:18:22Z</time>
      </trkpt>
      <trkpt lat="42.89523" lon="0.05898">
        <ele>1234.9</ele>
        <time>2022-08-02T10:18:28Z</time>
      </trkpt>
      <trkpt lat="42.89514" lon="0.05894">
        <ele>1232.6</ele>
        <time>2022-08-02T10:18:34Z</time>
      </trkpt>
      <trkpt lat="42.89506" lon="0.05894">
        <ele>1231.9</ele>
        <time>2022-08-02T10:18:39Z</time>
      </trkpt>
      <trkpt lat="42.89498" lon="0.059">
        <ele>1232.5</ele>
        <time>2022-08-02T10:18:44Z</time>
      </trkpt>
      <trkpt lat="42.89492" lon="0.05907">
        <ele>1235.7</ele>
        <time>2022-08-02T10:18:49Z</time>
      </trkpt>
      <trkpt lat="42.8949" lon="0.0592">
        <ele>1239.6</ele>
        <time>2022-08-02T10:18:55Z</time>
      </trkpt>
      <trkpt lat="42.89494" lon="0.05932">
        <ele>1239.7</ele>
        <time>2022-08-02T10:19:00Z</time>
      </trkpt>
      <trkpt lat="42.895" lon="0.05946">
        <ele>1239.5</ele>
        <time>2022-08-02T10:19:06Z</time>
      </trkpt>
      <trkpt lat="42.8951" lon="0.05955">
        <ele>1238</ele>
        <time>2022-08-02T10:19:11Z</time>
      </trkpt>
      <trkpt lat="42.89521" lon="0.05956">
        <ele>1241.1</ele>
        <time>2022-08-02T10:19:16Z</time>
      </trkpt>
      <trkpt lat="42.89532" lon="0.05953">
        <ele>1241.8</ele>
        <time>2022-08-02T10:19:22Z</time>
      </trkpt>
      <trkpt lat="42.89536" lon="0.05945">
        <ele>1244</ele>
        <time>2022-08-02T10:19:27Z</time>
      </trkpt>
      <trkpt lat="42.89543" lon="0.05943">
        <ele>1246.8</ele>
        <time>2022-08-02T10:19:32Z</time>
      </trkpt>
      <trkpt lat="42.89556" lon="0.05941">
        <ele>1248.2</ele>
        <time>2022-08-02T10:19:38Z</time>
      </trkpt>
      <trkpt lat="42.89571" lon="0.05948">
        <ele>1247.2</ele>
        <time>2022-08-02T10:19:44Z</time>
      </trkpt>
      <trkpt lat="42.89583" lon="0.05955">
        <ele>1246.2</ele>
        <time>2022-08-02T10:19:49Z</time>
      </trkpt>
      <trkpt lat="42.89591" lon="0.05964">
        <ele>1245.9</ele>
        <time>2022-08-02T10:19:54Z</time>
      </trkpt>
      <trkpt lat="42.89598" lon="0.05978">
        <ele>1246.6</ele>
        <time>2022-08-02T10:20:00Z</time>
      </trkpt>
      <trkpt lat="42.89601" lon="0.05991">
        <ele>1245.9</ele>
        <time>2022-08-02T10:20:05Z</time>
      </trkpt>
      <trkpt lat="42.89603" lon="0.06005">
        <ele>1247.2</ele>
        <time>2022-08-02T10:20:11Z</time>
      </trkpt>
      <trkpt lat="42.89601" lon="0.06021">
        <ele>1246.7</ele>
        <time>2022-08-02T10:20:17Z</time>
      </trkpt>
      <trkpt lat="42.89603" lon="0.06037">
        <ele>1248.4</ele>
        <time>2022-08-02T10:20:23Z</time>
      </trkpt>
      <trkpt lat="42.89606" lon="0.06051">
        <ele>1250.8</ele>
        <time>2022-08-02T10:20:28Z</time>
      </trkpt>
      <trkpt lat="42.89609" lon="0.06066">
        <ele>1250.3</ele>
        <time>2022-08-02T10:20:34Z</time>
      </trkpt>
      <trkpt lat="42.89611" lon="0.06078">
        <ele>1252.1</ele>
        <time>2022-08-02T10:20:39Z</time>
      </trkpt>
      <trkpt lat="42.89611" lon="0.0609">
        <ele>1253.3</ele>
        <time>2022-08-02T10:20:44Z</time>
      </trkpt>
      <trkpt lat="42.89613" lon="0.06103">
        <ele>1255.9</ele>
        <time>2022-08-02T10:20:50Z</time>
      </trkpt>
      <trkpt lat="42.89614" lon="0.06116">
        <ele>1256.6</ele>
        <time>2022-08-02T10:20:55Z</time>
      </trkpt>
      <trkpt lat="42.89614" lon="0.06131">
        <ele>1255.3</ele>
        <time>2022-08-02T10:21:01Z</time>
      </trkpt>
      <trkpt lat="42.89616" lon="0.06145">
        <ele>1255.2</ele>
        <time>2022-08-02T10:21:06Z</time>
      </trkpt>
      <trkpt lat="42.89616" lon="0.06159">
        <ele>1253</ele>
        <time>2022-08-02T10:21:12Z</time>
      </trkpt>
      <trkpt lat="42.89616" lon="0.06174">
        <ele>1250.3</ele>
        <time>2022-08-02T10:21:18Z</time>
      </trkpt>
      <trkpt lat="42.89616" lon="0.06189">
        <ele>1251.6</ele>
        <time>2022-08-02T10:21:24Z</time>
      </trkpt>
      <trkpt lat="42.89615" lon="0.06202">
        <ele>1252.6</ele>
        <time>2022-08-02T10:21:29Z</time>
      </trkpt>
      <trkpt lat="42.89615" lon="0.06214">
        <ele>1252.3</ele>
        <time>2022-08-02T10:21:34Z</time>
      </trkpt>
      <trkpt lat="42.89617" lon="0.06228">
        <ele>1253.7</ele>
        <time>2022-08-02T10:21:40Z</time>
      </trkpt>
      <trkpt lat="42.89617" lon="0.0624">
        <ele>1255.6</ele>
        <time>2022-08-02T10:21:45Z</time>
      </trkpt>
      <trkpt lat="42.89618" lon="0.0625">
        <ele>1255.4</ele>
        <time>2022-08-02T10:21:50Z</time>
      </trkpt>
      <trkpt lat="42.89618" lon="0.06262">
        <ele>1254.1</ele>
        <time>2022-08-02T10:21:55Z</time>
      </trkpt>
      <trkpt lat="42.8962" lon="0.06273">
        <ele>1256.9</ele>
        <time>2022-08-02T10:22:01Z</time>
      </trkpt>
      <trkpt lat="42.89621" lon="0.06287">
        <ele>1258.7</ele>
        <time>2022-08-02T10:22:06Z</time>
      </trkpt>
      <trkpt lat="42.89621" lon="0.063">
        <ele>1259.6</ele>
        <time>2022-08-02T10:22:12Z</time>
      </trkpt>
      <trkpt lat="42.89622" lon="0.06312">
        <ele>1260.7</ele>
        <time>2022-08-02T10:22:17Z</time>
      </trkpt>
      <trkpt lat="42.89623" lon="0.06327">
        <ele>1261.7</ele>
        <time>2022-08-02T10:22:23Z</time>
      </trkpt>
      <trkpt lat="42.89626" lon="0.06338">
        <ele>1262</ele>
        <time>2022-08-02T10:22:28Z</time>
      </trkpt>
      <trkpt lat="42.89631" lon="0.06348">
        <ele>1261.4</ele>
        <time>2022-08-02T10:22:33Z</time>
      </trkpt>
      <trkpt lat="42.89639" lon="0.06359">
        <ele>1262.9</ele>
        <time>2022-08-02T10:22:39Z</time>
      </trkpt>
      <trkpt lat="42.89644" lon="0.06371">
        <ele>1264.6</ele>
        <time>2022-08-02T10:22:45Z</time>
      </trkpt>
      <trkpt lat="42.89647" lon="0.06386">
        <ele>1265.2</ele>
        <time>2022-08-02T10:22:51Z</time>
      </trkpt>
      <trkpt lat="42.89651" lon="0.06396">
        <ele>1268.5</ele>
        <time>2022-08-02T10:22:56Z</time>
      </trkpt>
      <trkpt lat="42.89654" lon="0.06403">
        <ele>1268.2</ele>
        <time>2022-08-02T10:23:02Z</time>
      </trkpt>
      <trkpt lat="42.89657" lon="0.0641">
        <ele>1272.8</ele>
        <time>2022-08-02T10:23:07Z</time>
      </trkpt>
      <trkpt lat="42.89657" lon="0.06411">
        <ele>1272.7</ele>
        <time>2022-08-02T10:23:12Z</time>
      </trkpt>
      <trkpt lat="42.89657" lon="0.06412">
        <ele>1273</ele>
        <time>2022-08-02T10:23:17Z</time>
      </trkpt>
      <trkpt lat="42.89659" lon="0.06413">
        <ele>1276.5</ele>
        <time>2022-08-02T10:23:22Z</time>
      </trkpt>
      <trkpt lat="42.8966" lon="0.06412">
        <ele>1273.2</ele>
        <time>2022-08-02T10:23:28Z</time>
      </trkpt>
      <trkpt lat="42.8966" lon="0.06412">
        <ele>1273.4</ele>
        <time>2022-08-02T10:23:34Z</time>
      </trkpt>
      <trkpt lat="42.8966" lon="0.06412">
        <ele>1273.4</ele>
        <time>2022-08-02T10:23:39Z</time>
      </trkpt>
      <trkpt lat="42.8966" lon="0.06412">
        <ele>1273.4</ele>
        <time>2022-08-02T10:23:45Z</time>
      </trkpt>
      <trkpt lat="42.8966" lon="0.06412">
        <ele>1273.4</ele>
        <time>2022-08-02T10:23:51Z</time>
      </trkpt>
      <trkpt lat="42.8966" lon="0.06412">
        <ele>1273.4</ele>
        <time>2022-08-02T10:23:56Z</time>
      </trkpt>
      <trkpt lat="42.8966" lon="0.06412">
        <ele>1273.5</ele>
        <time>2022-08-02T10:24:02Z</time>
      </trkpt>
      <trkpt lat="42.8966" lon="0.06412">
        <ele>1273.5</ele>
        <time>2022-08-02T10:24:07Z</time>
      </trkpt>
      <trkpt lat="42.8966" lon="0.06412">
        <ele>1273.5</ele>
        <time>2022-08-02T10:24:12Z</time>
      </trkpt>
      <trkpt lat="42.8966" lon="0.06412">
        <ele>1273.4</ele>
        <time>2022-08-02T10:24:18Z</time>
      </trkpt>
      <trkpt lat="42.8966" lon="0.06412">
        <ele>1273.4</ele>
        <time>2022-08-02T10:24:24Z</time>
      </trkpt>
      <trkpt lat="42.8966" lon="0.06412">
        <ele>1273.4</ele>
        <time>2022-08-02T10:24:29Z</time>
      </trkpt>
      <trkpt lat="42.8966" lon="0.06412">
        <ele>1273.4</ele>
        <time>2022-08-02T10:24:35Z</time>
      </trkpt>
      <trkpt lat="42.8966" lon="0.06412">
        <ele>1273.4</ele>
        <time>2022-08-02T10:24:40Z</time>
      </trkpt>
      <trkpt lat="42.8966" lon="0.06412">
        <ele>1273.4</ele>
        <time>2022-08-02T10:24:46Z</time>
      </trkpt>
      <trkpt lat="42.8966" lon="0.06412">
        <ele>1273.5</ele>
        <time>2022-08-02T10:24:52Z</time>
      </trkpt>
      <trkpt lat="42.8966" lon="0.06412">
        <ele>1273.4</ele>
        <time>2022-08-02T10:24:58Z</time>
      </trkpt>
      <trkpt lat="42.8966" lon="0.06412">
        <ele>1273.5</ele>
        <time>2022-08-02T10:25:04Z</time>
      </trkpt>
      <trkpt lat="42.8966" lon="0.06412">
        <ele>1273.5</ele>
        <time>2022-08-02T10:25:09Z</time>
      </trkpt>
      <trkpt lat="42.8966" lon="0.06412">
        <ele>1273.7</ele>
        <time>2022-08-02T10:25:14Z</time>
      </trkpt>
      <trkpt lat="42.8966" lon="0.06412">
        <ele>1272.2</ele>
        <time>2022-08-02T10:25:19Z</time>
      </trkpt>
      <trkpt lat="42.8966" lon="0.06413">
        <ele>1271.5</ele>
        <time>2022-08-02T10:25:25Z</time>
      </trkpt>
      <trkpt lat="42.89659" lon="0.06413">
        <ele>1270.3</ele>
        <time>2022-08-02T10:25:30Z</time>
      </trkpt>
      <trkpt lat="42.89659" lon="0.06413">
        <ele>1270.4</ele>
        <time>2022-08-02T10:25:36Z</time>
      </trkpt>
      <trkpt lat="42.8966" lon="0.06413">
        <ele>1270.4</ele>
        <time>2022-08-02T10:25:41Z</time>
      </trkpt>
      <trkpt lat="42.8966" lon="0.06413">
        <ele>1270.6</ele>
        <time>2022-08-02T10:25:46Z</time>
      </trkpt>
      <trkpt lat="42.8966" lon="0.06413">
        <ele>1270.7</ele>
        <time>2022-08-02T10:25:52Z</time>
      </trkpt>
      <trkpt lat="42.8966" lon="0.06413">
        <ele>1270.9</ele>
        <time>2022-08-02T10:25:58Z</time>
      </trkpt>
      <trkpt lat="42.8966" lon="0.06413">
        <ele>1271</ele>
        <time>2022-08-02T10:26:04Z</time>
      </trkpt>
      <trkpt lat="42.8966" lon="0.06413">
        <ele>1271.1</ele>
        <time>2022-08-02T10:26:09Z</time>
      </trkpt>
      <trkpt lat="42.8966" lon="0.06413">
        <ele>1271.2</ele>
        <time>2022-08-02T10:26:15Z</time>
      </trkpt>
      <trkpt lat="42.8966" lon="0.06413">
        <ele>1271.3</ele>
        <time>2022-08-02T10:26:20Z</time>
      </trkpt>
      <trkpt lat="42.8966" lon="0.06413">
        <ele>1271.5</ele>
        <time>2022-08-02T10:26:26Z</time>
      </trkpt>
      <trkpt lat="42.89661" lon="0.06413">
        <ele>1271.6</ele>
        <time>2022-08-02T10:26:32Z</time>
      </trkpt>
      <trkpt lat="42.89661" lon="0.06413">
        <ele>1271.7</ele>
        <time>2022-08-02T10:26:38Z</time>
      </trkpt>
      <trkpt lat="42.89661" lon="0.06414">
        <ele>1271.7</ele>
        <time>2022-08-02T10:26:43Z</time>
      </trkpt>
      <trkpt lat="42.89661" lon="0.06414">
        <ele>1271.8</ele>
        <time>2022-08-02T10:26:49Z</time>
      </trkpt>
      <trkpt lat="42.89661" lon="0.06414">
        <ele>1271.7</ele>
        <time>2022-08-02T10:26:54Z</time>
      </trkpt>
      <trkpt lat="42.89661" lon="0.06413">
        <ele>1271.7</ele>
        <time>2022-08-02T10:26:59Z</time>
      </trkpt>
      <trkpt lat="42.89661" lon="0.06413">
        <ele>1271.6</ele>
        <time>2022-08-02T10:27:05Z</time>
      </trkpt>
      <trkpt lat="42.89661" lon="0.06413">
        <ele>1271.6</ele>
        <time>2022-08-02T10:27:10Z</time>
      </trkpt>
      <trkpt lat="42.89661" lon="0.06413">
        <ele>1271.6</ele>
        <time>2022-08-02T10:27:16Z</time>
      </trkpt>
      <trkpt lat="42.8966" lon="0.06413">
        <ele>1271.5</ele>
        <time>2022-08-02T10:27:22Z</time>
      </trkpt>
      <trkpt lat="42.8966" lon="0.06413">
        <ele>1271.4</ele>
        <time>2022-08-02T10:27:28Z</time>
      </trkpt>
      <trkpt lat="42.8966" lon="0.06413">
        <ele>1270.1</ele>
        <time>2022-08-02T10:27:34Z</time>
      </trkpt>
      <trkpt lat="42.89658" lon="0.06413">
        <ele>1268</ele>
        <time>2022-08-02T10:27:39Z</time>
      </trkpt>
      <trkpt lat="42.89658" lon="0.06413">
        <ele>1268</ele>
        <time>2022-08-02T10:27:45Z</time>
      </trkpt>
      <trkpt lat="42.89658" lon="0.06413">
        <ele>1267.9</ele>
        <time>2022-08-02T10:27:51Z</time>
      </trkpt>
      <trkpt lat="42.89658" lon="0.06413">
        <ele>1267.9</ele>
        <time>2022-08-02T10:27:57Z</time>
      </trkpt>
      <trkpt lat="42.89658" lon="0.06413">
        <ele>1267.9</ele>
        <time>2022-08-02T10:28:02Z</time>
      </trkpt>
      <trkpt lat="42.89658" lon="0.06413">
        <ele>1268</ele>
        <time>2022-08-02T10:28:08Z</time>
      </trkpt>
      <trkpt lat="42.89658" lon="0.06413">
        <ele>1268</ele>
        <time>2022-08-02T10:28:13Z</time>
      </trkpt>
      <trkpt lat="42.89658" lon="0.06413">
        <ele>1268</ele>
        <time>2022-08-02T10:28:18Z</time>
      </trkpt>
      <trkpt lat="42.89658" lon="0.06413">
        <ele>1268.1</ele>
        <time>2022-08-02T10:28:23Z</time>
      </trkpt>
      <trkpt lat="42.89658" lon="0.06413">
        <ele>1268.1</ele>
        <time>2022-08-02T10:28:28Z</time>
      </trkpt>
      <trkpt lat="42.89658" lon="0.06413">
        <ele>1268.2</ele>
        <time>2022-08-02T10:28:34Z</time>
      </trkpt>
      <trkpt lat="42.89658" lon="0.06413">
        <ele>1268.2</ele>
        <time>2022-08-02T10:28:39Z</time>
      </trkpt>
      <trkpt lat="42.89658" lon="0.06413">
        <ele>1268.3</ele>
        <time>2022-08-02T10:28:44Z</time>
      </trkpt>
      <trkpt lat="42.89659" lon="0.06413">
        <ele>1268.7</ele>
        <time>2022-08-02T10:28:50Z</time>
      </trkpt>
      <trkpt lat="42.89659" lon="0.06414">
        <ele>1268.8</ele>
        <time>2022-08-02T10:28:56Z</time>
      </trkpt>
      <trkpt lat="42.8966" lon="0.06416">
        <ele>1269.9</ele>
        <time>2022-08-02T10:29:01Z</time>
      </trkpt>
      <trkpt lat="42.8966" lon="0.06418">
        <ele>1270.6</ele>
        <time>2022-08-02T10:29:07Z</time>
      </trkpt>
      <trkpt lat="42.89661" lon="0.06428">
        <ele>1268.7</ele>
        <time>2022-08-02T10:29:13Z</time>
      </trkpt>
      <trkpt lat="42.89663" lon="0.06443">
        <ele>1270</ele>
        <time>2022-08-02T10:29:19Z</time>
      </trkpt>
      <trkpt lat="42.89667" lon="0.06454">
        <ele>1268.8</ele>
        <time>2022-08-02T10:29:24Z</time>
      </trkpt>
      <trkpt lat="42.89671" lon="0.06466">
        <ele>1269.3</ele>
        <time>2022-08-02T10:29:29Z</time>
      </trkpt>
      <trkpt lat="42.89673" lon="0.06481">
        <ele>1269.4</ele>
        <time>2022-08-02T10:29:34Z</time>
      </trkpt>
      <trkpt lat="42.89677" lon="0.06492">
        <ele>1268.6</ele>
        <time>2022-08-02T10:29:40Z</time>
      </trkpt>
      <trkpt lat="42.89683" lon="0.06505">
        <ele>1267.9</ele>
        <time>2022-08-02T10:29:46Z</time>
      </trkpt>
      <trkpt lat="42.89686" lon="0.06517">
        <ele>1267.5</ele>
        <time>2022-08-02T10:29:52Z</time>
      </trkpt>
      <trkpt lat="42.89689" lon="0.06533">
        <ele>1274.6</ele>
        <time>2022-08-02T10:29:58Z</time>
      </trkpt>
      <trkpt lat="42.89697" lon="0.06548">
        <ele>1275.9</ele>
        <time>2022-08-02T10:30:03Z</time>
      </trkpt>
      <trkpt lat="42.89708" lon="0.06557">
        <ele>1278</ele>
        <time>2022-08-02T10:30:08Z</time>
      </trkpt>
      <trkpt lat="42.89726" lon="0.06565">
        <ele>1286.2</ele>
        <time>2022-08-02T10:30:14Z</time>
      </trkpt>
      <trkpt lat="42.89727" lon="0.06583">
        <ele>1286.8</ele>
        <time>2022-08-02T10:30:19Z</time>
      </trkpt>
      <trkpt lat="42.89726" lon="0.06597">
        <ele>1289.1</ele>
        <time>2022-08-02T10:30:24Z</time>
      </trkpt>
      <trkpt lat="42.89731" lon="0.06612">
        <ele>1283.6</ele>
        <time>2022-08-02T10:30:30Z</time>
      </trkpt>
      <trkpt lat="42.89732" lon="0.06625">
        <ele>1281.9</ele>
        <time>2022-08-02T10:30:36Z</time>
      </trkpt>
      <trkpt lat="42.89737" lon="0.0664">
        <ele>1279.6</ele>
        <time>2022-08-02T10:30:42Z</time>
      </trkpt>
      <trkpt lat="42.89744" lon="0.06654">
        <ele>1279.8</ele>
        <time>2022-08-02T10:30:47Z</time>
      </trkpt>
      <trkpt lat="42.89752" lon="0.0667">
        <ele>1280.4</ele>
        <time>2022-08-02T10:30:53Z</time>
      </trkpt>
      <trkpt lat="42.89753" lon="0.06684">
        <ele>1282.6</ele>
        <time>2022-08-02T10:30:58Z</time>
      </trkpt>
      <trkpt lat="42.89757" lon="0.06699">
        <ele>1284.4</ele>
        <time>2022-08-02T10:31:03Z</time>
      </trkpt>
      <trkpt lat="42.89762" lon="0.06712">
        <ele>1285.3</ele>
        <time>2022-08-02T10:31:08Z</time>
      </trkpt>
      <trkpt lat="42.89766" lon="0.06726">
        <ele>1283.5</ele>
        <time>2022-08-02T10:31:14Z</time>
      </trkpt>
      <trkpt lat="42.89769" lon="0.06742">
        <ele>1283.3</ele>
        <time>2022-08-02T10:31:20Z</time>
      </trkpt>
      <trkpt lat="42.89774" lon="0.06756">
        <ele>1286.4</ele>
        <time>2022-08-02T10:31:25Z</time>
      </trkpt>
      <trkpt lat="42.89777" lon="0.06771">
        <ele>1288.1</ele>
        <time>2022-08-02T10:31:30Z</time>
      </trkpt>
      <trkpt lat="42.89779" lon="0.06785">
        <ele>1288.7</ele>
        <time>2022-08-02T10:31:35Z</time>
      </trkpt>
      <trkpt lat="42.89782" lon="0.068">
        <ele>1289.6</ele>
        <time>2022-08-02T10:31:41Z</time>
      </trkpt>
      <trkpt lat="42.89784" lon="0.06811">
        <ele>1292.2</ele>
        <time>2022-08-02T10:31:46Z</time>
      </trkpt>
      <trkpt lat="42.89785" lon="0.06823">
        <ele>1294.6</ele>
        <time>2022-08-02T10:31:52Z</time>
      </trkpt>
      <trkpt lat="42.89786" lon="0.06837">
        <ele>1296.2</ele>
        <time>2022-08-02T10:31:58Z</time>
      </trkpt>
      <trkpt lat="42.89787" lon="0.06848">
        <ele>1296.8</ele>
        <time>2022-08-02T10:32:03Z</time>
      </trkpt>
      <trkpt lat="42.89789" lon="0.06863">
        <ele>1299</ele>
        <time>2022-08-02T10:32:09Z</time>
      </trkpt>
      <trkpt lat="42.89792" lon="0.06874">
        <ele>1299.5</ele>
        <time>2022-08-02T10:32:14Z</time>
      </trkpt>
      <trkpt lat="42.89794" lon="0.06887">
        <ele>1300.5</ele>
        <time>2022-08-02T10:32:20Z</time>
      </trkpt>
      <trkpt lat="42.89795" lon="0.06896">
        <ele>1301.7</ele>
        <time>2022-08-02T10:32:25Z</time>
      </trkpt>
      <trkpt lat="42.89796" lon="0.06911">
        <ele>1300.9</ele>
        <time>2022-08-02T10:32:31Z</time>
      </trkpt>
      <trkpt lat="42.89797" lon="0.06922">
        <ele>1300.4</ele>
        <time>2022-08-02T10:32:36Z</time>
      </trkpt>
      <trkpt lat="42.89798" lon="0.06935">
        <ele>1299.7</ele>
        <time>2022-08-02T10:32:42Z</time>
      </trkpt>
      <trkpt lat="42.898" lon="0.06946">
        <ele>1301</ele>
        <time>2022-08-02T10:32:48Z</time>
      </trkpt>
      <trkpt lat="42.89803" lon="0.06958">
        <ele>1301.2</ele>
        <time>2022-08-02T10:32:54Z</time>
      </trkpt>
      <trkpt lat="42.89805" lon="0.06969">
        <ele>1302.6</ele>
        <time>2022-08-02T10:32:59Z</time>
      </trkpt>
      <trkpt lat="42.89807" lon="0.06982">
        <ele>1303.8</ele>
        <time>2022-08-02T10:33:05Z</time>
      </trkpt>
      <trkpt lat="42.89809" lon="0.06997">
        <ele>1303.9</ele>
        <time>2022-08-02T10:33:11Z</time>
      </trkpt>
      <trkpt lat="42.89811" lon="0.07007">
        <ele>1304.1</ele>
        <time>2022-08-02T10:33:16Z</time>
      </trkpt>
      <trkpt lat="42.89812" lon="0.07019">
        <ele>1304.2</ele>
        <time>2022-08-02T10:33:21Z</time>
      </trkpt>
      <trkpt lat="42.89814" lon="0.07031">
        <ele>1304.4</ele>
        <time>2022-08-02T10:33:27Z</time>
      </trkpt>
      <trkpt lat="42.89816" lon="0.07042">
        <ele>1306.8</ele>
        <time>2022-08-02T10:33:32Z</time>
      </trkpt>
      <trkpt lat="42.89818" lon="0.07051">
        <ele>1307.3</ele>
        <time>2022-08-02T10:33:37Z</time>
      </trkpt>
      <trkpt lat="42.8982" lon="0.07063">
        <ele>1309.9</ele>
        <time>2022-08-02T10:33:43Z</time>
      </trkpt>
      <trkpt lat="42.89824" lon="0.07073">
        <ele>1311.9</ele>
        <time>2022-08-02T10:33:48Z</time>
      </trkpt>
      <trkpt lat="42.89827" lon="0.07084">
        <ele>1314.7</ele>
        <time>2022-08-02T10:33:54Z</time>
      </trkpt>
      <trkpt lat="42.8983" lon="0.07097">
        <ele>1314.7</ele>
        <time>2022-08-02T10:34:00Z</time>
      </trkpt>
      <trkpt lat="42.89833" lon="0.07108">
        <ele>1314.2</ele>
        <time>2022-08-02T10:34:05Z</time>
      </trkpt>
      <trkpt lat="42.89835" lon="0.07122">
        <ele>1316</ele>
        <time>2022-08-02T10:34:11Z</time>
      </trkpt>
      <trkpt lat="42.89837" lon="0.07135">
        <ele>1317.8</ele>
        <time>2022-08-02T10:34:17Z</time>
      </trkpt>
      <trkpt lat="42.89838" lon="0.07145">
        <ele>1318</ele>
        <time>2022-08-02T10:34:22Z</time>
      </trkpt>
      <trkpt lat="42.89839" lon="0.07155">
        <ele>1318.9</ele>
        <time>2022-08-02T10:34:27Z</time>
      </trkpt>
      <trkpt lat="42.8984" lon="0.07167">
        <ele>1320.1</ele>
        <time>2022-08-02T10:34:33Z</time>
      </trkpt>
      <trkpt lat="42.8984" lon="0.07179">
        <ele>1321.5</ele>
        <time>2022-08-02T10:34:39Z</time>
      </trkpt>
      <trkpt lat="42.89841" lon="0.07192">
        <ele>1321.8</ele>
        <time>2022-08-02T10:34:45Z</time>
      </trkpt>
      <trkpt lat="42.8984" lon="0.07203">
        <ele>1322.8</ele>
        <time>2022-08-02T10:34:50Z</time>
      </trkpt>
      <trkpt lat="42.8984" lon="0.07214">
        <ele>1323.3</ele>
        <time>2022-08-02T10:34:55Z</time>
      </trkpt>
      <trkpt lat="42.8984" lon="0.07224">
        <ele>1324</ele>
        <time>2022-08-02T10:35:00Z</time>
      </trkpt>
      <trkpt lat="42.89841" lon="0.07236">
        <ele>1323.8</ele>
        <time>2022-08-02T10:35:06Z</time>
      </trkpt>
      <trkpt lat="42.89842" lon="0.07248">
        <ele>1325.7</ele>
        <time>2022-08-02T10:35:11Z</time>
      </trkpt>
      <trkpt lat="42.89845" lon="0.0726">
        <ele>1327.9</ele>
        <time>2022-08-02T10:35:16Z</time>
      </trkpt>
      <trkpt lat="42.89848" lon="0.07271">
        <ele>1331.2</ele>
        <time>2022-08-02T10:35:21Z</time>
      </trkpt>
      <trkpt lat="42.89852" lon="0.07285">
        <ele>1333.3</ele>
        <time>2022-08-02T10:35:27Z</time>
      </trkpt>
      <trkpt lat="42.89855" lon="0.07298">
        <ele>1334.9</ele>
        <time>2022-08-02T10:35:33Z</time>
      </trkpt>
      <trkpt lat="42.89859" lon="0.07307">
        <ele>1335.8</ele>
        <time>2022-08-02T10:35:38Z</time>
      </trkpt>
      <trkpt lat="42.89861" lon="0.07321">
        <ele>1336.6</ele>
        <time>2022-08-02T10:35:44Z</time>
      </trkpt>
      <trkpt lat="42.89863" lon="0.07333">
        <ele>1338.1</ele>
        <time>2022-08-02T10:35:49Z</time>
      </trkpt>
      <trkpt lat="42.89864" lon="0.07344">
        <ele>1338.7</ele>
        <time>2022-08-02T10:35:54Z</time>
      </trkpt>
      <trkpt lat="42.89865" lon="0.07357">
        <ele>1340.1</ele>
        <time>2022-08-02T10:36:00Z</time>
      </trkpt>
      <trkpt lat="42.89866" lon="0.07369">
        <ele>1341.5</ele>
        <time>2022-08-02T10:36:05Z</time>
      </trkpt>
      <trkpt lat="42.89865" lon="0.0738">
        <ele>1341.9</ele>
        <time>2022-08-02T10:36:11Z</time>
      </trkpt>
      <trkpt lat="42.89866" lon="0.07392">
        <ele>1341.9</ele>
        <time>2022-08-02T10:36:16Z</time>
      </trkpt>
      <trkpt lat="42.89865" lon="0.07403">
        <ele>1341.1</ele>
        <time>2022-08-02T10:36:22Z</time>
      </trkpt>
      <trkpt lat="42.89865" lon="0.07416">
        <ele>1340.6</ele>
        <time>2022-08-02T10:36:27Z</time>
      </trkpt>
      <trkpt lat="42.89866" lon="0.07429">
        <ele>1341.5</ele>
        <time>2022-08-02T10:36:33Z</time>
      </trkpt>
      <trkpt lat="42.89865" lon="0.07441">
        <ele>1343.1</ele>
        <time>2022-08-02T10:36:38Z</time>
      </trkpt>
      <trkpt lat="42.89865" lon="0.07454">
        <ele>1344.7</ele>
        <time>2022-08-02T10:36:43Z</time>
      </trkpt>
      <trkpt lat="42.89864" lon="0.07467">
        <ele>1345.9</ele>
        <time>2022-08-02T10:36:49Z</time>
      </trkpt>
      <trkpt lat="42.89865" lon="0.0748">
        <ele>1346.6</ele>
        <time>2022-08-02T10:36:54Z</time>
      </trkpt>
      <trkpt lat="42.89869" lon="0.07496">
        <ele>1347.3</ele>
        <time>2022-08-02T10:37:00Z</time>
      </trkpt>
      <trkpt lat="42.89874" lon="0.07505">
        <ele>1347.8</ele>
        <time>2022-08-02T10:37:05Z</time>
      </trkpt>
      <trkpt lat="42.89879" lon="0.07514">
        <ele>1347.9</ele>
        <time>2022-08-02T10:37:10Z</time>
      </trkpt>
      <trkpt lat="42.89885" lon="0.07525">
        <ele>1349.3</ele>
        <time>2022-08-02T10:37:16Z</time>
      </trkpt>
      <trkpt lat="42.89889" lon="0.07534">
        <ele>1351</ele>
        <time>2022-08-02T10:37:21Z</time>
      </trkpt>
      <trkpt lat="42.89895" lon="0.07542">
        <ele>1350.6</ele>
        <time>2022-08-02T10:37:26Z</time>
      </trkpt>
      <trkpt lat="42.89901" lon="0.07553">
        <ele>1351</ele>
        <time>2022-08-02T10:37:32Z</time>
      </trkpt>
      <trkpt lat="42.89907" lon="0.07564">
        <ele>1352.2</ele>
        <time>2022-08-02T10:37:38Z</time>
      </trkpt>
      <trkpt lat="42.89912" lon="0.07574">
        <ele>1352</ele>
        <time>2022-08-02T10:37:43Z</time>
      </trkpt>
      <trkpt lat="42.89918" lon="0.07584">
        <ele>1353.6</ele>
        <time>2022-08-02T10:37:49Z</time>
      </trkpt>
      <trkpt lat="42.89923" lon="0.07594">
        <ele>1355.2</ele>
        <time>2022-08-02T10:37:54Z</time>
      </trkpt>
      <trkpt lat="42.89929" lon="0.07604">
        <ele>1355</ele>
        <time>2022-08-02T10:38:00Z</time>
      </trkpt>
      <trkpt lat="42.89935" lon="0.07613">
        <ele>1357</ele>
        <time>2022-08-02T10:38:05Z</time>
      </trkpt>
      <trkpt lat="42.8994" lon="0.07622">
        <ele>1358.6</ele>
        <time>2022-08-02T10:38:10Z</time>
      </trkpt>
      <trkpt lat="42.89943" lon="0.07632">
        <ele>1358</ele>
        <time>2022-08-02T10:38:15Z</time>
      </trkpt>
      <trkpt lat="42.89945" lon="0.07644">
        <ele>1358.6</ele>
        <time>2022-08-02T10:38:20Z</time>
      </trkpt>
      <trkpt lat="42.89947" lon="0.07657">
        <ele>1360.8</ele>
        <time>2022-08-02T10:38:26Z</time>
      </trkpt>
      <trkpt lat="42.89949" lon="0.07669">
        <ele>1361.5</ele>
        <time>2022-08-02T10:38:31Z</time>
      </trkpt>
      <trkpt lat="42.8995" lon="0.07681">
        <ele>1362.5</ele>
        <time>2022-08-02T10:38:36Z</time>
      </trkpt>
      <trkpt lat="42.89952" lon="0.07694">
        <ele>1363.6</ele>
        <time>2022-08-02T10:38:42Z</time>
      </trkpt>
      <trkpt lat="42.89954" lon="0.07707">
        <ele>1364.3</ele>
        <time>2022-08-02T10:38:48Z</time>
      </trkpt>
      <trkpt lat="42.89957" lon="0.07721">
        <ele>1365.6</ele>
        <time>2022-08-02T10:38:54Z</time>
      </trkpt>
      <trkpt lat="42.89958" lon="0.07732">
        <ele>1365.6</ele>
        <time>2022-08-02T10:38:59Z</time>
      </trkpt>
      <trkpt lat="42.89961" lon="0.07746">
        <ele>1366</ele>
        <time>2022-08-02T10:39:05Z</time>
      </trkpt>
      <trkpt lat="42.89963" lon="0.07757">
        <ele>1366.1</ele>
        <time>2022-08-02T10:39:10Z</time>
      </trkpt>
      <trkpt lat="42.89965" lon="0.07769">
        <ele>1367.9</ele>
        <time>2022-08-02T10:39:15Z</time>
      </trkpt>
      <trkpt lat="42.89968" lon="0.07781">
        <ele>1368.7</ele>
        <time>2022-08-02T10:39:21Z</time>
      </trkpt>
      <trkpt lat="42.8997" lon="0.07792">
        <ele>1369</ele>
        <time>2022-08-02T10:39:26Z</time>
      </trkpt>
      <trkpt lat="42.89973" lon="0.07803">
        <ele>1370.6</ele>
        <time>2022-08-02T10:39:31Z</time>
      </trkpt>
      <trkpt lat="42.89977" lon="0.07816">
        <ele>1371</ele>
        <time>2022-08-02T10:39:37Z</time>
      </trkpt>
      <trkpt lat="42.8998" lon="0.07827">
        <ele>1373.2</ele>
        <time>2022-08-02T10:39:42Z</time>
      </trkpt>
      <trkpt lat="42.89985" lon="0.07838">
        <ele>1371.6</ele>
        <time>2022-08-02T10:39:48Z</time>
      </trkpt>
      <trkpt lat="42.89982" lon="0.07852">
        <ele>1371.3</ele>
        <time>2022-08-02T10:39:53Z</time>
      </trkpt>
      <trkpt lat="42.89981" lon="0.07864">
        <ele>1372.7</ele>
        <time>2022-08-02T10:39:58Z</time>
      </trkpt>
      <trkpt lat="42.89983" lon="0.07876">
        <ele>1374.8</ele>
        <time>2022-08-02T10:40:04Z</time>
      </trkpt>
      <trkpt lat="42.8999" lon="0.07883">
        <ele>1376.4</ele>
        <time>2022-08-02T10:40:09Z</time>
      </trkpt>
      <trkpt lat="42.90001" lon="0.07891">
        <ele>1376</ele>
        <time>2022-08-02T10:40:15Z</time>
      </trkpt>
      <trkpt lat="42.90006" lon="0.07901">
        <ele>1377.2</ele>
        <time>2022-08-02T10:40:20Z</time>
      </trkpt>
      <trkpt lat="42.90014" lon="0.07911">
        <ele>1378.3</ele>
        <time>2022-08-02T10:40:26Z</time>
      </trkpt>
      <trkpt lat="42.90018" lon="0.07923">
        <ele>1380.7</ele>
        <time>2022-08-02T10:40:31Z</time>
      </trkpt>
      <trkpt lat="42.90023" lon="0.07933">
        <ele>1380.4</ele>
        <time>2022-08-02T10:40:37Z</time>
      </trkpt>
      <trkpt lat="42.90025" lon="0.07944">
        <ele>1380.7</ele>
        <time>2022-08-02T10:40:42Z</time>
      </trkpt>
      <trkpt lat="42.90028" lon="0.07955">
        <ele>1382</ele>
        <time>2022-08-02T10:40:47Z</time>
      </trkpt>
      <trkpt lat="42.90033" lon="0.07967">
        <ele>1385.1</ele>
        <time>2022-08-02T10:40:53Z</time>
      </trkpt>
      <trkpt lat="42.90037" lon="0.0798">
        <ele>1386.3</ele>
        <time>2022-08-02T10:40:59Z</time>
      </trkpt>
      <trkpt lat="42.90041" lon="0.07992">
        <ele>1386.5</ele>
        <time>2022-08-02T10:41:05Z</time>
      </trkpt>
      <trkpt lat="42.90044" lon="0.08004">
        <ele>1387.7</ele>
        <time>2022-08-02T10:41:11Z</time>
      </trkpt>
      <trkpt lat="42.90048" lon="0.08014">
        <ele>1389.6</ele>
        <time>2022-08-02T10:41:16Z</time>
      </trkpt>
      <trkpt lat="42.90052" lon="0.08025">
        <ele>1390.3</ele>
        <time>2022-08-02T10:41:22Z</time>
      </trkpt>
      <trkpt lat="42.90055" lon="0.08035">
        <ele>1391.2</ele>
        <time>2022-08-02T10:41:27Z</time>
      </trkpt>
      <trkpt lat="42.9006" lon="0.08046">
        <ele>1389.9</ele>
        <time>2022-08-02T10:41:33Z</time>
      </trkpt>
      <trkpt lat="42.90065" lon="0.08057">
        <ele>1390.3</ele>
        <time>2022-08-02T10:41:39Z</time>
      </trkpt>
      <trkpt lat="42.90068" lon="0.08067">
        <ele>1391.7</ele>
        <time>2022-08-02T10:41:44Z</time>
      </trkpt>
      <trkpt lat="42.90072" lon="0.08077">
        <ele>1392</ele>
        <time>2022-08-02T10:41:50Z</time>
      </trkpt>
      <trkpt lat="42.90074" lon="0.08087">
        <ele>1393.9</ele>
        <time>2022-08-02T10:41:55Z</time>
      </trkpt>
      <trkpt lat="42.90077" lon="0.08096">
        <ele>1394</ele>
        <time>2022-08-02T10:42:00Z</time>
      </trkpt>
      <trkpt lat="42.90081" lon="0.08109">
        <ele>1398.2</ele>
        <time>2022-08-02T10:42:06Z</time>
      </trkpt>
      <trkpt lat="42.90083" lon="0.08119">
        <ele>1398.2</ele>
        <time>2022-08-02T10:42:11Z</time>
      </trkpt>
      <trkpt lat="42.90086" lon="0.0813">
        <ele>1399.9</ele>
        <time>2022-08-02T10:42:17Z</time>
      </trkpt>
      <trkpt lat="42.90089" lon="0.08141">
        <ele>1400.8</ele>
        <time>2022-08-02T10:42:22Z</time>
      </trkpt>
      <trkpt lat="42.90092" lon="0.08153">
        <ele>1401.1</ele>
        <time>2022-08-02T10:42:27Z</time>
      </trkpt>
      <trkpt lat="42.90095" lon="0.08165">
        <ele>1402.5</ele>
        <time>2022-08-02T10:42:34Z</time>
      </trkpt>
      <trkpt lat="42.90097" lon="0.08176">
        <ele>1401.8</ele>
        <time>2022-08-02T10:42:39Z</time>
      </trkpt>
      <trkpt lat="42.90099" lon="0.08189">
        <ele>1402</ele>
        <time>2022-08-02T10:42:44Z</time>
      </trkpt>
      <trkpt lat="42.90101" lon="0.08203">
        <ele>1405.4</ele>
        <time>2022-08-02T10:42:51Z</time>
      </trkpt>
      <trkpt lat="42.90105" lon="0.08213">
        <ele>1405.3</ele>
        <time>2022-08-02T10:42:56Z</time>
      </trkpt>
      <trkpt lat="42.9011" lon="0.08223">
        <ele>1404.8</ele>
        <time>2022-08-02T10:43:01Z</time>
      </trkpt>
      <trkpt lat="42.90116" lon="0.08232">
        <ele>1406.6</ele>
        <time>2022-08-02T10:43:07Z</time>
      </trkpt>
      <trkpt lat="42.90123" lon="0.0824">
        <ele>1410</ele>
        <time>2022-08-02T10:43:12Z</time>
      </trkpt>
      <trkpt lat="42.90129" lon="0.08248">
        <ele>1411.5</ele>
        <time>2022-08-02T10:43:17Z</time>
      </trkpt>
      <trkpt lat="42.90133" lon="0.0826">
        <ele>1414.1</ele>
        <time>2022-08-02T10:43:23Z</time>
      </trkpt>
      <trkpt lat="42.90139" lon="0.08271">
        <ele>1416.2</ele>
        <time>2022-08-02T10:43:28Z</time>
      </trkpt>
      <trkpt lat="42.90146" lon="0.0828">
        <ele>1417.1</ele>
        <time>2022-08-02T10:43:33Z</time>
      </trkpt>
      <trkpt lat="42.9015" lon="0.08291">
        <ele>1417.2</ele>
        <time>2022-08-02T10:43:39Z</time>
      </trkpt>
      <trkpt lat="42.90154" lon="0.08303">
        <ele>1414.7</ele>
        <time>2022-08-02T10:43:45Z</time>
      </trkpt>
      <trkpt lat="42.90157" lon="0.08313">
        <ele>1414.3</ele>
        <time>2022-08-02T10:43:51Z</time>
      </trkpt>
      <trkpt lat="42.90159" lon="0.08325">
        <ele>1412.8</ele>
        <time>2022-08-02T10:43:56Z</time>
      </trkpt>
      <trkpt lat="42.90161" lon="0.08338">
        <ele>1415.6</ele>
        <time>2022-08-02T10:44:02Z</time>
      </trkpt>
      <trkpt lat="42.90158" lon="0.08351">
        <ele>1418.8</ele>
        <time>2022-08-02T10:44:08Z</time>
      </trkpt>
      <trkpt lat="42.90157" lon="0.08363">
        <ele>1420</ele>
        <time>2022-08-02T10:44:13Z</time>
      </trkpt>
      <trkpt lat="42.90156" lon="0.08376">
        <ele>1420.9</ele>
        <time>2022-08-02T10:44:18Z</time>
      </trkpt>
      <trkpt lat="42.90156" lon="0.08388">
        <ele>1422.1</ele>
        <time>2022-08-02T10:44:24Z</time>
      </trkpt>
      <trkpt lat="42.90155" lon="0.08401">
        <ele>1423.1</ele>
        <time>2022-08-02T10:44:29Z</time>
      </trkpt>
      <trkpt lat="42.90156" lon="0.08411">
        <ele>1423.2</ele>
        <time>2022-08-02T10:44:35Z</time>
      </trkpt>
      <trkpt lat="42.90158" lon="0.08424">
        <ele>1424.5</ele>
        <time>2022-08-02T10:44:40Z</time>
      </trkpt>
      <trkpt lat="42.90161" lon="0.08434">
        <ele>1424.8</ele>
        <time>2022-08-02T10:44:45Z</time>
      </trkpt>
      <trkpt lat="42.90163" lon="0.08445">
        <ele>1424.4</ele>
        <time>2022-08-02T10:44:50Z</time>
      </trkpt>
      <trkpt lat="42.90166" lon="0.08456">
        <ele>1425.4</ele>
        <time>2022-08-02T10:44:56Z</time>
      </trkpt>
      <trkpt lat="42.90168" lon="0.08466">
        <ele>1425.6</ele>
        <time>2022-08-02T10:45:01Z</time>
      </trkpt>
      <trkpt lat="42.9017" lon="0.08478">
        <ele>1426.3</ele>
        <time>2022-08-02T10:45:06Z</time>
      </trkpt>
      <trkpt lat="42.90171" lon="0.08489">
        <ele>1427.1</ele>
        <time>2022-08-02T10:45:11Z</time>
      </trkpt>
      <trkpt lat="42.90172" lon="0.08501">
        <ele>1428.9</ele>
        <time>2022-08-02T10:45:17Z</time>
      </trkpt>
      <trkpt lat="42.90172" lon="0.08513">
        <ele>1430.4</ele>
        <time>2022-08-02T10:45:23Z</time>
      </trkpt>
      <trkpt lat="42.90173" lon="0.08524">
        <ele>1430.1</ele>
        <time>2022-08-02T10:45:28Z</time>
      </trkpt>
      <trkpt lat="42.90174" lon="0.08536">
        <ele>1430.4</ele>
        <time>2022-08-02T10:45:34Z</time>
      </trkpt>
      <trkpt lat="42.90176" lon="0.08545">
        <ele>1431.7</ele>
        <time>2022-08-02T10:45:39Z</time>
      </trkpt>
      <trkpt lat="42.90177" lon="0.08558">
        <ele>1430.8</ele>
        <time>2022-08-02T10:45:45Z</time>
      </trkpt>
      <trkpt lat="42.90177" lon="0.08568">
        <ele>1430.8</ele>
        <time>2022-08-02T10:45:50Z</time>
      </trkpt>
      <trkpt lat="42.90179" lon="0.0858">
        <ele>1431.4</ele>
        <time>2022-08-02T10:45:56Z</time>
      </trkpt>
      <trkpt lat="42.9018" lon="0.08594">
        <ele>1432.4</ele>
        <time>2022-08-02T10:46:02Z</time>
      </trkpt>
      <trkpt lat="42.90181" lon="0.08606">
        <ele>1433.7</ele>
        <time>2022-08-02T10:46:07Z</time>
      </trkpt>
      <trkpt lat="42.90181" lon="0.08618">
        <ele>1433.2</ele>
        <time>2022-08-02T10:46:12Z</time>
      </trkpt>
      <trkpt lat="42.90183" lon="0.08629">
        <ele>1433.9</ele>
        <time>2022-08-02T10:46:18Z</time>
      </trkpt>
      <trkpt lat="42.90184" lon="0.0864">
        <ele>1435.2</ele>
        <time>2022-08-02T10:46:23Z</time>
      </trkpt>
      <trkpt lat="42.90186" lon="0.08652">
        <ele>1437.6</ele>
        <time>2022-08-02T10:46:28Z</time>
      </trkpt>
      <trkpt lat="42.90187" lon="0.08663">
        <ele>1437.8</ele>
        <time>2022-08-02T10:46:33Z</time>
      </trkpt>
      <trkpt lat="42.9019" lon="0.08676">
        <ele>1439.7</ele>
        <time>2022-08-02T10:46:39Z</time>
      </trkpt>
      <trkpt lat="42.90193" lon="0.0869">
        <ele>1440.5</ele>
        <time>2022-08-02T10:46:45Z</time>
      </trkpt>
      <trkpt lat="42.90198" lon="0.08703">
        <ele>1441.2</ele>
        <time>2022-08-02T10:46:50Z</time>
      </trkpt>
      <trkpt lat="42.902" lon="0.08715">
        <ele>1440.4</ele>
        <time>2022-08-02T10:46:55Z</time>
      </trkpt>
      <trkpt lat="42.90203" lon="0.08728">
        <ele>1441.1</ele>
        <time>2022-08-02T10:47:01Z</time>
      </trkpt>
      <trkpt lat="42.90208" lon="0.0874">
        <ele>1441.9</ele>
        <time>2022-08-02T10:47:06Z</time>
      </trkpt>
      <trkpt lat="42.90212" lon="0.08753">
        <ele>1441.8</ele>
        <time>2022-08-02T10:47:12Z</time>
      </trkpt>
      <trkpt lat="42.90215" lon="0.08765">
        <ele>1441.4</ele>
        <time>2022-08-02T10:47:17Z</time>
      </trkpt>
      <trkpt lat="42.9022" lon="0.08784">
        <ele>1441.8</ele>
        <time>2022-08-02T10:47:22Z</time>
      </trkpt>
      <trkpt lat="42.90223" lon="0.08807">
        <ele>1441.5</ele>
        <time>2022-08-02T10:47:28Z</time>
      </trkpt>
      <trkpt lat="42.90227" lon="0.08828">
        <ele>1441.8</ele>
        <time>2022-08-02T10:47:33Z</time>
      </trkpt>
      <trkpt lat="42.90233" lon="0.08854">
        <ele>1442.2</ele>
        <time>2022-08-02T10:47:39Z</time>
      </trkpt>
      <trkpt lat="42.90239" lon="0.08881">
        <ele>1441.3</ele>
        <time>2022-08-02T10:47:45Z</time>
      </trkpt>
      <trkpt lat="42.90244" lon="0.08904">
        <ele>1440.9</ele>
        <time>2022-08-02T10:47:50Z</time>
      </trkpt>
      <trkpt lat="42.90251" lon="0.08928">
        <ele>1440.5</ele>
        <time>2022-08-02T10:47:56Z</time>
      </trkpt>
      <trkpt lat="42.90257" lon="0.08951">
        <ele>1440</ele>
        <time>2022-08-02T10:48:01Z</time>
      </trkpt>
      <trkpt lat="42.90263" lon="0.08974">
        <ele>1439.4</ele>
        <time>2022-08-02T10:48:06Z</time>
      </trkpt>
      <trkpt lat="42.90268" lon="0.08998">
        <ele>1440.4</ele>
        <time>2022-08-02T10:48:11Z</time>
      </trkpt>
      <trkpt lat="42.90271" lon="0.09022">
        <ele>1441.6</ele>
        <time>2022-08-02T10:48:17Z</time>
      </trkpt>
      <trkpt lat="42.90269" lon="0.09045">
        <ele>1442.3</ele>
        <time>2022-08-02T10:48:22Z</time>
      </trkpt>
      <trkpt lat="42.90267" lon="0.09057">
        <ele>1444.6</ele>
        <time>2022-08-02T10:48:28Z</time>
      </trkpt>
      <trkpt lat="42.90265" lon="0.09073">
        <ele>1445.4</ele>
        <time>2022-08-02T10:48:34Z</time>
      </trkpt>
      <trkpt lat="42.90264" lon="0.09092">
        <ele>1446.2</ele>
        <time>2022-08-02T10:48:39Z</time>
      </trkpt>
      <trkpt lat="42.90263" lon="0.0911">
        <ele>1446.8</ele>
        <time>2022-08-02T10:48:44Z</time>
      </trkpt>
      <trkpt lat="42.90262" lon="0.09133">
        <ele>1447.2</ele>
        <time>2022-08-02T10:48:50Z</time>
      </trkpt>
      <trkpt lat="42.90265" lon="0.09149">
        <ele>1448.1</ele>
        <time>2022-08-02T10:48:55Z</time>
      </trkpt>
      <trkpt lat="42.90269" lon="0.09162">
        <ele>1449.4</ele>
        <time>2022-08-02T10:49:00Z</time>
      </trkpt>
      <trkpt lat="42.90274" lon="0.09177">
        <ele>1449.2</ele>
        <time>2022-08-02T10:49:05Z</time>
      </trkpt>
      <trkpt lat="42.90279" lon="0.09192">
        <ele>1451.1</ele>
        <time>2022-08-02T10:49:10Z</time>
      </trkpt>
      <trkpt lat="42.90283" lon="0.09208">
        <ele>1451.9</ele>
        <time>2022-08-02T10:49:16Z</time>
      </trkpt>
      <trkpt lat="42.90286" lon="0.09222">
        <ele>1454</ele>
        <time>2022-08-02T10:49:21Z</time>
      </trkpt>
      <trkpt lat="42.90291" lon="0.09236">
        <ele>1454.9</ele>
        <time>2022-08-02T10:49:26Z</time>
      </trkpt>
      <trkpt lat="42.90295" lon="0.09253">
        <ele>1455.9</ele>
        <time>2022-08-02T10:49:31Z</time>
      </trkpt>
      <trkpt lat="42.90297" lon="0.09271">
        <ele>1455.1</ele>
        <time>2022-08-02T10:49:37Z</time>
      </trkpt>
      <trkpt lat="42.90301" lon="0.09286">
        <ele>1455.4</ele>
        <time>2022-08-02T10:49:42Z</time>
      </trkpt>
      <trkpt lat="42.90304" lon="0.09302">
        <ele>1454.7</ele>
        <time>2022-08-02T10:49:47Z</time>
      </trkpt>
      <trkpt lat="42.90307" lon="0.09321">
        <ele>1454.2</ele>
        <time>2022-08-02T10:49:53Z</time>
      </trkpt>
      <trkpt lat="42.9031" lon="0.09338">
        <ele>1456.2</ele>
        <time>2022-08-02T10:49:58Z</time>
      </trkpt>
      <trkpt lat="42.90313" lon="0.09356">
        <ele>1456.5</ele>
        <time>2022-08-02T10:50:03Z</time>
      </trkpt>
      <trkpt lat="42.90316" lon="0.09374">
        <ele>1456.4</ele>
        <time>2022-08-02T10:50:09Z</time>
      </trkpt>
      <trkpt lat="42.90319" lon="0.0939">
        <ele>1456.3</ele>
        <time>2022-08-02T10:50:14Z</time>
      </trkpt>
      <trkpt lat="42.90322" lon="0.09405">
        <ele>1457.9</ele>
        <time>2022-08-02T10:50:19Z</time>
      </trkpt>
      <trkpt lat="42.90324" lon="0.09422">
        <ele>1457.8</ele>
        <time>2022-08-02T10:50:25Z</time>
      </trkpt>
      <trkpt lat="42.90324" lon="0.09437">
        <ele>1458.8</ele>
        <time>2022-08-02T10:50:30Z</time>
      </trkpt>
      <trkpt lat="42.90324" lon="0.09455">
        <ele>1458.5</ele>
        <time>2022-08-02T10:50:36Z</time>
      </trkpt>
      <trkpt lat="42.90325" lon="0.09473">
        <ele>1460.1</ele>
        <time>2022-08-02T10:50:42Z</time>
      </trkpt>
      <trkpt lat="42.90325" lon="0.09486">
        <ele>1459.9</ele>
        <time>2022-08-02T10:50:47Z</time>
      </trkpt>
      <trkpt lat="42.90323" lon="0.09501">
        <ele>1461.2</ele>
        <time>2022-08-02T10:50:52Z</time>
      </trkpt>
      <trkpt lat="42.90322" lon="0.09515">
        <ele>1462.5</ele>
        <time>2022-08-02T10:50:57Z</time>
      </trkpt>
      <trkpt lat="42.90321" lon="0.09537">
        <ele>1462.6</ele>
        <time>2022-08-02T10:51:03Z</time>
      </trkpt>
      <trkpt lat="42.9032" lon="0.09556">
        <ele>1464</ele>
        <time>2022-08-02T10:51:08Z</time>
      </trkpt>
      <trkpt lat="42.9032" lon="0.0957">
        <ele>1464.4</ele>
        <time>2022-08-02T10:51:13Z</time>
      </trkpt>
      <trkpt lat="42.9032" lon="0.0958">
        <ele>1465.9</ele>
        <time>2022-08-02T10:51:19Z</time>
      </trkpt>
      <trkpt lat="42.90318" lon="0.09593">
        <ele>1468.1</ele>
        <time>2022-08-02T10:51:25Z</time>
      </trkpt>
      <trkpt lat="42.90317" lon="0.09603">
        <ele>1467.8</ele>
        <time>2022-08-02T10:51:30Z</time>
      </trkpt>
      <trkpt lat="42.90318" lon="0.09613">
        <ele>1468.3</ele>
        <time>2022-08-02T10:51:35Z</time>
      </trkpt>
      <trkpt lat="42.9032" lon="0.09624">
        <ele>1472.9</ele>
        <time>2022-08-02T10:51:41Z</time>
      </trkpt>
      <trkpt lat="42.9032" lon="0.09635">
        <ele>1472.9</ele>
        <time>2022-08-02T10:51:46Z</time>
      </trkpt>
      <trkpt lat="42.90319" lon="0.09647">
        <ele>1473.7</ele>
        <time>2022-08-02T10:51:51Z</time>
      </trkpt>
      <trkpt lat="42.90319" lon="0.09658">
        <ele>1473.8</ele>
        <time>2022-08-02T10:51:57Z</time>
      </trkpt>
      <trkpt lat="42.9032" lon="0.09671">
        <ele>1475.4</ele>
        <time>2022-08-02T10:52:02Z</time>
      </trkpt>
      <trkpt lat="42.9032" lon="0.09684">
        <ele>1476.4</ele>
        <time>2022-08-02T10:52:08Z</time>
      </trkpt>
      <trkpt lat="42.9032" lon="0.09696">
        <ele>1477.5</ele>
        <time>2022-08-02T10:52:13Z</time>
      </trkpt>
      <trkpt lat="42.90319" lon="0.09709">
        <ele>1479.2</ele>
        <time>2022-08-02T10:52:19Z</time>
      </trkpt>
      <trkpt lat="42.90319" lon="0.09723">
        <ele>1479.6</ele>
        <time>2022-08-02T10:52:24Z</time>
      </trkpt>
      <trkpt lat="42.90319" lon="0.09737">
        <ele>1480.9</ele>
        <time>2022-08-02T10:52:30Z</time>
      </trkpt>
      <trkpt lat="42.90319" lon="0.09751">
        <ele>1481.2</ele>
        <time>2022-08-02T10:52:36Z</time>
      </trkpt>
      <trkpt lat="42.90319" lon="0.09765">
        <ele>1481.6</ele>
        <time>2022-08-02T10:52:41Z</time>
      </trkpt>
      <trkpt lat="42.90319" lon="0.09778">
        <ele>1482.9</ele>
        <time>2022-08-02T10:52:46Z</time>
      </trkpt>
      <trkpt lat="42.90321" lon="0.09791">
        <ele>1485.1</ele>
        <time>2022-08-02T10:52:52Z</time>
      </trkpt>
      <trkpt lat="42.90322" lon="0.09803">
        <ele>1485.7</ele>
        <time>2022-08-02T10:52:57Z</time>
      </trkpt>
      <trkpt lat="42.90323" lon="0.09815">
        <ele>1486.4</ele>
        <time>2022-08-02T10:53:02Z</time>
      </trkpt>
      <trkpt lat="42.90324" lon="0.09829">
        <ele>1487.7</ele>
        <time>2022-08-02T10:53:08Z</time>
      </trkpt>
      <trkpt lat="42.90325" lon="0.09839">
        <ele>1489.9</ele>
        <time>2022-08-02T10:53:13Z</time>
      </trkpt>
      <trkpt lat="42.90327" lon="0.09851">
        <ele>1490.2</ele>
        <time>2022-08-02T10:53:18Z</time>
      </trkpt>
      <trkpt lat="42.90327" lon="0.09863">
        <ele>1490.2</ele>
        <time>2022-08-02T10:53:24Z</time>
      </trkpt>
      <trkpt lat="42.90327" lon="0.09873">
        <ele>1491.6</ele>
        <time>2022-08-02T10:53:29Z</time>
      </trkpt>
      <trkpt lat="42.90327" lon="0.0988">
        <ele>1491.7</ele>
        <time>2022-08-02T10:53:35Z</time>
      </trkpt>
      <trkpt lat="42.90326" lon="0.09879">
        <ele>1492.3</ele>
        <time>2022-08-02T10:53:40Z</time>
      </trkpt>
      <trkpt lat="42.90326" lon="0.09879">
        <ele>1492.2</ele>
        <time>2022-08-02T10:53:45Z</time>
      </trkpt>
      <trkpt lat="42.90325" lon="0.09877">
        <ele>1492.2</ele>
        <time>2022-08-02T10:53:51Z</time>
      </trkpt>
      <trkpt lat="42.90325" lon="0.09877">
        <ele>1492.2</ele>
        <time>2022-08-02T10:53:56Z</time>
      </trkpt>
      <trkpt lat="42.90325" lon="0.09877">
        <ele>1492.2</ele>
        <time>2022-08-02T10:54:01Z</time>
      </trkpt>
      <trkpt lat="42.90325" lon="0.09877">
        <ele>1492.1</ele>
        <time>2022-08-02T10:54:07Z</time>
      </trkpt>
      <trkpt lat="42.90325" lon="0.09877">
        <ele>1492.1</ele>
        <time>2022-08-02T10:54:12Z</time>
      </trkpt>
      <trkpt lat="42.90325" lon="0.09877">
        <ele>1492.1</ele>
        <time>2022-08-02T10:54:17Z</time>
      </trkpt>
      <trkpt lat="42.90325" lon="0.09877">
        <ele>1492.1</ele>
        <time>2022-08-02T10:54:23Z</time>
      </trkpt>
      <trkpt lat="42.90325" lon="0.09877">
        <ele>1492</ele>
        <time>2022-08-02T10:54:28Z</time>
      </trkpt>
      <trkpt lat="42.90325" lon="0.09877">
        <ele>1492</ele>
        <time>2022-08-02T10:54:34Z</time>
      </trkpt>
      <trkpt lat="42.90325" lon="0.09877">
        <ele>1492.7</ele>
        <time>2022-08-02T10:54:40Z</time>
      </trkpt>
      <trkpt lat="42.90325" lon="0.09875">
        <ele>1490.8</ele>
        <time>2022-08-02T10:54:46Z</time>
      </trkpt>
      <trkpt lat="42.90325" lon="0.09875">
        <ele>1490.8</ele>
        <time>2022-08-02T10:54:51Z</time>
      </trkpt>
      <trkpt lat="42.90325" lon="0.09876">
        <ele>1490.9</ele>
        <time>2022-08-02T10:54:57Z</time>
      </trkpt>
      <trkpt lat="42.90325" lon="0.09876">
        <ele>1492.4</ele>
        <time>2022-08-02T10:55:02Z</time>
      </trkpt>
      <trkpt lat="42.90326" lon="0.09876">
        <ele>1492.4</ele>
        <time>2022-08-02T10:55:08Z</time>
      </trkpt>
      <trkpt lat="42.90326" lon="0.09876">
        <ele>1492.4</ele>
        <time>2022-08-02T10:55:13Z</time>
      </trkpt>
      <trkpt lat="42.90326" lon="0.09876">
        <ele>1492.4</ele>
        <time>2022-08-02T10:55:18Z</time>
      </trkpt>
      <trkpt lat="42.90326" lon="0.09876">
        <ele>1492.4</ele>
        <time>2022-08-02T10:55:24Z</time>
      </trkpt>
      <trkpt lat="42.90326" lon="0.09876">
        <ele>1492.4</ele>
        <time>2022-08-02T10:55:29Z</time>
      </trkpt>
      <trkpt lat="42.90326" lon="0.09876">
        <ele>1492.8</ele>
        <time>2022-08-02T10:55:35Z</time>
      </trkpt>
      <trkpt lat="42.90324" lon="0.09877">
        <ele>1493.3</ele>
        <time>2022-08-02T10:55:40Z</time>
      </trkpt>
      <trkpt lat="42.90325" lon="0.09878">
        <ele>1493.4</ele>
        <time>2022-08-02T10:55:45Z</time>
      </trkpt>
      <trkpt lat="42.90326" lon="0.09884">
        <ele>1493.7</ele>
        <time>2022-08-02T10:55:50Z</time>
      </trkpt>
      <trkpt lat="42.90327" lon="0.09896">
        <ele>1494.6</ele>
        <time>2022-08-02T10:55:56Z</time>
      </trkpt>
      <trkpt lat="42.90329" lon="0.09909">
        <ele>1493.6</ele>
        <time>2022-08-02T10:56:01Z</time>
      </trkpt>
      <trkpt lat="42.90328" lon="0.09923">
        <ele>1494.3</ele>
        <time>2022-08-02T10:56:07Z</time>
      </trkpt>
      <trkpt lat="42.9033" lon="0.09935">
        <ele>1495.8</ele>
        <time>2022-08-02T10:56:13Z</time>
      </trkpt>
      <trkpt lat="42.90332" lon="0.09946">
        <ele>1497.5</ele>
        <time>2022-08-02T10:56:19Z</time>
      </trkpt>
      <trkpt lat="42.90333" lon="0.09956">
        <ele>1499.1</ele>
        <time>2022-08-02T10:56:24Z</time>
      </trkpt>
      <trkpt lat="42.90333" lon="0.09966">
        <ele>1501</ele>
        <time>2022-08-02T10:56:29Z</time>
      </trkpt>
      <trkpt lat="42.90332" lon="0.09979">
        <ele>1501.4</ele>
        <time>2022-08-02T10:56:35Z</time>
      </trkpt>
      <trkpt lat="42.90328" lon="0.09989">
        <ele>1501.4</ele>
        <time>2022-08-02T10:56:40Z</time>
      </trkpt>
      <trkpt lat="42.90325" lon="0.09996">
        <ele>1500.6</ele>
        <time>2022-08-02T10:56:45Z</time>
      </trkpt>
      <trkpt lat="42.90322" lon="0.10003">
        <ele>1500.3</ele>
        <time>2022-08-02T10:56:51Z</time>
      </trkpt>
      <trkpt lat="42.90318" lon="0.10012">
        <ele>1500.1</ele>
        <time>2022-08-02T10:56:57Z</time>
      </trkpt>
      <trkpt lat="42.90314" lon="0.10023">
        <ele>1499.3</ele>
        <time>2022-08-02T10:57:03Z</time>
      </trkpt>
      <trkpt lat="42.90309" lon="0.1003">
        <ele>1500.5</ele>
        <time>2022-08-02T10:57:08Z</time>
      </trkpt>
      <trkpt lat="42.90304" lon="0.10037">
        <ele>1502</ele>
        <time>2022-08-02T10:57:14Z</time>
      </trkpt>
      <trkpt lat="42.90299" lon="0.10045">
        <ele>1503.1</ele>
        <time>2022-08-02T10:57:20Z</time>
      </trkpt>
      <trkpt lat="42.90295" lon="0.10053">
        <ele>1503</ele>
        <time>2022-08-02T10:57:26Z</time>
      </trkpt>
      <trkpt lat="42.9029" lon="0.10059">
        <ele>1503.1</ele>
        <time>2022-08-02T10:57:31Z</time>
      </trkpt>
      <trkpt lat="42.90286" lon="0.10064">
        <ele>1502</ele>
        <time>2022-08-02T10:57:36Z</time>
      </trkpt>
      <trkpt lat="42.90283" lon="0.1007">
        <ele>1501</ele>
        <time>2022-08-02T10:57:42Z</time>
      </trkpt>
      <trkpt lat="42.90278" lon="0.10075">
        <ele>1503.9</ele>
        <time>2022-08-02T10:57:47Z</time>
      </trkpt>
      <trkpt lat="42.90273" lon="0.10084">
        <ele>1504.1</ele>
        <time>2022-08-02T10:57:52Z</time>
      </trkpt>
      <trkpt lat="42.90269" lon="0.10091">
        <ele>1506.8</ele>
        <time>2022-08-02T10:57:57Z</time>
      </trkpt>
      <trkpt lat="42.90265" lon="0.101">
        <ele>1510.4</ele>
        <time>2022-08-02T10:58:03Z</time>
      </trkpt>
      <trkpt lat="42.90261" lon="0.10111">
        <ele>1511.8</ele>
        <time>2022-08-02T10:58:08Z</time>
      </trkpt>
      <trkpt lat="42.90255" lon="0.10118">
        <ele>1513.4</ele>
        <time>2022-08-02T10:58:13Z</time>
      </trkpt>
      <trkpt lat="42.9025" lon="0.10129">
        <ele>1515.4</ele>
        <time>2022-08-02T10:58:19Z</time>
      </trkpt>
      <trkpt lat="42.90245" lon="0.10138">
        <ele>1520.8</ele>
        <time>2022-08-02T10:58:24Z</time>
      </trkpt>
      <trkpt lat="42.90239" lon="0.10148">
        <ele>1522.6</ele>
        <time>2022-08-02T10:58:30Z</time>
      </trkpt>
      <trkpt lat="42.90234" lon="0.10156">
        <ele>1522.9</ele>
        <time>2022-08-02T10:58:35Z</time>
      </trkpt>
      <trkpt lat="42.9023" lon="0.10165">
        <ele>1522.7</ele>
        <time>2022-08-02T10:58:40Z</time>
      </trkpt>
      <trkpt lat="42.90225" lon="0.10173">
        <ele>1521.9</ele>
        <time>2022-08-02T10:58:45Z</time>
      </trkpt>
      <trkpt lat="42.90217" lon="0.1018">
        <ele>1521.8</ele>
        <time>2022-08-02T10:58:50Z</time>
      </trkpt>
      <trkpt lat="42.9021" lon="0.10193">
        <ele>1523.8</ele>
        <time>2022-08-02T10:58:56Z</time>
      </trkpt>
      <trkpt lat="42.90204" lon="0.10202">
        <ele>1525.8</ele>
        <time>2022-08-02T10:59:01Z</time>
      </trkpt>
      <trkpt lat="42.90197" lon="0.1021">
        <ele>1525.8</ele>
        <time>2022-08-02T10:59:06Z</time>
      </trkpt>
      <trkpt lat="42.90191" lon="0.10219">
        <ele>1528</ele>
        <time>2022-08-02T10:59:12Z</time>
      </trkpt>
      <trkpt lat="42.90186" lon="0.10227">
        <ele>1528.9</ele>
        <time>2022-08-02T10:59:17Z</time>
      </trkpt>
      <trkpt lat="42.90179" lon="0.10235">
        <ele>1529.3</ele>
        <time>2022-08-02T10:59:22Z</time>
      </trkpt>
      <trkpt lat="42.90172" lon="0.10241">
        <ele>1531.1</ele>
        <time>2022-08-02T10:59:28Z</time>
      </trkpt>
      <trkpt lat="42.90166" lon="0.10249">
        <ele>1532.4</ele>
        <time>2022-08-02T10:59:34Z</time>
      </trkpt>
      <trkpt lat="42.90161" lon="0.10257">
        <ele>1532.7</ele>
        <time>2022-08-02T10:59:39Z</time>
      </trkpt>
      <trkpt lat="42.90153" lon="0.10266">
        <ele>1532.2</ele>
        <time>2022-08-02T10:59:45Z</time>
      </trkpt>
      <trkpt lat="42.90147" lon="0.10274">
        <ele>1531.6</ele>
        <time>2022-08-02T10:59:51Z</time>
      </trkpt>
      <trkpt lat="42.90141" lon="0.10281">
        <ele>1530.6</ele>
        <time>2022-08-02T10:59:56Z</time>
      </trkpt>
      <trkpt lat="42.90135" lon="0.10285">
        <ele>1528.7</ele>
        <time>2022-08-02T11:00:01Z</time>
      </trkpt>
      <trkpt lat="42.90129" lon="0.1029">
        <ele>1529.3</ele>
        <time>2022-08-02T11:00:06Z</time>
      </trkpt>
      <trkpt lat="42.90121" lon="0.10294">
        <ele>1532.1</ele>
        <time>2022-08-02T11:00:11Z</time>
      </trkpt>
      <trkpt lat="42.90112" lon="0.10297">
        <ele>1533.6</ele>
        <time>2022-08-02T11:00:17Z</time>
      </trkpt>
      <trkpt lat="42.90104" lon="0.103">
        <ele>1533.9</ele>
        <time>2022-08-02T11:00:22Z</time>
      </trkpt>
      <trkpt lat="42.90096" lon="0.103">
        <ele>1534.1</ele>
        <time>2022-08-02T11:00:27Z</time>
      </trkpt>
      <trkpt lat="42.90088" lon="0.10302">
        <ele>1533.7</ele>
        <time>2022-08-02T11:00:32Z</time>
      </trkpt>
      <trkpt lat="42.9008" lon="0.10305">
        <ele>1535.7</ele>
        <time>2022-08-02T11:00:37Z</time>
      </trkpt>
      <trkpt lat="42.90071" lon="0.10309">
        <ele>1537.5</ele>
        <time>2022-08-02T11:00:42Z</time>
      </trkpt>
      <trkpt lat="42.90063" lon="0.10313">
        <ele>1538.9</ele>
        <time>2022-08-02T11:00:47Z</time>
      </trkpt>
      <trkpt lat="42.90056" lon="0.10318">
        <ele>1539.2</ele>
        <time>2022-08-02T11:00:53Z</time>
      </trkpt>
      <trkpt lat="42.90048" lon="0.1032">
        <ele>1542</ele>
        <time>2022-08-02T11:00:58Z</time>
      </trkpt>
      <trkpt lat="42.9004" lon="0.10324">
        <ele>1541.9</ele>
        <time>2022-08-02T11:01:03Z</time>
      </trkpt>
      <trkpt lat="42.90032" lon="0.10328">
        <ele>1543.9</ele>
        <time>2022-08-02T11:01:08Z</time>
      </trkpt>
      <trkpt lat="42.90024" lon="0.10332">
        <ele>1546.4</ele>
        <time>2022-08-02T11:01:13Z</time>
      </trkpt>
      <trkpt lat="42.90016" lon="0.10335">
        <ele>1547.8</ele>
        <time>2022-08-02T11:01:18Z</time>
      </trkpt>
      <trkpt lat="42.90008" lon="0.1034">
        <ele>1549.2</ele>
        <time>2022-08-02T11:01:24Z</time>
      </trkpt>
      <trkpt lat="42.90001" lon="0.10345">
        <ele>1551.3</ele>
        <time>2022-08-02T11:01:29Z</time>
      </trkpt>
      <trkpt lat="42.89993" lon="0.1035">
        <ele>1551.3</ele>
        <time>2022-08-02T11:01:34Z</time>
      </trkpt>
      <trkpt lat="42.89985" lon="0.1035">
        <ele>1553.7</ele>
        <time>2022-08-02T11:01:40Z</time>
      </trkpt>
      <trkpt lat="42.89976" lon="0.10352">
        <ele>1552.6</ele>
        <time>2022-08-02T11:01:46Z</time>
      </trkpt>
      <trkpt lat="42.89967" lon="0.10355">
        <ele>1552.3</ele>
        <time>2022-08-02T11:01:52Z</time>
      </trkpt>
      <trkpt lat="42.89958" lon="0.10359">
        <ele>1553.2</ele>
        <time>2022-08-02T11:01:58Z</time>
      </trkpt>
      <trkpt lat="42.89951" lon="0.10363">
        <ele>1553</ele>
        <time>2022-08-02T11:02:03Z</time>
      </trkpt>
      <trkpt lat="42.89943" lon="0.10363">
        <ele>1554.9</ele>
        <time>2022-08-02T11:02:09Z</time>
      </trkpt>
      <trkpt lat="42.89935" lon="0.10366">
        <ele>1555</ele>
        <time>2022-08-02T11:02:14Z</time>
      </trkpt>
      <trkpt lat="42.89926" lon="0.10369">
        <ele>1553</ele>
        <time>2022-08-02T11:02:20Z</time>
      </trkpt>
      <trkpt lat="42.89918" lon="0.10372">
        <ele>1556.9</ele>
        <time>2022-08-02T11:02:26Z</time>
      </trkpt>
      <trkpt lat="42.89911" lon="0.10377">
        <ele>1558</ele>
        <time>2022-08-02T11:02:31Z</time>
      </trkpt>
      <trkpt lat="42.89903" lon="0.10381">
        <ele>1556.6</ele>
        <time>2022-08-02T11:02:37Z</time>
      </trkpt>
      <trkpt lat="42.89895" lon="0.10383">
        <ele>1558.2</ele>
        <time>2022-08-02T11:02:42Z</time>
      </trkpt>
      <trkpt lat="42.89887" lon="0.10389">
        <ele>1558.6</ele>
        <time>2022-08-02T11:02:48Z</time>
      </trkpt>
      <trkpt lat="42.8988" lon="0.10393">
        <ele>1555.2</ele>
        <time>2022-08-02T11:02:53Z</time>
      </trkpt>
      <trkpt lat="42.89872" lon="0.10398">
        <ele>1556.7</ele>
        <time>2022-08-02T11:02:59Z</time>
      </trkpt>
      <trkpt lat="42.89862" lon="0.10402">
        <ele>1557.2</ele>
        <time>2022-08-02T11:03:05Z</time>
      </trkpt>
      <trkpt lat="42.89856" lon="0.10404">
        <ele>1555.9</ele>
        <time>2022-08-02T11:03:10Z</time>
      </trkpt>
      <trkpt lat="42.89849" lon="0.10409">
        <ele>1556.6</ele>
        <time>2022-08-02T11:03:15Z</time>
      </trkpt>
      <trkpt lat="42.89841" lon="0.10414">
        <ele>1559.4</ele>
        <time>2022-08-02T11:03:21Z</time>
      </trkpt>
      <trkpt lat="42.89834" lon="0.1042">
        <ele>1559.3</ele>
        <time>2022-08-02T11:03:26Z</time>
      </trkpt>
      <trkpt lat="42.89827" lon="0.10425">
        <ele>1559.8</ele>
        <time>2022-08-02T11:03:31Z</time>
      </trkpt>
      <trkpt lat="42.8982" lon="0.10429">
        <ele>1559</ele>
        <time>2022-08-02T11:03:37Z</time>
      </trkpt>
      <trkpt lat="42.89813" lon="0.10432">
        <ele>1557.3</ele>
        <time>2022-08-02T11:03:42Z</time>
      </trkpt>
      <trkpt lat="42.89806" lon="0.10435">
        <ele>1556.7</ele>
        <time>2022-08-02T11:03:48Z</time>
      </trkpt>
      <trkpt lat="42.89798" lon="0.10439">
        <ele>1557.6</ele>
        <time>2022-08-02T11:03:53Z</time>
      </trkpt>
      <trkpt lat="42.89792" lon="0.10444">
        <ele>1559</ele>
        <time>2022-08-02T11:03:59Z</time>
      </trkpt>
      <trkpt lat="42.89784" lon="0.10447">
        <ele>1560.4</ele>
        <time>2022-08-02T11:04:04Z</time>
      </trkpt>
      <trkpt lat="42.89776" lon="0.10449">
        <ele>1561.4</ele>
        <time>2022-08-02T11:04:10Z</time>
      </trkpt>
      <trkpt lat="42.89768" lon="0.10453">
        <ele>1562.3</ele>
        <time>2022-08-02T11:04:15Z</time>
      </trkpt>
      <trkpt lat="42.89758" lon="0.10454">
        <ele>1562.9</ele>
        <time>2022-08-02T11:04:21Z</time>
      </trkpt>
      <trkpt lat="42.89752" lon="0.10454">
        <ele>1562.8</ele>
        <time>2022-08-02T11:04:26Z</time>
      </trkpt>
      <trkpt lat="42.89743" lon="0.10454">
        <ele>1562.6</ele>
        <time>2022-08-02T11:04:32Z</time>
      </trkpt>
      <trkpt lat="42.89733" lon="0.10454">
        <ele>1563.8</ele>
        <time>2022-08-02T11:04:38Z</time>
      </trkpt>
      <trkpt lat="42.89726" lon="0.10457">
        <ele>1562.9</ele>
        <time>2022-08-02T11:04:43Z</time>
      </trkpt>
      <trkpt lat="42.89719" lon="0.1046">
        <ele>1563</ele>
        <time>2022-08-02T11:04:48Z</time>
      </trkpt>
      <trkpt lat="42.89712" lon="0.10463">
        <ele>1564.8</ele>
        <time>2022-08-02T11:04:54Z</time>
      </trkpt>
      <trkpt lat="42.89704" lon="0.10465">
        <ele>1566.4</ele>
        <time>2022-08-02T11:04:59Z</time>
      </trkpt>
      <trkpt lat="42.89697" lon="0.10469">
        <ele>1565.2</ele>
        <time>2022-08-02T11:05:04Z</time>
      </trkpt>
      <trkpt lat="42.8969" lon="0.1047">
        <ele>1566.2</ele>
        <time>2022-08-02T11:05:09Z</time>
      </trkpt>
      <trkpt lat="42.89682" lon="0.10473">
        <ele>1566.9</ele>
        <time>2022-08-02T11:05:15Z</time>
      </trkpt>
      <trkpt lat="42.89673" lon="0.10475">
        <ele>1568.1</ele>
        <time>2022-08-02T11:05:21Z</time>
      </trkpt>
      <trkpt lat="42.89667" lon="0.10478">
        <ele>1567.5</ele>
        <time>2022-08-02T11:05:26Z</time>
      </trkpt>
      <trkpt lat="42.89659" lon="0.10479">
        <ele>1569.6</ele>
        <time>2022-08-02T11:05:32Z</time>
      </trkpt>
      <trkpt lat="42.8965" lon="0.10481">
        <ele>1570.5</ele>
        <time>2022-08-02T11:05:38Z</time>
      </trkpt>
      <trkpt lat="42.89641" lon="0.10481">
        <ele>1574</ele>
        <time>2022-08-02T11:05:44Z</time>
      </trkpt>
      <trkpt lat="42.89632" lon="0.10481">
        <ele>1575.9</ele>
        <time>2022-08-02T11:05:49Z</time>
      </trkpt>
      <trkpt lat="42.89623" lon="0.10479">
        <ele>1578</ele>
        <time>2022-08-02T11:05:55Z</time>
      </trkpt>
      <trkpt lat="42.89616" lon="0.10478">
        <ele>1579.3</ele>
        <time>2022-08-02T11:06:00Z</time>
      </trkpt>
      <trkpt lat="42.89609" lon="0.10476">
        <ele>1581.4</ele>
        <time>2022-08-02T11:06:05Z</time>
      </trkpt>
      <trkpt lat="42.89602" lon="0.10472">
        <ele>1582.7</ele>
        <time>2022-08-02T11:06:11Z</time>
      </trkpt>
      <trkpt lat="42.89594" lon="0.10469">
        <ele>1585.2</ele>
        <time>2022-08-02T11:06:17Z</time>
      </trkpt>
      <trkpt lat="42.89587" lon="0.10467">
        <ele>1587.2</ele>
        <time>2022-08-02T11:06:22Z</time>
      </trkpt>
      <trkpt lat="42.8958" lon="0.10463">
        <ele>1588.3</ele>
        <time>2022-08-02T11:06:27Z</time>
      </trkpt>
      <trkpt lat="42.89573" lon="0.1046">
        <ele>1588.4</ele>
        <time>2022-08-02T11:06:33Z</time>
      </trkpt>
      <trkpt lat="42.89567" lon="0.10456">
        <ele>1590.2</ele>
        <time>2022-08-02T11:06:38Z</time>
      </trkpt>
      <trkpt lat="42.8956" lon="0.10456">
        <ele>1590.2</ele>
        <time>2022-08-02T11:06:43Z</time>
      </trkpt>
      <trkpt lat="42.89553" lon="0.10463">
        <ele>1588.5</ele>
        <time>2022-08-02T11:06:49Z</time>
      </trkpt>
      <trkpt lat="42.89547" lon="0.10476">
        <ele>1588.3</ele>
        <time>2022-08-02T11:06:55Z</time>
      </trkpt>
      <trkpt lat="42.89542" lon="0.10491">
        <ele>1589.2</ele>
        <time>2022-08-02T11:07:01Z</time>
      </trkpt>
      <trkpt lat="42.89539" lon="0.10502">
        <ele>1588.6</ele>
        <time>2022-08-02T11:07:06Z</time>
      </trkpt>
      <trkpt lat="42.89536" lon="0.10514">
        <ele>1589.9</ele>
        <time>2022-08-02T11:07:11Z</time>
      </trkpt>
      <trkpt lat="42.89532" lon="0.10525">
        <ele>1590.6</ele>
        <time>2022-08-02T11:07:16Z</time>
      </trkpt>
      <trkpt lat="42.8953" lon="0.10534">
        <ele>1591.2</ele>
        <time>2022-08-02T11:07:21Z</time>
      </trkpt>
      <trkpt lat="42.89528" lon="0.10543">
        <ele>1591.9</ele>
        <time>2022-08-02T11:07:27Z</time>
      </trkpt>
      <trkpt lat="42.89525" lon="0.10551">
        <ele>1591</ele>
        <time>2022-08-02T11:07:32Z</time>
      </trkpt>
      <trkpt lat="42.89522" lon="0.10563">
        <ele>1590.1</ele>
        <time>2022-08-02T11:07:38Z</time>
      </trkpt>
      <trkpt lat="42.8952" lon="0.10572">
        <ele>1590.8</ele>
        <time>2022-08-02T11:07:43Z</time>
      </trkpt>
      <trkpt lat="42.89517" lon="0.10582">
        <ele>1593.4</ele>
        <time>2022-08-02T11:07:49Z</time>
      </trkpt>
      <trkpt lat="42.89515" lon="0.10592">
        <ele>1593.3</ele>
        <time>2022-08-02T11:07:54Z</time>
      </trkpt>
      <trkpt lat="42.89512" lon="0.10602">
        <ele>1593.3</ele>
        <time>2022-08-02T11:08:00Z</time>
      </trkpt>
      <trkpt lat="42.89511" lon="0.10611">
        <ele>1591.7</ele>
        <time>2022-08-02T11:08:05Z</time>
      </trkpt>
      <trkpt lat="42.89509" lon="0.1062">
        <ele>1592.2</ele>
        <time>2022-08-02T11:08:10Z</time>
      </trkpt>
      <trkpt lat="42.8951" lon="0.1063">
        <ele>1591.6</ele>
        <time>2022-08-02T11:08:15Z</time>
      </trkpt>
      <trkpt lat="42.89511" lon="0.10642">
        <ele>1592</ele>
        <time>2022-08-02T11:08:21Z</time>
      </trkpt>
      <trkpt lat="42.89513" lon="0.10652">
        <ele>1592.6</ele>
        <time>2022-08-02T11:08:26Z</time>
      </trkpt>
      <trkpt lat="42.89519" lon="0.10662">
        <ele>1593.8</ele>
        <time>2022-08-02T11:08:32Z</time>
      </trkpt>
      <trkpt lat="42.89524" lon="0.10669">
        <ele>1596.3</ele>
        <time>2022-08-02T11:08:37Z</time>
      </trkpt>
      <trkpt lat="42.89529" lon="0.10676">
        <ele>1597.3</ele>
        <time>2022-08-02T11:08:42Z</time>
      </trkpt>
      <trkpt lat="42.89534" lon="0.10683">
        <ele>1598.8</ele>
        <time>2022-08-02T11:08:48Z</time>
      </trkpt>
      <trkpt lat="42.89539" lon="0.10688">
        <ele>1599</ele>
        <time>2022-08-02T11:08:53Z</time>
      </trkpt>
      <trkpt lat="42.89545" lon="0.10694">
        <ele>1597.2</ele>
        <time>2022-08-02T11:08:58Z</time>
      </trkpt>
      <trkpt lat="42.89554" lon="0.10698">
        <ele>1597.8</ele>
        <time>2022-08-02T11:09:04Z</time>
      </trkpt>
      <trkpt lat="42.8956" lon="0.10703">
        <ele>1598.7</ele>
        <time>2022-08-02T11:09:09Z</time>
      </trkpt>
      <trkpt lat="42.89565" lon="0.1071">
        <ele>1599.6</ele>
        <time>2022-08-02T11:09:14Z</time>
      </trkpt>
      <trkpt lat="42.89569" lon="0.10718">
        <ele>1600.2</ele>
        <time>2022-08-02T11:09:19Z</time>
      </trkpt>
      <trkpt lat="42.89575" lon="0.10725">
        <ele>1600</ele>
        <time>2022-08-02T11:09:25Z</time>
      </trkpt>
      <trkpt lat="42.89582" lon="0.10731">
        <ele>1601</ele>
        <time>2022-08-02T11:09:31Z</time>
      </trkpt>
      <trkpt lat="42.89587" lon="0.10738">
        <ele>1601.7</ele>
        <time>2022-08-02T11:09:36Z</time>
      </trkpt>
      <trkpt lat="42.89594" lon="0.10744">
        <ele>1602</ele>
        <time>2022-08-02T11:09:42Z</time>
      </trkpt>
      <trkpt lat="42.89602" lon="0.10745">
        <ele>1604</ele>
        <time>2022-08-02T11:09:48Z</time>
      </trkpt>
      <trkpt lat="42.89611" lon="0.10745">
        <ele>1604.9</ele>
        <time>2022-08-02T11:09:54Z</time>
      </trkpt>
      <trkpt lat="42.89618" lon="0.10745">
        <ele>1605.3</ele>
        <time>2022-08-02T11:09:59Z</time>
      </trkpt>
      <trkpt lat="42.89625" lon="0.10747">
        <ele>1605.2</ele>
        <time>2022-08-02T11:10:04Z</time>
      </trkpt>
      <trkpt lat="42.89633" lon="0.10748">
        <ele>1606.3</ele>
        <time>2022-08-02T11:10:10Z</time>
      </trkpt>
      <trkpt lat="42.89642" lon="0.10751">
        <ele>1608.3</ele>
        <time>2022-08-02T11:10:16Z</time>
      </trkpt>
      <trkpt lat="42.8965" lon="0.10756">
        <ele>1609.6</ele>
        <time>2022-08-02T11:10:22Z</time>
      </trkpt>
      <trkpt lat="42.89655" lon="0.10761">
        <ele>1610.4</ele>
        <time>2022-08-02T11:10:27Z</time>
      </trkpt>
      <trkpt lat="42.89661" lon="0.10766">
        <ele>1610.8</ele>
        <time>2022-08-02T11:10:32Z</time>
      </trkpt>
      <trkpt lat="42.89667" lon="0.10771">
        <ele>1612.4</ele>
        <time>2022-08-02T11:10:37Z</time>
      </trkpt>
      <trkpt lat="42.89673" lon="0.10775">
        <ele>1612.5</ele>
        <time>2022-08-02T11:10:42Z</time>
      </trkpt>
      <trkpt lat="42.89681" lon="0.1078">
        <ele>1612</ele>
        <time>2022-08-02T11:10:48Z</time>
      </trkpt>
      <trkpt lat="42.89688" lon="0.10784">
        <ele>1611.9</ele>
        <time>2022-08-02T11:10:53Z</time>
      </trkpt>
      <trkpt lat="42.89695" lon="0.10788">
        <ele>1612.6</ele>
        <time>2022-08-02T11:10:59Z</time>
      </trkpt>
      <trkpt lat="42.89703" lon="0.1079">
        <ele>1613.5</ele>
        <time>2022-08-02T11:11:04Z</time>
      </trkpt>
      <trkpt lat="42.8971" lon="0.10792">
        <ele>1615</ele>
        <time>2022-08-02T11:11:09Z</time>
      </trkpt>
      <trkpt lat="42.89718" lon="0.10793">
        <ele>1616.4</ele>
        <time>2022-08-02T11:11:14Z</time>
      </trkpt>
      <trkpt lat="42.89725" lon="0.10796">
        <ele>1615.9</ele>
        <time>2022-08-02T11:11:19Z</time>
      </trkpt>
      <trkpt lat="42.89732" lon="0.10801">
        <ele>1616.4</ele>
        <time>2022-08-02T11:11:25Z</time>
      </trkpt>
      <trkpt lat="42.89738" lon="0.10804">
        <ele>1617.5</ele>
        <time>2022-08-02T11:11:30Z</time>
      </trkpt>
      <trkpt lat="42.89746" lon="0.10808">
        <ele>1615.8</ele>
        <time>2022-08-02T11:11:35Z</time>
      </trkpt>
      <trkpt lat="42.89751" lon="0.10812">
        <ele>1616.2</ele>
        <time>2022-08-02T11:11:41Z</time>
      </trkpt>
      <trkpt lat="42.89757" lon="0.10815">
        <ele>1618</ele>
        <time>2022-08-02T11:11:46Z</time>
      </trkpt>
      <trkpt lat="42.89765" lon="0.1082">
        <ele>1619.2</ele>
        <time>2022-08-02T11:11:51Z</time>
      </trkpt>
      <trkpt lat="42.89771" lon="0.10822">
        <ele>1618.9</ele>
        <time>2022-08-02T11:11:56Z</time>
      </trkpt>
      <trkpt lat="42.89778" lon="0.10823">
        <ele>1621.8</ele>
        <time>2022-08-02T11:12:02Z</time>
      </trkpt>
      <trkpt lat="42.89786" lon="0.10827">
        <ele>1622.8</ele>
        <time>2022-08-02T11:12:07Z</time>
      </trkpt>
      <trkpt lat="42.89791" lon="0.1083">
        <ele>1623.7</ele>
        <time>2022-08-02T11:12:13Z</time>
      </trkpt>
      <trkpt lat="42.89802" lon="0.10827">
        <ele>1622.8</ele>
        <time>2022-08-02T11:12:18Z</time>
      </trkpt>
      <trkpt lat="42.89812" lon="0.10828">
        <ele>1624.7</ele>
        <time>2022-08-02T11:12:24Z</time>
      </trkpt>
      <trkpt lat="42.8982" lon="0.10829">
        <ele>1625.5</ele>
        <time>2022-08-02T11:12:29Z</time>
      </trkpt>
      <trkpt lat="42.89828" lon="0.10833">
        <ele>1625.4</ele>
        <time>2022-08-02T11:12:34Z</time>
      </trkpt>
      <trkpt lat="42.89835" lon="0.10835">
        <ele>1624.9</ele>
        <time>2022-08-02T11:12:39Z</time>
      </trkpt>
      <trkpt lat="42.89843" lon="0.1084">
        <ele>1626.3</ele>
        <time>2022-08-02T11:12:45Z</time>
      </trkpt>
      <trkpt lat="42.89851" lon="0.10844">
        <ele>1628.8</ele>
        <time>2022-08-02T11:12:51Z</time>
      </trkpt>
      <trkpt lat="42.89859" lon="0.10849">
        <ele>1629</ele>
        <time>2022-08-02T11:12:57Z</time>
      </trkpt>
      <trkpt lat="42.89865" lon="0.10855">
        <ele>1628.1</ele>
        <time>2022-08-02T11:13:02Z</time>
      </trkpt>
      <trkpt lat="42.89871" lon="0.10862">
        <ele>1629.8</ele>
        <time>2022-08-02T11:13:07Z</time>
      </trkpt>
      <trkpt lat="42.8988" lon="0.10866">
        <ele>1631.8</ele>
        <time>2022-08-02T11:13:12Z</time>
      </trkpt>
      <trkpt lat="42.89888" lon="0.10871">
        <ele>1632.8</ele>
        <time>2022-08-02T11:13:18Z</time>
      </trkpt>
      <trkpt lat="42.89897" lon="0.10876">
        <ele>1634.3</ele>
        <time>2022-08-02T11:13:23Z</time>
      </trkpt>
      <trkpt lat="42.89906" lon="0.10879">
        <ele>1634.1</ele>
        <time>2022-08-02T11:13:29Z</time>
      </trkpt>
      <trkpt lat="42.89914" lon="0.10882">
        <ele>1636.1</ele>
        <time>2022-08-02T11:13:35Z</time>
      </trkpt>
      <trkpt lat="42.8992" lon="0.10883">
        <ele>1636.9</ele>
        <time>2022-08-02T11:13:40Z</time>
      </trkpt>
      <trkpt lat="42.89927" lon="0.10889">
        <ele>1637</ele>
        <time>2022-08-02T11:13:46Z</time>
      </trkpt>
      <trkpt lat="42.89934" lon="0.10893">
        <ele>1636.5</ele>
        <time>2022-08-02T11:13:51Z</time>
      </trkpt>
      <trkpt lat="42.89942" lon="0.10895">
        <ele>1637.6</ele>
        <time>2022-08-02T11:13:57Z</time>
      </trkpt>
      <trkpt lat="42.8995" lon="0.10896">
        <ele>1638.8</ele>
        <time>2022-08-02T11:14:02Z</time>
      </trkpt>
      <trkpt lat="42.89959" lon="0.10894">
        <ele>1640</ele>
        <time>2022-08-02T11:14:07Z</time>
      </trkpt>
      <trkpt lat="42.89965" lon="0.10892">
        <ele>1640.1</ele>
        <time>2022-08-02T11:14:13Z</time>
      </trkpt>
      <trkpt lat="42.89973" lon="0.10891">
        <ele>1638.8</ele>
        <time>2022-08-02T11:14:18Z</time>
      </trkpt>
      <trkpt lat="42.89981" lon="0.10891">
        <ele>1638.9</ele>
        <time>2022-08-02T11:14:24Z</time>
      </trkpt>
      <trkpt lat="42.89989" lon="0.10894">
        <ele>1639.1</ele>
        <time>2022-08-02T11:14:29Z</time>
      </trkpt>
      <trkpt lat="42.89997" lon="0.10897">
        <ele>1638</ele>
        <time>2022-08-02T11:14:34Z</time>
      </trkpt>
      <trkpt lat="42.90004" lon="0.10897">
        <ele>1638.2</ele>
        <time>2022-08-02T11:14:40Z</time>
      </trkpt>
      <trkpt lat="42.90011" lon="0.10896">
        <ele>1638.8</ele>
        <time>2022-08-02T11:14:45Z</time>
      </trkpt>
      <trkpt lat="42.90019" lon="0.10897">
        <ele>1638.1</ele>
        <time>2022-08-02T11:14:50Z</time>
      </trkpt>
      <trkpt lat="42.90026" lon="0.10895">
        <ele>1638.9</ele>
        <time>2022-08-02T11:14:55Z</time>
      </trkpt>
      <trkpt lat="42.90033" lon="0.10892">
        <ele>1638.9</ele>
        <time>2022-08-02T11:15:01Z</time>
      </trkpt>
      <trkpt lat="42.90039" lon="0.10889">
        <ele>1640</ele>
        <time>2022-08-02T11:15:06Z</time>
      </trkpt>
      <trkpt lat="42.90045" lon="0.10888">
        <ele>1640.7</ele>
        <time>2022-08-02T11:15:11Z</time>
      </trkpt>
      <trkpt lat="42.90052" lon="0.10887">
        <ele>1640</ele>
        <time>2022-08-02T11:15:16Z</time>
      </trkpt>
      <trkpt lat="42.90061" lon="0.10887">
        <ele>1639.8</ele>
        <time>2022-08-02T11:15:22Z</time>
      </trkpt>
      <trkpt lat="42.90068" lon="0.10883">
        <ele>1641.1</ele>
        <time>2022-08-02T11:15:27Z</time>
      </trkpt>
      <trkpt lat="42.90074" lon="0.10882">
        <ele>1641.8</ele>
        <time>2022-08-02T11:15:32Z</time>
      </trkpt>
      <trkpt lat="42.90083" lon="0.10879">
        <ele>1643.8</ele>
        <time>2022-08-02T11:15:38Z</time>
      </trkpt>
      <trkpt lat="42.90091" lon="0.10873">
        <ele>1644.1</ele>
        <time>2022-08-02T11:15:44Z</time>
      </trkpt>
      <trkpt lat="42.901" lon="0.10871">
        <ele>1644.8</ele>
        <time>2022-08-02T11:15:50Z</time>
      </trkpt>
      <trkpt lat="42.90108" lon="0.10868">
        <ele>1644.2</ele>
        <time>2022-08-02T11:15:56Z</time>
      </trkpt>
      <trkpt lat="42.90115" lon="0.10865">
        <ele>1646</ele>
        <time>2022-08-02T11:16:02Z</time>
      </trkpt>
      <trkpt lat="42.90123" lon="0.10863">
        <ele>1646.4</ele>
        <time>2022-08-02T11:16:07Z</time>
      </trkpt>
      <trkpt lat="42.90132" lon="0.10861">
        <ele>1647.3</ele>
        <time>2022-08-02T11:16:13Z</time>
      </trkpt>
      <trkpt lat="42.90139" lon="0.10861">
        <ele>1647.5</ele>
        <time>2022-08-02T11:16:18Z</time>
      </trkpt>
      <trkpt lat="42.90148" lon="0.10857">
        <ele>1647.7</ele>
        <time>2022-08-02T11:16:24Z</time>
      </trkpt>
      <trkpt lat="42.90156" lon="0.10853">
        <ele>1649.9</ele>
        <time>2022-08-02T11:16:29Z</time>
      </trkpt>
      <trkpt lat="42.90162" lon="0.10852">
        <ele>1650.2</ele>
        <time>2022-08-02T11:16:34Z</time>
      </trkpt>
      <trkpt lat="42.90171" lon="0.10853">
        <ele>1650.2</ele>
        <time>2022-08-02T11:16:39Z</time>
      </trkpt>
      <trkpt lat="42.9018" lon="0.10851">
        <ele>1650.7</ele>
        <time>2022-08-02T11:16:44Z</time>
      </trkpt>
      <trkpt lat="42.9019" lon="0.10849">
        <ele>1652.1</ele>
        <time>2022-08-02T11:16:50Z</time>
      </trkpt>
      <trkpt lat="42.90198" lon="0.10846">
        <ele>1653.7</ele>
        <time>2022-08-02T11:16:55Z</time>
      </trkpt>
      <trkpt lat="42.90207" lon="0.10844">
        <ele>1653.5</ele>
        <time>2022-08-02T11:17:00Z</time>
      </trkpt>
      <trkpt lat="42.90209" lon="0.10843">
        <ele>1653.3</ele>
        <time>2022-08-02T11:17:06Z</time>
      </trkpt>
      <trkpt lat="42.9021" lon="0.10843">
        <ele>1653.8</ele>
        <time>2022-08-02T11:17:11Z</time>
      </trkpt>
      <trkpt lat="42.90211" lon="0.10844">
        <ele>1653.8</ele>
        <time>2022-08-02T11:17:16Z</time>
      </trkpt>
      <trkpt lat="42.90211" lon="0.10843">
        <ele>1653.8</ele>
        <time>2022-08-02T11:17:22Z</time>
      </trkpt>
      <trkpt lat="42.90211" lon="0.10843">
        <ele>1653.8</ele>
        <time>2022-08-02T11:17:27Z</time>
      </trkpt>
      <trkpt lat="42.9021" lon="0.10844">
        <ele>1653.9</ele>
        <time>2022-08-02T11:17:32Z</time>
      </trkpt>
      <trkpt lat="42.9021" lon="0.10844">
        <ele>1653.9</ele>
        <time>2022-08-02T11:17:38Z</time>
      </trkpt>
      <trkpt lat="42.9021" lon="0.10844">
        <ele>1654</ele>
        <time>2022-08-02T11:17:43Z</time>
      </trkpt>
      <trkpt lat="42.9021" lon="0.10844">
        <ele>1654</ele>
        <time>2022-08-02T11:17:49Z</time>
      </trkpt>
      <trkpt lat="42.9021" lon="0.10844">
        <ele>1654.1</ele>
        <time>2022-08-02T11:17:55Z</time>
      </trkpt>
      <trkpt lat="42.9021" lon="0.10844">
        <ele>1654.2</ele>
        <time>2022-08-02T11:18:00Z</time>
      </trkpt>
      <trkpt lat="42.9021" lon="0.10844">
        <ele>1654.2</ele>
        <time>2022-08-02T11:18:06Z</time>
      </trkpt>
      <trkpt lat="42.9021" lon="0.10844">
        <ele>1654.3</ele>
        <time>2022-08-02T11:18:11Z</time>
      </trkpt>
      <trkpt lat="42.9021" lon="0.10844">
        <ele>1654.3</ele>
        <time>2022-08-02T11:18:17Z</time>
      </trkpt>
      <trkpt lat="42.9021" lon="0.10844">
        <ele>1654.4</ele>
        <time>2022-08-02T11:18:22Z</time>
      </trkpt>
      <trkpt lat="42.9021" lon="0.10844">
        <ele>1654.5</ele>
        <time>2022-08-02T11:18:28Z</time>
      </trkpt>
      <trkpt lat="42.9021" lon="0.10844">
        <ele>1654.5</ele>
        <time>2022-08-02T11:18:33Z</time>
      </trkpt>
      <trkpt lat="42.9021" lon="0.10844">
        <ele>1654.6</ele>
        <time>2022-08-02T11:18:39Z</time>
      </trkpt>
      <trkpt lat="42.9021" lon="0.10844">
        <ele>1654.6</ele>
        <time>2022-08-02T11:18:45Z</time>
      </trkpt>
      <trkpt lat="42.9021" lon="0.10844">
        <ele>1654.7</ele>
        <time>2022-08-02T11:18:50Z</time>
      </trkpt>
      <trkpt lat="42.9021" lon="0.10844">
        <ele>1654.7</ele>
        <time>2022-08-02T11:18:56Z</time>
      </trkpt>
      <trkpt lat="42.9021" lon="0.10844">
        <ele>1654.7</ele>
        <time>2022-08-02T11:19:01Z</time>
      </trkpt>
      <trkpt lat="42.9021" lon="0.10844">
        <ele>1654.8</ele>
        <time>2022-08-02T11:19:07Z</time>
      </trkpt>
      <trkpt lat="42.9021" lon="0.10844">
        <ele>1654.8</ele>
        <time>2022-08-02T11:19:12Z</time>
      </trkpt>
      <trkpt lat="42.9021" lon="0.10844">
        <ele>1654.9</ele>
        <time>2022-08-02T11:19:18Z</time>
      </trkpt>
      <trkpt lat="42.9021" lon="0.10844">
        <ele>1654.9</ele>
        <time>2022-08-02T11:19:23Z</time>
      </trkpt>
      <trkpt lat="42.9021" lon="0.10844">
        <ele>1655</ele>
        <time>2022-08-02T11:19:29Z</time>
      </trkpt>
      <trkpt lat="42.9021" lon="0.10844">
        <ele>1655</ele>
        <time>2022-08-02T11:19:35Z</time>
      </trkpt>
      <trkpt lat="42.9021" lon="0.10844">
        <ele>1655</ele>
        <time>2022-08-02T11:19:40Z</time>
      </trkpt>
      <trkpt lat="42.9021" lon="0.10844">
        <ele>1655</ele>
        <time>2022-08-02T11:19:45Z</time>
      </trkpt>
      <trkpt lat="42.9021" lon="0.10844">
        <ele>1655.1</ele>
        <time>2022-08-02T11:19:51Z</time>
      </trkpt>
      <trkpt lat="42.9021" lon="0.10844">
        <ele>1655.2</ele>
        <time>2022-08-02T11:19:57Z</time>
      </trkpt>
      <trkpt lat="42.9021" lon="0.10844">
        <ele>1655.2</ele>
        <time>2022-08-02T11:20:03Z</time>
      </trkpt>
      <trkpt lat="42.9021" lon="0.10844">
        <ele>1655.3</ele>
        <time>2022-08-02T11:20:09Z</time>
      </trkpt>
      <trkpt lat="42.9021" lon="0.10844">
        <ele>1655.3</ele>
        <time>2022-08-02T11:20:14Z</time>
      </trkpt>
      <trkpt lat="42.9021" lon="0.10844">
        <ele>1655.3</ele>
        <time>2022-08-02T11:20:20Z</time>
      </trkpt>
      <trkpt lat="42.9021" lon="0.10844">
        <ele>1655.3</ele>
        <time>2022-08-02T11:20:25Z</time>
      </trkpt>
      <trkpt lat="42.9021" lon="0.10844">
        <ele>1655.4</ele>
        <time>2022-08-02T11:20:31Z</time>
      </trkpt>
      <trkpt lat="42.9021" lon="0.10844">
        <ele>1655.4</ele>
        <time>2022-08-02T11:20:36Z</time>
      </trkpt>
      <trkpt lat="42.9021" lon="0.10844">
        <ele>1655.5</ele>
        <time>2022-08-02T11:20:41Z</time>
      </trkpt>
      <trkpt lat="42.9021" lon="0.10844">
        <ele>1655.5</ele>
        <time>2022-08-02T11:20:47Z</time>
      </trkpt>
      <trkpt lat="42.9021" lon="0.10844">
        <ele>1655.5</ele>
        <time>2022-08-02T11:20:52Z</time>
      </trkpt>
      <trkpt lat="42.9021" lon="0.10844">
        <ele>1655.6</ele>
        <time>2022-08-02T11:20:57Z</time>
      </trkpt>
      <trkpt lat="42.9021" lon="0.10844">
        <ele>1655.6</ele>
        <time>2022-08-02T11:21:03Z</time>
      </trkpt>
      <trkpt lat="42.9021" lon="0.10844">
        <ele>1655.6</ele>
        <time>2022-08-02T11:21:08Z</time>
      </trkpt>
      <trkpt lat="42.9021" lon="0.10844">
        <ele>1655.7</ele>
        <time>2022-08-02T11:21:13Z</time>
      </trkpt>
      <trkpt lat="42.9021" lon="0.10844">
        <ele>1655.7</ele>
        <time>2022-08-02T11:21:18Z</time>
      </trkpt>
      <trkpt lat="42.9021" lon="0.10844">
        <ele>1655.8</ele>
        <time>2022-08-02T11:21:24Z</time>
      </trkpt>
      <trkpt lat="42.9021" lon="0.10844">
        <ele>1655.8</ele>
        <time>2022-08-02T11:21:29Z</time>
      </trkpt>
      <trkpt lat="42.9021" lon="0.10844">
        <ele>1655.8</ele>
        <time>2022-08-02T11:21:34Z</time>
      </trkpt>
      <trkpt lat="42.9021" lon="0.10844">
        <ele>1655.8</ele>
        <time>2022-08-02T11:21:39Z</time>
      </trkpt>
      <trkpt lat="42.9021" lon="0.10844">
        <ele>1655.8</ele>
        <time>2022-08-02T11:21:45Z</time>
      </trkpt>
      <trkpt lat="42.9021" lon="0.10844">
        <ele>1655.9</ele>
        <time>2022-08-02T11:21:51Z</time>
      </trkpt>
      <trkpt lat="42.9021" lon="0.10844">
        <ele>1655.9</ele>
        <time>2022-08-02T11:21:57Z</time>
      </trkpt>
      <trkpt lat="42.9021" lon="0.10844">
        <ele>1656</ele>
        <time>2022-08-02T11:22:03Z</time>
      </trkpt>
      <trkpt lat="42.9021" lon="0.10844">
        <ele>1656</ele>
        <time>2022-08-02T11:22:08Z</time>
      </trkpt>
      <trkpt lat="42.9021" lon="0.10844">
        <ele>1656</ele>
        <time>2022-08-02T11:22:13Z</time>
      </trkpt>
      <trkpt lat="42.9021" lon="0.10844">
        <ele>1656</ele>
        <time>2022-08-02T11:22:19Z</time>
      </trkpt>
      <trkpt lat="42.9021" lon="0.10844">
        <ele>1656.1</ele>
        <time>2022-08-02T11:22:24Z</time>
      </trkpt>
      <trkpt lat="42.9021" lon="0.10844">
        <ele>1656.1</ele>
        <time>2022-08-02T11:22:29Z</time>
      </trkpt>
      <trkpt lat="42.9021" lon="0.10844">
        <ele>1656.1</ele>
        <time>2022-08-02T11:22:35Z</time>
      </trkpt>
      <trkpt lat="42.9021" lon="0.10844">
        <ele>1656.1</ele>
        <time>2022-08-02T11:22:40Z</time>
      </trkpt>
      <trkpt lat="42.9021" lon="0.10844">
        <ele>1656.2</ele>
        <time>2022-08-02T11:22:46Z</time>
      </trkpt>
      <trkpt lat="42.9021" lon="0.10844">
        <ele>1656.2</ele>
        <time>2022-08-02T11:22:52Z</time>
      </trkpt>
      <trkpt lat="42.9021" lon="0.10844">
        <ele>1656.3</ele>
        <time>2022-08-02T11:22:57Z</time>
      </trkpt>
      <trkpt lat="42.9021" lon="0.10844">
        <ele>1656.3</ele>
        <time>2022-08-02T11:23:02Z</time>
      </trkpt>
      <trkpt lat="42.9021" lon="0.10844">
        <ele>1656.3</ele>
        <time>2022-08-02T11:23:08Z</time>
      </trkpt>
      <trkpt lat="42.9021" lon="0.10844">
        <ele>1656.3</ele>
        <time>2022-08-02T11:23:13Z</time>
      </trkpt>
      <trkpt lat="42.9021" lon="0.10844">
        <ele>1656.4</ele>
        <time>2022-08-02T11:23:19Z</time>
      </trkpt>
      <trkpt lat="42.9021" lon="0.10844">
        <ele>1656.4</ele>
        <time>2022-08-02T11:23:24Z</time>
      </trkpt>
      <trkpt lat="42.9021" lon="0.10844">
        <ele>1656.4</ele>
        <time>2022-08-02T11:23:29Z</time>
      </trkpt>
      <trkpt lat="42.9021" lon="0.10844">
        <ele>1656.5</ele>
        <time>2022-08-02T11:23:34Z</time>
      </trkpt>
      <trkpt lat="42.9021" lon="0.10844">
        <ele>1656.5</ele>
        <time>2022-08-02T11:23:40Z</time>
      </trkpt>
      <trkpt lat="42.9021" lon="0.10844">
        <ele>1656.6</ele>
        <time>2022-08-02T11:23:46Z</time>
      </trkpt>
      <trkpt lat="42.9021" lon="0.10844">
        <ele>1656.6</ele>
        <time>2022-08-02T11:23:52Z</time>
      </trkpt>
      <trkpt lat="42.9021" lon="0.10844">
        <ele>1656.6</ele>
        <time>2022-08-02T11:23:57Z</time>
      </trkpt>
      <trkpt lat="42.9021" lon="0.10844">
        <ele>1656.6</ele>
        <time>2022-08-02T11:24:02Z</time>
      </trkpt>
      <trkpt lat="42.9021" lon="0.10844">
        <ele>1656.7</ele>
        <time>2022-08-02T11:24:07Z</time>
      </trkpt>
      <trkpt lat="42.9021" lon="0.10844">
        <ele>1656.7</ele>
        <time>2022-08-02T11:24:12Z</time>
      </trkpt>
      <trkpt lat="42.9021" lon="0.10844">
        <ele>1656.8</ele>
        <time>2022-08-02T11:24:18Z</time>
      </trkpt>
      <trkpt lat="42.9021" lon="0.10844">
        <ele>1656.8</ele>
        <time>2022-08-02T11:24:23Z</time>
      </trkpt>
      <trkpt lat="42.9021" lon="0.10844">
        <ele>1656.8</ele>
        <time>2022-08-02T11:24:29Z</time>
      </trkpt>
      <trkpt lat="42.9021" lon="0.10844">
        <ele>1656.8</ele>
        <time>2022-08-02T11:24:35Z</time>
      </trkpt>
      <trkpt lat="42.9021" lon="0.10844">
        <ele>1656.8</ele>
        <time>2022-08-02T11:24:40Z</time>
      </trkpt>
      <trkpt lat="42.9021" lon="0.10844">
        <ele>1656.8</ele>
        <time>2022-08-02T11:24:46Z</time>
      </trkpt>
      <trkpt lat="42.9021" lon="0.10844">
        <ele>1656.9</ele>
        <time>2022-08-02T11:24:51Z</time>
      </trkpt>
      <trkpt lat="42.9021" lon="0.10844">
        <ele>1656.9</ele>
        <time>2022-08-02T11:24:56Z</time>
      </trkpt>
      <trkpt lat="42.9021" lon="0.10844">
        <ele>1657</ele>
        <time>2022-08-02T11:25:01Z</time>
      </trkpt>
      <trkpt lat="42.9021" lon="0.10844">
        <ele>1657</ele>
        <time>2022-08-02T11:25:07Z</time>
      </trkpt>
      <trkpt lat="42.9021" lon="0.10844">
        <ele>1657</ele>
        <time>2022-08-02T11:25:13Z</time>
      </trkpt>
      <trkpt lat="42.9021" lon="0.10844">
        <ele>1657</ele>
        <time>2022-08-02T11:25:19Z</time>
      </trkpt>
      <trkpt lat="42.9021" lon="0.10844">
        <ele>1657</ele>
        <time>2022-08-02T11:25:24Z</time>
      </trkpt>
      <trkpt lat="42.9021" lon="0.10844">
        <ele>1657</ele>
        <time>2022-08-02T11:25:29Z</time>
      </trkpt>
      <trkpt lat="42.9021" lon="0.10844">
        <ele>1657.1</ele>
        <time>2022-08-02T11:25:35Z</time>
      </trkpt>
      <trkpt lat="42.9021" lon="0.10844">
        <ele>1657.1</ele>
        <time>2022-08-02T11:25:40Z</time>
      </trkpt>
      <trkpt lat="42.9021" lon="0.10844">
        <ele>1657.1</ele>
        <time>2022-08-02T11:25:46Z</time>
      </trkpt>
      <trkpt lat="42.9021" lon="0.10844">
        <ele>1657.1</ele>
        <time>2022-08-02T11:25:52Z</time>
      </trkpt>
      <trkpt lat="42.9021" lon="0.10844">
        <ele>1657.2</ele>
        <time>2022-08-02T11:25:58Z</time>
      </trkpt>
      <trkpt lat="42.9021" lon="0.10844">
        <ele>1657.2</ele>
        <time>2022-08-02T11:26:03Z</time>
      </trkpt>
      <trkpt lat="42.9021" lon="0.10844">
        <ele>1657.2</ele>
        <time>2022-08-02T11:26:09Z</time>
      </trkpt>
      <trkpt lat="42.9021" lon="0.10844">
        <ele>1657.2</ele>
        <time>2022-08-02T11:26:15Z</time>
      </trkpt>
      <trkpt lat="42.9021" lon="0.10844">
        <ele>1657.3</ele>
        <time>2022-08-02T11:26:21Z</time>
      </trkpt>
      <trkpt lat="42.9021" lon="0.10842">
        <ele>1657.9</ele>
        <time>2022-08-02T11:26:27Z</time>
      </trkpt>
      <trkpt lat="42.9021" lon="0.10842">
        <ele>1658.3</ele>
        <time>2022-08-02T11:26:32Z</time>
      </trkpt>
      <trkpt lat="42.9021" lon="0.10841">
        <ele>1658.8</ele>
        <time>2022-08-02T11:26:37Z</time>
      </trkpt>
      <trkpt lat="42.9021" lon="0.10841">
        <ele>1659.1</ele>
        <time>2022-08-02T11:26:43Z</time>
      </trkpt>
      <trkpt lat="42.90215" lon="0.10836">
        <ele>1658.4</ele>
        <time>2022-08-02T11:26:48Z</time>
      </trkpt>
      <trkpt lat="42.90223" lon="0.10833">
        <ele>1659.2</ele>
        <time>2022-08-02T11:26:53Z</time>
      </trkpt>
      <trkpt lat="42.90234" lon="0.10833">
        <ele>1659.2</ele>
        <time>2022-08-02T11:26:59Z</time>
      </trkpt>
      <trkpt lat="42.90242" lon="0.10831">
        <ele>1659.9</ele>
        <time>2022-08-02T11:27:04Z</time>
      </trkpt>
      <trkpt lat="42.9025" lon="0.10828">
        <ele>1660.6</ele>
        <time>2022-08-02T11:27:09Z</time>
      </trkpt>
      <trkpt lat="42.90259" lon="0.10828">
        <ele>1661.6</ele>
        <time>2022-08-02T11:27:15Z</time>
      </trkpt>
      <trkpt lat="42.90268" lon="0.10826">
        <ele>1661.7</ele>
        <time>2022-08-02T11:27:20Z</time>
      </trkpt>
      <trkpt lat="42.90277" lon="0.10825">
        <ele>1663.5</ele>
        <time>2022-08-02T11:27:25Z</time>
      </trkpt>
      <trkpt lat="42.90288" lon="0.10824">
        <ele>1664.4</ele>
        <time>2022-08-02T11:27:31Z</time>
      </trkpt>
      <trkpt lat="42.90298" lon="0.10823">
        <ele>1664.9</ele>
        <time>2022-08-02T11:27:36Z</time>
      </trkpt>
      <trkpt lat="42.9031" lon="0.10822">
        <ele>1665.6</ele>
        <time>2022-08-02T11:27:42Z</time>
      </trkpt>
      <trkpt lat="42.90319" lon="0.10821">
        <ele>1666.2</ele>
        <time>2022-08-02T11:27:47Z</time>
      </trkpt>
      <trkpt lat="42.90326" lon="0.10822">
        <ele>1667.5</ele>
        <time>2022-08-02T11:27:52Z</time>
      </trkpt>
      <trkpt lat="42.90334" lon="0.10827">
        <ele>1670.4</ele>
        <time>2022-08-02T11:27:58Z</time>
      </trkpt>
      <trkpt lat="42.90339" lon="0.10832">
        <ele>1670.9</ele>
        <time>2022-08-02T11:28:03Z</time>
      </trkpt>
      <trkpt lat="42.90343" lon="0.10842">
        <ele>1673.9</ele>
        <time>2022-08-02T11:28:09Z</time>
      </trkpt>
      <trkpt lat="42.90349" lon="0.10851">
        <ele>1675.5</ele>
        <time>2022-08-02T11:28:15Z</time>
      </trkpt>
      <trkpt lat="42.90352" lon="0.10861">
        <ele>1678.1</ele>
        <time>2022-08-02T11:28:20Z</time>
      </trkpt>
      <trkpt lat="42.90357" lon="0.10872">
        <ele>1678.9</ele>
        <time>2022-08-02T11:28:26Z</time>
      </trkpt>
      <trkpt lat="42.90361" lon="0.10882">
        <ele>1681.5</ele>
        <time>2022-08-02T11:28:31Z</time>
      </trkpt>
      <trkpt lat="42.90367" lon="0.10893">
        <ele>1684.4</ele>
        <time>2022-08-02T11:28:37Z</time>
      </trkpt>
      <trkpt lat="42.90371" lon="0.10903">
        <ele>1687</ele>
        <time>2022-08-02T11:28:43Z</time>
      </trkpt>
      <trkpt lat="42.90377" lon="0.10912">
        <ele>1689.3</ele>
        <time>2022-08-02T11:28:49Z</time>
      </trkpt>
      <trkpt lat="42.90381" lon="0.10921">
        <ele>1689.6</ele>
        <time>2022-08-02T11:28:54Z</time>
      </trkpt>
      <trkpt lat="42.90386" lon="0.10932">
        <ele>1689.9</ele>
        <time>2022-08-02T11:28:59Z</time>
      </trkpt>
      <trkpt lat="42.90392" lon="0.10944">
        <ele>1689.4</ele>
        <time>2022-08-02T11:29:05Z</time>
      </trkpt>
      <trkpt lat="42.90399" lon="0.10956">
        <ele>1691.8</ele>
        <time>2022-08-02T11:29:11Z</time>
      </trkpt>
      <trkpt lat="42.90402" lon="0.10968">
        <ele>1694.4</ele>
        <time>2022-08-02T11:29:17Z</time>
      </trkpt>
      <trkpt lat="42.90403" lon="0.1098">
        <ele>1696.9</ele>
        <time>2022-08-02T11:29:22Z</time>
      </trkpt>
      <trkpt lat="42.90405" lon="0.10991">
        <ele>1697</ele>
        <time>2022-08-02T11:29:28Z</time>
      </trkpt>
      <trkpt lat="42.90408" lon="0.11004">
        <ele>1697.8</ele>
        <time>2022-08-02T11:29:34Z</time>
      </trkpt>
      <trkpt lat="42.90411" lon="0.11015">
        <ele>1698.7</ele>
        <time>2022-08-02T11:29:39Z</time>
      </trkpt>
      <trkpt lat="42.90414" lon="0.11027">
        <ele>1699</ele>
        <time>2022-08-02T11:29:44Z</time>
      </trkpt>
      <trkpt lat="42.90417" lon="0.1104">
        <ele>1699.9</ele>
        <time>2022-08-02T11:29:50Z</time>
      </trkpt>
      <trkpt lat="42.9042" lon="0.11051">
        <ele>1700.3</ele>
        <time>2022-08-02T11:29:55Z</time>
      </trkpt>
      <trkpt lat="42.90423" lon="0.11061">
        <ele>1699.8</ele>
        <time>2022-08-02T11:30:00Z</time>
      </trkpt>
      <trkpt lat="42.90426" lon="0.11072">
        <ele>1702.2</ele>
        <time>2022-08-02T11:30:05Z</time>
      </trkpt>
      <trkpt lat="42.90429" lon="0.11084">
        <ele>1703.2</ele>
        <time>2022-08-02T11:30:11Z</time>
      </trkpt>
      <trkpt lat="42.90432" lon="0.11097">
        <ele>1703.7</ele>
        <time>2022-08-02T11:30:17Z</time>
      </trkpt>
      <trkpt lat="42.90434" lon="0.11108">
        <ele>1706.2</ele>
        <time>2022-08-02T11:30:22Z</time>
      </trkpt>
      <trkpt lat="42.90436" lon="0.11118">
        <ele>1708.1</ele>
        <time>2022-08-02T11:30:27Z</time>
      </trkpt>
      <trkpt lat="42.90441" lon="0.11132">
        <ele>1708.9</ele>
        <time>2022-08-02T11:30:33Z</time>
      </trkpt>
      <trkpt lat="42.90443" lon="0.11142">
        <ele>1710</ele>
        <time>2022-08-02T11:30:38Z</time>
      </trkpt>
      <trkpt lat="42.90447" lon="0.11154">
        <ele>1710.4</ele>
        <time>2022-08-02T11:30:44Z</time>
      </trkpt>
      <trkpt lat="42.9045" lon="0.11165">
        <ele>1712.2</ele>
        <time>2022-08-02T11:30:49Z</time>
      </trkpt>
      <trkpt lat="42.90454" lon="0.11174">
        <ele>1712.9</ele>
        <time>2022-08-02T11:30:54Z</time>
      </trkpt>
      <trkpt lat="42.90458" lon="0.11185">
        <ele>1714.7</ele>
        <time>2022-08-02T11:30:59Z</time>
      </trkpt>
      <trkpt lat="42.90461" lon="0.11197">
        <ele>1715.4</ele>
        <time>2022-08-02T11:31:04Z</time>
      </trkpt>
      <trkpt lat="42.90464" lon="0.1121">
        <ele>1715.9</ele>
        <time>2022-08-02T11:31:10Z</time>
      </trkpt>
      <trkpt lat="42.90467" lon="0.11223">
        <ele>1716.6</ele>
        <time>2022-08-02T11:31:16Z</time>
      </trkpt>
      <trkpt lat="42.9047" lon="0.11232">
        <ele>1716.1</ele>
        <time>2022-08-02T11:31:21Z</time>
      </trkpt>
      <trkpt lat="42.90472" lon="0.11247">
        <ele>1717</ele>
        <time>2022-08-02T11:31:27Z</time>
      </trkpt>
      <trkpt lat="42.90474" lon="0.11262">
        <ele>1717.1</ele>
        <time>2022-08-02T11:31:33Z</time>
      </trkpt>
      <trkpt lat="42.90475" lon="0.11273">
        <ele>1717.8</ele>
        <time>2022-08-02T11:31:38Z</time>
      </trkpt>
      <trkpt lat="42.90479" lon="0.11285">
        <ele>1719.3</ele>
        <time>2022-08-02T11:31:44Z</time>
      </trkpt>
      <trkpt lat="42.90482" lon="0.11296">
        <ele>1719.2</ele>
        <time>2022-08-02T11:31:49Z</time>
      </trkpt>
      <trkpt lat="42.90486" lon="0.11306">
        <ele>1719.1</ele>
        <time>2022-08-02T11:31:54Z</time>
      </trkpt>
      <trkpt lat="42.9049" lon="0.11318">
        <ele>1719.8</ele>
        <time>2022-08-02T11:32:00Z</time>
      </trkpt>
      <trkpt lat="42.90494" lon="0.11329">
        <ele>1720.2</ele>
        <time>2022-08-02T11:32:05Z</time>
      </trkpt>
      <trkpt lat="42.90499" lon="0.1134">
        <ele>1722</ele>
        <time>2022-08-02T11:32:11Z</time>
      </trkpt>
      <trkpt lat="42.90504" lon="0.11351">
        <ele>1724.9</ele>
        <time>2022-08-02T11:32:17Z</time>
      </trkpt>
      <trkpt lat="42.90511" lon="0.11362">
        <ele>1724.5</ele>
        <time>2022-08-02T11:32:23Z</time>
      </trkpt>
      <trkpt lat="42.90516" lon="0.11374">
        <ele>1726.5</ele>
        <time>2022-08-02T11:32:29Z</time>
      </trkpt>
      <trkpt lat="42.90519" lon="0.11387">
        <ele>1726.8</ele>
        <time>2022-08-02T11:32:35Z</time>
      </trkpt>
      <trkpt lat="42.90519" lon="0.114">
        <ele>1727.2</ele>
        <time>2022-08-02T11:32:41Z</time>
      </trkpt>
      <trkpt lat="42.9052" lon="0.11411">
        <ele>1729.2</ele>
        <time>2022-08-02T11:32:46Z</time>
      </trkpt>
      <trkpt lat="42.90519" lon="0.11423">
        <ele>1729.4</ele>
        <time>2022-08-02T11:32:52Z</time>
      </trkpt>
      <trkpt lat="42.90518" lon="0.11435">
        <ele>1729.9</ele>
        <time>2022-08-02T11:32:57Z</time>
      </trkpt>
      <trkpt lat="42.90518" lon="0.11448">
        <ele>1731</ele>
        <time>2022-08-02T11:33:03Z</time>
      </trkpt>
      <trkpt lat="42.90518" lon="0.11459">
        <ele>1732</ele>
        <time>2022-08-02T11:33:08Z</time>
      </trkpt>
      <trkpt lat="42.90517" lon="0.11472">
        <ele>1730.4</ele>
        <time>2022-08-02T11:33:14Z</time>
      </trkpt>
      <trkpt lat="42.90517" lon="0.11484">
        <ele>1733.1</ele>
        <time>2022-08-02T11:33:19Z</time>
      </trkpt>
      <trkpt lat="42.90518" lon="0.11496">
        <ele>1734.4</ele>
        <time>2022-08-02T11:33:24Z</time>
      </trkpt>
      <trkpt lat="42.90517" lon="0.11508">
        <ele>1733.7</ele>
        <time>2022-08-02T11:33:29Z</time>
      </trkpt>
      <trkpt lat="42.90517" lon="0.1152">
        <ele>1734.6</ele>
        <time>2022-08-02T11:33:35Z</time>
      </trkpt>
      <trkpt lat="42.90517" lon="0.11531">
        <ele>1735.9</ele>
        <time>2022-08-02T11:33:40Z</time>
      </trkpt>
      <trkpt lat="42.90517" lon="0.11544">
        <ele>1735.9</ele>
        <time>2022-08-02T11:33:46Z</time>
      </trkpt>
      <trkpt lat="42.90519" lon="0.11556">
        <ele>1735.3</ele>
        <time>2022-08-02T11:33:51Z</time>
      </trkpt>
      <trkpt lat="42.9052" lon="0.11566">
        <ele>1738.5</ele>
        <time>2022-08-02T11:33:56Z</time>
      </trkpt>
      <trkpt lat="42.90523" lon="0.1158">
        <ele>1738.1</ele>
        <time>2022-08-02T11:34:02Z</time>
      </trkpt>
      <trkpt lat="42.90523" lon="0.1159">
        <ele>1740.9</ele>
        <time>2022-08-02T11:34:07Z</time>
      </trkpt>
      <trkpt lat="42.90524" lon="0.11601">
        <ele>1742.5</ele>
        <time>2022-08-02T11:34:12Z</time>
      </trkpt>
      <trkpt lat="42.90523" lon="0.11615">
        <ele>1743.2</ele>
        <time>2022-08-02T11:34:18Z</time>
      </trkpt>
      <trkpt lat="42.90521" lon="0.11625">
        <ele>1744.1</ele>
        <time>2022-08-02T11:34:23Z</time>
      </trkpt>
      <trkpt lat="42.90521" lon="0.11638">
        <ele>1745.1</ele>
        <time>2022-08-02T11:34:29Z</time>
      </trkpt>
      <trkpt lat="42.90523" lon="0.1165">
        <ele>1746.6</ele>
        <time>2022-08-02T11:34:35Z</time>
      </trkpt>
      <trkpt lat="42.90525" lon="0.11662">
        <ele>1746.7</ele>
        <time>2022-08-02T11:34:41Z</time>
      </trkpt>
      <trkpt lat="42.90526" lon="0.11673">
        <ele>1746.7</ele>
        <time>2022-08-02T11:34:47Z</time>
      </trkpt>
      <trkpt lat="42.90526" lon="0.11684">
        <ele>1747.4</ele>
        <time>2022-08-02T11:34:52Z</time>
      </trkpt>
      <trkpt lat="42.90525" lon="0.11695">
        <ele>1748.1</ele>
        <time>2022-08-02T11:34:57Z</time>
      </trkpt>
      <trkpt lat="42.90525" lon="0.11706">
        <ele>1750.4</ele>
        <time>2022-08-02T11:35:02Z</time>
      </trkpt>
      <trkpt lat="42.90523" lon="0.11718">
        <ele>1752.6</ele>
        <time>2022-08-02T11:35:08Z</time>
      </trkpt>
      <trkpt lat="42.90522" lon="0.11729">
        <ele>1752.9</ele>
        <time>2022-08-02T11:35:13Z</time>
      </trkpt>
      <trkpt lat="42.90522" lon="0.11741">
        <ele>1755.5</ele>
        <time>2022-08-02T11:35:19Z</time>
      </trkpt>
      <trkpt lat="42.90521" lon="0.11751">
        <ele>1756.5</ele>
        <time>2022-08-02T11:35:24Z</time>
      </trkpt>
      <trkpt lat="42.9052" lon="0.11763">
        <ele>1757.1</ele>
        <time>2022-08-02T11:35:30Z</time>
      </trkpt>
      <trkpt lat="42.90518" lon="0.11777">
        <ele>1757.1</ele>
        <time>2022-08-02T11:35:36Z</time>
      </trkpt>
      <trkpt lat="42.90519" lon="0.11789">
        <ele>1756.8</ele>
        <time>2022-08-02T11:35:41Z</time>
      </trkpt>
      <trkpt lat="42.9052" lon="0.118">
        <ele>1757.9</ele>
        <time>2022-08-02T11:35:47Z</time>
      </trkpt>
      <trkpt lat="42.90525" lon="0.11809">
        <ele>1760.1</ele>
        <time>2022-08-02T11:35:52Z</time>
      </trkpt>
      <trkpt lat="42.90528" lon="0.11823">
        <ele>1760.7</ele>
        <time>2022-08-02T11:35:58Z</time>
      </trkpt>
      <trkpt lat="42.90531" lon="0.11834">
        <ele>1762.1</ele>
        <time>2022-08-02T11:36:03Z</time>
      </trkpt>
      <trkpt lat="42.90535" lon="0.11846">
        <ele>1762</ele>
        <time>2022-08-02T11:36:09Z</time>
      </trkpt>
      <trkpt lat="42.90537" lon="0.11859">
        <ele>1762.4</ele>
        <time>2022-08-02T11:36:15Z</time>
      </trkpt>
      <trkpt lat="42.9054" lon="0.1187">
        <ele>1761.8</ele>
        <time>2022-08-02T11:36:20Z</time>
      </trkpt>
      <trkpt lat="42.90541" lon="0.11881">
        <ele>1761.9</ele>
        <time>2022-08-02T11:36:25Z</time>
      </trkpt>
      <trkpt lat="42.90541" lon="0.11893">
        <ele>1763.6</ele>
        <time>2022-08-02T11:36:31Z</time>
      </trkpt>
      <trkpt lat="42.9054" lon="0.11903">
        <ele>1763.8</ele>
        <time>2022-08-02T11:36:36Z</time>
      </trkpt>
      <trkpt lat="42.90538" lon="0.11915">
        <ele>1764.9</ele>
        <time>2022-08-02T11:36:41Z</time>
      </trkpt>
      <trkpt lat="42.90537" lon="0.11924">
        <ele>1766.4</ele>
        <time>2022-08-02T11:36:47Z</time>
      </trkpt>
      <trkpt lat="42.90538" lon="0.11936">
        <ele>1769.6</ele>
        <time>2022-08-02T11:36:52Z</time>
      </trkpt>
      <trkpt lat="42.90538" lon="0.11945">
        <ele>1770.4</ele>
        <time>2022-08-02T11:36:57Z</time>
      </trkpt>
      <trkpt lat="42.9054" lon="0.11958">
        <ele>1769.5</ele>
        <time>2022-08-02T11:37:03Z</time>
      </trkpt>
      <trkpt lat="42.9054" lon="0.11971">
        <ele>1769.8</ele>
        <time>2022-08-02T11:37:09Z</time>
      </trkpt>
      <trkpt lat="42.90541" lon="0.1198">
        <ele>1771.7</ele>
        <time>2022-08-02T11:37:14Z</time>
      </trkpt>
      <trkpt lat="42.9054" lon="0.11991">
        <ele>1772.2</ele>
        <time>2022-08-02T11:37:20Z</time>
      </trkpt>
      <trkpt lat="42.90539" lon="0.12001">
        <ele>1773.1</ele>
        <time>2022-08-02T11:37:25Z</time>
      </trkpt>
      <trkpt lat="42.90538" lon="0.12013">
        <ele>1772.7</ele>
        <time>2022-08-02T11:37:30Z</time>
      </trkpt>
      <trkpt lat="42.90537" lon="0.12024">
        <ele>1775.3</ele>
        <time>2022-08-02T11:37:35Z</time>
      </trkpt>
      <trkpt lat="42.90534" lon="0.12033">
        <ele>1775.1</ele>
        <time>2022-08-02T11:37:40Z</time>
      </trkpt>
      <trkpt lat="42.9053" lon="0.12043">
        <ele>1774.8</ele>
        <time>2022-08-02T11:37:46Z</time>
      </trkpt>
      <trkpt lat="42.90527" lon="0.12055">
        <ele>1777.2</ele>
        <time>2022-08-02T11:37:52Z</time>
      </trkpt>
      <trkpt lat="42.90525" lon="0.12065">
        <ele>1777.4</ele>
        <time>2022-08-02T11:37:57Z</time>
      </trkpt>
      <trkpt lat="42.90522" lon="0.12077">
        <ele>1778.1</ele>
        <time>2022-08-02T11:38:03Z</time>
      </trkpt>
      <trkpt lat="42.90519" lon="0.12086">
        <ele>1778</ele>
        <time>2022-08-02T11:38:08Z</time>
      </trkpt>
      <trkpt lat="42.90516" lon="0.12094">
        <ele>1780.8</ele>
        <time>2022-08-02T11:38:13Z</time>
      </trkpt>
      <trkpt lat="42.90511" lon="0.12103">
        <ele>1780.2</ele>
        <time>2022-08-02T11:38:18Z</time>
      </trkpt>
      <trkpt lat="42.90507" lon="0.12114">
        <ele>1779.3</ele>
        <time>2022-08-02T11:38:24Z</time>
      </trkpt>
      <trkpt lat="42.90505" lon="0.12124">
        <ele>1779.1</ele>
        <time>2022-08-02T11:38:29Z</time>
      </trkpt>
      <trkpt lat="42.90503" lon="0.12134">
        <ele>1779.3</ele>
        <time>2022-08-02T11:38:35Z</time>
      </trkpt>
      <trkpt lat="42.905" lon="0.12145">
        <ele>1778.1</ele>
        <time>2022-08-02T11:38:40Z</time>
      </trkpt>
      <trkpt lat="42.90496" lon="0.12155">
        <ele>1777.9</ele>
        <time>2022-08-02T11:38:46Z</time>
      </trkpt>
      <trkpt lat="42.90493" lon="0.12167">
        <ele>1777.4</ele>
        <time>2022-08-02T11:38:52Z</time>
      </trkpt>
      <trkpt lat="42.9049" lon="0.12179">
        <ele>1777.9</ele>
        <time>2022-08-02T11:38:58Z</time>
      </trkpt>
      <trkpt lat="42.90488" lon="0.12188">
        <ele>1778.9</ele>
        <time>2022-08-02T11:39:03Z</time>
      </trkpt>
      <trkpt lat="42.90485" lon="0.12198">
        <ele>1779.9</ele>
        <time>2022-08-02T11:39:09Z</time>
      </trkpt>
      <trkpt lat="42.90484" lon="0.12205">
        <ele>1783.7</ele>
        <time>2022-08-02T11:39:14Z</time>
      </trkpt>
      <trkpt lat="42.90479" lon="0.12213">
        <ele>1784</ele>
        <time>2022-08-02T11:39:19Z</time>
      </trkpt>
      <trkpt lat="42.90472" lon="0.1222">
        <ele>1785.8</ele>
        <time>2022-08-02T11:39:25Z</time>
      </trkpt>
      <trkpt lat="42.90467" lon="0.1223">
        <ele>1790.2</ele>
        <time>2022-08-02T11:39:31Z</time>
      </trkpt>
      <trkpt lat="42.90464" lon="0.12239">
        <ele>1790.9</ele>
        <time>2022-08-02T11:39:36Z</time>
      </trkpt>
      <trkpt lat="42.90465" lon="0.12252">
        <ele>1792</ele>
        <time>2022-08-02T11:39:42Z</time>
      </trkpt>
      <trkpt lat="42.90466" lon="0.12265">
        <ele>1792</ele>
        <time>2022-08-02T11:39:48Z</time>
      </trkpt>
      <trkpt lat="42.90466" lon="0.12274">
        <ele>1792.9</ele>
        <time>2022-08-02T11:39:53Z</time>
      </trkpt>
      <trkpt lat="42.90463" lon="0.1229">
        <ele>1796.5</ele>
        <time>2022-08-02T11:39:59Z</time>
      </trkpt>
      <trkpt lat="42.90461" lon="0.12302">
        <ele>1798.8</ele>
        <time>2022-08-02T11:40:04Z</time>
      </trkpt>
      <trkpt lat="42.90459" lon="0.12315">
        <ele>1803</ele>
        <time>2022-08-02T11:40:10Z</time>
      </trkpt>
      <trkpt lat="42.90455" lon="0.12327">
        <ele>1802.9</ele>
        <time>2022-08-02T11:40:16Z</time>
      </trkpt>
      <trkpt lat="42.90453" lon="0.12338">
        <ele>1803.5</ele>
        <time>2022-08-02T11:40:21Z</time>
      </trkpt>
      <trkpt lat="42.90449" lon="0.12351">
        <ele>1803.7</ele>
        <time>2022-08-02T11:40:27Z</time>
      </trkpt>
      <trkpt lat="42.90446" lon="0.12364">
        <ele>1804.7</ele>
        <time>2022-08-02T11:40:32Z</time>
      </trkpt>
      <trkpt lat="42.90443" lon="0.12376">
        <ele>1803</ele>
        <time>2022-08-02T11:40:38Z</time>
      </trkpt>
      <trkpt lat="42.9044" lon="0.12388">
        <ele>1803</ele>
        <time>2022-08-02T11:40:44Z</time>
      </trkpt>
      <trkpt lat="42.90437" lon="0.12399">
        <ele>1801.2</ele>
        <time>2022-08-02T11:40:49Z</time>
      </trkpt>
      <trkpt lat="42.90434" lon="0.12409">
        <ele>1804.8</ele>
        <time>2022-08-02T11:40:55Z</time>
      </trkpt>
      <trkpt lat="42.9043" lon="0.12418">
        <ele>1805.1</ele>
        <time>2022-08-02T11:41:00Z</time>
      </trkpt>
      <trkpt lat="42.90427" lon="0.12428">
        <ele>1805.6</ele>
        <time>2022-08-02T11:41:06Z</time>
      </trkpt>
      <trkpt lat="42.90425" lon="0.12437">
        <ele>1806.7</ele>
        <time>2022-08-02T11:41:11Z</time>
      </trkpt>
      <trkpt lat="42.90423" lon="0.12448">
        <ele>1807.3</ele>
        <time>2022-08-02T11:41:17Z</time>
      </trkpt>
      <trkpt lat="42.90418" lon="0.12456">
        <ele>1807.7</ele>
        <time>2022-08-02T11:41:23Z</time>
      </trkpt>
      <trkpt lat="42.90412" lon="0.12464">
        <ele>1807.7</ele>
        <time>2022-08-02T11:41:29Z</time>
      </trkpt>
      <trkpt lat="42.90405" lon="0.1247">
        <ele>1809.1</ele>
        <time>2022-08-02T11:41:35Z</time>
      </trkpt>
      <trkpt lat="42.90399" lon="0.12473">
        <ele>1811.6</ele>
        <time>2022-08-02T11:41:40Z</time>
      </trkpt>
      <trkpt lat="42.90395" lon="0.12483">
        <ele>1811.3</ele>
        <time>2022-08-02T11:41:46Z</time>
      </trkpt>
      <trkpt lat="42.90395" lon="0.12493">
        <ele>1812.1</ele>
        <time>2022-08-02T11:41:51Z</time>
      </trkpt>
      <trkpt lat="42.90395" lon="0.12504">
        <ele>1810.8</ele>
        <time>2022-08-02T11:41:56Z</time>
      </trkpt>
      <trkpt lat="42.90395" lon="0.12517">
        <ele>1809.6</ele>
        <time>2022-08-02T11:42:02Z</time>
      </trkpt>
      <trkpt lat="42.90397" lon="0.1253">
        <ele>1810.4</ele>
        <time>2022-08-02T11:42:08Z</time>
      </trkpt>
      <trkpt lat="42.90398" lon="0.12539">
        <ele>1810</ele>
        <time>2022-08-02T11:42:13Z</time>
      </trkpt>
      <trkpt lat="42.90398" lon="0.12551">
        <ele>1810.5</ele>
        <time>2022-08-02T11:42:19Z</time>
      </trkpt>
      <trkpt lat="42.90398" lon="0.1256">
        <ele>1812.4</ele>
        <time>2022-08-02T11:42:24Z</time>
      </trkpt>
      <trkpt lat="42.90397" lon="0.12569">
        <ele>1813.4</ele>
        <time>2022-08-02T11:42:29Z</time>
      </trkpt>
      <trkpt lat="42.90394" lon="0.1258">
        <ele>1814.7</ele>
        <time>2022-08-02T11:42:35Z</time>
      </trkpt>
      <trkpt lat="42.90392" lon="0.12591">
        <ele>1816.1</ele>
        <time>2022-08-02T11:42:40Z</time>
      </trkpt>
      <trkpt lat="42.9039" lon="0.126">
        <ele>1816.7</ele>
        <time>2022-08-02T11:42:46Z</time>
      </trkpt>
      <trkpt lat="42.9039" lon="0.1261">
        <ele>1818.9</ele>
        <time>2022-08-02T11:42:52Z</time>
      </trkpt>
      <trkpt lat="42.90392" lon="0.12619">
        <ele>1819.2</ele>
        <time>2022-08-02T11:42:57Z</time>
      </trkpt>
      <trkpt lat="42.90391" lon="0.12629">
        <ele>1819.1</ele>
        <time>2022-08-02T11:43:02Z</time>
      </trkpt>
      <trkpt lat="42.90389" lon="0.12638">
        <ele>1820.7</ele>
        <time>2022-08-02T11:43:08Z</time>
      </trkpt>
      <trkpt lat="42.9039" lon="0.12641">
        <ele>1819</ele>
        <time>2022-08-02T11:43:13Z</time>
      </trkpt>
      <trkpt lat="42.9039" lon="0.12641">
        <ele>1819.1</ele>
        <time>2022-08-02T11:43:19Z</time>
      </trkpt>
      <trkpt lat="42.9039" lon="0.12641">
        <ele>1819.1</ele>
        <time>2022-08-02T11:43:24Z</time>
      </trkpt>
      <trkpt lat="42.9039" lon="0.12641">
        <ele>1819.1</ele>
        <time>2022-08-02T11:43:29Z</time>
      </trkpt>
      <trkpt lat="42.9039" lon="0.12641">
        <ele>1819.2</ele>
        <time>2022-08-02T11:43:35Z</time>
      </trkpt>
      <trkpt lat="42.9039" lon="0.12641">
        <ele>1819.2</ele>
        <time>2022-08-02T11:43:41Z</time>
      </trkpt>
      <trkpt lat="42.9039" lon="0.12641">
        <ele>1819.2</ele>
        <time>2022-08-02T11:43:46Z</time>
      </trkpt>
      <trkpt lat="42.9039" lon="0.12641">
        <ele>1819.3</ele>
        <time>2022-08-02T11:43:52Z</time>
      </trkpt>
      <trkpt lat="42.9039" lon="0.12641">
        <ele>1819.3</ele>
        <time>2022-08-02T11:43:57Z</time>
      </trkpt>
      <trkpt lat="42.9039" lon="0.12641">
        <ele>1819.3</ele>
        <time>2022-08-02T11:44:02Z</time>
      </trkpt>
      <trkpt lat="42.9039" lon="0.12641">
        <ele>1819.3</ele>
        <time>2022-08-02T11:44:07Z</time>
      </trkpt>
      <trkpt lat="42.9039" lon="0.12641">
        <ele>1819.3</ele>
        <time>2022-08-02T11:44:13Z</time>
      </trkpt>
      <trkpt lat="42.9039" lon="0.12641">
        <ele>1819.3</ele>
        <time>2022-08-02T11:44:19Z</time>
      </trkpt>
      <trkpt lat="42.9039" lon="0.12641">
        <ele>1819.3</ele>
        <time>2022-08-02T11:44:24Z</time>
      </trkpt>
      <trkpt lat="42.9039" lon="0.12641">
        <ele>1819.3</ele>
        <time>2022-08-02T11:44:29Z</time>
      </trkpt>
      <trkpt lat="42.9039" lon="0.12641">
        <ele>1819.3</ele>
        <time>2022-08-02T11:44:35Z</time>
      </trkpt>
      <trkpt lat="42.9039" lon="0.12641">
        <ele>1819.2</ele>
        <time>2022-08-02T11:44:40Z</time>
      </trkpt>
      <trkpt lat="42.90391" lon="0.12642">
        <ele>1820.3</ele>
        <time>2022-08-02T11:44:45Z</time>
      </trkpt>
      <trkpt lat="42.90386" lon="0.12651">
        <ele>1820</ele>
        <time>2022-08-02T11:44:51Z</time>
      </trkpt>
      <trkpt lat="42.90384" lon="0.12659">
        <ele>1820</ele>
        <time>2022-08-02T11:44:56Z</time>
      </trkpt>
      <trkpt lat="42.90378" lon="0.12673">
        <ele>1822.2</ele>
        <time>2022-08-02T11:45:02Z</time>
      </trkpt>
      <trkpt lat="42.90375" lon="0.12682">
        <ele>1824.7</ele>
        <time>2022-08-02T11:45:07Z</time>
      </trkpt>
      <trkpt lat="42.90374" lon="0.12694">
        <ele>1823.1</ele>
        <time>2022-08-02T11:45:12Z</time>
      </trkpt>
      <trkpt lat="42.90374" lon="0.12705">
        <ele>1825.1</ele>
        <time>2022-08-02T11:45:17Z</time>
      </trkpt>
      <trkpt lat="42.90375" lon="0.12718">
        <ele>1825</ele>
        <time>2022-08-02T11:45:23Z</time>
      </trkpt>
      <trkpt lat="42.90376" lon="0.12733">
        <ele>1829.1</ele>
        <time>2022-08-02T11:45:29Z</time>
      </trkpt>
      <trkpt lat="42.90373" lon="0.12745">
        <ele>1829.4</ele>
        <time>2022-08-02T11:45:35Z</time>
      </trkpt>
      <trkpt lat="42.90369" lon="0.12755">
        <ele>1828.4</ele>
        <time>2022-08-02T11:45:40Z</time>
      </trkpt>
      <trkpt lat="42.90365" lon="0.12763">
        <ele>1829.7</ele>
        <time>2022-08-02T11:45:45Z</time>
      </trkpt>
      <trkpt lat="42.90361" lon="0.12772">
        <ele>1830.5</ele>
        <time>2022-08-02T11:45:50Z</time>
      </trkpt>
      <trkpt lat="42.90359" lon="0.12785">
        <ele>1831</ele>
        <time>2022-08-02T11:45:56Z</time>
      </trkpt>
      <trkpt lat="42.90357" lon="0.12796">
        <ele>1834.1</ele>
        <time>2022-08-02T11:46:01Z</time>
      </trkpt>
      <trkpt lat="42.90358" lon="0.12806">
        <ele>1832.1</ele>
        <time>2022-08-02T11:46:06Z</time>
      </trkpt>
      <trkpt lat="42.9036" lon="0.12818">
        <ele>1834.4</ele>
        <time>2022-08-02T11:46:12Z</time>
      </trkpt>
      <trkpt lat="42.90364" lon="0.1283">
        <ele>1835</ele>
        <time>2022-08-02T11:46:18Z</time>
      </trkpt>
      <trkpt lat="42.90368" lon="0.12841">
        <ele>1836.5</ele>
        <time>2022-08-02T11:46:23Z</time>
      </trkpt>
      <trkpt lat="42.90373" lon="0.12853">
        <ele>1838.6</ele>
        <time>2022-08-02T11:46:29Z</time>
      </trkpt>
      <trkpt lat="42.90376" lon="0.12866">
        <ele>1840.3</ele>
        <time>2022-08-02T11:46:35Z</time>
      </trkpt>
      <trkpt lat="42.9038" lon="0.12876">
        <ele>1839.4</ele>
        <time>2022-08-02T11:46:41Z</time>
      </trkpt>
      <trkpt lat="42.90382" lon="0.12886">
        <ele>1840.9</ele>
        <time>2022-08-02T11:46:46Z</time>
      </trkpt>
      <trkpt lat="42.90383" lon="0.12897">
        <ele>1840.6</ele>
        <time>2022-08-02T11:46:52Z</time>
      </trkpt>
      <trkpt lat="42.90381" lon="0.12905">
        <ele>1841.1</ele>
        <time>2022-08-02T11:46:57Z</time>
      </trkpt>
      <trkpt lat="42.90381" lon="0.12914">
        <ele>1842.9</ele>
        <time>2022-08-02T11:47:02Z</time>
      </trkpt>
      <trkpt lat="42.9038" lon="0.12925">
        <ele>1845</ele>
        <time>2022-08-02T11:47:08Z</time>
      </trkpt>
      <trkpt lat="42.90377" lon="0.12937">
        <ele>1844.1</ele>
        <time>2022-08-02T11:47:14Z</time>
      </trkpt>
      <trkpt lat="42.90373" lon="0.12948">
        <ele>1844.5</ele>
        <time>2022-08-02T11:47:20Z</time>
      </trkpt>
      <trkpt lat="42.9037" lon="0.12959">
        <ele>1845.6</ele>
        <time>2022-08-02T11:47:25Z</time>
      </trkpt>
      <trkpt lat="42.90364" lon="0.12971">
        <ele>1843.7</ele>
        <time>2022-08-02T11:47:31Z</time>
      </trkpt>
      <trkpt lat="42.90359" lon="0.12984">
        <ele>1845.1</ele>
        <time>2022-08-02T11:47:37Z</time>
      </trkpt>
      <trkpt lat="42.90356" lon="0.12994">
        <ele>1846.3</ele>
        <time>2022-08-02T11:47:43Z</time>
      </trkpt>
      <trkpt lat="42.90354" lon="0.13004">
        <ele>1847.6</ele>
        <time>2022-08-02T11:47:48Z</time>
      </trkpt>
      <trkpt lat="42.90351" lon="0.13016">
        <ele>1849.1</ele>
        <time>2022-08-02T11:47:54Z</time>
      </trkpt>
      <trkpt lat="42.9035" lon="0.13025">
        <ele>1847.9</ele>
        <time>2022-08-02T11:47:59Z</time>
      </trkpt>
      <trkpt lat="42.90346" lon="0.13037">
        <ele>1850.6</ele>
        <time>2022-08-02T11:48:05Z</time>
      </trkpt>
      <trkpt lat="42.90344" lon="0.13046">
        <ele>1852.1</ele>
        <time>2022-08-02T11:48:10Z</time>
      </trkpt>
      <trkpt lat="42.9034" lon="0.13055">
        <ele>1850.6</ele>
        <time>2022-08-02T11:48:15Z</time>
      </trkpt>
      <trkpt lat="42.90339" lon="0.13066">
        <ele>1851.3</ele>
        <time>2022-08-02T11:48:21Z</time>
      </trkpt>
      <trkpt lat="42.90338" lon="0.13077">
        <ele>1852.2</ele>
        <time>2022-08-02T11:48:26Z</time>
      </trkpt>
      <trkpt lat="42.90338" lon="0.13088">
        <ele>1853.3</ele>
        <time>2022-08-02T11:48:32Z</time>
      </trkpt>
      <trkpt lat="42.90341" lon="0.131">
        <ele>1853.4</ele>
        <time>2022-08-02T11:48:38Z</time>
      </trkpt>
      <trkpt lat="42.90342" lon="0.13109">
        <ele>1856.8</ele>
        <time>2022-08-02T11:48:43Z</time>
      </trkpt>
      <trkpt lat="42.90342" lon="0.13118">
        <ele>1856.4</ele>
        <time>2022-08-02T11:48:48Z</time>
      </trkpt>
      <trkpt lat="42.90339" lon="0.13128">
        <ele>1858.8</ele>
        <time>2022-08-02T11:48:54Z</time>
      </trkpt>
      <trkpt lat="42.90335" lon="0.13136">
        <ele>1858.8</ele>
        <time>2022-08-02T11:49:00Z</time>
      </trkpt>
      <trkpt lat="42.90329" lon="0.13142">
        <ele>1858.3</ele>
        <time>2022-08-02T11:49:05Z</time>
      </trkpt>
      <trkpt lat="42.90322" lon="0.13148">
        <ele>1858.3</ele>
        <time>2022-08-02T11:49:11Z</time>
      </trkpt>
      <trkpt lat="42.90316" lon="0.13153">
        <ele>1859.4</ele>
        <time>2022-08-02T11:49:16Z</time>
      </trkpt>
      <trkpt lat="42.90311" lon="0.13161">
        <ele>1861.1</ele>
        <time>2022-08-02T11:49:22Z</time>
      </trkpt>
      <trkpt lat="42.90307" lon="0.13169">
        <ele>1862.8</ele>
        <time>2022-08-02T11:49:27Z</time>
      </trkpt>
      <trkpt lat="42.90302" lon="0.13176">
        <ele>1863.3</ele>
        <time>2022-08-02T11:49:32Z</time>
      </trkpt>
      <trkpt lat="42.90297" lon="0.13186">
        <ele>1865.9</ele>
        <time>2022-08-02T11:49:38Z</time>
      </trkpt>
      <trkpt lat="42.90292" lon="0.13194">
        <ele>1868</ele>
        <time>2022-08-02T11:49:43Z</time>
      </trkpt>
      <trkpt lat="42.90288" lon="0.13204">
        <ele>1869.5</ele>
        <time>2022-08-02T11:49:49Z</time>
      </trkpt>
      <trkpt lat="42.90282" lon="0.13211">
        <ele>1868.4</ele>
        <time>2022-08-02T11:49:54Z</time>
      </trkpt>
      <trkpt lat="42.90275" lon="0.13217">
        <ele>1869.4</ele>
        <time>2022-08-02T11:49:59Z</time>
      </trkpt>
      <trkpt lat="42.90267" lon="0.13222">
        <ele>1869.8</ele>
        <time>2022-08-02T11:50:05Z</time>
      </trkpt>
      <trkpt lat="42.90259" lon="0.13223">
        <ele>1871.1</ele>
        <time>2022-08-02T11:50:10Z</time>
      </trkpt>
      <trkpt lat="42.90251" lon="0.13223">
        <ele>1872.4</ele>
        <time>2022-08-02T11:50:16Z</time>
      </trkpt>
      <trkpt lat="42.90242" lon="0.13224">
        <ele>1872.4</ele>
        <time>2022-08-02T11:50:22Z</time>
      </trkpt>
      <trkpt lat="42.90234" lon="0.13225">
        <ele>1873.6</ele>
        <time>2022-08-02T11:50:28Z</time>
      </trkpt>
      <trkpt lat="42.90226" lon="0.13225">
        <ele>1872.8</ele>
        <time>2022-08-02T11:50:33Z</time>
      </trkpt>
      <trkpt lat="42.90219" lon="0.13226">
        <ele>1872.5</ele>
        <time>2022-08-02T11:50:38Z</time>
      </trkpt>
      <trkpt lat="42.90211" lon="0.13228">
        <ele>1871.4</ele>
        <time>2022-08-02T11:50:44Z</time>
      </trkpt>
      <trkpt lat="42.90204" lon="0.13232">
        <ele>1873.4</ele>
        <time>2022-08-02T11:50:50Z</time>
      </trkpt>
      <trkpt lat="42.90199" lon="0.13238">
        <ele>1871.8</ele>
        <time>2022-08-02T11:50:55Z</time>
      </trkpt>
      <trkpt lat="42.90195" lon="0.1325">
        <ele>1873.2</ele>
        <time>2022-08-02T11:51:01Z</time>
      </trkpt>
      <trkpt lat="42.90195" lon="0.13262">
        <ele>1874.8</ele>
        <time>2022-08-02T11:51:07Z</time>
      </trkpt>
      <trkpt lat="42.90198" lon="0.13274">
        <ele>1876.1</ele>
        <time>2022-08-02T11:51:12Z</time>
      </trkpt>
      <trkpt lat="42.90202" lon="0.13287">
        <ele>1877.8</ele>
        <time>2022-08-02T11:51:18Z</time>
      </trkpt>
      <trkpt lat="42.90207" lon="0.13297">
        <ele>1878.2</ele>
        <time>2022-08-02T11:51:24Z</time>
      </trkpt>
      <trkpt lat="42.90209" lon="0.13308">
        <ele>1878</ele>
        <time>2022-08-02T11:51:30Z</time>
      </trkpt>
      <trkpt lat="42.90212" lon="0.13317">
        <ele>1878.6</ele>
        <time>2022-08-02T11:51:35Z</time>
      </trkpt>
      <trkpt lat="42.90215" lon="0.13329">
        <ele>1876.2</ele>
        <time>2022-08-02T11:51:41Z</time>
      </trkpt>
      <trkpt lat="42.90217" lon="0.13341">
        <ele>1877.1</ele>
        <time>2022-08-02T11:51:47Z</time>
      </trkpt>
      <trkpt lat="42.90219" lon="0.1335">
        <ele>1876.5</ele>
        <time>2022-08-02T11:51:52Z</time>
      </trkpt>
      <trkpt lat="42.90221" lon="0.13359">
        <ele>1879.4</ele>
        <time>2022-08-02T11:51:57Z</time>
      </trkpt>
      <trkpt lat="42.90221" lon="0.13369">
        <ele>1879</ele>
        <time>2022-08-02T11:52:03Z</time>
      </trkpt>
      <trkpt lat="42.90222" lon="0.13378">
        <ele>1880.1</ele>
        <time>2022-08-02T11:52:09Z</time>
      </trkpt>
      <trkpt lat="42.90225" lon="0.13388">
        <ele>1880.5</ele>
        <time>2022-08-02T11:52:15Z</time>
      </trkpt>
      <trkpt lat="42.90229" lon="0.13398">
        <ele>1881.6</ele>
        <time>2022-08-02T11:52:21Z</time>
      </trkpt>
      <trkpt lat="42.90235" lon="0.13402">
        <ele>1882.1</ele>
        <time>2022-08-02T11:52:26Z</time>
      </trkpt>
      <trkpt lat="42.90244" lon="0.13405">
        <ele>1884</ele>
        <time>2022-08-02T11:52:32Z</time>
      </trkpt>
      <trkpt lat="42.90252" lon="0.13407">
        <ele>1884.7</ele>
        <time>2022-08-02T11:52:37Z</time>
      </trkpt>
      <trkpt lat="42.9026" lon="0.1341">
        <ele>1888</ele>
        <time>2022-08-02T11:52:43Z</time>
      </trkpt>
      <trkpt lat="42.90266" lon="0.13419">
        <ele>1887.9</ele>
        <time>2022-08-02T11:52:49Z</time>
      </trkpt>
      <trkpt lat="42.9027" lon="0.13428">
        <ele>1889.6</ele>
        <time>2022-08-02T11:52:54Z</time>
      </trkpt>
      <trkpt lat="42.90273" lon="0.1344">
        <ele>1892.6</ele>
        <time>2022-08-02T11:53:00Z</time>
      </trkpt>
      <trkpt lat="42.90276" lon="0.13448">
        <ele>1893.9</ele>
        <time>2022-08-02T11:53:05Z</time>
      </trkpt>
      <trkpt lat="42.90279" lon="0.13455">
        <ele>1893.6</ele>
        <time>2022-08-02T11:53:10Z</time>
      </trkpt>
      <trkpt lat="42.9028" lon="0.13464">
        <ele>1896.3</ele>
        <time>2022-08-02T11:53:16Z</time>
      </trkpt>
      <trkpt lat="42.9028" lon="0.13474">
        <ele>1897.1</ele>
        <time>2022-08-02T11:53:22Z</time>
      </trkpt>
      <trkpt lat="42.9028" lon="0.13481">
        <ele>1897.5</ele>
        <time>2022-08-02T11:53:27Z</time>
      </trkpt>
      <trkpt lat="42.90277" lon="0.13489">
        <ele>1897.1</ele>
        <time>2022-08-02T11:53:33Z</time>
      </trkpt>
      <trkpt lat="42.90274" lon="0.13497">
        <ele>1898.8</ele>
        <time>2022-08-02T11:53:38Z</time>
      </trkpt>
      <trkpt lat="42.90271" lon="0.13506">
        <ele>1898.5</ele>
        <time>2022-08-02T11:53:44Z</time>
      </trkpt>
      <trkpt lat="42.90273" lon="0.13515">
        <ele>1900.1</ele>
        <time>2022-08-02T11:53:49Z</time>
      </trkpt>
      <trkpt lat="42.90275" lon="0.13523">
        <ele>1898.4</ele>
        <time>2022-08-02T11:53:55Z</time>
      </trkpt>
      <trkpt lat="42.90278" lon="0.1353">
        <ele>1897.7</ele>
        <time>2022-08-02T11:54:00Z</time>
      </trkpt>
      <trkpt lat="42.90283" lon="0.13539">
        <ele>1898.9</ele>
        <time>2022-08-02T11:54:06Z</time>
      </trkpt>
      <trkpt lat="42.90286" lon="0.13551">
        <ele>1900.6</ele>
        <time>2022-08-02T11:54:12Z</time>
      </trkpt>
      <trkpt lat="42.90288" lon="0.1356">
        <ele>1901.9</ele>
        <time>2022-08-02T11:54:17Z</time>
      </trkpt>
      <trkpt lat="42.9029" lon="0.1357">
        <ele>1901.8</ele>
        <time>2022-08-02T11:54:23Z</time>
      </trkpt>
      <trkpt lat="42.90291" lon="0.13582">
        <ele>1903</ele>
        <time>2022-08-02T11:54:29Z</time>
      </trkpt>
      <trkpt lat="42.9029" lon="0.13592">
        <ele>1902.8</ele>
        <time>2022-08-02T11:54:34Z</time>
      </trkpt>
      <trkpt lat="42.90294" lon="0.13601">
        <ele>1901.6</ele>
        <time>2022-08-02T11:54:39Z</time>
      </trkpt>
      <trkpt lat="42.90302" lon="0.13607">
        <ele>1901.4</ele>
        <time>2022-08-02T11:54:45Z</time>
      </trkpt>
      <trkpt lat="42.90311" lon="0.13609">
        <ele>1903.4</ele>
        <time>2022-08-02T11:54:51Z</time>
      </trkpt>
      <trkpt lat="42.90318" lon="0.1361">
        <ele>1903.3</ele>
        <time>2022-08-02T11:54:56Z</time>
      </trkpt>
      <trkpt lat="42.90326" lon="0.13612">
        <ele>1904.1</ele>
        <time>2022-08-02T11:55:02Z</time>
      </trkpt>
      <trkpt lat="42.90334" lon="0.13618">
        <ele>1905.4</ele>
        <time>2022-08-02T11:55:07Z</time>
      </trkpt>
      <trkpt lat="42.9034" lon="0.13622">
        <ele>1905.7</ele>
        <time>2022-08-02T11:55:13Z</time>
      </trkpt>
      <trkpt lat="42.90346" lon="0.13628">
        <ele>1905.6</ele>
        <time>2022-08-02T11:55:18Z</time>
      </trkpt>
      <trkpt lat="42.90352" lon="0.13634">
        <ele>1905</ele>
        <time>2022-08-02T11:55:23Z</time>
      </trkpt>
      <trkpt lat="42.90356" lon="0.13643">
        <ele>1904.5</ele>
        <time>2022-08-02T11:55:29Z</time>
      </trkpt>
      <trkpt lat="42.90361" lon="0.13653">
        <ele>1907.5</ele>
        <time>2022-08-02T11:55:35Z</time>
      </trkpt>
      <trkpt lat="42.90365" lon="0.13663">
        <ele>1908.1</ele>
        <time>2022-08-02T11:55:41Z</time>
      </trkpt>
      <trkpt lat="42.90364" lon="0.13672">
        <ele>1910.7</ele>
        <time>2022-08-02T11:55:46Z</time>
      </trkpt>
      <trkpt lat="42.90369" lon="0.13681">
        <ele>1910.8</ele>
        <time>2022-08-02T11:55:52Z</time>
      </trkpt>
      <trkpt lat="42.90374" lon="0.13686">
        <ele>1912.7</ele>
        <time>2022-08-02T11:55:57Z</time>
      </trkpt>
      <trkpt lat="42.90381" lon="0.1369">
        <ele>1913.2</ele>
        <time>2022-08-02T11:56:02Z</time>
      </trkpt>
      <trkpt lat="42.90388" lon="0.13695">
        <ele>1913.4</ele>
        <time>2022-08-02T11:56:07Z</time>
      </trkpt>
      <trkpt lat="42.90396" lon="0.13698">
        <ele>1913.4</ele>
        <time>2022-08-02T11:56:13Z</time>
      </trkpt>
      <trkpt lat="42.90401" lon="0.13702">
        <ele>1913.1</ele>
        <time>2022-08-02T11:56:18Z</time>
      </trkpt>
      <trkpt lat="42.90408" lon="0.13706">
        <ele>1913.9</ele>
        <time>2022-08-02T11:56:24Z</time>
      </trkpt>
      <trkpt lat="42.90414" lon="0.13709">
        <ele>1914.3</ele>
        <time>2022-08-02T11:56:29Z</time>
      </trkpt>
      <trkpt lat="42.90422" lon="0.13709">
        <ele>1913.1</ele>
        <time>2022-08-02T11:56:35Z</time>
      </trkpt>
      <trkpt lat="42.90429" lon="0.1371">
        <ele>1915.7</ele>
        <time>2022-08-02T11:56:40Z</time>
      </trkpt>
      <trkpt lat="42.90438" lon="0.13713">
        <ele>1916.4</ele>
        <time>2022-08-02T11:56:46Z</time>
      </trkpt>
      <trkpt lat="42.90446" lon="0.13714">
        <ele>1916.8</ele>
        <time>2022-08-02T11:56:51Z</time>
      </trkpt>
      <trkpt lat="42.90454" lon="0.13713">
        <ele>1919.4</ele>
        <time>2022-08-02T11:56:57Z</time>
      </trkpt>
      <trkpt lat="42.90461" lon="0.13712">
        <ele>1920.1</ele>
        <time>2022-08-02T11:57:02Z</time>
      </trkpt>
      <trkpt lat="42.90469" lon="0.13711">
        <ele>1921.2</ele>
        <time>2022-08-02T11:57:08Z</time>
      </trkpt>
      <trkpt lat="42.90477" lon="0.13712">
        <ele>1920.1</ele>
        <time>2022-08-02T11:57:14Z</time>
      </trkpt>
      <trkpt lat="42.90485" lon="0.13714">
        <ele>1920.4</ele>
        <time>2022-08-02T11:57:20Z</time>
      </trkpt>
      <trkpt lat="42.90493" lon="0.13716">
        <ele>1923.4</ele>
        <time>2022-08-02T11:57:26Z</time>
      </trkpt>
      <trkpt lat="42.90499" lon="0.13722">
        <ele>1924.1</ele>
        <time>2022-08-02T11:57:32Z</time>
      </trkpt>
      <trkpt lat="42.90503" lon="0.13728">
        <ele>1924.8</ele>
        <time>2022-08-02T11:57:37Z</time>
      </trkpt>
      <trkpt lat="42.90508" lon="0.13735">
        <ele>1924.7</ele>
        <time>2022-08-02T11:57:43Z</time>
      </trkpt>
      <trkpt lat="42.90512" lon="0.13743">
        <ele>1925.9</ele>
        <time>2022-08-02T11:57:49Z</time>
      </trkpt>
      <trkpt lat="42.90517" lon="0.13748">
        <ele>1927</ele>
        <time>2022-08-02T11:57:54Z</time>
      </trkpt>
      <trkpt lat="42.90522" lon="0.13755">
        <ele>1927.7</ele>
        <time>2022-08-02T11:58:00Z</time>
      </trkpt>
      <trkpt lat="42.90525" lon="0.13762">
        <ele>1929.1</ele>
        <time>2022-08-02T11:58:05Z</time>
      </trkpt>
      <trkpt lat="42.90528" lon="0.1377">
        <ele>1930.4</ele>
        <time>2022-08-02T11:58:11Z</time>
      </trkpt>
      <trkpt lat="42.90531" lon="0.13779">
        <ele>1930.6</ele>
        <time>2022-08-02T11:58:16Z</time>
      </trkpt>
      <trkpt lat="42.90537" lon="0.13787">
        <ele>1930</ele>
        <time>2022-08-02T11:58:22Z</time>
      </trkpt>
      <trkpt lat="42.90541" lon="0.13793">
        <ele>1931.5</ele>
        <time>2022-08-02T11:58:27Z</time>
      </trkpt>
      <trkpt lat="42.90546" lon="0.13799">
        <ele>1930.2</ele>
        <time>2022-08-02T11:58:32Z</time>
      </trkpt>
      <trkpt lat="42.90552" lon="0.13803">
        <ele>1931</ele>
        <time>2022-08-02T11:58:37Z</time>
      </trkpt>
      <trkpt lat="42.90557" lon="0.13809">
        <ele>1930.4</ele>
        <time>2022-08-02T11:58:42Z</time>
      </trkpt>
      <trkpt lat="42.90563" lon="0.13815">
        <ele>1932.2</ele>
        <time>2022-08-02T11:58:48Z</time>
      </trkpt>
      <trkpt lat="42.90568" lon="0.1382">
        <ele>1931.3</ele>
        <time>2022-08-02T11:58:53Z</time>
      </trkpt>
      <trkpt lat="42.90574" lon="0.13824">
        <ele>1931.7</ele>
        <time>2022-08-02T11:58:58Z</time>
      </trkpt>
      <trkpt lat="42.90581" lon="0.13827">
        <ele>1932.5</ele>
        <time>2022-08-02T11:59:04Z</time>
      </trkpt>
      <trkpt lat="42.90587" lon="0.13831">
        <ele>1932.7</ele>
        <time>2022-08-02T11:59:09Z</time>
      </trkpt>
      <trkpt lat="42.90593" lon="0.13835">
        <ele>1933.4</ele>
        <time>2022-08-02T11:59:15Z</time>
      </trkpt>
      <trkpt lat="42.90598" lon="0.13842">
        <ele>1935</ele>
        <time>2022-08-02T11:59:21Z</time>
      </trkpt>
      <trkpt lat="42.90609" lon="0.13844">
        <ele>1935.1</ele>
        <time>2022-08-02T11:59:27Z</time>
      </trkpt>
      <trkpt lat="42.90612" lon="0.13849">
        <ele>1936.1</ele>
        <time>2022-08-02T11:59:33Z</time>
      </trkpt>
      <trkpt lat="42.9062" lon="0.13855">
        <ele>1938.7</ele>
        <time>2022-08-02T11:59:39Z</time>
      </trkpt>
      <trkpt lat="42.90627" lon="0.1386">
        <ele>1940.2</ele>
        <time>2022-08-02T11:59:45Z</time>
      </trkpt>
      <trkpt lat="42.90633" lon="0.13864">
        <ele>1940.2</ele>
        <time>2022-08-02T11:59:50Z</time>
      </trkpt>
      <trkpt lat="42.9064" lon="0.13867">
        <ele>1939.3</ele>
        <time>2022-08-02T11:59:55Z</time>
      </trkpt>
      <trkpt lat="42.90646" lon="0.13871">
        <ele>1939.4</ele>
        <time>2022-08-02T12:00:00Z</time>
      </trkpt>
      <trkpt lat="42.90654" lon="0.13872">
        <ele>1941</ele>
        <time>2022-08-02T12:00:06Z</time>
      </trkpt>
      <trkpt lat="42.9066" lon="0.13872">
        <ele>1940.7</ele>
        <time>2022-08-02T12:00:11Z</time>
      </trkpt>
      <trkpt lat="42.90667" lon="0.1387">
        <ele>1942.5</ele>
        <time>2022-08-02T12:00:17Z</time>
      </trkpt>
      <trkpt lat="42.90674" lon="0.13868">
        <ele>1942.3</ele>
        <time>2022-08-02T12:00:22Z</time>
      </trkpt>
      <trkpt lat="42.90682" lon="0.13866">
        <ele>1944.2</ele>
        <time>2022-08-02T12:00:28Z</time>
      </trkpt>
      <trkpt lat="42.90688" lon="0.13863">
        <ele>1944.9</ele>
        <time>2022-08-02T12:00:34Z</time>
      </trkpt>
      <trkpt lat="42.90696" lon="0.1386">
        <ele>1943.9</ele>
        <time>2022-08-02T12:00:40Z</time>
      </trkpt>
      <trkpt lat="42.90704" lon="0.1386">
        <ele>1945.9</ele>
        <time>2022-08-02T12:00:45Z</time>
      </trkpt>
      <trkpt lat="42.90712" lon="0.1386">
        <ele>1945.8</ele>
        <time>2022-08-02T12:00:51Z</time>
      </trkpt>
      <trkpt lat="42.90718" lon="0.1386">
        <ele>1946</ele>
        <time>2022-08-02T12:00:56Z</time>
      </trkpt>
      <trkpt lat="42.90724" lon="0.13863">
        <ele>1945.6</ele>
        <time>2022-08-02T12:01:01Z</time>
      </trkpt>
      <trkpt lat="42.90731" lon="0.13865">
        <ele>1945.7</ele>
        <time>2022-08-02T12:01:07Z</time>
      </trkpt>
      <trkpt lat="42.90738" lon="0.13865">
        <ele>1946.9</ele>
        <time>2022-08-02T12:01:13Z</time>
      </trkpt>
      <trkpt lat="42.90744" lon="0.13863">
        <ele>1948.1</ele>
        <time>2022-08-02T12:01:18Z</time>
      </trkpt>
      <trkpt lat="42.90752" lon="0.1386">
        <ele>1948.9</ele>
        <time>2022-08-02T12:01:24Z</time>
      </trkpt>
      <trkpt lat="42.90759" lon="0.13853">
        <ele>1950.8</ele>
        <time>2022-08-02T12:01:30Z</time>
      </trkpt>
      <trkpt lat="42.90766" lon="0.13846">
        <ele>1953.3</ele>
        <time>2022-08-02T12:01:36Z</time>
      </trkpt>
      <trkpt lat="42.90771" lon="0.13837">
        <ele>1952.6</ele>
        <time>2022-08-02T12:01:42Z</time>
      </trkpt>
      <trkpt lat="42.90777" lon="0.13831">
        <ele>1954.7</ele>
        <time>2022-08-02T12:01:48Z</time>
      </trkpt>
      <trkpt lat="42.90781" lon="0.13824">
        <ele>1954.5</ele>
        <time>2022-08-02T12:01:53Z</time>
      </trkpt>
      <trkpt lat="42.90787" lon="0.13817">
        <ele>1956.1</ele>
        <time>2022-08-02T12:01:59Z</time>
      </trkpt>
      <trkpt lat="42.90792" lon="0.13811">
        <ele>1956.1</ele>
        <time>2022-08-02T12:02:04Z</time>
      </trkpt>
      <trkpt lat="42.90798" lon="0.13808">
        <ele>1955.8</ele>
        <time>2022-08-02T12:02:10Z</time>
      </trkpt>
      <trkpt lat="42.90803" lon="0.13802">
        <ele>1955.7</ele>
        <time>2022-08-02T12:02:16Z</time>
      </trkpt>
      <trkpt lat="42.90809" lon="0.13798">
        <ele>1957.4</ele>
        <time>2022-08-02T12:02:21Z</time>
      </trkpt>
      <trkpt lat="42.90822" lon="0.1379">
        <ele>1959.1</ele>
        <time>2022-08-02T12:02:27Z</time>
      </trkpt>
      <trkpt lat="42.90833" lon="0.13784">
        <ele>1959.5</ele>
        <time>2022-08-02T12:02:32Z</time>
      </trkpt>
      <trkpt lat="42.90842" lon="0.13778">
        <ele>1963.2</ele>
        <time>2022-08-02T12:02:38Z</time>
      </trkpt>
      <trkpt lat="42.90848" lon="0.13775">
        <ele>1963.1</ele>
        <time>2022-08-02T12:02:44Z</time>
      </trkpt>
      <trkpt lat="42.90855" lon="0.13778">
        <ele>1961.8</ele>
        <time>2022-08-02T12:02:50Z</time>
      </trkpt>
      <trkpt lat="42.90861" lon="0.13781">
        <ele>1963.1</ele>
        <time>2022-08-02T12:02:55Z</time>
      </trkpt>
      <trkpt lat="42.90868" lon="0.13782">
        <ele>1963.9</ele>
        <time>2022-08-02T12:03:01Z</time>
      </trkpt>
      <trkpt lat="42.90874" lon="0.13782">
        <ele>1962.8</ele>
        <time>2022-08-02T12:03:06Z</time>
      </trkpt>
      <trkpt lat="42.90881" lon="0.13781">
        <ele>1963.8</ele>
        <time>2022-08-02T12:03:12Z</time>
      </trkpt>
      <trkpt lat="42.90888" lon="0.13781">
        <ele>1965.4</ele>
        <time>2022-08-02T12:03:18Z</time>
      </trkpt>
      <trkpt lat="42.90896" lon="0.13782">
        <ele>1966.2</ele>
        <time>2022-08-02T12:03:23Z</time>
      </trkpt>
      <trkpt lat="42.90905" lon="0.13786">
        <ele>1966.3</ele>
        <time>2022-08-02T12:03:29Z</time>
      </trkpt>
      <trkpt lat="42.90911" lon="0.13788">
        <ele>1967.8</ele>
        <time>2022-08-02T12:03:34Z</time>
      </trkpt>
      <trkpt lat="42.90917" lon="0.13788">
        <ele>1968.2</ele>
        <time>2022-08-02T12:03:39Z</time>
      </trkpt>
      <trkpt lat="42.90924" lon="0.1379">
        <ele>1968</ele>
        <time>2022-08-02T12:03:44Z</time>
      </trkpt>
      <trkpt lat="42.9093" lon="0.13793">
        <ele>1968.1</ele>
        <time>2022-08-02T12:03:49Z</time>
      </trkpt>
      <trkpt lat="42.90937" lon="0.13798">
        <ele>1970.2</ele>
        <time>2022-08-02T12:03:55Z</time>
      </trkpt>
      <trkpt lat="42.90944" lon="0.13801">
        <ele>1972.8</ele>
        <time>2022-08-02T12:04:00Z</time>
      </trkpt>
      <trkpt lat="42.90951" lon="0.13802">
        <ele>1973.6</ele>
        <time>2022-08-02T12:04:05Z</time>
      </trkpt>
      <trkpt lat="42.90959" lon="0.13803">
        <ele>1973.8</ele>
        <time>2022-08-02T12:04:11Z</time>
      </trkpt>
      <trkpt lat="42.90966" lon="0.13804">
        <ele>1973.9</ele>
        <time>2022-08-02T12:04:16Z</time>
      </trkpt>
      <trkpt lat="42.90974" lon="0.13803">
        <ele>1974.7</ele>
        <time>2022-08-02T12:04:22Z</time>
      </trkpt>
      <trkpt lat="42.90981" lon="0.13803">
        <ele>1975.3</ele>
        <time>2022-08-02T12:04:28Z</time>
      </trkpt>
      <trkpt lat="42.90988" lon="0.13802">
        <ele>1976.5</ele>
        <time>2022-08-02T12:04:34Z</time>
      </trkpt>
      <trkpt lat="42.90994" lon="0.13802">
        <ele>1978.2</ele>
        <time>2022-08-02T12:04:39Z</time>
      </trkpt>
      <trkpt lat="42.91001" lon="0.13802">
        <ele>1978.3</ele>
        <time>2022-08-02T12:04:44Z</time>
      </trkpt>
      <trkpt lat="42.91009" lon="0.13803">
        <ele>1982.4</ele>
        <time>2022-08-02T12:04:50Z</time>
      </trkpt>
      <trkpt lat="42.91015" lon="0.13804">
        <ele>1981.5</ele>
        <time>2022-08-02T12:04:55Z</time>
      </trkpt>
      <trkpt lat="42.91022" lon="0.13804">
        <ele>1981.5</ele>
        <time>2022-08-02T12:05:00Z</time>
      </trkpt>
      <trkpt lat="42.9103" lon="0.13805">
        <ele>1980</ele>
        <time>2022-08-02T12:05:06Z</time>
      </trkpt>
      <trkpt lat="42.91037" lon="0.13804">
        <ele>1980.2</ele>
        <time>2022-08-02T12:05:11Z</time>
      </trkpt>
      <trkpt lat="42.91045" lon="0.13803">
        <ele>1980.3</ele>
        <time>2022-08-02T12:05:16Z</time>
      </trkpt>
      <trkpt lat="42.91053" lon="0.13804">
        <ele>1981.3</ele>
        <time>2022-08-02T12:05:22Z</time>
      </trkpt>
      <trkpt lat="42.91061" lon="0.13806">
        <ele>1983.7</ele>
        <time>2022-08-02T12:05:28Z</time>
      </trkpt>
      <trkpt lat="42.91067" lon="0.1381">
        <ele>1984</ele>
        <time>2022-08-02T12:05:33Z</time>
      </trkpt>
      <trkpt lat="42.91073" lon="0.13818">
        <ele>1983.1</ele>
        <time>2022-08-02T12:05:38Z</time>
      </trkpt>
      <trkpt lat="42.91079" lon="0.13827">
        <ele>1984.3</ele>
        <time>2022-08-02T12:05:44Z</time>
      </trkpt>
      <trkpt lat="42.91083" lon="0.13835">
        <ele>1984</ele>
        <time>2022-08-02T12:05:50Z</time>
      </trkpt>
      <trkpt lat="42.91089" lon="0.13844">
        <ele>1983.6</ele>
        <time>2022-08-02T12:05:55Z</time>
      </trkpt>
      <trkpt lat="42.91096" lon="0.1385">
        <ele>1984.3</ele>
        <time>2022-08-02T12:06:01Z</time>
      </trkpt>
      <trkpt lat="42.91101" lon="0.13857">
        <ele>1984</ele>
        <time>2022-08-02T12:06:07Z</time>
      </trkpt>
      <trkpt lat="42.91107" lon="0.1386">
        <ele>1983.9</ele>
        <time>2022-08-02T12:06:12Z</time>
      </trkpt>
      <trkpt lat="42.9111" lon="0.13862">
        <ele>1985.4</ele>
        <time>2022-08-02T12:06:17Z</time>
      </trkpt>
      <trkpt lat="42.9111" lon="0.13861">
        <ele>1985.1</ele>
        <time>2022-08-02T12:06:23Z</time>
      </trkpt>
      <trkpt lat="42.9111" lon="0.1386">
        <ele>1985.1</ele>
        <time>2022-08-02T12:06:28Z</time>
      </trkpt>
      <trkpt lat="42.91109" lon="0.13862">
        <ele>1984.6</ele>
        <time>2022-08-02T12:06:34Z</time>
      </trkpt>
      <trkpt lat="42.91108" lon="0.13863">
        <ele>1985.4</ele>
        <time>2022-08-02T12:06:40Z</time>
      </trkpt>
      <trkpt lat="42.91108" lon="0.13864">
        <ele>1985.3</ele>
        <time>2022-08-02T12:06:45Z</time>
      </trkpt>
      <trkpt lat="42.91108" lon="0.13864">
        <ele>1984.6</ele>
        <time>2022-08-02T12:06:51Z</time>
      </trkpt>
      <trkpt lat="42.91108" lon="0.13864">
        <ele>1984.5</ele>
        <time>2022-08-02T12:06:57Z</time>
      </trkpt>
      <trkpt lat="42.91108" lon="0.13864">
        <ele>1984.5</ele>
        <time>2022-08-02T12:07:03Z</time>
      </trkpt>
      <trkpt lat="42.91108" lon="0.13864">
        <ele>1984.5</ele>
        <time>2022-08-02T12:07:08Z</time>
      </trkpt>
      <trkpt lat="42.91108" lon="0.13864">
        <ele>1984.5</ele>
        <time>2022-08-02T12:07:14Z</time>
      </trkpt>
      <trkpt lat="42.91108" lon="0.13864">
        <ele>1984.5</ele>
        <time>2022-08-02T12:07:20Z</time>
      </trkpt>
      <trkpt lat="42.91108" lon="0.13864">
        <ele>1984.5</ele>
        <time>2022-08-02T12:07:25Z</time>
      </trkpt>
      <trkpt lat="42.91108" lon="0.13864">
        <ele>1984.5</ele>
        <time>2022-08-02T12:07:31Z</time>
      </trkpt>
      <trkpt lat="42.91108" lon="0.13864">
        <ele>1984.5</ele>
        <time>2022-08-02T12:07:36Z</time>
      </trkpt>
      <trkpt lat="42.91108" lon="0.13864">
        <ele>1984.5</ele>
        <time>2022-08-02T12:07:42Z</time>
      </trkpt>
      <trkpt lat="42.91108" lon="0.13864">
        <ele>1984.5</ele>
        <time>2022-08-02T12:07:48Z</time>
      </trkpt>
      <trkpt lat="42.91108" lon="0.13864">
        <ele>1984.5</ele>
        <time>2022-08-02T12:07:53Z</time>
      </trkpt>
      <trkpt lat="42.91108" lon="0.13864">
        <ele>1984.5</ele>
        <time>2022-08-02T12:07:58Z</time>
      </trkpt>
      <trkpt lat="42.91108" lon="0.13864">
        <ele>1984.4</ele>
        <time>2022-08-02T12:08:03Z</time>
      </trkpt>
      <trkpt lat="42.91108" lon="0.13864">
        <ele>1984.4</ele>
        <time>2022-08-02T12:08:09Z</time>
      </trkpt>
      <trkpt lat="42.91108" lon="0.13864">
        <ele>1984.4</ele>
        <time>2022-08-02T12:08:15Z</time>
      </trkpt>
      <trkpt lat="42.91108" lon="0.13864">
        <ele>1984.4</ele>
        <time>2022-08-02T12:08:20Z</time>
      </trkpt>
      <trkpt lat="42.91108" lon="0.13864">
        <ele>1984.4</ele>
        <time>2022-08-02T12:08:26Z</time>
      </trkpt>
      <trkpt lat="42.91108" lon="0.13864">
        <ele>1984.3</ele>
        <time>2022-08-02T12:08:32Z</time>
      </trkpt>
      <trkpt lat="42.91108" lon="0.13864">
        <ele>1984.3</ele>
        <time>2022-08-02T12:08:37Z</time>
      </trkpt>
      <trkpt lat="42.91108" lon="0.13864">
        <ele>1984.3</ele>
        <time>2022-08-02T12:08:43Z</time>
      </trkpt>
      <trkpt lat="42.91108" lon="0.13864">
        <ele>1984.3</ele>
        <time>2022-08-02T12:08:49Z</time>
      </trkpt>
      <trkpt lat="42.91108" lon="0.13864">
        <ele>1984.3</ele>
        <time>2022-08-02T12:08:54Z</time>
      </trkpt>
      <trkpt lat="42.91108" lon="0.13864">
        <ele>1984.3</ele>
        <time>2022-08-02T12:09:00Z</time>
      </trkpt>
      <trkpt lat="42.91108" lon="0.13864">
        <ele>1984.3</ele>
        <time>2022-08-02T12:09:05Z</time>
      </trkpt>
      <trkpt lat="42.91108" lon="0.13864">
        <ele>1984.3</ele>
        <time>2022-08-02T12:09:11Z</time>
      </trkpt>
      <trkpt lat="42.91108" lon="0.13864">
        <ele>1984.3</ele>
        <time>2022-08-02T12:09:17Z</time>
      </trkpt>
      <trkpt lat="42.91108" lon="0.13864">
        <ele>1984.3</ele>
        <time>2022-08-02T12:09:22Z</time>
      </trkpt>
      <trkpt lat="42.91108" lon="0.13864">
        <ele>1984.3</ele>
        <time>2022-08-02T12:09:28Z</time>
      </trkpt>
      <trkpt lat="42.91108" lon="0.13864">
        <ele>1984.2</ele>
        <time>2022-08-02T12:09:34Z</time>
      </trkpt>
      <trkpt lat="42.91108" lon="0.13864">
        <ele>1984.2</ele>
        <time>2022-08-02T12:09:39Z</time>
      </trkpt>
      <trkpt lat="42.91108" lon="0.13864">
        <ele>1984.2</ele>
        <time>2022-08-02T12:09:45Z</time>
      </trkpt>
      <trkpt lat="42.91108" lon="0.13864">
        <ele>1984.2</ele>
        <time>2022-08-02T12:09:51Z</time>
      </trkpt>
      <trkpt lat="42.91108" lon="0.13864">
        <ele>1984.2</ele>
        <time>2022-08-02T12:09:56Z</time>
      </trkpt>
      <trkpt lat="42.91108" lon="0.13864">
        <ele>1984.2</ele>
        <time>2022-08-02T12:10:01Z</time>
      </trkpt>
      <trkpt lat="42.91108" lon="0.13864">
        <ele>1984.1</ele>
        <time>2022-08-02T12:10:07Z</time>
      </trkpt>
      <trkpt lat="42.91108" lon="0.13864">
        <ele>1984.1</ele>
        <time>2022-08-02T12:10:12Z</time>
      </trkpt>
      <trkpt lat="42.91108" lon="0.13864">
        <ele>1984.1</ele>
        <time>2022-08-02T12:10:17Z</time>
      </trkpt>
      <trkpt lat="42.91108" lon="0.13864">
        <ele>1984.1</ele>
        <time>2022-08-02T12:10:23Z</time>
      </trkpt>
      <trkpt lat="42.91108" lon="0.13864">
        <ele>1984.1</ele>
        <time>2022-08-02T12:10:28Z</time>
      </trkpt>
      <trkpt lat="42.91108" lon="0.13864">
        <ele>1984.1</ele>
        <time>2022-08-02T12:10:33Z</time>
      </trkpt>
      <trkpt lat="42.91108" lon="0.13864">
        <ele>1984.1</ele>
        <time>2022-08-02T12:10:39Z</time>
      </trkpt>
      <trkpt lat="42.91108" lon="0.13864">
        <ele>1984.1</ele>
        <time>2022-08-02T12:10:45Z</time>
      </trkpt>
      <trkpt lat="42.91108" lon="0.13864">
        <ele>1984.1</ele>
        <time>2022-08-02T12:10:51Z</time>
      </trkpt>
      <trkpt lat="42.91108" lon="0.13864">
        <ele>1984.1</ele>
        <time>2022-08-02T12:10:57Z</time>
      </trkpt>
      <trkpt lat="42.91108" lon="0.13864">
        <ele>1984.1</ele>
        <time>2022-08-02T12:11:03Z</time>
      </trkpt>
      <trkpt lat="42.91108" lon="0.13864">
        <ele>1984.2</ele>
        <time>2022-08-02T12:11:08Z</time>
      </trkpt>
      <trkpt lat="42.91108" lon="0.13864">
        <ele>1984.2</ele>
        <time>2022-08-02T12:11:13Z</time>
      </trkpt>
      <trkpt lat="42.91108" lon="0.13864">
        <ele>1984.2</ele>
        <time>2022-08-02T12:11:19Z</time>
      </trkpt>
      <trkpt lat="42.91108" lon="0.13864">
        <ele>1984.2</ele>
        <time>2022-08-02T12:11:24Z</time>
      </trkpt>
      <trkpt lat="42.91108" lon="0.13864">
        <ele>1984.2</ele>
        <time>2022-08-02T12:11:30Z</time>
      </trkpt>
      <trkpt lat="42.91108" lon="0.13864">
        <ele>1984.2</ele>
        <time>2022-08-02T12:11:35Z</time>
      </trkpt>
      <trkpt lat="42.91108" lon="0.13864">
        <ele>1984.2</ele>
        <time>2022-08-02T12:11:40Z</time>
      </trkpt>
      <trkpt lat="42.91108" lon="0.13864">
        <ele>1984.2</ele>
        <time>2022-08-02T12:11:45Z</time>
      </trkpt>
      <trkpt lat="42.91108" lon="0.13864">
        <ele>1984.2</ele>
        <time>2022-08-02T12:11:51Z</time>
      </trkpt>
      <trkpt lat="42.91108" lon="0.13864">
        <ele>1984.2</ele>
        <time>2022-08-02T12:11:56Z</time>
      </trkpt>
      <trkpt lat="42.91114" lon="0.1386">
        <ele>1984.7</ele>
        <time>2022-08-02T12:12:01Z</time>
      </trkpt>
      <trkpt lat="42.91123" lon="0.13845">
        <ele>1983.8</ele>
        <time>2022-08-02T12:12:07Z</time>
      </trkpt>
      <trkpt lat="42.9113" lon="0.13834">
        <ele>1983.5</ele>
        <time>2022-08-02T12:12:12Z</time>
      </trkpt>
      <trkpt lat="42.91141" lon="0.13821">
        <ele>1983.7</ele>
        <time>2022-08-02T12:12:18Z</time>
      </trkpt>
      <trkpt lat="42.91151" lon="0.13808">
        <ele>1984.7</ele>
        <time>2022-08-02T12:12:24Z</time>
      </trkpt>
      <trkpt lat="42.91161" lon="0.13797">
        <ele>1985.4</ele>
        <time>2022-08-02T12:12:29Z</time>
      </trkpt>
      <trkpt lat="42.91173" lon="0.13791">
        <ele>1987.4</ele>
        <time>2022-08-02T12:12:35Z</time>
      </trkpt>
      <trkpt lat="42.91188" lon="0.13788">
        <ele>1989</ele>
        <time>2022-08-02T12:12:41Z</time>
      </trkpt>
      <trkpt lat="42.91204" lon="0.13789">
        <ele>1990.8</ele>
        <time>2022-08-02T12:12:47Z</time>
      </trkpt>
      <trkpt lat="42.9122" lon="0.13787">
        <ele>1992.6</ele>
        <time>2022-08-02T12:12:53Z</time>
      </trkpt>
      <trkpt lat="42.91232" lon="0.13783">
        <ele>1993.3</ele>
        <time>2022-08-02T12:12:58Z</time>
      </trkpt>
      <trkpt lat="42.91243" lon="0.13777">
        <ele>1994.4</ele>
        <time>2022-08-02T12:13:03Z</time>
      </trkpt>
      <trkpt lat="42.91255" lon="0.13771">
        <ele>1994.8</ele>
        <time>2022-08-02T12:13:08Z</time>
      </trkpt>
      <trkpt lat="42.91269" lon="0.13757">
        <ele>1994.2</ele>
        <time>2022-08-02T12:13:14Z</time>
      </trkpt>
      <trkpt lat="42.91277" lon="0.13742">
        <ele>1994.9</ele>
        <time>2022-08-02T12:13:19Z</time>
      </trkpt>
      <trkpt lat="42.91285" lon="0.13721">
        <ele>1996</ele>
        <time>2022-08-02T12:13:25Z</time>
      </trkpt>
      <trkpt lat="42.91294" lon="0.13703">
        <ele>1995.8</ele>
        <time>2022-08-02T12:13:30Z</time>
      </trkpt>
      <trkpt lat="42.91304" lon="0.13689">
        <ele>1995.8</ele>
        <time>2022-08-02T12:13:35Z</time>
      </trkpt>
      <trkpt lat="42.91319" lon="0.13679">
        <ele>1996.8</ele>
        <time>2022-08-02T12:13:41Z</time>
      </trkpt>
      <trkpt lat="42.91333" lon="0.1368">
        <ele>1997.1</ele>
        <time>2022-08-02T12:13:47Z</time>
      </trkpt>
      <trkpt lat="42.9134" lon="0.13691">
        <ele>2000.1</ele>
        <time>2022-08-02T12:13:52Z</time>
      </trkpt>
      <trkpt lat="42.91342" lon="0.13706">
        <ele>2002.3</ele>
        <time>2022-08-02T12:13:58Z</time>
      </trkpt>
      <trkpt lat="42.91337" lon="0.13717">
        <ele>2002.3</ele>
        <time>2022-08-02T12:14:04Z</time>
      </trkpt>
      <trkpt lat="42.9133" lon="0.13722">
        <ele>2001.3</ele>
        <time>2022-08-02T12:14:09Z</time>
      </trkpt>
      <trkpt lat="42.91322" lon="0.13725">
        <ele>2002.5</ele>
        <time>2022-08-02T12:14:14Z</time>
      </trkpt>
      <trkpt lat="42.91314" lon="0.13729">
        <ele>2003.9</ele>
        <time>2022-08-02T12:14:20Z</time>
      </trkpt>
      <trkpt lat="42.91306" lon="0.13733">
        <ele>2005.7</ele>
        <time>2022-08-02T12:14:26Z</time>
      </trkpt>
      <trkpt lat="42.913" lon="0.13737">
        <ele>2005.4</ele>
        <time>2022-08-02T12:14:31Z</time>
      </trkpt>
      <trkpt lat="42.91295" lon="0.13743">
        <ele>2006.8</ele>
        <time>2022-08-02T12:14:36Z</time>
      </trkpt>
      <trkpt lat="42.9129" lon="0.13751">
        <ele>2008.1</ele>
        <time>2022-08-02T12:14:41Z</time>
      </trkpt>
      <trkpt lat="42.91287" lon="0.13759">
        <ele>2009.3</ele>
        <time>2022-08-02T12:14:47Z</time>
      </trkpt>
      <trkpt lat="42.91282" lon="0.13769">
        <ele>2010.7</ele>
        <time>2022-08-02T12:14:53Z</time>
      </trkpt>
      <trkpt lat="42.91278" lon="0.13777">
        <ele>2011.7</ele>
        <time>2022-08-02T12:14:58Z</time>
      </trkpt>
      <trkpt lat="42.91272" lon="0.13784">
        <ele>2013</ele>
        <time>2022-08-02T12:15:04Z</time>
      </trkpt>
      <trkpt lat="42.91268" lon="0.13794">
        <ele>2013.8</ele>
        <time>2022-08-02T12:15:10Z</time>
      </trkpt>
      <trkpt lat="42.91261" lon="0.13802">
        <ele>2013.3</ele>
        <time>2022-08-02T12:15:16Z</time>
      </trkpt>
      <trkpt lat="42.91254" lon="0.13809">
        <ele>2015.1</ele>
        <time>2022-08-02T12:15:21Z</time>
      </trkpt>
      <trkpt lat="42.91247" lon="0.13817">
        <ele>2015.2</ele>
        <time>2022-08-02T12:15:27Z</time>
      </trkpt>
      <trkpt lat="42.9124" lon="0.13821">
        <ele>2013.4</ele>
        <time>2022-08-02T12:15:32Z</time>
      </trkpt>
      <trkpt lat="42.91232" lon="0.13823">
        <ele>2013.3</ele>
        <time>2022-08-02T12:15:38Z</time>
      </trkpt>
      <trkpt lat="42.91226" lon="0.13827">
        <ele>2013.6</ele>
        <time>2022-08-02T12:15:43Z</time>
      </trkpt>
      <trkpt lat="42.91219" lon="0.1383">
        <ele>2015.7</ele>
        <time>2022-08-02T12:15:48Z</time>
      </trkpt>
      <trkpt lat="42.91212" lon="0.13832">
        <ele>2016.4</ele>
        <time>2022-08-02T12:15:54Z</time>
      </trkpt>
      <trkpt lat="42.91207" lon="0.13834">
        <ele>2016</ele>
        <time>2022-08-02T12:15:59Z</time>
      </trkpt>
      <trkpt lat="42.91201" lon="0.13835">
        <ele>2019.6</ele>
        <time>2022-08-02T12:16:04Z</time>
      </trkpt>
      <trkpt lat="42.91195" lon="0.13837">
        <ele>2018.7</ele>
        <time>2022-08-02T12:16:09Z</time>
      </trkpt>
      <trkpt lat="42.91188" lon="0.1384">
        <ele>2018.8</ele>
        <time>2022-08-02T12:16:15Z</time>
      </trkpt>
      <trkpt lat="42.9118" lon="0.13843">
        <ele>2018.8</ele>
        <time>2022-08-02T12:16:20Z</time>
      </trkpt>
      <trkpt lat="42.91173" lon="0.1385">
        <ele>2019.3</ele>
        <time>2022-08-02T12:16:26Z</time>
      </trkpt>
      <trkpt lat="42.91169" lon="0.13856">
        <ele>2019.1</ele>
        <time>2022-08-02T12:16:31Z</time>
      </trkpt>
      <trkpt lat="42.91166" lon="0.13863">
        <ele>2018.3</ele>
        <time>2022-08-02T12:16:36Z</time>
      </trkpt>
      <trkpt lat="42.91162" lon="0.1387">
        <ele>2017.7</ele>
        <time>2022-08-02T12:16:41Z</time>
      </trkpt>
      <trkpt lat="42.91158" lon="0.1388">
        <ele>2019.3</ele>
        <time>2022-08-02T12:16:47Z</time>
      </trkpt>
      <trkpt lat="42.91153" lon="0.13889">
        <ele>2020.4</ele>
        <time>2022-08-02T12:16:52Z</time>
      </trkpt>
      <trkpt lat="42.91148" lon="0.13896">
        <ele>2023.1</ele>
        <time>2022-08-02T12:16:58Z</time>
      </trkpt>
      <trkpt lat="42.91143" lon="0.13906">
        <ele>2025.5</ele>
        <time>2022-08-02T12:17:04Z</time>
      </trkpt>
      <trkpt lat="42.91139" lon="0.13914">
        <ele>2025.7</ele>
        <time>2022-08-02T12:17:09Z</time>
      </trkpt>
      <trkpt lat="42.91137" lon="0.13924">
        <ele>2026.4</ele>
        <time>2022-08-02T12:17:15Z</time>
      </trkpt>
      <trkpt lat="42.91135" lon="0.13933">
        <ele>2027.1</ele>
        <time>2022-08-02T12:17:21Z</time>
      </trkpt>
      <trkpt lat="42.91131" lon="0.13941">
        <ele>2028.1</ele>
        <time>2022-08-02T12:17:27Z</time>
      </trkpt>
      <trkpt lat="42.91126" lon="0.13946">
        <ele>2029</ele>
        <time>2022-08-02T12:17:32Z</time>
      </trkpt>
      <trkpt lat="42.91119" lon="0.13948">
        <ele>2027.9</ele>
        <time>2022-08-02T12:17:37Z</time>
      </trkpt>
      <trkpt lat="42.91112" lon="0.13948">
        <ele>2028.2</ele>
        <time>2022-08-02T12:17:42Z</time>
      </trkpt>
      <trkpt lat="42.91104" lon="0.13946">
        <ele>2027.5</ele>
        <time>2022-08-02T12:17:48Z</time>
      </trkpt>
      <trkpt lat="42.91097" lon="0.13945">
        <ele>2027.6</ele>
        <time>2022-08-02T12:17:54Z</time>
      </trkpt>
      <trkpt lat="42.91089" lon="0.13943">
        <ele>2030.4</ele>
        <time>2022-08-02T12:17:59Z</time>
      </trkpt>
      <trkpt lat="42.91082" lon="0.13941">
        <ele>2030.4</ele>
        <time>2022-08-02T12:18:04Z</time>
      </trkpt>
      <trkpt lat="42.91075" lon="0.1394">
        <ele>2032.7</ele>
        <time>2022-08-02T12:18:09Z</time>
      </trkpt>
      <trkpt lat="42.91068" lon="0.13938">
        <ele>2032.3</ele>
        <time>2022-08-02T12:18:15Z</time>
      </trkpt>
      <trkpt lat="42.91059" lon="0.13935">
        <ele>2034.5</ele>
        <time>2022-08-02T12:18:21Z</time>
      </trkpt>
      <trkpt lat="42.91051" lon="0.13934">
        <ele>2035.4</ele>
        <time>2022-08-02T12:18:27Z</time>
      </trkpt>
      <trkpt lat="42.91042" lon="0.13932">
        <ele>2036.4</ele>
        <time>2022-08-02T12:18:33Z</time>
      </trkpt>
      <trkpt lat="42.91036" lon="0.13931">
        <ele>2037.1</ele>
        <time>2022-08-02T12:18:38Z</time>
      </trkpt>
      <trkpt lat="42.91029" lon="0.1393">
        <ele>2037.6</ele>
        <time>2022-08-02T12:18:43Z</time>
      </trkpt>
      <trkpt lat="42.91023" lon="0.13931">
        <ele>2039.6</ele>
        <time>2022-08-02T12:18:48Z</time>
      </trkpt>
      <trkpt lat="42.91017" lon="0.13929">
        <ele>2039.3</ele>
        <time>2022-08-02T12:18:53Z</time>
      </trkpt>
      <trkpt lat="42.91008" lon="0.1393">
        <ele>2040.3</ele>
        <time>2022-08-02T12:18:59Z</time>
      </trkpt>
      <trkpt lat="42.91001" lon="0.13931">
        <ele>2041.8</ele>
        <time>2022-08-02T12:19:05Z</time>
      </trkpt>
      <trkpt lat="42.90994" lon="0.13933">
        <ele>2042.5</ele>
        <time>2022-08-02T12:19:11Z</time>
      </trkpt>
      <trkpt lat="42.90987" lon="0.13932">
        <ele>2043.1</ele>
        <time>2022-08-02T12:19:17Z</time>
      </trkpt>
      <trkpt lat="42.9098" lon="0.13931">
        <ele>2044.1</ele>
        <time>2022-08-02T12:19:23Z</time>
      </trkpt>
      <trkpt lat="42.90973" lon="0.1393">
        <ele>2045</ele>
        <time>2022-08-02T12:19:28Z</time>
      </trkpt>
      <trkpt lat="42.90966" lon="0.13926">
        <ele>2044.8</ele>
        <time>2022-08-02T12:19:34Z</time>
      </trkpt>
      <trkpt lat="42.90959" lon="0.13925">
        <ele>2046.2</ele>
        <time>2022-08-02T12:19:39Z</time>
      </trkpt>
      <trkpt lat="42.90952" lon="0.13924">
        <ele>2046.9</ele>
        <time>2022-08-02T12:19:45Z</time>
      </trkpt>
      <trkpt lat="42.90943" lon="0.13926">
        <ele>2047.1</ele>
        <time>2022-08-02T12:19:51Z</time>
      </trkpt>
      <trkpt lat="42.90936" lon="0.13928">
        <ele>2048.9</ele>
        <time>2022-08-02T12:19:56Z</time>
      </trkpt>
      <trkpt lat="42.90929" lon="0.13929">
        <ele>2049.6</ele>
        <time>2022-08-02T12:20:01Z</time>
      </trkpt>
      <trkpt lat="42.90923" lon="0.1393">
        <ele>2049.5</ele>
        <time>2022-08-02T12:20:06Z</time>
      </trkpt>
      <trkpt lat="42.90915" lon="0.13933">
        <ele>2051.8</ele>
        <time>2022-08-02T12:20:12Z</time>
      </trkpt>
      <trkpt lat="42.90909" lon="0.13937">
        <ele>2052.3</ele>
        <time>2022-08-02T12:20:17Z</time>
      </trkpt>
      <trkpt lat="42.90901" lon="0.13941">
        <ele>2051.1</ele>
        <time>2022-08-02T12:20:22Z</time>
      </trkpt>
      <trkpt lat="42.90895" lon="0.13946">
        <ele>2051.7</ele>
        <time>2022-08-02T12:20:28Z</time>
      </trkpt>
      <trkpt lat="42.90889" lon="0.13951">
        <ele>2051.9</ele>
        <time>2022-08-02T12:20:34Z</time>
      </trkpt>
      <trkpt lat="42.90884" lon="0.13955">
        <ele>2049.8</ele>
        <time>2022-08-02T12:20:39Z</time>
      </trkpt>
      <trkpt lat="42.90879" lon="0.13962">
        <ele>2048.4</ele>
        <time>2022-08-02T12:20:44Z</time>
      </trkpt>
      <trkpt lat="42.90874" lon="0.13968">
        <ele>2048.8</ele>
        <time>2022-08-02T12:20:49Z</time>
      </trkpt>
      <trkpt lat="42.90868" lon="0.13976">
        <ele>2048.9</ele>
        <time>2022-08-02T12:20:55Z</time>
      </trkpt>
      <trkpt lat="42.90863" lon="0.13984">
        <ele>2049.7</ele>
        <time>2022-08-02T12:21:00Z</time>
      </trkpt>
      <trkpt lat="42.90858" lon="0.13993">
        <ele>2050.7</ele>
        <time>2022-08-02T12:21:06Z</time>
      </trkpt>
      <trkpt lat="42.90853" lon="0.13999">
        <ele>2051.4</ele>
        <time>2022-08-02T12:21:11Z</time>
      </trkpt>
      <trkpt lat="42.90848" lon="0.14007">
        <ele>2051.7</ele>
        <time>2022-08-02T12:21:16Z</time>
      </trkpt>
      <trkpt lat="42.90843" lon="0.14012">
        <ele>2053.9</ele>
        <time>2022-08-02T12:21:21Z</time>
      </trkpt>
      <trkpt lat="42.90836" lon="0.14015">
        <ele>2054.6</ele>
        <time>2022-08-02T12:21:27Z</time>
      </trkpt>
      <trkpt lat="42.90831" lon="0.14018">
        <ele>2055.2</ele>
        <time>2022-08-02T12:21:32Z</time>
      </trkpt>
      <trkpt lat="42.90823" lon="0.14022">
        <ele>2055</ele>
        <time>2022-08-02T12:21:38Z</time>
      </trkpt>
      <trkpt lat="42.90817" lon="0.14026">
        <ele>2055.1</ele>
        <time>2022-08-02T12:21:43Z</time>
      </trkpt>
      <trkpt lat="42.90811" lon="0.14032">
        <ele>2056</ele>
        <time>2022-08-02T12:21:49Z</time>
      </trkpt>
      <trkpt lat="42.90807" lon="0.14038">
        <ele>2057.4</ele>
        <time>2022-08-02T12:21:54Z</time>
      </trkpt>
      <trkpt lat="42.90801" lon="0.14047">
        <ele>2058.8</ele>
        <time>2022-08-02T12:22:00Z</time>
      </trkpt>
      <trkpt lat="42.90797" lon="0.14054">
        <ele>2060.5</ele>
        <time>2022-08-02T12:22:05Z</time>
      </trkpt>
      <trkpt lat="42.90792" lon="0.1406">
        <ele>2061.1</ele>
        <time>2022-08-02T12:22:10Z</time>
      </trkpt>
      <trkpt lat="42.90785" lon="0.14066">
        <ele>2062.3</ele>
        <time>2022-08-02T12:22:16Z</time>
      </trkpt>
      <trkpt lat="42.90781" lon="0.14071">
        <ele>2064.3</ele>
        <time>2022-08-02T12:22:21Z</time>
      </trkpt>
      <trkpt lat="42.90775" lon="0.14078">
        <ele>2065.2</ele>
        <time>2022-08-02T12:22:27Z</time>
      </trkpt>
      <trkpt lat="42.90771" lon="0.14086">
        <ele>2067.3</ele>
        <time>2022-08-02T12:22:32Z</time>
      </trkpt>
      <trkpt lat="42.90766" lon="0.14094">
        <ele>2069.1</ele>
        <time>2022-08-02T12:22:37Z</time>
      </trkpt>
      <trkpt lat="42.9076" lon="0.14103">
        <ele>2069.7</ele>
        <time>2022-08-02T12:22:43Z</time>
      </trkpt>
      <trkpt lat="42.90753" lon="0.14111">
        <ele>2070.7</ele>
        <time>2022-08-02T12:22:49Z</time>
      </trkpt>
      <trkpt lat="42.90748" lon="0.14119">
        <ele>2070.7</ele>
        <time>2022-08-02T12:22:54Z</time>
      </trkpt>
      <trkpt lat="42.90744" lon="0.14128">
        <ele>2072.9</ele>
        <time>2022-08-02T12:23:00Z</time>
      </trkpt>
      <trkpt lat="42.90741" lon="0.14134">
        <ele>2072.1</ele>
        <time>2022-08-02T12:23:05Z</time>
      </trkpt>
      <trkpt lat="42.90738" lon="0.14143">
        <ele>2073.4</ele>
        <time>2022-08-02T12:23:11Z</time>
      </trkpt>
      <trkpt lat="42.90735" lon="0.14158">
        <ele>2075</ele>
        <time>2022-08-02T12:23:17Z</time>
      </trkpt>
      <trkpt lat="42.90733" lon="0.14167">
        <ele>2076.1</ele>
        <time>2022-08-02T12:23:22Z</time>
      </trkpt>
      <trkpt lat="42.9073" lon="0.14177">
        <ele>2077.9</ele>
        <time>2022-08-02T12:23:28Z</time>
      </trkpt>
      <trkpt lat="42.90727" lon="0.14188">
        <ele>2078.6</ele>
        <time>2022-08-02T12:23:34Z</time>
      </trkpt>
      <trkpt lat="42.90724" lon="0.14196">
        <ele>2079.1</ele>
        <time>2022-08-02T12:23:39Z</time>
      </trkpt>
      <trkpt lat="42.90723" lon="0.14204">
        <ele>2080.7</ele>
        <time>2022-08-02T12:23:44Z</time>
      </trkpt>
      <trkpt lat="42.90722" lon="0.14212">
        <ele>2081.4</ele>
        <time>2022-08-02T12:23:49Z</time>
      </trkpt>
      <trkpt lat="42.90719" lon="0.1422">
        <ele>2081.3</ele>
        <time>2022-08-02T12:23:54Z</time>
      </trkpt>
      <trkpt lat="42.90718" lon="0.14228">
        <ele>2082</ele>
        <time>2022-08-02T12:23:59Z</time>
      </trkpt>
      <trkpt lat="42.90717" lon="0.14238">
        <ele>2082.7</ele>
        <time>2022-08-02T12:24:05Z</time>
      </trkpt>
      <trkpt lat="42.90717" lon="0.14248">
        <ele>2081.9</ele>
        <time>2022-08-02T12:24:11Z</time>
      </trkpt>
      <trkpt lat="42.9072" lon="0.14259">
        <ele>2082.8</ele>
        <time>2022-08-02T12:24:17Z</time>
      </trkpt>
      <trkpt lat="42.90725" lon="0.14268">
        <ele>2084.5</ele>
        <time>2022-08-02T12:24:23Z</time>
      </trkpt>
      <trkpt lat="42.9073" lon="0.14274">
        <ele>2085.5</ele>
        <time>2022-08-02T12:24:28Z</time>
      </trkpt>
      <trkpt lat="42.90734" lon="0.14282">
        <ele>2087.1</ele>
        <time>2022-08-02T12:24:33Z</time>
      </trkpt>
      <trkpt lat="42.90739" lon="0.14291">
        <ele>2089</ele>
        <time>2022-08-02T12:24:39Z</time>
      </trkpt>
      <trkpt lat="42.90743" lon="0.14299">
        <ele>2089.9</ele>
        <time>2022-08-02T12:24:45Z</time>
      </trkpt>
      <trkpt lat="42.90745" lon="0.14306">
        <ele>2091.1</ele>
        <time>2022-08-02T12:24:50Z</time>
      </trkpt>
      <trkpt lat="42.90747" lon="0.14316">
        <ele>2092</ele>
        <time>2022-08-02T12:24:56Z</time>
      </trkpt>
      <trkpt lat="42.90748" lon="0.14326">
        <ele>2092.1</ele>
        <time>2022-08-02T12:25:01Z</time>
      </trkpt>
      <trkpt lat="42.90748" lon="0.14335">
        <ele>2093</ele>
        <time>2022-08-02T12:25:06Z</time>
      </trkpt>
      <trkpt lat="42.90749" lon="0.14345">
        <ele>2093.5</ele>
        <time>2022-08-02T12:25:12Z</time>
      </trkpt>
      <trkpt lat="42.9075" lon="0.14354">
        <ele>2095.7</ele>
        <time>2022-08-02T12:25:17Z</time>
      </trkpt>
      <trkpt lat="42.90751" lon="0.14361">
        <ele>2095.8</ele>
        <time>2022-08-02T12:25:22Z</time>
      </trkpt>
      <trkpt lat="42.90748" lon="0.14372">
        <ele>2097.2</ele>
        <time>2022-08-02T12:25:28Z</time>
      </trkpt>
      <trkpt lat="42.90745" lon="0.1438">
        <ele>2097.7</ele>
        <time>2022-08-02T12:25:33Z</time>
      </trkpt>
      <trkpt lat="42.9074" lon="0.14387">
        <ele>2098.2</ele>
        <time>2022-08-02T12:25:39Z</time>
      </trkpt>
      <trkpt lat="42.90735" lon="0.14392">
        <ele>2097.5</ele>
        <time>2022-08-02T12:25:45Z</time>
      </trkpt>
      <trkpt lat="42.90728" lon="0.14395">
        <ele>2098.9</ele>
        <time>2022-08-02T12:25:51Z</time>
      </trkpt>
      <trkpt lat="42.90722" lon="0.144">
        <ele>2097.8</ele>
        <time>2022-08-02T12:25:57Z</time>
      </trkpt>
      <trkpt lat="42.90716" lon="0.14405">
        <ele>2100.6</ele>
        <time>2022-08-02T12:26:02Z</time>
      </trkpt>
      <trkpt lat="42.9071" lon="0.14409">
        <ele>2099.3</ele>
        <time>2022-08-02T12:26:07Z</time>
      </trkpt>
      <trkpt lat="42.90704" lon="0.14415">
        <ele>2101.2</ele>
        <time>2022-08-02T12:26:13Z</time>
      </trkpt>
      <trkpt lat="42.90699" lon="0.14421">
        <ele>2103.1</ele>
        <time>2022-08-02T12:26:18Z</time>
      </trkpt>
      <trkpt lat="42.90691" lon="0.14425">
        <ele>2102.3</ele>
        <time>2022-08-02T12:26:24Z</time>
      </trkpt>
      <trkpt lat="42.90685" lon="0.14428">
        <ele>2104.1</ele>
        <time>2022-08-02T12:26:29Z</time>
      </trkpt>
      <trkpt lat="42.90677" lon="0.14432">
        <ele>2104.9</ele>
        <time>2022-08-02T12:26:35Z</time>
      </trkpt>
      <trkpt lat="42.9067" lon="0.14435">
        <ele>2103.8</ele>
        <time>2022-08-02T12:26:40Z</time>
      </trkpt>
      <trkpt lat="42.90664" lon="0.1444">
        <ele>2104.6</ele>
        <time>2022-08-02T12:26:46Z</time>
      </trkpt>
      <trkpt lat="42.90659" lon="0.14443">
        <ele>2105</ele>
        <time>2022-08-02T12:26:51Z</time>
      </trkpt>
      <trkpt lat="42.90653" lon="0.14445">
        <ele>2103.8</ele>
        <time>2022-08-02T12:26:57Z</time>
      </trkpt>
      <trkpt lat="42.90644" lon="0.14449">
        <ele>2104.5</ele>
        <time>2022-08-02T12:27:03Z</time>
      </trkpt>
      <trkpt lat="42.90639" lon="0.14454">
        <ele>2105</ele>
        <time>2022-08-02T12:27:08Z</time>
      </trkpt>
      <trkpt lat="42.90632" lon="0.14459">
        <ele>2107.4</ele>
        <time>2022-08-02T12:27:14Z</time>
      </trkpt>
      <trkpt lat="42.90628" lon="0.14467">
        <ele>2109.3</ele>
        <time>2022-08-02T12:27:20Z</time>
      </trkpt>
      <trkpt lat="42.90624" lon="0.14474">
        <ele>2108.8</ele>
        <time>2022-08-02T12:27:25Z</time>
      </trkpt>
      <trkpt lat="42.9062" lon="0.14483">
        <ele>2109.1</ele>
        <time>2022-08-02T12:27:30Z</time>
      </trkpt>
      <trkpt lat="42.90618" lon="0.14491">
        <ele>2109.4</ele>
        <time>2022-08-02T12:27:36Z</time>
      </trkpt>
      <trkpt lat="42.90614" lon="0.145">
        <ele>2110.7</ele>
        <time>2022-08-02T12:27:41Z</time>
      </trkpt>
      <trkpt lat="42.90612" lon="0.14508">
        <ele>2111.8</ele>
        <time>2022-08-02T12:27:46Z</time>
      </trkpt>
      <trkpt lat="42.90608" lon="0.14517">
        <ele>2111</ele>
        <time>2022-08-02T12:27:52Z</time>
      </trkpt>
      <trkpt lat="42.90607" lon="0.14526">
        <ele>2112.7</ele>
        <time>2022-08-02T12:27:58Z</time>
      </trkpt>
      <trkpt lat="42.90606" lon="0.14534">
        <ele>2113.6</ele>
        <time>2022-08-02T12:28:03Z</time>
      </trkpt>
      <trkpt lat="42.90602" lon="0.14542">
        <ele>2113.2</ele>
        <time>2022-08-02T12:28:09Z</time>
      </trkpt>
      <trkpt lat="42.906" lon="0.1455">
        <ele>2114.5</ele>
        <time>2022-08-02T12:28:14Z</time>
      </trkpt>
      <trkpt lat="42.90598" lon="0.1456">
        <ele>2116.7</ele>
        <time>2022-08-02T12:28:20Z</time>
      </trkpt>
      <trkpt lat="42.90596" lon="0.14568">
        <ele>2118.5</ele>
        <time>2022-08-02T12:28:25Z</time>
      </trkpt>
      <trkpt lat="42.90594" lon="0.14575">
        <ele>2119</ele>
        <time>2022-08-02T12:28:30Z</time>
      </trkpt>
      <trkpt lat="42.9059" lon="0.14585">
        <ele>2119.5</ele>
        <time>2022-08-02T12:28:35Z</time>
      </trkpt>
      <trkpt lat="42.90587" lon="0.14591">
        <ele>2120.2</ele>
        <time>2022-08-02T12:28:41Z</time>
      </trkpt>
      <trkpt lat="42.90583" lon="0.14598">
        <ele>2119.6</ele>
        <time>2022-08-02T12:28:46Z</time>
      </trkpt>
      <trkpt lat="42.90579" lon="0.14603">
        <ele>2122.5</ele>
        <time>2022-08-02T12:28:51Z</time>
      </trkpt>
      <trkpt lat="42.90575" lon="0.14611">
        <ele>2122.3</ele>
        <time>2022-08-02T12:28:57Z</time>
      </trkpt>
      <trkpt lat="42.90571" lon="0.14621">
        <ele>2121.5</ele>
        <time>2022-08-02T12:29:02Z</time>
      </trkpt>
      <trkpt lat="42.90564" lon="0.14633">
        <ele>2124.7</ele>
        <time>2022-08-02T12:29:08Z</time>
      </trkpt>
      <trkpt lat="42.90556" lon="0.1464">
        <ele>2124</ele>
        <time>2022-08-02T12:29:14Z</time>
      </trkpt>
      <trkpt lat="42.9055" lon="0.14642">
        <ele>2126.5</ele>
        <time>2022-08-02T12:29:19Z</time>
      </trkpt>
      <trkpt lat="42.90542" lon="0.14644">
        <ele>2126.2</ele>
        <time>2022-08-02T12:29:25Z</time>
      </trkpt>
      <trkpt lat="42.90534" lon="0.14646">
        <ele>2125.3</ele>
        <time>2022-08-02T12:29:31Z</time>
      </trkpt>
      <trkpt lat="42.90526" lon="0.14649">
        <ele>2127.1</ele>
        <time>2022-08-02T12:29:36Z</time>
      </trkpt>
      <trkpt lat="42.9052" lon="0.14653">
        <ele>2126.6</ele>
        <time>2022-08-02T12:29:41Z</time>
      </trkpt>
      <trkpt lat="42.90515" lon="0.14661">
        <ele>2126.2</ele>
        <time>2022-08-02T12:29:46Z</time>
      </trkpt>
      <trkpt lat="42.90518" lon="0.14673">
        <ele>2129.8</ele>
        <time>2022-08-02T12:29:52Z</time>
      </trkpt>
      <trkpt lat="42.90528" lon="0.14678">
        <ele>2131.7</ele>
        <time>2022-08-02T12:29:58Z</time>
      </trkpt>
      <trkpt lat="42.90535" lon="0.14674">
        <ele>2131.2</ele>
        <time>2022-08-02T12:30:03Z</time>
      </trkpt>
      <trkpt lat="42.90542" lon="0.14671">
        <ele>2131.2</ele>
        <time>2022-08-02T12:30:09Z</time>
      </trkpt>
      <trkpt lat="42.90547" lon="0.14668">
        <ele>2131.6</ele>
        <time>2022-08-02T12:30:14Z</time>
      </trkpt>
      <trkpt lat="42.90553" lon="0.14665">
        <ele>2132.8</ele>
        <time>2022-08-02T12:30:20Z</time>
      </trkpt>
      <trkpt lat="42.9056" lon="0.14661">
        <ele>2135.1</ele>
        <time>2022-08-02T12:30:26Z</time>
      </trkpt>
      <trkpt lat="42.90568" lon="0.14656">
        <ele>2136.6</ele>
        <time>2022-08-02T12:30:32Z</time>
      </trkpt>
      <trkpt lat="42.90574" lon="0.14653">
        <ele>2136.9</ele>
        <time>2022-08-02T12:30:37Z</time>
      </trkpt>
      <trkpt lat="42.90582" lon="0.14648">
        <ele>2137.2</ele>
        <time>2022-08-02T12:30:43Z</time>
      </trkpt>
      <trkpt lat="42.90587" lon="0.14641">
        <ele>2138</ele>
        <time>2022-08-02T12:30:48Z</time>
      </trkpt>
      <trkpt lat="42.90593" lon="0.14633">
        <ele>2138.3</ele>
        <time>2022-08-02T12:30:54Z</time>
      </trkpt>
      <trkpt lat="42.90597" lon="0.14627">
        <ele>2139.1</ele>
        <time>2022-08-02T12:30:59Z</time>
      </trkpt>
      <trkpt lat="42.90603" lon="0.14619">
        <ele>2139.4</ele>
        <time>2022-08-02T12:31:05Z</time>
      </trkpt>
      <trkpt lat="42.90608" lon="0.14613">
        <ele>2140</ele>
        <time>2022-08-02T12:31:10Z</time>
      </trkpt>
      <trkpt lat="42.90613" lon="0.14606">
        <ele>2140.1</ele>
        <time>2022-08-02T12:31:15Z</time>
      </trkpt>
      <trkpt lat="42.90619" lon="0.14601">
        <ele>2141.2</ele>
        <time>2022-08-02T12:31:21Z</time>
      </trkpt>
      <trkpt lat="42.90624" lon="0.14597">
        <ele>2141.8</ele>
        <time>2022-08-02T12:31:26Z</time>
      </trkpt>
      <trkpt lat="42.9063" lon="0.14593">
        <ele>2142.7</ele>
        <time>2022-08-02T12:31:32Z</time>
      </trkpt>
      <trkpt lat="42.90635" lon="0.14588">
        <ele>2142.9</ele>
        <time>2022-08-02T12:31:37Z</time>
      </trkpt>
      <trkpt lat="42.90643" lon="0.14584">
        <ele>2143.7</ele>
        <time>2022-08-02T12:31:43Z</time>
      </trkpt>
      <trkpt lat="42.90649" lon="0.1458">
        <ele>2144</ele>
        <time>2022-08-02T12:31:48Z</time>
      </trkpt>
      <trkpt lat="42.90658" lon="0.14577">
        <ele>2145.5</ele>
        <time>2022-08-02T12:31:53Z</time>
      </trkpt>
      <trkpt lat="42.90665" lon="0.14574">
        <ele>2145.7</ele>
        <time>2022-08-02T12:31:59Z</time>
      </trkpt>
      <trkpt lat="42.90669" lon="0.14569">
        <ele>2145.8</ele>
        <time>2022-08-02T12:32:04Z</time>
      </trkpt>
      <trkpt lat="42.90673" lon="0.14562">
        <ele>2147.3</ele>
        <time>2022-08-02T12:32:09Z</time>
      </trkpt>
      <trkpt lat="42.90678" lon="0.14553">
        <ele>2148.7</ele>
        <time>2022-08-02T12:32:15Z</time>
      </trkpt>
      <trkpt lat="42.90683" lon="0.14544">
        <ele>2148.4</ele>
        <time>2022-08-02T12:32:21Z</time>
      </trkpt>
      <trkpt lat="42.90689" lon="0.14537">
        <ele>2150.6</ele>
        <time>2022-08-02T12:32:27Z</time>
      </trkpt>
      <trkpt lat="42.90695" lon="0.14532">
        <ele>2152.1</ele>
        <time>2022-08-02T12:32:32Z</time>
      </trkpt>
      <trkpt lat="42.90702" lon="0.14528">
        <ele>2152.8</ele>
        <time>2022-08-02T12:32:38Z</time>
      </trkpt>
      <trkpt lat="42.90708" lon="0.14528">
        <ele>2153.2</ele>
        <time>2022-08-02T12:32:44Z</time>
      </trkpt>
      <trkpt lat="42.90715" lon="0.14526">
        <ele>2155</ele>
        <time>2022-08-02T12:32:50Z</time>
      </trkpt>
      <trkpt lat="42.90721" lon="0.14524">
        <ele>2156.7</ele>
        <time>2022-08-02T12:32:56Z</time>
      </trkpt>
      <trkpt lat="42.90727" lon="0.14522">
        <ele>2157.6</ele>
        <time>2022-08-02T12:33:02Z</time>
      </trkpt>
      <trkpt lat="42.90734" lon="0.14519">
        <ele>2158.3</ele>
        <time>2022-08-02T12:33:08Z</time>
      </trkpt>
      <trkpt lat="42.9074" lon="0.14517">
        <ele>2159.2</ele>
        <time>2022-08-02T12:33:14Z</time>
      </trkpt>
      <trkpt lat="42.90746" lon="0.14515">
        <ele>2160.7</ele>
        <time>2022-08-02T12:33:19Z</time>
      </trkpt>
      <trkpt lat="42.90752" lon="0.14515">
        <ele>2161.2</ele>
        <time>2022-08-02T12:33:24Z</time>
      </trkpt>
      <trkpt lat="42.90759" lon="0.14517">
        <ele>2161.7</ele>
        <time>2022-08-02T12:33:30Z</time>
      </trkpt>
      <trkpt lat="42.90765" lon="0.1452">
        <ele>2163.8</ele>
        <time>2022-08-02T12:33:35Z</time>
      </trkpt>
      <trkpt lat="42.90772" lon="0.14522">
        <ele>2164.3</ele>
        <time>2022-08-02T12:33:40Z</time>
      </trkpt>
      <trkpt lat="42.90778" lon="0.14525">
        <ele>2164.6</ele>
        <time>2022-08-02T12:33:45Z</time>
      </trkpt>
      <trkpt lat="42.90785" lon="0.14526">
        <ele>2166</ele>
        <time>2022-08-02T12:33:51Z</time>
      </trkpt>
      <trkpt lat="42.90791" lon="0.14524">
        <ele>2166</ele>
        <time>2022-08-02T12:33:56Z</time>
      </trkpt>
      <trkpt lat="42.90797" lon="0.1452">
        <ele>2166.3</ele>
        <time>2022-08-02T12:34:02Z</time>
      </trkpt>
      <trkpt lat="42.90804" lon="0.14518">
        <ele>2166.4</ele>
        <time>2022-08-02T12:34:07Z</time>
      </trkpt>
      <trkpt lat="42.90812" lon="0.14517">
        <ele>2165.9</ele>
        <time>2022-08-02T12:34:12Z</time>
      </trkpt>
      <trkpt lat="42.90821" lon="0.14517">
        <ele>2167.5</ele>
        <time>2022-08-02T12:34:18Z</time>
      </trkpt>
      <trkpt lat="42.90829" lon="0.14518">
        <ele>2169.9</ele>
        <time>2022-08-02T12:34:24Z</time>
      </trkpt>
      <trkpt lat="42.90834" lon="0.14523">
        <ele>2170.4</ele>
        <time>2022-08-02T12:34:30Z</time>
      </trkpt>
      <trkpt lat="42.90837" lon="0.14527">
        <ele>2170.7</ele>
        <time>2022-08-02T12:34:35Z</time>
      </trkpt>
      <trkpt lat="42.90837" lon="0.14527">
        <ele>2170.7</ele>
        <time>2022-08-02T12:34:40Z</time>
      </trkpt>
      <trkpt lat="42.90838" lon="0.14527">
        <ele>2170.7</ele>
        <time>2022-08-02T12:34:45Z</time>
      </trkpt>
      <trkpt lat="42.90838" lon="0.14528">
        <ele>2170.7</ele>
        <time>2022-08-02T12:34:50Z</time>
      </trkpt>
      <trkpt lat="42.90838" lon="0.14528">
        <ele>2171.2</ele>
        <time>2022-08-02T12:34:56Z</time>
      </trkpt>
      <trkpt lat="42.90838" lon="0.14526">
        <ele>2170.7</ele>
        <time>2022-08-02T12:35:02Z</time>
      </trkpt>
      <trkpt lat="42.90836" lon="0.14526">
        <ele>2170.4</ele>
        <time>2022-08-02T12:35:07Z</time>
      </trkpt>
      <trkpt lat="42.90835" lon="0.14528">
        <ele>2170.1</ele>
        <time>2022-08-02T12:35:13Z</time>
      </trkpt>
      <trkpt lat="42.90833" lon="0.14529">
        <ele>2170.7</ele>
        <time>2022-08-02T12:35:18Z</time>
      </trkpt>
      <trkpt lat="42.90833" lon="0.14531">
        <ele>2170.4</ele>
        <time>2022-08-02T12:35:23Z</time>
      </trkpt>
      <trkpt lat="42.90833" lon="0.14532">
        <ele>2170.3</ele>
        <time>2022-08-02T12:35:28Z</time>
      </trkpt>
      <trkpt lat="42.90832" lon="0.14532">
        <ele>2170.9</ele>
        <time>2022-08-02T12:35:34Z</time>
      </trkpt>
      <trkpt lat="42.90832" lon="0.14532">
        <ele>2170.9</ele>
        <time>2022-08-02T12:35:39Z</time>
      </trkpt>
      <trkpt lat="42.90832" lon="0.14532">
        <ele>2170.9</ele>
        <time>2022-08-02T12:35:45Z</time>
      </trkpt>
      <trkpt lat="42.90832" lon="0.14531">
        <ele>2170.9</ele>
        <time>2022-08-02T12:35:50Z</time>
      </trkpt>
      <trkpt lat="42.90832" lon="0.14531">
        <ele>2170.8</ele>
        <time>2022-08-02T12:35:55Z</time>
      </trkpt>
      <trkpt lat="42.90832" lon="0.14532">
        <ele>2171.9</ele>
        <time>2022-08-02T12:36:01Z</time>
      </trkpt>
      <trkpt lat="42.90831" lon="0.14531">
        <ele>2171</ele>
        <time>2022-08-02T12:36:06Z</time>
      </trkpt>
      <trkpt lat="42.90827" lon="0.14529">
        <ele>2173.2</ele>
        <time>2022-08-02T12:36:12Z</time>
      </trkpt>
      <trkpt lat="42.90824" lon="0.14527">
        <ele>2172.9</ele>
        <time>2022-08-02T12:36:17Z</time>
      </trkpt>
      <trkpt lat="42.90826" lon="0.14527">
        <ele>2172.5</ele>
        <time>2022-08-02T12:36:22Z</time>
      </trkpt>
      <trkpt lat="42.90825" lon="0.14527">
        <ele>2172.4</ele>
        <time>2022-08-02T12:36:27Z</time>
      </trkpt>
      <trkpt lat="42.90825" lon="0.14527">
        <ele>2172.4</ele>
        <time>2022-08-02T12:36:33Z</time>
      </trkpt>
      <trkpt lat="42.90825" lon="0.14527">
        <ele>2172.4</ele>
        <time>2022-08-02T12:36:38Z</time>
      </trkpt>
      <trkpt lat="42.90825" lon="0.14528">
        <ele>2171.8</ele>
        <time>2022-08-02T12:36:43Z</time>
      </trkpt>
      <trkpt lat="42.90825" lon="0.14529">
        <ele>2171.9</ele>
        <time>2022-08-02T12:36:49Z</time>
      </trkpt>
      <trkpt lat="42.90825" lon="0.14528">
        <ele>2172</ele>
        <time>2022-08-02T12:36:54Z</time>
      </trkpt>
      <trkpt lat="42.90825" lon="0.14528">
        <ele>2172</ele>
        <time>2022-08-02T12:36:59Z</time>
      </trkpt>
      <trkpt lat="42.90825" lon="0.14528">
        <ele>2172</ele>
        <time>2022-08-02T12:37:05Z</time>
      </trkpt>
      <trkpt lat="42.90825" lon="0.14528">
        <ele>2172</ele>
        <time>2022-08-02T12:37:11Z</time>
      </trkpt>
      <trkpt lat="42.90825" lon="0.14528">
        <ele>2171.9</ele>
        <time>2022-08-02T12:37:17Z</time>
      </trkpt>
      <trkpt lat="42.90825" lon="0.14528">
        <ele>2171.9</ele>
        <time>2022-08-02T12:37:22Z</time>
      </trkpt>
      <trkpt lat="42.90825" lon="0.14528">
        <ele>2171.9</ele>
        <time>2022-08-02T12:37:28Z</time>
      </trkpt>
      <trkpt lat="42.90825" lon="0.14528">
        <ele>2171.9</ele>
        <time>2022-08-02T12:37:34Z</time>
      </trkpt>
      <trkpt lat="42.90825" lon="0.14528">
        <ele>2171.9</ele>
        <time>2022-08-02T12:37:40Z</time>
      </trkpt>
      <trkpt lat="42.90825" lon="0.14528">
        <ele>2172</ele>
        <time>2022-08-02T12:37:46Z</time>
      </trkpt>
      <trkpt lat="42.90825" lon="0.14528">
        <ele>2171.9</ele>
        <time>2022-08-02T12:37:52Z</time>
      </trkpt>
      <trkpt lat="42.90825" lon="0.14528">
        <ele>2171.7</ele>
        <time>2022-08-02T12:37:58Z</time>
      </trkpt>
      <trkpt lat="42.90826" lon="0.14527">
        <ele>2171.6</ele>
        <time>2022-08-02T12:38:03Z</time>
      </trkpt>
      <trkpt lat="42.90826" lon="0.14527">
        <ele>2171.6</ele>
        <time>2022-08-02T12:38:08Z</time>
      </trkpt>
      <trkpt lat="42.90826" lon="0.14527">
        <ele>2171.6</ele>
        <time>2022-08-02T12:38:14Z</time>
      </trkpt>
      <trkpt lat="42.90826" lon="0.14527">
        <ele>2171.6</ele>
        <time>2022-08-02T12:38:19Z</time>
      </trkpt>
      <trkpt lat="42.90826" lon="0.14527">
        <ele>2171.6</ele>
        <time>2022-08-02T12:38:24Z</time>
      </trkpt>
      <trkpt lat="42.90826" lon="0.14527">
        <ele>2171.6</ele>
        <time>2022-08-02T12:38:30Z</time>
      </trkpt>
      <trkpt lat="42.90826" lon="0.14527">
        <ele>2171.6</ele>
        <time>2022-08-02T12:38:35Z</time>
      </trkpt>
      <trkpt lat="42.90826" lon="0.14527">
        <ele>2171.6</ele>
        <time>2022-08-02T12:38:40Z</time>
      </trkpt>
      <trkpt lat="42.90826" lon="0.14527">
        <ele>2171.6</ele>
        <time>2022-08-02T12:38:46Z</time>
      </trkpt>
      <trkpt lat="42.90826" lon="0.14527">
        <ele>2171.6</ele>
        <time>2022-08-02T12:38:51Z</time>
      </trkpt>
      <trkpt lat="42.90826" lon="0.14527">
        <ele>2171.6</ele>
        <time>2022-08-02T12:38:57Z</time>
      </trkpt>
      <trkpt lat="42.90826" lon="0.14527">
        <ele>2171.6</ele>
        <time>2022-08-02T12:39:03Z</time>
      </trkpt>
      <trkpt lat="42.90826" lon="0.14527">
        <ele>2171.6</ele>
        <time>2022-08-02T12:39:08Z</time>
      </trkpt>
      <trkpt lat="42.90826" lon="0.14527">
        <ele>2171.6</ele>
        <time>2022-08-02T12:39:13Z</time>
      </trkpt>
      <trkpt lat="42.90826" lon="0.14527">
        <ele>2171.6</ele>
        <time>2022-08-02T12:39:18Z</time>
      </trkpt>
      <trkpt lat="42.90826" lon="0.14527">
        <ele>2171.6</ele>
        <time>2022-08-02T12:39:24Z</time>
      </trkpt>
      <trkpt lat="42.90826" lon="0.14527">
        <ele>2171.6</ele>
        <time>2022-08-02T12:39:30Z</time>
      </trkpt>
      <trkpt lat="42.90827" lon="0.14527">
        <ele>2171.7</ele>
        <time>2022-08-02T12:39:36Z</time>
      </trkpt>
      <trkpt lat="42.90827" lon="0.14527">
        <ele>2171.7</ele>
        <time>2022-08-02T12:39:41Z</time>
      </trkpt>
      <trkpt lat="42.90827" lon="0.14527">
        <ele>2171.7</ele>
        <time>2022-08-02T12:39:46Z</time>
      </trkpt>
      <trkpt lat="42.90827" lon="0.14527">
        <ele>2171.7</ele>
        <time>2022-08-02T12:39:52Z</time>
      </trkpt>
      <trkpt lat="42.90827" lon="0.14527">
        <ele>2171.7</ele>
        <time>2022-08-02T12:39:58Z</time>
      </trkpt>
      <trkpt lat="42.90827" lon="0.14527">
        <ele>2171.7</ele>
        <time>2022-08-02T12:40:03Z</time>
      </trkpt>
      <trkpt lat="42.90827" lon="0.14527">
        <ele>2171.7</ele>
        <time>2022-08-02T12:40:08Z</time>
      </trkpt>
      <trkpt lat="42.90827" lon="0.14527">
        <ele>2171.7</ele>
        <time>2022-08-02T12:40:14Z</time>
      </trkpt>
      <trkpt lat="42.90827" lon="0.14527">
        <ele>2171.7</ele>
        <time>2022-08-02T12:40:20Z</time>
      </trkpt>
      <trkpt lat="42.90827" lon="0.14527">
        <ele>2171.7</ele>
        <time>2022-08-02T12:40:25Z</time>
      </trkpt>
      <trkpt lat="42.90827" lon="0.14527">
        <ele>2171.7</ele>
        <time>2022-08-02T12:40:31Z</time>
      </trkpt>
      <trkpt lat="42.90827" lon="0.14527">
        <ele>2171.7</ele>
        <time>2022-08-02T12:40:37Z</time>
      </trkpt>
      <trkpt lat="42.90827" lon="0.14527">
        <ele>2171.7</ele>
        <time>2022-08-02T12:40:42Z</time>
      </trkpt>
      <trkpt lat="42.90827" lon="0.14527">
        <ele>2171.7</ele>
        <time>2022-08-02T12:40:48Z</time>
      </trkpt>
      <trkpt lat="42.90827" lon="0.14527">
        <ele>2171.7</ele>
        <time>2022-08-02T12:40:53Z</time>
      </trkpt>
      <trkpt lat="42.90827" lon="0.14527">
        <ele>2171.7</ele>
        <time>2022-08-02T12:40:59Z</time>
      </trkpt>
      <trkpt lat="42.90827" lon="0.14527">
        <ele>2171.7</ele>
        <time>2022-08-02T12:41:04Z</time>
      </trkpt>
      <trkpt lat="42.90827" lon="0.14527">
        <ele>2171.7</ele>
        <time>2022-08-02T12:41:09Z</time>
      </trkpt>
      <trkpt lat="42.90827" lon="0.14527">
        <ele>2171.7</ele>
        <time>2022-08-02T12:41:15Z</time>
      </trkpt>
      <trkpt lat="42.90827" lon="0.14527">
        <ele>2171.7</ele>
        <time>2022-08-02T12:41:20Z</time>
      </trkpt>
      <trkpt lat="42.90827" lon="0.14527">
        <ele>2171.7</ele>
        <time>2022-08-02T12:41:25Z</time>
      </trkpt>
      <trkpt lat="42.90827" lon="0.14527">
        <ele>2171.7</ele>
        <time>2022-08-02T12:41:31Z</time>
      </trkpt>
      <trkpt lat="42.90827" lon="0.14527">
        <ele>2171.7</ele>
        <time>2022-08-02T12:41:36Z</time>
      </trkpt>
      <trkpt lat="42.90827" lon="0.14527">
        <ele>2171.8</ele>
        <time>2022-08-02T12:41:42Z</time>
      </trkpt>
      <trkpt lat="42.90827" lon="0.14527">
        <ele>2171.8</ele>
        <time>2022-08-02T12:41:47Z</time>
      </trkpt>
      <trkpt lat="42.90827" lon="0.14527">
        <ele>2171.8</ele>
        <time>2022-08-02T12:41:53Z</time>
      </trkpt>
      <trkpt lat="42.90827" lon="0.14527">
        <ele>2171.8</ele>
        <time>2022-08-02T12:41:59Z</time>
      </trkpt>
      <trkpt lat="42.90827" lon="0.14527">
        <ele>2171.8</ele>
        <time>2022-08-02T12:42:04Z</time>
      </trkpt>
      <trkpt lat="42.90827" lon="0.14527">
        <ele>2171.8</ele>
        <time>2022-08-02T12:42:09Z</time>
      </trkpt>
      <trkpt lat="42.90827" lon="0.14527">
        <ele>2171.8</ele>
        <time>2022-08-02T12:42:15Z</time>
      </trkpt>
      <trkpt lat="42.90827" lon="0.14527">
        <ele>2171.8</ele>
        <time>2022-08-02T12:42:21Z</time>
      </trkpt>
      <trkpt lat="42.90827" lon="0.14527">
        <ele>2171.8</ele>
        <time>2022-08-02T12:42:26Z</time>
      </trkpt>
      <trkpt lat="42.90827" lon="0.14527">
        <ele>2171.9</ele>
        <time>2022-08-02T12:42:32Z</time>
      </trkpt>
      <trkpt lat="42.90827" lon="0.14527">
        <ele>2171.9</ele>
        <time>2022-08-02T12:42:38Z</time>
      </trkpt>
      <trkpt lat="42.90827" lon="0.14527">
        <ele>2171.9</ele>
        <time>2022-08-02T12:42:43Z</time>
      </trkpt>
      <trkpt lat="42.90827" lon="0.14527">
        <ele>2171.9</ele>
        <time>2022-08-02T12:42:49Z</time>
      </trkpt>
      <trkpt lat="42.90827" lon="0.14527">
        <ele>2171.9</ele>
        <time>2022-08-02T12:42:54Z</time>
      </trkpt>
      <trkpt lat="42.90827" lon="0.14527">
        <ele>2171.9</ele>
        <time>2022-08-02T12:43:00Z</time>
      </trkpt>
      <trkpt lat="42.90827" lon="0.14527">
        <ele>2171.9</ele>
        <time>2022-08-02T12:43:05Z</time>
      </trkpt>
      <trkpt lat="42.90827" lon="0.14527">
        <ele>2171.9</ele>
        <time>2022-08-02T12:43:10Z</time>
      </trkpt>
      <trkpt lat="42.90827" lon="0.14527">
        <ele>2171.9</ele>
        <time>2022-08-02T12:43:15Z</time>
      </trkpt>
      <trkpt lat="42.90827" lon="0.14527">
        <ele>2171.9</ele>
        <time>2022-08-02T12:43:20Z</time>
      </trkpt>
      <trkpt lat="42.90827" lon="0.14527">
        <ele>2171.9</ele>
        <time>2022-08-02T12:43:26Z</time>
      </trkpt>
      <trkpt lat="42.90827" lon="0.14527">
        <ele>2172</ele>
        <time>2022-08-02T12:43:32Z</time>
      </trkpt>
      <trkpt lat="42.90827" lon="0.14527">
        <ele>2172</ele>
        <time>2022-08-02T12:43:37Z</time>
      </trkpt>
      <trkpt lat="42.90827" lon="0.14527">
        <ele>2172</ele>
        <time>2022-08-02T12:43:42Z</time>
      </trkpt>
      <trkpt lat="42.90827" lon="0.14527">
        <ele>2172</ele>
        <time>2022-08-02T12:43:48Z</time>
      </trkpt>
      <trkpt lat="42.90827" lon="0.14527">
        <ele>2172</ele>
        <time>2022-08-02T12:43:53Z</time>
      </trkpt>
      <trkpt lat="42.90827" lon="0.14527">
        <ele>2172</ele>
        <time>2022-08-02T12:43:59Z</time>
      </trkpt>
      <trkpt lat="42.90827" lon="0.14527">
        <ele>2172</ele>
        <time>2022-08-02T12:44:04Z</time>
      </trkpt>
      <trkpt lat="42.90827" lon="0.14527">
        <ele>2172</ele>
        <time>2022-08-02T12:44:09Z</time>
      </trkpt>
      <trkpt lat="42.90827" lon="0.14527">
        <ele>2172</ele>
        <time>2022-08-02T12:44:15Z</time>
      </trkpt>
      <trkpt lat="42.90827" lon="0.14527">
        <ele>2172</ele>
        <time>2022-08-02T12:44:20Z</time>
      </trkpt>
      <trkpt lat="42.90827" lon="0.14527">
        <ele>2172.1</ele>
        <time>2022-08-02T12:44:25Z</time>
      </trkpt>
      <trkpt lat="42.90827" lon="0.14527">
        <ele>2172.1</ele>
        <time>2022-08-02T12:44:30Z</time>
      </trkpt>
      <trkpt lat="42.90827" lon="0.14527">
        <ele>2172.1</ele>
        <time>2022-08-02T12:44:36Z</time>
      </trkpt>
      <trkpt lat="42.90827" lon="0.14527">
        <ele>2172.1</ele>
        <time>2022-08-02T12:44:41Z</time>
      </trkpt>
      <trkpt lat="42.90827" lon="0.14527">
        <ele>2172.1</ele>
        <time>2022-08-02T12:44:46Z</time>
      </trkpt>
      <trkpt lat="42.90827" lon="0.14527">
        <ele>2172.1</ele>
        <time>2022-08-02T12:44:52Z</time>
      </trkpt>
      <trkpt lat="42.90827" lon="0.14527">
        <ele>2172.1</ele>
        <time>2022-08-02T12:44:57Z</time>
      </trkpt>
      <trkpt lat="42.90827" lon="0.14527">
        <ele>2172.1</ele>
        <time>2022-08-02T12:45:03Z</time>
      </trkpt>
      <trkpt lat="42.90827" lon="0.14527">
        <ele>2172.1</ele>
        <time>2022-08-02T12:45:08Z</time>
      </trkpt>
      <trkpt lat="42.90827" lon="0.14527">
        <ele>2172.1</ele>
        <time>2022-08-02T12:45:13Z</time>
      </trkpt>
      <trkpt lat="42.90827" lon="0.14527">
        <ele>2172.1</ele>
        <time>2022-08-02T12:45:19Z</time>
      </trkpt>
      <trkpt lat="42.90827" lon="0.14527">
        <ele>2172.1</ele>
        <time>2022-08-02T12:45:25Z</time>
      </trkpt>
      <trkpt lat="42.90827" lon="0.14527">
        <ele>2172.1</ele>
        <time>2022-08-02T12:45:31Z</time>
      </trkpt>
      <trkpt lat="42.90827" lon="0.14527">
        <ele>2172.1</ele>
        <time>2022-08-02T12:45:36Z</time>
      </trkpt>
      <trkpt lat="42.90827" lon="0.14527">
        <ele>2172.1</ele>
        <time>2022-08-02T12:45:42Z</time>
      </trkpt>
      <trkpt lat="42.90827" lon="0.14527">
        <ele>2172.2</ele>
        <time>2022-08-02T12:45:47Z</time>
      </trkpt>
      <trkpt lat="42.90827" lon="0.14527">
        <ele>2172.2</ele>
        <time>2022-08-02T12:45:53Z</time>
      </trkpt>
      <trkpt lat="42.90827" lon="0.14527">
        <ele>2172.2</ele>
        <time>2022-08-02T12:45:59Z</time>
      </trkpt>
      <trkpt lat="42.90827" lon="0.14527">
        <ele>2172.2</ele>
        <time>2022-08-02T12:46:04Z</time>
      </trkpt>
      <trkpt lat="42.90827" lon="0.14527">
        <ele>2172.2</ele>
        <time>2022-08-02T12:46:10Z</time>
      </trkpt>
      <trkpt lat="42.90826" lon="0.14524">
        <ele>2171.6</ele>
        <time>2022-08-02T12:46:15Z</time>
      </trkpt>
      <trkpt lat="42.90826" lon="0.14526">
        <ele>2171.6</ele>
        <time>2022-08-02T12:46:20Z</time>
      </trkpt>
      <trkpt lat="42.90826" lon="0.14526">
        <ele>2171.6</ele>
        <time>2022-08-02T12:46:26Z</time>
      </trkpt>
      <trkpt lat="42.90826" lon="0.14526">
        <ele>2171.6</ele>
        <time>2022-08-02T12:46:31Z</time>
      </trkpt>
      <trkpt lat="42.90826" lon="0.14526">
        <ele>2171.6</ele>
        <time>2022-08-02T12:46:36Z</time>
      </trkpt>
      <trkpt lat="42.90826" lon="0.14526">
        <ele>2171.6</ele>
        <time>2022-08-02T12:46:42Z</time>
      </trkpt>
      <trkpt lat="42.90826" lon="0.14526">
        <ele>2171.6</ele>
        <time>2022-08-02T12:46:47Z</time>
      </trkpt>
      <trkpt lat="42.90826" lon="0.14526">
        <ele>2171.6</ele>
        <time>2022-08-02T12:46:53Z</time>
      </trkpt>
      <trkpt lat="42.90826" lon="0.14526">
        <ele>2171.6</ele>
        <time>2022-08-02T12:46:59Z</time>
      </trkpt>
      <trkpt lat="42.90826" lon="0.14526">
        <ele>2171.6</ele>
        <time>2022-08-02T12:47:04Z</time>
      </trkpt>
      <trkpt lat="42.90826" lon="0.14526">
        <ele>2171.6</ele>
        <time>2022-08-02T12:47:10Z</time>
      </trkpt>
      <trkpt lat="42.90826" lon="0.14526">
        <ele>2171.6</ele>
        <time>2022-08-02T12:47:16Z</time>
      </trkpt>
      <trkpt lat="42.90826" lon="0.14526">
        <ele>2171.6</ele>
        <time>2022-08-02T12:47:22Z</time>
      </trkpt>
      <trkpt lat="42.90826" lon="0.14526">
        <ele>2171.6</ele>
        <time>2022-08-02T12:47:27Z</time>
      </trkpt>
      <trkpt lat="42.90826" lon="0.14526">
        <ele>2171.6</ele>
        <time>2022-08-02T12:47:32Z</time>
      </trkpt>
      <trkpt lat="42.90826" lon="0.14526">
        <ele>2171.6</ele>
        <time>2022-08-02T12:47:38Z</time>
      </trkpt>
      <trkpt lat="42.90826" lon="0.14526">
        <ele>2171.6</ele>
        <time>2022-08-02T12:47:44Z</time>
      </trkpt>
      <trkpt lat="42.90826" lon="0.14526">
        <ele>2171.6</ele>
        <time>2022-08-02T12:47:49Z</time>
      </trkpt>
      <trkpt lat="42.90826" lon="0.14526">
        <ele>2171.6</ele>
        <time>2022-08-02T12:47:54Z</time>
      </trkpt>
      <trkpt lat="42.90826" lon="0.14526">
        <ele>2171.6</ele>
        <time>2022-08-02T12:48:00Z</time>
      </trkpt>
      <trkpt lat="42.90826" lon="0.14526">
        <ele>2171.6</ele>
        <time>2022-08-02T12:48:05Z</time>
      </trkpt>
      <trkpt lat="42.90826" lon="0.14526">
        <ele>2171.6</ele>
        <time>2022-08-02T12:48:10Z</time>
      </trkpt>
      <trkpt lat="42.90826" lon="0.14526">
        <ele>2171.6</ele>
        <time>2022-08-02T12:48:16Z</time>
      </trkpt>
      <trkpt lat="42.90826" lon="0.14526">
        <ele>2171.6</ele>
        <time>2022-08-02T12:48:21Z</time>
      </trkpt>
      <trkpt lat="42.90826" lon="0.14526">
        <ele>2171.6</ele>
        <time>2022-08-02T12:48:27Z</time>
      </trkpt>
      <trkpt lat="42.90826" lon="0.14526">
        <ele>2171.6</ele>
        <time>2022-08-02T12:48:33Z</time>
      </trkpt>
      <trkpt lat="42.90826" lon="0.14526">
        <ele>2171.6</ele>
        <time>2022-08-02T12:48:38Z</time>
      </trkpt>
      <trkpt lat="42.90826" lon="0.14526">
        <ele>2171.6</ele>
        <time>2022-08-02T12:48:44Z</time>
      </trkpt>
      <trkpt lat="42.90826" lon="0.14526">
        <ele>2171.6</ele>
        <time>2022-08-02T12:48:49Z</time>
      </trkpt>
      <trkpt lat="42.90826" lon="0.14526">
        <ele>2171.6</ele>
        <time>2022-08-02T12:48:55Z</time>
      </trkpt>
      <trkpt lat="42.90826" lon="0.14526">
        <ele>2171.6</ele>
        <time>2022-08-02T12:49:01Z</time>
      </trkpt>
      <trkpt lat="42.90826" lon="0.14526">
        <ele>2171.6</ele>
        <time>2022-08-02T12:49:06Z</time>
      </trkpt>
      <trkpt lat="42.90826" lon="0.14526">
        <ele>2171.6</ele>
        <time>2022-08-02T12:49:12Z</time>
      </trkpt>
      <trkpt lat="42.90826" lon="0.14526">
        <ele>2171.6</ele>
        <time>2022-08-02T12:49:17Z</time>
      </trkpt>
      <trkpt lat="42.90826" lon="0.14526">
        <ele>2171.6</ele>
        <time>2022-08-02T12:49:23Z</time>
      </trkpt>
      <trkpt lat="42.90826" lon="0.14526">
        <ele>2171.6</ele>
        <time>2022-08-02T12:49:28Z</time>
      </trkpt>
      <trkpt lat="42.90826" lon="0.14526">
        <ele>2171.6</ele>
        <time>2022-08-02T12:49:33Z</time>
      </trkpt>
      <trkpt lat="42.90826" lon="0.14526">
        <ele>2171.6</ele>
        <time>2022-08-02T12:49:39Z</time>
      </trkpt>
      <trkpt lat="42.90826" lon="0.14526">
        <ele>2171.7</ele>
        <time>2022-08-02T12:49:45Z</time>
      </trkpt>
      <trkpt lat="42.90826" lon="0.14526">
        <ele>2171.7</ele>
        <time>2022-08-02T12:49:50Z</time>
      </trkpt>
      <trkpt lat="42.90826" lon="0.14526">
        <ele>2171.7</ele>
        <time>2022-08-02T12:49:56Z</time>
      </trkpt>
      <trkpt lat="42.90826" lon="0.14526">
        <ele>2171.7</ele>
        <time>2022-08-02T12:50:01Z</time>
      </trkpt>
      <trkpt lat="42.90826" lon="0.14526">
        <ele>2171.7</ele>
        <time>2022-08-02T12:50:07Z</time>
      </trkpt>
      <trkpt lat="42.90826" lon="0.14526">
        <ele>2171.7</ele>
        <time>2022-08-02T12:50:12Z</time>
      </trkpt>
      <trkpt lat="42.90826" lon="0.14526">
        <ele>2173.6</ele>
        <time>2022-08-02T12:50:18Z</time>
      </trkpt>
      <trkpt lat="42.90826" lon="0.14526">
        <ele>2172.7</ele>
        <time>2022-08-02T12:50:24Z</time>
      </trkpt>
      <trkpt lat="42.90825" lon="0.14527">
        <ele>2172.7</ele>
        <time>2022-08-02T12:50:29Z</time>
      </trkpt>
      <trkpt lat="42.90825" lon="0.14527">
        <ele>2173.3</ele>
        <time>2022-08-02T12:50:34Z</time>
      </trkpt>
      <trkpt lat="42.90825" lon="0.14527">
        <ele>2173.3</ele>
        <time>2022-08-02T12:50:40Z</time>
      </trkpt>
      <trkpt lat="42.90825" lon="0.14527">
        <ele>2173.5</ele>
        <time>2022-08-02T12:50:45Z</time>
      </trkpt>
      <trkpt lat="42.90825" lon="0.14527">
        <ele>2173.5</ele>
        <time>2022-08-02T12:50:51Z</time>
      </trkpt>
      <trkpt lat="42.90825" lon="0.14527">
        <ele>2173.5</ele>
        <time>2022-08-02T12:50:56Z</time>
      </trkpt>
      <trkpt lat="42.90825" lon="0.14527">
        <ele>2173.5</ele>
        <time>2022-08-02T12:51:02Z</time>
      </trkpt>
      <trkpt lat="42.90825" lon="0.14527">
        <ele>2173.5</ele>
        <time>2022-08-02T12:51:08Z</time>
      </trkpt>
      <trkpt lat="42.90825" lon="0.14527">
        <ele>2173.5</ele>
        <time>2022-08-02T12:51:14Z</time>
      </trkpt>
      <trkpt lat="42.90825" lon="0.14527">
        <ele>2173.5</ele>
        <time>2022-08-02T12:51:20Z</time>
      </trkpt>
      <trkpt lat="42.90825" lon="0.14527">
        <ele>2173.5</ele>
        <time>2022-08-02T12:51:26Z</time>
      </trkpt>
      <trkpt lat="42.90825" lon="0.14526">
        <ele>2173.8</ele>
        <time>2022-08-02T12:51:31Z</time>
      </trkpt>
      <trkpt lat="42.90825" lon="0.14526">
        <ele>2173.8</ele>
        <time>2022-08-02T12:51:36Z</time>
      </trkpt>
      <trkpt lat="42.90825" lon="0.14526">
        <ele>2173.8</ele>
        <time>2022-08-02T12:51:41Z</time>
      </trkpt>
      <trkpt lat="42.90825" lon="0.14526">
        <ele>2173.8</ele>
        <time>2022-08-02T12:51:47Z</time>
      </trkpt>
      <trkpt lat="42.90825" lon="0.14526">
        <ele>2173.8</ele>
        <time>2022-08-02T12:51:52Z</time>
      </trkpt>
      <trkpt lat="42.90825" lon="0.14526">
        <ele>2173.8</ele>
        <time>2022-08-02T12:51:58Z</time>
      </trkpt>
      <trkpt lat="42.90825" lon="0.14526">
        <ele>2173.8</ele>
        <time>2022-08-02T12:52:04Z</time>
      </trkpt>
      <trkpt lat="42.90825" lon="0.14526">
        <ele>2173.8</ele>
        <time>2022-08-02T12:52:09Z</time>
      </trkpt>
      <trkpt lat="42.90825" lon="0.14526">
        <ele>2173.8</ele>
        <time>2022-08-02T12:52:14Z</time>
      </trkpt>
      <trkpt lat="42.90825" lon="0.14526">
        <ele>2173.8</ele>
        <time>2022-08-02T12:52:20Z</time>
      </trkpt>
      <trkpt lat="42.90825" lon="0.14526">
        <ele>2173.8</ele>
        <time>2022-08-02T12:52:25Z</time>
      </trkpt>
      <trkpt lat="42.90825" lon="0.14526">
        <ele>2173.8</ele>
        <time>2022-08-02T12:52:31Z</time>
      </trkpt>
      <trkpt lat="42.90825" lon="0.14526">
        <ele>2173.8</ele>
        <time>2022-08-02T12:52:36Z</time>
      </trkpt>
      <trkpt lat="42.90825" lon="0.14526">
        <ele>2173.8</ele>
        <time>2022-08-02T12:52:41Z</time>
      </trkpt>
      <trkpt lat="42.90825" lon="0.14526">
        <ele>2173.8</ele>
        <time>2022-08-02T12:52:46Z</time>
      </trkpt>
      <trkpt lat="42.90825" lon="0.14526">
        <ele>2173.8</ele>
        <time>2022-08-02T12:52:52Z</time>
      </trkpt>
      <trkpt lat="42.90825" lon="0.14527">
        <ele>2173.7</ele>
        <time>2022-08-02T12:52:57Z</time>
      </trkpt>
      <trkpt lat="42.90825" lon="0.14527">
        <ele>2173.7</ele>
        <time>2022-08-02T12:53:02Z</time>
      </trkpt>
      <trkpt lat="42.90825" lon="0.14527">
        <ele>2173.7</ele>
        <time>2022-08-02T12:53:08Z</time>
      </trkpt>
      <trkpt lat="42.90825" lon="0.14527">
        <ele>2173.7</ele>
        <time>2022-08-02T12:53:14Z</time>
      </trkpt>
      <trkpt lat="42.90825" lon="0.14527">
        <ele>2173.7</ele>
        <time>2022-08-02T12:53:20Z</time>
      </trkpt>
      <trkpt lat="42.90825" lon="0.14527">
        <ele>2173.7</ele>
        <time>2022-08-02T12:53:26Z</time>
      </trkpt>
      <trkpt lat="42.90825" lon="0.14527">
        <ele>2173.7</ele>
        <time>2022-08-02T12:53:31Z</time>
      </trkpt>
      <trkpt lat="42.90825" lon="0.14527">
        <ele>2173.5</ele>
        <time>2022-08-02T12:53:37Z</time>
      </trkpt>
      <trkpt lat="42.90825" lon="0.14528">
        <ele>2173.6</ele>
        <time>2022-08-02T12:53:43Z</time>
      </trkpt>
      <trkpt lat="42.90826" lon="0.14529">
        <ele>2173.6</ele>
        <time>2022-08-02T12:53:48Z</time>
      </trkpt>
      <trkpt lat="42.90826" lon="0.14529">
        <ele>2173.5</ele>
        <time>2022-08-02T12:53:54Z</time>
      </trkpt>
      <trkpt lat="42.90826" lon="0.14528">
        <ele>2173.9</ele>
        <time>2022-08-02T12:54:00Z</time>
      </trkpt>
      <trkpt lat="42.90826" lon="0.14527">
        <ele>2173.9</ele>
        <time>2022-08-02T12:54:05Z</time>
      </trkpt>
      <trkpt lat="42.90826" lon="0.14526">
        <ele>2173.9</ele>
        <time>2022-08-02T12:54:10Z</time>
      </trkpt>
      <trkpt lat="42.90826" lon="0.14526">
        <ele>2173.9</ele>
        <time>2022-08-02T12:54:16Z</time>
      </trkpt>
      <trkpt lat="42.90826" lon="0.14527">
        <ele>2173.9</ele>
        <time>2022-08-02T12:54:21Z</time>
      </trkpt>
      <trkpt lat="42.90826" lon="0.14527">
        <ele>2173.9</ele>
        <time>2022-08-02T12:54:26Z</time>
      </trkpt>
      <trkpt lat="42.90826" lon="0.14527">
        <ele>2173.9</ele>
        <time>2022-08-02T12:54:32Z</time>
      </trkpt>
      <trkpt lat="42.90825" lon="0.14527">
        <ele>2173.7</ele>
        <time>2022-08-02T12:54:38Z</time>
      </trkpt>
      <trkpt lat="42.90825" lon="0.14527">
        <ele>2173.7</ele>
        <time>2022-08-02T12:54:43Z</time>
      </trkpt>
      <trkpt lat="42.90825" lon="0.14527">
        <ele>2173.7</ele>
        <time>2022-08-02T12:54:49Z</time>
      </trkpt>
      <trkpt lat="42.90825" lon="0.14527">
        <ele>2173.7</ele>
        <time>2022-08-02T12:54:54Z</time>
      </trkpt>
      <trkpt lat="42.90825" lon="0.14527">
        <ele>2173.5</ele>
        <time>2022-08-02T12:54:59Z</time>
      </trkpt>
      <trkpt lat="42.90825" lon="0.14527">
        <ele>2173.5</ele>
        <time>2022-08-02T12:55:04Z</time>
      </trkpt>
      <trkpt lat="42.90825" lon="0.14527">
        <ele>2173.5</ele>
        <time>2022-08-02T12:55:10Z</time>
      </trkpt>
      <trkpt lat="42.90825" lon="0.14527">
        <ele>2173.5</ele>
        <time>2022-08-02T12:55:15Z</time>
      </trkpt>
      <trkpt lat="42.90825" lon="0.14527">
        <ele>2173.5</ele>
        <time>2022-08-02T12:55:21Z</time>
      </trkpt>
      <trkpt lat="42.90825" lon="0.14527">
        <ele>2173.5</ele>
        <time>2022-08-02T12:55:26Z</time>
      </trkpt>
      <trkpt lat="42.90825" lon="0.14527">
        <ele>2173.6</ele>
        <time>2022-08-02T12:55:31Z</time>
      </trkpt>
      <trkpt lat="42.90825" lon="0.14527">
        <ele>2173.6</ele>
        <time>2022-08-02T12:55:36Z</time>
      </trkpt>
      <trkpt lat="42.90825" lon="0.14527">
        <ele>2173.6</ele>
        <time>2022-08-02T12:55:41Z</time>
      </trkpt>
      <trkpt lat="42.90825" lon="0.14527">
        <ele>2173.6</ele>
        <time>2022-08-02T12:55:47Z</time>
      </trkpt>
      <trkpt lat="42.90825" lon="0.14527">
        <ele>2173.6</ele>
        <time>2022-08-02T12:55:53Z</time>
      </trkpt>
      <trkpt lat="42.90825" lon="0.14527">
        <ele>2173.6</ele>
        <time>2022-08-02T12:55:59Z</time>
      </trkpt>
      <trkpt lat="42.90825" lon="0.14527">
        <ele>2173.6</ele>
        <time>2022-08-02T12:56:04Z</time>
      </trkpt>
      <trkpt lat="42.90826" lon="0.14527">
        <ele>2173.1</ele>
        <time>2022-08-02T12:56:10Z</time>
      </trkpt>
      <trkpt lat="42.90826" lon="0.14526">
        <ele>2173.2</ele>
        <time>2022-08-02T12:56:16Z</time>
      </trkpt>
      <trkpt lat="42.90825" lon="0.14525">
        <ele>2174</ele>
        <time>2022-08-02T12:56:22Z</time>
      </trkpt>
      <trkpt lat="42.90825" lon="0.14525">
        <ele>2174</ele>
        <time>2022-08-02T12:56:27Z</time>
      </trkpt>
      <trkpt lat="42.90825" lon="0.14525">
        <ele>2174</ele>
        <time>2022-08-02T12:56:33Z</time>
      </trkpt>
      <trkpt lat="42.90825" lon="0.14525">
        <ele>2174</ele>
        <time>2022-08-02T12:56:38Z</time>
      </trkpt>
      <trkpt lat="42.90825" lon="0.14525">
        <ele>2174</ele>
        <time>2022-08-02T12:56:43Z</time>
      </trkpt>
      <trkpt lat="42.90825" lon="0.14525">
        <ele>2174</ele>
        <time>2022-08-02T12:56:49Z</time>
      </trkpt>
      <trkpt lat="42.90825" lon="0.14525">
        <ele>2174</ele>
        <time>2022-08-02T12:56:54Z</time>
      </trkpt>
      <trkpt lat="42.90825" lon="0.14525">
        <ele>2174</ele>
        <time>2022-08-02T12:56:59Z</time>
      </trkpt>
      <trkpt lat="42.90825" lon="0.14525">
        <ele>2174</ele>
        <time>2022-08-02T12:57:04Z</time>
      </trkpt>
      <trkpt lat="42.90825" lon="0.14525">
        <ele>2174</ele>
        <time>2022-08-02T12:57:10Z</time>
      </trkpt>
      <trkpt lat="42.90825" lon="0.14525">
        <ele>2174</ele>
        <time>2022-08-02T12:57:16Z</time>
      </trkpt>
      <trkpt lat="42.90825" lon="0.14525">
        <ele>2174</ele>
        <time>2022-08-02T12:57:22Z</time>
      </trkpt>
      <trkpt lat="42.90825" lon="0.14527">
        <ele>2174</ele>
        <time>2022-08-02T12:57:28Z</time>
      </trkpt>
      <trkpt lat="42.90825" lon="0.14527">
        <ele>2174</ele>
        <time>2022-08-02T12:57:33Z</time>
      </trkpt>
      <trkpt lat="42.90825" lon="0.14527">
        <ele>2174</ele>
        <time>2022-08-02T12:57:39Z</time>
      </trkpt>
      <trkpt lat="42.90825" lon="0.14527">
        <ele>2173.1</ele>
        <time>2022-08-02T12:57:44Z</time>
      </trkpt>
      <trkpt lat="42.90825" lon="0.14528">
        <ele>2172.4</ele>
        <time>2022-08-02T12:57:50Z</time>
      </trkpt>
      <trkpt lat="42.90825" lon="0.14528">
        <ele>2172.3</ele>
        <time>2022-08-02T12:57:56Z</time>
      </trkpt>
      <trkpt lat="42.90825" lon="0.14528">
        <ele>2172.2</ele>
        <time>2022-08-02T12:58:01Z</time>
      </trkpt>
      <trkpt lat="42.90825" lon="0.14528">
        <ele>2172.2</ele>
        <time>2022-08-02T12:58:07Z</time>
      </trkpt>
      <trkpt lat="42.90825" lon="0.14528">
        <ele>2172.2</ele>
        <time>2022-08-02T12:58:13Z</time>
      </trkpt>
      <trkpt lat="42.90825" lon="0.14528">
        <ele>2172.2</ele>
        <time>2022-08-02T12:58:18Z</time>
      </trkpt>
      <trkpt lat="42.90825" lon="0.14528">
        <ele>2172.6</ele>
        <time>2022-08-02T12:58:23Z</time>
      </trkpt>
      <trkpt lat="42.90825" lon="0.14528">
        <ele>2172.6</ele>
        <time>2022-08-02T12:58:28Z</time>
      </trkpt>
      <trkpt lat="42.90825" lon="0.14528">
        <ele>2172.6</ele>
        <time>2022-08-02T12:58:34Z</time>
      </trkpt>
      <trkpt lat="42.90825" lon="0.14528">
        <ele>2172.6</ele>
        <time>2022-08-02T12:58:40Z</time>
      </trkpt>
      <trkpt lat="42.90825" lon="0.14528">
        <ele>2172.6</ele>
        <time>2022-08-02T12:58:45Z</time>
      </trkpt>
      <trkpt lat="42.90825" lon="0.14528">
        <ele>2172.6</ele>
        <time>2022-08-02T12:58:50Z</time>
      </trkpt>
      <trkpt lat="42.90825" lon="0.14528">
        <ele>2172.6</ele>
        <time>2022-08-02T12:58:56Z</time>
      </trkpt>
      <trkpt lat="42.90825" lon="0.14528">
        <ele>2172.6</ele>
        <time>2022-08-02T12:59:02Z</time>
      </trkpt>
      <trkpt lat="42.90825" lon="0.14528">
        <ele>2172.6</ele>
        <time>2022-08-02T12:59:08Z</time>
      </trkpt>
      <trkpt lat="42.90825" lon="0.14528">
        <ele>2172.6</ele>
        <time>2022-08-02T12:59:13Z</time>
      </trkpt>
      <trkpt lat="42.90825" lon="0.14528">
        <ele>2172.6</ele>
        <time>2022-08-02T12:59:18Z</time>
      </trkpt>
      <trkpt lat="42.90825" lon="0.14528">
        <ele>2172.6</ele>
        <time>2022-08-02T12:59:24Z</time>
      </trkpt>
      <trkpt lat="42.90825" lon="0.14528">
        <ele>2172.6</ele>
        <time>2022-08-02T12:59:29Z</time>
      </trkpt>
      <trkpt lat="42.90825" lon="0.14528">
        <ele>2172.6</ele>
        <time>2022-08-02T12:59:35Z</time>
      </trkpt>
      <trkpt lat="42.90825" lon="0.14528">
        <ele>2172.6</ele>
        <time>2022-08-02T12:59:40Z</time>
      </trkpt>
      <trkpt lat="42.90825" lon="0.14528">
        <ele>2172.6</ele>
        <time>2022-08-02T12:59:45Z</time>
      </trkpt>
      <trkpt lat="42.90825" lon="0.14528">
        <ele>2172.6</ele>
        <time>2022-08-02T12:59:50Z</time>
      </trkpt>
      <trkpt lat="42.90825" lon="0.14528">
        <ele>2172.6</ele>
        <time>2022-08-02T12:59:56Z</time>
      </trkpt>
      <trkpt lat="42.90825" lon="0.14528">
        <ele>2172.6</ele>
        <time>2022-08-02T13:00:02Z</time>
      </trkpt>
      <trkpt lat="42.90825" lon="0.14528">
        <ele>2172.6</ele>
        <time>2022-08-02T13:00:08Z</time>
      </trkpt>
      <trkpt lat="42.90825" lon="0.14528">
        <ele>2172.6</ele>
        <time>2022-08-02T13:00:13Z</time>
      </trkpt>
      <trkpt lat="42.90825" lon="0.14528">
        <ele>2172.6</ele>
        <time>2022-08-02T13:00:19Z</time>
      </trkpt>
      <trkpt lat="42.90825" lon="0.14528">
        <ele>2172.6</ele>
        <time>2022-08-02T13:00:25Z</time>
      </trkpt>
      <trkpt lat="42.90825" lon="0.14528">
        <ele>2172.6</ele>
        <time>2022-08-02T13:00:30Z</time>
      </trkpt>
      <trkpt lat="42.90825" lon="0.14528">
        <ele>2172.6</ele>
        <time>2022-08-02T13:00:36Z</time>
      </trkpt>
      <trkpt lat="42.90825" lon="0.14528">
        <ele>2172.6</ele>
        <time>2022-08-02T13:00:41Z</time>
      </trkpt>
      <trkpt lat="42.90825" lon="0.14528">
        <ele>2172.6</ele>
        <time>2022-08-02T13:00:47Z</time>
      </trkpt>
      <trkpt lat="42.90825" lon="0.14528">
        <ele>2172.6</ele>
        <time>2022-08-02T13:00:53Z</time>
      </trkpt>
      <trkpt lat="42.90825" lon="0.14528">
        <ele>2172.7</ele>
        <time>2022-08-02T13:00:58Z</time>
      </trkpt>
      <trkpt lat="42.90825" lon="0.14528">
        <ele>2172.7</ele>
        <time>2022-08-02T13:01:04Z</time>
      </trkpt>
      <trkpt lat="42.90825" lon="0.14528">
        <ele>2172.7</ele>
        <time>2022-08-02T13:01:09Z</time>
      </trkpt>
      <trkpt lat="42.90825" lon="0.14528">
        <ele>2172.7</ele>
        <time>2022-08-02T13:01:15Z</time>
      </trkpt>
      <trkpt lat="42.90825" lon="0.14528">
        <ele>2172.7</ele>
        <time>2022-08-02T13:01:20Z</time>
      </trkpt>
      <trkpt lat="42.90825" lon="0.14528">
        <ele>2172.7</ele>
        <time>2022-08-02T13:01:26Z</time>
      </trkpt>
      <trkpt lat="42.90825" lon="0.14528">
        <ele>2172.7</ele>
        <time>2022-08-02T13:01:31Z</time>
      </trkpt>
      <trkpt lat="42.90825" lon="0.14528">
        <ele>2172.7</ele>
        <time>2022-08-02T13:01:37Z</time>
      </trkpt>
      <trkpt lat="42.90825" lon="0.14528">
        <ele>2172.7</ele>
        <time>2022-08-02T13:01:42Z</time>
      </trkpt>
      <trkpt lat="42.90825" lon="0.14528">
        <ele>2172.7</ele>
        <time>2022-08-02T13:01:48Z</time>
      </trkpt>
      <trkpt lat="42.90825" lon="0.14528">
        <ele>2172.7</ele>
        <time>2022-08-02T13:01:54Z</time>
      </trkpt>
      <trkpt lat="42.90825" lon="0.14528">
        <ele>2172.7</ele>
        <time>2022-08-02T13:01:59Z</time>
      </trkpt>
      <trkpt lat="42.90825" lon="0.14528">
        <ele>2172.7</ele>
        <time>2022-08-02T13:02:04Z</time>
      </trkpt>
      <trkpt lat="42.90825" lon="0.14528">
        <ele>2172.7</ele>
        <time>2022-08-02T13:02:10Z</time>
      </trkpt>
      <trkpt lat="42.90825" lon="0.14528">
        <ele>2172.7</ele>
        <time>2022-08-02T13:02:15Z</time>
      </trkpt>
      <trkpt lat="42.90825" lon="0.14528">
        <ele>2172.7</ele>
        <time>2022-08-02T13:02:20Z</time>
      </trkpt>
      <trkpt lat="42.90825" lon="0.14528">
        <ele>2172.7</ele>
        <time>2022-08-02T13:02:26Z</time>
      </trkpt>
      <trkpt lat="42.90825" lon="0.14528">
        <ele>2172.7</ele>
        <time>2022-08-02T13:02:32Z</time>
      </trkpt>
      <trkpt lat="42.90825" lon="0.14528">
        <ele>2172.7</ele>
        <time>2022-08-02T13:02:38Z</time>
      </trkpt>
      <trkpt lat="42.90825" lon="0.14528">
        <ele>2172.7</ele>
        <time>2022-08-02T13:02:44Z</time>
      </trkpt>
      <trkpt lat="42.90825" lon="0.14528">
        <ele>2172.7</ele>
        <time>2022-08-02T13:02:49Z</time>
      </trkpt>
      <trkpt lat="42.90825" lon="0.14528">
        <ele>2172.7</ele>
        <time>2022-08-02T13:02:55Z</time>
      </trkpt>
      <trkpt lat="42.90825" lon="0.14528">
        <ele>2172.7</ele>
        <time>2022-08-02T13:03:00Z</time>
      </trkpt>
      <trkpt lat="42.90825" lon="0.14528">
        <ele>2172.7</ele>
        <time>2022-08-02T13:03:05Z</time>
      </trkpt>
      <trkpt lat="42.90825" lon="0.14528">
        <ele>2172.7</ele>
        <time>2022-08-02T13:03:11Z</time>
      </trkpt>
      <trkpt lat="42.90825" lon="0.14528">
        <ele>2172.7</ele>
        <time>2022-08-02T13:03:17Z</time>
      </trkpt>
      <trkpt lat="42.90825" lon="0.14528">
        <ele>2172.7</ele>
        <time>2022-08-02T13:03:23Z</time>
      </trkpt>
      <trkpt lat="42.90825" lon="0.14528">
        <ele>2172.7</ele>
        <time>2022-08-02T13:03:28Z</time>
      </trkpt>
      <trkpt lat="42.90825" lon="0.14528">
        <ele>2172.7</ele>
        <time>2022-08-02T13:03:33Z</time>
      </trkpt>
      <trkpt lat="42.90825" lon="0.14528">
        <ele>2172.7</ele>
        <time>2022-08-02T13:03:38Z</time>
      </trkpt>
      <trkpt lat="42.90825" lon="0.14528">
        <ele>2172.7</ele>
        <time>2022-08-02T13:03:44Z</time>
      </trkpt>
      <trkpt lat="42.90825" lon="0.14528">
        <ele>2172.7</ele>
        <time>2022-08-02T13:03:50Z</time>
      </trkpt>
      <trkpt lat="42.90825" lon="0.14528">
        <ele>2172.6</ele>
        <time>2022-08-02T13:03:56Z</time>
      </trkpt>
      <trkpt lat="42.90825" lon="0.14528">
        <ele>2172.6</ele>
        <time>2022-08-02T13:04:01Z</time>
      </trkpt>
      <trkpt lat="42.90825" lon="0.14528">
        <ele>2172.6</ele>
        <time>2022-08-02T13:04:07Z</time>
      </trkpt>
      <trkpt lat="42.90825" lon="0.14528">
        <ele>2172.6</ele>
        <time>2022-08-02T13:04:13Z</time>
      </trkpt>
      <trkpt lat="42.90825" lon="0.14528">
        <ele>2172.6</ele>
        <time>2022-08-02T13:04:18Z</time>
      </trkpt>
      <trkpt lat="42.90825" lon="0.14528">
        <ele>2172.6</ele>
        <time>2022-08-02T13:04:24Z</time>
      </trkpt>
      <trkpt lat="42.90825" lon="0.14528">
        <ele>2172.6</ele>
        <time>2022-08-02T13:04:29Z</time>
      </trkpt>
      <trkpt lat="42.90825" lon="0.14528">
        <ele>2172.6</ele>
        <time>2022-08-02T13:04:35Z</time>
      </trkpt>
      <trkpt lat="42.90825" lon="0.14528">
        <ele>2172.6</ele>
        <time>2022-08-02T13:04:40Z</time>
      </trkpt>
      <trkpt lat="42.90825" lon="0.14529">
        <ele>2172.9</ele>
        <time>2022-08-02T13:04:46Z</time>
      </trkpt>
      <trkpt lat="42.90827" lon="0.14532">
        <ele>2173.3</ele>
        <time>2022-08-02T13:04:51Z</time>
      </trkpt>
      <trkpt lat="42.90828" lon="0.14534">
        <ele>2172.9</ele>
        <time>2022-08-02T13:04:56Z</time>
      </trkpt>
      <trkpt lat="42.90831" lon="0.14538">
        <ele>2172</ele>
        <time>2022-08-02T13:05:02Z</time>
      </trkpt>
      <trkpt lat="42.90832" lon="0.14538">
        <ele>2171.5</ele>
        <time>2022-08-02T13:05:08Z</time>
      </trkpt>
      <trkpt lat="42.90833" lon="0.14539">
        <ele>2172.1</ele>
        <time>2022-08-02T13:05:13Z</time>
      </trkpt>
      <trkpt lat="42.90836" lon="0.14536">
        <ele>2174.3</ele>
        <time>2022-08-02T13:05:19Z</time>
      </trkpt>
      <trkpt lat="42.90834" lon="0.14531">
        <ele>2174.8</ele>
        <time>2022-08-02T13:05:25Z</time>
      </trkpt>
      <trkpt lat="42.90832" lon="0.14523">
        <ele>2174.8</ele>
        <time>2022-08-02T13:05:30Z</time>
      </trkpt>
      <trkpt lat="42.90835" lon="0.14517">
        <ele>2173.8</ele>
        <time>2022-08-02T13:05:35Z</time>
      </trkpt>
      <trkpt lat="42.90836" lon="0.14512">
        <ele>2173</ele>
        <time>2022-08-02T13:05:40Z</time>
      </trkpt>
      <trkpt lat="42.90833" lon="0.1451">
        <ele>2172.8</ele>
        <time>2022-08-02T13:05:46Z</time>
      </trkpt>
      <trkpt lat="42.9083" lon="0.14507">
        <ele>2173.4</ele>
        <time>2022-08-02T13:05:52Z</time>
      </trkpt>
      <trkpt lat="42.90826" lon="0.14507">
        <ele>2171.6</ele>
        <time>2022-08-02T13:05:57Z</time>
      </trkpt>
      <trkpt lat="42.90823" lon="0.14507">
        <ele>2174.3</ele>
        <time>2022-08-02T13:06:03Z</time>
      </trkpt>
      <trkpt lat="42.9082" lon="0.14505">
        <ele>2175.2</ele>
        <time>2022-08-02T13:06:08Z</time>
      </trkpt>
      <trkpt lat="42.90819" lon="0.14508">
        <ele>2173.5</ele>
        <time>2022-08-02T13:06:13Z</time>
      </trkpt>
      <trkpt lat="42.90816" lon="0.14506">
        <ele>2172.5</ele>
        <time>2022-08-02T13:06:19Z</time>
      </trkpt>
      <trkpt lat="42.90816" lon="0.14503">
        <ele>2171.1</ele>
        <time>2022-08-02T13:06:25Z</time>
      </trkpt>
      <trkpt lat="42.90815" lon="0.14505">
        <ele>2173.3</ele>
        <time>2022-08-02T13:06:30Z</time>
      </trkpt>
      <trkpt lat="42.90814" lon="0.14506">
        <ele>2172.9</ele>
        <time>2022-08-02T13:06:35Z</time>
      </trkpt>
      <trkpt lat="42.90812" lon="0.1451">
        <ele>2172.8</ele>
        <time>2022-08-02T13:06:41Z</time>
      </trkpt>
      <trkpt lat="42.90811" lon="0.14511">
        <ele>2172.6</ele>
        <time>2022-08-02T13:06:46Z</time>
      </trkpt>
      <trkpt lat="42.90815" lon="0.14517">
        <ele>2172.2</ele>
        <time>2022-08-02T13:06:52Z</time>
      </trkpt>
      <trkpt lat="42.90827" lon="0.14525">
        <ele>2170.4</ele>
        <time>2022-08-02T13:06:58Z</time>
      </trkpt>
      <trkpt lat="42.90833" lon="0.14527">
        <ele>2173.8</ele>
        <time>2022-08-02T13:07:04Z</time>
      </trkpt>
      <trkpt lat="42.90836" lon="0.14531">
        <ele>2173.9</ele>
        <time>2022-08-02T13:07:10Z</time>
      </trkpt>
      <trkpt lat="42.90832" lon="0.14529">
        <ele>2173.7</ele>
        <time>2022-08-02T13:07:16Z</time>
      </trkpt>
      <trkpt lat="42.90832" lon="0.14531">
        <ele>2174.3</ele>
        <time>2022-08-02T13:07:21Z</time>
      </trkpt>
      <trkpt lat="42.90828" lon="0.14529">
        <ele>2174.3</ele>
        <time>2022-08-02T13:07:27Z</time>
      </trkpt>
      <trkpt lat="42.90827" lon="0.1453">
        <ele>2175.3</ele>
        <time>2022-08-02T13:07:33Z</time>
      </trkpt>
      <trkpt lat="42.90825" lon="0.14531">
        <ele>2176.3</ele>
        <time>2022-08-02T13:07:38Z</time>
      </trkpt>
      <trkpt lat="42.90822" lon="0.14528">
        <ele>2175.5</ele>
        <time>2022-08-02T13:07:44Z</time>
      </trkpt>
      <trkpt lat="42.90823" lon="0.14527">
        <ele>2172.5</ele>
        <time>2022-08-02T13:07:49Z</time>
      </trkpt>
      <trkpt lat="42.90824" lon="0.14529">
        <ele>2172.5</ele>
        <time>2022-08-02T13:07:55Z</time>
      </trkpt>
      <trkpt lat="42.90824" lon="0.1453">
        <ele>2172.7</ele>
        <time>2022-08-02T13:08:00Z</time>
      </trkpt>
      <trkpt lat="42.90822" lon="0.14533">
        <ele>2172.9</ele>
        <time>2022-08-02T13:08:06Z</time>
      </trkpt>
      <trkpt lat="42.90822" lon="0.14533">
        <ele>2172.9</ele>
        <time>2022-08-02T13:08:11Z</time>
      </trkpt>
      <trkpt lat="42.9082" lon="0.14529">
        <ele>2172.6</ele>
        <time>2022-08-02T13:08:17Z</time>
      </trkpt>
      <trkpt lat="42.9082" lon="0.14529">
        <ele>2171.5</ele>
        <time>2022-08-02T13:08:23Z</time>
      </trkpt>
      <trkpt lat="42.9082" lon="0.14529">
        <ele>2171.5</ele>
        <time>2022-08-02T13:08:28Z</time>
      </trkpt>
      <trkpt lat="42.9082" lon="0.14529">
        <ele>2171.1</ele>
        <time>2022-08-02T13:08:33Z</time>
      </trkpt>
      <trkpt lat="42.90821" lon="0.14529">
        <ele>2171.3</ele>
        <time>2022-08-02T13:08:39Z</time>
      </trkpt>
      <trkpt lat="42.90822" lon="0.14529">
        <ele>2171.3</ele>
        <time>2022-08-02T13:08:45Z</time>
      </trkpt>
      <trkpt lat="42.90821" lon="0.14529">
        <ele>2171.4</ele>
        <time>2022-08-02T13:08:51Z</time>
      </trkpt>
      <trkpt lat="42.90821" lon="0.14529">
        <ele>2171.4</ele>
        <time>2022-08-02T13:08:56Z</time>
      </trkpt>
      <trkpt lat="42.90821" lon="0.14529">
        <ele>2171.4</ele>
        <time>2022-08-02T13:09:02Z</time>
      </trkpt>
      <trkpt lat="42.90821" lon="0.14529">
        <ele>2171.4</ele>
        <time>2022-08-02T13:09:08Z</time>
      </trkpt>
      <trkpt lat="42.90821" lon="0.14529">
        <ele>2171.4</ele>
        <time>2022-08-02T13:09:13Z</time>
      </trkpt>
      <trkpt lat="42.90822" lon="0.14529">
        <ele>2171.4</ele>
        <time>2022-08-02T13:09:18Z</time>
      </trkpt>
      <trkpt lat="42.90822" lon="0.14529">
        <ele>2171.4</ele>
        <time>2022-08-02T13:09:24Z</time>
      </trkpt>
      <trkpt lat="42.90822" lon="0.14529">
        <ele>2171.4</ele>
        <time>2022-08-02T13:09:29Z</time>
      </trkpt>
      <trkpt lat="42.90822" lon="0.14529">
        <ele>2171.4</ele>
        <time>2022-08-02T13:09:35Z</time>
      </trkpt>
      <trkpt lat="42.90822" lon="0.1453">
        <ele>2171.2</ele>
        <time>2022-08-02T13:09:41Z</time>
      </trkpt>
      <trkpt lat="42.90821" lon="0.14529">
        <ele>2170.7</ele>
        <time>2022-08-02T13:09:46Z</time>
      </trkpt>
      <trkpt lat="42.90821" lon="0.14529">
        <ele>2170.7</ele>
        <time>2022-08-02T13:09:51Z</time>
      </trkpt>
      <trkpt lat="42.90822" lon="0.14529">
        <ele>2170.2</ele>
        <time>2022-08-02T13:09:57Z</time>
      </trkpt>
      <trkpt lat="42.90822" lon="0.1453">
        <ele>2171.3</ele>
        <time>2022-08-02T13:10:03Z</time>
      </trkpt>
      <trkpt lat="42.90822" lon="0.14529">
        <ele>2171.7</ele>
        <time>2022-08-02T13:10:08Z</time>
      </trkpt>
      <trkpt lat="42.90822" lon="0.14529">
        <ele>2171.7</ele>
        <time>2022-08-02T13:10:14Z</time>
      </trkpt>
      <trkpt lat="42.90822" lon="0.14529">
        <ele>2171.7</ele>
        <time>2022-08-02T13:10:19Z</time>
      </trkpt>
      <trkpt lat="42.90822" lon="0.14529">
        <ele>2171.7</ele>
        <time>2022-08-02T13:10:24Z</time>
      </trkpt>
      <trkpt lat="42.90822" lon="0.14529">
        <ele>2171.7</ele>
        <time>2022-08-02T13:10:30Z</time>
      </trkpt>
      <trkpt lat="42.90822" lon="0.14529">
        <ele>2171.7</ele>
        <time>2022-08-02T13:10:35Z</time>
      </trkpt>
      <trkpt lat="42.90822" lon="0.14529">
        <ele>2171.7</ele>
        <time>2022-08-02T13:10:40Z</time>
      </trkpt>
      <trkpt lat="42.90822" lon="0.14529">
        <ele>2171.7</ele>
        <time>2022-08-02T13:10:46Z</time>
      </trkpt>
      <trkpt lat="42.90822" lon="0.14529">
        <ele>2171.5</ele>
        <time>2022-08-02T13:10:51Z</time>
      </trkpt>
      <trkpt lat="42.90822" lon="0.14529">
        <ele>2171.5</ele>
        <time>2022-08-02T13:10:57Z</time>
      </trkpt>
      <trkpt lat="42.90822" lon="0.14529">
        <ele>2171.5</ele>
        <time>2022-08-02T13:11:03Z</time>
      </trkpt>
      <trkpt lat="42.90822" lon="0.14529">
        <ele>2171.5</ele>
        <time>2022-08-02T13:11:09Z</time>
      </trkpt>
      <trkpt lat="42.90822" lon="0.14529">
        <ele>2171.5</ele>
        <time>2022-08-02T13:11:15Z</time>
      </trkpt>
      <trkpt lat="42.90822" lon="0.14529">
        <ele>2171.5</ele>
        <time>2022-08-02T13:11:20Z</time>
      </trkpt>
      <trkpt lat="42.90822" lon="0.14529">
        <ele>2170.8</ele>
        <time>2022-08-02T13:11:26Z</time>
      </trkpt>
      <trkpt lat="42.90822" lon="0.1453">
        <ele>2170.8</ele>
        <time>2022-08-02T13:11:32Z</time>
      </trkpt>
      <trkpt lat="42.90822" lon="0.1453">
        <ele>2170.6</ele>
        <time>2022-08-02T13:11:38Z</time>
      </trkpt>
      <trkpt lat="42.90822" lon="0.1453">
        <ele>2170.8</ele>
        <time>2022-08-02T13:11:43Z</time>
      </trkpt>
      <trkpt lat="42.90822" lon="0.1453">
        <ele>2171.7</ele>
        <time>2022-08-02T13:11:48Z</time>
      </trkpt>
      <trkpt lat="42.90822" lon="0.1453">
        <ele>2171.7</ele>
        <time>2022-08-02T13:11:53Z</time>
      </trkpt>
      <trkpt lat="42.90822" lon="0.1453">
        <ele>2171.7</ele>
        <time>2022-08-02T13:11:58Z</time>
      </trkpt>
      <trkpt lat="42.90822" lon="0.1453">
        <ele>2171.7</ele>
        <time>2022-08-02T13:12:04Z</time>
      </trkpt>
      <trkpt lat="42.90822" lon="0.1453">
        <ele>2171.7</ele>
        <time>2022-08-02T13:12:09Z</time>
      </trkpt>
      <trkpt lat="42.90822" lon="0.1453">
        <ele>2171.7</ele>
        <time>2022-08-02T13:12:15Z</time>
      </trkpt>
      <trkpt lat="42.90822" lon="0.1453">
        <ele>2171.7</ele>
        <time>2022-08-02T13:12:20Z</time>
      </trkpt>
      <trkpt lat="42.90822" lon="0.1453">
        <ele>2171.7</ele>
        <time>2022-08-02T13:12:26Z</time>
      </trkpt>
      <trkpt lat="42.90822" lon="0.1453">
        <ele>2171.7</ele>
        <time>2022-08-02T13:12:31Z</time>
      </trkpt>
      <trkpt lat="42.90822" lon="0.1453">
        <ele>2171.7</ele>
        <time>2022-08-02T13:12:36Z</time>
      </trkpt>
      <trkpt lat="42.90822" lon="0.1453">
        <ele>2171.7</ele>
        <time>2022-08-02T13:12:41Z</time>
      </trkpt>
      <trkpt lat="42.90822" lon="0.1453">
        <ele>2171.7</ele>
        <time>2022-08-02T13:12:46Z</time>
      </trkpt>
      <trkpt lat="42.90822" lon="0.1453">
        <ele>2171.7</ele>
        <time>2022-08-02T13:12:52Z</time>
      </trkpt>
      <trkpt lat="42.90822" lon="0.1453">
        <ele>2171.7</ele>
        <time>2022-08-02T13:12:58Z</time>
      </trkpt>
      <trkpt lat="42.90822" lon="0.1453">
        <ele>2171.7</ele>
        <time>2022-08-02T13:13:03Z</time>
      </trkpt>
      <trkpt lat="42.90822" lon="0.1453">
        <ele>2171.7</ele>
        <time>2022-08-02T13:13:09Z</time>
      </trkpt>
      <trkpt lat="42.90822" lon="0.1453">
        <ele>2171.7</ele>
        <time>2022-08-02T13:13:14Z</time>
      </trkpt>
      <trkpt lat="42.90822" lon="0.1453">
        <ele>2171.7</ele>
        <time>2022-08-02T13:13:20Z</time>
      </trkpt>
      <trkpt lat="42.90822" lon="0.1453">
        <ele>2171.7</ele>
        <time>2022-08-02T13:13:25Z</time>
      </trkpt>
      <trkpt lat="42.90822" lon="0.14529">
        <ele>2171.7</ele>
        <time>2022-08-02T13:13:30Z</time>
      </trkpt>
      <trkpt lat="42.90822" lon="0.14527">
        <ele>2171.8</ele>
        <time>2022-08-02T13:13:36Z</time>
      </trkpt>
      <trkpt lat="42.90819" lon="0.14525">
        <ele>2172.4</ele>
        <time>2022-08-02T13:13:41Z</time>
      </trkpt>
      <trkpt lat="42.9082" lon="0.14528">
        <ele>2174.3</ele>
        <time>2022-08-02T13:13:46Z</time>
      </trkpt>
      <trkpt lat="42.9082" lon="0.14528">
        <ele>2174.2</ele>
        <time>2022-08-02T13:13:52Z</time>
      </trkpt>
      <trkpt lat="42.90819" lon="0.14527">
        <ele>2174.2</ele>
        <time>2022-08-02T13:13:57Z</time>
      </trkpt>
      <trkpt lat="42.90819" lon="0.14525">
        <ele>2174</ele>
        <time>2022-08-02T13:14:03Z</time>
      </trkpt>
      <trkpt lat="42.90819" lon="0.14525">
        <ele>2174</ele>
        <time>2022-08-02T13:14:09Z</time>
      </trkpt>
      <trkpt lat="42.90819" lon="0.14525">
        <ele>2174</ele>
        <time>2022-08-02T13:14:15Z</time>
      </trkpt>
      <trkpt lat="42.90819" lon="0.14525">
        <ele>2174</ele>
        <time>2022-08-02T13:14:21Z</time>
      </trkpt>
      <trkpt lat="42.90819" lon="0.14525">
        <ele>2173.9</ele>
        <time>2022-08-02T13:14:26Z</time>
      </trkpt>
      <trkpt lat="42.9082" lon="0.14525">
        <ele>2175.9</ele>
        <time>2022-08-02T13:14:32Z</time>
      </trkpt>
      <trkpt lat="42.90822" lon="0.14527">
        <ele>2176.8</ele>
        <time>2022-08-02T13:14:38Z</time>
      </trkpt>
      <trkpt lat="42.90822" lon="0.14526">
        <ele>2176.8</ele>
        <time>2022-08-02T13:14:43Z</time>
      </trkpt>
      <trkpt lat="42.90821" lon="0.14527">
        <ele>2176.5</ele>
        <time>2022-08-02T13:14:49Z</time>
      </trkpt>
      <trkpt lat="42.90821" lon="0.14528">
        <ele>2176</ele>
        <time>2022-08-02T13:14:54Z</time>
      </trkpt>
      <trkpt lat="42.90821" lon="0.14528">
        <ele>2175.7</ele>
        <time>2022-08-02T13:14:59Z</time>
      </trkpt>
      <trkpt lat="42.90821" lon="0.14528">
        <ele>2175.7</ele>
        <time>2022-08-02T13:15:05Z</time>
      </trkpt>
      <trkpt lat="42.90821" lon="0.14528">
        <ele>2175.7</ele>
        <time>2022-08-02T13:15:11Z</time>
      </trkpt>
      <trkpt lat="42.90821" lon="0.14528">
        <ele>2175.7</ele>
        <time>2022-08-02T13:15:16Z</time>
      </trkpt>
      <trkpt lat="42.90821" lon="0.14528">
        <ele>2175.7</ele>
        <time>2022-08-02T13:15:22Z</time>
      </trkpt>
      <trkpt lat="42.90821" lon="0.14528">
        <ele>2175.7</ele>
        <time>2022-08-02T13:15:28Z</time>
      </trkpt>
      <trkpt lat="42.90821" lon="0.14528">
        <ele>2175.7</ele>
        <time>2022-08-02T13:15:34Z</time>
      </trkpt>
      <trkpt lat="42.90821" lon="0.14528">
        <ele>2175.7</ele>
        <time>2022-08-02T13:15:39Z</time>
      </trkpt>
      <trkpt lat="42.90821" lon="0.14528">
        <ele>2175.7</ele>
        <time>2022-08-02T13:15:45Z</time>
      </trkpt>
      <trkpt lat="42.90821" lon="0.14528">
        <ele>2175.7</ele>
        <time>2022-08-02T13:15:51Z</time>
      </trkpt>
      <trkpt lat="42.90821" lon="0.14528">
        <ele>2175.6</ele>
        <time>2022-08-02T13:15:56Z</time>
      </trkpt>
      <trkpt lat="42.90821" lon="0.14528">
        <ele>2175.6</ele>
        <time>2022-08-02T13:16:02Z</time>
      </trkpt>
      <trkpt lat="42.90821" lon="0.14528">
        <ele>2175.6</ele>
        <time>2022-08-02T13:16:08Z</time>
      </trkpt>
      <trkpt lat="42.90821" lon="0.14528">
        <ele>2175.6</ele>
        <time>2022-08-02T13:16:13Z</time>
      </trkpt>
      <trkpt lat="42.90821" lon="0.14528">
        <ele>2175.6</ele>
        <time>2022-08-02T13:16:19Z</time>
      </trkpt>
      <trkpt lat="42.90821" lon="0.14528">
        <ele>2175.6</ele>
        <time>2022-08-02T13:16:24Z</time>
      </trkpt>
      <trkpt lat="42.90821" lon="0.14528">
        <ele>2175.6</ele>
        <time>2022-08-02T13:16:29Z</time>
      </trkpt>
      <trkpt lat="42.90821" lon="0.14528">
        <ele>2175.6</ele>
        <time>2022-08-02T13:16:35Z</time>
      </trkpt>
      <trkpt lat="42.90821" lon="0.14528">
        <ele>2175.6</ele>
        <time>2022-08-02T13:16:41Z</time>
      </trkpt>
      <trkpt lat="42.90821" lon="0.14528">
        <ele>2175.6</ele>
        <time>2022-08-02T13:16:46Z</time>
      </trkpt>
      <trkpt lat="42.90821" lon="0.14528">
        <ele>2175.6</ele>
        <time>2022-08-02T13:16:52Z</time>
      </trkpt>
      <trkpt lat="42.90821" lon="0.14528">
        <ele>2175.6</ele>
        <time>2022-08-02T13:16:57Z</time>
      </trkpt>
      <trkpt lat="42.90821" lon="0.14528">
        <ele>2175.6</ele>
        <time>2022-08-02T13:17:03Z</time>
      </trkpt>
      <trkpt lat="42.90821" lon="0.14528">
        <ele>2175.6</ele>
        <time>2022-08-02T13:17:08Z</time>
      </trkpt>
      <trkpt lat="42.90821" lon="0.14528">
        <ele>2175.6</ele>
        <time>2022-08-02T13:17:14Z</time>
      </trkpt>
      <trkpt lat="42.90821" lon="0.14528">
        <ele>2175.6</ele>
        <time>2022-08-02T13:17:20Z</time>
      </trkpt>
      <trkpt lat="42.90821" lon="0.14528">
        <ele>2175.5</ele>
        <time>2022-08-02T13:17:25Z</time>
      </trkpt>
      <trkpt lat="42.90821" lon="0.14528">
        <ele>2175.5</ele>
        <time>2022-08-02T13:17:30Z</time>
      </trkpt>
      <trkpt lat="42.90821" lon="0.14528">
        <ele>2175.5</ele>
        <time>2022-08-02T13:17:35Z</time>
      </trkpt>
      <trkpt lat="42.90821" lon="0.14528">
        <ele>2175.5</ele>
        <time>2022-08-02T13:17:41Z</time>
      </trkpt>
      <trkpt lat="42.90821" lon="0.14528">
        <ele>2175.5</ele>
        <time>2022-08-02T13:17:46Z</time>
      </trkpt>
      <trkpt lat="42.90821" lon="0.14528">
        <ele>2175.5</ele>
        <time>2022-08-02T13:17:51Z</time>
      </trkpt>
      <trkpt lat="42.90821" lon="0.14528">
        <ele>2175.5</ele>
        <time>2022-08-02T13:17:56Z</time>
      </trkpt>
      <trkpt lat="42.90821" lon="0.14528">
        <ele>2175.5</ele>
        <time>2022-08-02T13:18:01Z</time>
      </trkpt>
      <trkpt lat="42.90821" lon="0.14528">
        <ele>2175.5</ele>
        <time>2022-08-02T13:18:07Z</time>
      </trkpt>
      <trkpt lat="42.90821" lon="0.14528">
        <ele>2175.5</ele>
        <time>2022-08-02T13:18:12Z</time>
      </trkpt>
      <trkpt lat="42.90821" lon="0.14528">
        <ele>2175.5</ele>
        <time>2022-08-02T13:18:18Z</time>
      </trkpt>
      <trkpt lat="42.90821" lon="0.14528">
        <ele>2175.5</ele>
        <time>2022-08-02T13:18:24Z</time>
      </trkpt>
      <trkpt lat="42.90821" lon="0.14528">
        <ele>2175.5</ele>
        <time>2022-08-02T13:18:30Z</time>
      </trkpt>
      <trkpt lat="42.90821" lon="0.14528">
        <ele>2175.5</ele>
        <time>2022-08-02T13:18:35Z</time>
      </trkpt>
      <trkpt lat="42.90821" lon="0.14528">
        <ele>2175.5</ele>
        <time>2022-08-02T13:18:41Z</time>
      </trkpt>
      <trkpt lat="42.90821" lon="0.14528">
        <ele>2175.5</ele>
        <time>2022-08-02T13:18:46Z</time>
      </trkpt>
      <trkpt lat="42.90821" lon="0.14528">
        <ele>2175.5</ele>
        <time>2022-08-02T13:18:52Z</time>
      </trkpt>
      <trkpt lat="42.90821" lon="0.14528">
        <ele>2175.5</ele>
        <time>2022-08-02T13:18:57Z</time>
      </trkpt>
      <trkpt lat="42.90821" lon="0.14528">
        <ele>2175.5</ele>
        <time>2022-08-02T13:19:02Z</time>
      </trkpt>
      <trkpt lat="42.90821" lon="0.14528">
        <ele>2175.5</ele>
        <time>2022-08-02T13:19:08Z</time>
      </trkpt>
      <trkpt lat="42.90821" lon="0.14528">
        <ele>2175.5</ele>
        <time>2022-08-02T13:19:13Z</time>
      </trkpt>
      <trkpt lat="42.90821" lon="0.14528">
        <ele>2175.5</ele>
        <time>2022-08-02T13:19:19Z</time>
      </trkpt>
      <trkpt lat="42.90821" lon="0.14528">
        <ele>2175.5</ele>
        <time>2022-08-02T13:19:24Z</time>
      </trkpt>
      <trkpt lat="42.90821" lon="0.14528">
        <ele>2175.5</ele>
        <time>2022-08-02T13:19:29Z</time>
      </trkpt>
      <trkpt lat="42.90821" lon="0.14528">
        <ele>2175.6</ele>
        <time>2022-08-02T13:19:35Z</time>
      </trkpt>
      <trkpt lat="42.90821" lon="0.14528">
        <ele>2175.6</ele>
        <time>2022-08-02T13:19:40Z</time>
      </trkpt>
      <trkpt lat="42.90821" lon="0.14528">
        <ele>2175.5</ele>
        <time>2022-08-02T13:19:45Z</time>
      </trkpt>
      <trkpt lat="42.90821" lon="0.14528">
        <ele>2175.6</ele>
        <time>2022-08-02T13:19:51Z</time>
      </trkpt>
      <trkpt lat="42.90821" lon="0.14528">
        <ele>2175.6</ele>
        <time>2022-08-02T13:19:56Z</time>
      </trkpt>
      <trkpt lat="42.90821" lon="0.14529">
        <ele>2175.6</ele>
        <time>2022-08-02T13:20:02Z</time>
      </trkpt>
      <trkpt lat="42.90821" lon="0.14529">
        <ele>2175.6</ele>
        <time>2022-08-02T13:20:07Z</time>
      </trkpt>
      <trkpt lat="42.90821" lon="0.14529">
        <ele>2175.6</ele>
        <time>2022-08-02T13:20:13Z</time>
      </trkpt>
      <trkpt lat="42.90821" lon="0.14529">
        <ele>2175.5</ele>
        <time>2022-08-02T13:20:19Z</time>
      </trkpt>
      <trkpt lat="42.90821" lon="0.14529">
        <ele>2175.5</ele>
        <time>2022-08-02T13:20:24Z</time>
      </trkpt>
      <trkpt lat="42.90821" lon="0.14529">
        <ele>2175.5</ele>
        <time>2022-08-02T13:20:30Z</time>
      </trkpt>
      <trkpt lat="42.90821" lon="0.14529">
        <ele>2175.6</ele>
        <time>2022-08-02T13:20:35Z</time>
      </trkpt>
      <trkpt lat="42.90821" lon="0.14529">
        <ele>2175.6</ele>
        <time>2022-08-02T13:20:40Z</time>
      </trkpt>
      <trkpt lat="42.90821" lon="0.14529">
        <ele>2175.6</ele>
        <time>2022-08-02T13:20:45Z</time>
      </trkpt>
      <trkpt lat="42.90821" lon="0.14529">
        <ele>2175.6</ele>
        <time>2022-08-02T13:20:51Z</time>
      </trkpt>
      <trkpt lat="42.90821" lon="0.14529">
        <ele>2175.6</ele>
        <time>2022-08-02T13:20:57Z</time>
      </trkpt>
      <trkpt lat="42.90821" lon="0.14529">
        <ele>2175.6</ele>
        <time>2022-08-02T13:21:02Z</time>
      </trkpt>
      <trkpt lat="42.90821" lon="0.14529">
        <ele>2175.6</ele>
        <time>2022-08-02T13:21:07Z</time>
      </trkpt>
      <trkpt lat="42.90821" lon="0.14529">
        <ele>2175.6</ele>
        <time>2022-08-02T13:21:13Z</time>
      </trkpt>
      <trkpt lat="42.90821" lon="0.14529">
        <ele>2175.6</ele>
        <time>2022-08-02T13:21:18Z</time>
      </trkpt>
      <trkpt lat="42.90821" lon="0.14529">
        <ele>2175.6</ele>
        <time>2022-08-02T13:21:24Z</time>
      </trkpt>
      <trkpt lat="42.90821" lon="0.14529">
        <ele>2175.6</ele>
        <time>2022-08-02T13:21:29Z</time>
      </trkpt>
      <trkpt lat="42.90821" lon="0.14529">
        <ele>2175.5</ele>
        <time>2022-08-02T13:21:35Z</time>
      </trkpt>
      <trkpt lat="42.90821" lon="0.14529">
        <ele>2175.5</ele>
        <time>2022-08-02T13:21:40Z</time>
      </trkpt>
      <trkpt lat="42.90821" lon="0.14529">
        <ele>2175.5</ele>
        <time>2022-08-02T13:21:46Z</time>
      </trkpt>
      <trkpt lat="42.90821" lon="0.14529">
        <ele>2175.5</ele>
        <time>2022-08-02T13:21:51Z</time>
      </trkpt>
      <trkpt lat="42.90821" lon="0.14529">
        <ele>2175.6</ele>
        <time>2022-08-02T13:21:57Z</time>
      </trkpt>
      <trkpt lat="42.90821" lon="0.14529">
        <ele>2175.6</ele>
        <time>2022-08-02T13:22:03Z</time>
      </trkpt>
      <trkpt lat="42.90821" lon="0.14529">
        <ele>2175.6</ele>
        <time>2022-08-02T13:22:08Z</time>
      </trkpt>
      <trkpt lat="42.90821" lon="0.14529">
        <ele>2175.6</ele>
        <time>2022-08-02T13:22:13Z</time>
      </trkpt>
      <trkpt lat="42.90821" lon="0.14529">
        <ele>2175.6</ele>
        <time>2022-08-02T13:22:18Z</time>
      </trkpt>
      <trkpt lat="42.90821" lon="0.14529">
        <ele>2175.6</ele>
        <time>2022-08-02T13:22:24Z</time>
      </trkpt>
      <trkpt lat="42.90821" lon="0.14529">
        <ele>2175.6</ele>
        <time>2022-08-02T13:22:30Z</time>
      </trkpt>
      <trkpt lat="42.90821" lon="0.14529">
        <ele>2175.6</ele>
        <time>2022-08-02T13:22:35Z</time>
      </trkpt>
      <trkpt lat="42.90821" lon="0.14529">
        <ele>2175.4</ele>
        <time>2022-08-02T13:22:40Z</time>
      </trkpt>
      <trkpt lat="42.90821" lon="0.14529">
        <ele>2175.8</ele>
        <time>2022-08-02T13:22:45Z</time>
      </trkpt>
      <trkpt lat="42.90821" lon="0.14529">
        <ele>2175.8</ele>
        <time>2022-08-02T13:22:51Z</time>
      </trkpt>
      <trkpt lat="42.90821" lon="0.14529">
        <ele>2175.8</ele>
        <time>2022-08-02T13:22:56Z</time>
      </trkpt>
      <trkpt lat="42.90821" lon="0.14529">
        <ele>2175.8</ele>
        <time>2022-08-02T13:23:01Z</time>
      </trkpt>
      <trkpt lat="42.90821" lon="0.14529">
        <ele>2175.8</ele>
        <time>2022-08-02T13:23:06Z</time>
      </trkpt>
      <trkpt lat="42.90821" lon="0.14529">
        <ele>2175.8</ele>
        <time>2022-08-02T13:23:12Z</time>
      </trkpt>
      <trkpt lat="42.90821" lon="0.14529">
        <ele>2175.8</ele>
        <time>2022-08-02T13:23:18Z</time>
      </trkpt>
      <trkpt lat="42.90821" lon="0.14529">
        <ele>2175.8</ele>
        <time>2022-08-02T13:23:24Z</time>
      </trkpt>
      <trkpt lat="42.90821" lon="0.14529">
        <ele>2175.8</ele>
        <time>2022-08-02T13:23:30Z</time>
      </trkpt>
      <trkpt lat="42.90821" lon="0.14529">
        <ele>2175.8</ele>
        <time>2022-08-02T13:23:35Z</time>
      </trkpt>
      <trkpt lat="42.90821" lon="0.14529">
        <ele>2175.8</ele>
        <time>2022-08-02T13:23:40Z</time>
      </trkpt>
      <trkpt lat="42.90821" lon="0.14529">
        <ele>2175.7</ele>
        <time>2022-08-02T13:23:46Z</time>
      </trkpt>
      <trkpt lat="42.90821" lon="0.14529">
        <ele>2175.8</ele>
        <time>2022-08-02T13:23:51Z</time>
      </trkpt>
      <trkpt lat="42.90821" lon="0.14529">
        <ele>2175.7</ele>
        <time>2022-08-02T13:23:56Z</time>
      </trkpt>
      <trkpt lat="42.90823" lon="0.14529">
        <ele>2175.3</ele>
        <time>2022-08-02T13:24:02Z</time>
      </trkpt>
      <trkpt lat="42.90823" lon="0.14528">
        <ele>2175.3</ele>
        <time>2022-08-02T13:24:07Z</time>
      </trkpt>
      <trkpt lat="42.90823" lon="0.14529">
        <ele>2175.3</ele>
        <time>2022-08-02T13:24:12Z</time>
      </trkpt>
      <trkpt lat="42.90823" lon="0.14529">
        <ele>2175.3</ele>
        <time>2022-08-02T13:24:17Z</time>
      </trkpt>
      <trkpt lat="42.90823" lon="0.14529">
        <ele>2175.3</ele>
        <time>2022-08-02T13:24:23Z</time>
      </trkpt>
      <trkpt lat="42.90823" lon="0.14529">
        <ele>2175.3</ele>
        <time>2022-08-02T13:24:29Z</time>
      </trkpt>
      <trkpt lat="42.90823" lon="0.14529">
        <ele>2175.2</ele>
        <time>2022-08-02T13:24:34Z</time>
      </trkpt>
      <trkpt lat="42.90823" lon="0.14529">
        <ele>2175.2</ele>
        <time>2022-08-02T13:24:40Z</time>
      </trkpt>
      <trkpt lat="42.90823" lon="0.14529">
        <ele>2175.2</ele>
        <time>2022-08-02T13:24:46Z</time>
      </trkpt>
      <trkpt lat="42.90823" lon="0.14529">
        <ele>2175.2</ele>
        <time>2022-08-02T13:24:51Z</time>
      </trkpt>
      <trkpt lat="42.90823" lon="0.14529">
        <ele>2175.2</ele>
        <time>2022-08-02T13:24:56Z</time>
      </trkpt>
      <trkpt lat="42.90823" lon="0.14529">
        <ele>2175.2</ele>
        <time>2022-08-02T13:25:02Z</time>
      </trkpt>
      <trkpt lat="42.90823" lon="0.14529">
        <ele>2175.2</ele>
        <time>2022-08-02T13:25:08Z</time>
      </trkpt>
      <trkpt lat="42.90823" lon="0.14529">
        <ele>2175.2</ele>
        <time>2022-08-02T13:25:13Z</time>
      </trkpt>
      <trkpt lat="42.90823" lon="0.14529">
        <ele>2175.2</ele>
        <time>2022-08-02T13:25:19Z</time>
      </trkpt>
      <trkpt lat="42.90823" lon="0.14529">
        <ele>2175.2</ele>
        <time>2022-08-02T13:25:24Z</time>
      </trkpt>
      <trkpt lat="42.90823" lon="0.14529">
        <ele>2175.2</ele>
        <time>2022-08-02T13:25:30Z</time>
      </trkpt>
      <trkpt lat="42.90823" lon="0.14529">
        <ele>2175.2</ele>
        <time>2022-08-02T13:25:35Z</time>
      </trkpt>
      <trkpt lat="42.90823" lon="0.14529">
        <ele>2175.2</ele>
        <time>2022-08-02T13:25:41Z</time>
      </trkpt>
      <trkpt lat="42.90823" lon="0.14529">
        <ele>2175.2</ele>
        <time>2022-08-02T13:25:47Z</time>
      </trkpt>
      <trkpt lat="42.90823" lon="0.14529">
        <ele>2175.2</ele>
        <time>2022-08-02T13:25:52Z</time>
      </trkpt>
      <trkpt lat="42.90823" lon="0.14529">
        <ele>2175.2</ele>
        <time>2022-08-02T13:25:58Z</time>
      </trkpt>
      <trkpt lat="42.90823" lon="0.14529">
        <ele>2175.2</ele>
        <time>2022-08-02T13:26:03Z</time>
      </trkpt>
      <trkpt lat="42.90823" lon="0.14529">
        <ele>2175.2</ele>
        <time>2022-08-02T13:26:08Z</time>
      </trkpt>
      <trkpt lat="42.90823" lon="0.14529">
        <ele>2175.2</ele>
        <time>2022-08-02T13:26:14Z</time>
      </trkpt>
      <trkpt lat="42.90823" lon="0.14529">
        <ele>2175.2</ele>
        <time>2022-08-02T13:26:19Z</time>
      </trkpt>
      <trkpt lat="42.90823" lon="0.14529">
        <ele>2175.2</ele>
        <time>2022-08-02T13:26:25Z</time>
      </trkpt>
      <trkpt lat="42.90823" lon="0.14529">
        <ele>2175.2</ele>
        <time>2022-08-02T13:26:30Z</time>
      </trkpt>
      <trkpt lat="42.90823" lon="0.14529">
        <ele>2175.2</ele>
        <time>2022-08-02T13:26:36Z</time>
      </trkpt>
      <trkpt lat="42.90823" lon="0.14529">
        <ele>2175.1</ele>
        <time>2022-08-02T13:26:42Z</time>
      </trkpt>
      <trkpt lat="42.90823" lon="0.14529">
        <ele>2175.1</ele>
        <time>2022-08-02T13:26:48Z</time>
      </trkpt>
      <trkpt lat="42.90823" lon="0.14529">
        <ele>2175.1</ele>
        <time>2022-08-02T13:26:54Z</time>
      </trkpt>
      <trkpt lat="42.90823" lon="0.14529">
        <ele>2175.1</ele>
        <time>2022-08-02T13:27:00Z</time>
      </trkpt>
      <trkpt lat="42.90823" lon="0.14529">
        <ele>2175.1</ele>
        <time>2022-08-02T13:27:05Z</time>
      </trkpt>
      <trkpt lat="42.90823" lon="0.14529">
        <ele>2175.1</ele>
        <time>2022-08-02T13:27:11Z</time>
      </trkpt>
      <trkpt lat="42.90823" lon="0.14529">
        <ele>2175.1</ele>
        <time>2022-08-02T13:27:16Z</time>
      </trkpt>
      <trkpt lat="42.90823" lon="0.14529">
        <ele>2175.1</ele>
        <time>2022-08-02T13:27:21Z</time>
      </trkpt>
      <trkpt lat="42.90823" lon="0.14529">
        <ele>2175.1</ele>
        <time>2022-08-02T13:27:27Z</time>
      </trkpt>
      <trkpt lat="42.90823" lon="0.14529">
        <ele>2175</ele>
        <time>2022-08-02T13:27:32Z</time>
      </trkpt>
      <trkpt lat="42.90823" lon="0.14529">
        <ele>2175</ele>
        <time>2022-08-02T13:27:38Z</time>
      </trkpt>
      <trkpt lat="42.90823" lon="0.14529">
        <ele>2175</ele>
        <time>2022-08-02T13:27:43Z</time>
      </trkpt>
      <trkpt lat="42.90823" lon="0.14529">
        <ele>2175</ele>
        <time>2022-08-02T13:27:48Z</time>
      </trkpt>
      <trkpt lat="42.90823" lon="0.14529">
        <ele>2175</ele>
        <time>2022-08-02T13:27:54Z</time>
      </trkpt>
      <trkpt lat="42.90823" lon="0.14529">
        <ele>2175</ele>
        <time>2022-08-02T13:27:59Z</time>
      </trkpt>
      <trkpt lat="42.90823" lon="0.14529">
        <ele>2175.1</ele>
        <time>2022-08-02T13:28:05Z</time>
      </trkpt>
      <trkpt lat="42.90823" lon="0.14529">
        <ele>2175.1</ele>
        <time>2022-08-02T13:28:11Z</time>
      </trkpt>
      <trkpt lat="42.90823" lon="0.14529">
        <ele>2175</ele>
        <time>2022-08-02T13:28:16Z</time>
      </trkpt>
      <trkpt lat="42.90823" lon="0.14529">
        <ele>2175</ele>
        <time>2022-08-02T13:28:21Z</time>
      </trkpt>
      <trkpt lat="42.90823" lon="0.14529">
        <ele>2175</ele>
        <time>2022-08-02T13:28:27Z</time>
      </trkpt>
      <trkpt lat="42.90823" lon="0.14529">
        <ele>2175</ele>
        <time>2022-08-02T13:28:33Z</time>
      </trkpt>
      <trkpt lat="42.90823" lon="0.14529">
        <ele>2175</ele>
        <time>2022-08-02T13:28:38Z</time>
      </trkpt>
      <trkpt lat="42.90823" lon="0.14529">
        <ele>2175</ele>
        <time>2022-08-02T13:28:44Z</time>
      </trkpt>
      <trkpt lat="42.90823" lon="0.14529">
        <ele>2175</ele>
        <time>2022-08-02T13:28:50Z</time>
      </trkpt>
      <trkpt lat="42.90823" lon="0.14529">
        <ele>2175</ele>
        <time>2022-08-02T13:28:56Z</time>
      </trkpt>
      <trkpt lat="42.90823" lon="0.14529">
        <ele>2175</ele>
        <time>2022-08-02T13:29:01Z</time>
      </trkpt>
      <trkpt lat="42.90823" lon="0.14529">
        <ele>2174.9</ele>
        <time>2022-08-02T13:29:06Z</time>
      </trkpt>
      <trkpt lat="42.90823" lon="0.14529">
        <ele>2175.3</ele>
        <time>2022-08-02T13:29:12Z</time>
      </trkpt>
      <trkpt lat="42.90825" lon="0.1453">
        <ele>2172.1</ele>
        <time>2022-08-02T13:29:18Z</time>
      </trkpt>
      <trkpt lat="42.90825" lon="0.1453">
        <ele>2172.1</ele>
        <time>2022-08-02T13:29:24Z</time>
      </trkpt>
      <trkpt lat="42.90827" lon="0.14531">
        <ele>2170.6</ele>
        <time>2022-08-02T13:29:30Z</time>
      </trkpt>
      <trkpt lat="42.90825" lon="0.1453">
        <ele>2170.4</ele>
        <time>2022-08-02T13:29:36Z</time>
      </trkpt>
      <trkpt lat="42.90825" lon="0.14529">
        <ele>2170.9</ele>
        <time>2022-08-02T13:29:41Z</time>
      </trkpt>
      <trkpt lat="42.90825" lon="0.14528">
        <ele>2170.9</ele>
        <time>2022-08-02T13:29:46Z</time>
      </trkpt>
      <trkpt lat="42.90825" lon="0.14528">
        <ele>2170.9</ele>
        <time>2022-08-02T13:29:51Z</time>
      </trkpt>
      <trkpt lat="42.90827" lon="0.1453">
        <ele>2170.1</ele>
        <time>2022-08-02T13:29:57Z</time>
      </trkpt>
      <trkpt lat="42.90826" lon="0.1453">
        <ele>2170.1</ele>
        <time>2022-08-02T13:30:02Z</time>
      </trkpt>
      <trkpt lat="42.90826" lon="0.1453">
        <ele>2170.1</ele>
        <time>2022-08-02T13:30:07Z</time>
      </trkpt>
      <trkpt lat="42.90827" lon="0.14531">
        <ele>2170.2</ele>
        <time>2022-08-02T13:30:12Z</time>
      </trkpt>
      <trkpt lat="42.90826" lon="0.14532">
        <ele>2169.7</ele>
        <time>2022-08-02T13:30:17Z</time>
      </trkpt>
      <trkpt lat="42.90826" lon="0.14531">
        <ele>2169.7</ele>
        <time>2022-08-02T13:30:22Z</time>
      </trkpt>
      <trkpt lat="42.90826" lon="0.14531">
        <ele>2169.7</ele>
        <time>2022-08-02T13:30:28Z</time>
      </trkpt>
      <trkpt lat="42.90826" lon="0.14531">
        <ele>2169.7</ele>
        <time>2022-08-02T13:30:34Z</time>
      </trkpt>
      <trkpt lat="42.90826" lon="0.14531">
        <ele>2169.7</ele>
        <time>2022-08-02T13:30:39Z</time>
      </trkpt>
      <trkpt lat="42.90826" lon="0.14531">
        <ele>2169.7</ele>
        <time>2022-08-02T13:30:45Z</time>
      </trkpt>
      <trkpt lat="42.90826" lon="0.14531">
        <ele>2169.7</ele>
        <time>2022-08-02T13:30:50Z</time>
      </trkpt>
      <trkpt lat="42.90826" lon="0.14531">
        <ele>2169.7</ele>
        <time>2022-08-02T13:30:56Z</time>
      </trkpt>
      <trkpt lat="42.90826" lon="0.14531">
        <ele>2169.7</ele>
        <time>2022-08-02T13:31:01Z</time>
      </trkpt>
      <trkpt lat="42.90826" lon="0.14531">
        <ele>2169.8</ele>
        <time>2022-08-02T13:31:07Z</time>
      </trkpt>
      <trkpt lat="42.90826" lon="0.14531">
        <ele>2169.8</ele>
        <time>2022-08-02T13:31:13Z</time>
      </trkpt>
      <trkpt lat="42.90826" lon="0.14531">
        <ele>2169.8</ele>
        <time>2022-08-02T13:31:19Z</time>
      </trkpt>
      <trkpt lat="42.90826" lon="0.14531">
        <ele>2169.8</ele>
        <time>2022-08-02T13:31:24Z</time>
      </trkpt>
      <trkpt lat="42.90826" lon="0.14531">
        <ele>2169.8</ele>
        <time>2022-08-02T13:31:30Z</time>
      </trkpt>
      <trkpt lat="42.90826" lon="0.14531">
        <ele>2169.8</ele>
        <time>2022-08-02T13:31:35Z</time>
      </trkpt>
      <trkpt lat="42.90826" lon="0.14531">
        <ele>2169.8</ele>
        <time>2022-08-02T13:31:41Z</time>
      </trkpt>
      <trkpt lat="42.90826" lon="0.14531">
        <ele>2169.8</ele>
        <time>2022-08-02T13:31:47Z</time>
      </trkpt>
      <trkpt lat="42.90826" lon="0.14531">
        <ele>2169.8</ele>
        <time>2022-08-02T13:31:53Z</time>
      </trkpt>
      <trkpt lat="42.90826" lon="0.14531">
        <ele>2169.8</ele>
        <time>2022-08-02T13:31:58Z</time>
      </trkpt>
      <trkpt lat="42.90826" lon="0.14531">
        <ele>2169.8</ele>
        <time>2022-08-02T13:32:04Z</time>
      </trkpt>
      <trkpt lat="42.90826" lon="0.14531">
        <ele>2169.8</ele>
        <time>2022-08-02T13:32:09Z</time>
      </trkpt>
      <trkpt lat="42.90826" lon="0.14531">
        <ele>2169.8</ele>
        <time>2022-08-02T13:32:15Z</time>
      </trkpt>
      <trkpt lat="42.90826" lon="0.14531">
        <ele>2169.8</ele>
        <time>2022-08-02T13:32:20Z</time>
      </trkpt>
      <trkpt lat="42.90826" lon="0.14531">
        <ele>2169.8</ele>
        <time>2022-08-02T13:32:26Z</time>
      </trkpt>
      <trkpt lat="42.90826" lon="0.14531">
        <ele>2169.8</ele>
        <time>2022-08-02T13:32:31Z</time>
      </trkpt>
      <trkpt lat="42.90826" lon="0.14531">
        <ele>2169.8</ele>
        <time>2022-08-02T13:32:37Z</time>
      </trkpt>
      <trkpt lat="42.90826" lon="0.14531">
        <ele>2169.8</ele>
        <time>2022-08-02T13:32:42Z</time>
      </trkpt>
      <trkpt lat="42.90826" lon="0.14531">
        <ele>2169.8</ele>
        <time>2022-08-02T13:32:48Z</time>
      </trkpt>
      <trkpt lat="42.90826" lon="0.14531">
        <ele>2169.8</ele>
        <time>2022-08-02T13:32:54Z</time>
      </trkpt>
      <trkpt lat="42.90826" lon="0.14531">
        <ele>2169.8</ele>
        <time>2022-08-02T13:33:00Z</time>
      </trkpt>
      <trkpt lat="42.90826" lon="0.14531">
        <ele>2169.8</ele>
        <time>2022-08-02T13:33:05Z</time>
      </trkpt>
      <trkpt lat="42.90826" lon="0.14532">
        <ele>2169.8</ele>
        <time>2022-08-02T13:33:10Z</time>
      </trkpt>
      <trkpt lat="42.90826" lon="0.14532">
        <ele>2169.8</ele>
        <time>2022-08-02T13:33:16Z</time>
      </trkpt>
      <trkpt lat="42.90826" lon="0.14532">
        <ele>2169.8</ele>
        <time>2022-08-02T13:33:21Z</time>
      </trkpt>
      <trkpt lat="42.90826" lon="0.14532">
        <ele>2169.8</ele>
        <time>2022-08-02T13:33:26Z</time>
      </trkpt>
      <trkpt lat="42.90826" lon="0.14532">
        <ele>2169.8</ele>
        <time>2022-08-02T13:33:32Z</time>
      </trkpt>
      <trkpt lat="42.90826" lon="0.14532">
        <ele>2169.9</ele>
        <time>2022-08-02T13:33:38Z</time>
      </trkpt>
      <trkpt lat="42.90826" lon="0.14532">
        <ele>2169.9</ele>
        <time>2022-08-02T13:33:43Z</time>
      </trkpt>
      <trkpt lat="42.90826" lon="0.14532">
        <ele>2169.9</ele>
        <time>2022-08-02T13:33:49Z</time>
      </trkpt>
      <trkpt lat="42.90826" lon="0.14532">
        <ele>2169.9</ele>
        <time>2022-08-02T13:33:55Z</time>
      </trkpt>
      <trkpt lat="42.90826" lon="0.14532">
        <ele>2169.9</ele>
        <time>2022-08-02T13:34:00Z</time>
      </trkpt>
      <trkpt lat="42.90826" lon="0.14532">
        <ele>2169.9</ele>
        <time>2022-08-02T13:34:06Z</time>
      </trkpt>
      <trkpt lat="42.90826" lon="0.14532">
        <ele>2169.9</ele>
        <time>2022-08-02T13:34:11Z</time>
      </trkpt>
      <trkpt lat="42.90826" lon="0.14532">
        <ele>2169.9</ele>
        <time>2022-08-02T13:34:17Z</time>
      </trkpt>
      <trkpt lat="42.90826" lon="0.14532">
        <ele>2169.9</ele>
        <time>2022-08-02T13:34:23Z</time>
      </trkpt>
      <trkpt lat="42.90825" lon="0.14531">
        <ele>2170.3</ele>
        <time>2022-08-02T13:34:28Z</time>
      </trkpt>
      <trkpt lat="42.90825" lon="0.14532">
        <ele>2170.3</ele>
        <time>2022-08-02T13:34:34Z</time>
      </trkpt>
      <trkpt lat="42.90825" lon="0.14532">
        <ele>2170.3</ele>
        <time>2022-08-02T13:34:39Z</time>
      </trkpt>
      <trkpt lat="42.90825" lon="0.14532">
        <ele>2170.3</ele>
        <time>2022-08-02T13:34:45Z</time>
      </trkpt>
      <trkpt lat="42.90825" lon="0.14532">
        <ele>2170.3</ele>
        <time>2022-08-02T13:34:50Z</time>
      </trkpt>
      <trkpt lat="42.90826" lon="0.14532">
        <ele>2170.3</ele>
        <time>2022-08-02T13:34:56Z</time>
      </trkpt>
      <trkpt lat="42.90826" lon="0.14532">
        <ele>2170.3</ele>
        <time>2022-08-02T13:35:02Z</time>
      </trkpt>
      <trkpt lat="42.90826" lon="0.14532">
        <ele>2170.3</ele>
        <time>2022-08-02T13:35:07Z</time>
      </trkpt>
      <trkpt lat="42.90826" lon="0.14532">
        <ele>2170.3</ele>
        <time>2022-08-02T13:35:12Z</time>
      </trkpt>
      <trkpt lat="42.90826" lon="0.14532">
        <ele>2170.3</ele>
        <time>2022-08-02T13:35:18Z</time>
      </trkpt>
      <trkpt lat="42.90826" lon="0.14532">
        <ele>2170.3</ele>
        <time>2022-08-02T13:35:23Z</time>
      </trkpt>
      <trkpt lat="42.90826" lon="0.14532">
        <ele>2170.3</ele>
        <time>2022-08-02T13:35:29Z</time>
      </trkpt>
      <trkpt lat="42.90825" lon="0.14533">
        <ele>2170.6</ele>
        <time>2022-08-02T13:35:35Z</time>
      </trkpt>
      <trkpt lat="42.90825" lon="0.14532">
        <ele>2170.1</ele>
        <time>2022-08-02T13:35:41Z</time>
      </trkpt>
      <trkpt lat="42.90826" lon="0.14532">
        <ele>2169.6</ele>
        <time>2022-08-02T13:35:46Z</time>
      </trkpt>
      <trkpt lat="42.90825" lon="0.14531">
        <ele>2170.3</ele>
        <time>2022-08-02T13:35:51Z</time>
      </trkpt>
      <trkpt lat="42.90825" lon="0.14531">
        <ele>2169.5</ele>
        <time>2022-08-02T13:35:57Z</time>
      </trkpt>
      <trkpt lat="42.90824" lon="0.14531">
        <ele>2168.5</ele>
        <time>2022-08-02T13:36:02Z</time>
      </trkpt>
      <trkpt lat="42.90825" lon="0.14532">
        <ele>2167.9</ele>
        <time>2022-08-02T13:36:07Z</time>
      </trkpt>
      <trkpt lat="42.90824" lon="0.14531">
        <ele>2168.5</ele>
        <time>2022-08-02T13:36:12Z</time>
      </trkpt>
      <trkpt lat="42.90825" lon="0.14531">
        <ele>2167.2</ele>
        <time>2022-08-02T13:36:18Z</time>
      </trkpt>
      <trkpt lat="42.90831" lon="0.14533">
        <ele>2168.3</ele>
        <time>2022-08-02T13:36:23Z</time>
      </trkpt>
      <trkpt lat="42.90835" lon="0.14534">
        <ele>2168.4</ele>
        <time>2022-08-02T13:36:28Z</time>
      </trkpt>
      <trkpt lat="42.90838" lon="0.14533">
        <ele>2168.9</ele>
        <time>2022-08-02T13:36:33Z</time>
      </trkpt>
      <trkpt lat="42.90839" lon="0.14535">
        <ele>2169.7</ele>
        <time>2022-08-02T13:36:39Z</time>
      </trkpt>
      <trkpt lat="42.90837" lon="0.14534">
        <ele>2171</ele>
        <time>2022-08-02T13:36:44Z</time>
      </trkpt>
      <trkpt lat="42.90836" lon="0.14533">
        <ele>2169.7</ele>
        <time>2022-08-02T13:36:50Z</time>
      </trkpt>
      <trkpt lat="42.90836" lon="0.14532">
        <ele>2169.6</ele>
        <time>2022-08-02T13:36:55Z</time>
      </trkpt>
      <trkpt lat="42.90837" lon="0.14532">
        <ele>2169.3</ele>
        <time>2022-08-02T13:37:01Z</time>
      </trkpt>
      <trkpt lat="42.90835" lon="0.1453">
        <ele>2167.3</ele>
        <time>2022-08-02T13:37:06Z</time>
      </trkpt>
      <trkpt lat="42.90836" lon="0.14528">
        <ele>2168.7</ele>
        <time>2022-08-02T13:37:12Z</time>
      </trkpt>
      <trkpt lat="42.90839" lon="0.14528">
        <ele>2169.8</ele>
        <time>2022-08-02T13:37:17Z</time>
      </trkpt>
      <trkpt lat="42.90838" lon="0.14528">
        <ele>2169.1</ele>
        <time>2022-08-02T13:37:23Z</time>
      </trkpt>
      <trkpt lat="42.9083" lon="0.14529">
        <ele>2171.5</ele>
        <time>2022-08-02T13:37:28Z</time>
      </trkpt>
      <trkpt lat="42.90826" lon="0.1453">
        <ele>2173</ele>
        <time>2022-08-02T13:37:34Z</time>
      </trkpt>
      <trkpt lat="42.90825" lon="0.1453">
        <ele>2173</ele>
        <time>2022-08-02T13:37:40Z</time>
      </trkpt>
      <trkpt lat="42.90825" lon="0.1453">
        <ele>2172.9</ele>
        <time>2022-08-02T13:37:46Z</time>
      </trkpt>
      <trkpt lat="42.90825" lon="0.1453">
        <ele>2172.9</ele>
        <time>2022-08-02T13:37:52Z</time>
      </trkpt>
      <trkpt lat="42.90825" lon="0.1453">
        <ele>2172.9</ele>
        <time>2022-08-02T13:37:57Z</time>
      </trkpt>
      <trkpt lat="42.90825" lon="0.1453">
        <ele>2172.9</ele>
        <time>2022-08-02T13:38:03Z</time>
      </trkpt>
      <trkpt lat="42.90825" lon="0.1453">
        <ele>2172.8</ele>
        <time>2022-08-02T13:38:09Z</time>
      </trkpt>
      <trkpt lat="42.90825" lon="0.1453">
        <ele>2172.8</ele>
        <time>2022-08-02T13:38:15Z</time>
      </trkpt>
      <trkpt lat="42.90825" lon="0.1453">
        <ele>2172.8</ele>
        <time>2022-08-02T13:38:20Z</time>
      </trkpt>
      <trkpt lat="42.90825" lon="0.1453">
        <ele>2172.8</ele>
        <time>2022-08-02T13:38:26Z</time>
      </trkpt>
      <trkpt lat="42.90825" lon="0.1453">
        <ele>2172.7</ele>
        <time>2022-08-02T13:38:31Z</time>
      </trkpt>
      <trkpt lat="42.90825" lon="0.1453">
        <ele>2172.7</ele>
        <time>2022-08-02T13:38:37Z</time>
      </trkpt>
      <trkpt lat="42.90825" lon="0.1453">
        <ele>2172.7</ele>
        <time>2022-08-02T13:38:42Z</time>
      </trkpt>
      <trkpt lat="42.90825" lon="0.1453">
        <ele>2173.2</ele>
        <time>2022-08-02T13:38:48Z</time>
      </trkpt>
      <trkpt lat="42.90826" lon="0.14531">
        <ele>2170</ele>
        <time>2022-08-02T13:38:53Z</time>
      </trkpt>
      <trkpt lat="42.90826" lon="0.14531">
        <ele>2170.9</ele>
        <time>2022-08-02T13:38:59Z</time>
      </trkpt>
      <trkpt lat="42.90824" lon="0.1453">
        <ele>2171.2</ele>
        <time>2022-08-02T13:39:05Z</time>
      </trkpt>
      <trkpt lat="42.90824" lon="0.1453">
        <ele>2171.2</ele>
        <time>2022-08-02T13:39:11Z</time>
      </trkpt>
      <trkpt lat="42.90824" lon="0.1453">
        <ele>2171.2</ele>
        <time>2022-08-02T13:39:16Z</time>
      </trkpt>
      <trkpt lat="42.90824" lon="0.1453">
        <ele>2171.2</ele>
        <time>2022-08-02T13:39:21Z</time>
      </trkpt>
      <trkpt lat="42.90823" lon="0.1453">
        <ele>2172.4</ele>
        <time>2022-08-02T13:39:27Z</time>
      </trkpt>
      <trkpt lat="42.90824" lon="0.1453">
        <ele>2172.7</ele>
        <time>2022-08-02T13:39:32Z</time>
      </trkpt>
      <trkpt lat="42.90824" lon="0.1453">
        <ele>2172.7</ele>
        <time>2022-08-02T13:39:37Z</time>
      </trkpt>
      <trkpt lat="42.90824" lon="0.1453">
        <ele>2172.7</ele>
        <time>2022-08-02T13:39:43Z</time>
      </trkpt>
      <trkpt lat="42.90824" lon="0.14531">
        <ele>2173.5</ele>
        <time>2022-08-02T13:39:49Z</time>
      </trkpt>
      <trkpt lat="42.90824" lon="0.14531">
        <ele>2173.5</ele>
        <time>2022-08-02T13:39:54Z</time>
      </trkpt>
      <trkpt lat="42.90824" lon="0.14531">
        <ele>2173.6</ele>
        <time>2022-08-02T13:40:00Z</time>
      </trkpt>
      <trkpt lat="42.90825" lon="0.14532">
        <ele>2174.4</ele>
        <time>2022-08-02T13:40:06Z</time>
      </trkpt>
      <trkpt lat="42.90825" lon="0.14532">
        <ele>2172.7</ele>
        <time>2022-08-02T13:40:12Z</time>
      </trkpt>
      <trkpt lat="42.90825" lon="0.14532">
        <ele>2171.4</ele>
        <time>2022-08-02T13:40:17Z</time>
      </trkpt>
      <trkpt lat="42.90822" lon="0.1453">
        <ele>2171.4</ele>
        <time>2022-08-02T13:40:23Z</time>
      </trkpt>
      <trkpt lat="42.90819" lon="0.14528">
        <ele>2172.4</ele>
        <time>2022-08-02T13:40:29Z</time>
      </trkpt>
      <trkpt lat="42.9082" lon="0.14527">
        <ele>2172.4</ele>
        <time>2022-08-02T13:40:34Z</time>
      </trkpt>
      <trkpt lat="42.90821" lon="0.14527">
        <ele>2171.2</ele>
        <time>2022-08-02T13:40:40Z</time>
      </trkpt>
      <trkpt lat="42.90821" lon="0.14527">
        <ele>2168.3</ele>
        <time>2022-08-02T13:40:45Z</time>
      </trkpt>
      <trkpt lat="42.90827" lon="0.14527">
        <ele>2172.2</ele>
        <time>2022-08-02T13:40:51Z</time>
      </trkpt>
      <trkpt lat="42.90833" lon="0.14528">
        <ele>2172</ele>
        <time>2022-08-02T13:40:57Z</time>
      </trkpt>
      <trkpt lat="42.90834" lon="0.14526">
        <ele>2171.5</ele>
        <time>2022-08-02T13:41:02Z</time>
      </trkpt>
      <trkpt lat="42.90834" lon="0.1452">
        <ele>2173.3</ele>
        <time>2022-08-02T13:41:08Z</time>
      </trkpt>
      <trkpt lat="42.90833" lon="0.14513">
        <ele>2171.7</ele>
        <time>2022-08-02T13:41:14Z</time>
      </trkpt>
      <trkpt lat="42.90834" lon="0.14508">
        <ele>2169.5</ele>
        <time>2022-08-02T13:41:19Z</time>
      </trkpt>
      <trkpt lat="42.90832" lon="0.14503">
        <ele>2169.5</ele>
        <time>2022-08-02T13:41:25Z</time>
      </trkpt>
      <trkpt lat="42.90831" lon="0.145">
        <ele>2167.5</ele>
        <time>2022-08-02T13:41:30Z</time>
      </trkpt>
      <trkpt lat="42.9083" lon="0.14499">
        <ele>2166.6</ele>
        <time>2022-08-02T13:41:36Z</time>
      </trkpt>
      <trkpt lat="42.9083" lon="0.14499">
        <ele>2166.6</ele>
        <time>2022-08-02T13:41:42Z</time>
      </trkpt>
      <trkpt lat="42.9083" lon="0.14499">
        <ele>2168.1</ele>
        <time>2022-08-02T13:41:47Z</time>
      </trkpt>
      <trkpt lat="42.9083" lon="0.14498">
        <ele>2169.9</ele>
        <time>2022-08-02T13:41:53Z</time>
      </trkpt>
      <trkpt lat="42.90831" lon="0.14496">
        <ele>2169.9</ele>
        <time>2022-08-02T13:41:59Z</time>
      </trkpt>
      <trkpt lat="42.90831" lon="0.14496">
        <ele>2169.9</ele>
        <time>2022-08-02T13:42:05Z</time>
      </trkpt>
      <trkpt lat="42.90831" lon="0.14495">
        <ele>2169.9</ele>
        <time>2022-08-02T13:42:11Z</time>
      </trkpt>
      <trkpt lat="42.90831" lon="0.14495">
        <ele>2170</ele>
        <time>2022-08-02T13:42:17Z</time>
      </trkpt>
      <trkpt lat="42.90831" lon="0.14495">
        <ele>2169</ele>
        <time>2022-08-02T13:42:22Z</time>
      </trkpt>
      <trkpt lat="42.9083" lon="0.14495">
        <ele>2167.3</ele>
        <time>2022-08-02T13:42:27Z</time>
      </trkpt>
      <trkpt lat="42.90829" lon="0.14494">
        <ele>2165.2</ele>
        <time>2022-08-02T13:42:33Z</time>
      </trkpt>
      <trkpt lat="42.90829" lon="0.14494">
        <ele>2165.2</ele>
        <time>2022-08-02T13:42:38Z</time>
      </trkpt>
      <trkpt lat="42.90829" lon="0.14494">
        <ele>2165.3</ele>
        <time>2022-08-02T13:42:43Z</time>
      </trkpt>
      <trkpt lat="42.90828" lon="0.14495">
        <ele>2166.3</ele>
        <time>2022-08-02T13:42:48Z</time>
      </trkpt>
      <trkpt lat="42.90829" lon="0.14494">
        <ele>2166.5</ele>
        <time>2022-08-02T13:42:54Z</time>
      </trkpt>
      <trkpt lat="42.90829" lon="0.14495">
        <ele>2164.8</ele>
        <time>2022-08-02T13:43:00Z</time>
      </trkpt>
      <trkpt lat="42.90829" lon="0.14497">
        <ele>2166.1</ele>
        <time>2022-08-02T13:43:05Z</time>
      </trkpt>
      <trkpt lat="42.90829" lon="0.14502">
        <ele>2166.6</ele>
        <time>2022-08-02T13:43:10Z</time>
      </trkpt>
      <trkpt lat="42.90831" lon="0.14506">
        <ele>2166.3</ele>
        <time>2022-08-02T13:43:16Z</time>
      </trkpt>
      <trkpt lat="42.90832" lon="0.1451">
        <ele>2167.2</ele>
        <time>2022-08-02T13:43:21Z</time>
      </trkpt>
      <trkpt lat="42.90834" lon="0.14514">
        <ele>2167</ele>
        <time>2022-08-02T13:43:26Z</time>
      </trkpt>
      <trkpt lat="42.90835" lon="0.14516">
        <ele>2167</ele>
        <time>2022-08-02T13:43:32Z</time>
      </trkpt>
      <trkpt lat="42.90835" lon="0.1452">
        <ele>2167.1</ele>
        <time>2022-08-02T13:43:37Z</time>
      </trkpt>
      <trkpt lat="42.90838" lon="0.14526">
        <ele>2168.2</ele>
        <time>2022-08-02T13:43:43Z</time>
      </trkpt>
      <trkpt lat="42.90842" lon="0.14535">
        <ele>2168</ele>
        <time>2022-08-02T13:43:49Z</time>
      </trkpt>
      <trkpt lat="42.90845" lon="0.14542">
        <ele>2170.5</ele>
        <time>2022-08-02T13:43:55Z</time>
      </trkpt>
      <trkpt lat="42.90844" lon="0.14538">
        <ele>2170.3</ele>
        <time>2022-08-02T13:44:00Z</time>
      </trkpt>
      <trkpt lat="42.90841" lon="0.14531">
        <ele>2170.6</ele>
        <time>2022-08-02T13:44:06Z</time>
      </trkpt>
      <trkpt lat="42.90839" lon="0.14531">
        <ele>2173.5</ele>
        <time>2022-08-02T13:44:11Z</time>
      </trkpt>
      <trkpt lat="42.90838" lon="0.14532">
        <ele>2173.4</ele>
        <time>2022-08-02T13:44:17Z</time>
      </trkpt>
      <trkpt lat="42.90839" lon="0.14531">
        <ele>2173.1</ele>
        <time>2022-08-02T13:44:23Z</time>
      </trkpt>
      <trkpt lat="42.90839" lon="0.14531">
        <ele>2173.1</ele>
        <time>2022-08-02T13:44:28Z</time>
      </trkpt>
      <trkpt lat="42.90839" lon="0.14531">
        <ele>2174.4</ele>
        <time>2022-08-02T13:44:34Z</time>
      </trkpt>
      <trkpt lat="42.9084" lon="0.14531">
        <ele>2175</ele>
        <time>2022-08-02T13:44:40Z</time>
      </trkpt>
      <trkpt lat="42.9084" lon="0.1453">
        <ele>2175.6</ele>
        <time>2022-08-02T13:44:45Z</time>
      </trkpt>
      <trkpt lat="42.90839" lon="0.14532">
        <ele>2175.7</ele>
        <time>2022-08-02T13:44:50Z</time>
      </trkpt>
      <trkpt lat="42.90839" lon="0.14532">
        <ele>2175.7</ele>
        <time>2022-08-02T13:44:56Z</time>
      </trkpt>
      <trkpt lat="42.90839" lon="0.14534">
        <ele>2177.1</ele>
        <time>2022-08-02T13:45:02Z</time>
      </trkpt>
      <trkpt lat="42.9084" lon="0.14532">
        <ele>2176.6</ele>
        <time>2022-08-02T13:45:07Z</time>
      </trkpt>
      <trkpt lat="42.90839" lon="0.14529">
        <ele>2174.3</ele>
        <time>2022-08-02T13:45:13Z</time>
      </trkpt>
      <trkpt lat="42.90835" lon="0.14529">
        <ele>2170.7</ele>
        <time>2022-08-02T13:45:18Z</time>
      </trkpt>
      <trkpt lat="42.90834" lon="0.14532">
        <ele>2171.5</ele>
        <time>2022-08-02T13:45:24Z</time>
      </trkpt>
      <trkpt lat="42.9083" lon="0.14533">
        <ele>2170.2</ele>
        <time>2022-08-02T13:45:30Z</time>
      </trkpt>
      <trkpt lat="42.90827" lon="0.14531">
        <ele>2170.5</ele>
        <time>2022-08-02T13:45:36Z</time>
      </trkpt>
      <trkpt lat="42.90827" lon="0.14531">
        <ele>2171.9</ele>
        <time>2022-08-02T13:45:41Z</time>
      </trkpt>
      <trkpt lat="42.90827" lon="0.14532">
        <ele>2171.2</ele>
        <time>2022-08-02T13:45:47Z</time>
      </trkpt>
      <trkpt lat="42.90828" lon="0.14533">
        <ele>2170.4</ele>
        <time>2022-08-02T13:45:52Z</time>
      </trkpt>
      <trkpt lat="42.90828" lon="0.14534">
        <ele>2169.7</ele>
        <time>2022-08-02T13:45:58Z</time>
      </trkpt>
      <trkpt lat="42.90827" lon="0.14533">
        <ele>2168.3</ele>
        <time>2022-08-02T13:46:03Z</time>
      </trkpt>
      <trkpt lat="42.90828" lon="0.14533">
        <ele>2168.9</ele>
        <time>2022-08-02T13:46:09Z</time>
      </trkpt>
      <trkpt lat="42.90829" lon="0.14533">
        <ele>2171.6</ele>
        <time>2022-08-02T13:46:14Z</time>
      </trkpt>
      <trkpt lat="42.90829" lon="0.14533">
        <ele>2171.7</ele>
        <time>2022-08-02T13:46:19Z</time>
      </trkpt>
      <trkpt lat="42.90828" lon="0.14536">
        <ele>2172.6</ele>
        <time>2022-08-02T13:46:25Z</time>
      </trkpt>
      <trkpt lat="42.90824" lon="0.14536">
        <ele>2170.5</ele>
        <time>2022-08-02T13:46:31Z</time>
      </trkpt>
      <trkpt lat="42.90822" lon="0.14534">
        <ele>2169.9</ele>
        <time>2022-08-02T13:46:36Z</time>
      </trkpt>
      <trkpt lat="42.90822" lon="0.14533">
        <ele>2169.9</ele>
        <time>2022-08-02T13:46:41Z</time>
      </trkpt>
      <trkpt lat="42.90822" lon="0.14533">
        <ele>2169.9</ele>
        <time>2022-08-02T13:46:47Z</time>
      </trkpt>
      <trkpt lat="42.90822" lon="0.14533">
        <ele>2169.9</ele>
        <time>2022-08-02T13:46:52Z</time>
      </trkpt>
      <trkpt lat="42.90823" lon="0.14534">
        <ele>2170.4</ele>
        <time>2022-08-02T13:46:58Z</time>
      </trkpt>
      <trkpt lat="42.90827" lon="0.14536">
        <ele>2170.6</ele>
        <time>2022-08-02T13:47:03Z</time>
      </trkpt>
      <trkpt lat="42.90829" lon="0.14536">
        <ele>2173.8</ele>
        <time>2022-08-02T13:47:09Z</time>
      </trkpt>
      <trkpt lat="42.90829" lon="0.14536">
        <ele>2173.8</ele>
        <time>2022-08-02T13:47:14Z</time>
      </trkpt>
      <trkpt lat="42.90829" lon="0.14536">
        <ele>2173.8</ele>
        <time>2022-08-02T13:47:20Z</time>
      </trkpt>
      <trkpt lat="42.9083" lon="0.14536">
        <ele>2173.5</ele>
        <time>2022-08-02T13:47:26Z</time>
      </trkpt>
      <trkpt lat="42.9083" lon="0.14535">
        <ele>2173.5</ele>
        <time>2022-08-02T13:47:32Z</time>
      </trkpt>
      <trkpt lat="42.9083" lon="0.14535">
        <ele>2173.5</ele>
        <time>2022-08-02T13:47:38Z</time>
      </trkpt>
      <trkpt lat="42.90831" lon="0.14535">
        <ele>2174.6</ele>
        <time>2022-08-02T13:47:43Z</time>
      </trkpt>
      <trkpt lat="42.90831" lon="0.14535">
        <ele>2175</ele>
        <time>2022-08-02T13:47:49Z</time>
      </trkpt>
      <trkpt lat="42.90831" lon="0.14535">
        <ele>2175.1</ele>
        <time>2022-08-02T13:47:54Z</time>
      </trkpt>
      <trkpt lat="42.90831" lon="0.14535">
        <ele>2175</ele>
        <time>2022-08-02T13:48:00Z</time>
      </trkpt>
      <trkpt lat="42.90831" lon="0.14535">
        <ele>2175</ele>
        <time>2022-08-02T13:48:05Z</time>
      </trkpt>
      <trkpt lat="42.90831" lon="0.14535">
        <ele>2175</ele>
        <time>2022-08-02T13:48:11Z</time>
      </trkpt>
      <trkpt lat="42.90831" lon="0.14534">
        <ele>2175.2</ele>
        <time>2022-08-02T13:48:16Z</time>
      </trkpt>
      <trkpt lat="42.90832" lon="0.14533">
        <ele>2175.2</ele>
        <time>2022-08-02T13:48:21Z</time>
      </trkpt>
      <trkpt lat="42.90832" lon="0.14532">
        <ele>2173.9</ele>
        <time>2022-08-02T13:48:27Z</time>
      </trkpt>
      <trkpt lat="42.90835" lon="0.14533">
        <ele>2174.1</ele>
        <time>2022-08-02T13:48:32Z</time>
      </trkpt>
      <trkpt lat="42.90838" lon="0.14534">
        <ele>2175.4</ele>
        <time>2022-08-02T13:48:38Z</time>
      </trkpt>
      <trkpt lat="42.9084" lon="0.14538">
        <ele>2173.8</ele>
        <time>2022-08-02T13:48:43Z</time>
      </trkpt>
      <trkpt lat="42.90852" lon="0.14563">
        <ele>2169.5</ele>
        <time>2022-08-02T13:48:48Z</time>
      </trkpt>
      <trkpt lat="42.90847" lon="0.14626">
        <ele>2163.1</ele>
        <time>2022-08-02T13:48:54Z</time>
      </trkpt>
      <trkpt lat="42.9081" lon="0.1467">
        <ele>2160.1</ele>
        <time>2022-08-02T13:49:00Z</time>
      </trkpt>
      <trkpt lat="42.90769" lon="0.14722">
        <ele>2154.7</ele>
        <time>2022-08-02T13:49:06Z</time>
      </trkpt>
      <trkpt lat="42.90719" lon="0.14768">
        <ele>2146</ele>
        <time>2022-08-02T13:49:12Z</time>
      </trkpt>
      <trkpt lat="42.90668" lon="0.14781">
        <ele>2140.6</ele>
        <time>2022-08-02T13:49:17Z</time>
      </trkpt>
      <trkpt lat="42.90613" lon="0.148">
        <ele>2135.2</ele>
        <time>2022-08-02T13:49:23Z</time>
      </trkpt>
      <trkpt lat="42.90608" lon="0.14832">
        <ele>2130.8</ele>
        <time>2022-08-02T13:49:28Z</time>
      </trkpt>
      <trkpt lat="42.90659" lon="0.14822">
        <ele>2124.8</ele>
        <time>2022-08-02T13:49:34Z</time>
      </trkpt>
      <trkpt lat="42.90709" lon="0.14854">
        <ele>2119.2</ele>
        <time>2022-08-02T13:49:39Z</time>
      </trkpt>
      <trkpt lat="42.90762" lon="0.14877">
        <ele>2113.4</ele>
        <time>2022-08-02T13:49:44Z</time>
      </trkpt>
      <trkpt lat="42.9082" lon="0.14894">
        <ele>2106.7</ele>
        <time>2022-08-02T13:49:50Z</time>
      </trkpt>
      <trkpt lat="42.90869" lon="0.14902">
        <ele>2102.7</ele>
        <time>2022-08-02T13:49:56Z</time>
      </trkpt>
      <trkpt lat="42.90862" lon="0.14973">
        <ele>2095.4</ele>
        <time>2022-08-02T13:50:02Z</time>
      </trkpt>
      <trkpt lat="42.90892" lon="0.15054">
        <ele>2087.5</ele>
        <time>2022-08-02T13:50:08Z</time>
      </trkpt>
      <trkpt lat="42.90906" lon="0.15132">
        <ele>2082.9</ele>
        <time>2022-08-02T13:50:13Z</time>
      </trkpt>
      <trkpt lat="42.90884" lon="0.1523">
        <ele>2074.4</ele>
        <time>2022-08-02T13:50:19Z</time>
      </trkpt>
      <trkpt lat="42.90851" lon="0.15318">
        <ele>2068.4</ele>
        <time>2022-08-02T13:50:25Z</time>
      </trkpt>
      <trkpt lat="42.90854" lon="0.154">
        <ele>2063</ele>
        <time>2022-08-02T13:50:31Z</time>
      </trkpt>
      <trkpt lat="42.90881" lon="0.1546">
        <ele>2059.4</ele>
        <time>2022-08-02T13:50:36Z</time>
      </trkpt>
      <trkpt lat="42.90937" lon="0.15494">
        <ele>2051.6</ele>
        <time>2022-08-02T13:50:42Z</time>
      </trkpt>
      <trkpt lat="42.90984" lon="0.15555">
        <ele>2046.7</ele>
        <time>2022-08-02T13:50:48Z</time>
      </trkpt>
      <trkpt lat="42.91019" lon="0.15594">
        <ele>2042.9</ele>
        <time>2022-08-02T13:50:53Z</time>
      </trkpt>
      <trkpt lat="42.90998" lon="0.15629">
        <ele>2038.1</ele>
        <time>2022-08-02T13:50:59Z</time>
      </trkpt>
      <trkpt lat="42.90961" lon="0.15601">
        <ele>2033.1</ele>
        <time>2022-08-02T13:51:04Z</time>
      </trkpt>
      <trkpt lat="42.90906" lon="0.15639">
        <ele>2028.3</ele>
        <time>2022-08-02T13:51:10Z</time>
      </trkpt>
      <trkpt lat="42.90854" lon="0.15629">
        <ele>2021</ele>
        <time>2022-08-02T13:51:16Z</time>
      </trkpt>
      <trkpt lat="42.90819" lon="0.15623">
        <ele>2015.9</ele>
        <time>2022-08-02T13:51:21Z</time>
      </trkpt>
      <trkpt lat="42.9078" lon="0.15583">
        <ele>2011.2</ele>
        <time>2022-08-02T13:51:27Z</time>
      </trkpt>
      <trkpt lat="42.9074" lon="0.15558">
        <ele>2009</ele>
        <time>2022-08-02T13:51:32Z</time>
      </trkpt>
      <trkpt lat="42.907" lon="0.15508">
        <ele>2005.4</ele>
        <time>2022-08-02T13:51:38Z</time>
      </trkpt>
      <trkpt lat="42.90679" lon="0.15445">
        <ele>2000</ele>
        <time>2022-08-02T13:51:44Z</time>
      </trkpt>
      <trkpt lat="42.90677" lon="0.15395">
        <ele>1996.8</ele>
        <time>2022-08-02T13:51:50Z</time>
      </trkpt>
      <trkpt lat="42.90655" lon="0.15416">
        <ele>1991.1</ele>
        <time>2022-08-02T13:51:55Z</time>
      </trkpt>
      <trkpt lat="42.90653" lon="0.1548">
        <ele>1987.5</ele>
        <time>2022-08-02T13:52:01Z</time>
      </trkpt>
      <trkpt lat="42.90662" lon="0.15546">
        <ele>1983.9</ele>
        <time>2022-08-02T13:52:06Z</time>
      </trkpt>
      <trkpt lat="42.90676" lon="0.1562">
        <ele>1977.5</ele>
        <time>2022-08-02T13:52:11Z</time>
      </trkpt>
      <trkpt lat="42.90703" lon="0.15692">
        <ele>1972.7</ele>
        <time>2022-08-02T13:52:16Z</time>
      </trkpt>
      <trkpt lat="42.90739" lon="0.1576">
        <ele>1968.8</ele>
        <time>2022-08-02T13:52:21Z</time>
      </trkpt>
      <trkpt lat="42.90776" lon="0.15828">
        <ele>1962.3</ele>
        <time>2022-08-02T13:52:26Z</time>
      </trkpt>
      <trkpt lat="42.90831" lon="0.15907">
        <ele>1953.2</ele>
        <time>2022-08-02T13:52:32Z</time>
      </trkpt>
      <trkpt lat="42.90864" lon="0.15989">
        <ele>1946.5</ele>
        <time>2022-08-02T13:52:37Z</time>
      </trkpt>
      <trkpt lat="42.90881" lon="0.16104">
        <ele>1937</ele>
        <time>2022-08-02T13:52:43Z</time>
      </trkpt>
      <trkpt lat="42.9091" lon="0.16209">
        <ele>1930.5</ele>
        <time>2022-08-02T13:52:49Z</time>
      </trkpt>
      <trkpt lat="42.90951" lon="0.16307">
        <ele>1920.2</ele>
        <time>2022-08-02T13:52:55Z</time>
      </trkpt>
      <trkpt lat="42.90969" lon="0.16397">
        <ele>1910.7</ele>
        <time>2022-08-02T13:53:00Z</time>
      </trkpt>
      <trkpt lat="42.90965" lon="0.16511">
        <ele>1901.9</ele>
        <time>2022-08-02T13:53:06Z</time>
      </trkpt>
      <trkpt lat="42.9095" lon="0.16603">
        <ele>1896.8</ele>
        <time>2022-08-02T13:53:11Z</time>
      </trkpt>
      <trkpt lat="42.90948" lon="0.16694">
        <ele>1889.8</ele>
        <time>2022-08-02T13:53:16Z</time>
      </trkpt>
      <trkpt lat="42.90966" lon="0.16784">
        <ele>1884.5</ele>
        <time>2022-08-02T13:53:22Z</time>
      </trkpt>
      <trkpt lat="42.90997" lon="0.16871">
        <ele>1877.2</ele>
        <time>2022-08-02T13:53:28Z</time>
      </trkpt>
      <trkpt lat="42.91028" lon="0.16942">
        <ele>1872.8</ele>
        <time>2022-08-02T13:53:33Z</time>
      </trkpt>
      <trkpt lat="42.91034" lon="0.17035">
        <ele>1870.5</ele>
        <time>2022-08-02T13:53:39Z</time>
      </trkpt>
      <trkpt lat="42.91034" lon="0.17132">
        <ele>1864.5</ele>
        <time>2022-08-02T13:53:45Z</time>
      </trkpt>
      <trkpt lat="42.91031" lon="0.17214">
        <ele>1859.6</ele>
        <time>2022-08-02T13:53:50Z</time>
      </trkpt>
      <trkpt lat="42.9103" lon="0.17318">
        <ele>1852.5</ele>
        <time>2022-08-02T13:53:56Z</time>
      </trkpt>
      <trkpt lat="42.91055" lon="0.17417">
        <ele>1844.7</ele>
        <time>2022-08-02T13:54:02Z</time>
      </trkpt>
      <trkpt lat="42.9106" lon="0.17518">
        <ele>1837</ele>
        <time>2022-08-02T13:54:08Z</time>
      </trkpt>
      <trkpt lat="42.9106" lon="0.17599">
        <ele>1832.2</ele>
        <time>2022-08-02T13:54:14Z</time>
      </trkpt>
      <trkpt lat="42.91077" lon="0.17659">
        <ele>1826.8</ele>
        <time>2022-08-02T13:54:19Z</time>
      </trkpt>
      <trkpt lat="42.91102" lon="0.17717">
        <ele>1825.5</ele>
        <time>2022-08-02T13:54:25Z</time>
      </trkpt>
      <trkpt lat="42.9111" lon="0.17765">
        <ele>1819.9</ele>
        <time>2022-08-02T13:54:30Z</time>
      </trkpt>
      <trkpt lat="42.91113" lon="0.17826">
        <ele>1815.7</ele>
        <time>2022-08-02T13:54:36Z</time>
      </trkpt>
      <trkpt lat="42.91104" lon="0.17874">
        <ele>1811.4</ele>
        <time>2022-08-02T13:54:41Z</time>
      </trkpt>
      <trkpt lat="42.91074" lon="0.17903">
        <ele>1808.5</ele>
        <time>2022-08-02T13:54:47Z</time>
      </trkpt>
      <trkpt lat="42.91052" lon="0.17914">
        <ele>1803</ele>
        <time>2022-08-02T13:54:52Z</time>
      </trkpt>
      <trkpt lat="42.91035" lon="0.1792">
        <ele>1797.8</ele>
        <time>2022-08-02T13:54:58Z</time>
      </trkpt>
      <trkpt lat="42.91026" lon="0.17926">
        <ele>1796.1</ele>
        <time>2022-08-02T13:55:03Z</time>
      </trkpt>
      <trkpt lat="42.91017" lon="0.17939">
        <ele>1797.5</ele>
        <time>2022-08-02T13:55:09Z</time>
      </trkpt>
      <trkpt lat="42.91013" lon="0.17948">
        <ele>1798.7</ele>
        <time>2022-08-02T13:55:14Z</time>
      </trkpt>
      <trkpt lat="42.91011" lon="0.17955">
        <ele>1798.3</ele>
        <time>2022-08-02T13:55:20Z</time>
      </trkpt>
      <trkpt lat="42.91008" lon="0.17984">
        <ele>1794.4</ele>
        <time>2022-08-02T13:55:25Z</time>
      </trkpt>
      <trkpt lat="42.91014" lon="0.18031">
        <ele>1790.9</ele>
        <time>2022-08-02T13:55:30Z</time>
      </trkpt>
      <trkpt lat="42.91026" lon="0.18104">
        <ele>1786.7</ele>
        <time>2022-08-02T13:55:36Z</time>
      </trkpt>
      <trkpt lat="42.91044" lon="0.18158">
        <ele>1782.8</ele>
        <time>2022-08-02T13:55:41Z</time>
      </trkpt>
      <trkpt lat="42.91065" lon="0.18195">
        <ele>1776.7</ele>
        <time>2022-08-02T13:55:46Z</time>
      </trkpt>
      <trkpt lat="42.91091" lon="0.18237">
        <ele>1774</ele>
        <time>2022-08-02T13:55:52Z</time>
      </trkpt>
      <trkpt lat="42.91112" lon="0.18302">
        <ele>1769.1</ele>
        <time>2022-08-02T13:55:58Z</time>
      </trkpt>
      <trkpt lat="42.91134" lon="0.18358">
        <ele>1764.9</ele>
        <time>2022-08-02T13:56:03Z</time>
      </trkpt>
      <trkpt lat="42.91177" lon="0.18408">
        <ele>1756.2</ele>
        <time>2022-08-02T13:56:09Z</time>
      </trkpt>
      <trkpt lat="42.91236" lon="0.18427">
        <ele>1750.3</ele>
        <time>2022-08-02T13:56:15Z</time>
      </trkpt>
      <trkpt lat="42.91279" lon="0.18464">
        <ele>1742.6</ele>
        <time>2022-08-02T13:56:20Z</time>
      </trkpt>
      <trkpt lat="42.91303" lon="0.18507">
        <ele>1739.7</ele>
        <time>2022-08-02T13:56:25Z</time>
      </trkpt>
      <trkpt lat="42.91336" lon="0.18601">
        <ele>1734.4</ele>
        <time>2022-08-02T13:56:31Z</time>
      </trkpt>
      <trkpt lat="42.9136" lon="0.18663">
        <ele>1734.2</ele>
        <time>2022-08-02T13:56:36Z</time>
      </trkpt>
      <trkpt lat="42.91417" lon="0.1868">
        <ele>1733</ele>
        <time>2022-08-02T13:56:42Z</time>
      </trkpt>
      <trkpt lat="42.91466" lon="0.18681">
        <ele>1728.2</ele>
        <time>2022-08-02T13:56:47Z</time>
      </trkpt>
      <trkpt lat="42.91513" lon="0.18722">
        <ele>1728.3</ele>
        <time>2022-08-02T13:56:53Z</time>
      </trkpt>
      <trkpt lat="42.91557" lon="0.18718">
        <ele>1716.2</ele>
        <time>2022-08-02T13:56:58Z</time>
      </trkpt>
      <trkpt lat="42.91598" lon="0.18738">
        <ele>1704.8</ele>
        <time>2022-08-02T13:57:03Z</time>
      </trkpt>
      <trkpt lat="42.91631" lon="0.18817">
        <ele>1701.8</ele>
        <time>2022-08-02T13:57:09Z</time>
      </trkpt>
      <trkpt lat="42.91688" lon="0.18861">
        <ele>1691.5</ele>
        <time>2022-08-02T13:57:14Z</time>
      </trkpt>
      <trkpt lat="42.91749" lon="0.1892">
        <ele>1684.9</ele>
        <time>2022-08-02T13:57:20Z</time>
      </trkpt>
      <trkpt lat="42.91796" lon="0.18983">
        <ele>1676.6</ele>
        <time>2022-08-02T13:57:25Z</time>
      </trkpt>
      <trkpt lat="42.91855" lon="0.19033">
        <ele>1668.2</ele>
        <time>2022-08-02T13:57:30Z</time>
      </trkpt>
      <trkpt lat="42.91924" lon="0.19096">
        <ele>1658.4</ele>
        <time>2022-08-02T13:57:36Z</time>
      </trkpt>
      <trkpt lat="42.9196" lon="0.19165">
        <ele>1651</ele>
        <time>2022-08-02T13:57:41Z</time>
      </trkpt>
      <trkpt lat="42.91972" lon="0.19269">
        <ele>1641.2</ele>
        <time>2022-08-02T13:57:47Z</time>
      </trkpt>
      <trkpt lat="42.91977" lon="0.19363">
        <ele>1634</ele>
        <time>2022-08-02T13:57:52Z</time>
      </trkpt>
      <trkpt lat="42.91987" lon="0.19475">
        <ele>1633</ele>
        <time>2022-08-02T13:57:58Z</time>
      </trkpt>
      <trkpt lat="42.91998" lon="0.1957">
        <ele>1633</ele>
        <time>2022-08-02T13:58:03Z</time>
      </trkpt>
      <trkpt lat="42.92075" lon="0.19663">
        <ele>1626.4</ele>
        <time>2022-08-02T13:58:08Z</time>
      </trkpt>
      <trkpt lat="42.92125" lon="0.19766">
        <ele>1608.3</ele>
        <time>2022-08-02T13:58:14Z</time>
      </trkpt>
      <trkpt lat="42.92165" lon="0.19845">
        <ele>1598.7</ele>
        <time>2022-08-02T13:58:19Z</time>
      </trkpt>
      <trkpt lat="42.92203" lon="0.19932">
        <ele>1589.5</ele>
        <time>2022-08-02T13:58:24Z</time>
      </trkpt>
      <trkpt lat="42.92238" lon="0.20026">
        <ele>1581.6</ele>
        <time>2022-08-02T13:58:29Z</time>
      </trkpt>
      <trkpt lat="42.92249" lon="0.20121">
        <ele>1577</ele>
        <time>2022-08-02T13:58:35Z</time>
      </trkpt>
      <trkpt lat="42.92216" lon="0.20208">
        <ele>1574</ele>
        <time>2022-08-02T13:58:41Z</time>
      </trkpt>
      <trkpt lat="42.92179" lon="0.20306">
        <ele>1570</ele>
        <time>2022-08-02T13:58:47Z</time>
      </trkpt>
      <trkpt lat="42.92136" lon="0.20401">
        <ele>1560</ele>
        <time>2022-08-02T13:58:53Z</time>
      </trkpt>
      <trkpt lat="42.92084" lon="0.20473">
        <ele>1551.2</ele>
        <time>2022-08-02T13:58:58Z</time>
      </trkpt>
      <trkpt lat="42.92021" lon="0.20548">
        <ele>1540</ele>
        <time>2022-08-02T13:59:04Z</time>
      </trkpt>
      <trkpt lat="42.91969" lon="0.2061">
        <ele>1533.4</ele>
        <time>2022-08-02T13:59:09Z</time>
      </trkpt>
      <trkpt lat="42.91924" lon="0.20678">
        <ele>1527.6</ele>
        <time>2022-08-02T13:59:14Z</time>
      </trkpt>
      <trkpt lat="42.91858" lon="0.20755">
        <ele>1516.7</ele>
        <time>2022-08-02T13:59:20Z</time>
      </trkpt>
      <trkpt lat="42.9179" lon="0.20823">
        <ele>1509.1</ele>
        <time>2022-08-02T13:59:26Z</time>
      </trkpt>
      <trkpt lat="42.91745" lon="0.20866">
        <ele>1503</ele>
        <time>2022-08-02T13:59:31Z</time>
      </trkpt>
      <trkpt lat="42.91703" lon="0.20908">
        <ele>1495.5</ele>
        <time>2022-08-02T13:59:37Z</time>
      </trkpt>
      <trkpt lat="42.91697" lon="0.20952">
        <ele>1490.3</ele>
        <time>2022-08-02T13:59:42Z</time>
      </trkpt>
      <trkpt lat="42.91739" lon="0.20939">
        <ele>1485.5</ele>
        <time>2022-08-02T13:59:48Z</time>
      </trkpt>
      <trkpt lat="42.91779" lon="0.20895">
        <ele>1482.1</ele>
        <time>2022-08-02T13:59:53Z</time>
      </trkpt>
      <trkpt lat="42.91836" lon="0.20849">
        <ele>1475</ele>
        <time>2022-08-02T13:59:59Z</time>
      </trkpt>
      <trkpt lat="42.91899" lon="0.20846">
        <ele>1470</ele>
        <time>2022-08-02T14:00:05Z</time>
      </trkpt>
      <trkpt lat="42.91951" lon="0.20805">
        <ele>1463.6</ele>
        <time>2022-08-02T14:00:10Z</time>
      </trkpt>
      <trkpt lat="42.92007" lon="0.20764">
        <ele>1459.2</ele>
        <time>2022-08-02T14:00:15Z</time>
      </trkpt>
      <trkpt lat="42.9208" lon="0.20713">
        <ele>1452.5</ele>
        <time>2022-08-02T14:00:21Z</time>
      </trkpt>
      <trkpt lat="42.92145" lon="0.20674">
        <ele>1446.5</ele>
        <time>2022-08-02T14:00:26Z</time>
      </trkpt>
      <trkpt lat="42.92214" lon="0.20611">
        <ele>1432.5</ele>
        <time>2022-08-02T14:00:32Z</time>
      </trkpt>
      <trkpt lat="42.92287" lon="0.20567">
        <ele>1423.7</ele>
        <time>2022-08-02T14:00:38Z</time>
      </trkpt>
      <trkpt lat="42.92328" lon="0.20499">
        <ele>1415.9</ele>
        <time>2022-08-02T14:00:43Z</time>
      </trkpt>
      <trkpt lat="42.92369" lon="0.20436">
        <ele>1408.6</ele>
        <time>2022-08-02T14:00:48Z</time>
      </trkpt>
      <trkpt lat="42.92409" lon="0.20351">
        <ele>1401.8</ele>
        <time>2022-08-02T14:00:54Z</time>
      </trkpt>
      <trkpt lat="42.9244" lon="0.20273">
        <ele>1398.2</ele>
        <time>2022-08-02T14:00:59Z</time>
      </trkpt>
      <trkpt lat="42.92453" lon="0.20161">
        <ele>1393.1</ele>
        <time>2022-08-02T14:01:05Z</time>
      </trkpt>
      <trkpt lat="42.92476" lon="0.20055">
        <ele>1390</ele>
        <time>2022-08-02T14:01:11Z</time>
      </trkpt>
      <trkpt lat="42.92479" lon="0.19942">
        <ele>1386.2</ele>
        <time>2022-08-02T14:01:17Z</time>
      </trkpt>
      <trkpt lat="42.92478" lon="0.19853">
        <ele>1383.5</ele>
        <time>2022-08-02T14:01:22Z</time>
      </trkpt>
      <trkpt lat="42.92471" lon="0.19784">
        <ele>1380.9</ele>
        <time>2022-08-02T14:01:27Z</time>
      </trkpt>
      <trkpt lat="42.92515" lon="0.19771">
        <ele>1368.4</ele>
        <time>2022-08-02T14:01:33Z</time>
      </trkpt>
      <trkpt lat="42.9257" lon="0.19739">
        <ele>1360.5</ele>
        <time>2022-08-02T14:01:39Z</time>
      </trkpt>
      <trkpt lat="42.92613" lon="0.19733">
        <ele>1352.7</ele>
        <time>2022-08-02T14:01:45Z</time>
      </trkpt>
      <trkpt lat="42.92651" lon="0.19801">
        <ele>1347.2</ele>
        <time>2022-08-02T14:01:51Z</time>
      </trkpt>
      <trkpt lat="42.92702" lon="0.19861">
        <ele>1337.8</ele>
        <time>2022-08-02T14:01:57Z</time>
      </trkpt>
      <trkpt lat="42.92733" lon="0.19935">
        <ele>1330.3</ele>
        <time>2022-08-02T14:02:03Z</time>
      </trkpt>
      <trkpt lat="42.92787" lon="0.20001">
        <ele>1323.5</ele>
        <time>2022-08-02T14:02:09Z</time>
      </trkpt>
      <trkpt lat="42.92845" lon="0.20078">
        <ele>1316.5</ele>
        <time>2022-08-02T14:02:15Z</time>
      </trkpt>
      <trkpt lat="42.92907" lon="0.20151">
        <ele>1307.6</ele>
        <time>2022-08-02T14:02:21Z</time>
      </trkpt>
      <trkpt lat="42.92979" lon="0.20197">
        <ele>1299.8</ele>
        <time>2022-08-02T14:02:27Z</time>
      </trkpt>
      <trkpt lat="42.93042" lon="0.20264">
        <ele>1294.2</ele>
        <time>2022-08-02T14:02:33Z</time>
      </trkpt>
      <trkpt lat="42.9309" lon="0.2035">
        <ele>1287.8</ele>
        <time>2022-08-02T14:02:39Z</time>
      </trkpt>
      <trkpt lat="42.93153" lon="0.20411">
        <ele>1280.2</ele>
        <time>2022-08-02T14:02:45Z</time>
      </trkpt>
      <trkpt lat="42.93221" lon="0.20456">
        <ele>1273.2</ele>
        <time>2022-08-02T14:02:51Z</time>
      </trkpt>
      <trkpt lat="42.93285" lon="0.20507">
        <ele>1266.2</ele>
        <time>2022-08-02T14:02:57Z</time>
      </trkpt>
      <trkpt lat="42.93344" lon="0.20571">
        <ele>1258.2</ele>
        <time>2022-08-02T14:03:03Z</time>
      </trkpt>
      <trkpt lat="42.93395" lon="0.20629">
        <ele>1253.2</ele>
        <time>2022-08-02T14:03:08Z</time>
      </trkpt>
      <trkpt lat="42.93445" lon="0.20717">
        <ele>1245.8</ele>
        <time>2022-08-02T14:03:14Z</time>
      </trkpt>
      <trkpt lat="42.93499" lon="0.20795">
        <ele>1237.3</ele>
        <time>2022-08-02T14:03:20Z</time>
      </trkpt>
      <trkpt lat="42.93545" lon="0.20836">
        <ele>1228.5</ele>
        <time>2022-08-02T14:03:25Z</time>
      </trkpt>
      <trkpt lat="42.93603" lon="0.20879">
        <ele>1222.9</ele>
        <time>2022-08-02T14:03:31Z</time>
      </trkpt>
      <trkpt lat="42.93644" lon="0.2086">
        <ele>1219.8</ele>
        <time>2022-08-02T14:03:37Z</time>
      </trkpt>
      <trkpt lat="42.93657" lon="0.20906">
        <ele>1218.3</ele>
        <time>2022-08-02T14:03:42Z</time>
      </trkpt>
      <trkpt lat="42.93692" lon="0.20953">
        <ele>1212.8</ele>
        <time>2022-08-02T14:03:48Z</time>
      </trkpt>
      <trkpt lat="42.93748" lon="0.20999">
        <ele>1207</ele>
        <time>2022-08-02T14:03:54Z</time>
      </trkpt>
      <trkpt lat="42.93792" lon="0.21075">
        <ele>1201.4</ele>
        <time>2022-08-02T14:04:00Z</time>
      </trkpt>
      <trkpt lat="42.93837" lon="0.21128">
        <ele>1197.4</ele>
        <time>2022-08-02T14:04:05Z</time>
      </trkpt>
      <trkpt lat="42.93887" lon="0.21206">
        <ele>1189.6</ele>
        <time>2022-08-02T14:04:11Z</time>
      </trkpt>
      <trkpt lat="42.93935" lon="0.21284">
        <ele>1181.9</ele>
        <time>2022-08-02T14:04:16Z</time>
      </trkpt>
      <trkpt lat="42.94003" lon="0.21343">
        <ele>1175.5</ele>
        <time>2022-08-02T14:04:22Z</time>
      </trkpt>
      <trkpt lat="42.94066" lon="0.21407">
        <ele>1166.8</ele>
        <time>2022-08-02T14:04:28Z</time>
      </trkpt>
      <trkpt lat="42.94128" lon="0.21484">
        <ele>1158.4</ele>
        <time>2022-08-02T14:04:34Z</time>
      </trkpt>
      <trkpt lat="42.94167" lon="0.21564">
        <ele>1155.4</ele>
        <time>2022-08-02T14:04:40Z</time>
      </trkpt>
      <trkpt lat="42.94184" lon="0.21616">
        <ele>1148</ele>
        <time>2022-08-02T14:04:45Z</time>
      </trkpt>
      <trkpt lat="42.94225" lon="0.21658">
        <ele>1141.5</ele>
        <time>2022-08-02T14:04:51Z</time>
      </trkpt>
      <trkpt lat="42.94259" lon="0.21721">
        <ele>1134.8</ele>
        <time>2022-08-02T14:04:57Z</time>
      </trkpt>
      <trkpt lat="42.943" lon="0.21777">
        <ele>1131.1</ele>
        <time>2022-08-02T14:05:03Z</time>
      </trkpt>
      <trkpt lat="42.94343" lon="0.21836">
        <ele>1125.6</ele>
        <time>2022-08-02T14:05:09Z</time>
      </trkpt>
      <trkpt lat="42.94392" lon="0.21898">
        <ele>1121.3</ele>
        <time>2022-08-02T14:05:15Z</time>
      </trkpt>
      <trkpt lat="42.9444" lon="0.21959">
        <ele>1114.2</ele>
        <time>2022-08-02T14:05:21Z</time>
      </trkpt>
      <trkpt lat="42.9449" lon="0.21997">
        <ele>1108.9</ele>
        <time>2022-08-02T14:05:26Z</time>
      </trkpt>
      <trkpt lat="42.94545" lon="0.22063">
        <ele>1104</ele>
        <time>2022-08-02T14:05:32Z</time>
      </trkpt>
      <trkpt lat="42.94592" lon="0.22133">
        <ele>1099.7</ele>
        <time>2022-08-02T14:05:38Z</time>
      </trkpt>
      <trkpt lat="42.94651" lon="0.22161">
        <ele>1092</ele>
        <time>2022-08-02T14:05:44Z</time>
      </trkpt>
      <trkpt lat="42.94671" lon="0.22231">
        <ele>1086.8</ele>
        <time>2022-08-02T14:05:49Z</time>
      </trkpt>
      <trkpt lat="42.94698" lon="0.22319">
        <ele>1082.1</ele>
        <time>2022-08-02T14:05:55Z</time>
      </trkpt>
      <trkpt lat="42.94736" lon="0.22373">
        <ele>1080.1</ele>
        <time>2022-08-02T14:06:00Z</time>
      </trkpt>
      <trkpt lat="42.94793" lon="0.22417">
        <ele>1076.2</ele>
        <time>2022-08-02T14:06:06Z</time>
      </trkpt>
      <trkpt lat="42.9485" lon="0.22447">
        <ele>1076.3</ele>
        <time>2022-08-02T14:06:12Z</time>
      </trkpt>
      <trkpt lat="42.94902" lon="0.22482">
        <ele>1070.7</ele>
        <time>2022-08-02T14:06:18Z</time>
      </trkpt>
      <trkpt lat="42.94942" lon="0.22546">
        <ele>1067</ele>
        <time>2022-08-02T14:06:24Z</time>
      </trkpt>
      <trkpt lat="42.94996" lon="0.22564">
        <ele>1062.4</ele>
        <time>2022-08-02T14:06:29Z</time>
      </trkpt>
      <trkpt lat="42.95064" lon="0.226">
        <ele>1057.3</ele>
        <time>2022-08-02T14:06:35Z</time>
      </trkpt>
      <trkpt lat="42.95127" lon="0.22638">
        <ele>1054.1</ele>
        <time>2022-08-02T14:06:41Z</time>
      </trkpt>
      <trkpt lat="42.95178" lon="0.22678">
        <ele>1051.8</ele>
        <time>2022-08-02T14:06:47Z</time>
      </trkpt>
      <trkpt lat="42.95214" lon="0.22709">
        <ele>1049.7</ele>
        <time>2022-08-02T14:06:52Z</time>
      </trkpt>
      <trkpt lat="42.95251" lon="0.22735">
        <ele>1049.2</ele>
        <time>2022-08-02T14:06:57Z</time>
      </trkpt>
      <trkpt lat="42.95302" lon="0.22761">
        <ele>1046.9</ele>
        <time>2022-08-02T14:07:03Z</time>
      </trkpt>
      <trkpt lat="42.95355" lon="0.22787">
        <ele>1045.1</ele>
        <time>2022-08-02T14:07:09Z</time>
      </trkpt>
      <trkpt lat="42.95401" lon="0.22798">
        <ele>1042.6</ele>
        <time>2022-08-02T14:07:14Z</time>
      </trkpt>
      <trkpt lat="42.95451" lon="0.228">
        <ele>1041.8</ele>
        <time>2022-08-02T14:07:19Z</time>
      </trkpt>
      <trkpt lat="42.95505" lon="0.22802">
        <ele>1041.3</ele>
        <time>2022-08-02T14:07:25Z</time>
      </trkpt>
      <trkpt lat="42.95546" lon="0.228">
        <ele>1038.7</ele>
        <time>2022-08-02T14:07:30Z</time>
      </trkpt>
      <trkpt lat="42.9559" lon="0.22795">
        <ele>1033.8</ele>
        <time>2022-08-02T14:07:35Z</time>
      </trkpt>
      <trkpt lat="42.95636" lon="0.22805">
        <ele>1032.6</ele>
        <time>2022-08-02T14:07:40Z</time>
      </trkpt>
      <trkpt lat="42.95692" lon="0.22828">
        <ele>1029.4</ele>
        <time>2022-08-02T14:07:46Z</time>
      </trkpt>
      <trkpt lat="42.95741" lon="0.22849">
        <ele>1024.9</ele>
        <time>2022-08-02T14:07:51Z</time>
      </trkpt>
      <trkpt lat="42.95788" lon="0.22871">
        <ele>1022.1</ele>
        <time>2022-08-02T14:07:56Z</time>
      </trkpt>
      <trkpt lat="42.95842" lon="0.22874">
        <ele>1019.7</ele>
        <time>2022-08-02T14:08:02Z</time>
      </trkpt>
      <trkpt lat="42.95889" lon="0.22899">
        <ele>1019.7</ele>
        <time>2022-08-02T14:08:08Z</time>
      </trkpt>
      <trkpt lat="42.95926" lon="0.22927">
        <ele>1016.1</ele>
        <time>2022-08-02T14:08:13Z</time>
      </trkpt>
      <trkpt lat="42.95965" lon="0.22963">
        <ele>1016.2</ele>
        <time>2022-08-02T14:08:19Z</time>
      </trkpt>
      <trkpt lat="42.95998" lon="0.2299">
        <ele>1013.8</ele>
        <time>2022-08-02T14:08:24Z</time>
      </trkpt>
      <trkpt lat="42.96034" lon="0.23011">
        <ele>1012.6</ele>
        <time>2022-08-02T14:08:29Z</time>
      </trkpt>
      <trkpt lat="42.96082" lon="0.23022">
        <ele>1010.7</ele>
        <time>2022-08-02T14:08:35Z</time>
      </trkpt>
      <trkpt lat="42.96133" lon="0.2303">
        <ele>1008.5</ele>
        <time>2022-08-02T14:08:41Z</time>
      </trkpt>
      <trkpt lat="42.96185" lon="0.23032">
        <ele>1005.4</ele>
        <time>2022-08-02T14:08:47Z</time>
      </trkpt>
      <trkpt lat="42.96242" lon="0.23042">
        <ele>1001</ele>
        <time>2022-08-02T14:08:53Z</time>
      </trkpt>
      <trkpt lat="42.96289" lon="0.2304">
        <ele>997.8</ele>
        <time>2022-08-02T14:08:58Z</time>
      </trkpt>
      <trkpt lat="42.96345" lon="0.23035">
        <ele>995.2</ele>
        <time>2022-08-02T14:09:04Z</time>
      </trkpt>
      <trkpt lat="42.96394" lon="0.23034">
        <ele>995.4</ele>
        <time>2022-08-02T14:09:10Z</time>
      </trkpt>
      <trkpt lat="42.96438" lon="0.23032">
        <ele>995</ele>
        <time>2022-08-02T14:09:16Z</time>
      </trkpt>
      <trkpt lat="42.9647" lon="0.23032">
        <ele>996</ele>
        <time>2022-08-02T14:09:21Z</time>
      </trkpt>
      <trkpt lat="42.96508" lon="0.23038">
        <ele>994.2</ele>
        <time>2022-08-02T14:09:27Z</time>
      </trkpt>
      <trkpt lat="42.96544" lon="0.23042">
        <ele>996.3</ele>
        <time>2022-08-02T14:09:33Z</time>
      </trkpt>
      <trkpt lat="42.96565" lon="0.23046">
        <ele>996.6</ele>
        <time>2022-08-02T14:09:39Z</time>
      </trkpt>
      <trkpt lat="42.96564" lon="0.23046">
        <ele>997</ele>
        <time>2022-08-02T14:09:44Z</time>
      </trkpt>
      <trkpt lat="42.96563" lon="0.23045">
        <ele>995.9</ele>
        <time>2022-08-02T14:09:50Z</time>
      </trkpt>
      <trkpt lat="42.96563" lon="0.23047">
        <ele>996.2</ele>
        <time>2022-08-02T14:09:56Z</time>
      </trkpt>
      <trkpt lat="42.96563" lon="0.23048">
        <ele>997.7</ele>
        <time>2022-08-02T14:10:01Z</time>
      </trkpt>
      <trkpt lat="42.96563" lon="0.23049">
        <ele>997.5</ele>
        <time>2022-08-02T14:10:07Z</time>
      </trkpt>
      <trkpt lat="42.96563" lon="0.23049">
        <ele>997.4</ele>
        <time>2022-08-02T14:10:13Z</time>
      </trkpt>
      <trkpt lat="42.96563" lon="0.23049">
        <ele>997.4</ele>
        <time>2022-08-02T14:10:18Z</time>
      </trkpt>
      <trkpt lat="42.96563" lon="0.23049">
        <ele>997.4</ele>
        <time>2022-08-02T14:10:23Z</time>
      </trkpt>
      <trkpt lat="42.96563" lon="0.23049">
        <ele>997.4</ele>
        <time>2022-08-02T14:10:28Z</time>
      </trkpt>
      <trkpt lat="42.96563" lon="0.23049">
        <ele>997.4</ele>
        <time>2022-08-02T14:10:34Z</time>
      </trkpt>
      <trkpt lat="42.96563" lon="0.23049">
        <ele>997.4</ele>
        <time>2022-08-02T14:10:39Z</time>
      </trkpt>
      <trkpt lat="42.96563" lon="0.23049">
        <ele>997.3</ele>
        <time>2022-08-02T14:10:44Z</time>
      </trkpt>
      <trkpt lat="42.96563" lon="0.23049">
        <ele>997.4</ele>
        <time>2022-08-02T14:10:49Z</time>
      </trkpt>
      <trkpt lat="42.96563" lon="0.2305">
        <ele>998.1</ele>
        <time>2022-08-02T14:10:55Z</time>
      </trkpt>
      <trkpt lat="42.96562" lon="0.23051">
        <ele>996.5</ele>
        <time>2022-08-02T14:11:01Z</time>
      </trkpt>
      <trkpt lat="42.96562" lon="0.23051">
        <ele>996.6</ele>
        <time>2022-08-02T14:11:06Z</time>
      </trkpt>
      <trkpt lat="42.96563" lon="0.2305">
        <ele>996.8</ele>
        <time>2022-08-02T14:11:11Z</time>
      </trkpt>
      <trkpt lat="42.96562" lon="0.23051">
        <ele>995.4</ele>
        <time>2022-08-02T14:11:17Z</time>
      </trkpt>
      <trkpt lat="42.96561" lon="0.23051">
        <ele>995.3</ele>
        <time>2022-08-02T14:11:22Z</time>
      </trkpt>
      <trkpt lat="42.96561" lon="0.23051">
        <ele>995</ele>
        <time>2022-08-02T14:11:28Z</time>
      </trkpt>
      <trkpt lat="42.96561" lon="0.23052">
        <ele>995.1</ele>
        <time>2022-08-02T14:11:33Z</time>
      </trkpt>
      <trkpt lat="42.96561" lon="0.23052">
        <ele>995.1</ele>
        <time>2022-08-02T14:11:39Z</time>
      </trkpt>
      <trkpt lat="42.96561" lon="0.23051">
        <ele>995.1</ele>
        <time>2022-08-02T14:11:44Z</time>
      </trkpt>
      <trkpt lat="42.96561" lon="0.23051">
        <ele>995.1</ele>
        <time>2022-08-02T14:11:49Z</time>
      </trkpt>
      <trkpt lat="42.96561" lon="0.23051">
        <ele>995.1</ele>
        <time>2022-08-02T14:11:54Z</time>
      </trkpt>
      <trkpt lat="42.96561" lon="0.23051">
        <ele>995</ele>
        <time>2022-08-02T14:11:59Z</time>
      </trkpt>
      <trkpt lat="42.9656" lon="0.23053">
        <ele>995.1</ele>
        <time>2022-08-02T14:12:04Z</time>
      </trkpt>
      <trkpt lat="42.9656" lon="0.23053">
        <ele>996.4</ele>
        <time>2022-08-02T14:12:10Z</time>
      </trkpt>
      <trkpt lat="42.96561" lon="0.23052">
        <ele>995.8</ele>
        <time>2022-08-02T14:12:16Z</time>
      </trkpt>
      <trkpt lat="42.96561" lon="0.23052">
        <ele>995.7</ele>
        <time>2022-08-02T14:12:21Z</time>
      </trkpt>
      <trkpt lat="42.96561" lon="0.23052">
        <ele>995.7</ele>
        <time>2022-08-02T14:12:27Z</time>
      </trkpt>
      <trkpt lat="42.96561" lon="0.23052">
        <ele>995.6</ele>
        <time>2022-08-02T14:12:33Z</time>
      </trkpt>
      <trkpt lat="42.96561" lon="0.2305">
        <ele>996.8</ele>
        <time>2022-08-02T14:12:39Z</time>
      </trkpt>
      <trkpt lat="42.96562" lon="0.23048">
        <ele>998.2</ele>
        <time>2022-08-02T14:12:44Z</time>
      </trkpt>
      <trkpt lat="42.96569" lon="0.23048">
        <ele>997.3</ele>
        <time>2022-08-02T14:12:49Z</time>
      </trkpt>
      <trkpt lat="42.96581" lon="0.23048">
        <ele>995.6</ele>
        <time>2022-08-02T14:12:54Z</time>
      </trkpt>
      <trkpt lat="42.96594" lon="0.23048">
        <ele>995.9</ele>
        <time>2022-08-02T14:13:00Z</time>
      </trkpt>
      <trkpt lat="42.96604" lon="0.2305">
        <ele>997.8</ele>
        <time>2022-08-02T14:13:06Z</time>
      </trkpt>
      <trkpt lat="42.96608" lon="0.23049">
        <ele>1000</ele>
        <time>2022-08-02T14:13:11Z</time>
      </trkpt>
      <trkpt lat="42.96608" lon="0.23049">
        <ele>999.7</ele>
        <time>2022-08-02T14:13:17Z</time>
      </trkpt>
      <trkpt lat="42.96608" lon="0.23049">
        <ele>999.7</ele>
        <time>2022-08-02T14:13:22Z</time>
      </trkpt>
      <trkpt lat="42.96608" lon="0.23049">
        <ele>999.8</ele>
        <time>2022-08-02T14:13:28Z</time>
      </trkpt>
      <trkpt lat="42.96608" lon="0.23049">
        <ele>999.7</ele>
        <time>2022-08-02T14:13:34Z</time>
      </trkpt>
      <trkpt lat="42.96608" lon="0.23049">
        <ele>999.6</ele>
        <time>2022-08-02T14:13:40Z</time>
      </trkpt>
      <trkpt lat="42.96608" lon="0.23049">
        <ele>999.6</ele>
        <time>2022-08-02T14:13:45Z</time>
      </trkpt>
      <trkpt lat="42.96608" lon="0.23049">
        <ele>999.7</ele>
        <time>2022-08-02T14:13:51Z</time>
      </trkpt>
      <trkpt lat="42.96608" lon="0.23049">
        <ele>999.7</ele>
        <time>2022-08-02T14:13:57Z</time>
      </trkpt>
      <trkpt lat="42.96608" lon="0.23049">
        <ele>999.7</ele>
        <time>2022-08-02T14:14:03Z</time>
      </trkpt>
      <trkpt lat="42.96608" lon="0.23049">
        <ele>999.7</ele>
        <time>2022-08-02T14:14:08Z</time>
      </trkpt>
      <trkpt lat="42.96608" lon="0.23048">
        <ele>999.8</ele>
        <time>2022-08-02T14:14:14Z</time>
      </trkpt>
      <trkpt lat="42.96608" lon="0.23048">
        <ele>999.8</ele>
        <time>2022-08-02T14:14:20Z</time>
      </trkpt>
      <trkpt lat="42.96608" lon="0.23048">
        <ele>999.7</ele>
        <time>2022-08-02T14:14:25Z</time>
      </trkpt>
      <trkpt lat="42.96608" lon="0.23048">
        <ele>999.8</ele>
        <time>2022-08-02T14:14:31Z</time>
      </trkpt>
      <trkpt lat="42.96608" lon="0.23048">
        <ele>999.9</ele>
        <time>2022-08-02T14:14:37Z</time>
      </trkpt>
      <trkpt lat="42.96608" lon="0.23048">
        <ele>999.9</ele>
        <time>2022-08-02T14:14:43Z</time>
      </trkpt>
      <trkpt lat="42.96608" lon="0.23048">
        <ele>999.9</ele>
        <time>2022-08-02T14:14:48Z</time>
      </trkpt>
      <trkpt lat="42.96608" lon="0.23048">
        <ele>999.9</ele>
        <time>2022-08-02T14:14:53Z</time>
      </trkpt>
      <trkpt lat="42.96608" lon="0.23048">
        <ele>999.9</ele>
        <time>2022-08-02T14:14:58Z</time>
      </trkpt>
      <trkpt lat="42.96608" lon="0.23048">
        <ele>1000</ele>
        <time>2022-08-02T14:15:04Z</time>
      </trkpt>
      <trkpt lat="42.96611" lon="0.2305">
        <ele>999.1</ele>
        <time>2022-08-02T14:15:10Z</time>
      </trkpt>
      <trkpt lat="42.96612" lon="0.23052">
        <ele>1001.8</ele>
        <time>2022-08-02T14:15:15Z</time>
      </trkpt>
      <trkpt lat="42.96612" lon="0.23052">
        <ele>1001.5</ele>
        <time>2022-08-02T14:15:21Z</time>
      </trkpt>
      <trkpt lat="42.96612" lon="0.23052">
        <ele>1001.5</ele>
        <time>2022-08-02T14:15:27Z</time>
      </trkpt>
      <trkpt lat="42.96612" lon="0.23053">
        <ele>1001.5</ele>
        <time>2022-08-02T14:15:32Z</time>
      </trkpt>
      <trkpt lat="42.96612" lon="0.23052">
        <ele>1001.4</ele>
        <time>2022-08-02T14:15:37Z</time>
      </trkpt>
      <trkpt lat="42.96612" lon="0.23052">
        <ele>1001.4</ele>
        <time>2022-08-02T14:15:43Z</time>
      </trkpt>
      <trkpt lat="42.96612" lon="0.23052">
        <ele>1001.3</ele>
        <time>2022-08-02T14:15:49Z</time>
      </trkpt>
      <trkpt lat="42.96612" lon="0.23052">
        <ele>1001.3</ele>
        <time>2022-08-02T14:15:54Z</time>
      </trkpt>
      <trkpt lat="42.96612" lon="0.23052">
        <ele>1001.2</ele>
        <time>2022-08-02T14:15:59Z</time>
      </trkpt>
      <trkpt lat="42.96612" lon="0.23052">
        <ele>1001.1</ele>
        <time>2022-08-02T14:16:04Z</time>
      </trkpt>
      <trkpt lat="42.96612" lon="0.23052">
        <ele>1001.1</ele>
        <time>2022-08-02T14:16:10Z</time>
      </trkpt>
      <trkpt lat="42.96612" lon="0.23053">
        <ele>1001.1</ele>
        <time>2022-08-02T14:16:15Z</time>
      </trkpt>
      <trkpt lat="42.96612" lon="0.23053">
        <ele>1001.1</ele>
        <time>2022-08-02T14:16:21Z</time>
      </trkpt>
      <trkpt lat="42.96612" lon="0.23052">
        <ele>1001.1</ele>
        <time>2022-08-02T14:16:27Z</time>
      </trkpt>
      <trkpt lat="42.96612" lon="0.23052">
        <ele>1001.2</ele>
        <time>2022-08-02T14:16:33Z</time>
      </trkpt>
      <trkpt lat="42.96612" lon="0.23052">
        <ele>1001.2</ele>
        <time>2022-08-02T14:16:38Z</time>
      </trkpt>
      <trkpt lat="42.96612" lon="0.23052">
        <ele>1001.1</ele>
        <time>2022-08-02T14:16:44Z</time>
      </trkpt>
      <trkpt lat="42.96612" lon="0.23052">
        <ele>1001</ele>
        <time>2022-08-02T14:16:49Z</time>
      </trkpt>
      <trkpt lat="42.96612" lon="0.23052">
        <ele>1001</ele>
        <time>2022-08-02T14:16:54Z</time>
      </trkpt>
      <trkpt lat="42.96612" lon="0.23052">
        <ele>1001</ele>
        <time>2022-08-02T14:17:00Z</time>
      </trkpt>
      <trkpt lat="42.96612" lon="0.23052">
        <ele>1001</ele>
        <time>2022-08-02T14:17:05Z</time>
      </trkpt>
      <trkpt lat="42.96612" lon="0.23052">
        <ele>1001</ele>
        <time>2022-08-02T14:17:11Z</time>
      </trkpt>
      <trkpt lat="42.96612" lon="0.23052">
        <ele>1001</ele>
        <time>2022-08-02T14:17:16Z</time>
      </trkpt>
      <trkpt lat="42.96612" lon="0.23052">
        <ele>1001</ele>
        <time>2022-08-02T14:17:21Z</time>
      </trkpt>
      <trkpt lat="42.96612" lon="0.23052">
        <ele>1000.9</ele>
        <time>2022-08-02T14:17:27Z</time>
      </trkpt>
      <trkpt lat="42.96612" lon="0.23052">
        <ele>1000.9</ele>
        <time>2022-08-02T14:17:32Z</time>
      </trkpt>
      <trkpt lat="42.96612" lon="0.23052">
        <ele>1000.9</ele>
        <time>2022-08-02T14:17:37Z</time>
      </trkpt>
      <trkpt lat="42.96612" lon="0.23052">
        <ele>1000.9</ele>
        <time>2022-08-02T14:17:43Z</time>
      </trkpt>
      <trkpt lat="42.96612" lon="0.23052">
        <ele>1000.9</ele>
        <time>2022-08-02T14:17:48Z</time>
      </trkpt>
      <trkpt lat="42.96612" lon="0.23052">
        <ele>1000.9</ele>
        <time>2022-08-02T14:17:54Z</time>
      </trkpt>
      <trkpt lat="42.96612" lon="0.23052">
        <ele>1000.8</ele>
        <time>2022-08-02T14:18:00Z</time>
      </trkpt>
      <trkpt lat="42.96612" lon="0.23052">
        <ele>1000.8</ele>
        <time>2022-08-02T14:18:06Z</time>
      </trkpt>
      <trkpt lat="42.96612" lon="0.23052">
        <ele>1000.9</ele>
        <time>2022-08-02T14:18:12Z</time>
      </trkpt>
      <trkpt lat="42.96612" lon="0.23052">
        <ele>1000.8</ele>
        <time>2022-08-02T14:18:17Z</time>
      </trkpt>
      <trkpt lat="42.96612" lon="0.23052">
        <ele>1000.8</ele>
        <time>2022-08-02T14:18:23Z</time>
      </trkpt>
      <trkpt lat="42.96612" lon="0.23052">
        <ele>1000.8</ele>
        <time>2022-08-02T14:18:28Z</time>
      </trkpt>
      <trkpt lat="42.96612" lon="0.23052">
        <ele>1000.8</ele>
        <time>2022-08-02T14:18:34Z</time>
      </trkpt>
      <trkpt lat="42.96612" lon="0.23052">
        <ele>1000.7</ele>
        <time>2022-08-02T14:18:40Z</time>
      </trkpt>
      <trkpt lat="42.96612" lon="0.23052">
        <ele>1000.7</ele>
        <time>2022-08-02T14:18:45Z</time>
      </trkpt>
      <trkpt lat="42.96612" lon="0.23052">
        <ele>1000.6</ele>
        <time>2022-08-02T14:18:50Z</time>
      </trkpt>
      <trkpt lat="42.96612" lon="0.23052">
        <ele>1000.7</ele>
        <time>2022-08-02T14:18:56Z</time>
      </trkpt>
      <trkpt lat="42.96612" lon="0.23052">
        <ele>1000.7</ele>
        <time>2022-08-02T14:19:02Z</time>
      </trkpt>
      <trkpt lat="42.96612" lon="0.23052">
        <ele>1000.6</ele>
        <time>2022-08-02T14:19:08Z</time>
      </trkpt>
      <trkpt lat="42.96612" lon="0.23052">
        <ele>1000.5</ele>
        <time>2022-08-02T14:19:14Z</time>
      </trkpt>
      <trkpt lat="42.96612" lon="0.23052">
        <ele>1000.6</ele>
        <time>2022-08-02T14:19:19Z</time>
      </trkpt>
      <trkpt lat="42.96612" lon="0.23052">
        <ele>1000.6</ele>
        <time>2022-08-02T14:19:25Z</time>
      </trkpt>
      <trkpt lat="42.96612" lon="0.23052">
        <ele>1000.5</ele>
        <time>2022-08-02T14:19:30Z</time>
      </trkpt>
      <trkpt lat="42.96612" lon="0.23052">
        <ele>1000.5</ele>
        <time>2022-08-02T14:19:36Z</time>
      </trkpt>
      <trkpt lat="42.96612" lon="0.23052">
        <ele>1000.6</ele>
        <time>2022-08-02T14:19:42Z</time>
      </trkpt>
      <trkpt lat="42.96612" lon="0.23052">
        <ele>1000.6</ele>
        <time>2022-08-02T14:19:48Z</time>
      </trkpt>
      <trkpt lat="42.96612" lon="0.23052">
        <ele>1000.6</ele>
        <time>2022-08-02T14:19:53Z</time>
      </trkpt>
      <trkpt lat="42.96612" lon="0.23052">
        <ele>1000.6</ele>
        <time>2022-08-02T14:19:59Z</time>
      </trkpt>
      <trkpt lat="42.96612" lon="0.23052">
        <ele>1000.6</ele>
        <time>2022-08-02T14:20:04Z</time>
      </trkpt>
      <trkpt lat="42.96612" lon="0.23052">
        <ele>1000.6</ele>
        <time>2022-08-02T14:20:10Z</time>
      </trkpt>
      <trkpt lat="42.96612" lon="0.23052">
        <ele>1000.6</ele>
        <time>2022-08-02T14:20:15Z</time>
      </trkpt>
      <trkpt lat="42.96612" lon="0.23052">
        <ele>1000.7</ele>
        <time>2022-08-02T14:20:21Z</time>
      </trkpt>
      <trkpt lat="42.96612" lon="0.23052">
        <ele>1000.7</ele>
        <time>2022-08-02T14:20:26Z</time>
      </trkpt>
      <trkpt lat="42.96612" lon="0.23052">
        <ele>1000.7</ele>
        <time>2022-08-02T14:20:32Z</time>
      </trkpt>
      <trkpt lat="42.96612" lon="0.23052">
        <ele>1000.7</ele>
        <time>2022-08-02T14:20:37Z</time>
      </trkpt>
      <trkpt lat="42.96612" lon="0.23052">
        <ele>1000.7</ele>
        <time>2022-08-02T14:20:43Z</time>
      </trkpt>
      <trkpt lat="42.96612" lon="0.23052">
        <ele>1000.6</ele>
        <time>2022-08-02T14:20:49Z</time>
      </trkpt>
      <trkpt lat="42.96612" lon="0.23052">
        <ele>1000.6</ele>
        <time>2022-08-02T14:20:54Z</time>
      </trkpt>
      <trkpt lat="42.96612" lon="0.23052">
        <ele>1000.6</ele>
        <time>2022-08-02T14:21:00Z</time>
      </trkpt>
      <trkpt lat="42.96612" lon="0.23052">
        <ele>1000.7</ele>
        <time>2022-08-02T14:21:05Z</time>
      </trkpt>
      <trkpt lat="42.96612" lon="0.23052">
        <ele>1000.6</ele>
        <time>2022-08-02T14:21:11Z</time>
      </trkpt>
      <trkpt lat="42.96612" lon="0.23052">
        <ele>1000.6</ele>
        <time>2022-08-02T14:21:16Z</time>
      </trkpt>
      <trkpt lat="42.96612" lon="0.23052">
        <ele>1000.5</ele>
        <time>2022-08-02T14:21:22Z</time>
      </trkpt>
      <trkpt lat="42.96612" lon="0.23052">
        <ele>1000.5</ele>
        <time>2022-08-02T14:21:28Z</time>
      </trkpt>
      <trkpt lat="42.96612" lon="0.23052">
        <ele>1000.5</ele>
        <time>2022-08-02T14:21:33Z</time>
      </trkpt>
      <trkpt lat="42.96612" lon="0.23052">
        <ele>1000.5</ele>
        <time>2022-08-02T14:21:39Z</time>
      </trkpt>
      <trkpt lat="42.96612" lon="0.23052">
        <ele>1000.4</ele>
        <time>2022-08-02T14:21:45Z</time>
      </trkpt>
      <trkpt lat="42.96612" lon="0.23052">
        <ele>1000.4</ele>
        <time>2022-08-02T14:21:50Z</time>
      </trkpt>
      <trkpt lat="42.96612" lon="0.23052">
        <ele>1000.3</ele>
        <time>2022-08-02T14:21:55Z</time>
      </trkpt>
      <trkpt lat="42.96612" lon="0.23052">
        <ele>1000.3</ele>
        <time>2022-08-02T14:22:01Z</time>
      </trkpt>
      <trkpt lat="42.96612" lon="0.23052">
        <ele>1000.3</ele>
        <time>2022-08-02T14:22:06Z</time>
      </trkpt>
      <trkpt lat="42.96612" lon="0.23052">
        <ele>1000.3</ele>
        <time>2022-08-02T14:22:11Z</time>
      </trkpt>
      <trkpt lat="42.96612" lon="0.23052">
        <ele>1000.3</ele>
        <time>2022-08-02T14:22:16Z</time>
      </trkpt>
      <trkpt lat="42.96612" lon="0.23052">
        <ele>1000.3</ele>
        <time>2022-08-02T14:22:22Z</time>
      </trkpt>
      <trkpt lat="42.96612" lon="0.23052">
        <ele>1000.3</ele>
        <time>2022-08-02T14:22:27Z</time>
      </trkpt>
      <trkpt lat="42.96613" lon="0.23052">
        <ele>1000.4</ele>
        <time>2022-08-02T14:22:32Z</time>
      </trkpt>
      <trkpt lat="42.96613" lon="0.23052">
        <ele>1000.4</ele>
        <time>2022-08-02T14:22:38Z</time>
      </trkpt>
      <trkpt lat="42.96613" lon="0.23052">
        <ele>1000.3</ele>
        <time>2022-08-02T14:22:44Z</time>
      </trkpt>
      <trkpt lat="42.96613" lon="0.23052">
        <ele>1000.2</ele>
        <time>2022-08-02T14:22:49Z</time>
      </trkpt>
      <trkpt lat="42.96613" lon="0.23052">
        <ele>1000.2</ele>
        <time>2022-08-02T14:22:55Z</time>
      </trkpt>
      <trkpt lat="42.96613" lon="0.23052">
        <ele>1000.2</ele>
        <time>2022-08-02T14:23:01Z</time>
      </trkpt>
      <trkpt lat="42.96613" lon="0.23052">
        <ele>1000.2</ele>
        <time>2022-08-02T14:23:06Z</time>
      </trkpt>
      <trkpt lat="42.96613" lon="0.23052">
        <ele>1000.2</ele>
        <time>2022-08-02T14:23:12Z</time>
      </trkpt>
      <trkpt lat="42.96613" lon="0.23052">
        <ele>1000.2</ele>
        <time>2022-08-02T14:23:18Z</time>
      </trkpt>
      <trkpt lat="42.96613" lon="0.23052">
        <ele>1000.2</ele>
        <time>2022-08-02T14:23:23Z</time>
      </trkpt>
      <trkpt lat="42.96613" lon="0.23051">
        <ele>1000.2</ele>
        <time>2022-08-02T14:23:29Z</time>
      </trkpt>
      <trkpt lat="42.96613" lon="0.23051">
        <ele>1000.2</ele>
        <time>2022-08-02T14:23:35Z</time>
      </trkpt>
      <trkpt lat="42.96613" lon="0.23051">
        <ele>1000.2</ele>
        <time>2022-08-02T14:23:40Z</time>
      </trkpt>
      <trkpt lat="42.96613" lon="0.23051">
        <ele>1000.2</ele>
        <time>2022-08-02T14:23:46Z</time>
      </trkpt>
      <trkpt lat="42.96613" lon="0.23051">
        <ele>1000.2</ele>
        <time>2022-08-02T14:23:52Z</time>
      </trkpt>
      <trkpt lat="42.96613" lon="0.23051">
        <ele>1000.1</ele>
        <time>2022-08-02T14:23:58Z</time>
      </trkpt>
      <trkpt lat="42.96613" lon="0.23051">
        <ele>1000</ele>
        <time>2022-08-02T14:24:03Z</time>
      </trkpt>
      <trkpt lat="42.96613" lon="0.23051">
        <ele>1000</ele>
        <time>2022-08-02T14:24:08Z</time>
      </trkpt>
      <trkpt lat="42.96613" lon="0.23051">
        <ele>1000</ele>
        <time>2022-08-02T14:24:14Z</time>
      </trkpt>
      <trkpt lat="42.96613" lon="0.23051">
        <ele>1000.1</ele>
        <time>2022-08-02T14:24:19Z</time>
      </trkpt>
      <trkpt lat="42.96613" lon="0.23051">
        <ele>1000.1</ele>
        <time>2022-08-02T14:24:25Z</time>
      </trkpt>
      <trkpt lat="42.96613" lon="0.23051">
        <ele>1000.1</ele>
        <time>2022-08-02T14:24:31Z</time>
      </trkpt>
      <trkpt lat="42.96613" lon="0.23051">
        <ele>1000.1</ele>
        <time>2022-08-02T14:24:37Z</time>
      </trkpt>
      <trkpt lat="42.96613" lon="0.23051">
        <ele>1000.2</ele>
        <time>2022-08-02T14:24:43Z</time>
      </trkpt>
      <trkpt lat="42.96612" lon="0.23052">
        <ele>1001.4</ele>
        <time>2022-08-02T14:24:48Z</time>
      </trkpt>
      <trkpt lat="42.96609" lon="0.23055">
        <ele>1001.4</ele>
        <time>2022-08-02T14:24:54Z</time>
      </trkpt>
      <trkpt lat="42.96608" lon="0.23053">
        <ele>1000.6</ele>
        <time>2022-08-02T14:25:00Z</time>
      </trkpt>
      <trkpt lat="42.96609" lon="0.23054">
        <ele>999.9</ele>
        <time>2022-08-02T14:25:06Z</time>
      </trkpt>
      <trkpt lat="42.96608" lon="0.23051">
        <ele>998.9</ele>
        <time>2022-08-02T14:25:12Z</time>
      </trkpt>
      <trkpt lat="42.96615" lon="0.23048">
        <ele>997.1</ele>
        <time>2022-08-02T14:25:18Z</time>
      </trkpt>
      <trkpt lat="42.96623" lon="0.23048">
        <ele>997</ele>
        <time>2022-08-02T14:25:23Z</time>
      </trkpt>
      <trkpt lat="42.96637" lon="0.23048">
        <ele>995.5</ele>
        <time>2022-08-02T14:25:29Z</time>
      </trkpt>
      <trkpt lat="42.96661" lon="0.23047">
        <ele>994.2</ele>
        <time>2022-08-02T14:25:34Z</time>
      </trkpt>
      <trkpt lat="42.96684" lon="0.2304">
        <ele>996.7</ele>
        <time>2022-08-02T14:25:40Z</time>
      </trkpt>
      <trkpt lat="42.96709" lon="0.23034">
        <ele>988.1</ele>
        <time>2022-08-02T14:25:46Z</time>
      </trkpt>
      <trkpt lat="42.96736" lon="0.23025">
        <ele>991.5</ele>
        <time>2022-08-02T14:25:52Z</time>
      </trkpt>
      <trkpt lat="42.96758" lon="0.23025">
        <ele>994</ele>
        <time>2022-08-02T14:25:57Z</time>
      </trkpt>
      <trkpt lat="42.96777" lon="0.23029">
        <ele>993.1</ele>
        <time>2022-08-02T14:26:02Z</time>
      </trkpt>
      <trkpt lat="42.96799" lon="0.23033">
        <ele>993.9</ele>
        <time>2022-08-02T14:26:08Z</time>
      </trkpt>
      <trkpt lat="42.96829" lon="0.23035">
        <ele>995.1</ele>
        <time>2022-08-02T14:26:14Z</time>
      </trkpt>
      <trkpt lat="42.96865" lon="0.23044">
        <ele>995.2</ele>
        <time>2022-08-02T14:26:20Z</time>
      </trkpt>
      <trkpt lat="42.96895" lon="0.23061">
        <ele>994.7</ele>
        <time>2022-08-02T14:26:25Z</time>
      </trkpt>
      <trkpt lat="42.96935" lon="0.23084">
        <ele>989.4</ele>
        <time>2022-08-02T14:26:30Z</time>
      </trkpt>
      <trkpt lat="42.96976" lon="0.23101">
        <ele>988.3</ele>
        <time>2022-08-02T14:26:35Z</time>
      </trkpt>
      <trkpt lat="42.9703" lon="0.23115">
        <ele>984.4</ele>
        <time>2022-08-02T14:26:41Z</time>
      </trkpt>
      <trkpt lat="42.97078" lon="0.23116">
        <ele>985</ele>
        <time>2022-08-02T14:26:47Z</time>
      </trkpt>
      <trkpt lat="42.97116" lon="0.23092">
        <ele>981.4</ele>
        <time>2022-08-02T14:26:52Z</time>
      </trkpt>
      <trkpt lat="42.97157" lon="0.23063">
        <ele>979.6</ele>
        <time>2022-08-02T14:26:57Z</time>
      </trkpt>
      <trkpt lat="42.97199" lon="0.23035">
        <ele>980.1</ele>
        <time>2022-08-02T14:27:02Z</time>
      </trkpt>
      <trkpt lat="42.97248" lon="0.23015">
        <ele>973.5</ele>
        <time>2022-08-02T14:27:08Z</time>
      </trkpt>
      <trkpt lat="42.97293" lon="0.23013">
        <ele>971.3</ele>
        <time>2022-08-02T14:27:13Z</time>
      </trkpt>
      <trkpt lat="42.97342" lon="0.22998">
        <ele>967.7</ele>
        <time>2022-08-02T14:27:19Z</time>
      </trkpt>
      <trkpt lat="42.97388" lon="0.22963">
        <ele>963.2</ele>
        <time>2022-08-02T14:27:25Z</time>
      </trkpt>
      <trkpt lat="42.97431" lon="0.2293">
        <ele>959.9</ele>
        <time>2022-08-02T14:27:30Z</time>
      </trkpt>
      <trkpt lat="42.97474" lon="0.22897">
        <ele>954.2</ele>
        <time>2022-08-02T14:27:35Z</time>
      </trkpt>
      <trkpt lat="42.97523" lon="0.22859">
        <ele>952.5</ele>
        <time>2022-08-02T14:27:41Z</time>
      </trkpt>
      <trkpt lat="42.97572" lon="0.22836">
        <ele>949</ele>
        <time>2022-08-02T14:27:47Z</time>
      </trkpt>
      <trkpt lat="42.9761" lon="0.22829">
        <ele>949.5</ele>
        <time>2022-08-02T14:27:52Z</time>
      </trkpt>
      <trkpt lat="42.97645" lon="0.22832">
        <ele>948.8</ele>
        <time>2022-08-02T14:27:57Z</time>
      </trkpt>
      <trkpt lat="42.97694" lon="0.22841">
        <ele>945.7</ele>
        <time>2022-08-02T14:28:03Z</time>
      </trkpt>
      <trkpt lat="42.97755" lon="0.2284">
        <ele>942.2</ele>
        <time>2022-08-02T14:28:09Z</time>
      </trkpt>
      <trkpt lat="42.97808" lon="0.2282">
        <ele>938.1</ele>
        <time>2022-08-02T14:28:14Z</time>
      </trkpt>
      <trkpt lat="42.97863" lon="0.22813">
        <ele>934.4</ele>
        <time>2022-08-02T14:28:19Z</time>
      </trkpt>
      <trkpt lat="42.97913" lon="0.22797">
        <ele>934.4</ele>
        <time>2022-08-02T14:28:24Z</time>
      </trkpt>
      <trkpt lat="42.97956" lon="0.22788">
        <ele>934.2</ele>
        <time>2022-08-02T14:28:29Z</time>
      </trkpt>
      <trkpt lat="42.98003" lon="0.22758">
        <ele>933.6</ele>
        <time>2022-08-02T14:28:35Z</time>
      </trkpt>
      <trkpt lat="42.9805" lon="0.22739">
        <ele>935.3</ele>
        <time>2022-08-02T14:28:41Z</time>
      </trkpt>
      <trkpt lat="42.98089" lon="0.22725">
        <ele>934.3</ele>
        <time>2022-08-02T14:28:46Z</time>
      </trkpt>
      <trkpt lat="42.9814" lon="0.22713">
        <ele>931.4</ele>
        <time>2022-08-02T14:28:52Z</time>
      </trkpt>
      <trkpt lat="42.98191" lon="0.22711">
        <ele>928.5</ele>
        <time>2022-08-02T14:28:58Z</time>
      </trkpt>
      <trkpt lat="42.98229" lon="0.22701">
        <ele>925.9</ele>
        <time>2022-08-02T14:29:03Z</time>
      </trkpt>
      <trkpt lat="42.9827" lon="0.22695">
        <ele>927.2</ele>
        <time>2022-08-02T14:29:09Z</time>
      </trkpt>
      <trkpt lat="42.98305" lon="0.22687">
        <ele>922.3</ele>
        <time>2022-08-02T14:29:14Z</time>
      </trkpt>
      <trkpt lat="42.98361" lon="0.22689">
        <ele>917.3</ele>
        <time>2022-08-02T14:29:21Z</time>
      </trkpt>
      <trkpt lat="42.98406" lon="0.22702">
        <ele>916.7</ele>
        <time>2022-08-02T14:29:26Z</time>
      </trkpt>
      <trkpt lat="42.98443" lon="0.22712">
        <ele>912.9</ele>
        <time>2022-08-02T14:29:31Z</time>
      </trkpt>
      <trkpt lat="42.98459" lon="0.22735">
        <ele>912.5</ele>
        <time>2022-08-02T14:29:36Z</time>
      </trkpt>
      <trkpt lat="42.98467" lon="0.22755">
        <ele>911.3</ele>
        <time>2022-08-02T14:29:41Z</time>
      </trkpt>
      <trkpt lat="42.985" lon="0.22742">
        <ele>907.7</ele>
        <time>2022-08-02T14:29:47Z</time>
      </trkpt>
      <trkpt lat="42.98539" lon="0.22733">
        <ele>905</ele>
        <time>2022-08-02T14:29:52Z</time>
      </trkpt>
      <trkpt lat="42.98599" lon="0.22726">
        <ele>900.5</ele>
        <time>2022-08-02T14:29:58Z</time>
      </trkpt>
      <trkpt lat="42.98667" lon="0.22722">
        <ele>898.5</ele>
        <time>2022-08-02T14:30:04Z</time>
      </trkpt>
      <trkpt lat="42.98718" lon="0.22702">
        <ele>897.8</ele>
        <time>2022-08-02T14:30:09Z</time>
      </trkpt>
      <trkpt lat="42.98775" lon="0.22669">
        <ele>894.7</ele>
        <time>2022-08-02T14:30:15Z</time>
      </trkpt>
      <trkpt lat="42.98825" lon="0.22654">
        <ele>884.8</ele>
        <time>2022-08-02T14:30:20Z</time>
      </trkpt>
      <trkpt lat="42.98898" lon="0.22632">
        <ele>882.2</ele>
        <time>2022-08-02T14:30:26Z</time>
      </trkpt>
      <trkpt lat="42.98973" lon="0.22601">
        <ele>879</ele>
        <time>2022-08-02T14:30:32Z</time>
      </trkpt>
      <trkpt lat="42.99047" lon="0.2256">
        <ele>874.9</ele>
        <time>2022-08-02T14:30:38Z</time>
      </trkpt>
      <trkpt lat="42.991" lon="0.22504">
        <ele>868.1</ele>
        <time>2022-08-02T14:30:43Z</time>
      </trkpt>
      <trkpt lat="42.99146" lon="0.22421">
        <ele>860.5</ele>
        <time>2022-08-02T14:30:49Z</time>
      </trkpt>
      <trkpt lat="42.99181" lon="0.22337">
        <ele>856.7</ele>
        <time>2022-08-02T14:30:55Z</time>
      </trkpt>
      <trkpt lat="42.99207" lon="0.22272">
        <ele>853.9</ele>
        <time>2022-08-02T14:31:00Z</time>
      </trkpt>
      <trkpt lat="42.99221" lon="0.22206">
        <ele>848.7</ele>
        <time>2022-08-02T14:31:05Z</time>
      </trkpt>
      <trkpt lat="42.9924" lon="0.22126">
        <ele>848.3</ele>
        <time>2022-08-02T14:31:11Z</time>
      </trkpt>
      <trkpt lat="42.9926" lon="0.22047">
        <ele>845.6</ele>
        <time>2022-08-02T14:31:17Z</time>
      </trkpt>
      <trkpt lat="42.99255" lon="0.21964">
        <ele>842.5</ele>
        <time>2022-08-02T14:31:23Z</time>
      </trkpt>
      <trkpt lat="42.99257" lon="0.21903">
        <ele>843.4</ele>
        <time>2022-08-02T14:31:28Z</time>
      </trkpt>
      <trkpt lat="42.99258" lon="0.21845">
        <ele>846.8</ele>
        <time>2022-08-02T14:31:33Z</time>
      </trkpt>
      <trkpt lat="42.99261" lon="0.21777">
        <ele>846.7</ele>
        <time>2022-08-02T14:31:39Z</time>
      </trkpt>
      <trkpt lat="42.99269" lon="0.21713">
        <ele>845.4</ele>
        <time>2022-08-02T14:31:45Z</time>
      </trkpt>
      <trkpt lat="42.9928" lon="0.21646">
        <ele>842.6</ele>
        <time>2022-08-02T14:31:51Z</time>
      </trkpt>
      <trkpt lat="42.99298" lon="0.21591">
        <ele>837.6</ele>
        <time>2022-08-02T14:31:56Z</time>
      </trkpt>
      <trkpt lat="42.99327" lon="0.21527">
        <ele>831.5</ele>
        <time>2022-08-02T14:32:02Z</time>
      </trkpt>
      <trkpt lat="42.99353" lon="0.21474">
        <ele>828</ele>
        <time>2022-08-02T14:32:07Z</time>
      </trkpt>
      <trkpt lat="42.99379" lon="0.21402">
        <ele>826.5</ele>
        <time>2022-08-02T14:32:13Z</time>
      </trkpt>
      <trkpt lat="42.99404" lon="0.2134">
        <ele>823.8</ele>
        <time>2022-08-02T14:32:18Z</time>
      </trkpt>
      <trkpt lat="42.99427" lon="0.21262">
        <ele>823</ele>
        <time>2022-08-02T14:32:24Z</time>
      </trkpt>
      <trkpt lat="42.99444" lon="0.21198">
        <ele>821.2</ele>
        <time>2022-08-02T14:32:29Z</time>
      </trkpt>
      <trkpt lat="42.99465" lon="0.21124">
        <ele>818.6</ele>
        <time>2022-08-02T14:32:35Z</time>
      </trkpt>
      <trkpt lat="42.99481" lon="0.21064">
        <ele>817.9</ele>
        <time>2022-08-02T14:32:40Z</time>
      </trkpt>
      <trkpt lat="42.99498" lon="0.20987">
        <ele>814.3</ele>
        <time>2022-08-02T14:32:46Z</time>
      </trkpt>
      <trkpt lat="42.99546" lon="0.20922">
        <ele>808.6</ele>
        <time>2022-08-02T14:32:52Z</time>
      </trkpt>
      <trkpt lat="42.9959" lon="0.20863">
        <ele>807.7</ele>
        <time>2022-08-02T14:32:58Z</time>
      </trkpt>
      <trkpt lat="42.99604" lon="0.20796">
        <ele>809.6</ele>
        <time>2022-08-02T14:33:04Z</time>
      </trkpt>
      <trkpt lat="42.99616" lon="0.20742">
        <ele>806.6</ele>
        <time>2022-08-02T14:33:09Z</time>
      </trkpt>
      <trkpt lat="42.99636" lon="0.20692">
        <ele>804.9</ele>
        <time>2022-08-02T14:33:14Z</time>
      </trkpt>
      <trkpt lat="42.99645" lon="0.20627">
        <ele>805.5</ele>
        <time>2022-08-02T14:33:20Z</time>
      </trkpt>
      <trkpt lat="42.99639" lon="0.2057">
        <ele>802.4</ele>
        <time>2022-08-02T14:33:25Z</time>
      </trkpt>
      <trkpt lat="42.99656" lon="0.20502">
        <ele>798.5</ele>
        <time>2022-08-02T14:33:31Z</time>
      </trkpt>
      <trkpt lat="42.99685" lon="0.20443">
        <ele>798.9</ele>
        <time>2022-08-02T14:33:37Z</time>
      </trkpt>
      <trkpt lat="42.99716" lon="0.20386">
        <ele>797.1</ele>
        <time>2022-08-02T14:33:43Z</time>
      </trkpt>
      <trkpt lat="42.99747" lon="0.20328">
        <ele>795.1</ele>
        <time>2022-08-02T14:33:49Z</time>
      </trkpt>
      <trkpt lat="42.99778" lon="0.20269">
        <ele>794.7</ele>
        <time>2022-08-02T14:33:55Z</time>
      </trkpt>
      <trkpt lat="42.99806" lon="0.20223">
        <ele>791.1</ele>
        <time>2022-08-02T14:34:00Z</time>
      </trkpt>
      <trkpt lat="42.99834" lon="0.20174">
        <ele>788</ele>
        <time>2022-08-02T14:34:05Z</time>
      </trkpt>
      <trkpt lat="42.99865" lon="0.20123">
        <ele>786.1</ele>
        <time>2022-08-02T14:34:10Z</time>
      </trkpt>
      <trkpt lat="42.99893" lon="0.20072">
        <ele>783.6</ele>
        <time>2022-08-02T14:34:15Z</time>
      </trkpt>
      <trkpt lat="42.99928" lon="0.20011">
        <ele>782</ele>
        <time>2022-08-02T14:34:21Z</time>
      </trkpt>
      <trkpt lat="42.99954" lon="0.19958">
        <ele>780.3</ele>
        <time>2022-08-02T14:34:26Z</time>
      </trkpt>
      <trkpt lat="42.9998" lon="0.19906">
        <ele>779.3</ele>
        <time>2022-08-02T14:34:31Z</time>
      </trkpt>
      <trkpt lat="43.00007" lon="0.19861">
        <ele>781.2</ele>
        <time>2022-08-02T14:34:36Z</time>
      </trkpt>
      <trkpt lat="43.00031" lon="0.1982">
        <ele>783.1</ele>
        <time>2022-08-02T14:34:41Z</time>
      </trkpt>
      <trkpt lat="43.00052" lon="0.19776">
        <ele>782.4</ele>
        <time>2022-08-02T14:34:47Z</time>
      </trkpt>
      <trkpt lat="43.0007" lon="0.19724">
        <ele>780.6</ele>
        <time>2022-08-02T14:34:53Z</time>
      </trkpt>
      <trkpt lat="43.00093" lon="0.19685">
        <ele>779.1</ele>
        <time>2022-08-02T14:34:58Z</time>
      </trkpt>
      <trkpt lat="43.00123" lon="0.19644">
        <ele>778.9</ele>
        <time>2022-08-02T14:35:03Z</time>
      </trkpt>
      <trkpt lat="43.0015" lon="0.196">
        <ele>778.7</ele>
        <time>2022-08-02T14:35:08Z</time>
      </trkpt>
      <trkpt lat="43.0017" lon="0.19539">
        <ele>777</ele>
        <time>2022-08-02T14:35:14Z</time>
      </trkpt>
      <trkpt lat="43.00197" lon="0.19487">
        <ele>772.8</ele>
        <time>2022-08-02T14:35:20Z</time>
      </trkpt>
      <trkpt lat="43.00233" lon="0.19432">
        <ele>770.9</ele>
        <time>2022-08-02T14:35:26Z</time>
      </trkpt>
      <trkpt lat="43.00263" lon="0.19386">
        <ele>768.4</ele>
        <time>2022-08-02T14:35:31Z</time>
      </trkpt>
      <trkpt lat="43.00295" lon="0.19335">
        <ele>763.8</ele>
        <time>2022-08-02T14:35:36Z</time>
      </trkpt>
      <trkpt lat="43.00335" lon="0.19281">
        <ele>763.6</ele>
        <time>2022-08-02T14:35:42Z</time>
      </trkpt>
      <trkpt lat="43.00367" lon="0.19235">
        <ele>762.1</ele>
        <time>2022-08-02T14:35:47Z</time>
      </trkpt>
      <trkpt lat="43.00401" lon="0.19181">
        <ele>760.9</ele>
        <time>2022-08-02T14:35:53Z</time>
      </trkpt>
      <trkpt lat="43.00426" lon="0.19134">
        <ele>760.2</ele>
        <time>2022-08-02T14:35:58Z</time>
      </trkpt>
      <trkpt lat="43.00452" lon="0.19096">
        <ele>759.2</ele>
        <time>2022-08-02T14:36:03Z</time>
      </trkpt>
      <trkpt lat="43.00486" lon="0.19057">
        <ele>758.4</ele>
        <time>2022-08-02T14:36:09Z</time>
      </trkpt>
      <trkpt lat="43.00512" lon="0.19028">
        <ele>759</ele>
        <time>2022-08-02T14:36:14Z</time>
      </trkpt>
      <trkpt lat="43.00536" lon="0.18994">
        <ele>757.4</ele>
        <time>2022-08-02T14:36:19Z</time>
      </trkpt>
      <trkpt lat="43.0056" lon="0.18952">
        <ele>756</ele>
        <time>2022-08-02T14:36:25Z</time>
      </trkpt>
      <trkpt lat="43.0058" lon="0.18918">
        <ele>756.9</ele>
        <time>2022-08-02T14:36:30Z</time>
      </trkpt>
      <trkpt lat="43.00612" lon="0.1888">
        <ele>756.2</ele>
        <time>2022-08-02T14:36:36Z</time>
      </trkpt>
      <trkpt lat="43.00651" lon="0.18842">
        <ele>755.2</ele>
        <time>2022-08-02T14:36:42Z</time>
      </trkpt>
      <trkpt lat="43.00691" lon="0.18806">
        <ele>751.3</ele>
        <time>2022-08-02T14:36:48Z</time>
      </trkpt>
      <trkpt lat="43.00732" lon="0.18765">
        <ele>751.2</ele>
        <time>2022-08-02T14:36:54Z</time>
      </trkpt>
      <trkpt lat="43.00767" lon="0.18728">
        <ele>746.4</ele>
        <time>2022-08-02T14:36:59Z</time>
      </trkpt>
      <trkpt lat="43.00809" lon="0.18685">
        <ele>746.2</ele>
        <time>2022-08-02T14:37:05Z</time>
      </trkpt>
      <trkpt lat="43.00844" lon="0.18648">
        <ele>747.4</ele>
        <time>2022-08-02T14:37:10Z</time>
      </trkpt>
      <trkpt lat="43.00884" lon="0.18604">
        <ele>743.8</ele>
        <time>2022-08-02T14:37:16Z</time>
      </trkpt>
      <trkpt lat="43.00918" lon="0.18565">
        <ele>744.3</ele>
        <time>2022-08-02T14:37:21Z</time>
      </trkpt>
      <trkpt lat="43.00949" lon="0.18528">
        <ele>741.7</ele>
        <time>2022-08-02T14:37:26Z</time>
      </trkpt>
      <trkpt lat="43.00978" lon="0.1849">
        <ele>740.1</ele>
        <time>2022-08-02T14:37:31Z</time>
      </trkpt>
      <trkpt lat="43.01007" lon="0.18451">
        <ele>737.5</ele>
        <time>2022-08-02T14:37:36Z</time>
      </trkpt>
      <trkpt lat="43.01043" lon="0.18404">
        <ele>738</ele>
        <time>2022-08-02T14:37:42Z</time>
      </trkpt>
      <trkpt lat="43.01074" lon="0.18364">
        <ele>736</ele>
        <time>2022-08-02T14:37:47Z</time>
      </trkpt>
      <trkpt lat="43.0111" lon="0.18315">
        <ele>734.2</ele>
        <time>2022-08-02T14:37:53Z</time>
      </trkpt>
      <trkpt lat="43.01141" lon="0.18275">
        <ele>733.5</ele>
        <time>2022-08-02T14:37:58Z</time>
      </trkpt>
      <trkpt lat="43.01179" lon="0.1823">
        <ele>731.4</ele>
        <time>2022-08-02T14:38:04Z</time>
      </trkpt>
      <trkpt lat="43.01209" lon="0.18194">
        <ele>730.2</ele>
        <time>2022-08-02T14:38:09Z</time>
      </trkpt>
      <trkpt lat="43.01238" lon="0.1814">
        <ele>727.2</ele>
        <time>2022-08-02T14:38:15Z</time>
      </trkpt>
      <trkpt lat="43.01267" lon="0.18085">
        <ele>728.5</ele>
        <time>2022-08-02T14:38:21Z</time>
      </trkpt>
      <trkpt lat="43.01306" lon="0.18043">
        <ele>726.6</ele>
        <time>2022-08-02T14:38:27Z</time>
      </trkpt>
      <trkpt lat="43.0134" lon="0.18012">
        <ele>725.7</ele>
        <time>2022-08-02T14:38:32Z</time>
      </trkpt>
      <trkpt lat="43.01381" lon="0.17976">
        <ele>720.9</ele>
        <time>2022-08-02T14:38:38Z</time>
      </trkpt>
      <trkpt lat="43.01422" lon="0.17942">
        <ele>720.8</ele>
        <time>2022-08-02T14:38:44Z</time>
      </trkpt>
      <trkpt lat="43.01462" lon="0.17906">
        <ele>719.9</ele>
        <time>2022-08-02T14:38:50Z</time>
      </trkpt>
      <trkpt lat="43.01501" lon="0.17873">
        <ele>719.8</ele>
        <time>2022-08-02T14:38:56Z</time>
      </trkpt>
      <trkpt lat="43.01534" lon="0.17849">
        <ele>719.9</ele>
        <time>2022-08-02T14:39:01Z</time>
      </trkpt>
      <trkpt lat="43.01563" lon="0.17822">
        <ele>720.1</ele>
        <time>2022-08-02T14:39:06Z</time>
      </trkpt>
      <trkpt lat="43.01599" lon="0.17786">
        <ele>719.1</ele>
        <time>2022-08-02T14:39:12Z</time>
      </trkpt>
      <trkpt lat="43.01636" lon="0.17772">
        <ele>718.3</ele>
        <time>2022-08-02T14:39:17Z</time>
      </trkpt>
      <trkpt lat="43.01676" lon="0.17749">
        <ele>715.9</ele>
        <time>2022-08-02T14:39:23Z</time>
      </trkpt>
      <trkpt lat="43.01705" lon="0.17726">
        <ele>714.8</ele>
        <time>2022-08-02T14:39:28Z</time>
      </trkpt>
      <trkpt lat="43.01721" lon="0.17716">
        <ele>713.1</ele>
        <time>2022-08-02T14:39:33Z</time>
      </trkpt>
      <trkpt lat="43.01728" lon="0.17725">
        <ele>712.5</ele>
        <time>2022-08-02T14:39:38Z</time>
      </trkpt>
      <trkpt lat="43.01729" lon="0.17726">
        <ele>714.1</ele>
        <time>2022-08-02T14:39:44Z</time>
      </trkpt>
      <trkpt lat="43.01729" lon="0.17725">
        <ele>714.1</ele>
        <time>2022-08-02T14:39:49Z</time>
      </trkpt>
      <trkpt lat="43.01729" lon="0.17725">
        <ele>714.1</ele>
        <time>2022-08-02T14:39:54Z</time>
      </trkpt>
      <trkpt lat="43.01729" lon="0.17725">
        <ele>714.1</ele>
        <time>2022-08-02T14:40:00Z</time>
      </trkpt>
      <trkpt lat="43.01729" lon="0.17725">
        <ele>714.1</ele>
        <time>2022-08-02T14:40:05Z</time>
      </trkpt>
      <trkpt lat="43.01729" lon="0.17725">
        <ele>714.1</ele>
        <time>2022-08-02T14:40:10Z</time>
      </trkpt>
      <trkpt lat="43.01728" lon="0.17724">
        <ele>714.4</ele>
        <time>2022-08-02T14:40:16Z</time>
      </trkpt>
      <trkpt lat="43.01728" lon="0.17725">
        <ele>715</ele>
        <time>2022-08-02T14:40:22Z</time>
      </trkpt>
      <trkpt lat="43.01728" lon="0.17725">
        <ele>715</ele>
        <time>2022-08-02T14:40:28Z</time>
      </trkpt>
      <trkpt lat="43.01728" lon="0.17725">
        <ele>715</ele>
        <time>2022-08-02T14:40:33Z</time>
      </trkpt>
      <trkpt lat="43.01728" lon="0.17725">
        <ele>715</ele>
        <time>2022-08-02T14:40:39Z</time>
      </trkpt>
      <trkpt lat="43.01728" lon="0.17725">
        <ele>715</ele>
        <time>2022-08-02T14:40:44Z</time>
      </trkpt>
      <trkpt lat="43.01728" lon="0.17725">
        <ele>715</ele>
        <time>2022-08-02T14:40:50Z</time>
      </trkpt>
      <trkpt lat="43.01728" lon="0.17725">
        <ele>715</ele>
        <time>2022-08-02T14:40:56Z</time>
      </trkpt>
      <trkpt lat="43.01728" lon="0.17725">
        <ele>714.9</ele>
        <time>2022-08-02T14:41:01Z</time>
      </trkpt>
      <trkpt lat="43.01728" lon="0.17725">
        <ele>714.9</ele>
        <time>2022-08-02T14:41:07Z</time>
      </trkpt>
      <trkpt lat="43.01729" lon="0.17727">
        <ele>711.7</ele>
        <time>2022-08-02T14:41:12Z</time>
      </trkpt>
      <trkpt lat="43.01729" lon="0.17728">
        <ele>712.7</ele>
        <time>2022-08-02T14:41:18Z</time>
      </trkpt>
      <trkpt lat="43.01729" lon="0.17728">
        <ele>712.6</ele>
        <time>2022-08-02T14:41:23Z</time>
      </trkpt>
      <trkpt lat="43.01729" lon="0.17728">
        <ele>712.6</ele>
        <time>2022-08-02T14:41:28Z</time>
      </trkpt>
      <trkpt lat="43.01729" lon="0.17728">
        <ele>712.6</ele>
        <time>2022-08-02T14:41:34Z</time>
      </trkpt>
      <trkpt lat="43.01729" lon="0.17728">
        <ele>712.7</ele>
        <time>2022-08-02T14:41:40Z</time>
      </trkpt>
      <trkpt lat="43.01729" lon="0.17728">
        <ele>712.6</ele>
        <time>2022-08-02T14:41:45Z</time>
      </trkpt>
      <trkpt lat="43.01729" lon="0.17728">
        <ele>712.6</ele>
        <time>2022-08-02T14:41:51Z</time>
      </trkpt>
      <trkpt lat="43.01729" lon="0.17727">
        <ele>712.9</ele>
        <time>2022-08-02T14:41:57Z</time>
      </trkpt>
      <trkpt lat="43.01728" lon="0.17726">
        <ele>713.1</ele>
        <time>2022-08-02T14:42:02Z</time>
      </trkpt>
      <trkpt lat="43.01728" lon="0.17726">
        <ele>713.4</ele>
        <time>2022-08-02T14:42:08Z</time>
      </trkpt>
      <trkpt lat="43.01728" lon="0.17726">
        <ele>713.6</ele>
        <time>2022-08-02T14:42:14Z</time>
      </trkpt>
      <trkpt lat="43.01728" lon="0.17726">
        <ele>713.8</ele>
        <time>2022-08-02T14:42:20Z</time>
      </trkpt>
      <trkpt lat="43.01728" lon="0.17726">
        <ele>714</ele>
        <time>2022-08-02T14:42:25Z</time>
      </trkpt>
      <trkpt lat="43.01728" lon="0.17725">
        <ele>714.2</ele>
        <time>2022-08-02T14:42:31Z</time>
      </trkpt>
      <trkpt lat="43.01728" lon="0.17725">
        <ele>714.4</ele>
        <time>2022-08-02T14:42:37Z</time>
      </trkpt>
      <trkpt lat="43.01728" lon="0.17725">
        <ele>714.6</ele>
        <time>2022-08-02T14:42:42Z</time>
      </trkpt>
      <trkpt lat="43.01728" lon="0.17725">
        <ele>714.8</ele>
        <time>2022-08-02T14:42:48Z</time>
      </trkpt>
      <trkpt lat="43.01728" lon="0.17725">
        <ele>714.8</ele>
        <time>2022-08-02T14:42:53Z</time>
      </trkpt>
      <trkpt lat="43.01729" lon="0.17725">
        <ele>715</ele>
        <time>2022-08-02T14:42:58Z</time>
      </trkpt>
      <trkpt lat="43.01729" lon="0.17725">
        <ele>715.2</ele>
        <time>2022-08-02T14:43:03Z</time>
      </trkpt>
      <trkpt lat="43.01729" lon="0.17725">
        <ele>715.4</ele>
        <time>2022-08-02T14:43:09Z</time>
      </trkpt>
      <trkpt lat="43.01729" lon="0.17725">
        <ele>715.5</ele>
        <time>2022-08-02T14:43:14Z</time>
      </trkpt>
      <trkpt lat="43.01729" lon="0.17725">
        <ele>715.7</ele>
        <time>2022-08-02T14:43:20Z</time>
      </trkpt>
      <trkpt lat="43.01729" lon="0.17725">
        <ele>715.7</ele>
        <time>2022-08-02T14:43:26Z</time>
      </trkpt>
      <trkpt lat="43.01729" lon="0.17725">
        <ele>715.8</ele>
        <time>2022-08-02T14:43:32Z</time>
      </trkpt>
      <trkpt lat="43.01729" lon="0.17725">
        <ele>715.9</ele>
        <time>2022-08-02T14:43:38Z</time>
      </trkpt>
      <trkpt lat="43.01729" lon="0.17725">
        <ele>715.9</ele>
        <time>2022-08-02T14:43:44Z</time>
      </trkpt>
      <trkpt lat="43.01729" lon="0.17725">
        <ele>715.9</ele>
        <time>2022-08-02T14:43:50Z</time>
      </trkpt>
      <trkpt lat="43.01729" lon="0.17724">
        <ele>715.5</ele>
        <time>2022-08-02T14:43:56Z</time>
      </trkpt>
      <trkpt lat="43.01728" lon="0.17719">
        <ele>716.1</ele>
        <time>2022-08-02T14:44:01Z</time>
      </trkpt>
      <trkpt lat="43.01728" lon="0.1772">
        <ele>715.4</ele>
        <time>2022-08-02T14:44:07Z</time>
      </trkpt>
      <trkpt lat="43.01728" lon="0.1772">
        <ele>715.4</ele>
        <time>2022-08-02T14:44:12Z</time>
      </trkpt>
      <trkpt lat="43.01728" lon="0.17719">
        <ele>714.9</ele>
        <time>2022-08-02T14:44:17Z</time>
      </trkpt>
      <trkpt lat="43.0173" lon="0.17709">
        <ele>713.7</ele>
        <time>2022-08-02T14:44:23Z</time>
      </trkpt>
      <trkpt lat="43.01753" lon="0.17698">
        <ele>706.2</ele>
        <time>2022-08-02T14:44:29Z</time>
      </trkpt>
      <trkpt lat="43.01787" lon="0.17683">
        <ele>706.6</ele>
        <time>2022-08-02T14:44:35Z</time>
      </trkpt>
      <trkpt lat="43.01816" lon="0.17663">
        <ele>703.7</ele>
        <time>2022-08-02T14:44:40Z</time>
      </trkpt>
      <trkpt lat="43.01852" lon="0.17633">
        <ele>699.7</ele>
        <time>2022-08-02T14:44:46Z</time>
      </trkpt>
      <trkpt lat="43.01884" lon="0.17604">
        <ele>700.4</ele>
        <time>2022-08-02T14:44:51Z</time>
      </trkpt>
      <trkpt lat="43.01921" lon="0.17565">
        <ele>701.6</ele>
        <time>2022-08-02T14:44:57Z</time>
      </trkpt>
      <trkpt lat="43.01952" lon="0.17531">
        <ele>702.8</ele>
        <time>2022-08-02T14:45:02Z</time>
      </trkpt>
      <trkpt lat="43.01989" lon="0.17511">
        <ele>702.5</ele>
        <time>2022-08-02T14:45:07Z</time>
      </trkpt>
      <trkpt lat="43.02033" lon="0.17483">
        <ele>702.7</ele>
        <time>2022-08-02T14:45:13Z</time>
      </trkpt>
      <trkpt lat="43.02074" lon="0.17446">
        <ele>700</ele>
        <time>2022-08-02T14:45:19Z</time>
      </trkpt>
      <trkpt lat="43.02108" lon="0.17416">
        <ele>700.3</ele>
        <time>2022-08-02T14:45:24Z</time>
      </trkpt>
      <trkpt lat="43.02143" lon="0.17382">
        <ele>692.4</ele>
        <time>2022-08-02T14:45:30Z</time>
      </trkpt>
      <trkpt lat="43.02171" lon="0.17342">
        <ele>688.7</ele>
        <time>2022-08-02T14:45:35Z</time>
      </trkpt>
      <trkpt lat="43.022" lon="0.17293">
        <ele>686.6</ele>
        <time>2022-08-02T14:45:41Z</time>
      </trkpt>
      <trkpt lat="43.02223" lon="0.17254">
        <ele>688.3</ele>
        <time>2022-08-02T14:45:46Z</time>
      </trkpt>
      <trkpt lat="43.02255" lon="0.17204">
        <ele>690.7</ele>
        <time>2022-08-02T14:45:52Z</time>
      </trkpt>
      <trkpt lat="43.02279" lon="0.17164">
        <ele>691.4</ele>
        <time>2022-08-02T14:45:57Z</time>
      </trkpt>
      <trkpt lat="43.02315" lon="0.17131">
        <ele>694.4</ele>
        <time>2022-08-02T14:46:03Z</time>
      </trkpt>
      <trkpt lat="43.02344" lon="0.17104">
        <ele>696.1</ele>
        <time>2022-08-02T14:46:08Z</time>
      </trkpt>
      <trkpt lat="43.02367" lon="0.17072">
        <ele>697.7</ele>
        <time>2022-08-02T14:46:13Z</time>
      </trkpt>
      <trkpt lat="43.02387" lon="0.17032">
        <ele>694.6</ele>
        <time>2022-08-02T14:46:18Z</time>
      </trkpt>
      <trkpt lat="43.0241" lon="0.16977">
        <ele>693.8</ele>
        <time>2022-08-02T14:46:24Z</time>
      </trkpt>
      <trkpt lat="43.02434" lon="0.16929">
        <ele>693.2</ele>
        <time>2022-08-02T14:46:29Z</time>
      </trkpt>
      <trkpt lat="43.02473" lon="0.16887">
        <ele>692.7</ele>
        <time>2022-08-02T14:46:35Z</time>
      </trkpt>
      <trkpt lat="43.02514" lon="0.16872">
        <ele>692.3</ele>
        <time>2022-08-02T14:46:41Z</time>
      </trkpt>
      <trkpt lat="43.02547" lon="0.16879">
        <ele>692.5</ele>
        <time>2022-08-02T14:46:46Z</time>
      </trkpt>
      <trkpt lat="43.02576" lon="0.16891">
        <ele>691.4</ele>
        <time>2022-08-02T14:46:51Z</time>
      </trkpt>
      <trkpt lat="43.02613" lon="0.16905">
        <ele>691.1</ele>
        <time>2022-08-02T14:46:57Z</time>
      </trkpt>
      <trkpt lat="43.02654" lon="0.16923">
        <ele>691</ele>
        <time>2022-08-02T14:47:03Z</time>
      </trkpt>
      <trkpt lat="43.02689" lon="0.16935">
        <ele>691.8</ele>
        <time>2022-08-02T14:47:08Z</time>
      </trkpt>
      <trkpt lat="43.02726" lon="0.16937">
        <ele>690.4</ele>
        <time>2022-08-02T14:47:13Z</time>
      </trkpt>
      <trkpt lat="43.02761" lon="0.16919">
        <ele>684.4</ele>
        <time>2022-08-02T14:47:18Z</time>
      </trkpt>
      <trkpt lat="43.02798" lon="0.16895">
        <ele>684.3</ele>
        <time>2022-08-02T14:47:23Z</time>
      </trkpt>
      <trkpt lat="43.02842" lon="0.16867">
        <ele>684.2</ele>
        <time>2022-08-02T14:47:29Z</time>
      </trkpt>
      <trkpt lat="43.02886" lon="0.16841">
        <ele>683.5</ele>
        <time>2022-08-02T14:47:35Z</time>
      </trkpt>
      <trkpt lat="43.02922" lon="0.16818">
        <ele>681.9</ele>
        <time>2022-08-02T14:47:40Z</time>
      </trkpt>
      <trkpt lat="43.02957" lon="0.16772">
        <ele>682.2</ele>
        <time>2022-08-02T14:47:46Z</time>
      </trkpt>
      <trkpt lat="43.02987" lon="0.16736">
        <ele>676.8</ele>
        <time>2022-08-02T14:47:51Z</time>
      </trkpt>
      <trkpt lat="43.03032" lon="0.1671">
        <ele>677.4</ele>
        <time>2022-08-02T14:47:57Z</time>
      </trkpt>
      <trkpt lat="43.03082" lon="0.16698">
        <ele>676.9</ele>
        <time>2022-08-02T14:48:03Z</time>
      </trkpt>
      <trkpt lat="43.03124" lon="0.16685">
        <ele>674.3</ele>
        <time>2022-08-02T14:48:08Z</time>
      </trkpt>
      <trkpt lat="43.03167" lon="0.16669">
        <ele>671.7</ele>
        <time>2022-08-02T14:48:13Z</time>
      </trkpt>
      <trkpt lat="43.03218" lon="0.16635">
        <ele>667.6</ele>
        <time>2022-08-02T14:48:19Z</time>
      </trkpt>
      <trkpt lat="43.03263" lon="0.16604">
        <ele>666.1</ele>
        <time>2022-08-02T14:48:24Z</time>
      </trkpt>
      <trkpt lat="43.03308" lon="0.16575">
        <ele>664.1</ele>
        <time>2022-08-02T14:48:29Z</time>
      </trkpt>
      <trkpt lat="43.03358" lon="0.1654">
        <ele>660.7</ele>
        <time>2022-08-02T14:48:35Z</time>
      </trkpt>
      <trkpt lat="43.03401" lon="0.16513">
        <ele>663.6</ele>
        <time>2022-08-02T14:48:40Z</time>
      </trkpt>
      <trkpt lat="43.0344" lon="0.16487">
        <ele>659.6</ele>
        <time>2022-08-02T14:48:45Z</time>
      </trkpt>
      <trkpt lat="43.03482" lon="0.16459">
        <ele>657.4</ele>
        <time>2022-08-02T14:48:50Z</time>
      </trkpt>
      <trkpt lat="43.03526" lon="0.1643">
        <ele>656.8</ele>
        <time>2022-08-02T14:48:55Z</time>
      </trkpt>
      <trkpt lat="43.03574" lon="0.16396">
        <ele>654.5</ele>
        <time>2022-08-02T14:49:01Z</time>
      </trkpt>
      <trkpt lat="43.03617" lon="0.16366">
        <ele>653.2</ele>
        <time>2022-08-02T14:49:06Z</time>
      </trkpt>
      <trkpt lat="43.03668" lon="0.16336">
        <ele>647.2</ele>
        <time>2022-08-02T14:49:12Z</time>
      </trkpt>
      <trkpt lat="43.03709" lon="0.16313">
        <ele>648.3</ele>
        <time>2022-08-02T14:49:17Z</time>
      </trkpt>
      <trkpt lat="43.03751" lon="0.1629">
        <ele>649.4</ele>
        <time>2022-08-02T14:49:22Z</time>
      </trkpt>
      <trkpt lat="43.03791" lon="0.16266">
        <ele>649.2</ele>
        <time>2022-08-02T14:49:27Z</time>
      </trkpt>
      <trkpt lat="43.03839" lon="0.1624">
        <ele>645.6</ele>
        <time>2022-08-02T14:49:33Z</time>
      </trkpt>
      <trkpt lat="43.03879" lon="0.16216">
        <ele>646.4</ele>
        <time>2022-08-02T14:49:38Z</time>
      </trkpt>
      <trkpt lat="43.03926" lon="0.16188">
        <ele>646.6</ele>
        <time>2022-08-02T14:49:44Z</time>
      </trkpt>
      <trkpt lat="43.03974" lon="0.16164">
        <ele>644.2</ele>
        <time>2022-08-02T14:49:50Z</time>
      </trkpt>
      <trkpt lat="43.04013" lon="0.16144">
        <ele>642.9</ele>
        <time>2022-08-02T14:49:55Z</time>
      </trkpt>
      <trkpt lat="43.04059" lon="0.16122">
        <ele>642.5</ele>
        <time>2022-08-02T14:50:01Z</time>
      </trkpt>
      <trkpt lat="43.04098" lon="0.16104">
        <ele>643.2</ele>
        <time>2022-08-02T14:50:06Z</time>
      </trkpt>
      <trkpt lat="43.04144" lon="0.16081">
        <ele>641.4</ele>
        <time>2022-08-02T14:50:12Z</time>
      </trkpt>
      <trkpt lat="43.04181" lon="0.16059">
        <ele>643</ele>
        <time>2022-08-02T14:50:17Z</time>
      </trkpt>
      <trkpt lat="43.0423" lon="0.16036">
        <ele>644.3</ele>
        <time>2022-08-02T14:50:23Z</time>
      </trkpt>
      <trkpt lat="43.04278" lon="0.16016">
        <ele>645.9</ele>
        <time>2022-08-02T14:50:29Z</time>
      </trkpt>
      <trkpt lat="43.04318" lon="0.16002">
        <ele>644.1</ele>
        <time>2022-08-02T14:50:34Z</time>
      </trkpt>
      <trkpt lat="43.04357" lon="0.15986">
        <ele>641.1</ele>
        <time>2022-08-02T14:50:39Z</time>
      </trkpt>
      <trkpt lat="43.04407" lon="0.15966">
        <ele>642.4</ele>
        <time>2022-08-02T14:50:45Z</time>
      </trkpt>
      <trkpt lat="43.04448" lon="0.15951">
        <ele>639.9</ele>
        <time>2022-08-02T14:50:50Z</time>
      </trkpt>
      <trkpt lat="43.04489" lon="0.15934">
        <ele>640</ele>
        <time>2022-08-02T14:50:55Z</time>
      </trkpt>
      <trkpt lat="43.04537" lon="0.15917">
        <ele>636.3</ele>
        <time>2022-08-02T14:51:01Z</time>
      </trkpt>
      <trkpt lat="43.04579" lon="0.15902">
        <ele>634.5</ele>
        <time>2022-08-02T14:51:06Z</time>
      </trkpt>
      <trkpt lat="43.04629" lon="0.15879">
        <ele>633</ele>
        <time>2022-08-02T14:51:12Z</time>
      </trkpt>
      <trkpt lat="43.04682" lon="0.15865">
        <ele>632.8</ele>
        <time>2022-08-02T14:51:18Z</time>
      </trkpt>
      <trkpt lat="43.04723" lon="0.1585">
        <ele>635.2</ele>
        <time>2022-08-02T14:51:23Z</time>
      </trkpt>
      <trkpt lat="43.04772" lon="0.15827">
        <ele>637.3</ele>
        <time>2022-08-02T14:51:29Z</time>
      </trkpt>
      <trkpt lat="43.04814" lon="0.15811">
        <ele>636.7</ele>
        <time>2022-08-02T14:51:34Z</time>
      </trkpt>
      <trkpt lat="43.04866" lon="0.15791">
        <ele>636.8</ele>
        <time>2022-08-02T14:51:40Z</time>
      </trkpt>
      <trkpt lat="43.04919" lon="0.15777">
        <ele>634.1</ele>
        <time>2022-08-02T14:51:46Z</time>
      </trkpt>
      <trkpt lat="43.04974" lon="0.15798">
        <ele>633.6</ele>
        <time>2022-08-02T14:51:52Z</time>
      </trkpt>
      <trkpt lat="43.05029" lon="0.15814">
        <ele>632.1</ele>
        <time>2022-08-02T14:51:58Z</time>
      </trkpt>
      <trkpt lat="43.05078" lon="0.15814">
        <ele>627.7</ele>
        <time>2022-08-02T14:52:03Z</time>
      </trkpt>
      <trkpt lat="43.05133" lon="0.15797">
        <ele>625.4</ele>
        <time>2022-08-02T14:52:09Z</time>
      </trkpt>
      <trkpt lat="43.05187" lon="0.15774">
        <ele>625.9</ele>
        <time>2022-08-02T14:52:15Z</time>
      </trkpt>
      <trkpt lat="43.05242" lon="0.15751">
        <ele>624.1</ele>
        <time>2022-08-02T14:52:21Z</time>
      </trkpt>
      <trkpt lat="43.0529" lon="0.15731">
        <ele>623.6</ele>
        <time>2022-08-02T14:52:26Z</time>
      </trkpt>
      <trkpt lat="43.05344" lon="0.15732">
        <ele>623.7</ele>
        <time>2022-08-02T14:52:32Z</time>
      </trkpt>
      <trkpt lat="43.05389" lon="0.1574">
        <ele>625.3</ele>
        <time>2022-08-02T14:52:37Z</time>
      </trkpt>
      <trkpt lat="43.05441" lon="0.15735">
        <ele>625.3</ele>
        <time>2022-08-02T14:52:43Z</time>
      </trkpt>
      <trkpt lat="43.05483" lon="0.15735">
        <ele>622.6</ele>
        <time>2022-08-02T14:52:48Z</time>
      </trkpt>
      <trkpt lat="43.05535" lon="0.15725">
        <ele>620</ele>
        <time>2022-08-02T14:52:54Z</time>
      </trkpt>
      <trkpt lat="43.05585" lon="0.15692">
        <ele>620.5</ele>
        <time>2022-08-02T14:53:00Z</time>
      </trkpt>
      <trkpt lat="43.05628" lon="0.15662">
        <ele>622.7</ele>
        <time>2022-08-02T14:53:05Z</time>
      </trkpt>
      <trkpt lat="43.05671" lon="0.15633">
        <ele>623</ele>
        <time>2022-08-02T14:53:10Z</time>
      </trkpt>
      <trkpt lat="43.05711" lon="0.15608">
        <ele>620.9</ele>
        <time>2022-08-02T14:53:15Z</time>
      </trkpt>
      <trkpt lat="43.05761" lon="0.15577">
        <ele>618.2</ele>
        <time>2022-08-02T14:53:21Z</time>
      </trkpt>
      <trkpt lat="43.05802" lon="0.15548">
        <ele>619.6</ele>
        <time>2022-08-02T14:53:26Z</time>
      </trkpt>
      <trkpt lat="43.0585" lon="0.15521">
        <ele>618.1</ele>
        <time>2022-08-02T14:53:32Z</time>
      </trkpt>
      <trkpt lat="43.05891" lon="0.15506">
        <ele>615.7</ele>
        <time>2022-08-02T14:53:37Z</time>
      </trkpt>
      <trkpt lat="43.05932" lon="0.15489">
        <ele>616.8</ele>
        <time>2022-08-02T14:53:42Z</time>
      </trkpt>
      <trkpt lat="43.05969" lon="0.15466">
        <ele>614.2</ele>
        <time>2022-08-02T14:53:47Z</time>
      </trkpt>
      <trkpt lat="43.0601" lon="0.1543">
        <ele>614.2</ele>
        <time>2022-08-02T14:53:53Z</time>
      </trkpt>
      <trkpt lat="43.0605" lon="0.15397">
        <ele>614.3</ele>
        <time>2022-08-02T14:53:59Z</time>
      </trkpt>
      <trkpt lat="43.06074" lon="0.15374">
        <ele>612.8</ele>
        <time>2022-08-02T14:54:04Z</time>
      </trkpt>
      <trkpt lat="43.06078" lon="0.15335">
        <ele>612.4</ele>
        <time>2022-08-02T14:54:10Z</time>
      </trkpt>
      <trkpt lat="43.06082" lon="0.15317">
        <ele>610.9</ele>
        <time>2022-08-02T14:54:16Z</time>
      </trkpt>
      <trkpt lat="43.06084" lon="0.1532">
        <ele>609.3</ele>
        <time>2022-08-02T14:54:22Z</time>
      </trkpt>
      <trkpt lat="43.06087" lon="0.15307">
        <ele>609.2</ele>
        <time>2022-08-02T14:54:27Z</time>
      </trkpt>
      <trkpt lat="43.06092" lon="0.15283">
        <ele>608.7</ele>
        <time>2022-08-02T14:54:32Z</time>
      </trkpt>
      <trkpt lat="43.06102" lon="0.15252">
        <ele>609.9</ele>
        <time>2022-08-02T14:54:38Z</time>
      </trkpt>
      <trkpt lat="43.06105" lon="0.15221">
        <ele>610.1</ele>
        <time>2022-08-02T14:54:43Z</time>
      </trkpt>
      <trkpt lat="43.0612" lon="0.15181">
        <ele>610.3</ele>
        <time>2022-08-02T14:54:49Z</time>
      </trkpt>
      <trkpt lat="43.06148" lon="0.15142">
        <ele>610.4</ele>
        <time>2022-08-02T14:54:55Z</time>
      </trkpt>
      <trkpt lat="43.06169" lon="0.15103">
        <ele>610.9</ele>
        <time>2022-08-02T14:55:00Z</time>
      </trkpt>
      <trkpt lat="43.06199" lon="0.15061">
        <ele>610.4</ele>
        <time>2022-08-02T14:55:06Z</time>
      </trkpt>
      <trkpt lat="43.06235" lon="0.15024">
        <ele>609.3</ele>
        <time>2022-08-02T14:55:12Z</time>
      </trkpt>
      <trkpt lat="43.06267" lon="0.15014">
        <ele>607.3</ele>
        <time>2022-08-02T14:55:17Z</time>
      </trkpt>
      <trkpt lat="43.06307" lon="0.15008">
        <ele>608.1</ele>
        <time>2022-08-02T14:55:23Z</time>
      </trkpt>
      <trkpt lat="43.0634" lon="0.15022">
        <ele>606.8</ele>
        <time>2022-08-02T14:55:29Z</time>
      </trkpt>
      <trkpt lat="43.06363" lon="0.15038">
        <ele>606</ele>
        <time>2022-08-02T14:55:34Z</time>
      </trkpt>
      <trkpt lat="43.06387" lon="0.15039">
        <ele>606.1</ele>
        <time>2022-08-02T14:55:39Z</time>
      </trkpt>
      <trkpt lat="43.0642" lon="0.15022">
        <ele>605.9</ele>
        <time>2022-08-02T14:55:45Z</time>
      </trkpt>
      <trkpt lat="43.06448" lon="0.15009">
        <ele>605.1</ele>
        <time>2022-08-02T14:55:50Z</time>
      </trkpt>
      <trkpt lat="43.06478" lon="0.15002">
        <ele>603.4</ele>
        <time>2022-08-02T14:55:56Z</time>
      </trkpt>
      <trkpt lat="43.06499" lon="0.14994">
        <ele>601.3</ele>
        <time>2022-08-02T14:56:01Z</time>
      </trkpt>
      <trkpt lat="43.06525" lon="0.14983">
        <ele>603.6</ele>
        <time>2022-08-02T14:56:06Z</time>
      </trkpt>
      <trkpt lat="43.06552" lon="0.14968">
        <ele>602.1</ele>
        <time>2022-08-02T14:56:11Z</time>
      </trkpt>
      <trkpt lat="43.06582" lon="0.1495">
        <ele>601</ele>
        <time>2022-08-02T14:56:16Z</time>
      </trkpt>
      <trkpt lat="43.06623" lon="0.14927">
        <ele>600.4</ele>
        <time>2022-08-02T14:56:22Z</time>
      </trkpt>
      <trkpt lat="43.06659" lon="0.14906">
        <ele>600.8</ele>
        <time>2022-08-02T14:56:27Z</time>
      </trkpt>
      <trkpt lat="43.06701" lon="0.14884">
        <ele>599.6</ele>
        <time>2022-08-02T14:56:33Z</time>
      </trkpt>
      <trkpt lat="43.06727" lon="0.14913">
        <ele>600</ele>
        <time>2022-08-02T14:56:38Z</time>
      </trkpt>
      <trkpt lat="43.06756" lon="0.14919">
        <ele>598.4</ele>
        <time>2022-08-02T14:56:43Z</time>
      </trkpt>
      <trkpt lat="43.06791" lon="0.14906">
        <ele>600.1</ele>
        <time>2022-08-02T14:56:48Z</time>
      </trkpt>
      <trkpt lat="43.06833" lon="0.14887">
        <ele>600.1</ele>
        <time>2022-08-02T14:56:54Z</time>
      </trkpt>
      <trkpt lat="43.06867" lon="0.14874">
        <ele>599.9</ele>
        <time>2022-08-02T14:56:59Z</time>
      </trkpt>
      <trkpt lat="43.06874" lon="0.14847">
        <ele>595.2</ele>
        <time>2022-08-02T14:57:05Z</time>
      </trkpt>
      <trkpt lat="43.06862" lon="0.14813">
        <ele>594.7</ele>
        <time>2022-08-02T14:57:10Z</time>
      </trkpt>
      <trkpt lat="43.06848" lon="0.1477">
        <ele>595.9</ele>
        <time>2022-08-02T14:57:16Z</time>
      </trkpt>
      <trkpt lat="43.06834" lon="0.14725">
        <ele>597.3</ele>
        <time>2022-08-02T14:57:22Z</time>
      </trkpt>
      <trkpt lat="43.0683" lon="0.14689">
        <ele>597.2</ele>
        <time>2022-08-02T14:57:27Z</time>
      </trkpt>
      <trkpt lat="43.06855" lon="0.14679">
        <ele>598.7</ele>
        <time>2022-08-02T14:57:32Z</time>
      </trkpt>
      <trkpt lat="43.06889" lon="0.14661">
        <ele>598.2</ele>
        <time>2022-08-02T14:57:38Z</time>
      </trkpt>
      <trkpt lat="43.06919" lon="0.14641">
        <ele>598.4</ele>
        <time>2022-08-02T14:57:43Z</time>
      </trkpt>
      <trkpt lat="43.06954" lon="0.14617">
        <ele>596.5</ele>
        <time>2022-08-02T14:57:49Z</time>
      </trkpt>
      <trkpt lat="43.06994" lon="0.14594">
        <ele>594.5</ele>
        <time>2022-08-02T14:57:55Z</time>
      </trkpt>
      <trkpt lat="43.07028" lon="0.14575">
        <ele>593.8</ele>
        <time>2022-08-02T14:58:00Z</time>
      </trkpt>
      <trkpt lat="43.07069" lon="0.14552">
        <ele>593.4</ele>
        <time>2022-08-02T14:58:06Z</time>
      </trkpt>
      <trkpt lat="43.07103" lon="0.14531">
        <ele>594.7</ele>
        <time>2022-08-02T14:58:11Z</time>
      </trkpt>
      <trkpt lat="43.0714" lon="0.14509">
        <ele>594.1</ele>
        <time>2022-08-02T14:58:16Z</time>
      </trkpt>
      <trkpt lat="43.07185" lon="0.14478">
        <ele>594.1</ele>
        <time>2022-08-02T14:58:22Z</time>
      </trkpt>
      <trkpt lat="43.07229" lon="0.1445">
        <ele>589.3</ele>
        <time>2022-08-02T14:58:28Z</time>
      </trkpt>
      <trkpt lat="43.07272" lon="0.14424">
        <ele>588.7</ele>
        <time>2022-08-02T14:58:34Z</time>
      </trkpt>
      <trkpt lat="43.07304" lon="0.1441">
        <ele>588.9</ele>
        <time>2022-08-02T14:58:39Z</time>
      </trkpt>
      <trkpt lat="43.07329" lon="0.14397">
        <ele>586.5</ele>
        <time>2022-08-02T14:58:45Z</time>
      </trkpt>
      <trkpt lat="43.07364" lon="0.14374">
        <ele>587.4</ele>
        <time>2022-08-02T14:58:51Z</time>
      </trkpt>
      <trkpt lat="43.07399" lon="0.1435">
        <ele>586.2</ele>
        <time>2022-08-02T14:58:57Z</time>
      </trkpt>
      <trkpt lat="43.07433" lon="0.14331">
        <ele>586.1</ele>
        <time>2022-08-02T14:59:02Z</time>
      </trkpt>
      <trkpt lat="43.07477" lon="0.14306">
        <ele>583.6</ele>
        <time>2022-08-02T14:59:08Z</time>
      </trkpt>
      <trkpt lat="43.07514" lon="0.14285">
        <ele>582.8</ele>
        <time>2022-08-02T14:59:13Z</time>
      </trkpt>
      <trkpt lat="43.07561" lon="0.14257">
        <ele>578.3</ele>
        <time>2022-08-02T14:59:19Z</time>
      </trkpt>
      <trkpt lat="43.07608" lon="0.14228">
        <ele>579.1</ele>
        <time>2022-08-02T14:59:25Z</time>
      </trkpt>
      <trkpt lat="43.07648" lon="0.14207">
        <ele>576.9</ele>
        <time>2022-08-02T14:59:30Z</time>
      </trkpt>
      <trkpt lat="43.07695" lon="0.1418">
        <ele>577.6</ele>
        <time>2022-08-02T14:59:36Z</time>
      </trkpt>
      <trkpt lat="43.07741" lon="0.14153">
        <ele>575.3</ele>
        <time>2022-08-02T14:59:42Z</time>
      </trkpt>
      <trkpt lat="43.07785" lon="0.14124">
        <ele>573</ele>
        <time>2022-08-02T14:59:48Z</time>
      </trkpt>
      <trkpt lat="43.07829" lon="0.14104">
        <ele>573.5</ele>
        <time>2022-08-02T14:59:54Z</time>
      </trkpt>
      <trkpt lat="43.07859" lon="0.14078">
        <ele>573.1</ele>
        <time>2022-08-02T14:59:59Z</time>
      </trkpt>
      <trkpt lat="43.07899" lon="0.14052">
        <ele>573.2</ele>
        <time>2022-08-02T15:00:05Z</time>
      </trkpt>
      <trkpt lat="43.07939" lon="0.1403">
        <ele>572.8</ele>
        <time>2022-08-02T15:00:11Z</time>
      </trkpt>
      <trkpt lat="43.07976" lon="0.14009">
        <ele>572.1</ele>
        <time>2022-08-02T15:00:16Z</time>
      </trkpt>
      <trkpt lat="43.08012" lon="0.13984">
        <ele>572.5</ele>
        <time>2022-08-02T15:00:21Z</time>
      </trkpt>
      <trkpt lat="43.08057" lon="0.13957">
        <ele>571.2</ele>
        <time>2022-08-02T15:00:27Z</time>
      </trkpt>
      <trkpt lat="43.08104" lon="0.13929">
        <ele>571</ele>
        <time>2022-08-02T15:00:33Z</time>
      </trkpt>
      <trkpt lat="43.08151" lon="0.139">
        <ele>570.1</ele>
        <time>2022-08-02T15:00:39Z</time>
      </trkpt>
      <trkpt lat="43.08197" lon="0.13872">
        <ele>569.9</ele>
        <time>2022-08-02T15:00:45Z</time>
      </trkpt>
      <trkpt lat="43.08244" lon="0.13847">
        <ele>566.1</ele>
        <time>2022-08-02T15:00:51Z</time>
      </trkpt>
      <trkpt lat="43.08293" lon="0.13816">
        <ele>564.7</ele>
        <time>2022-08-02T15:00:57Z</time>
      </trkpt>
      <trkpt lat="43.08343" lon="0.13786">
        <ele>564.9</ele>
        <time>2022-08-02T15:01:03Z</time>
      </trkpt>
      <trkpt lat="43.0839" lon="0.13759">
        <ele>563.1</ele>
        <time>2022-08-02T15:01:09Z</time>
      </trkpt>
      <trkpt lat="43.08431" lon="0.13735">
        <ele>563.1</ele>
        <time>2022-08-02T15:01:14Z</time>
      </trkpt>
      <trkpt lat="43.08472" lon="0.13709">
        <ele>563.8</ele>
        <time>2022-08-02T15:01:19Z</time>
      </trkpt>
      <trkpt lat="43.08522" lon="0.1368">
        <ele>559.9</ele>
        <time>2022-08-02T15:01:25Z</time>
      </trkpt>
      <trkpt lat="43.08568" lon="0.13653">
        <ele>557.9</ele>
        <time>2022-08-02T15:01:31Z</time>
      </trkpt>
      <trkpt lat="43.08593" lon="0.13637">
        <ele>558.2</ele>
        <time>2022-08-02T15:01:37Z</time>
      </trkpt>
      <trkpt lat="43.08613" lon="0.13623">
        <ele>559.5</ele>
        <time>2022-08-02T15:01:42Z</time>
      </trkpt>
      <trkpt lat="43.08637" lon="0.13609">
        <ele>557</ele>
        <time>2022-08-02T15:01:47Z</time>
      </trkpt>
      <trkpt lat="43.08664" lon="0.13591">
        <ele>556.3</ele>
        <time>2022-08-02T15:01:52Z</time>
      </trkpt>
      <trkpt lat="43.08699" lon="0.13564">
        <ele>555.1</ele>
        <time>2022-08-02T15:01:58Z</time>
      </trkpt>
      <trkpt lat="43.08741" lon="0.13541">
        <ele>555.1</ele>
        <time>2022-08-02T15:02:04Z</time>
      </trkpt>
      <trkpt lat="43.08781" lon="0.13518">
        <ele>552.1</ele>
        <time>2022-08-02T15:02:10Z</time>
      </trkpt>
      <trkpt lat="43.08815" lon="0.13493">
        <ele>552.6</ele>
        <time>2022-08-02T15:02:15Z</time>
      </trkpt>
      <trkpt lat="43.0885" lon="0.1347">
        <ele>554.1</ele>
        <time>2022-08-02T15:02:20Z</time>
      </trkpt>
      <trkpt lat="43.08892" lon="0.13443">
        <ele>556.2</ele>
        <time>2022-08-02T15:02:26Z</time>
      </trkpt>
      <trkpt lat="43.08934" lon="0.13413">
        <ele>555.4</ele>
        <time>2022-08-02T15:02:32Z</time>
      </trkpt>
      <trkpt lat="43.08971" lon="0.13388">
        <ele>555.9</ele>
        <time>2022-08-02T15:02:37Z</time>
      </trkpt>
      <trkpt lat="43.09018" lon="0.13358">
        <ele>555.3</ele>
        <time>2022-08-02T15:02:43Z</time>
      </trkpt>
      <trkpt lat="43.09056" lon="0.13335">
        <ele>553.8</ele>
        <time>2022-08-02T15:02:48Z</time>
      </trkpt>
      <trkpt lat="43.09104" lon="0.13305">
        <ele>554.5</ele>
        <time>2022-08-02T15:02:54Z</time>
      </trkpt>
      <trkpt lat="43.09144" lon="0.1328">
        <ele>552.5</ele>
        <time>2022-08-02T15:02:59Z</time>
      </trkpt>
      <trkpt lat="43.09183" lon="0.13254">
        <ele>551.6</ele>
        <time>2022-08-02T15:03:04Z</time>
      </trkpt>
      <trkpt lat="43.09224" lon="0.13215">
        <ele>551.6</ele>
        <time>2022-08-02T15:03:10Z</time>
      </trkpt>
      <trkpt lat="43.09258" lon="0.1318">
        <ele>552.1</ele>
        <time>2022-08-02T15:03:15Z</time>
      </trkpt>
      <trkpt lat="43.09291" lon="0.13148">
        <ele>550</ele>
        <time>2022-08-02T15:03:20Z</time>
      </trkpt>
      <trkpt lat="43.09332" lon="0.13105">
        <ele>548.9</ele>
        <time>2022-08-02T15:03:26Z</time>
      </trkpt>
      <trkpt lat="43.09367" lon="0.13071">
        <ele>548.9</ele>
        <time>2022-08-02T15:03:31Z</time>
      </trkpt>
      <trkpt lat="43.09407" lon="0.1303">
        <ele>547.2</ele>
        <time>2022-08-02T15:03:37Z</time>
      </trkpt>
      <trkpt lat="43.09442" lon="0.12993">
        <ele>547.8</ele>
        <time>2022-08-02T15:03:42Z</time>
      </trkpt>
      <trkpt lat="43.09477" lon="0.1296">
        <ele>547.4</ele>
        <time>2022-08-02T15:03:47Z</time>
      </trkpt>
      <trkpt lat="43.09517" lon="0.12918">
        <ele>547.6</ele>
        <time>2022-08-02T15:03:53Z</time>
      </trkpt>
      <trkpt lat="43.09557" lon="0.12876">
        <ele>547.4</ele>
        <time>2022-08-02T15:03:59Z</time>
      </trkpt>
      <trkpt lat="43.09596" lon="0.12836">
        <ele>545.8</ele>
        <time>2022-08-02T15:04:05Z</time>
      </trkpt>
      <trkpt lat="43.09629" lon="0.12801">
        <ele>547.9</ele>
        <time>2022-08-02T15:04:10Z</time>
      </trkpt>
      <trkpt lat="43.0967" lon="0.12761">
        <ele>547.3</ele>
        <time>2022-08-02T15:04:16Z</time>
      </trkpt>
      <trkpt lat="43.09704" lon="0.12727">
        <ele>546.4</ele>
        <time>2022-08-02T15:04:21Z</time>
      </trkpt>
      <trkpt lat="43.09745" lon="0.12684">
        <ele>544.8</ele>
        <time>2022-08-02T15:04:27Z</time>
      </trkpt>
      <trkpt lat="43.0978" lon="0.12652">
        <ele>541.8</ele>
        <time>2022-08-02T15:04:32Z</time>
      </trkpt>
      <trkpt lat="43.09819" lon="0.12611">
        <ele>540.2</ele>
        <time>2022-08-02T15:04:38Z</time>
      </trkpt>
      <trkpt lat="43.09859" lon="0.1257">
        <ele>537.2</ele>
        <time>2022-08-02T15:04:44Z</time>
      </trkpt>
      <trkpt lat="43.09892" lon="0.12537">
        <ele>537.1</ele>
        <time>2022-08-02T15:04:49Z</time>
      </trkpt>
      <trkpt lat="43.0993" lon="0.12496">
        <ele>536.8</ele>
        <time>2022-08-02T15:04:55Z</time>
      </trkpt>
      <trkpt lat="43.09971" lon="0.12457">
        <ele>534.6</ele>
        <time>2022-08-02T15:05:01Z</time>
      </trkpt>
      <trkpt lat="43.10011" lon="0.12415">
        <ele>537.1</ele>
        <time>2022-08-02T15:05:07Z</time>
      </trkpt>
      <trkpt lat="43.10049" lon="0.12367">
        <ele>537.8</ele>
        <time>2022-08-02T15:05:13Z</time>
      </trkpt>
      <trkpt lat="43.10082" lon="0.12309">
        <ele>535</ele>
        <time>2022-08-02T15:05:19Z</time>
      </trkpt>
      <trkpt lat="43.10103" lon="0.12258">
        <ele>532.6</ele>
        <time>2022-08-02T15:05:24Z</time>
      </trkpt>
      <trkpt lat="43.10129" lon="0.12198">
        <ele>532.8</ele>
        <time>2022-08-02T15:05:30Z</time>
      </trkpt>
      <trkpt lat="43.10151" lon="0.1215">
        <ele>531.6</ele>
        <time>2022-08-02T15:05:35Z</time>
      </trkpt>
      <trkpt lat="43.10182" lon="0.121">
        <ele>527.7</ele>
        <time>2022-08-02T15:05:41Z</time>
      </trkpt>
      <trkpt lat="43.10213" lon="0.12045">
        <ele>528.5</ele>
        <time>2022-08-02T15:05:47Z</time>
      </trkpt>
      <trkpt lat="43.10241" lon="0.11998">
        <ele>526.5</ele>
        <time>2022-08-02T15:05:52Z</time>
      </trkpt>
      <trkpt lat="43.10273" lon="0.11945">
        <ele>526</ele>
        <time>2022-08-02T15:05:58Z</time>
      </trkpt>
      <trkpt lat="43.10305" lon="0.11891">
        <ele>525.7</ele>
        <time>2022-08-02T15:06:04Z</time>
      </trkpt>
      <trkpt lat="43.10347" lon="0.11862">
        <ele>525.6</ele>
        <time>2022-08-02T15:06:10Z</time>
      </trkpt>
      <trkpt lat="43.10379" lon="0.11846">
        <ele>523.4</ele>
        <time>2022-08-02T15:06:15Z</time>
      </trkpt>
      <trkpt lat="43.1041" lon="0.1183">
        <ele>522.6</ele>
        <time>2022-08-02T15:06:20Z</time>
      </trkpt>
      <trkpt lat="43.10441" lon="0.11815">
        <ele>523.2</ele>
        <time>2022-08-02T15:06:25Z</time>
      </trkpt>
      <trkpt lat="43.10479" lon="0.11796">
        <ele>522.7</ele>
        <time>2022-08-02T15:06:31Z</time>
      </trkpt>
      <trkpt lat="43.10516" lon="0.11774">
        <ele>522.5</ele>
        <time>2022-08-02T15:06:37Z</time>
      </trkpt>
      <trkpt lat="43.10549" lon="0.11755">
        <ele>522</ele>
        <time>2022-08-02T15:06:42Z</time>
      </trkpt>
      <trkpt lat="43.10583" lon="0.11734">
        <ele>520.2</ele>
        <time>2022-08-02T15:06:47Z</time>
      </trkpt>
      <trkpt lat="43.10623" lon="0.11708">
        <ele>523</ele>
        <time>2022-08-02T15:06:53Z</time>
      </trkpt>
      <trkpt lat="43.10666" lon="0.11681">
        <ele>524.1</ele>
        <time>2022-08-02T15:06:59Z</time>
      </trkpt>
      <trkpt lat="43.10705" lon="0.11654">
        <ele>523.5</ele>
        <time>2022-08-02T15:07:05Z</time>
      </trkpt>
      <trkpt lat="43.10736" lon="0.11635">
        <ele>521.7</ele>
        <time>2022-08-02T15:07:10Z</time>
      </trkpt>
      <trkpt lat="43.10781" lon="0.11607">
        <ele>519.8</ele>
        <time>2022-08-02T15:07:16Z</time>
      </trkpt>
      <trkpt lat="43.1083" lon="0.11574">
        <ele>521.1</ele>
        <time>2022-08-02T15:07:22Z</time>
      </trkpt>
      <trkpt lat="43.10872" lon="0.11549">
        <ele>520</ele>
        <time>2022-08-02T15:07:28Z</time>
      </trkpt>
      <trkpt lat="43.10909" lon="0.11524">
        <ele>519.6</ele>
        <time>2022-08-02T15:07:33Z</time>
      </trkpt>
      <trkpt lat="43.10955" lon="0.11495">
        <ele>518.3</ele>
        <time>2022-08-02T15:07:39Z</time>
      </trkpt>
      <trkpt lat="43.11001" lon="0.11463">
        <ele>517.6</ele>
        <time>2022-08-02T15:07:45Z</time>
      </trkpt>
      <trkpt lat="43.11044" lon="0.11436">
        <ele>516.5</ele>
        <time>2022-08-02T15:07:51Z</time>
      </trkpt>
      <trkpt lat="43.11089" lon="0.11407">
        <ele>516</ele>
        <time>2022-08-02T15:07:57Z</time>
      </trkpt>
      <trkpt lat="43.11131" lon="0.11382">
        <ele>515.9</ele>
        <time>2022-08-02T15:08:02Z</time>
      </trkpt>
      <trkpt lat="43.11177" lon="0.11352">
        <ele>514</ele>
        <time>2022-08-02T15:08:08Z</time>
      </trkpt>
      <trkpt lat="43.11219" lon="0.1133">
        <ele>511.6</ele>
        <time>2022-08-02T15:08:13Z</time>
      </trkpt>
      <trkpt lat="43.11267" lon="0.11297">
        <ele>510.9</ele>
        <time>2022-08-02T15:08:19Z</time>
      </trkpt>
      <trkpt lat="43.11306" lon="0.1127">
        <ele>510.4</ele>
        <time>2022-08-02T15:08:24Z</time>
      </trkpt>
      <trkpt lat="43.11346" lon="0.11246">
        <ele>507.4</ele>
        <time>2022-08-02T15:08:29Z</time>
      </trkpt>
      <trkpt lat="43.11384" lon="0.1122">
        <ele>506.3</ele>
        <time>2022-08-02T15:08:34Z</time>
      </trkpt>
      <trkpt lat="43.11431" lon="0.11189">
        <ele>507.7</ele>
        <time>2022-08-02T15:08:40Z</time>
      </trkpt>
      <trkpt lat="43.11478" lon="0.11159">
        <ele>507.4</ele>
        <time>2022-08-02T15:08:46Z</time>
      </trkpt>
      <trkpt lat="43.11516" lon="0.11136">
        <ele>506.5</ele>
        <time>2022-08-02T15:08:51Z</time>
      </trkpt>
      <trkpt lat="43.11552" lon="0.1111">
        <ele>507.7</ele>
        <time>2022-08-02T15:08:56Z</time>
      </trkpt>
      <trkpt lat="43.11593" lon="0.11083">
        <ele>507.6</ele>
        <time>2022-08-02T15:09:02Z</time>
      </trkpt>
      <trkpt lat="43.11629" lon="0.11055">
        <ele>508.5</ele>
        <time>2022-08-02T15:09:08Z</time>
      </trkpt>
      <trkpt lat="43.11664" lon="0.11036">
        <ele>507.4</ele>
        <time>2022-08-02T15:09:14Z</time>
      </trkpt>
      <trkpt lat="43.11678" lon="0.11017">
        <ele>507.7</ele>
        <time>2022-08-02T15:09:19Z</time>
      </trkpt>
      <trkpt lat="43.11677" lon="0.10978">
        <ele>507.9</ele>
        <time>2022-08-02T15:09:24Z</time>
      </trkpt>
      <trkpt lat="43.1169" lon="0.10927">
        <ele>509.5</ele>
        <time>2022-08-02T15:09:30Z</time>
      </trkpt>
      <trkpt lat="43.11704" lon="0.10881">
        <ele>508.8</ele>
        <time>2022-08-02T15:09:35Z</time>
      </trkpt>
      <trkpt lat="43.11718" lon="0.10831">
        <ele>509.2</ele>
        <time>2022-08-02T15:09:40Z</time>
      </trkpt>
      <trkpt lat="43.11735" lon="0.10769">
        <ele>507.2</ele>
        <time>2022-08-02T15:09:46Z</time>
      </trkpt>
      <trkpt lat="43.11754" lon="0.10707">
        <ele>506.9</ele>
        <time>2022-08-02T15:09:52Z</time>
      </trkpt>
      <trkpt lat="43.11768" lon="0.10655">
        <ele>507.6</ele>
        <time>2022-08-02T15:09:57Z</time>
      </trkpt>
      <trkpt lat="43.11769" lon="0.10606">
        <ele>509.9</ele>
        <time>2022-08-02T15:10:02Z</time>
      </trkpt>
      <trkpt lat="43.11768" lon="0.10553">
        <ele>513.1</ele>
        <time>2022-08-02T15:10:08Z</time>
      </trkpt>
      <trkpt lat="43.11768" lon="0.10506">
        <ele>514.6</ele>
        <time>2022-08-02T15:10:14Z</time>
      </trkpt>
      <trkpt lat="43.11768" lon="0.10465">
        <ele>516.2</ele>
        <time>2022-08-02T15:10:20Z</time>
      </trkpt>
      <trkpt lat="43.11764" lon="0.10426">
        <ele>516.7</ele>
        <time>2022-08-02T15:10:26Z</time>
      </trkpt>
      <trkpt lat="43.11758" lon="0.10382">
        <ele>515.5</ele>
        <time>2022-08-02T15:10:32Z</time>
      </trkpt>
      <trkpt lat="43.11751" lon="0.10335">
        <ele>516.3</ele>
        <time>2022-08-02T15:10:38Z</time>
      </trkpt>
      <trkpt lat="43.1174" lon="0.10286">
        <ele>517</ele>
        <time>2022-08-02T15:10:44Z</time>
      </trkpt>
      <trkpt lat="43.11717" lon="0.10249">
        <ele>518.1</ele>
        <time>2022-08-02T15:10:50Z</time>
      </trkpt>
      <trkpt lat="43.11694" lon="0.10225">
        <ele>518.7</ele>
        <time>2022-08-02T15:10:55Z</time>
      </trkpt>
      <trkpt lat="43.11672" lon="0.10203">
        <ele>521.5</ele>
        <time>2022-08-02T15:11:00Z</time>
      </trkpt>
      <trkpt lat="43.11649" lon="0.10177">
        <ele>521.4</ele>
        <time>2022-08-02T15:11:06Z</time>
      </trkpt>
      <trkpt lat="43.11631" lon="0.10153">
        <ele>522.4</ele>
        <time>2022-08-02T15:11:11Z</time>
      </trkpt>
      <trkpt lat="43.11619" lon="0.10124">
        <ele>523.2</ele>
        <time>2022-08-02T15:11:16Z</time>
      </trkpt>
      <trkpt lat="43.11615" lon="0.10085">
        <ele>524.9</ele>
        <time>2022-08-02T15:11:22Z</time>
      </trkpt>
      <trkpt lat="43.11615" lon="0.10069">
        <ele>526.2</ele>
        <time>2022-08-02T15:11:27Z</time>
      </trkpt>
      <trkpt lat="43.11614" lon="0.10023">
        <ele>528.4</ele>
        <time>2022-08-02T15:11:33Z</time>
      </trkpt>
      <trkpt lat="43.11613" lon="0.09997">
        <ele>529.6</ele>
        <time>2022-08-02T15:11:39Z</time>
      </trkpt>
      <trkpt lat="43.11614" lon="0.09956">
        <ele>527.8</ele>
        <time>2022-08-02T15:11:44Z</time>
      </trkpt>
      <trkpt lat="43.11614" lon="0.09918">
        <ele>529.4</ele>
        <time>2022-08-02T15:11:50Z</time>
      </trkpt>
      <trkpt lat="43.11613" lon="0.09886">
        <ele>530.8</ele>
        <time>2022-08-02T15:11:55Z</time>
      </trkpt>
      <trkpt lat="43.11614" lon="0.09853">
        <ele>531.1</ele>
        <time>2022-08-02T15:12:00Z</time>
      </trkpt>
      <trkpt lat="43.11614" lon="0.09817">
        <ele>532</ele>
        <time>2022-08-02T15:12:05Z</time>
      </trkpt>
      <trkpt lat="43.11614" lon="0.09776">
        <ele>531</ele>
        <time>2022-08-02T15:12:11Z</time>
      </trkpt>
      <trkpt lat="43.11614" lon="0.09736">
        <ele>531.3</ele>
        <time>2022-08-02T15:12:17Z</time>
      </trkpt>
      <trkpt lat="43.11614" lon="0.09703">
        <ele>531.6</ele>
        <time>2022-08-02T15:12:22Z</time>
      </trkpt>
      <trkpt lat="43.11613" lon="0.09667">
        <ele>534.3</ele>
        <time>2022-08-02T15:12:28Z</time>
      </trkpt>
      <trkpt lat="43.11619" lon="0.09632">
        <ele>533.5</ele>
        <time>2022-08-02T15:12:34Z</time>
      </trkpt>
      <trkpt lat="43.11623" lon="0.09603">
        <ele>533.5</ele>
        <time>2022-08-02T15:12:39Z</time>
      </trkpt>
      <trkpt lat="43.11626" lon="0.09574">
        <ele>534.1</ele>
        <time>2022-08-02T15:12:45Z</time>
      </trkpt>
      <trkpt lat="43.11631" lon="0.09549">
        <ele>535.2</ele>
        <time>2022-08-02T15:12:50Z</time>
      </trkpt>
      <trkpt lat="43.11634" lon="0.09525">
        <ele>537.6</ele>
        <time>2022-08-02T15:12:55Z</time>
      </trkpt>
      <trkpt lat="43.11641" lon="0.09502">
        <ele>538.2</ele>
        <time>2022-08-02T15:13:01Z</time>
      </trkpt>
      <trkpt lat="43.11647" lon="0.0948">
        <ele>538.2</ele>
        <time>2022-08-02T15:13:07Z</time>
      </trkpt>
      <trkpt lat="43.11653" lon="0.09461">
        <ele>540</ele>
        <time>2022-08-02T15:13:12Z</time>
      </trkpt>
      <trkpt lat="43.1166" lon="0.09439">
        <ele>541.6</ele>
        <time>2022-08-02T15:13:18Z</time>
      </trkpt>
      <trkpt lat="43.11669" lon="0.09416">
        <ele>542.8</ele>
        <time>2022-08-02T15:13:24Z</time>
      </trkpt>
      <trkpt lat="43.11678" lon="0.09396">
        <ele>541.5</ele>
        <time>2022-08-02T15:13:30Z</time>
      </trkpt>
      <trkpt lat="43.11686" lon="0.09379">
        <ele>543.4</ele>
        <time>2022-08-02T15:13:36Z</time>
      </trkpt>
      <trkpt lat="43.11694" lon="0.09365">
        <ele>545</ele>
        <time>2022-08-02T15:13:41Z</time>
      </trkpt>
      <trkpt lat="43.11703" lon="0.09352">
        <ele>547.9</ele>
        <time>2022-08-02T15:13:47Z</time>
      </trkpt>
      <trkpt lat="43.11712" lon="0.0934">
        <ele>550.4</ele>
        <time>2022-08-02T15:13:53Z</time>
      </trkpt>
      <trkpt lat="43.11721" lon="0.09331">
        <ele>551.5</ele>
        <time>2022-08-02T15:13:58Z</time>
      </trkpt>
      <trkpt lat="43.11732" lon="0.0932">
        <ele>552.4</ele>
        <time>2022-08-02T15:14:04Z</time>
      </trkpt>
      <trkpt lat="43.1174" lon="0.09311">
        <ele>552.7</ele>
        <time>2022-08-02T15:14:09Z</time>
      </trkpt>
      <trkpt lat="43.1175" lon="0.09302">
        <ele>553</ele>
        <time>2022-08-02T15:14:14Z</time>
      </trkpt>
      <trkpt lat="43.11761" lon="0.09293">
        <ele>555.9</ele>
        <time>2022-08-02T15:14:20Z</time>
      </trkpt>
      <trkpt lat="43.11773" lon="0.09286">
        <ele>554.4</ele>
        <time>2022-08-02T15:14:26Z</time>
      </trkpt>
      <trkpt lat="43.11784" lon="0.0928">
        <ele>556.3</ele>
        <time>2022-08-02T15:14:32Z</time>
      </trkpt>
      <trkpt lat="43.11796" lon="0.09271">
        <ele>557</ele>
        <time>2022-08-02T15:14:38Z</time>
      </trkpt>
      <trkpt lat="43.11806" lon="0.09262">
        <ele>559.5</ele>
        <time>2022-08-02T15:14:43Z</time>
      </trkpt>
      <trkpt lat="43.11817" lon="0.09253">
        <ele>560.7</ele>
        <time>2022-08-02T15:14:48Z</time>
      </trkpt>
      <trkpt lat="43.11828" lon="0.09244">
        <ele>563.3</ele>
        <time>2022-08-02T15:14:53Z</time>
      </trkpt>
      <trkpt lat="43.11839" lon="0.09234">
        <ele>564.6</ele>
        <time>2022-08-02T15:14:59Z</time>
      </trkpt>
      <trkpt lat="43.11852" lon="0.09224">
        <ele>565.1</ele>
        <time>2022-08-02T15:15:05Z</time>
      </trkpt>
      <trkpt lat="43.11861" lon="0.09213">
        <ele>566.8</ele>
        <time>2022-08-02T15:15:10Z</time>
      </trkpt>
      <trkpt lat="43.1187" lon="0.092">
        <ele>567.5</ele>
        <time>2022-08-02T15:15:16Z</time>
      </trkpt>
      <trkpt lat="43.11882" lon="0.09186">
        <ele>569.1</ele>
        <time>2022-08-02T15:15:22Z</time>
      </trkpt>
      <trkpt lat="43.11891" lon="0.09172">
        <ele>569.8</ele>
        <time>2022-08-02T15:15:27Z</time>
      </trkpt>
      <trkpt lat="43.11899" lon="0.09157">
        <ele>570.9</ele>
        <time>2022-08-02T15:15:32Z</time>
      </trkpt>
      <trkpt lat="43.11907" lon="0.0914">
        <ele>569.9</ele>
        <time>2022-08-02T15:15:38Z</time>
      </trkpt>
      <trkpt lat="43.11911" lon="0.0912">
        <ele>570.3</ele>
        <time>2022-08-02T15:15:43Z</time>
      </trkpt>
      <trkpt lat="43.1191" lon="0.09102">
        <ele>569.2</ele>
        <time>2022-08-02T15:15:48Z</time>
      </trkpt>
      <trkpt lat="43.11904" lon="0.09085">
        <ele>568.8</ele>
        <time>2022-08-02T15:15:53Z</time>
      </trkpt>
      <trkpt lat="43.11887" lon="0.09072">
        <ele>568.9</ele>
        <time>2022-08-02T15:15:59Z</time>
      </trkpt>
      <trkpt lat="43.11871" lon="0.09073">
        <ele>568.6</ele>
        <time>2022-08-02T15:16:04Z</time>
      </trkpt>
      <trkpt lat="43.11852" lon="0.09087">
        <ele>569.5</ele>
        <time>2022-08-02T15:16:10Z</time>
      </trkpt>
      <trkpt lat="43.11834" lon="0.09098">
        <ele>571.6</ele>
        <time>2022-08-02T15:16:16Z</time>
      </trkpt>
      <trkpt lat="43.11816" lon="0.09099">
        <ele>574.3</ele>
        <time>2022-08-02T15:16:22Z</time>
      </trkpt>
      <trkpt lat="43.11806" lon="0.09083">
        <ele>577.1</ele>
        <time>2022-08-02T15:16:27Z</time>
      </trkpt>
      <trkpt lat="43.11808" lon="0.09058">
        <ele>578.6</ele>
        <time>2022-08-02T15:16:33Z</time>
      </trkpt>
      <trkpt lat="43.11813" lon="0.09035">
        <ele>579.6</ele>
        <time>2022-08-02T15:16:39Z</time>
      </trkpt>
      <trkpt lat="43.11816" lon="0.09015">
        <ele>581.1</ele>
        <time>2022-08-02T15:16:44Z</time>
      </trkpt>
      <trkpt lat="43.11819" lon="0.08996">
        <ele>580.6</ele>
        <time>2022-08-02T15:16:49Z</time>
      </trkpt>
      <trkpt lat="43.11824" lon="0.08972">
        <ele>581.4</ele>
        <time>2022-08-02T15:16:55Z</time>
      </trkpt>
      <trkpt lat="43.11829" lon="0.08951">
        <ele>582.4</ele>
        <time>2022-08-02T15:17:01Z</time>
      </trkpt>
      <trkpt lat="43.1183" lon="0.08949">
        <ele>583.1</ele>
        <time>2022-08-02T15:17:06Z</time>
      </trkpt>
      <trkpt lat="43.1183" lon="0.08949">
        <ele>583</ele>
        <time>2022-08-02T15:17:12Z</time>
      </trkpt>
      <trkpt lat="43.1183" lon="0.08949">
        <ele>583.5</ele>
        <time>2022-08-02T15:17:17Z</time>
      </trkpt>
      <trkpt lat="43.11831" lon="0.08948">
        <ele>583.3</ele>
        <time>2022-08-02T15:17:23Z</time>
      </trkpt>
      <trkpt lat="43.11831" lon="0.08948">
        <ele>583.3</ele>
        <time>2022-08-02T15:17:29Z</time>
      </trkpt>
      <trkpt lat="43.11831" lon="0.08948">
        <ele>583.3</ele>
        <time>2022-08-02T15:17:35Z</time>
      </trkpt>
      <trkpt lat="43.11831" lon="0.08948">
        <ele>583.3</ele>
        <time>2022-08-02T15:17:41Z</time>
      </trkpt>
      <trkpt lat="43.11831" lon="0.08948">
        <ele>583.3</ele>
        <time>2022-08-02T15:17:46Z</time>
      </trkpt>
      <trkpt lat="43.11831" lon="0.08948">
        <ele>583.3</ele>
        <time>2022-08-02T15:17:51Z</time>
      </trkpt>
      <trkpt lat="43.11831" lon="0.08948">
        <ele>583.3</ele>
        <time>2022-08-02T15:17:56Z</time>
      </trkpt>
      <trkpt lat="43.11831" lon="0.08948">
        <ele>583.3</ele>
        <time>2022-08-02T15:18:02Z</time>
      </trkpt>
      <trkpt lat="43.11831" lon="0.08948">
        <ele>583.3</ele>
        <time>2022-08-02T15:18:08Z</time>
      </trkpt>
      <trkpt lat="43.1183" lon="0.08947">
        <ele>582.8</ele>
        <time>2022-08-02T15:18:13Z</time>
      </trkpt>
      <trkpt lat="43.11831" lon="0.08946">
        <ele>583.2</ele>
        <time>2022-08-02T15:18:18Z</time>
      </trkpt>
      <trkpt lat="43.11833" lon="0.08935">
        <ele>583.1</ele>
        <time>2022-08-02T15:18:24Z</time>
      </trkpt>
      <trkpt lat="43.11837" lon="0.08918">
        <ele>582.9</ele>
        <time>2022-08-02T15:18:30Z</time>
      </trkpt>
      <trkpt lat="43.11842" lon="0.08895">
        <ele>585.2</ele>
        <time>2022-08-02T15:18:35Z</time>
      </trkpt>
      <trkpt lat="43.11849" lon="0.08872">
        <ele>586.3</ele>
        <time>2022-08-02T15:18:41Z</time>
      </trkpt>
      <trkpt lat="43.11855" lon="0.08849">
        <ele>585.3</ele>
        <time>2022-08-02T15:18:47Z</time>
      </trkpt>
      <trkpt lat="43.11859" lon="0.08829">
        <ele>584.8</ele>
        <time>2022-08-02T15:18:52Z</time>
      </trkpt>
      <trkpt lat="43.11865" lon="0.08806">
        <ele>585.9</ele>
        <time>2022-08-02T15:18:58Z</time>
      </trkpt>
      <trkpt lat="43.11868" lon="0.08787">
        <ele>587.7</ele>
        <time>2022-08-02T15:19:03Z</time>
      </trkpt>
      <trkpt lat="43.11872" lon="0.08769">
        <ele>586.5</ele>
        <time>2022-08-02T15:19:09Z</time>
      </trkpt>
      <trkpt lat="43.11877" lon="0.08749">
        <ele>586.7</ele>
        <time>2022-08-02T15:19:15Z</time>
      </trkpt>
      <trkpt lat="43.11879" lon="0.08733">
        <ele>586.1</ele>
        <time>2022-08-02T15:19:20Z</time>
      </trkpt>
      <trkpt lat="43.1188" lon="0.08713">
        <ele>587.6</ele>
        <time>2022-08-02T15:19:26Z</time>
      </trkpt>
      <trkpt lat="43.11878" lon="0.08694">
        <ele>589.7</ele>
        <time>2022-08-02T15:19:32Z</time>
      </trkpt>
      <trkpt lat="43.11877" lon="0.08679">
        <ele>590.7</ele>
        <time>2022-08-02T15:19:37Z</time>
      </trkpt>
      <trkpt lat="43.11875" lon="0.08664">
        <ele>590.5</ele>
        <time>2022-08-02T15:19:42Z</time>
      </trkpt>
      <trkpt lat="43.1187" lon="0.08647">
        <ele>592.7</ele>
        <time>2022-08-02T15:19:47Z</time>
      </trkpt>
      <trkpt lat="43.11862" lon="0.08635">
        <ele>590.8</ele>
        <time>2022-08-02T15:19:52Z</time>
      </trkpt>
      <trkpt lat="43.11853" lon="0.08625">
        <ele>590.6</ele>
        <time>2022-08-02T15:19:58Z</time>
      </trkpt>
      <trkpt lat="43.11852" lon="0.08623">
        <ele>592.9</ele>
        <time>2022-08-02T15:20:04Z</time>
      </trkpt>
      <trkpt lat="43.11852" lon="0.08622">
        <ele>592</ele>
        <time>2022-08-02T15:20:10Z</time>
      </trkpt>
      <trkpt lat="43.11852" lon="0.08621">
        <ele>592.2</ele>
        <time>2022-08-02T15:20:15Z</time>
      </trkpt>
      <trkpt lat="43.11852" lon="0.08621">
        <ele>592.3</ele>
        <time>2022-08-02T15:20:21Z</time>
      </trkpt>
      <trkpt lat="43.11852" lon="0.08621">
        <ele>592.3</ele>
        <time>2022-08-02T15:20:26Z</time>
      </trkpt>
      <trkpt lat="43.11852" lon="0.08621">
        <ele>592.4</ele>
        <time>2022-08-02T15:20:31Z</time>
      </trkpt>
      <trkpt lat="43.11852" lon="0.08621">
        <ele>592.4</ele>
        <time>2022-08-02T15:20:38Z</time>
      </trkpt>
      <trkpt lat="43.11852" lon="0.08621">
        <ele>592.4</ele>
        <time>2022-08-02T15:20:43Z</time>
      </trkpt>
      <trkpt lat="43.11852" lon="0.08622">
        <ele>592.4</ele>
        <time>2022-08-02T15:20:49Z</time>
      </trkpt>
      <trkpt lat="43.11852" lon="0.08622">
        <ele>592.4</ele>
        <time>2022-08-02T15:20:55Z</time>
      </trkpt>
      <trkpt lat="43.11852" lon="0.08622">
        <ele>592.3</ele>
        <time>2022-08-02T15:21:00Z</time>
      </trkpt>
      <trkpt lat="43.11852" lon="0.08622">
        <ele>592.3</ele>
        <time>2022-08-02T15:21:05Z</time>
      </trkpt>
      <trkpt lat="43.11852" lon="0.08622">
        <ele>592.3</ele>
        <time>2022-08-02T15:21:11Z</time>
      </trkpt>
      <trkpt lat="43.11852" lon="0.08622">
        <ele>592.3</ele>
        <time>2022-08-02T15:21:16Z</time>
      </trkpt>
      <trkpt lat="43.11852" lon="0.08622">
        <ele>592.3</ele>
        <time>2022-08-02T15:21:21Z</time>
      </trkpt>
      <trkpt lat="43.11852" lon="0.08622">
        <ele>592.3</ele>
        <time>2022-08-02T15:21:27Z</time>
      </trkpt>
      <trkpt lat="43.11852" lon="0.08622">
        <ele>592.3</ele>
        <time>2022-08-02T15:21:33Z</time>
      </trkpt>
      <trkpt lat="43.11852" lon="0.08622">
        <ele>592.3</ele>
        <time>2022-08-02T15:21:38Z</time>
      </trkpt>
      <trkpt lat="43.11852" lon="0.08622">
        <ele>592.4</ele>
        <time>2022-08-02T15:21:44Z</time>
      </trkpt>
      <trkpt lat="43.11852" lon="0.08622">
        <ele>592.5</ele>
        <time>2022-08-02T15:21:49Z</time>
      </trkpt>
      <trkpt lat="43.11852" lon="0.08622">
        <ele>592.5</ele>
        <time>2022-08-02T15:21:55Z</time>
      </trkpt>
      <trkpt lat="43.11852" lon="0.08622">
        <ele>592.5</ele>
        <time>2022-08-02T15:22:00Z</time>
      </trkpt>
      <trkpt lat="43.11852" lon="0.08622">
        <ele>592.4</ele>
        <time>2022-08-02T15:22:05Z</time>
      </trkpt>
      <trkpt lat="43.11852" lon="0.08622">
        <ele>592.4</ele>
        <time>2022-08-02T15:22:11Z</time>
      </trkpt>
      <trkpt lat="43.11852" lon="0.08622">
        <ele>592.4</ele>
        <time>2022-08-02T15:22:16Z</time>
      </trkpt>
      <trkpt lat="43.11852" lon="0.08622">
        <ele>592.4</ele>
        <time>2022-08-02T15:22:22Z</time>
      </trkpt>
      <trkpt lat="43.11852" lon="0.08622">
        <ele>592.4</ele>
        <time>2022-08-02T15:22:27Z</time>
      </trkpt>
      <trkpt lat="43.11852" lon="0.08622">
        <ele>592.4</ele>
        <time>2022-08-02T15:22:33Z</time>
      </trkpt>
      <trkpt lat="43.11852" lon="0.08622">
        <ele>592.4</ele>
        <time>2022-08-02T15:22:38Z</time>
      </trkpt>
      <trkpt lat="43.11852" lon="0.08622">
        <ele>592.5</ele>
        <time>2022-08-02T15:22:43Z</time>
      </trkpt>
      <trkpt lat="43.11852" lon="0.08622">
        <ele>592.5</ele>
        <time>2022-08-02T15:22:49Z</time>
      </trkpt>
      <trkpt lat="43.11852" lon="0.08622">
        <ele>592.6</ele>
        <time>2022-08-02T15:22:55Z</time>
      </trkpt>
      <trkpt lat="43.11852" lon="0.08622">
        <ele>592.7</ele>
        <time>2022-08-02T15:23:01Z</time>
      </trkpt>
      <trkpt lat="43.11852" lon="0.08622">
        <ele>592.7</ele>
        <time>2022-08-02T15:23:06Z</time>
      </trkpt>
      <trkpt lat="43.11852" lon="0.08622">
        <ele>592.7</ele>
        <time>2022-08-02T15:23:12Z</time>
      </trkpt>
      <trkpt lat="43.11852" lon="0.08622">
        <ele>592.8</ele>
        <time>2022-08-02T15:23:17Z</time>
      </trkpt>
      <trkpt lat="43.11851" lon="0.08622">
        <ele>592.8</ele>
        <time>2022-08-02T15:23:22Z</time>
      </trkpt>
      <trkpt lat="43.11843" lon="0.08621">
        <ele>596.8</ele>
        <time>2022-08-02T15:23:28Z</time>
      </trkpt>
      <trkpt lat="43.1183" lon="0.08618">
        <ele>597.1</ele>
        <time>2022-08-02T15:23:33Z</time>
      </trkpt>
      <trkpt lat="43.11811" lon="0.0861">
        <ele>596.9</ele>
        <time>2022-08-02T15:23:39Z</time>
      </trkpt>
      <trkpt lat="43.11798" lon="0.08584">
        <ele>597.4</ele>
        <time>2022-08-02T15:23:45Z</time>
      </trkpt>
      <trkpt lat="43.11797" lon="0.08552">
        <ele>596.5</ele>
        <time>2022-08-02T15:23:51Z</time>
      </trkpt>
      <trkpt lat="43.11799" lon="0.08527">
        <ele>593.6</ele>
        <time>2022-08-02T15:23:56Z</time>
      </trkpt>
      <trkpt lat="43.11804" lon="0.08496">
        <ele>595.7</ele>
        <time>2022-08-02T15:24:02Z</time>
      </trkpt>
      <trkpt lat="43.11814" lon="0.08451">
        <ele>594.5</ele>
        <time>2022-08-02T15:24:08Z</time>
      </trkpt>
      <trkpt lat="43.11825" lon="0.08403">
        <ele>592.4</ele>
        <time>2022-08-02T15:24:13Z</time>
      </trkpt>
      <trkpt lat="43.11842" lon="0.08333">
        <ele>589</ele>
        <time>2022-08-02T15:24:19Z</time>
      </trkpt>
      <trkpt lat="43.11857" lon="0.08269">
        <ele>586.6</ele>
        <time>2022-08-02T15:24:24Z</time>
      </trkpt>
      <trkpt lat="43.11869" lon="0.08199">
        <ele>582.3</ele>
        <time>2022-08-02T15:24:29Z</time>
      </trkpt>
      <trkpt lat="43.11875" lon="0.08109">
        <ele>577.2</ele>
        <time>2022-08-02T15:24:35Z</time>
      </trkpt>
      <trkpt lat="43.11871" lon="0.08029">
        <ele>574.9</ele>
        <time>2022-08-02T15:24:40Z</time>
      </trkpt>
      <trkpt lat="43.11855" lon="0.07945">
        <ele>570.4</ele>
        <time>2022-08-02T15:24:45Z</time>
      </trkpt>
      <trkpt lat="43.11837" lon="0.07852">
        <ele>568.1</ele>
        <time>2022-08-02T15:24:51Z</time>
      </trkpt>
      <trkpt lat="43.11838" lon="0.07778">
        <ele>564.8</ele>
        <time>2022-08-02T15:24:56Z</time>
      </trkpt>
      <trkpt lat="43.11865" lon="0.07711">
        <ele>560.6</ele>
        <time>2022-08-02T15:25:01Z</time>
      </trkpt>
      <trkpt lat="43.11872" lon="0.07632">
        <ele>560.7</ele>
        <time>2022-08-02T15:25:07Z</time>
      </trkpt>
      <trkpt lat="43.11866" lon="0.07576">
        <ele>560.9</ele>
        <time>2022-08-02T15:25:12Z</time>
      </trkpt>
      <trkpt lat="43.11858" lon="0.07519">
        <ele>561.2</ele>
        <time>2022-08-02T15:25:18Z</time>
      </trkpt>
      <trkpt lat="43.1185" lon="0.07477">
        <ele>565.5</ele>
        <time>2022-08-02T15:25:23Z</time>
      </trkpt>
      <trkpt lat="43.11845" lon="0.07427">
        <ele>565</ele>
        <time>2022-08-02T15:25:29Z</time>
      </trkpt>
      <trkpt lat="43.1184" lon="0.0738">
        <ele>564.9</ele>
        <time>2022-08-02T15:25:35Z</time>
      </trkpt>
      <trkpt lat="43.11836" lon="0.07344">
        <ele>568.4</ele>
        <time>2022-08-02T15:25:40Z</time>
      </trkpt>
      <trkpt lat="43.1183" lon="0.07304">
        <ele>569.6</ele>
        <time>2022-08-02T15:25:46Z</time>
      </trkpt>
      <trkpt lat="43.11826" lon="0.07266">
        <ele>569.8</ele>
        <time>2022-08-02T15:25:52Z</time>
      </trkpt>
      <trkpt lat="43.11823" lon="0.07232">
        <ele>570.6</ele>
        <time>2022-08-02T15:25:58Z</time>
      </trkpt>
      <trkpt lat="43.11819" lon="0.07204">
        <ele>571.3</ele>
        <time>2022-08-02T15:26:04Z</time>
      </trkpt>
      <trkpt lat="43.11815" lon="0.07184">
        <ele>572.6</ele>
        <time>2022-08-02T15:26:09Z</time>
      </trkpt>
      <trkpt lat="43.11812" lon="0.07148">
        <ele>574.1</ele>
        <time>2022-08-02T15:26:15Z</time>
      </trkpt>
      <trkpt lat="43.11809" lon="0.07123">
        <ele>577.9</ele>
        <time>2022-08-02T15:26:20Z</time>
      </trkpt>
      <trkpt lat="43.11804" lon="0.07097">
        <ele>576.1</ele>
        <time>2022-08-02T15:26:26Z</time>
      </trkpt>
      <trkpt lat="43.11801" lon="0.07071">
        <ele>576.5</ele>
        <time>2022-08-02T15:26:32Z</time>
      </trkpt>
      <trkpt lat="43.11798" lon="0.0705">
        <ele>575.6</ele>
        <time>2022-08-02T15:26:37Z</time>
      </trkpt>
      <trkpt lat="43.11794" lon="0.07036">
        <ele>577.2</ele>
        <time>2022-08-02T15:26:42Z</time>
      </trkpt>
      <trkpt lat="43.11793" lon="0.07035">
        <ele>578.2</ele>
        <time>2022-08-02T15:26:48Z</time>
      </trkpt>
      <trkpt lat="43.11793" lon="0.07034">
        <ele>577.9</ele>
        <time>2022-08-02T15:26:53Z</time>
      </trkpt>
      <trkpt lat="43.11793" lon="0.07034">
        <ele>577.8</ele>
        <time>2022-08-02T15:26:59Z</time>
      </trkpt>
      <trkpt lat="43.11793" lon="0.07034">
        <ele>577.8</ele>
        <time>2022-08-02T15:27:05Z</time>
      </trkpt>
      <trkpt lat="43.11793" lon="0.07034">
        <ele>577.8</ele>
        <time>2022-08-02T15:27:10Z</time>
      </trkpt>
      <trkpt lat="43.11793" lon="0.07034">
        <ele>577.9</ele>
        <time>2022-08-02T15:27:15Z</time>
      </trkpt>
      <trkpt lat="43.11793" lon="0.07034">
        <ele>577.9</ele>
        <time>2022-08-02T15:27:20Z</time>
      </trkpt>
      <trkpt lat="43.11793" lon="0.07034">
        <ele>577.9</ele>
        <time>2022-08-02T15:27:25Z</time>
      </trkpt>
      <trkpt lat="43.11793" lon="0.07034">
        <ele>577.9</ele>
        <time>2022-08-02T15:27:31Z</time>
      </trkpt>
      <trkpt lat="43.11793" lon="0.07034">
        <ele>577.9</ele>
        <time>2022-08-02T15:27:37Z</time>
      </trkpt>
      <trkpt lat="43.11793" lon="0.07034">
        <ele>578</ele>
        <time>2022-08-02T15:27:42Z</time>
      </trkpt>
      <trkpt lat="43.11792" lon="0.07032">
        <ele>578.4</ele>
        <time>2022-08-02T15:27:48Z</time>
      </trkpt>
      <trkpt lat="43.11785" lon="0.07019">
        <ele>579.5</ele>
        <time>2022-08-02T15:27:53Z</time>
      </trkpt>
      <trkpt lat="43.11772" lon="0.07003">
        <ele>581.4</ele>
        <time>2022-08-02T15:27:58Z</time>
      </trkpt>
      <trkpt lat="43.11764" lon="0.06993">
        <ele>584.1</ele>
        <time>2022-08-02T15:28:03Z</time>
      </trkpt>
      <trkpt lat="43.11747" lon="0.06976">
        <ele>585.7</ele>
        <time>2022-08-02T15:28:09Z</time>
      </trkpt>
      <trkpt lat="43.11728" lon="0.06958">
        <ele>587.8</ele>
        <time>2022-08-02T15:28:14Z</time>
      </trkpt>
      <trkpt lat="43.11712" lon="0.0694">
        <ele>586.4</ele>
        <time>2022-08-02T15:28:20Z</time>
      </trkpt>
      <trkpt lat="43.117" lon="0.06923">
        <ele>585.7</ele>
        <time>2022-08-02T15:28:25Z</time>
      </trkpt>
      <trkpt lat="43.11686" lon="0.069">
        <ele>583.8</ele>
        <time>2022-08-02T15:28:30Z</time>
      </trkpt>
      <trkpt lat="43.11679" lon="0.06856">
        <ele>579.9</ele>
        <time>2022-08-02T15:28:36Z</time>
      </trkpt>
      <trkpt lat="43.11668" lon="0.06787">
        <ele>576.8</ele>
        <time>2022-08-02T15:28:42Z</time>
      </trkpt>
      <trkpt lat="43.11655" lon="0.06704">
        <ele>573.5</ele>
        <time>2022-08-02T15:28:48Z</time>
      </trkpt>
      <trkpt lat="43.11641" lon="0.0663">
        <ele>569.7</ele>
        <time>2022-08-02T15:28:53Z</time>
      </trkpt>
      <trkpt lat="43.11625" lon="0.06552">
        <ele>562.3</ele>
        <time>2022-08-02T15:28:58Z</time>
      </trkpt>
      <trkpt lat="43.11613" lon="0.0645">
        <ele>556.7</ele>
        <time>2022-08-02T15:29:04Z</time>
      </trkpt>
      <trkpt lat="43.11619" lon="0.06364">
        <ele>554.4</ele>
        <time>2022-08-02T15:29:09Z</time>
      </trkpt>
      <trkpt lat="43.11626" lon="0.0628">
        <ele>550.4</ele>
        <time>2022-08-02T15:29:14Z</time>
      </trkpt>
      <trkpt lat="43.11604" lon="0.06186">
        <ele>543</ele>
        <time>2022-08-02T15:29:20Z</time>
      </trkpt>
      <trkpt lat="43.11588" lon="0.06105">
        <ele>537.4</ele>
        <time>2022-08-02T15:29:25Z</time>
      </trkpt>
      <trkpt lat="43.11566" lon="0.06022">
        <ele>533.4</ele>
        <time>2022-08-02T15:29:31Z</time>
      </trkpt>
      <trkpt lat="43.11534" lon="0.05954">
        <ele>529.2</ele>
        <time>2022-08-02T15:29:36Z</time>
      </trkpt>
      <trkpt lat="43.11498" lon="0.05896">
        <ele>523.7</ele>
        <time>2022-08-02T15:29:41Z</time>
      </trkpt>
      <trkpt lat="43.11453" lon="0.05846">
        <ele>517.6</ele>
        <time>2022-08-02T15:29:46Z</time>
      </trkpt>
      <trkpt lat="43.114" lon="0.05775">
        <ele>514.7</ele>
        <time>2022-08-02T15:29:52Z</time>
      </trkpt>
      <trkpt lat="43.11355" lon="0.05717">
        <ele>510.9</ele>
        <time>2022-08-02T15:29:57Z</time>
      </trkpt>
      <trkpt lat="43.11302" lon="0.05648">
        <ele>502.9</ele>
        <time>2022-08-02T15:30:03Z</time>
      </trkpt>
      <trkpt lat="43.11247" lon="0.05592">
        <ele>493.5</ele>
        <time>2022-08-02T15:30:09Z</time>
      </trkpt>
      <trkpt lat="43.1123" lon="0.05516">
        <ele>488.8</ele>
        <time>2022-08-02T15:30:14Z</time>
      </trkpt>
      <trkpt lat="43.11238" lon="0.05414">
        <ele>483.6</ele>
        <time>2022-08-02T15:30:20Z</time>
      </trkpt>
      <trkpt lat="43.11262" lon="0.0532">
        <ele>476</ele>
        <time>2022-08-02T15:30:26Z</time>
      </trkpt>
      <trkpt lat="43.11297" lon="0.05251">
        <ele>473.5</ele>
        <time>2022-08-02T15:30:31Z</time>
      </trkpt>
      <trkpt lat="43.11351" lon="0.05188">
        <ele>469</ele>
        <time>2022-08-02T15:30:37Z</time>
      </trkpt>
      <trkpt lat="43.11354" lon="0.05089">
        <ele>464.6</ele>
        <time>2022-08-02T15:30:43Z</time>
      </trkpt>
      <trkpt lat="43.11391" lon="0.05002">
        <ele>462.2</ele>
        <time>2022-08-02T15:30:49Z</time>
      </trkpt>
      <trkpt lat="43.11407" lon="0.0493">
        <ele>458.4</ele>
        <time>2022-08-02T15:30:54Z</time>
      </trkpt>
      <trkpt lat="43.11393" lon="0.04859">
        <ele>451.1</ele>
        <time>2022-08-02T15:30:59Z</time>
      </trkpt>
      <trkpt lat="43.11378" lon="0.04764">
        <ele>446.2</ele>
        <time>2022-08-02T15:31:05Z</time>
      </trkpt>
      <trkpt lat="43.1135" lon="0.04684">
        <ele>442.6</ele>
        <time>2022-08-02T15:31:11Z</time>
      </trkpt>
      <trkpt lat="43.11325" lon="0.04628">
        <ele>442.4</ele>
        <time>2022-08-02T15:31:16Z</time>
      </trkpt>
      <trkpt lat="43.11298" lon="0.04564">
        <ele>443.2</ele>
        <time>2022-08-02T15:31:22Z</time>
      </trkpt>
      <trkpt lat="43.11271" lon="0.045">
        <ele>443</ele>
        <time>2022-08-02T15:31:28Z</time>
      </trkpt>
      <trkpt lat="43.11244" lon="0.04437">
        <ele>442.6</ele>
        <time>2022-08-02T15:31:34Z</time>
      </trkpt>
      <trkpt lat="43.11221" lon="0.04385">
        <ele>441</ele>
        <time>2022-08-02T15:31:39Z</time>
      </trkpt>
      <trkpt lat="43.11194" lon="0.0432">
        <ele>440.1</ele>
        <time>2022-08-02T15:31:45Z</time>
      </trkpt>
      <trkpt lat="43.11168" lon="0.04259">
        <ele>440.8</ele>
        <time>2022-08-02T15:31:51Z</time>
      </trkpt>
      <trkpt lat="43.11143" lon="0.042">
        <ele>440.9</ele>
        <time>2022-08-02T15:31:57Z</time>
      </trkpt>
      <trkpt lat="43.11118" lon="0.04142">
        <ele>441.4</ele>
        <time>2022-08-02T15:32:03Z</time>
      </trkpt>
      <trkpt lat="43.11093" lon="0.04084">
        <ele>440.7</ele>
        <time>2022-08-02T15:32:09Z</time>
      </trkpt>
      <trkpt lat="43.11073" lon="0.04038">
        <ele>441.2</ele>
        <time>2022-08-02T15:32:14Z</time>
      </trkpt>
      <trkpt lat="43.11052" lon="0.0399">
        <ele>441.8</ele>
        <time>2022-08-02T15:32:19Z</time>
      </trkpt>
      <trkpt lat="43.11028" lon="0.03933">
        <ele>441.5</ele>
        <time>2022-08-02T15:32:25Z</time>
      </trkpt>
      <trkpt lat="43.11008" lon="0.03888">
        <ele>441.5</ele>
        <time>2022-08-02T15:32:30Z</time>
      </trkpt>
      <trkpt lat="43.10985" lon="0.03834">
        <ele>443.1</ele>
        <time>2022-08-02T15:32:36Z</time>
      </trkpt>
      <trkpt lat="43.10965" lon="0.03789">
        <ele>441.2</ele>
        <time>2022-08-02T15:32:41Z</time>
      </trkpt>
      <trkpt lat="43.10947" lon="0.03744">
        <ele>442.2</ele>
        <time>2022-08-02T15:32:46Z</time>
      </trkpt>
      <trkpt lat="43.10926" lon="0.037">
        <ele>444.3</ele>
        <time>2022-08-02T15:32:51Z</time>
      </trkpt>
      <trkpt lat="43.10908" lon="0.03657">
        <ele>445.8</ele>
        <time>2022-08-02T15:32:56Z</time>
      </trkpt>
      <trkpt lat="43.10884" lon="0.03607">
        <ele>445.6</ele>
        <time>2022-08-02T15:33:02Z</time>
      </trkpt>
      <trkpt lat="43.10867" lon="0.03566">
        <ele>445.3</ele>
        <time>2022-08-02T15:33:07Z</time>
      </trkpt>
      <trkpt lat="43.1085" lon="0.03527">
        <ele>444.8</ele>
        <time>2022-08-02T15:33:12Z</time>
      </trkpt>
      <trkpt lat="43.10832" lon="0.03483">
        <ele>444.7</ele>
        <time>2022-08-02T15:33:17Z</time>
      </trkpt>
      <trkpt lat="43.1081" lon="0.03431">
        <ele>444.7</ele>
        <time>2022-08-02T15:33:23Z</time>
      </trkpt>
      <trkpt lat="43.10789" lon="0.03381">
        <ele>445.8</ele>
        <time>2022-08-02T15:33:29Z</time>
      </trkpt>
      <trkpt lat="43.10763" lon="0.03336">
        <ele>442.3</ele>
        <time>2022-08-02T15:33:35Z</time>
      </trkpt>
      <trkpt lat="43.10734" lon="0.03306">
        <ele>439.7</ele>
        <time>2022-08-02T15:33:40Z</time>
      </trkpt>
      <trkpt lat="43.10695" lon="0.03276">
        <ele>437.9</ele>
        <time>2022-08-02T15:33:46Z</time>
      </trkpt>
      <trkpt lat="43.10651" lon="0.03256">
        <ele>437</ele>
        <time>2022-08-02T15:33:52Z</time>
      </trkpt>
      <trkpt lat="43.10615" lon="0.03237">
        <ele>430.4</ele>
        <time>2022-08-02T15:33:57Z</time>
      </trkpt>
      <trkpt lat="43.10567" lon="0.03217">
        <ele>433.6</ele>
        <time>2022-08-02T15:34:03Z</time>
      </trkpt>
      <trkpt lat="43.10535" lon="0.03189">
        <ele>431.3</ele>
        <time>2022-08-02T15:34:08Z</time>
      </trkpt>
      <trkpt lat="43.1052" lon="0.03131">
        <ele>429.7</ele>
        <time>2022-08-02T15:34:14Z</time>
      </trkpt>
      <trkpt lat="43.105" lon="0.03092">
        <ele>431</ele>
        <time>2022-08-02T15:34:19Z</time>
      </trkpt>
      <trkpt lat="43.10471" lon="0.03075">
        <ele>433</ele>
        <time>2022-08-02T15:34:24Z</time>
      </trkpt>
      <trkpt lat="43.10439" lon="0.03064">
        <ele>431.4</ele>
        <time>2022-08-02T15:34:30Z</time>
      </trkpt>
      <trkpt lat="43.10407" lon="0.03056">
        <ele>432.7</ele>
        <time>2022-08-02T15:34:36Z</time>
      </trkpt>
      <trkpt lat="43.10378" lon="0.03048">
        <ele>432.9</ele>
        <time>2022-08-02T15:34:42Z</time>
      </trkpt>
      <trkpt lat="43.10358" lon="0.03044">
        <ele>433.5</ele>
        <time>2022-08-02T15:34:47Z</time>
      </trkpt>
      <trkpt lat="43.10342" lon="0.03043">
        <ele>437.2</ele>
        <time>2022-08-02T15:34:52Z</time>
      </trkpt>
      <trkpt lat="43.10314" lon="0.03036">
        <ele>438.9</ele>
        <time>2022-08-02T15:34:57Z</time>
      </trkpt>
      <trkpt lat="43.10293" lon="0.0303">
        <ele>440</ele>
        <time>2022-08-02T15:35:03Z</time>
      </trkpt>
      <trkpt lat="43.10272" lon="0.03024">
        <ele>441.4</ele>
        <time>2022-08-02T15:35:08Z</time>
      </trkpt>
      <trkpt lat="43.10251" lon="0.03015">
        <ele>444.9</ele>
        <time>2022-08-02T15:35:13Z</time>
      </trkpt>
      <trkpt lat="43.10226" lon="0.03003">
        <ele>446.4</ele>
        <time>2022-08-02T15:35:19Z</time>
      </trkpt>
      <trkpt lat="43.10205" lon="0.02988">
        <ele>449.5</ele>
        <time>2022-08-02T15:35:24Z</time>
      </trkpt>
      <trkpt lat="43.10181" lon="0.02968">
        <ele>451.9</ele>
        <time>2022-08-02T15:35:30Z</time>
      </trkpt>
      <trkpt lat="43.10158" lon="0.02942">
        <ele>452.1</ele>
        <time>2022-08-02T15:35:36Z</time>
      </trkpt>
      <trkpt lat="43.10137" lon="0.02909">
        <ele>450.3</ele>
        <time>2022-08-02T15:35:42Z</time>
      </trkpt>
      <trkpt lat="43.1012" lon="0.02878">
        <ele>448.4</ele>
        <time>2022-08-02T15:35:47Z</time>
      </trkpt>
      <trkpt lat="43.10104" lon="0.02835">
        <ele>448.5</ele>
        <time>2022-08-02T15:35:53Z</time>
      </trkpt>
      <trkpt lat="43.10093" lon="0.0279">
        <ele>448</ele>
        <time>2022-08-02T15:35:59Z</time>
      </trkpt>
      <trkpt lat="43.10083" lon="0.02749">
        <ele>451.5</ele>
        <time>2022-08-02T15:36:04Z</time>
      </trkpt>
      <trkpt lat="43.10068" lon="0.02708">
        <ele>451.7</ele>
        <time>2022-08-02T15:36:09Z</time>
      </trkpt>
      <trkpt lat="43.10039" lon="0.02664">
        <ele>454.1</ele>
        <time>2022-08-02T15:36:15Z</time>
      </trkpt>
      <trkpt lat="43.10015" lon="0.02633">
        <ele>455.7</ele>
        <time>2022-08-02T15:36:20Z</time>
      </trkpt>
      <trkpt lat="43.09994" lon="0.02607">
        <ele>455</ele>
        <time>2022-08-02T15:36:25Z</time>
      </trkpt>
      <trkpt lat="43.09978" lon="0.02569">
        <ele>453.3</ele>
        <time>2022-08-02T15:36:31Z</time>
      </trkpt>
      <trkpt lat="43.09969" lon="0.02531">
        <ele>452</ele>
        <time>2022-08-02T15:36:36Z</time>
      </trkpt>
      <trkpt lat="43.0996" lon="0.02487">
        <ele>451.8</ele>
        <time>2022-08-02T15:36:42Z</time>
      </trkpt>
      <trkpt lat="43.09952" lon="0.02451">
        <ele>451.2</ele>
        <time>2022-08-02T15:36:47Z</time>
      </trkpt>
      <trkpt lat="43.09943" lon="0.02414">
        <ele>452.6</ele>
        <time>2022-08-02T15:36:52Z</time>
      </trkpt>
      <trkpt lat="43.09936" lon="0.02378">
        <ele>452.4</ele>
        <time>2022-08-02T15:36:57Z</time>
      </trkpt>
      <trkpt lat="43.09928" lon="0.02333">
        <ele>448</ele>
        <time>2022-08-02T15:37:03Z</time>
      </trkpt>
      <trkpt lat="43.09921" lon="0.02292">
        <ele>447.9</ele>
        <time>2022-08-02T15:37:08Z</time>
      </trkpt>
      <trkpt lat="43.0991" lon="0.02242">
        <ele>448.5</ele>
        <time>2022-08-02T15:37:14Z</time>
      </trkpt>
      <trkpt lat="43.099" lon="0.02193">
        <ele>449</ele>
        <time>2022-08-02T15:37:20Z</time>
      </trkpt>
      <trkpt lat="43.0989" lon="0.02145">
        <ele>450.5</ele>
        <time>2022-08-02T15:37:26Z</time>
      </trkpt>
      <trkpt lat="43.09881" lon="0.02097">
        <ele>452.6</ele>
        <time>2022-08-02T15:37:32Z</time>
      </trkpt>
      <trkpt lat="43.0987" lon="0.0205">
        <ele>454</ele>
        <time>2022-08-02T15:37:38Z</time>
      </trkpt>
      <trkpt lat="43.09864" lon="0.02013">
        <ele>455.1</ele>
        <time>2022-08-02T15:37:43Z</time>
      </trkpt>
      <trkpt lat="43.09854" lon="0.01971">
        <ele>454.8</ele>
        <time>2022-08-02T15:37:49Z</time>
      </trkpt>
      <trkpt lat="43.09842" lon="0.01936">
        <ele>454.4</ele>
        <time>2022-08-02T15:37:54Z</time>
      </trkpt>
      <trkpt lat="43.0983" lon="0.01909">
        <ele>456.7</ele>
        <time>2022-08-02T15:37:59Z</time>
      </trkpt>
      <trkpt lat="43.09827" lon="0.01906">
        <ele>455.9</ele>
        <time>2022-08-02T15:38:05Z</time>
      </trkpt>
      <trkpt lat="43.09827" lon="0.01906">
        <ele>456.6</ele>
        <time>2022-08-02T15:38:11Z</time>
      </trkpt>
      <trkpt lat="43.09827" lon="0.01906">
        <ele>456.5</ele>
        <time>2022-08-02T15:38:17Z</time>
      </trkpt>
      <trkpt lat="43.09827" lon="0.01906">
        <ele>456.5</ele>
        <time>2022-08-02T15:38:22Z</time>
      </trkpt>
      <trkpt lat="43.09827" lon="0.01906">
        <ele>456.5</ele>
        <time>2022-08-02T15:38:28Z</time>
      </trkpt>
      <trkpt lat="43.09827" lon="0.01906">
        <ele>456.6</ele>
        <time>2022-08-02T15:38:34Z</time>
      </trkpt>
      <trkpt lat="43.09827" lon="0.01906">
        <ele>456.5</ele>
        <time>2022-08-02T15:38:39Z</time>
      </trkpt>
      <trkpt lat="43.09827" lon="0.01906">
        <ele>456.6</ele>
        <time>2022-08-02T15:38:44Z</time>
      </trkpt>
      <trkpt lat="43.09827" lon="0.01906">
        <ele>456.6</ele>
        <time>2022-08-02T15:38:50Z</time>
      </trkpt>
      <trkpt lat="43.09827" lon="0.01906">
        <ele>456.6</ele>
        <time>2022-08-02T15:38:55Z</time>
      </trkpt>
      <trkpt lat="43.09827" lon="0.01906">
        <ele>456.6</ele>
        <time>2022-08-02T15:39:01Z</time>
      </trkpt>
      <trkpt lat="43.09827" lon="0.01906">
        <ele>456.6</ele>
        <time>2022-08-02T15:39:06Z</time>
      </trkpt>
      <trkpt lat="43.09827" lon="0.01906">
        <ele>456.6</ele>
        <time>2022-08-02T15:39:11Z</time>
      </trkpt>
      <trkpt lat="43.09827" lon="0.01906">
        <ele>456.7</ele>
        <time>2022-08-02T15:39:16Z</time>
      </trkpt>
      <trkpt lat="43.09827" lon="0.01906">
        <ele>456.6</ele>
        <time>2022-08-02T15:39:22Z</time>
      </trkpt>
      <trkpt lat="43.09827" lon="0.01906">
        <ele>456.6</ele>
        <time>2022-08-02T15:39:28Z</time>
      </trkpt>
      <trkpt lat="43.09827" lon="0.01906">
        <ele>456.6</ele>
        <time>2022-08-02T15:39:34Z</time>
      </trkpt>
      <trkpt lat="43.09827" lon="0.01906">
        <ele>456.5</ele>
        <time>2022-08-02T15:39:39Z</time>
      </trkpt>
      <trkpt lat="43.09827" lon="0.01906">
        <ele>456.5</ele>
        <time>2022-08-02T15:39:44Z</time>
      </trkpt>
      <trkpt lat="43.09827" lon="0.01906">
        <ele>456.6</ele>
        <time>2022-08-02T15:39:50Z</time>
      </trkpt>
      <trkpt lat="43.09827" lon="0.01906">
        <ele>456.7</ele>
        <time>2022-08-02T15:39:55Z</time>
      </trkpt>
      <trkpt lat="43.09827" lon="0.01906">
        <ele>456.6</ele>
        <time>2022-08-02T15:40:00Z</time>
      </trkpt>
      <trkpt lat="43.09827" lon="0.01906">
        <ele>456.6</ele>
        <time>2022-08-02T15:40:06Z</time>
      </trkpt>
      <trkpt lat="43.09827" lon="0.01906">
        <ele>456.6</ele>
        <time>2022-08-02T15:40:11Z</time>
      </trkpt>
      <trkpt lat="43.09827" lon="0.01906">
        <ele>456.7</ele>
        <time>2022-08-02T15:40:17Z</time>
      </trkpt>
      <trkpt lat="43.09827" lon="0.01906">
        <ele>456.7</ele>
        <time>2022-08-02T15:40:22Z</time>
      </trkpt>
      <trkpt lat="43.09825" lon="0.01905">
        <ele>457.7</ele>
        <time>2022-08-02T15:40:28Z</time>
      </trkpt>
      <trkpt lat="43.09821" lon="0.01896">
        <ele>458.1</ele>
        <time>2022-08-02T15:40:33Z</time>
      </trkpt>
      <trkpt lat="43.09812" lon="0.01877">
        <ele>453.5</ele>
        <time>2022-08-02T15:40:39Z</time>
      </trkpt>
      <trkpt lat="43.09801" lon="0.01856">
        <ele>453.7</ele>
        <time>2022-08-02T15:40:44Z</time>
      </trkpt>
      <trkpt lat="43.09787" lon="0.01832">
        <ele>456.3</ele>
        <time>2022-08-02T15:40:50Z</time>
      </trkpt>
      <trkpt lat="43.09768" lon="0.01798">
        <ele>455.5</ele>
        <time>2022-08-02T15:40:55Z</time>
      </trkpt>
      <trkpt lat="43.09753" lon="0.01769">
        <ele>456.2</ele>
        <time>2022-08-02T15:41:00Z</time>
      </trkpt>
      <trkpt lat="43.09741" lon="0.01732">
        <ele>456</ele>
        <time>2022-08-02T15:41:06Z</time>
      </trkpt>
      <trkpt lat="43.09729" lon="0.01704">
        <ele>456</ele>
        <time>2022-08-02T15:41:11Z</time>
      </trkpt>
      <trkpt lat="43.09718" lon="0.01674">
        <ele>455.8</ele>
        <time>2022-08-02T15:41:16Z</time>
      </trkpt>
      <trkpt lat="43.09697" lon="0.01629">
        <ele>456</ele>
        <time>2022-08-02T15:41:22Z</time>
      </trkpt>
      <trkpt lat="43.09681" lon="0.01583">
        <ele>454.3</ele>
        <time>2022-08-02T15:41:27Z</time>
      </trkpt>
      <trkpt lat="43.09665" lon="0.01539">
        <ele>456.8</ele>
        <time>2022-08-02T15:41:32Z</time>
      </trkpt>
      <trkpt lat="43.09649" lon="0.01495">
        <ele>459.5</ele>
        <time>2022-08-02T15:41:37Z</time>
      </trkpt>
      <trkpt lat="43.09643" lon="0.0144">
        <ele>456.6</ele>
        <time>2022-08-02T15:41:43Z</time>
      </trkpt>
      <trkpt lat="43.09644" lon="0.01383">
        <ele>453.3</ele>
        <time>2022-08-02T15:41:49Z</time>
      </trkpt>
      <trkpt lat="43.09634" lon="0.0133">
        <ele>455.2</ele>
        <time>2022-08-02T15:41:55Z</time>
      </trkpt>
      <trkpt lat="43.09617" lon="0.01292">
        <ele>454</ele>
        <time>2022-08-02T15:42:01Z</time>
      </trkpt>
      <trkpt lat="43.096" lon="0.01262">
        <ele>456.6</ele>
        <time>2022-08-02T15:42:07Z</time>
      </trkpt>
      <trkpt lat="43.09585" lon="0.01237">
        <ele>457.3</ele>
        <time>2022-08-02T15:42:12Z</time>
      </trkpt>
      <trkpt lat="43.09567" lon="0.01202">
        <ele>458.8</ele>
        <time>2022-08-02T15:42:18Z</time>
      </trkpt>
      <trkpt lat="43.09548" lon="0.01165">
        <ele>460.5</ele>
        <time>2022-08-02T15:42:24Z</time>
      </trkpt>
      <trkpt lat="43.09532" lon="0.01129">
        <ele>459.3</ele>
        <time>2022-08-02T15:42:30Z</time>
      </trkpt>
      <trkpt lat="43.09521" lon="0.01103">
        <ele>458.6</ele>
        <time>2022-08-02T15:42:35Z</time>
      </trkpt>
      <trkpt lat="43.09502" lon="0.01067">
        <ele>458.5</ele>
        <time>2022-08-02T15:42:41Z</time>
      </trkpt>
      <trkpt lat="43.09485" lon="0.01026">
        <ele>457.6</ele>
        <time>2022-08-02T15:42:47Z</time>
      </trkpt>
      <trkpt lat="43.09468" lon="0.00982">
        <ele>462</ele>
        <time>2022-08-02T15:42:53Z</time>
      </trkpt>
      <trkpt lat="43.09466" lon="0.00938">
        <ele>459.3</ele>
        <time>2022-08-02T15:42:58Z</time>
      </trkpt>
      <trkpt lat="43.09466" lon="0.00881">
        <ele>457.5</ele>
        <time>2022-08-02T15:43:04Z</time>
      </trkpt>
      <trkpt lat="43.09465" lon="0.00825">
        <ele>454.8</ele>
        <time>2022-08-02T15:43:10Z</time>
      </trkpt>
      <trkpt lat="43.09466" lon="0.00784">
        <ele>456.8</ele>
        <time>2022-08-02T15:43:15Z</time>
      </trkpt>
      <trkpt lat="43.09469" lon="0.00733">
        <ele>453.6</ele>
        <time>2022-08-02T15:43:21Z</time>
      </trkpt>
      <trkpt lat="43.09467" lon="0.00694">
        <ele>455.7</ele>
        <time>2022-08-02T15:43:26Z</time>
      </trkpt>
      <trkpt lat="43.09466" lon="0.00649">
        <ele>455.9</ele>
        <time>2022-08-02T15:43:31Z</time>
      </trkpt>
      <trkpt lat="43.09465" lon="0.00594">
        <ele>456.9</ele>
        <time>2022-08-02T15:43:37Z</time>
      </trkpt>
      <trkpt lat="43.09465" lon="0.00544">
        <ele>454.2</ele>
        <time>2022-08-02T15:43:43Z</time>
      </trkpt>
      <trkpt lat="43.09465" lon="0.00502">
        <ele>454.9</ele>
        <time>2022-08-02T15:43:48Z</time>
      </trkpt>
      <trkpt lat="43.09467" lon="0.00452">
        <ele>455.3</ele>
        <time>2022-08-02T15:43:54Z</time>
      </trkpt>
      <trkpt lat="43.09468" lon="0.00408">
        <ele>455.8</ele>
        <time>2022-08-02T15:43:59Z</time>
      </trkpt>
      <trkpt lat="43.09469" lon="0.00364">
        <ele>455.1</ele>
        <time>2022-08-02T15:44:04Z</time>
      </trkpt>
      <trkpt lat="43.09471" lon="0.00319">
        <ele>454.5</ele>
        <time>2022-08-02T15:44:09Z</time>
      </trkpt>
      <trkpt lat="43.09472" lon="0.00266">
        <ele>453.3</ele>
        <time>2022-08-02T15:44:15Z</time>
      </trkpt>
      <trkpt lat="43.09473" lon="0.00211">
        <ele>454.1</ele>
        <time>2022-08-02T15:44:21Z</time>
      </trkpt>
      <trkpt lat="43.09472" lon="0.00165">
        <ele>454.9</ele>
        <time>2022-08-02T15:44:26Z</time>
      </trkpt>
      <trkpt lat="43.09472" lon="0.00116">
        <ele>454</ele>
        <time>2022-08-02T15:44:32Z</time>
      </trkpt>
      <trkpt lat="43.09471" lon="0.00074">
        <ele>455.5</ele>
        <time>2022-08-02T15:44:37Z</time>
      </trkpt>
      <trkpt lat="43.0947" lon="0.00035">
        <ele>457.1</ele>
        <time>2022-08-02T15:44:42Z</time>
      </trkpt>
      <trkpt lat="43.09471" lon="-0.00015">
        <ele>456.4</ele>
        <time>2022-08-02T15:44:48Z</time>
      </trkpt>
      <trkpt lat="43.09471" lon="-0.00056">
        <ele>458.1</ele>
        <time>2022-08-02T15:44:53Z</time>
      </trkpt>
      <trkpt lat="43.09472" lon="-0.00107">
        <ele>457</ele>
        <time>2022-08-02T15:44:59Z</time>
      </trkpt>
      <trkpt lat="43.09471" lon="-0.00151">
        <ele>459.5</ele>
        <time>2022-08-02T15:45:04Z</time>
      </trkpt>
      <trkpt lat="43.09469" lon="-0.00196">
        <ele>459.5</ele>
        <time>2022-08-02T15:45:09Z</time>
      </trkpt>
      <trkpt lat="43.0947" lon="-0.0024">
        <ele>460.8</ele>
        <time>2022-08-02T15:45:14Z</time>
      </trkpt>
      <trkpt lat="43.09469" lon="-0.00297">
        <ele>460</ele>
        <time>2022-08-02T15:45:20Z</time>
      </trkpt>
      <trkpt lat="43.0947" lon="-0.00351">
        <ele>460</ele>
        <time>2022-08-02T15:45:26Z</time>
      </trkpt>
      <trkpt lat="43.09472" lon="-0.00403">
        <ele>459</ele>
        <time>2022-08-02T15:45:32Z</time>
      </trkpt>
      <trkpt lat="43.09471" lon="-0.00448">
        <ele>456.7</ele>
        <time>2022-08-02T15:45:37Z</time>
      </trkpt>
      <trkpt lat="43.09473" lon="-0.00504">
        <ele>458.1</ele>
        <time>2022-08-02T15:45:43Z</time>
      </trkpt>
      <trkpt lat="43.09474" lon="-0.00551">
        <ele>458.9</ele>
        <time>2022-08-02T15:45:48Z</time>
      </trkpt>
      <trkpt lat="43.09474" lon="-0.00605">
        <ele>457.5</ele>
        <time>2022-08-02T15:45:54Z</time>
      </trkpt>
      <trkpt lat="43.09476" lon="-0.00651">
        <ele>457.9</ele>
        <time>2022-08-02T15:45:59Z</time>
      </trkpt>
      <trkpt lat="43.09475" lon="-0.00704">
        <ele>460.6</ele>
        <time>2022-08-02T15:46:05Z</time>
      </trkpt>
      <trkpt lat="43.09474" lon="-0.0075">
        <ele>459.9</ele>
        <time>2022-08-02T15:46:10Z</time>
      </trkpt>
      <trkpt lat="43.09474" lon="-0.00796">
        <ele>460.7</ele>
        <time>2022-08-02T15:46:15Z</time>
      </trkpt>
      <trkpt lat="43.09472" lon="-0.00854">
        <ele>460.5</ele>
        <time>2022-08-02T15:46:21Z</time>
      </trkpt>
      <trkpt lat="43.09472" lon="-0.00904">
        <ele>461.3</ele>
        <time>2022-08-02T15:46:27Z</time>
      </trkpt>
      <trkpt lat="43.09474" lon="-0.00946">
        <ele>463.2</ele>
        <time>2022-08-02T15:46:32Z</time>
      </trkpt>
      <trkpt lat="43.09474" lon="-0.00996">
        <ele>461.9</ele>
        <time>2022-08-02T15:46:38Z</time>
      </trkpt>
      <trkpt lat="43.09474" lon="-0.01038">
        <ele>460.6</ele>
        <time>2022-08-02T15:46:43Z</time>
      </trkpt>
      <trkpt lat="43.09475" lon="-0.01079">
        <ele>460.5</ele>
        <time>2022-08-02T15:46:48Z</time>
      </trkpt>
      <trkpt lat="43.09475" lon="-0.01131">
        <ele>458.5</ele>
        <time>2022-08-02T15:46:54Z</time>
      </trkpt>
      <trkpt lat="43.09477" lon="-0.01174">
        <ele>461.6</ele>
        <time>2022-08-02T15:46:59Z</time>
      </trkpt>
      <trkpt lat="43.09478" lon="-0.01225">
        <ele>457.8</ele>
        <time>2022-08-02T15:47:05Z</time>
      </trkpt>
      <trkpt lat="43.09476" lon="-0.01277">
        <ele>459.3</ele>
        <time>2022-08-02T15:47:11Z</time>
      </trkpt>
      <trkpt lat="43.09478" lon="-0.01321">
        <ele>460.1</ele>
        <time>2022-08-02T15:47:16Z</time>
      </trkpt>
      <trkpt lat="43.09478" lon="-0.01372">
        <ele>459.3</ele>
        <time>2022-08-02T15:47:22Z</time>
      </trkpt>
      <trkpt lat="43.09479" lon="-0.01421">
        <ele>457.6</ele>
        <time>2022-08-02T15:47:28Z</time>
      </trkpt>
      <trkpt lat="43.09487" lon="-0.01467">
        <ele>458.5</ele>
        <time>2022-08-02T15:47:34Z</time>
      </trkpt>
      <trkpt lat="43.095" lon="-0.01507">
        <ele>458.9</ele>
        <time>2022-08-02T15:47:39Z</time>
      </trkpt>
      <trkpt lat="43.09512" lon="-0.01548">
        <ele>458.6</ele>
        <time>2022-08-02T15:47:44Z</time>
      </trkpt>
      <trkpt lat="43.09523" lon="-0.0159">
        <ele>457.7</ele>
        <time>2022-08-02T15:47:49Z</time>
      </trkpt>
      <trkpt lat="43.09535" lon="-0.0164">
        <ele>457.9</ele>
        <time>2022-08-02T15:47:55Z</time>
      </trkpt>
      <trkpt lat="43.09543" lon="-0.0168">
        <ele>457.9</ele>
        <time>2022-08-02T15:48:00Z</time>
      </trkpt>
      <trkpt lat="43.09546" lon="-0.01722">
        <ele>458.2</ele>
        <time>2022-08-02T15:48:05Z</time>
      </trkpt>
      <trkpt lat="43.0955" lon="-0.01768">
        <ele>459.9</ele>
        <time>2022-08-02T15:48:10Z</time>
      </trkpt>
      <trkpt lat="43.09558" lon="-0.01822">
        <ele>459.8</ele>
        <time>2022-08-02T15:48:16Z</time>
      </trkpt>
      <trkpt lat="43.09566" lon="-0.01874">
        <ele>457.5</ele>
        <time>2022-08-02T15:48:22Z</time>
      </trkpt>
      <trkpt lat="43.09573" lon="-0.01918">
        <ele>458.1</ele>
        <time>2022-08-02T15:48:27Z</time>
      </trkpt>
      <trkpt lat="43.0958" lon="-0.01968">
        <ele>460.5</ele>
        <time>2022-08-02T15:48:33Z</time>
      </trkpt>
      <trkpt lat="43.09589" lon="-0.02018">
        <ele>460.7</ele>
        <time>2022-08-02T15:48:39Z</time>
      </trkpt>
      <trkpt lat="43.09594" lon="-0.0206">
        <ele>459.4</ele>
        <time>2022-08-02T15:48:44Z</time>
      </trkpt>
      <trkpt lat="43.096" lon="-0.02109">
        <ele>459.9</ele>
        <time>2022-08-02T15:48:50Z</time>
      </trkpt>
      <trkpt lat="43.09605" lon="-0.02157">
        <ele>459.7</ele>
        <time>2022-08-02T15:48:56Z</time>
      </trkpt>
      <trkpt lat="43.09612" lon="-0.02204">
        <ele>459.2</ele>
        <time>2022-08-02T15:49:02Z</time>
      </trkpt>
      <trkpt lat="43.09617" lon="-0.02244">
        <ele>459.7</ele>
        <time>2022-08-02T15:49:07Z</time>
      </trkpt>
      <trkpt lat="43.09623" lon="-0.02284">
        <ele>459.7</ele>
        <time>2022-08-02T15:49:13Z</time>
      </trkpt>
      <trkpt lat="43.0963" lon="-0.02326">
        <ele>458.5</ele>
        <time>2022-08-02T15:49:19Z</time>
      </trkpt>
      <trkpt lat="43.09633" lon="-0.02358">
        <ele>459.3</ele>
        <time>2022-08-02T15:49:25Z</time>
      </trkpt>
      <trkpt lat="43.09639" lon="-0.02393">
        <ele>460.1</ele>
        <time>2022-08-02T15:49:30Z</time>
      </trkpt>
      <trkpt lat="43.09646" lon="-0.02433">
        <ele>461.4</ele>
        <time>2022-08-02T15:49:36Z</time>
      </trkpt>
      <trkpt lat="43.09651" lon="-0.02468">
        <ele>460.7</ele>
        <time>2022-08-02T15:49:41Z</time>
      </trkpt>
      <trkpt lat="43.09656" lon="-0.02503">
        <ele>461.6</ele>
        <time>2022-08-02T15:49:46Z</time>
      </trkpt>
      <trkpt lat="43.09659" lon="-0.02545">
        <ele>459.6</ele>
        <time>2022-08-02T15:49:52Z</time>
      </trkpt>
      <trkpt lat="43.09665" lon="-0.02588">
        <ele>460.4</ele>
        <time>2022-08-02T15:49:58Z</time>
      </trkpt>
      <trkpt lat="43.09678" lon="-0.02628">
        <ele>462.7</ele>
        <time>2022-08-02T15:50:04Z</time>
      </trkpt>
      <trkpt lat="43.09695" lon="-0.02658">
        <ele>464.8</ele>
        <time>2022-08-02T15:50:09Z</time>
      </trkpt>
      <trkpt lat="43.09712" lon="-0.02686">
        <ele>463.5</ele>
        <time>2022-08-02T15:50:14Z</time>
      </trkpt>
      <trkpt lat="43.09728" lon="-0.02725">
        <ele>461.1</ele>
        <time>2022-08-02T15:50:20Z</time>
      </trkpt>
      <trkpt lat="43.09737" lon="-0.02773">
        <ele>462.7</ele>
        <time>2022-08-02T15:50:26Z</time>
      </trkpt>
      <trkpt lat="43.09744" lon="-0.02817">
        <ele>461.1</ele>
        <time>2022-08-02T15:50:32Z</time>
      </trkpt>
      <trkpt lat="43.09764" lon="-0.02845">
        <ele>459.2</ele>
        <time>2022-08-02T15:50:37Z</time>
      </trkpt>
      <trkpt lat="43.09757" lon="-0.02883">
        <ele>459.3</ele>
        <time>2022-08-02T15:50:42Z</time>
      </trkpt>
      <trkpt lat="43.0975" lon="-0.02935">
        <ele>458.5</ele>
        <time>2022-08-02T15:50:48Z</time>
      </trkpt>
      <trkpt lat="43.09754" lon="-0.02984">
        <ele>456.8</ele>
        <time>2022-08-02T15:50:54Z</time>
      </trkpt>
      <trkpt lat="43.09754" lon="-0.03007">
        <ele>458.5</ele>
        <time>2022-08-02T15:50:59Z</time>
      </trkpt>
      <trkpt lat="43.09753" lon="-0.03027">
        <ele>457.5</ele>
        <time>2022-08-02T15:51:04Z</time>
      </trkpt>
      <trkpt lat="43.09753" lon="-0.03052">
        <ele>456.5</ele>
        <time>2022-08-02T15:51:09Z</time>
      </trkpt>
      <trkpt lat="43.09758" lon="-0.03089">
        <ele>453.7</ele>
        <time>2022-08-02T15:51:15Z</time>
      </trkpt>
      <trkpt lat="43.09772" lon="-0.03133">
        <ele>455.2</ele>
        <time>2022-08-02T15:51:21Z</time>
      </trkpt>
      <trkpt lat="43.09789" lon="-0.03178">
        <ele>453.2</ele>
        <time>2022-08-02T15:51:27Z</time>
      </trkpt>
      <trkpt lat="43.09812" lon="-0.03188">
        <ele>453.3</ele>
        <time>2022-08-02T15:51:32Z</time>
      </trkpt>
      <trkpt lat="43.09822" lon="-0.03224">
        <ele>452.5</ele>
        <time>2022-08-02T15:51:38Z</time>
      </trkpt>
      <trkpt lat="43.09794" lon="-0.03244">
        <ele>452</ele>
        <time>2022-08-02T15:51:44Z</time>
      </trkpt>
      <trkpt lat="43.09769" lon="-0.03234">
        <ele>453.2</ele>
        <time>2022-08-02T15:51:49Z</time>
      </trkpt>
      <trkpt lat="43.09739" lon="-0.03251">
        <ele>452.9</ele>
        <time>2022-08-02T15:51:55Z</time>
      </trkpt>
      <trkpt lat="43.09709" lon="-0.03273">
        <ele>451.1</ele>
        <time>2022-08-02T15:52:01Z</time>
      </trkpt>
      <trkpt lat="43.09682" lon="-0.0329">
        <ele>450.7</ele>
        <time>2022-08-02T15:52:06Z</time>
      </trkpt>
      <trkpt lat="43.09659" lon="-0.03314">
        <ele>448.9</ele>
        <time>2022-08-02T15:52:11Z</time>
      </trkpt>
      <trkpt lat="43.09634" lon="-0.03349">
        <ele>447</ele>
        <time>2022-08-02T15:52:17Z</time>
      </trkpt>
      <trkpt lat="43.09616" lon="-0.0338">
        <ele>446.7</ele>
        <time>2022-08-02T15:52:22Z</time>
      </trkpt>
      <trkpt lat="43.09601" lon="-0.03426">
        <ele>443.8</ele>
        <time>2022-08-02T15:52:28Z</time>
      </trkpt>
      <trkpt lat="43.0959" lon="-0.03463">
        <ele>443.1</ele>
        <time>2022-08-02T15:52:33Z</time>
      </trkpt>
      <trkpt lat="43.0957" lon="-0.03495">
        <ele>442.8</ele>
        <time>2022-08-02T15:52:39Z</time>
      </trkpt>
      <trkpt lat="43.09537" lon="-0.03499">
        <ele>443.4</ele>
        <time>2022-08-02T15:52:45Z</time>
      </trkpt>
      <trkpt lat="43.09511" lon="-0.03524">
        <ele>444.8</ele>
        <time>2022-08-02T15:52:51Z</time>
      </trkpt>
      <trkpt lat="43.09496" lon="-0.03546">
        <ele>444.7</ele>
        <time>2022-08-02T15:52:56Z</time>
      </trkpt>
      <trkpt lat="43.09481" lon="-0.03569">
        <ele>447.5</ele>
        <time>2022-08-02T15:53:01Z</time>
      </trkpt>
      <trkpt lat="43.09468" lon="-0.03597">
        <ele>447</ele>
        <time>2022-08-02T15:53:07Z</time>
      </trkpt>
      <trkpt lat="43.0946" lon="-0.03627">
        <ele>446.8</ele>
        <time>2022-08-02T15:53:12Z</time>
      </trkpt>
      <trkpt lat="43.09458" lon="-0.03669">
        <ele>445.5</ele>
        <time>2022-08-02T15:53:18Z</time>
      </trkpt>
      <trkpt lat="43.09451" lon="-0.03707">
        <ele>449.1</ele>
        <time>2022-08-02T15:53:24Z</time>
      </trkpt>
      <trkpt lat="43.09446" lon="-0.03737">
        <ele>448.9</ele>
        <time>2022-08-02T15:53:29Z</time>
      </trkpt>
      <trkpt lat="43.09447" lon="-0.03773">
        <ele>449.6</ele>
        <time>2022-08-02T15:53:35Z</time>
      </trkpt>
      <trkpt lat="43.09455" lon="-0.03805">
        <ele>450.3</ele>
        <time>2022-08-02T15:53:40Z</time>
      </trkpt>
      <trkpt lat="43.09464" lon="-0.03846">
        <ele>450.5</ele>
        <time>2022-08-02T15:53:46Z</time>
      </trkpt>
      <trkpt lat="43.0947" lon="-0.03882">
        <ele>451.7</ele>
        <time>2022-08-02T15:53:51Z</time>
      </trkpt>
      <trkpt lat="43.09479" lon="-0.03922">
        <ele>450.4</ele>
        <time>2022-08-02T15:53:57Z</time>
      </trkpt>
      <trkpt lat="43.09484" lon="-0.0395">
        <ele>452.5</ele>
        <time>2022-08-02T15:54:02Z</time>
      </trkpt>
      <trkpt lat="43.09488" lon="-0.03964">
        <ele>450.8</ele>
        <time>2022-08-02T15:54:07Z</time>
      </trkpt>
      <trkpt lat="43.09488" lon="-0.03961">
        <ele>452.2</ele>
        <time>2022-08-02T15:54:13Z</time>
      </trkpt>
      <trkpt lat="43.09486" lon="-0.03961">
        <ele>451.9</ele>
        <time>2022-08-02T15:54:19Z</time>
      </trkpt>
      <trkpt lat="43.09486" lon="-0.03961">
        <ele>451.8</ele>
        <time>2022-08-02T15:54:24Z</time>
      </trkpt>
      <trkpt lat="43.09486" lon="-0.03961">
        <ele>451.8</ele>
        <time>2022-08-02T15:54:30Z</time>
      </trkpt>
      <trkpt lat="43.09486" lon="-0.03972">
        <ele>450.9</ele>
        <time>2022-08-02T15:54:35Z</time>
      </trkpt>
      <trkpt lat="43.09481" lon="-0.03992">
        <ele>451.2</ele>
        <time>2022-08-02T15:54:41Z</time>
      </trkpt>
      <trkpt lat="43.09465" lon="-0.04039">
        <ele>447.2</ele>
        <time>2022-08-02T15:54:47Z</time>
      </trkpt>
      <trkpt lat="43.09447" lon="-0.04081">
        <ele>449.1</ele>
        <time>2022-08-02T15:54:53Z</time>
      </trkpt>
      <trkpt lat="43.09432" lon="-0.04117">
        <ele>449.8</ele>
        <time>2022-08-02T15:54:58Z</time>
      </trkpt>
      <trkpt lat="43.09417" lon="-0.04157">
        <ele>446.7</ele>
        <time>2022-08-02T15:55:04Z</time>
      </trkpt>
      <trkpt lat="43.09403" lon="-0.04192">
        <ele>447.9</ele>
        <time>2022-08-02T15:55:09Z</time>
      </trkpt>
      <trkpt lat="43.09389" lon="-0.04235">
        <ele>447.1</ele>
        <time>2022-08-02T15:55:15Z</time>
      </trkpt>
      <trkpt lat="43.09369" lon="-0.04268">
        <ele>441.4</ele>
        <time>2022-08-02T15:55:20Z</time>
      </trkpt>
      <trkpt lat="43.0934" lon="-0.04308">
        <ele>440.6</ele>
        <time>2022-08-02T15:55:26Z</time>
      </trkpt>
      <trkpt lat="43.09317" lon="-0.04341">
        <ele>442.9</ele>
        <time>2022-08-02T15:55:31Z</time>
      </trkpt>
      <trkpt lat="43.09289" lon="-0.04368">
        <ele>446.6</ele>
        <time>2022-08-02T15:55:37Z</time>
      </trkpt>
      <trkpt lat="43.09273" lon="-0.044">
        <ele>447.1</ele>
        <time>2022-08-02T15:55:42Z</time>
      </trkpt>
      <trkpt lat="43.09257" lon="-0.04424">
        <ele>445.7</ele>
        <time>2022-08-02T15:55:47Z</time>
      </trkpt>
      <trkpt lat="43.09244" lon="-0.04452">
        <ele>443.1</ele>
        <time>2022-08-02T15:55:53Z</time>
      </trkpt>
      <trkpt lat="43.09236" lon="-0.04481">
        <ele>443.2</ele>
        <time>2022-08-02T15:55:58Z</time>
      </trkpt>
      <trkpt lat="43.09231" lon="-0.04505">
        <ele>451.7</ele>
        <time>2022-08-02T15:56:04Z</time>
      </trkpt>
      <trkpt lat="43.09228" lon="-0.04527">
        <ele>452.6</ele>
        <time>2022-08-02T15:56:09Z</time>
      </trkpt>
      <trkpt lat="43.09227" lon="-0.04549">
        <ele>454.7</ele>
        <time>2022-08-02T15:56:14Z</time>
      </trkpt>
      <trkpt lat="43.09226" lon="-0.04574">
        <ele>454.3</ele>
        <time>2022-08-02T15:56:20Z</time>
      </trkpt>
      <trkpt lat="43.09227" lon="-0.04599">
        <ele>451.9</ele>
        <time>2022-08-02T15:56:25Z</time>
      </trkpt>
      <trkpt lat="43.09238" lon="-0.04615">
        <ele>451.2</ele>
        <time>2022-08-02T15:56:30Z</time>
      </trkpt>
      <trkpt lat="43.09258" lon="-0.04617">
        <ele>454.1</ele>
        <time>2022-08-02T15:56:36Z</time>
      </trkpt>
      <trkpt lat="43.09277" lon="-0.04616">
        <ele>455.6</ele>
        <time>2022-08-02T15:56:41Z</time>
      </trkpt>
      <trkpt lat="43.09296" lon="-0.04618">
        <ele>461</ele>
        <time>2022-08-02T15:56:46Z</time>
      </trkpt>
      <trkpt lat="43.09316" lon="-0.04621">
        <ele>459</ele>
        <time>2022-08-02T15:56:51Z</time>
      </trkpt>
      <trkpt lat="43.09329" lon="-0.04622">
        <ele>456.6</ele>
        <time>2022-08-02T15:56:56Z</time>
      </trkpt>
      <trkpt lat="43.09341" lon="-0.04624">
        <ele>455</ele>
        <time>2022-08-02T15:57:02Z</time>
      </trkpt>
      <trkpt lat="43.09347" lon="-0.04625">
        <ele>454.9</ele>
        <time>2022-08-02T15:57:07Z</time>
      </trkpt>
      <trkpt lat="43.09348" lon="-0.04624">
        <ele>456.4</ele>
        <time>2022-08-02T15:57:13Z</time>
      </trkpt>
      <trkpt lat="43.09348" lon="-0.04624">
        <ele>457.5</ele>
        <time>2022-08-02T15:57:19Z</time>
      </trkpt>
      <trkpt lat="43.09351" lon="-0.04626">
        <ele>457</ele>
        <time>2022-08-02T15:57:24Z</time>
      </trkpt>
      <trkpt lat="43.09353" lon="-0.04641">
        <ele>455.3</ele>
        <time>2022-08-02T15:57:30Z</time>
      </trkpt>
      <trkpt lat="43.09354" lon="-0.04674">
        <ele>454</ele>
        <time>2022-08-02T15:57:35Z</time>
      </trkpt>
      <trkpt lat="43.09356" lon="-0.04703">
        <ele>453.9</ele>
        <time>2022-08-02T15:57:41Z</time>
      </trkpt>
      <trkpt lat="43.09357" lon="-0.04733">
        <ele>453</ele>
        <time>2022-08-02T15:57:47Z</time>
      </trkpt>
      <trkpt lat="43.09357" lon="-0.04754">
        <ele>453.8</ele>
        <time>2022-08-02T15:57:52Z</time>
      </trkpt>
      <trkpt lat="43.09357" lon="-0.04777">
        <ele>455</ele>
        <time>2022-08-02T15:57:57Z</time>
      </trkpt>
      <trkpt lat="43.09357" lon="-0.04799">
        <ele>455.8</ele>
        <time>2022-08-02T15:58:02Z</time>
      </trkpt>
      <trkpt lat="43.09355" lon="-0.04811">
        <ele>456.8</ele>
        <time>2022-08-02T15:58:07Z</time>
      </trkpt>
      <trkpt lat="43.09348" lon="-0.04825">
        <ele>461.1</ele>
        <time>2022-08-02T15:58:13Z</time>
      </trkpt>
      <trkpt lat="43.09341" lon="-0.04835">
        <ele>461.6</ele>
        <time>2022-08-02T15:58:18Z</time>
      </trkpt>
      <trkpt lat="43.09329" lon="-0.04844">
        <ele>458.7</ele>
        <time>2022-08-02T15:58:23Z</time>
      </trkpt>
      <trkpt lat="43.09322" lon="-0.04876">
        <ele>455.9</ele>
        <time>2022-08-02T15:58:28Z</time>
      </trkpt>
      <trkpt lat="43.09323" lon="-0.04915">
        <ele>456.1</ele>
        <time>2022-08-02T15:58:34Z</time>
      </trkpt>
      <trkpt lat="43.09325" lon="-0.04946">
        <ele>459.1</ele>
        <time>2022-08-02T15:58:39Z</time>
      </trkpt>
      <trkpt lat="43.09327" lon="-0.04952">
        <ele>459.3</ele>
        <time>2022-08-02T15:58:44Z</time>
      </trkpt>
      <trkpt lat="43.09338" lon="-0.04951">
        <ele>463.6</ele>
        <time>2022-08-02T15:58:49Z</time>
      </trkpt>
      <trkpt lat="43.09359" lon="-0.04946">
        <ele>461.9</ele>
        <time>2022-08-02T15:58:54Z</time>
      </trkpt>
      <trkpt lat="43.09383" lon="-0.04941">
        <ele>458.9</ele>
        <time>2022-08-02T15:58:59Z</time>
      </trkpt>
      <trkpt lat="43.09406" lon="-0.04945">
        <ele>454</ele>
        <time>2022-08-02T15:59:05Z</time>
      </trkpt>
      <trkpt lat="43.09434" lon="-0.04949">
        <ele>455</ele>
        <time>2022-08-02T15:59:11Z</time>
      </trkpt>
      <trkpt lat="43.09462" lon="-0.04951">
        <ele>453.5</ele>
        <time>2022-08-02T15:59:17Z</time>
      </trkpt>
      <trkpt lat="43.0948" lon="-0.04952">
        <ele>453.2</ele>
        <time>2022-08-02T15:59:22Z</time>
      </trkpt>
      <trkpt lat="43.0948" lon="-0.04974">
        <ele>456.9</ele>
        <time>2022-08-02T15:59:28Z</time>
      </trkpt>
      <trkpt lat="43.0948" lon="-0.05016">
        <ele>450.5</ele>
        <time>2022-08-02T15:59:33Z</time>
      </trkpt>
      <trkpt lat="43.09478" lon="-0.05038">
        <ele>444</ele>
        <time>2022-08-02T15:59:38Z</time>
      </trkpt>
      <trkpt lat="43.09477" lon="-0.05063">
        <ele>444.1</ele>
        <time>2022-08-02T15:59:43Z</time>
      </trkpt>
      <trkpt lat="43.09475" lon="-0.05085">
        <ele>444.8</ele>
        <time>2022-08-02T15:59:49Z</time>
      </trkpt>
      <trkpt lat="43.09473" lon="-0.05093">
        <ele>441.1</ele>
        <time>2022-08-02T15:59:54Z</time>
      </trkpt>
      <trkpt lat="43.09468" lon="-0.05116">
        <ele>444.3</ele>
        <time>2022-08-02T15:59:59Z</time>
      </trkpt>
      <trkpt lat="43.09454" lon="-0.05183">
        <ele>441.8</ele>
        <time>2022-08-02T16:00:05Z</time>
      </trkpt>
      <trkpt lat="43.0943" lon="-0.05194">
        <ele>441.2</ele>
        <time>2022-08-02T16:00:10Z</time>
      </trkpt>
      <trkpt lat="43.09411" lon="-0.0519">
        <ele>441</ele>
        <time>2022-08-02T16:00:15Z</time>
      </trkpt>
      <trkpt lat="43.09399" lon="-0.05188">
        <ele>442.1</ele>
        <time>2022-08-02T16:00:20Z</time>
      </trkpt>
      <trkpt lat="43.09413" lon="-0.05196">
        <ele>442.7</ele>
        <time>2022-08-02T16:00:26Z</time>
      </trkpt>
      <trkpt lat="43.09428" lon="-0.05198">
        <ele>440.5</ele>
        <time>2022-08-02T16:00:31Z</time>
      </trkpt>
      <trkpt lat="43.09434" lon="-0.05203">
        <ele>440</ele>
        <time>2022-08-02T16:00:36Z</time>
      </trkpt>
      <trkpt lat="43.0944" lon="-0.05209">
        <ele>443.6</ele>
        <time>2022-08-02T16:00:41Z</time>
      </trkpt>
      <trkpt lat="43.09451" lon="-0.05215">
        <ele>435</ele>
        <time>2022-08-02T16:00:46Z</time>
      </trkpt>
      <trkpt lat="43.09484" lon="-0.05229">
        <ele>431</ele>
        <time>2022-08-02T16:00:51Z</time>
      </trkpt>
      <trkpt lat="43.09488" lon="-0.05233">
        <ele>432.3</ele>
        <time>2022-08-02T16:00:57Z</time>
      </trkpt>
      <trkpt lat="43.09462" lon="-0.05243">
        <ele>433.2</ele>
        <time>2022-08-02T16:01:03Z</time>
      </trkpt>
      <trkpt lat="43.09427" lon="-0.0525">
        <ele>431.6</ele>
        <time>2022-08-02T16:01:09Z</time>
      </trkpt>
      <trkpt lat="43.09398" lon="-0.05271">
        <ele>433.6</ele>
        <time>2022-08-02T16:01:15Z</time>
      </trkpt>
      <trkpt lat="43.09374" lon="-0.05297">
        <ele>432.9</ele>
        <time>2022-08-02T16:01:21Z</time>
      </trkpt>
      <trkpt lat="43.09349" lon="-0.05325">
        <ele>435.7</ele>
        <time>2022-08-02T16:01:27Z</time>
      </trkpt>
      <trkpt lat="43.0933" lon="-0.05354">
        <ele>439.2</ele>
        <time>2022-08-02T16:01:33Z</time>
      </trkpt>
      <trkpt lat="43.09312" lon="-0.05377">
        <ele>437.7</ele>
        <time>2022-08-02T16:01:38Z</time>
      </trkpt>
      <trkpt lat="43.09297" lon="-0.054">
        <ele>435.9</ele>
        <time>2022-08-02T16:01:43Z</time>
      </trkpt>
      <trkpt lat="43.09274" lon="-0.05424">
        <ele>434.3</ele>
        <time>2022-08-02T16:01:49Z</time>
      </trkpt>
      <trkpt lat="43.09249" lon="-0.05445">
        <ele>428.8</ele>
        <time>2022-08-02T16:01:55Z</time>
      </trkpt>
      <trkpt lat="43.09236" lon="-0.05463">
        <ele>425</ele>
        <time>2022-08-02T16:02:00Z</time>
      </trkpt>
      <trkpt lat="43.09222" lon="-0.05478">
        <ele>425.6</ele>
        <time>2022-08-02T16:02:05Z</time>
      </trkpt>
      <trkpt lat="43.09204" lon="-0.05491">
        <ele>425.7</ele>
        <time>2022-08-02T16:02:10Z</time>
      </trkpt>
      <trkpt lat="43.09192" lon="-0.05493">
        <ele>431.4</ele>
        <time>2022-08-02T16:02:16Z</time>
      </trkpt>
      <trkpt lat="43.09195" lon="-0.0549">
        <ele>438.6</ele>
        <time>2022-08-02T16:02:21Z</time>
      </trkpt>
      <trkpt lat="43.09191" lon="-0.05485">
        <ele>439</ele>
        <time>2022-08-02T16:02:26Z</time>
      </trkpt>
      <trkpt lat="43.09176" lon="-0.05481">
        <ele>437.4</ele>
        <time>2022-08-02T16:02:31Z</time>
      </trkpt>
      <trkpt lat="43.09163" lon="-0.05474">
        <ele>434.7</ele>
        <time>2022-08-02T16:02:36Z</time>
      </trkpt>
      <trkpt lat="43.09142" lon="-0.05465">
        <ele>432.6</ele>
        <time>2022-08-02T16:02:41Z</time>
      </trkpt>
      <trkpt lat="43.09129" lon="-0.05458">
        <ele>430.9</ele>
        <time>2022-08-02T16:02:46Z</time>
      </trkpt>
      <trkpt lat="43.09133" lon="-0.05451">
        <ele>428.3</ele>
        <time>2022-08-02T16:02:52Z</time>
      </trkpt>
      <trkpt lat="43.09133" lon="-0.05451">
        <ele>430</ele>
        <time>2022-08-02T16:02:58Z</time>
      </trkpt>
      <trkpt lat="43.09132" lon="-0.05452">
        <ele>430.3</ele>
        <time>2022-08-02T16:03:03Z</time>
      </trkpt>
      <trkpt lat="43.09132" lon="-0.05452">
        <ele>430.3</ele>
        <time>2022-08-02T16:03:09Z</time>
      </trkpt>
      <trkpt lat="43.09132" lon="-0.05452">
        <ele>430.3</ele>
        <time>2022-08-02T16:03:15Z</time>
      </trkpt>
      <trkpt lat="43.09132" lon="-0.05452">
        <ele>430.3</ele>
        <time>2022-08-02T16:03:21Z</time>
      </trkpt>
      <trkpt lat="43.09122" lon="-0.05458">
        <ele>433.7</ele>
        <time>2022-08-02T16:03:26Z</time>
      </trkpt>
      <trkpt lat="43.09107" lon="-0.0547">
        <ele>428.9</ele>
        <time>2022-08-02T16:03:31Z</time>
      </trkpt>
      <trkpt lat="43.09082" lon="-0.05448">
        <ele>429.4</ele>
        <time>2022-08-02T16:03:37Z</time>
      </trkpt>
      <trkpt lat="43.09056" lon="-0.05435">
        <ele>426.5</ele>
        <time>2022-08-02T16:03:43Z</time>
      </trkpt>
      <trkpt lat="43.09035" lon="-0.05423">
        <ele>426.7</ele>
        <time>2022-08-02T16:03:48Z</time>
      </trkpt>
      <trkpt lat="43.09018" lon="-0.05412">
        <ele>426.6</ele>
        <time>2022-08-02T16:03:53Z</time>
      </trkpt>
      <trkpt lat="43.08996" lon="-0.05405">
        <ele>427</ele>
        <time>2022-08-02T16:03:58Z</time>
      </trkpt>
      <trkpt lat="43.0899" lon="-0.05423">
        <ele>428.6</ele>
        <time>2022-08-02T16:04:04Z</time>
      </trkpt>
      <trkpt lat="43.0899" lon="-0.05435">
        <ele>430.6</ele>
        <time>2022-08-02T16:04:09Z</time>
      </trkpt>
      <trkpt lat="43.08991" lon="-0.05437">
        <ele>428.4</ele>
        <time>2022-08-02T16:04:15Z</time>
      </trkpt>
    </trkseg>
  </trk>
</gpx>